<?xml version="1.0" encoding="UTF-8"?>
<TrainingCenterDatabase xmlns="http://www.garmin.com/xmlschemas/TrainingCenterDatabase/v2" xmlns:xsi="http://www.w3.org/2001/XMLSchema-instance" xsi:schemaLocation="http://www.garmin.com/xmlschemas/TrainingCenterDatabase/v2 http://www.garmin.com/xmlschemas/TrainingCenterDatabasev2.xsd">
  <Activities>
    <Activity Sport="Other">
      <Id>2021-06-20T05:42:07.000Z</Id>
      <Lap StartTime="2021-06-20T05:42:07.000Z">
        <TotalTimeSeconds>9443</TotalTimeSeconds>
        <DistanceMeters>27250</DistanceMeters>
        <Track>
          <Trackpoint>
            <Time>2021-06-20T05:42:07.000Z</Time>
            <Position>
              <LatitudeDegrees>38.86336301453411579132080078125</LatitudeDegrees>
              <LongitudeDegrees>-0.396422110497951507568359375</LongitudeDegrees>
            </Position>
            <AltitudeMeters>301.399993896484375</AltitudeMeters>
            <DistanceMeters>0</DistanceMeters>
          </Trackpoint>
          <Trackpoint>
            <Time>2021-06-20T05:42:09.000Z</Time>
            <Position>
              <LatitudeDegrees>38.8633282296359539031982421875</LatitudeDegrees>
              <LongitudeDegrees>-0.39643191732466220855712890625</LongitudeDegrees>
            </Position>
            <AltitudeMeters>301.399993896484375</AltitudeMeters>
            <DistanceMeters>3.9638785314993</DistanceMeters>
          </Trackpoint>
          <Trackpoint>
            <Time>2021-06-20T05:42:11.000Z</Time>
            <Position>
              <LatitudeDegrees>38.863300569355487823486328125</LatitudeDegrees>
              <LongitudeDegrees>-0.396444238722324371337890625</LongitudeDegrees>
            </Position>
            <AltitudeMeters>302.399993896484375</AltitudeMeters>
            <DistanceMeters>7.2212301891572</DistanceMeters>
          </Trackpoint>
          <Trackpoint>
            <Time>2021-06-20T05:42:12.000Z</Time>
            <Position>
              <LatitudeDegrees>38.8632896728813648223876953125</LatitudeDegrees>
              <LongitudeDegrees>-0.3964506089687347412109375</LongitudeDegrees>
            </Position>
            <AltitudeMeters>302.79998779296875</AltitudeMeters>
            <DistanceMeters>8.5549936837315</DistanceMeters>
          </Trackpoint>
          <Trackpoint>
            <Time>2021-06-20T05:42:14.000Z</Time>
            <Position>
              <LatitudeDegrees>38.86326930485665798187255859375</LatitudeDegrees>
              <LongitudeDegrees>-0.3964568115770816802978515625</LongitudeDegrees>
            </Position>
            <AltitudeMeters>303.399993896484375</AltitudeMeters>
            <DistanceMeters>10.882663305128</DistanceMeters>
          </Trackpoint>
          <Trackpoint>
            <Time>2021-06-20T05:42:16.000Z</Time>
            <Position>
              <LatitudeDegrees>38.86324348859488964080810546875</LatitudeDegrees>
              <LongitudeDegrees>-0.3964640200138092041015625</LongitudeDegrees>
            </Position>
            <AltitudeMeters>304</AltitudeMeters>
            <DistanceMeters>13.823889789659</DistanceMeters>
          </Trackpoint>
          <Trackpoint>
            <Time>2021-06-20T05:42:18.000Z</Time>
            <Position>
              <LatitudeDegrees>38.8632078655064105987548828125</LatitudeDegrees>
              <LongitudeDegrees>-0.39646745659410953521728515625</LongitudeDegrees>
            </Position>
            <AltitudeMeters>304.399993896484375</AltitudeMeters>
            <DistanceMeters>17.800278082239</DistanceMeters>
          </Trackpoint>
          <Trackpoint>
            <Time>2021-06-20T05:42:21.000Z</Time>
            <Position>
              <LatitudeDegrees>38.86314139701426029205322265625</LatitudeDegrees>
              <LongitudeDegrees>-0.39647298865020275115966796875</LongitudeDegrees>
            </Position>
            <AltitudeMeters>305</AltitudeMeters>
            <DistanceMeters>25.213579994202</DistanceMeters>
          </Trackpoint>
          <Trackpoint>
            <Time>2021-06-20T05:42:22.000Z</Time>
            <Position>
              <LatitudeDegrees>38.86312790215015411376953125</LatitudeDegrees>
              <LongitudeDegrees>-0.39648019708693027496337890625</LongitudeDegrees>
            </Position>
            <AltitudeMeters>305.20001220703125</AltitudeMeters>
            <DistanceMeters>26.842948729179</DistanceMeters>
          </Trackpoint>
          <Trackpoint>
            <Time>2021-06-20T05:42:24.000Z</Time>
            <Position>
              <LatitudeDegrees>38.8631149940192699432373046875</LatitudeDegrees>
              <LongitudeDegrees>-0.3965077735483646392822265625</LongitudeDegrees>
            </Position>
            <AltitudeMeters>305.399993896484375</AltitudeMeters>
            <DistanceMeters>29.629679025028</DistanceMeters>
          </Trackpoint>
          <Trackpoint>
            <Time>2021-06-20T05:42:26.000Z</Time>
            <Position>
              <LatitudeDegrees>38.86311608366668224334716796875</LatitudeDegrees>
              <LongitudeDegrees>-0.39654088206589221954345703125</LongitudeDegrees>
            </Position>
            <AltitudeMeters>305.79998779296875</AltitudeMeters>
            <DistanceMeters>32.500995760139</DistanceMeters>
          </Trackpoint>
          <Trackpoint>
            <Time>2021-06-20T05:42:27.000Z</Time>
            <Position>
              <LatitudeDegrees>38.8631156645715236663818359375</LatitudeDegrees>
              <LongitudeDegrees>-0.3965632617473602294921875</LongitudeDegrees>
            </Position>
            <AltitudeMeters>306.20001220703125</AltitudeMeters>
            <DistanceMeters>34.441496179395</DistanceMeters>
          </Trackpoint>
          <Trackpoint>
            <Time>2021-06-20T05:42:29.000Z</Time>
            <Position>
              <LatitudeDegrees>38.8631129823625087738037109375</LatitudeDegrees>
              <LongitudeDegrees>-0.3966115415096282958984375</LongitudeDegrees>
            </Position>
            <AltitudeMeters>306.79998779296875</AltitudeMeters>
            <DistanceMeters>38.636686161894</DistanceMeters>
          </Trackpoint>
          <Trackpoint>
            <Time>2021-06-20T05:42:30.000Z</Time>
            <Position>
              <LatitudeDegrees>38.8631103001534938812255859375</LatitudeDegrees>
              <LongitudeDegrees>-0.39663593284785747528076171875</LongitudeDegrees>
            </Position>
            <AltitudeMeters>307.20001220703125</AltitudeMeters>
            <DistanceMeters>40.772145972848</DistanceMeters>
          </Trackpoint>
          <Trackpoint>
            <Time>2021-06-20T05:42:33.000Z</Time>
            <Position>
              <LatitudeDegrees>38.86310778558254241943359375</LatitudeDegrees>
              <LongitudeDegrees>-0.39671991951763629913330078125</LongitudeDegrees>
            </Position>
            <AltitudeMeters>308.20001220703125</AltitudeMeters>
            <DistanceMeters>48.056425565552</DistanceMeters>
          </Trackpoint>
          <Trackpoint>
            <Time>2021-06-20T05:42:34.000Z</Time>
            <Position>
              <LatitudeDegrees>38.86311122216284275054931640625</LatitudeDegrees>
              <LongitudeDegrees>-0.39674741216003894805908203125</LongitudeDegrees>
            </Position>
            <AltitudeMeters>308.20001220703125</AltitudeMeters>
            <DistanceMeters>50.471674907296</DistanceMeters>
          </Trackpoint>
          <Trackpoint>
            <Time>2021-06-20T05:42:39.000Z</Time>
            <Position>
              <LatitudeDegrees>38.86312513612210750579833984375</LatitudeDegrees>
              <LongitudeDegrees>-0.39689778350293636322021484375</LongitudeDegrees>
            </Position>
            <AltitudeMeters>308.399993896484375</AltitudeMeters>
            <DistanceMeters>63.595686416436</DistanceMeters>
          </Trackpoint>
          <Trackpoint>
            <Time>2021-06-20T05:42:42.000Z</Time>
            <Position>
              <LatitudeDegrees>38.86313368566334247589111328125</LatitudeDegrees>
              <LongitudeDegrees>-0.396990068256855010986328125</LongitudeDegrees>
            </Position>
            <AltitudeMeters>308.399993896484375</AltitudeMeters>
            <DistanceMeters>71.650006323999</DistanceMeters>
          </Trackpoint>
          <Trackpoint>
            <Time>2021-06-20T05:42:44.000Z</Time>
            <Position>
              <LatitudeDegrees>38.8631330989301204681396484375</LatitudeDegrees>
              <LongitudeDegrees>-0.397040359675884246826171875</LongitudeDegrees>
            </Position>
            <AltitudeMeters>308.600006103515625</AltitudeMeters>
            <DistanceMeters>76.00882277323</DistanceMeters>
          </Trackpoint>
          <Trackpoint>
            <Time>2021-06-20T05:42:45.000Z</Time>
            <Position>
              <LatitudeDegrees>38.86313192546367645263671875</LatitudeDegrees>
              <LongitudeDegrees>-0.397061817348003387451171875</LongitudeDegrees>
            </Position>
            <AltitudeMeters>308.600006103515625</AltitudeMeters>
            <DistanceMeters>77.873381549703</DistanceMeters>
          </Trackpoint>
          <Trackpoint>
            <Time>2021-06-20T05:42:48.000Z</Time>
            <Position>
              <LatitudeDegrees>38.86313603259623050689697265625</LatitudeDegrees>
              <LongitudeDegrees>-0.39712811820209026336669921875</LongitudeDegrees>
            </Position>
            <AltitudeMeters>309</AltitudeMeters>
            <DistanceMeters>83.637204173388</DistanceMeters>
          </Trackpoint>
          <Trackpoint>
            <Time>2021-06-20T05:42:49.000Z</Time>
            <Position>
              <LatitudeDegrees>38.86313594877719879150390625</LatitudeDegrees>
              <LongitudeDegrees>-0.397140942513942718505859375</LongitudeDegrees>
            </Position>
            <AltitudeMeters>309.20001220703125</AltitudeMeters>
            <DistanceMeters>84.749463348591</DistanceMeters>
          </Trackpoint>
          <Trackpoint>
            <Time>2021-06-20T05:42:51.000Z</Time>
            <Position>
              <LatitudeDegrees>38.8631327636539936065673828125</LatitudeDegrees>
              <LongitudeDegrees>-0.39716231636703014373779296875</LongitudeDegrees>
            </Position>
            <AltitudeMeters>309.600006103515625</AltitudeMeters>
            <DistanceMeters>86.635689771616</DistanceMeters>
          </Trackpoint>
          <Trackpoint>
            <Time>2021-06-20T05:42:52.000Z</Time>
            <Position>
              <LatitudeDegrees>38.863128907978534698486328125</LatitudeDegrees>
              <LongitudeDegrees>-0.39716214872896671295166015625</LongitudeDegrees>
            </Position>
            <AltitudeMeters>309.600006103515625</AltitudeMeters>
            <DistanceMeters>87.071156883259</DistanceMeters>
          </Trackpoint>
          <Trackpoint>
            <Time>2021-06-20T05:42:55.000Z</Time>
            <Position>
              <LatitudeDegrees>38.86310501955449581146240234375</LatitudeDegrees>
              <LongitudeDegrees>-0.39713884703814983367919921875</LongitudeDegrees>
            </Position>
            <AltitudeMeters>310.20001220703125</AltitudeMeters>
            <DistanceMeters>90.411991282736</DistanceMeters>
          </Trackpoint>
          <Trackpoint>
            <Time>2021-06-20T05:42:57.000Z</Time>
            <Position>
              <LatitudeDegrees>38.86308758519589900970458984375</LatitudeDegrees>
              <LongitudeDegrees>-0.39711822755634784698486328125</LongitudeDegrees>
            </Position>
            <AltitudeMeters>311</AltitudeMeters>
            <DistanceMeters>93.048875592266</DistanceMeters>
          </Trackpoint>
          <Trackpoint>
            <Time>2021-06-20T05:43:02.000Z</Time>
            <Position>
              <LatitudeDegrees>38.8630683906376361846923828125</LatitudeDegrees>
              <LongitudeDegrees>-0.39703340269625186920166015625</LongitudeDegrees>
            </Position>
            <AltitudeMeters>310</AltitudeMeters>
            <DistanceMeters>100.70545813764</DistanceMeters>
          </Trackpoint>
          <Trackpoint>
            <Time>2021-06-20T05:43:03.000Z</Time>
            <Position>
              <LatitudeDegrees>38.8630660437047481536865234375</LatitudeDegrees>
              <LongitudeDegrees>-0.39701680652797222137451171875</LongitudeDegrees>
            </Position>
            <AltitudeMeters>309.600006103515625</AltitudeMeters>
            <DistanceMeters>102.16528622368</DistanceMeters>
          </Trackpoint>
          <Trackpoint>
            <Time>2021-06-20T05:43:04.000Z</Time>
            <Position>
              <LatitudeDegrees>38.86305942200124263763427734375</LatitudeDegrees>
              <LongitudeDegrees>-0.39701580069959163665771484375</LongitudeDegrees>
            </Position>
            <AltitudeMeters>309.600006103515625</AltitudeMeters>
            <DistanceMeters>102.90135998808</DistanceMeters>
          </Trackpoint>
          <Trackpoint>
            <Time>2021-06-20T05:43:08.000Z</Time>
            <Position>
              <LatitudeDegrees>38.8630375452339649200439453125</LatitudeDegrees>
              <LongitudeDegrees>-0.397058464586734771728515625</LongitudeDegrees>
            </Position>
            <AltitudeMeters>310.600006103515625</AltitudeMeters>
            <DistanceMeters>107.32801401605</DistanceMeters>
          </Trackpoint>
          <Trackpoint>
            <Time>2021-06-20T05:43:12.000Z</Time>
            <Position>
              <LatitudeDegrees>38.86301868595182895660400390625</LatitudeDegrees>
              <LongitudeDegrees>-0.39713733829557895660400390625</LongitudeDegrees>
            </Position>
            <AltitudeMeters>311.79998779296875</AltitudeMeters>
            <DistanceMeters>114.47968186198</DistanceMeters>
          </Trackpoint>
          <Trackpoint>
            <Time>2021-06-20T05:43:13.000Z</Time>
            <Position>
              <LatitudeDegrees>38.8630180992186069488525390625</LatitudeDegrees>
              <LongitudeDegrees>-0.39715401828289031982421875</LongitudeDegrees>
            </Position>
            <AltitudeMeters>312</AltitudeMeters>
            <DistanceMeters>115.93020170378</DistanceMeters>
          </Trackpoint>
          <Trackpoint>
            <Time>2021-06-20T05:43:15.000Z</Time>
            <Position>
              <LatitudeDegrees>38.86301114223897457122802734375</LatitudeDegrees>
              <LongitudeDegrees>-0.39718545041978359222412109375</LongitudeDegrees>
            </Position>
            <AltitudeMeters>312.399993896484375</AltitudeMeters>
            <DistanceMeters>118.76193401497</DistanceMeters>
          </Trackpoint>
          <Trackpoint>
            <Time>2021-06-20T05:43:17.000Z</Time>
            <Position>
              <LatitudeDegrees>38.86300292797386646270751953125</LatitudeDegrees>
              <LongitudeDegrees>-0.39721076376736164093017578125</LongitudeDegrees>
            </Position>
            <AltitudeMeters>313</AltitudeMeters>
            <DistanceMeters>121.1395016489</DistanceMeters>
          </Trackpoint>
          <Trackpoint>
            <Time>2021-06-20T05:43:18.000Z</Time>
            <Position>
              <LatitudeDegrees>38.86299706064164638519287109375</LatitudeDegrees>
              <LongitudeDegrees>-0.397227443754673004150390625</LongitudeDegrees>
            </Position>
            <AltitudeMeters>313</AltitudeMeters>
            <DistanceMeters>122.72676071026</DistanceMeters>
          </Trackpoint>
          <Trackpoint>
            <Time>2021-06-20T05:43:23.000Z</Time>
            <Position>
              <LatitudeDegrees>38.86299337260425090789794921875</LatitudeDegrees>
              <LongitudeDegrees>-0.39723540656268596649169921875</LongitudeDegrees>
            </Position>
            <AltitudeMeters>313.399993896484375</AltitudeMeters>
            <DistanceMeters>123.53308911976</DistanceMeters>
          </Trackpoint>
          <Trackpoint>
            <Time>2021-06-20T05:43:25.000Z</Time>
            <Position>
              <LatitudeDegrees>38.86299504898488521575927734375</LatitudeDegrees>
              <LongitudeDegrees>-0.3972088359296321868896484375</LongitudeDegrees>
            </Position>
            <AltitudeMeters>314</AltitudeMeters>
            <DistanceMeters>125.84518886994</DistanceMeters>
          </Trackpoint>
          <Trackpoint>
            <Time>2021-06-20T05:43:27.000Z</Time>
            <Position>
              <LatitudeDegrees>38.86299940757453441619873046875</LatitudeDegrees>
              <LongitudeDegrees>-0.39717656560242176055908203125</LongitudeDegrees>
            </Position>
            <AltitudeMeters>314.399993896484375</AltitudeMeters>
            <DistanceMeters>128.6848822098</DistanceMeters>
          </Trackpoint>
          <Trackpoint>
            <Time>2021-06-20T05:43:29.000Z</Time>
            <Position>
              <LatitudeDegrees>38.86299622245132923126220703125</LatitudeDegrees>
              <LongitudeDegrees>-0.39714488200843334197998046875</LongitudeDegrees>
            </Position>
            <AltitudeMeters>314.79998779296875</AltitudeMeters>
            <DistanceMeters>131.45536321089</DistanceMeters>
          </Trackpoint>
          <Trackpoint>
            <Time>2021-06-20T05:43:30.000Z</Time>
            <Position>
              <LatitudeDegrees>38.86298918165266513824462890625</LatitudeDegrees>
              <LongitudeDegrees>-0.39712778292596340179443359375</LongitudeDegrees>
            </Position>
            <AltitudeMeters>315.20001220703125</AltitudeMeters>
            <DistanceMeters>133.12848116776</DistanceMeters>
          </Trackpoint>
          <Trackpoint>
            <Time>2021-06-20T05:43:36.000Z</Time>
            <Position>
              <LatitudeDegrees>38.86293947696685791015625</LatitudeDegrees>
              <LongitudeDegrees>-0.39701764471828937530517578125</LongitudeDegrees>
            </Position>
            <AltitudeMeters>316</AltitudeMeters>
            <DistanceMeters>144.16058750843</DistanceMeters>
          </Trackpoint>
          <Trackpoint>
            <Time>2021-06-20T05:43:37.000Z</Time>
            <Position>
              <LatitudeDegrees>38.862929753959178924560546875</LatitudeDegrees>
              <LongitudeDegrees>-0.3970013000071048736572265625</LongitudeDegrees>
            </Position>
            <AltitudeMeters>316.20001220703125</AltitudeMeters>
            <DistanceMeters>145.94344670317</DistanceMeters>
          </Trackpoint>
          <Trackpoint>
            <Time>2021-06-20T05:43:38.000Z</Time>
            <Position>
              <LatitudeDegrees>38.86292313225567340850830078125</LatitudeDegrees>
              <LongitudeDegrees>-0.39699031971395015716552734375</LongitudeDegrees>
            </Position>
            <AltitudeMeters>316.20001220703125</AltitudeMeters>
            <DistanceMeters>147.14545012705</DistanceMeters>
          </Trackpoint>
          <Trackpoint>
            <Time>2021-06-20T05:43:40.000Z</Time>
            <Position>
              <LatitudeDegrees>38.86290318332612514495849609375</LatitudeDegrees>
              <LongitudeDegrees>-0.39697757922112941741943359375</LongitudeDegrees>
            </Position>
            <AltitudeMeters>316.600006103515625</AltitudeMeters>
            <DistanceMeters>149.62526505126</DistanceMeters>
          </Trackpoint>
          <Trackpoint>
            <Time>2021-06-20T05:43:42.000Z</Time>
            <Position>
              <LatitudeDegrees>38.86288055218756198883056640625</LatitudeDegrees>
              <LongitudeDegrees>-0.39699132554233074188232421875</LongitudeDegrees>
            </Position>
            <AltitudeMeters>317.600006103515625</AltitudeMeters>
            <DistanceMeters>152.41199534711</DistanceMeters>
          </Trackpoint>
          <Trackpoint>
            <Time>2021-06-20T05:43:43.000Z</Time>
            <Position>
              <LatitudeDegrees>38.8628702424466609954833984375</LatitudeDegrees>
              <LongitudeDegrees>-0.3970086760818958282470703125</LongitudeDegrees>
            </Position>
            <AltitudeMeters>318.20001220703125</AltitudeMeters>
            <DistanceMeters>154.30300308686</DistanceMeters>
          </Trackpoint>
          <Trackpoint>
            <Time>2021-06-20T05:43:44.000Z</Time>
            <Position>
              <LatitudeDegrees>38.86286160908639430999755859375</LatitudeDegrees>
              <LongitudeDegrees>-0.39703574962913990020751953125</LongitudeDegrees>
            </Position>
            <AltitudeMeters>318.600006103515625</AltitudeMeters>
            <DistanceMeters>156.83863208735</DistanceMeters>
          </Trackpoint>
          <Trackpoint>
            <Time>2021-06-20T05:43:46.000Z</Time>
            <Position>
              <LatitudeDegrees>38.862847276031970977783203125</LatitudeDegrees>
              <LongitudeDegrees>-0.39708252064883708953857421875</LongitudeDegrees>
            </Position>
            <AltitudeMeters>318.79998779296875</AltitudeMeters>
            <DistanceMeters>161.19433990684</DistanceMeters>
          </Trackpoint>
          <Trackpoint>
            <Time>2021-06-20T05:43:48.000Z</Time>
            <Position>
              <LatitudeDegrees>38.86282908730208873748779296875</LatitudeDegrees>
              <LongitudeDegrees>-0.39713465608656406402587890625</LongitudeDegrees>
            </Position>
            <AltitudeMeters>319</AltitudeMeters>
            <DistanceMeters>166.14485780589</DistanceMeters>
          </Trackpoint>
          <Trackpoint>
            <Time>2021-06-20T05:43:50.000Z</Time>
            <Position>
              <LatitudeDegrees>38.8628112338483333587646484375</LatitudeDegrees>
              <LongitudeDegrees>-0.39717488922178745269775390625</LongitudeDegrees>
            </Position>
            <AltitudeMeters>320</AltitudeMeters>
            <DistanceMeters>170.15854144764</DistanceMeters>
          </Trackpoint>
          <Trackpoint>
            <Time>2021-06-20T05:43:53.000Z</Time>
            <Position>
              <LatitudeDegrees>38.8627854175865650177001953125</LatitudeDegrees>
              <LongitudeDegrees>-0.39723339490592479705810546875</LongitudeDegrees>
            </Position>
            <AltitudeMeters>321.20001220703125</AltitudeMeters>
            <DistanceMeters>175.98701874297</DistanceMeters>
          </Trackpoint>
          <Trackpoint>
            <Time>2021-06-20T05:43:56.000Z</Time>
            <Position>
              <LatitudeDegrees>38.862781226634979248046875</LatitudeDegrees>
              <LongitudeDegrees>-0.397242195904254913330078125</LongitudeDegrees>
            </Position>
            <AltitudeMeters>321.79998779296875</AltitudeMeters>
            <DistanceMeters>176.88349897337</DistanceMeters>
          </Trackpoint>
          <Trackpoint>
            <Time>2021-06-20T05:43:58.000Z</Time>
            <Position>
              <LatitudeDegrees>38.862778879702091217041015625</LatitudeDegrees>
              <LongitudeDegrees>-0.39721227250993251800537109375</LongitudeDegrees>
            </Position>
            <AltitudeMeters>322.399993896484375</AltitudeMeters>
            <DistanceMeters>179.4893802995</DistanceMeters>
          </Trackpoint>
          <Trackpoint>
            <Time>2021-06-20T05:44:00.000Z</Time>
            <Position>
              <LatitudeDegrees>38.862784914672374725341796875</LatitudeDegrees>
              <LongitudeDegrees>-0.3971830196678638458251953125</LongitudeDegrees>
            </Position>
            <AltitudeMeters>322.79998779296875</AltitudeMeters>
            <DistanceMeters>182.1125307432</DistanceMeters>
          </Trackpoint>
          <Trackpoint>
            <Time>2021-06-20T05:44:03.000Z</Time>
            <Position>
              <LatitudeDegrees>38.86278181336820125579833984375</LatitudeDegrees>
              <LongitudeDegrees>-0.39715074934065341949462890625</LongitudeDegrees>
            </Position>
            <AltitudeMeters>323.399993896484375</AltitudeMeters>
            <DistanceMeters>184.92987651436</DistanceMeters>
          </Trackpoint>
          <Trackpoint>
            <Time>2021-06-20T05:44:05.000Z</Time>
            <Position>
              <LatitudeDegrees>38.8627720065414905548095703125</LatitudeDegrees>
              <LongitudeDegrees>-0.39712660945951938629150390625</LongitudeDegrees>
            </Position>
            <AltitudeMeters>323.79998779296875</AltitudeMeters>
            <DistanceMeters>187.28837754032</DistanceMeters>
          </Trackpoint>
          <Trackpoint>
            <Time>2021-06-20T05:44:07.000Z</Time>
            <Position>
              <LatitudeDegrees>38.862760104238986968994140625</LatitudeDegrees>
              <LongitudeDegrees>-0.3971038945019245147705078125</LongitudeDegrees>
            </Position>
            <AltitudeMeters>324.600006103515625</AltitudeMeters>
            <DistanceMeters>189.66214410446</DistanceMeters>
          </Trackpoint>
          <Trackpoint>
            <Time>2021-06-20T05:44:09.000Z</Time>
            <Position>
              <LatitudeDegrees>38.86274107731878757476806640625</LatitudeDegrees>
              <LongitudeDegrees>-0.39708335883915424346923828125</LongitudeDegrees>
            </Position>
            <AltitudeMeters>323.600006103515625</AltitudeMeters>
            <DistanceMeters>192.42936379658</DistanceMeters>
          </Trackpoint>
          <Trackpoint>
            <Time>2021-06-20T05:44:10.000Z</Time>
            <Position>
              <LatitudeDegrees>38.8627284206449985504150390625</LatitudeDegrees>
              <LongitudeDegrees>-0.397076904773712158203125</LongitudeDegrees>
            </Position>
            <AltitudeMeters>322.79998779296875</AltitudeMeters>
            <DistanceMeters>193.94681873602</DistanceMeters>
          </Trackpoint>
          <Trackpoint>
            <Time>2021-06-20T05:44:12.000Z</Time>
            <Position>
              <LatitudeDegrees>38.86268936097621917724609375</LatitudeDegrees>
              <LongitudeDegrees>-0.3970831073820590972900390625</LongitudeDegrees>
            </Position>
            <AltitudeMeters>322.79998779296875</AltitudeMeters>
            <DistanceMeters>198.32733382484</DistanceMeters>
          </Trackpoint>
          <Trackpoint>
            <Time>2021-06-20T05:44:16.000Z</Time>
            <Position>
              <LatitudeDegrees>38.86262423358857631683349609375</LatitudeDegrees>
              <LongitudeDegrees>-0.3971307165920734405517578125</LongitudeDegrees>
            </Position>
            <AltitudeMeters>323.399993896484375</AltitudeMeters>
            <DistanceMeters>206.66860105474</DistanceMeters>
          </Trackpoint>
          <Trackpoint>
            <Time>2021-06-20T05:44:19.000Z</Time>
            <Position>
              <LatitudeDegrees>38.862607888877391815185546875</LatitudeDegrees>
              <LongitudeDegrees>-0.39717170409858226776123046875</LongitudeDegrees>
            </Position>
            <AltitudeMeters>324</AltitudeMeters>
            <DistanceMeters>210.66085416841</DistanceMeters>
          </Trackpoint>
          <Trackpoint>
            <Time>2021-06-20T05:44:22.000Z</Time>
            <Position>
              <LatitudeDegrees>38.86258735321462154388427734375</LatitudeDegrees>
              <LongitudeDegrees>-0.3972131945192813873291015625</LongitudeDegrees>
            </Position>
            <AltitudeMeters>323.600006103515625</AltitudeMeters>
            <DistanceMeters>214.92330813359</DistanceMeters>
          </Trackpoint>
          <Trackpoint>
            <Time>2021-06-20T05:44:26.000Z</Time>
            <Position>
              <LatitudeDegrees>38.86257695965468883514404296875</LatitudeDegrees>
              <LongitudeDegrees>-0.3972822614014148712158203125</LongitudeDegrees>
            </Position>
            <AltitudeMeters>324.79998779296875</AltitudeMeters>
            <DistanceMeters>221.01984769659</DistanceMeters>
          </Trackpoint>
          <Trackpoint>
            <Time>2021-06-20T05:44:28.000Z</Time>
            <Position>
              <LatitudeDegrees>38.86257679201662540435791015625</LatitudeDegrees>
              <LongitudeDegrees>-0.39732073433697223663330078125</LongitudeDegrees>
            </Position>
            <AltitudeMeters>325.20001220703125</AltitudeMeters>
            <DistanceMeters>224.35527183438</DistanceMeters>
          </Trackpoint>
          <Trackpoint>
            <Time>2021-06-20T05:44:31.000Z</Time>
            <Position>
              <LatitudeDegrees>38.8625775463879108428955078125</LatitudeDegrees>
              <LongitudeDegrees>-0.39738292805850505828857421875</LongitudeDegrees>
            </Position>
            <AltitudeMeters>325.79998779296875</AltitudeMeters>
            <DistanceMeters>229.74589202103</DistanceMeters>
          </Trackpoint>
          <Trackpoint>
            <Time>2021-06-20T05:44:35.000Z</Time>
            <Position>
              <LatitudeDegrees>38.86256338097155094146728515625</LatitudeDegrees>
              <LongitudeDegrees>-0.39744143374264240264892578125</LongitudeDegrees>
            </Position>
            <AltitudeMeters>327</AltitudeMeters>
            <DistanceMeters>235.05634668466</DistanceMeters>
          </Trackpoint>
          <Trackpoint>
            <Time>2021-06-20T05:44:36.000Z</Time>
            <Position>
              <LatitudeDegrees>38.86255617253482341766357421875</LatitudeDegrees>
              <LongitudeDegrees>-0.39744981564581394195556640625</LongitudeDegrees>
            </Position>
            <AltitudeMeters>327</AltitudeMeters>
            <DistanceMeters>236.13564268728</DistanceMeters>
          </Trackpoint>
          <Trackpoint>
            <Time>2021-06-20T05:44:38.000Z</Time>
            <Position>
              <LatitudeDegrees>38.86253991164267063140869140625</LatitudeDegrees>
              <LongitudeDegrees>-0.39746490307152271270751953125</LongitudeDegrees>
            </Position>
            <AltitudeMeters>327.399993896484375</AltitudeMeters>
            <DistanceMeters>238.366241737</DistanceMeters>
          </Trackpoint>
          <Trackpoint>
            <Time>2021-06-20T05:44:41.000Z</Time>
            <Position>
              <LatitudeDegrees>38.862517364323139190673828125</LatitudeDegrees>
              <LongitudeDegrees>-0.39749943651258945465087890625</LongitudeDegrees>
            </Position>
            <AltitudeMeters>327.600006103515625</AltitudeMeters>
            <DistanceMeters>242.27159692108</DistanceMeters>
          </Trackpoint>
          <Trackpoint>
            <Time>2021-06-20T05:44:42.000Z</Time>
            <Position>
              <LatitudeDegrees>38.86251023970544338226318359375</LatitudeDegrees>
              <LongitudeDegrees>-0.39750547148287296295166015625</LongitudeDegrees>
            </Position>
            <AltitudeMeters>328</AltitudeMeters>
            <DistanceMeters>243.21710079096</DistanceMeters>
          </Trackpoint>
          <Trackpoint>
            <Time>2021-06-20T05:44:43.000Z</Time>
            <Position>
              <LatitudeDegrees>38.86250420473515987396240234375</LatitudeDegrees>
              <LongitudeDegrees>-0.397510416805744171142578125</LongitudeDegrees>
            </Position>
            <AltitudeMeters>328.600006103515625</AltitudeMeters>
            <DistanceMeters>244.01781011869</DistanceMeters>
          </Trackpoint>
          <Trackpoint>
            <Time>2021-06-20T05:44:44.000Z</Time>
            <Position>
              <LatitudeDegrees>38.8624960742890834808349609375</LatitudeDegrees>
              <LongitudeDegrees>-0.39751636795699596405029296875</LongitudeDegrees>
            </Position>
            <AltitudeMeters>327</AltitudeMeters>
            <DistanceMeters>245.05877561921</DistanceMeters>
          </Trackpoint>
          <Trackpoint>
            <Time>2021-06-20T05:44:46.000Z</Time>
            <Position>
              <LatitudeDegrees>38.86247654445469379425048828125</LatitudeDegrees>
              <LongitudeDegrees>-0.39753329940140247344970703125</LongitudeDegrees>
            </Position>
            <AltitudeMeters>327</AltitudeMeters>
            <DistanceMeters>247.68020427051</DistanceMeters>
          </Trackpoint>
          <Trackpoint>
            <Time>2021-06-20T05:44:52.000Z</Time>
            <Position>
              <LatitudeDegrees>38.86243664659559726715087890625</LatitudeDegrees>
              <LongitudeDegrees>-0.3975695930421352386474609375</LongitudeDegrees>
            </Position>
            <AltitudeMeters>328.20001220703125</AltitudeMeters>
            <DistanceMeters>253.12167655839</DistanceMeters>
          </Trackpoint>
          <Trackpoint>
            <Time>2021-06-20T05:44:54.000Z</Time>
            <Position>
              <LatitudeDegrees>38.862416110932826995849609375</LatitudeDegrees>
              <LongitudeDegrees>-0.397594235837459564208984375</LongitudeDegrees>
            </Position>
            <AltitudeMeters>328.399993896484375</AltitudeMeters>
            <DistanceMeters>256.24890740832</DistanceMeters>
          </Trackpoint>
          <Trackpoint>
            <Time>2021-06-20T05:44:56.000Z</Time>
            <Position>
              <LatitudeDegrees>38.86239272542297840118408203125</LatitudeDegrees>
              <LongitudeDegrees>-0.39763421751558780670166015625</LongitudeDegrees>
            </Position>
            <AltitudeMeters>328.20001220703125</AltitudeMeters>
            <DistanceMeters>260.58279238643</DistanceMeters>
          </Trackpoint>
          <Trackpoint>
            <Time>2021-06-20T05:44:58.000Z</Time>
            <Position>
              <LatitudeDegrees>38.86236757971346378326416015625</LatitudeDegrees>
              <LongitudeDegrees>-0.3976698406040668487548828125</LongitudeDegrees>
            </Position>
            <AltitudeMeters>327</AltitudeMeters>
            <DistanceMeters>264.74990613598</DistanceMeters>
          </Trackpoint>
          <Trackpoint>
            <Time>2021-06-20T05:45:00.000Z</Time>
            <Position>
              <LatitudeDegrees>38.8623562641441822052001953125</LatitudeDegrees>
              <LongitudeDegrees>-0.39770864881575107574462890625</LongitudeDegrees>
            </Position>
            <AltitudeMeters>327.600006103515625</AltitudeMeters>
            <DistanceMeters>268.34211704828</DistanceMeters>
          </Trackpoint>
          <Trackpoint>
            <Time>2021-06-20T05:45:04.000Z</Time>
            <Position>
              <LatitudeDegrees>38.86235416866838932037353515625</LatitudeDegrees>
              <LongitudeDegrees>-0.39774904958903789520263671875</LongitudeDegrees>
            </Position>
            <AltitudeMeters>328.20001220703125</AltitudeMeters>
            <DistanceMeters>271.85167888269</DistanceMeters>
          </Trackpoint>
          <Trackpoint>
            <Time>2021-06-20T05:45:05.000Z</Time>
            <Position>
              <LatitudeDegrees>38.8623535819351673126220703125</LatitudeDegrees>
              <LongitudeDegrees>-0.3977620415389537811279296875</LongitudeDegrees>
            </Position>
            <AltitudeMeters>328.600006103515625</AltitudeMeters>
            <DistanceMeters>272.98405287349</DistanceMeters>
          </Trackpoint>
          <Trackpoint>
            <Time>2021-06-20T05:45:06.000Z</Time>
            <Position>
              <LatitudeDegrees>38.8623542524874210357666015625</LatitudeDegrees>
              <LongitudeDegrees>-0.39778006263077259063720703125</LongitudeDegrees>
            </Position>
            <AltitudeMeters>327</AltitudeMeters>
            <DistanceMeters>274.54839002267</DistanceMeters>
          </Trackpoint>
          <Trackpoint>
            <Time>2021-06-20T05:45:09.000Z</Time>
            <Position>
              <LatitudeDegrees>38.86234897188842296600341796875</LatitudeDegrees>
              <LongitudeDegrees>-0.39782130159437656402587890625</LongitudeDegrees>
            </Position>
            <AltitudeMeters>327</AltitudeMeters>
            <DistanceMeters>278.17064085234</DistanceMeters>
          </Trackpoint>
          <Trackpoint>
            <Time>2021-06-20T05:45:11.000Z</Time>
            <Position>
              <LatitudeDegrees>38.86234327219426631927490234375</LatitudeDegrees>
              <LongitudeDegrees>-0.39785197935998439788818359375</LongitudeDegrees>
            </Position>
            <AltitudeMeters>327</AltitudeMeters>
            <DistanceMeters>280.90503352634</DistanceMeters>
          </Trackpoint>
          <Trackpoint>
            <Time>2021-06-20T05:45:13.000Z</Time>
            <Position>
              <LatitudeDegrees>38.862337656319141387939453125</LatitudeDegrees>
              <LongitudeDegrees>-0.3978703357279300689697265625</LongitudeDegrees>
            </Position>
            <AltitudeMeters>327</AltitudeMeters>
            <DistanceMeters>282.615514385</DistanceMeters>
          </Trackpoint>
          <Trackpoint>
            <Time>2021-06-20T05:45:17.000Z</Time>
            <Position>
              <LatitudeDegrees>38.86231946758925914764404296875</LatitudeDegrees>
              <LongitudeDegrees>-0.39783303625881671905517578125</LongitudeDegrees>
            </Position>
            <AltitudeMeters>327.79998779296875</AltitudeMeters>
            <DistanceMeters>286.4296267524</DistanceMeters>
          </Trackpoint>
          <Trackpoint>
            <Time>2021-06-20T05:45:19.000Z</Time>
            <Position>
              <LatitudeDegrees>38.86230186559259891510009765625</LatitudeDegrees>
              <LongitudeDegrees>-0.39781476370990276336669921875</LongitudeDegrees>
            </Position>
            <AltitudeMeters>328.20001220703125</AltitudeMeters>
            <DistanceMeters>288.94738640409</DistanceMeters>
          </Trackpoint>
          <Trackpoint>
            <Time>2021-06-20T05:45:21.000Z</Time>
            <Position>
              <LatitudeDegrees>38.86228862218558788299560546875</LatitudeDegrees>
              <LongitudeDegrees>-0.39779531769454479217529296875</LongitudeDegrees>
            </Position>
            <AltitudeMeters>327</AltitudeMeters>
            <DistanceMeters>291.18808328293</DistanceMeters>
          </Trackpoint>
          <Trackpoint>
            <Time>2021-06-20T05:45:24.000Z</Time>
            <Position>
              <LatitudeDegrees>38.86225056834518909454345703125</LatitudeDegrees>
              <LongitudeDegrees>-0.39776329882442951202392578125</LongitudeDegrees>
            </Position>
            <AltitudeMeters>327</AltitudeMeters>
            <DistanceMeters>296.25043026313</DistanceMeters>
          </Trackpoint>
          <Trackpoint>
            <Time>2021-06-20T05:45:29.000Z</Time>
            <Position>
              <LatitudeDegrees>38.86219189502298831939697265625</LatitudeDegrees>
              <LongitudeDegrees>-0.39771728217601776123046875</LongitudeDegrees>
            </Position>
            <AltitudeMeters>328.20001220703125</AltitudeMeters>
            <DistanceMeters>303.90229380495</DistanceMeters>
          </Trackpoint>
          <Trackpoint>
            <Time>2021-06-20T05:45:31.000Z</Time>
            <Position>
              <LatitudeDegrees>38.8621763885021209716796875</LatitudeDegrees>
              <LongitudeDegrees>-0.39771283976733684539794921875</LongitudeDegrees>
            </Position>
            <AltitudeMeters>328.600006103515625</AltitudeMeters>
            <DistanceMeters>305.66989286854</DistanceMeters>
          </Trackpoint>
          <Trackpoint>
            <Time>2021-06-20T05:45:37.000Z</Time>
            <Position>
              <LatitudeDegrees>38.86211260221898555755615234375</LatitudeDegrees>
              <LongitudeDegrees>-0.3977147676050662994384765625</LongitudeDegrees>
            </Position>
            <AltitudeMeters>327.399993896484375</AltitudeMeters>
            <DistanceMeters>312.77087497407</DistanceMeters>
          </Trackpoint>
          <Trackpoint>
            <Time>2021-06-20T05:45:43.000Z</Time>
            <Position>
              <LatitudeDegrees>38.8620548509061336517333984375</LatitudeDegrees>
              <LongitudeDegrees>-0.39772172458469867706298828125</LongitudeDegrees>
            </Position>
            <AltitudeMeters>329.399993896484375</AltitudeMeters>
            <DistanceMeters>319.22639995573</DistanceMeters>
          </Trackpoint>
          <Trackpoint>
            <Time>2021-06-20T05:45:47.000Z</Time>
            <Position>
              <LatitudeDegrees>38.86199642904102802276611328125</LatitudeDegrees>
              <LongitudeDegrees>-0.3977244906127452850341796875</LongitudeDegrees>
            </Position>
            <AltitudeMeters>330.79998779296875</AltitudeMeters>
            <DistanceMeters>325.73278131323</DistanceMeters>
          </Trackpoint>
          <Trackpoint>
            <Time>2021-06-20T05:45:49.000Z</Time>
            <Position>
              <LatitudeDegrees>38.86196927167475223541259765625</LatitudeDegrees>
              <LongitudeDegrees>-0.39772910065948963165283203125</LongitudeDegrees>
            </Position>
            <AltitudeMeters>331.20001220703125</AltitudeMeters>
            <DistanceMeters>328.7825319157</DistanceMeters>
          </Trackpoint>
          <Trackpoint>
            <Time>2021-06-20T05:45:50.000Z</Time>
            <Position>
              <LatitudeDegrees>38.8619569502770900726318359375</LatitudeDegrees>
              <LongitudeDegrees>-0.3977389074862003326416015625</LongitudeDegrees>
            </Position>
            <AltitudeMeters>331.399993896484375</AltitudeMeters>
            <DistanceMeters>330.39798605999</DistanceMeters>
          </Trackpoint>
          <Trackpoint>
            <Time>2021-06-20T05:45:53.000Z</Time>
            <Position>
              <LatitudeDegrees>38.86193239130079746246337890625</LatitudeDegrees>
              <LongitudeDegrees>-0.3977737762033939361572265625</LongitudeDegrees>
            </Position>
            <AltitudeMeters>331.20001220703125</AltitudeMeters>
            <DistanceMeters>334.47307017942</DistanceMeters>
          </Trackpoint>
          <Trackpoint>
            <Time>2021-06-20T05:45:57.000Z</Time>
            <Position>
              <LatitudeDegrees>38.86193255893886089324951171875</LatitudeDegrees>
              <LongitudeDegrees>-0.3978265821933746337890625</LongitudeDegrees>
            </Position>
            <AltitudeMeters>331.79998779296875</AltitudeMeters>
            <DistanceMeters>339.05016285382</DistanceMeters>
          </Trackpoint>
          <Trackpoint>
            <Time>2021-06-20T05:45:59.000Z</Time>
            <Position>
              <LatitudeDegrees>38.86193943209946155548095703125</LatitudeDegrees>
              <LongitudeDegrees>-0.39786103181540966033935546875</LongitudeDegrees>
            </Position>
            <AltitudeMeters>332.20001220703125</AltitudeMeters>
            <DistanceMeters>342.13231152301</DistanceMeters>
          </Trackpoint>
          <Trackpoint>
            <Time>2021-06-20T05:46:02.000Z</Time>
            <Position>
              <LatitudeDegrees>38.86194747872650623321533203125</LatitudeDegrees>
              <LongitudeDegrees>-0.39790042676031589508056640625</LongitudeDegrees>
            </Position>
            <AltitudeMeters>332.399993896484375</AltitudeMeters>
            <DistanceMeters>345.66111803743</DistanceMeters>
          </Trackpoint>
          <Trackpoint>
            <Time>2021-06-20T05:46:03.000Z</Time>
            <Position>
              <LatitudeDegrees>38.86194714345037937164306640625</LatitudeDegrees>
              <LongitudeDegrees>-0.3979095630347728729248046875</LongitudeDegrees>
            </Position>
            <AltitudeMeters>332.600006103515625</AltitudeMeters>
            <DistanceMeters>346.46182736517</DistanceMeters>
          </Trackpoint>
          <Trackpoint>
            <Time>2021-06-20T05:46:05.000Z</Time>
            <Position>
              <LatitudeDegrees>38.86194613762199878692626953125</LatitudeDegrees>
              <LongitudeDegrees>-0.3979303501546382904052734375</LongitudeDegrees>
            </Position>
            <AltitudeMeters>332.79998779296875</AltitudeMeters>
            <DistanceMeters>348.26983391181</DistanceMeters>
          </Trackpoint>
          <Trackpoint>
            <Time>2021-06-20T05:46:08.000Z</Time>
            <Position>
              <LatitudeDegrees>38.86193524114787578582763671875</LatitudeDegrees>
              <LongitudeDegrees>-0.397945940494537353515625</LongitudeDegrees>
            </Position>
            <AltitudeMeters>333</AltitudeMeters>
            <DistanceMeters>350.08780200243</DistanceMeters>
          </Trackpoint>
          <Trackpoint>
            <Time>2021-06-20T05:46:10.000Z</Time>
            <Position>
              <LatitudeDegrees>38.8619126938283443450927734375</LatitudeDegrees>
              <LongitudeDegrees>-0.3979568369686603546142578125</LongitudeDegrees>
            </Position>
            <AltitudeMeters>333.399993896484375</AltitudeMeters>
            <DistanceMeters>352.76883554369</DistanceMeters>
          </Trackpoint>
          <Trackpoint>
            <Time>2021-06-20T05:46:11.000Z</Time>
            <Position>
              <LatitudeDegrees>38.86190087534487247467041015625</LatitudeDegrees>
              <LongitudeDegrees>-0.39796178229153156280517578125</LongitudeDegrees>
            </Position>
            <AltitudeMeters>333.600006103515625</AltitudeMeters>
            <DistanceMeters>354.15570478142</DistanceMeters>
          </Trackpoint>
          <Trackpoint>
            <Time>2021-06-20T05:46:15.000Z</Time>
            <Position>
              <LatitudeDegrees>38.86186952702701091766357421875</LatitudeDegrees>
              <LongitudeDegrees>-0.3979796357452869415283203125</LongitudeDegrees>
            </Position>
            <AltitudeMeters>332.20001220703125</AltitudeMeters>
            <DistanceMeters>357.97218395785</DistanceMeters>
          </Trackpoint>
          <Trackpoint>
            <Time>2021-06-20T05:46:17.000Z</Time>
            <Position>
              <LatitudeDegrees>38.86185360141098499298095703125</LatitudeDegrees>
              <LongitudeDegrees>-0.39800033904612064361572265625</LongitudeDegrees>
            </Position>
            <AltitudeMeters>332.399993896484375</AltitudeMeters>
            <DistanceMeters>360.49352761085</DistanceMeters>
          </Trackpoint>
          <Trackpoint>
            <Time>2021-06-20T05:46:18.000Z</Time>
            <Position>
              <LatitudeDegrees>38.86184656061232089996337890625</LatitudeDegrees>
              <LongitudeDegrees>-0.398009307682514190673828125</LongitudeDegrees>
            </Position>
            <AltitudeMeters>332.399993896484375</AltitudeMeters>
            <DistanceMeters>361.60172001129</DistanceMeters>
          </Trackpoint>
          <Trackpoint>
            <Time>2021-06-20T05:46:21.000Z</Time>
            <Position>
              <LatitudeDegrees>38.86182175017893314361572265625</LatitudeDegrees>
              <LongitudeDegrees>-0.39804778061807155609130859375</LongitudeDegrees>
            </Position>
            <AltitudeMeters>332.399993896484375</AltitudeMeters>
            <DistanceMeters>365.93039285885</DistanceMeters>
          </Trackpoint>
          <Trackpoint>
            <Time>2021-06-20T05:46:24.000Z</Time>
            <Position>
              <LatitudeDegrees>38.8617960177361965179443359375</LatitudeDegrees>
              <LongitudeDegrees>-0.39807661436498165130615234375</LongitudeDegrees>
            </Position>
            <AltitudeMeters>331.20001220703125</AltitudeMeters>
            <DistanceMeters>369.73146143364</DistanceMeters>
          </Trackpoint>
          <Trackpoint>
            <Time>2021-06-20T05:46:27.000Z</Time>
            <Position>
              <LatitudeDegrees>38.86177866719663143157958984375</LatitudeDegrees>
              <LongitudeDegrees>-0.39810955524444580078125</LongitudeDegrees>
            </Position>
            <AltitudeMeters>332.20001220703125</AltitudeMeters>
            <DistanceMeters>373.17871840118</DistanceMeters>
          </Trackpoint>
          <Trackpoint>
            <Time>2021-06-20T05:46:28.000Z</Time>
            <Position>
              <LatitudeDegrees>38.86177078820765018463134765625</LatitudeDegrees>
              <LongitudeDegrees>-0.398123301565647125244140625</LongitudeDegrees>
            </Position>
            <AltitudeMeters>331.20001220703125</AltitudeMeters>
            <DistanceMeters>374.65698715193</DistanceMeters>
          </Trackpoint>
          <Trackpoint>
            <Time>2021-06-20T05:46:30.000Z</Time>
            <Position>
              <LatitudeDegrees>38.8617507554590702056884765625</LatitudeDegrees>
              <LongitudeDegrees>-0.3981643728911876678466796875</LongitudeDegrees>
            </Position>
            <AltitudeMeters>332.20001220703125</AltitudeMeters>
            <DistanceMeters>378.85755489588</DistanceMeters>
          </Trackpoint>
          <Trackpoint>
            <Time>2021-06-20T05:46:31.000Z</Time>
            <Position>
              <LatitudeDegrees>38.8617445528507232666015625</LatitudeDegrees>
              <LongitudeDegrees>-0.39817619137465953826904296875</LongitudeDegrees>
            </Position>
            <AltitudeMeters>331.20001220703125</AltitudeMeters>
            <DistanceMeters>380.09290218269</DistanceMeters>
          </Trackpoint>
          <Trackpoint>
            <Time>2021-06-20T05:46:34.000Z</Time>
            <Position>
              <LatitudeDegrees>38.86173340491950511932373046875</LatitudeDegrees>
              <LongitudeDegrees>-0.3982153348624706268310546875</LongitudeDegrees>
            </Position>
            <AltitudeMeters>332.20001220703125</AltitudeMeters>
            <DistanceMeters>383.70391732875</DistanceMeters>
          </Trackpoint>
          <Trackpoint>
            <Time>2021-06-20T05:46:35.000Z</Time>
            <Position>
              <LatitudeDegrees>38.8617299683392047882080078125</LatitudeDegrees>
              <LongitudeDegrees>-0.3982277400791645050048828125</LongitudeDegrees>
            </Position>
            <AltitudeMeters>331.20001220703125</AltitudeMeters>
            <DistanceMeters>384.84423790119</DistanceMeters>
          </Trackpoint>
          <Trackpoint>
            <Time>2021-06-20T05:46:36.000Z</Time>
            <Position>
              <LatitudeDegrees>38.8617286272346973419189453125</LatitudeDegrees>
              <LongitudeDegrees>-0.39824056439101696014404296875</LongitudeDegrees>
            </Position>
            <AltitudeMeters>332.20001220703125</AltitudeMeters>
            <DistanceMeters>385.96458634061</DistanceMeters>
          </Trackpoint>
          <Trackpoint>
            <Time>2021-06-20T05:46:37.000Z</Time>
            <Position>
              <LatitudeDegrees>38.861726112663745880126953125</LatitudeDegrees>
              <LongitudeDegrees>-0.398254729807376861572265625</LongitudeDegrees>
            </Position>
            <AltitudeMeters>332.20001220703125</AltitudeMeters>
            <DistanceMeters>387.22525816711</DistanceMeters>
          </Trackpoint>
          <Trackpoint>
            <Time>2021-06-20T05:46:38.000Z</Time>
            <Position>
              <LatitudeDegrees>38.861726112663745880126953125</LatitudeDegrees>
              <LongitudeDegrees>-0.39826772175729274749755859375</LongitudeDegrees>
            </Position>
            <AltitudeMeters>332.399993896484375</AltitudeMeters>
            <DistanceMeters>388.35363788095</DistanceMeters>
          </Trackpoint>
          <Trackpoint>
            <Time>2021-06-20T05:46:40.000Z</Time>
            <Position>
              <LatitudeDegrees>38.8617262803018093109130859375</LatitudeDegrees>
              <LongitudeDegrees>-0.39829370565712451934814453125</LongitudeDegrees>
            </Position>
            <AltitudeMeters>332.399993896484375</AltitudeMeters>
            <DistanceMeters>390.6023803759</DistanceMeters>
          </Trackpoint>
          <Trackpoint>
            <Time>2021-06-20T05:46:42.000Z</Time>
            <Position>
              <LatitudeDegrees>38.8617209158837795257568359375</LatitudeDegrees>
              <LongitudeDegrees>-0.39831398986279964447021484375</LongitudeDegrees>
            </Position>
            <AltitudeMeters>332.399993896484375</AltitudeMeters>
            <DistanceMeters>392.4596604306</DistanceMeters>
          </Trackpoint>
          <Trackpoint>
            <Time>2021-06-20T05:46:45.000Z</Time>
            <Position>
              <LatitudeDegrees>38.861707337200641632080078125</LatitudeDegrees>
              <LongitudeDegrees>-0.39835028350353240966796875</LongitudeDegrees>
            </Position>
            <AltitudeMeters>333.399993896484375</AltitudeMeters>
            <DistanceMeters>395.9511648627</DistanceMeters>
          </Trackpoint>
          <Trackpoint>
            <Time>2021-06-20T05:46:48.000Z</Time>
            <Position>
              <LatitudeDegrees>38.86168755590915679931640625</LatitudeDegrees>
              <LongitudeDegrees>-0.39838523603975772857666015625</LongitudeDegrees>
            </Position>
            <AltitudeMeters>334</AltitudeMeters>
            <DistanceMeters>399.6947832515</DistanceMeters>
          </Trackpoint>
          <Trackpoint>
            <Time>2021-06-20T05:46:49.000Z</Time>
            <Position>
              <LatitudeDegrees>38.8616803474724292755126953125</LatitudeDegrees>
              <LongitudeDegrees>-0.39840124547481536865234375</LongitudeDegrees>
            </Position>
            <AltitudeMeters>334.399993896484375</AltitudeMeters>
            <DistanceMeters>401.29620190697</DistanceMeters>
          </Trackpoint>
          <Trackpoint>
            <Time>2021-06-20T05:46:53.000Z</Time>
            <Position>
              <LatitudeDegrees>38.86166232638061046600341796875</LatitudeDegrees>
              <LongitudeDegrees>-0.39846754632890224456787109375</LongitudeDegrees>
            </Position>
            <AltitudeMeters>335.399993896484375</AltitudeMeters>
            <DistanceMeters>407.38236437384</DistanceMeters>
          </Trackpoint>
          <Trackpoint>
            <Time>2021-06-20T05:46:56.000Z</Time>
            <Position>
              <LatitudeDegrees>38.86165612377226352691650390625</LatitudeDegrees>
              <LongitudeDegrees>-0.39851146750152111053466796875</LongitudeDegrees>
            </Position>
            <AltitudeMeters>336</AltitudeMeters>
            <DistanceMeters>411.24937957826</DistanceMeters>
          </Trackpoint>
          <Trackpoint>
            <Time>2021-06-20T05:46:58.000Z</Time>
            <Position>
              <LatitudeDegrees>38.86164732277393341064453125</LatitudeDegrees>
              <LongitudeDegrees>-0.39854600094258785247802734375</LongitudeDegrees>
            </Position>
            <AltitudeMeters>336.600006103515625</AltitudeMeters>
            <DistanceMeters>414.39962623715</DistanceMeters>
          </Trackpoint>
          <Trackpoint>
            <Time>2021-06-20T05:47:02.000Z</Time>
            <Position>
              <LatitudeDegrees>38.86164103634655475616455078125</LatitudeDegrees>
              <LongitudeDegrees>-0.39859880693256855010986328125</LongitudeDegrees>
            </Position>
            <AltitudeMeters>338</AltitudeMeters>
            <DistanceMeters>419.02968039212</DistanceMeters>
          </Trackpoint>
          <Trackpoint>
            <Time>2021-06-20T05:47:03.000Z</Time>
            <Position>
              <LatitudeDegrees>38.861640952527523040771484375</LatitudeDegrees>
              <LongitudeDegrees>-0.3986126370728015899658203125</LongitudeDegrees>
            </Position>
            <AltitudeMeters>338</AltitudeMeters>
            <DistanceMeters>420.2241476701</DistanceMeters>
          </Trackpoint>
          <Trackpoint>
            <Time>2021-06-20T05:47:04.000Z</Time>
            <Position>
              <LatitudeDegrees>38.86164053343236446380615234375</LatitudeDegrees>
              <LongitudeDegrees>-0.39862780831754207611083984375</LongitudeDegrees>
            </Position>
            <AltitudeMeters>338.399993896484375</AltitudeMeters>
            <DistanceMeters>421.54087644902</DistanceMeters>
          </Trackpoint>
          <Trackpoint>
            <Time>2021-06-20T05:47:06.000Z</Time>
            <Position>
              <LatitudeDegrees>38.861633576452732086181640625</LatitudeDegrees>
              <LongitudeDegrees>-0.3986418060958385467529296875</LongitudeDegrees>
            </Position>
            <AltitudeMeters>339</AltitudeMeters>
            <DistanceMeters>422.97574836986</DistanceMeters>
          </Trackpoint>
          <Trackpoint>
            <Time>2021-06-20T05:47:09.000Z</Time>
            <Position>
              <LatitudeDegrees>38.8616089336574077606201171875</LatitudeDegrees>
              <LongitudeDegrees>-0.398667119443416595458984375</LongitudeDegrees>
            </Position>
            <AltitudeMeters>340.20001220703125</AltitudeMeters>
            <DistanceMeters>426.48788225433</DistanceMeters>
          </Trackpoint>
          <Trackpoint>
            <Time>2021-06-20T05:47:11.000Z</Time>
            <Position>
              <LatitudeDegrees>38.86159367859363555908203125</LatitudeDegrees>
              <LongitudeDegrees>-0.3986929357051849365234375</LongitudeDegrees>
            </Position>
            <AltitudeMeters>340.79998779296875</AltitudeMeters>
            <DistanceMeters>429.29559604593</DistanceMeters>
          </Trackpoint>
          <Trackpoint>
            <Time>2021-06-20T05:47:13.000Z</Time>
            <Position>
              <LatitudeDegrees>38.86158429086208343505859375</LatitudeDegrees>
              <LongitudeDegrees>-0.39872554130852222442626953125</LongitudeDegrees>
            </Position>
            <AltitudeMeters>341.20001220703125</AltitudeMeters>
            <DistanceMeters>432.3081077598</DistanceMeters>
          </Trackpoint>
          <Trackpoint>
            <Time>2021-06-20T05:47:16.000Z</Time>
            <Position>
              <LatitudeDegrees>38.86157800443470478057861328125</LatitudeDegrees>
              <LongitudeDegrees>-0.3987948596477508544921875</LongitudeDegrees>
            </Position>
            <AltitudeMeters>342</AltitudeMeters>
            <DistanceMeters>438.35631738534</DistanceMeters>
          </Trackpoint>
          <Trackpoint>
            <Time>2021-06-20T05:47:17.000Z</Time>
            <Position>
              <LatitudeDegrees>38.861575908958911895751953125</LatitudeDegrees>
              <LongitudeDegrees>-0.3988138027489185333251953125</LongitudeDegrees>
            </Position>
            <AltitudeMeters>342.20001220703125</AltitudeMeters>
            <DistanceMeters>440.01316476484</DistanceMeters>
          </Trackpoint>
          <Trackpoint>
            <Time>2021-06-20T05:47:18.000Z</Time>
            <Position>
              <LatitudeDegrees>38.86157716624438762664794921875</LatitudeDegrees>
              <LongitudeDegrees>-0.39883081801235675811767578125</LongitudeDegrees>
            </Position>
            <AltitudeMeters>342.399993896484375</AltitudeMeters>
            <DistanceMeters>441.49448464113</DistanceMeters>
          </Trackpoint>
          <Trackpoint>
            <Time>2021-06-20T05:47:21.000Z</Time>
            <Position>
              <LatitudeDegrees>38.8615804351866245269775390625</LatitudeDegrees>
              <LongitudeDegrees>-0.3988627530634403228759765625</LongitudeDegrees>
            </Position>
            <AltitudeMeters>343.79998779296875</AltitudeMeters>
            <DistanceMeters>444.28607128158</DistanceMeters>
          </Trackpoint>
          <Trackpoint>
            <Time>2021-06-20T05:47:24.000Z</Time>
            <Position>
              <LatitudeDegrees>38.8615755736827850341796875</LatitudeDegrees>
              <LongitudeDegrees>-0.39890281856060028076171875</LongitudeDegrees>
            </Position>
            <AltitudeMeters>344.79998779296875</AltitudeMeters>
            <DistanceMeters>447.79949048499</DistanceMeters>
          </Trackpoint>
          <Trackpoint>
            <Time>2021-06-20T05:47:25.000Z</Time>
            <Position>
              <LatitudeDegrees>38.86157490313053131103515625</LatitudeDegrees>
              <LongitudeDegrees>-0.39891731925308704376220703125</LongitudeDegrees>
            </Position>
            <AltitudeMeters>344.79998779296875</AltitudeMeters>
            <DistanceMeters>449.05657575564</DistanceMeters>
          </Trackpoint>
          <Trackpoint>
            <Time>2021-06-20T05:47:26.000Z</Time>
            <Position>
              <LatitudeDegrees>38.86157196946442127227783203125</LatitudeDegrees>
              <LongitudeDegrees>-0.39893575944006443023681640625</LongitudeDegrees>
            </Position>
            <AltitudeMeters>345</AltitudeMeters>
            <DistanceMeters>450.68594449062</DistanceMeters>
          </Trackpoint>
          <Trackpoint>
            <Time>2021-06-20T05:47:29.000Z</Time>
            <Position>
              <LatitudeDegrees>38.86155612766742706298828125</LatitudeDegrees>
              <LongitudeDegrees>-0.39898194372653961181640625</LongitudeDegrees>
            </Position>
            <AltitudeMeters>346</AltitudeMeters>
            <DistanceMeters>455.05923866187</DistanceMeters>
          </Trackpoint>
          <Trackpoint>
            <Time>2021-06-20T05:47:30.000Z</Time>
            <Position>
              <LatitudeDegrees>38.86154464446008205413818359375</LatitudeDegrees>
              <LongitudeDegrees>-0.3989931754767894744873046875</LongitudeDegrees>
            </Position>
            <AltitudeMeters>346.20001220703125</AltitudeMeters>
            <DistanceMeters>456.66628622276</DistanceMeters>
          </Trackpoint>
          <Trackpoint>
            <Time>2021-06-20T05:47:34.000Z</Time>
            <Position>
              <LatitudeDegrees>38.8615112006664276123046875</LatitudeDegrees>
              <LongitudeDegrees>-0.39901471696794033050537109375</LongitudeDegrees>
            </Position>
            <AltitudeMeters>347.20001220703125</AltitudeMeters>
            <DistanceMeters>460.83014822484</DistanceMeters>
          </Trackpoint>
          <Trackpoint>
            <Time>2021-06-20T05:47:38.000Z</Time>
            <Position>
              <LatitudeDegrees>38.86148907244205474853515625</LatitudeDegrees>
              <LongitudeDegrees>-0.39899141527712345123291015625</LongitudeDegrees>
            </Position>
            <AltitudeMeters>347.600006103515625</AltitudeMeters>
            <DistanceMeters>464.01744111999</DistanceMeters>
          </Trackpoint>
          <Trackpoint>
            <Time>2021-06-20T05:47:40.000Z</Time>
            <Position>
              <LatitudeDegrees>38.8614707998931407928466796875</LatitudeDegrees>
              <LongitudeDegrees>-0.39898906834423542022705078125</LongitudeDegrees>
            </Position>
            <AltitudeMeters>347.79998779296875</AltitudeMeters>
            <DistanceMeters>466.06217224988</DistanceMeters>
          </Trackpoint>
          <Trackpoint>
            <Time>2021-06-20T05:47:43.000Z</Time>
            <Position>
              <LatitudeDegrees>38.8614560477435588836669921875</LatitudeDegrees>
              <LongitudeDegrees>-0.398983620107173919677734375</LongitudeDegrees>
            </Position>
            <AltitudeMeters>347.600006103515625</AltitudeMeters>
            <DistanceMeters>467.77265310854</DistanceMeters>
          </Trackpoint>
          <Trackpoint>
            <Time>2021-06-20T05:47:45.000Z</Time>
            <Position>
              <LatitudeDegrees>38.86144255287945270538330078125</LatitudeDegrees>
              <LongitudeDegrees>-0.3989770822227001190185546875</LongitudeDegrees>
            </Position>
            <AltitudeMeters>347.399993896484375</AltitudeMeters>
            <DistanceMeters>469.37970066943</DistanceMeters>
          </Trackpoint>
          <Trackpoint>
            <Time>2021-06-20T05:47:47.000Z</Time>
            <Position>
              <LatitudeDegrees>38.86142872273921966552734375</LatitudeDegrees>
              <LongitudeDegrees>-0.398963503539562225341796875</LongitudeDegrees>
            </Position>
            <AltitudeMeters>347.399993896484375</AltitudeMeters>
            <DistanceMeters>471.31320827164</DistanceMeters>
          </Trackpoint>
          <Trackpoint>
            <Time>2021-06-20T05:47:48.000Z</Time>
            <Position>
              <LatitudeDegrees>38.86142109520733356475830078125</LatitudeDegrees>
              <LongitudeDegrees>-0.3989552892744541168212890625</LongitudeDegrees>
            </Position>
            <AltitudeMeters>347.399993896484375</AltitudeMeters>
            <DistanceMeters>472.42140067207</DistanceMeters>
          </Trackpoint>
          <Trackpoint>
            <Time>2021-06-20T05:47:49.000Z</Time>
            <Position>
              <LatitudeDegrees>38.86141388677060604095458984375</LatitudeDegrees>
              <LongitudeDegrees>-0.39895202033221721649169921875</LongitudeDegrees>
            </Position>
            <AltitudeMeters>347.399993896484375</AltitudeMeters>
            <DistanceMeters>473.27134544411</DistanceMeters>
          </Trackpoint>
          <Trackpoint>
            <Time>2021-06-20T05:47:51.000Z</Time>
            <Position>
              <LatitudeDegrees>38.86139561422169208526611328125</LatitudeDegrees>
              <LongitudeDegrees>-0.39894883520901203155517578125</LongitudeDegrees>
            </Position>
            <AltitudeMeters>347.399993896484375</AltitudeMeters>
            <DistanceMeters>475.32269027687</DistanceMeters>
          </Trackpoint>
          <Trackpoint>
            <Time>2021-06-20T05:47:53.000Z</Time>
            <Position>
              <LatitudeDegrees>38.86137633584439754486083984375</LatitudeDegrees>
              <LongitudeDegrees>-0.39894849993288516998291015625</LongitudeDegrees>
            </Position>
            <AltitudeMeters>347.600006103515625</AltitudeMeters>
            <DistanceMeters>477.46869563251</DistanceMeters>
          </Trackpoint>
          <Trackpoint>
            <Time>2021-06-20T05:47:55.000Z</Time>
            <Position>
              <LatitudeDegrees>38.8613564707338809967041015625</LatitudeDegrees>
              <LongitudeDegrees>-0.3989459015429019927978515625</LongitudeDegrees>
            </Position>
            <AltitudeMeters>348.20001220703125</AltitudeMeters>
            <DistanceMeters>479.69118338609</DistanceMeters>
          </Trackpoint>
          <Trackpoint>
            <Time>2021-06-20T05:47:59.000Z</Time>
            <Position>
              <LatitudeDegrees>38.86131732724606990814208984375</LatitudeDegrees>
              <LongitudeDegrees>-0.39893961511552333831787109375</LongitudeDegrees>
            </Position>
            <AltitudeMeters>348.600006103515625</AltitudeMeters>
            <DistanceMeters>484.0819934717</DistanceMeters>
          </Trackpoint>
          <Trackpoint>
            <Time>2021-06-20T05:48:02.000Z</Time>
            <Position>
              <LatitudeDegrees>38.861280195415019989013671875</LatitudeDegrees>
              <LongitudeDegrees>-0.3989479131996631622314453125</LongitudeDegrees>
            </Position>
            <AltitudeMeters>349.20001220703125</AltitudeMeters>
            <DistanceMeters>488.2771834542</DistanceMeters>
          </Trackpoint>
          <Trackpoint>
            <Time>2021-06-20T05:48:06.000Z</Time>
            <Position>
              <LatitudeDegrees>38.8612402975559234619140625</LatitudeDegrees>
              <LongitudeDegrees>-0.3989740647375583648681640625</LongitudeDegrees>
            </Position>
            <AltitudeMeters>349.600006103515625</AltitudeMeters>
            <DistanceMeters>493.26223815538</DistanceMeters>
          </Trackpoint>
          <Trackpoint>
            <Time>2021-06-20T05:48:08.000Z</Time>
            <Position>
              <LatitudeDegrees>38.86122261174023151397705078125</LatitudeDegrees>
              <LongitudeDegrees>-0.39898403920233249664306640625</LongitudeDegrees>
            </Position>
            <AltitudeMeters>349.79998779296875</AltitudeMeters>
            <DistanceMeters>495.41244724737</DistanceMeters>
          </Trackpoint>
          <Trackpoint>
            <Time>2021-06-20T05:48:11.000Z</Time>
            <Position>
              <LatitudeDegrees>38.86119402945041656494140625</LatitudeDegrees>
              <LongitudeDegrees>-0.3990039043128490447998046875</LongitudeDegrees>
            </Position>
            <AltitudeMeters>350.20001220703125</AltitudeMeters>
            <DistanceMeters>499.03095672556</DistanceMeters>
          </Trackpoint>
          <Trackpoint>
            <Time>2021-06-20T05:48:12.000Z</Time>
            <Position>
              <LatitudeDegrees>38.861185647547245025634765625</LatitudeDegrees>
              <LongitudeDegrees>-0.39901840500533580780029296875</LongitudeDegrees>
            </Position>
            <AltitudeMeters>350.600006103515625</AltitudeMeters>
            <DistanceMeters>500.59817744797</DistanceMeters>
          </Trackpoint>
          <Trackpoint>
            <Time>2021-06-20T05:48:14.000Z</Time>
            <Position>
              <LatitudeDegrees>38.8611703924834728240966796875</LatitudeDegrees>
              <LongitudeDegrees>-0.399048663675785064697265625</LongitudeDegrees>
            </Position>
            <AltitudeMeters>351</AltitudeMeters>
            <DistanceMeters>503.72251940044</DistanceMeters>
          </Trackpoint>
          <Trackpoint>
            <Time>2021-06-20T05:48:17.000Z</Time>
            <Position>
              <LatitudeDegrees>38.86115337722003459930419921875</LatitudeDegrees>
              <LongitudeDegrees>-0.399084202945232391357421875</LongitudeDegrees>
            </Position>
            <AltitudeMeters>351.399993896484375</AltitudeMeters>
            <DistanceMeters>507.33853249373</DistanceMeters>
          </Trackpoint>
          <Trackpoint>
            <Time>2021-06-20T05:48:18.000Z</Time>
            <Position>
              <LatitudeDegrees>38.8611482642590999603271484375</LatitudeDegrees>
              <LongitudeDegrees>-0.399092249572277069091796875</LongitudeDegrees>
            </Position>
            <AltitudeMeters>351.600006103515625</AltitudeMeters>
            <DistanceMeters>508.24003506164</DistanceMeters>
          </Trackpoint>
          <Trackpoint>
            <Time>2021-06-20T05:48:21.000Z</Time>
            <Position>
              <LatitudeDegrees>38.86112906970083713531494140625</LatitudeDegrees>
              <LongitudeDegrees>-0.39911479689180850982666015625</LongitudeDegrees>
            </Position>
            <AltitudeMeters>352.600006103515625</AltitudeMeters>
            <DistanceMeters>511.13484264419</DistanceMeters>
          </Trackpoint>
          <Trackpoint>
            <Time>2021-06-20T05:48:24.000Z</Time>
            <Position>
              <LatitudeDegrees>38.861100487411022186279296875</LatitudeDegrees>
              <LongitudeDegrees>-0.399145893752574920654296875</LongitudeDegrees>
            </Position>
            <AltitudeMeters>353.399993896484375</AltitudeMeters>
            <DistanceMeters>515.30520560574</DistanceMeters>
          </Trackpoint>
          <Trackpoint>
            <Time>2021-06-20T05:48:25.000Z</Time>
            <Position>
              <LatitudeDegrees>38.86109537445008754730224609375</LatitudeDegrees>
              <LongitudeDegrees>-0.399152934551239013671875</LongitudeDegrees>
            </Position>
            <AltitudeMeters>353.79998779296875</AltitudeMeters>
            <DistanceMeters>516.13362929549</DistanceMeters>
          </Trackpoint>
          <Trackpoint>
            <Time>2021-06-20T05:48:26.000Z</Time>
            <Position>
              <LatitudeDegrees>38.86108783073723316192626953125</LatitudeDegrees>
              <LongitudeDegrees>-0.39916005916893482208251953125</LongitudeDegrees>
            </Position>
            <AltitudeMeters>354</AltitudeMeters>
            <DistanceMeters>517.17024836575</DistanceMeters>
          </Trackpoint>
          <Trackpoint>
            <Time>2021-06-20T05:48:29.000Z</Time>
            <Position>
              <LatitudeDegrees>38.8610691390931606292724609375</LatitudeDegrees>
              <LongitudeDegrees>-0.39918906055390834808349609375</LongitudeDegrees>
            </Position>
            <AltitudeMeters>354.79998779296875</AltitudeMeters>
            <DistanceMeters>520.43313974112</DistanceMeters>
          </Trackpoint>
          <Trackpoint>
            <Time>2021-06-20T05:48:30.000Z</Time>
            <Position>
              <LatitudeDegrees>38.8610647805035114288330078125</LatitudeDegrees>
              <LongitudeDegrees>-0.39920247159898281097412109375</LongitudeDegrees>
            </Position>
            <AltitudeMeters>355</AltitudeMeters>
            <DistanceMeters>521.69022501177</DistanceMeters>
          </Trackpoint>
          <Trackpoint>
            <Time>2021-06-20T05:48:32.000Z</Time>
            <Position>
              <LatitudeDegrees>38.861047513782978057861328125</LatitudeDegrees>
              <LongitudeDegrees>-0.3992266952991485595703125</LongitudeDegrees>
            </Position>
            <AltitudeMeters>355.20001220703125</AltitudeMeters>
            <DistanceMeters>524.53785712401</DistanceMeters>
          </Trackpoint>
          <Trackpoint>
            <Time>2021-06-20T05:48:33.000Z</Time>
            <Position>
              <LatitudeDegrees>38.8610382936894893646240234375</LatitudeDegrees>
              <LongitudeDegrees>-0.3992372564971446990966796875</LongitudeDegrees>
            </Position>
            <AltitudeMeters>355.600006103515625</AltitudeMeters>
            <DistanceMeters>525.9149250429</DistanceMeters>
          </Trackpoint>
          <Trackpoint>
            <Time>2021-06-20T05:48:35.000Z</Time>
            <Position>
              <LatitudeDegrees>38.86102295480668544769287109375</LatitudeDegrees>
              <LongitudeDegrees>-0.3992600552737712860107421875</LongitudeDegrees>
            </Position>
            <AltitudeMeters>356</AltitudeMeters>
            <DistanceMeters>528.52599909684</DistanceMeters>
          </Trackpoint>
          <Trackpoint>
            <Time>2021-06-20T05:48:37.000Z</Time>
            <Position>
              <LatitudeDegrees>38.86100686155259609222412109375</LatitudeDegrees>
              <LongitudeDegrees>-0.39927623234689235687255859375</LongitudeDegrees>
            </Position>
            <AltitudeMeters>356.399993896484375</AltitudeMeters>
            <DistanceMeters>530.80069331858</DistanceMeters>
          </Trackpoint>
          <Trackpoint>
            <Time>2021-06-20T05:48:39.000Z</Time>
            <Position>
              <LatitudeDegrees>38.86099286377429962158203125</LatitudeDegrees>
              <LongitudeDegrees>-0.3992989473044872283935546875</LongitudeDegrees>
            </Position>
            <AltitudeMeters>356.600006103515625</AltitudeMeters>
            <DistanceMeters>533.31126961853</DistanceMeters>
          </Trackpoint>
          <Trackpoint>
            <Time>2021-06-20T05:48:41.000Z</Time>
            <Position>
              <LatitudeDegrees>38.86098406277596950531005859375</LatitudeDegrees>
              <LongitudeDegrees>-0.3993110172450542449951171875</LongitudeDegrees>
            </Position>
            <AltitudeMeters>357.20001220703125</AltitudeMeters>
            <DistanceMeters>534.74614153937</DistanceMeters>
          </Trackpoint>
          <Trackpoint>
            <Time>2021-06-20T05:48:42.000Z</Time>
            <Position>
              <LatitudeDegrees>38.86097752489149570465087890625</LatitudeDegrees>
              <LongitudeDegrees>-0.39931453764438629150390625</LongitudeDegrees>
            </Position>
            <AltitudeMeters>357.600006103515625</AltitudeMeters>
            <DistanceMeters>535.52975190058</DistanceMeters>
          </Trackpoint>
          <Trackpoint>
            <Time>2021-06-20T05:48:45.000Z</Time>
            <Position>
              <LatitudeDegrees>38.86096830479800701141357421875</LatitudeDegrees>
              <LongitudeDegrees>-0.39932216517627239227294921875</LongitudeDegrees>
            </Position>
            <AltitudeMeters>358.20001220703125</AltitudeMeters>
            <DistanceMeters>536.7540854702</DistanceMeters>
          </Trackpoint>
          <Trackpoint>
            <Time>2021-06-20T05:48:46.000Z</Time>
            <Position>
              <LatitudeDegrees>38.8609641976654529571533203125</LatitudeDegrees>
              <LongitudeDegrees>-0.39932149462401866912841796875</LongitudeDegrees>
            </Position>
            <AltitudeMeters>358.399993896484375</AltitudeMeters>
            <DistanceMeters>537.21961939447</DistanceMeters>
          </Trackpoint>
          <Trackpoint>
            <Time>2021-06-20T05:48:47.000Z</Time>
            <Position>
              <LatitudeDegrees>38.86096025817096233367919921875</LatitudeDegrees>
              <LongitudeDegrees>-0.39932266809046268463134765625</LongitudeDegrees>
            </Position>
            <AltitudeMeters>358.79998779296875</AltitudeMeters>
            <DistanceMeters>537.67535150681</DistanceMeters>
          </Trackpoint>
          <Trackpoint>
            <Time>2021-06-20T05:48:49.000Z</Time>
            <Position>
              <LatitudeDegrees>38.86095372028648853302001953125</LatitudeDegrees>
              <LongitudeDegrees>-0.3993339836597442626953125</LongitudeDegrees>
            </Position>
            <AltitudeMeters>359.20001220703125</AltitudeMeters>
            <DistanceMeters>538.89599175408</DistanceMeters>
          </Trackpoint>
          <Trackpoint>
            <Time>2021-06-20T05:48:50.000Z</Time>
            <Position>
              <LatitudeDegrees>38.860949613153934478759765625</LatitudeDegrees>
              <LongitudeDegrees>-0.399343706667423248291015625</LongitudeDegrees>
            </Position>
            <AltitudeMeters>359.20001220703125</AltitudeMeters>
            <DistanceMeters>539.85571452513</DistanceMeters>
          </Trackpoint>
          <Trackpoint>
            <Time>2021-06-20T05:48:53.000Z</Time>
            <Position>
              <LatitudeDegrees>38.86093385517597198486328125</LatitudeDegrees>
              <LongitudeDegrees>-0.3993760608136653900146484375</LongitudeDegrees>
            </Position>
            <AltitudeMeters>360.399993896484375</AltitudeMeters>
            <DistanceMeters>543.16395463886</DistanceMeters>
          </Trackpoint>
          <Trackpoint>
            <Time>2021-06-20T05:48:54.000Z</Time>
            <Position>
              <LatitudeDegrees>38.8609264791011810302734375</LatitudeDegrees>
              <LongitudeDegrees>-0.39939098060131072998046875</LongitudeDegrees>
            </Position>
            <AltitudeMeters>360.600006103515625</AltitudeMeters>
            <DistanceMeters>544.69621436731</DistanceMeters>
          </Trackpoint>
          <Trackpoint>
            <Time>2021-06-20T05:48:55.000Z</Time>
            <Position>
              <LatitudeDegrees>38.8609192706644535064697265625</LatitudeDegrees>
              <LongitudeDegrees>-0.39939927868545055389404296875</LongitudeDegrees>
            </Position>
            <AltitudeMeters>360.79998779296875</AltitudeMeters>
            <DistanceMeters>545.77131891331</DistanceMeters>
          </Trackpoint>
          <Trackpoint>
            <Time>2021-06-20T05:48:57.000Z</Time>
            <Position>
              <LatitudeDegrees>38.86090661399066448211669921875</LatitudeDegrees>
              <LongitudeDegrees>-0.39941956289112567901611328125</LongitudeDegrees>
            </Position>
            <AltitudeMeters>361</AltitudeMeters>
            <DistanceMeters>548.02407344088</DistanceMeters>
          </Trackpoint>
          <Trackpoint>
            <Time>2021-06-20T05:48:59.000Z</Time>
            <Position>
              <LatitudeDegrees>38.86089353822171688079833984375</LatitudeDegrees>
              <LongitudeDegrees>-0.39944018237292766571044921875</LongitudeDegrees>
            </Position>
            <AltitudeMeters>361.20001220703125</AltitudeMeters>
            <DistanceMeters>550.32638855237</DistanceMeters>
          </Trackpoint>
          <Trackpoint>
            <Time>2021-06-20T05:49:02.000Z</Time>
            <Position>
              <LatitudeDegrees>38.860861100256443023681640625</LatitudeDegrees>
              <LongitudeDegrees>-0.3994789905846118927001953125</LongitudeDegrees>
            </Position>
            <AltitudeMeters>361.399993896484375</AltitudeMeters>
            <DistanceMeters>555.26046253772</DistanceMeters>
          </Trackpoint>
          <Trackpoint>
            <Time>2021-06-20T05:49:04.000Z</Time>
            <Position>
              <LatitudeDegrees>38.860844336450099945068359375</LatitudeDegrees>
              <LongitudeDegrees>-0.39949969388544559478759765625</LongitudeDegrees>
            </Position>
            <AltitudeMeters>361.399993896484375</AltitudeMeters>
            <DistanceMeters>557.84895953818</DistanceMeters>
          </Trackpoint>
          <Trackpoint>
            <Time>2021-06-20T05:49:05.000Z</Time>
            <Position>
              <LatitudeDegrees>38.860838301479816436767578125</LatitudeDegrees>
              <LongitudeDegrees>-0.39951645769178867340087890625</LongitudeDegrees>
            </Position>
            <AltitudeMeters>361.600006103515625</AltitudeMeters>
            <DistanceMeters>559.45037819365</DistanceMeters>
          </Trackpoint>
          <Trackpoint>
            <Time>2021-06-20T05:49:08.000Z</Time>
            <Position>
              <LatitudeDegrees>38.8608240522444248199462890625</LatitudeDegrees>
              <LongitudeDegrees>-0.39956775493919849395751953125</LongitudeDegrees>
            </Position>
            <AltitudeMeters>362.399993896484375</AltitudeMeters>
            <DistanceMeters>564.1712074284</DistanceMeters>
          </Trackpoint>
          <Trackpoint>
            <Time>2021-06-20T05:49:09.000Z</Time>
            <Position>
              <LatitudeDegrees>38.860814832150936126708984375</LatitudeDegrees>
              <LongitudeDegrees>-0.3995809145271778106689453125</LongitudeDegrees>
            </Position>
            <AltitudeMeters>362.600006103515625</AltitudeMeters>
            <DistanceMeters>565.70346715685</DistanceMeters>
          </Trackpoint>
          <Trackpoint>
            <Time>2021-06-20T05:49:10.000Z</Time>
            <Position>
              <LatitudeDegrees>38.86080251075327396392822265625</LatitudeDegrees>
              <LongitudeDegrees>-0.39959692396223545074462890625</LongitudeDegrees>
            </Position>
            <AltitudeMeters>362.79998779296875</AltitudeMeters>
            <DistanceMeters>567.655566606</DistanceMeters>
          </Trackpoint>
          <Trackpoint>
            <Time>2021-06-20T05:49:14.000Z</Time>
            <Position>
              <LatitudeDegrees>38.86076755821704864501953125</LatitudeDegrees>
              <LongitudeDegrees>-0.39965651929378509521484375</LongitudeDegrees>
            </Position>
            <AltitudeMeters>363.79998779296875</AltitudeMeters>
            <DistanceMeters>574.12157417911</DistanceMeters>
          </Trackpoint>
          <Trackpoint>
            <Time>2021-06-20T05:49:15.000Z</Time>
            <Position>
              <LatitudeDegrees>38.86076127178966999053955078125</LatitudeDegrees>
              <LongitudeDegrees>-0.39967018179595470428466796875</LongitudeDegrees>
            </Position>
            <AltitudeMeters>364</AltitudeMeters>
            <DistanceMeters>575.49535945228</DistanceMeters>
          </Trackpoint>
          <Trackpoint>
            <Time>2021-06-20T05:49:18.000Z</Time>
            <Position>
              <LatitudeDegrees>38.86073277331888675689697265625</LatitudeDegrees>
              <LongitudeDegrees>-0.3997170366346836090087890625</LongitudeDegrees>
            </Position>
            <AltitudeMeters>364.20001220703125</AltitudeMeters>
            <DistanceMeters>580.64787580308</DistanceMeters>
          </Trackpoint>
          <Trackpoint>
            <Time>2021-06-20T05:49:22.000Z</Time>
            <Position>
              <LatitudeDegrees>38.860690109431743621826171875</LatitudeDegrees>
              <LongitudeDegrees>-0.399777553975582122802734375</LongitudeDegrees>
            </Position>
            <AltitudeMeters>364.79998779296875</AltitudeMeters>
            <DistanceMeters>587.72274072962</DistanceMeters>
          </Trackpoint>
          <Trackpoint>
            <Time>2021-06-20T05:49:23.000Z</Time>
            <Position>
              <LatitudeDegrees>38.8606778718531131744384765625</LatitudeDegrees>
              <LongitudeDegrees>-0.39979356341063976287841796875</LongitudeDegrees>
            </Position>
            <AltitudeMeters>365</AltitudeMeters>
            <DistanceMeters>589.66556649473</DistanceMeters>
          </Trackpoint>
          <Trackpoint>
            <Time>2021-06-20T05:49:29.000Z</Time>
            <Position>
              <LatitudeDegrees>38.86060453020036220550537109375</LatitudeDegrees>
              <LongitudeDegrees>-0.39989531971514225006103515625</LongitudeDegrees>
            </Position>
            <AltitudeMeters>365.399993896484375</AltitudeMeters>
            <DistanceMeters>601.68259534931</DistanceMeters>
          </Trackpoint>
          <Trackpoint>
            <Time>2021-06-20T05:49:34.000Z</Time>
            <Position>
              <LatitudeDegrees>38.86056840419769287109375</LatitudeDegrees>
              <LongitudeDegrees>-0.4000206291675567626953125</LongitudeDegrees>
            </Position>
            <AltitudeMeters>364.20001220703125</AltitudeMeters>
            <DistanceMeters>613.26338527684</DistanceMeters>
          </Trackpoint>
          <Trackpoint>
            <Time>2021-06-20T05:49:35.000Z</Time>
            <Position>
              <LatitudeDegrees>38.860563375055789947509765625</LatitudeDegrees>
              <LongitudeDegrees>-0.4000459425151348114013671875</LongitudeDegrees>
            </Position>
            <AltitudeMeters>363.79998779296875</AltitudeMeters>
            <DistanceMeters>615.52813325844</DistanceMeters>
          </Trackpoint>
          <Trackpoint>
            <Time>2021-06-20T05:49:39.000Z</Time>
            <Position>
              <LatitudeDegrees>38.86053043417632579803466796875</LatitudeDegrees>
              <LongitudeDegrees>-0.40018583647906780242919921875</LongitudeDegrees>
            </Position>
            <AltitudeMeters>363.399993896484375</AltitudeMeters>
            <DistanceMeters>628.19487704902</DistanceMeters>
          </Trackpoint>
          <Trackpoint>
            <Time>2021-06-20T05:49:41.000Z</Time>
            <Position>
              <LatitudeDegrees>38.86051869951188564300537109375</LatitudeDegrees>
              <LongitudeDegrees>-0.40024300105869770050048828125</LongitudeDegrees>
            </Position>
            <AltitudeMeters>363.20001220703125</AltitudeMeters>
            <DistanceMeters>633.31839461243</DistanceMeters>
          </Trackpoint>
          <Trackpoint>
            <Time>2021-06-20T05:49:44.000Z</Time>
            <Position>
              <LatitudeDegrees>38.8604991696774959564208984375</LatitudeDegrees>
              <LongitudeDegrees>-0.400317348539829254150390625</LongitudeDegrees>
            </Position>
            <AltitudeMeters>363.20001220703125</AltitudeMeters>
            <DistanceMeters>640.11928069779</DistanceMeters>
          </Trackpoint>
          <Trackpoint>
            <Time>2021-06-20T05:49:46.000Z</Time>
            <Position>
              <LatitudeDegrees>38.86048466898500919342041015625</LatitudeDegrees>
              <LongitudeDegrees>-0.40036420337855815887451171875</LongitudeDegrees>
            </Position>
            <AltitudeMeters>363.600006103515625</AltitudeMeters>
            <DistanceMeters>644.4884432723</DistanceMeters>
          </Trackpoint>
          <Trackpoint>
            <Time>2021-06-20T05:49:49.000Z</Time>
            <Position>
              <LatitudeDegrees>38.86045583523809909820556640625</LatitudeDegrees>
              <LongitudeDegrees>-0.40041902102530002593994140625</LongitudeDegrees>
            </Position>
            <AltitudeMeters>363.20001220703125</AltitudeMeters>
            <DistanceMeters>650.22163420371</DistanceMeters>
          </Trackpoint>
          <Trackpoint>
            <Time>2021-06-20T05:49:52.000Z</Time>
            <Position>
              <LatitudeDegrees>38.86043387465178966522216796875</LatitudeDegrees>
              <LongitudeDegrees>-0.40045254863798618316650390625</LongitudeDegrees>
            </Position>
            <AltitudeMeters>363.20001220703125</AltitudeMeters>
            <DistanceMeters>654.01794846949</DistanceMeters>
          </Trackpoint>
          <Trackpoint>
            <Time>2021-06-20T05:49:53.000Z</Time>
            <Position>
              <LatitudeDegrees>38.86042465455830097198486328125</LatitudeDegrees>
              <LongitudeDegrees>-0.400465540587902069091796875</LongitudeDegrees>
            </Position>
            <AltitudeMeters>363.20001220703125</AltitudeMeters>
            <DistanceMeters>655.54430351421</DistanceMeters>
          </Trackpoint>
          <Trackpoint>
            <Time>2021-06-20T05:49:54.000Z</Time>
            <Position>
              <LatitudeDegrees>38.86041794903576374053955078125</LatitudeDegrees>
              <LongitudeDegrees>-0.40047786198556423187255859375</LongitudeDegrees>
            </Position>
            <AltitudeMeters>363.600006103515625</AltitudeMeters>
            <DistanceMeters>656.84724417727</DistanceMeters>
          </Trackpoint>
          <Trackpoint>
            <Time>2021-06-20T05:49:59.000Z</Time>
            <Position>
              <LatitudeDegrees>38.860378302633762359619140625</LatitudeDegrees>
              <LongitudeDegrees>-0.4005394689738750457763671875</LongitudeDegrees>
            </Position>
            <AltitudeMeters>363.20001220703125</AltitudeMeters>
            <DistanceMeters>663.77442442779</DistanceMeters>
          </Trackpoint>
          <Trackpoint>
            <Time>2021-06-20T05:50:00.000Z</Time>
            <Position>
              <LatitudeDegrees>38.8603640533983707427978515625</LatitudeDegrees>
              <LongitudeDegrees>-0.4005582444369792938232421875</LongitudeDegrees>
            </Position>
            <AltitudeMeters>363.20001220703125</AltitudeMeters>
            <DistanceMeters>666.04514538147</DistanceMeters>
          </Trackpoint>
          <Trackpoint>
            <Time>2021-06-20T05:50:02.000Z</Time>
            <Position>
              <LatitudeDegrees>38.86034619994461536407470703125</LatitudeDegrees>
              <LongitudeDegrees>-0.40058858692646026611328125</LongitudeDegrees>
            </Position>
            <AltitudeMeters>363</AltitudeMeters>
            <DistanceMeters>669.34107953768</DistanceMeters>
          </Trackpoint>
          <Trackpoint>
            <Time>2021-06-20T05:50:06.000Z</Time>
            <Position>
              <LatitudeDegrees>38.8603070564568042755126953125</LatitudeDegrees>
              <LongitudeDegrees>-0.40065941400825977325439453125</LongitudeDegrees>
            </Position>
            <AltitudeMeters>363.20001220703125</AltitudeMeters>
            <DistanceMeters>676.8686109847</DistanceMeters>
          </Trackpoint>
          <Trackpoint>
            <Time>2021-06-20T05:50:07.000Z</Time>
            <Position>
              <LatitudeDegrees>38.86029909364879131317138671875</LatitudeDegrees>
              <LongitudeDegrees>-0.4006745852530002593994140625</LongitudeDegrees>
            </Position>
            <AltitudeMeters>363.20001220703125</AltitudeMeters>
            <DistanceMeters>678.45871205202</DistanceMeters>
          </Trackpoint>
          <Trackpoint>
            <Time>2021-06-20T05:50:12.000Z</Time>
            <Position>
              <LatitudeDegrees>38.86026690714061260223388671875</LatitudeDegrees>
              <LongitudeDegrees>-0.40074951946735382080078125</LongitudeDegrees>
            </Position>
            <AltitudeMeters>363.20001220703125</AltitudeMeters>
            <DistanceMeters>685.87627605734</DistanceMeters>
          </Trackpoint>
          <Trackpoint>
            <Time>2021-06-20T05:50:14.000Z</Time>
            <Position>
              <LatitudeDegrees>38.86025257408618927001953125</LatitudeDegrees>
              <LongitudeDegrees>-0.4007905907928943634033203125</LongitudeDegrees>
            </Position>
            <AltitudeMeters>363.20001220703125</AltitudeMeters>
            <DistanceMeters>689.77700404172</DistanceMeters>
          </Trackpoint>
          <Trackpoint>
            <Time>2021-06-20T05:50:15.000Z</Time>
            <Position>
              <LatitudeDegrees>38.86024159379303455352783203125</LatitudeDegrees>
              <LongitudeDegrees>-0.400806851685047149658203125</LongitudeDegrees>
            </Position>
            <AltitudeMeters>363.399993896484375</AltitudeMeters>
            <DistanceMeters>691.64398275273</DistanceMeters>
          </Trackpoint>
          <Trackpoint>
            <Time>2021-06-20T05:50:17.000Z</Time>
            <Position>
              <LatitudeDegrees>38.86021845974028110504150390625</LatitudeDegrees>
              <LongitudeDegrees>-0.400842390954494476318359375</LongitudeDegrees>
            </Position>
            <AltitudeMeters>363.79998779296875</AltitudeMeters>
            <DistanceMeters>695.65766639447</DistanceMeters>
          </Trackpoint>
          <Trackpoint>
            <Time>2021-06-20T05:50:19.000Z</Time>
            <Position>
              <LatitudeDegrees>38.860195241868495941162109375</LatitudeDegrees>
              <LongitudeDegrees>-0.40087751112878322601318359375</LongitudeDegrees>
            </Position>
            <AltitudeMeters>363.79998779296875</AltitudeMeters>
            <DistanceMeters>699.64878839801</DistanceMeters>
          </Trackpoint>
          <Trackpoint>
            <Time>2021-06-20T05:50:21.000Z</Time>
            <Position>
              <LatitudeDegrees>38.86017705313861370086669921875</LatitudeDegrees>
              <LongitudeDegrees>-0.4008945263922214508056640625</LongitudeDegrees>
            </Position>
            <AltitudeMeters>364</AltitudeMeters>
            <DistanceMeters>702.1521607339</DistanceMeters>
          </Trackpoint>
          <Trackpoint>
            <Time>2021-06-20T05:50:23.000Z</Time>
            <Position>
              <LatitudeDegrees>38.86016582138836383819580078125</LatitudeDegrees>
              <LongitudeDegrees>-0.400923192501068115234375</LongitudeDegrees>
            </Position>
            <AltitudeMeters>364</AltitudeMeters>
            <DistanceMeters>704.93240270827</DistanceMeters>
          </Trackpoint>
          <Trackpoint>
            <Time>2021-06-20T05:50:24.000Z</Time>
            <Position>
              <LatitudeDegrees>38.86015827767550945281982421875</LatitudeDegrees>
              <LongitudeDegrees>-0.40093450807034969329833984375</LongitudeDegrees>
            </Position>
            <AltitudeMeters>363.79998779296875</AltitudeMeters>
            <DistanceMeters>706.22490576131</DistanceMeters>
          </Trackpoint>
          <Trackpoint>
            <Time>2021-06-20T05:50:25.000Z</Time>
            <Position>
              <LatitudeDegrees>38.86015241034328937530517578125</LatitudeDegrees>
              <LongitudeDegrees>-0.400948338210582733154296875</LongitudeDegrees>
            </Position>
            <AltitudeMeters>363.79998779296875</AltitudeMeters>
            <DistanceMeters>707.58879569362</DistanceMeters>
          </Trackpoint>
          <Trackpoint>
            <Time>2021-06-20T05:50:28.000Z</Time>
            <Position>
              <LatitudeDegrees>38.86013614945113658905029296875</LatitudeDegrees>
              <LongitudeDegrees>-0.40099091827869415283203125</LongitudeDegrees>
            </Position>
            <AltitudeMeters>363.20001220703125</AltitudeMeters>
            <DistanceMeters>711.69808309537</DistanceMeters>
          </Trackpoint>
          <Trackpoint>
            <Time>2021-06-20T05:50:30.000Z</Time>
            <Position>
              <LatitudeDegrees>38.86012340895831584930419921875</LatitudeDegrees>
              <LongitudeDegrees>-0.401022434234619140625</LongitudeDegrees>
            </Position>
            <AltitudeMeters>363.600006103515625</AltitudeMeters>
            <DistanceMeters>714.77583392832</DistanceMeters>
          </Trackpoint>
          <Trackpoint>
            <Time>2021-06-20T05:50:31.000Z</Time>
            <Position>
              <LatitudeDegrees>38.8601164519786834716796875</LatitudeDegrees>
              <LongitudeDegrees>-0.40103743784129619598388671875</LongitudeDegrees>
            </Position>
            <AltitudeMeters>363.600006103515625</AltitudeMeters>
            <DistanceMeters>716.29031054312</DistanceMeters>
          </Trackpoint>
          <Trackpoint>
            <Time>2021-06-20T05:50:34.000Z</Time>
            <Position>
              <LatitudeDegrees>38.86010211892426013946533203125</LatitudeDegrees>
              <LongitudeDegrees>-0.40107733570039272308349609375</LongitudeDegrees>
            </Position>
            <AltitudeMeters>363.20001220703125</AltitudeMeters>
            <DistanceMeters>720.09968488091</DistanceMeters>
          </Trackpoint>
          <Trackpoint>
            <Time>2021-06-20T05:50:35.000Z</Time>
            <Position>
              <LatitudeDegrees>38.86009189300239086151123046875</LatitudeDegrees>
              <LongitudeDegrees>-0.4010883159935474395751953125</LongitudeDegrees>
            </Position>
            <AltitudeMeters>363.20001220703125</AltitudeMeters>
            <DistanceMeters>721.58404961113</DistanceMeters>
          </Trackpoint>
          <Trackpoint>
            <Time>2021-06-20T05:50:36.000Z</Time>
            <Position>
              <LatitudeDegrees>38.8600790686905384063720703125</LatitudeDegrees>
              <LongitudeDegrees>-0.40109493769705295562744140625</LongitudeDegrees>
            </Position>
            <AltitudeMeters>363.600006103515625</AltitudeMeters>
            <DistanceMeters>723.12219135633</DistanceMeters>
          </Trackpoint>
          <Trackpoint>
            <Time>2021-06-20T05:50:38.000Z</Time>
            <Position>
              <LatitudeDegrees>38.8600562699139118194580078125</LatitudeDegrees>
              <LongitudeDegrees>-0.401108600199222564697265625</LongitudeDegrees>
            </Position>
            <AltitudeMeters>363.600006103515625</AltitudeMeters>
            <DistanceMeters>725.92185318472</DistanceMeters>
          </Trackpoint>
          <Trackpoint>
            <Time>2021-06-20T05:50:39.000Z</Time>
            <Position>
              <LatitudeDegrees>38.8600418530404567718505859375</LatitudeDegrees>
              <LongitudeDegrees>-0.4011181555688381195068359375</LongitudeDegrees>
            </Position>
            <AltitudeMeters>363.600006103515625</AltitudeMeters>
            <DistanceMeters>727.72985973137</DistanceMeters>
          </Trackpoint>
          <Trackpoint>
            <Time>2021-06-20T05:50:41.000Z</Time>
            <Position>
              <LatitudeDegrees>38.86000606231391429901123046875</LatitudeDegrees>
              <LongitudeDegrees>-0.4011449776589870452880859375</LongitudeDegrees>
            </Position>
            <AltitudeMeters>363.20001220703125</AltitudeMeters>
            <DistanceMeters>732.3413486477</DistanceMeters>
          </Trackpoint>
          <Trackpoint>
            <Time>2021-06-20T05:50:42.000Z</Time>
            <Position>
              <LatitudeDegrees>38.85998711921274662017822265625</LatitudeDegrees>
              <LongitudeDegrees>-0.4011573828756809234619140625</LongitudeDegrees>
            </Position>
            <AltitudeMeters>363.20001220703125</AltitudeMeters>
            <DistanceMeters>734.70749475377</DistanceMeters>
          </Trackpoint>
          <Trackpoint>
            <Time>2021-06-20T05:50:47.000Z</Time>
            <Position>
              <LatitudeDegrees>38.85988117195665836334228515625</LatitudeDegrees>
              <LongitudeDegrees>-0.4012147150933742523193359375</LongitudeDegrees>
            </Position>
            <AltitudeMeters>363.399993896484375</AltitudeMeters>
            <DistanceMeters>747.50332790686</DistanceMeters>
          </Trackpoint>
          <Trackpoint>
            <Time>2021-06-20T05:50:48.000Z</Time>
            <Position>
              <LatitudeDegrees>38.85985652916133403778076171875</LatitudeDegrees>
              <LongitudeDegrees>-0.40122938342392444610595703125</LongitudeDegrees>
            </Position>
            <AltitudeMeters>363.399993896484375</AltitudeMeters>
            <DistanceMeters>750.52481881118</DistanceMeters>
          </Trackpoint>
          <Trackpoint>
            <Time>2021-06-20T05:50:51.000Z</Time>
            <Position>
              <LatitudeDegrees>38.85979047976434230804443359375</LatitudeDegrees>
              <LongitudeDegrees>-0.4012683592736721038818359375</LongitudeDegrees>
            </Position>
            <AltitudeMeters>362.79998779296875</AltitudeMeters>
            <DistanceMeters>758.61549394631</DistanceMeters>
          </Trackpoint>
          <Trackpoint>
            <Time>2021-06-20T05:50:52.000Z</Time>
            <Position>
              <LatitudeDegrees>38.85977111756801605224609375</LatitudeDegrees>
              <LongitudeDegrees>-0.401277579367160797119140625</LongitudeDegrees>
            </Position>
            <AltitudeMeters>362.79998779296875</AltitudeMeters>
            <DistanceMeters>760.91584713575</DistanceMeters>
          </Trackpoint>
          <Trackpoint>
            <Time>2021-06-20T05:50:54.000Z</Time>
            <Position>
              <LatitudeDegrees>38.8597350753843784332275390625</LatitudeDegrees>
              <LongitudeDegrees>-0.4012884758412837982177734375</LongitudeDegrees>
            </Position>
            <AltitudeMeters>362</AltitudeMeters>
            <DistanceMeters>765.03829833225</DistanceMeters>
          </Trackpoint>
          <Trackpoint>
            <Time>2021-06-20T05:50:56.000Z</Time>
            <Position>
              <LatitudeDegrees>38.85969995521008968353271484375</LatitudeDegrees>
              <LongitudeDegrees>-0.40130398236215114593505859375</LongitudeDegrees>
            </Position>
            <AltitudeMeters>361.600006103515625</AltitudeMeters>
            <DistanceMeters>769.17168733305</DistanceMeters>
          </Trackpoint>
          <Trackpoint>
            <Time>2021-06-20T05:50:57.000Z</Time>
            <Position>
              <LatitudeDegrees>38.8596821017563343048095703125</LatitudeDegrees>
              <LongitudeDegrees>-0.40131538175046443939208984375</LongitudeDegrees>
            </Position>
            <AltitudeMeters>361.600006103515625</AltitudeMeters>
            <DistanceMeters>771.39214263285</DistanceMeters>
          </Trackpoint>
          <Trackpoint>
            <Time>2021-06-20T05:51:00.000Z</Time>
            <Position>
              <LatitudeDegrees>38.8596256077289581298828125</LatitudeDegrees>
              <LongitudeDegrees>-0.40134354494512081146240234375</LongitudeDegrees>
            </Position>
            <AltitudeMeters>361.600006103515625</AltitudeMeters>
            <DistanceMeters>778.13703144769</DistanceMeters>
          </Trackpoint>
          <Trackpoint>
            <Time>2021-06-20T05:51:02.000Z</Time>
            <Position>
              <LatitudeDegrees>38.85957858525216579437255859375</LatitudeDegrees>
              <LongitudeDegrees>-0.40136600844562053680419921875</LongitudeDegrees>
            </Position>
            <AltitudeMeters>361.79998779296875</AltitudeMeters>
            <DistanceMeters>783.72101335678</DistanceMeters>
          </Trackpoint>
          <Trackpoint>
            <Time>2021-06-20T05:51:08.000Z</Time>
            <Position>
              <LatitudeDegrees>38.85946266353130340576171875</LatitudeDegrees>
              <LongitudeDegrees>-0.4014323092997074127197265625</LongitudeDegrees>
            </Position>
            <AltitudeMeters>361.600006103515625</AltitudeMeters>
            <DistanceMeters>797.84487326558</DistanceMeters>
          </Trackpoint>
          <Trackpoint>
            <Time>2021-06-20T05:51:12.000Z</Time>
            <Position>
              <LatitudeDegrees>38.85938747785985469818115234375</LatitudeDegrees>
              <LongitudeDegrees>-0.40147664956748485565185546875</LongitudeDegrees>
            </Position>
            <AltitudeMeters>361.20001220703125</AltitudeMeters>
            <DistanceMeters>807.05266277948</DistanceMeters>
          </Trackpoint>
          <Trackpoint>
            <Time>2021-06-20T05:51:14.000Z</Time>
            <Position>
              <LatitudeDegrees>38.859357722103595733642578125</LatitudeDegrees>
              <LongitudeDegrees>-0.40149374864995479583740234375</LongitudeDegrees>
            </Position>
            <AltitudeMeters>361</AltitudeMeters>
            <DistanceMeters>810.68114062222</DistanceMeters>
          </Trackpoint>
          <Trackpoint>
            <Time>2021-06-20T05:51:17.000Z</Time>
            <Position>
              <LatitudeDegrees>38.85930173099040985107421875</LatitudeDegrees>
              <LongitudeDegrees>-0.40152962319552898406982421875</LongitudeDegrees>
            </Position>
            <AltitudeMeters>361.79998779296875</AltitudeMeters>
            <DistanceMeters>817.64602186004</DistanceMeters>
          </Trackpoint>
          <Trackpoint>
            <Time>2021-06-20T05:51:18.000Z</Time>
            <Position>
              <LatitudeDegrees>38.85927985422313213348388671875</LatitudeDegrees>
              <LongitudeDegrees>-0.40153934620320796966552734375</LongitudeDegrees>
            </Position>
            <AltitudeMeters>362.20001220703125</AltitudeMeters>
            <DistanceMeters>820.22403199632</DistanceMeters>
          </Trackpoint>
          <Trackpoint>
            <Time>2021-06-20T05:51:19.000Z</Time>
            <Position>
              <LatitudeDegrees>38.85925990529358386993408203125</LatitudeDegrees>
              <LongitudeDegrees>-0.40154747664928436279296875</LongitudeDegrees>
            </Position>
            <AltitudeMeters>362.79998779296875</AltitudeMeters>
            <DistanceMeters>822.55557783959</DistanceMeters>
          </Trackpoint>
          <Trackpoint>
            <Time>2021-06-20T05:51:21.000Z</Time>
            <Position>
              <LatitudeDegrees>38.85922352783381938934326171875</LatitudeDegrees>
              <LongitudeDegrees>-0.401560552418231964111328125</LongitudeDegrees>
            </Position>
            <AltitudeMeters>363.20001220703125</AltitudeMeters>
            <DistanceMeters>826.76044284066</DistanceMeters>
          </Trackpoint>
          <Trackpoint>
            <Time>2021-06-20T05:51:23.000Z</Time>
            <Position>
              <LatitudeDegrees>38.85918178595602512359619140625</LatitudeDegrees>
              <LongitudeDegrees>-0.40156432427465915679931640625</LongitudeDegrees>
            </Position>
            <AltitudeMeters>363</AltitudeMeters>
            <DistanceMeters>831.4177214042</DistanceMeters>
          </Trackpoint>
          <Trackpoint>
            <Time>2021-06-20T05:51:24.000Z</Time>
            <Position>
              <LatitudeDegrees>38.85916183702647686004638671875</LatitudeDegrees>
              <LongitudeDegrees>-0.401565246284008026123046875</LongitudeDegrees>
            </Position>
            <AltitudeMeters>363</AltitudeMeters>
            <DistanceMeters>833.64020915779</DistanceMeters>
          </Trackpoint>
          <Trackpoint>
            <Time>2021-06-20T05:51:27.000Z</Time>
            <Position>
              <LatitudeDegrees>38.859106265008449554443359375</LatitudeDegrees>
              <LongitudeDegrees>-0.40158024989068508148193359375</LongitudeDegrees>
            </Position>
            <AltitudeMeters>363.399993896484375</AltitudeMeters>
            <DistanceMeters>839.96073589122</DistanceMeters>
          </Trackpoint>
          <Trackpoint>
            <Time>2021-06-20T05:51:29.000Z</Time>
            <Position>
              <LatitudeDegrees>38.8590730726718902587890625</LatitudeDegrees>
              <LongitudeDegrees>-0.4015996120870113372802734375</LongitudeDegrees>
            </Position>
            <AltitudeMeters>364</AltitudeMeters>
            <DistanceMeters>844.01916655267</DistanceMeters>
          </Trackpoint>
          <Trackpoint>
            <Time>2021-06-20T05:51:31.000Z</Time>
            <Position>
              <LatitudeDegrees>38.85903946124017238616943359375</LatitudeDegrees>
              <LongitudeDegrees>-0.40161930955946445465087890625</LongitudeDegrees>
            </Position>
            <AltitudeMeters>365</AltitudeMeters>
            <DistanceMeters>848.13065084707</DistanceMeters>
          </Trackpoint>
          <Trackpoint>
            <Time>2021-06-20T05:51:34.000Z</Time>
            <Position>
              <LatitudeDegrees>38.85898950509727001190185546875</LatitudeDegrees>
              <LongitudeDegrees>-0.401643030345439910888671875</LongitudeDegrees>
            </Position>
            <AltitudeMeters>366</AltitudeMeters>
            <DistanceMeters>854.05897755195</DistanceMeters>
          </Trackpoint>
          <Trackpoint>
            <Time>2021-06-20T05:51:35.000Z</Time>
            <Position>
              <LatitudeDegrees>38.858974166214466094970703125</LatitudeDegrees>
              <LongitudeDegrees>-0.4016499035060405731201171875</LongitudeDegrees>
            </Position>
            <AltitudeMeters>366.20001220703125</AltitudeMeters>
            <DistanceMeters>855.8669840986</DistanceMeters>
          </Trackpoint>
          <Trackpoint>
            <Time>2021-06-20T05:51:37.000Z</Time>
            <Position>
              <LatitudeDegrees>38.85894491337239742279052734375</LatitudeDegrees>
              <LongitudeDegrees>-0.4016648232936859130859375</LongitudeDegrees>
            </Position>
            <AltitudeMeters>366.600006103515625</AltitudeMeters>
            <DistanceMeters>859.37010754594</DistanceMeters>
          </Trackpoint>
          <Trackpoint>
            <Time>2021-06-20T05:51:38.000Z</Time>
            <Position>
              <LatitudeDegrees>38.8589284010231494903564453125</LatitudeDegrees>
              <LongitudeDegrees>-0.40167152881622314453125</LongitudeDegrees>
            </Position>
            <AltitudeMeters>366.600006103515625</AltitudeMeters>
            <DistanceMeters>861.2989391858</DistanceMeters>
          </Trackpoint>
          <Trackpoint>
            <Time>2021-06-20T05:51:41.000Z</Time>
            <Position>
              <LatitudeDegrees>38.8588801212608814239501953125</LatitudeDegrees>
              <LongitudeDegrees>-0.40169709362089633941650390625</LongitudeDegrees>
            </Position>
            <AltitudeMeters>367.20001220703125</AltitudeMeters>
            <DistanceMeters>867.1119028063</DistanceMeters>
          </Trackpoint>
          <Trackpoint>
            <Time>2021-06-20T05:51:42.000Z</Time>
            <Position>
              <LatitudeDegrees>38.8588636927306652069091796875</LatitudeDegrees>
              <LongitudeDegrees>-0.40170572698116302490234375</LongitudeDegrees>
            </Position>
            <AltitudeMeters>367.600006103515625</AltitudeMeters>
            <DistanceMeters>869.08699597468</DistanceMeters>
          </Trackpoint>
          <Trackpoint>
            <Time>2021-06-20T05:51:43.000Z</Time>
            <Position>
              <LatitudeDegrees>38.85884617455303668975830078125</LatitudeDegrees>
              <LongitudeDegrees>-0.40171301923692226409912109375</LongitudeDegrees>
            </Position>
            <AltitudeMeters>366.399993896484375</AltitudeMeters>
            <DistanceMeters>871.1361386116</DistanceMeters>
          </Trackpoint>
          <Trackpoint>
            <Time>2021-06-20T05:51:44.000Z</Time>
            <Position>
              <LatitudeDegrees>38.8588289916515350341796875</LatitudeDegrees>
              <LongitudeDegrees>-0.4017176292836666107177734375</LongitudeDegrees>
            </Position>
            <AltitudeMeters>367.20001220703125</AltitudeMeters>
            <DistanceMeters>873.0905496062</DistanceMeters>
          </Trackpoint>
          <Trackpoint>
            <Time>2021-06-20T05:51:48.000Z</Time>
            <Position>
              <LatitudeDegrees>38.85876595973968505859375</LatitudeDegrees>
              <LongitudeDegrees>-0.40172894485294818878173828125</LongitudeDegrees>
            </Position>
            <AltitudeMeters>367.20001220703125</AltitudeMeters>
            <DistanceMeters>880.17498076724</DistanceMeters>
          </Trackpoint>
          <Trackpoint>
            <Time>2021-06-20T05:51:49.000Z</Time>
            <Position>
              <LatitudeDegrees>38.85874475352466106414794921875</LatitudeDegrees>
              <LongitudeDegrees>-0.40173657238483428955078125</LongitudeDegrees>
            </Position>
            <AltitudeMeters>366.399993896484375</AltitudeMeters>
            <DistanceMeters>882.62733288544</DistanceMeters>
          </Trackpoint>
          <Trackpoint>
            <Time>2021-06-20T05:51:50.000Z</Time>
            <Position>
              <LatitudeDegrees>38.8587222062051296234130859375</LatitudeDegrees>
              <LongitudeDegrees>-0.40174730122089385986328125</LongitudeDegrees>
            </Position>
            <AltitudeMeters>366.399993896484375</AltitudeMeters>
            <DistanceMeters>885.30499617579</DistanceMeters>
          </Trackpoint>
          <Trackpoint>
            <Time>2021-06-20T05:51:53.000Z</Time>
            <Position>
              <LatitudeDegrees>38.85865925811231136322021484375</LatitudeDegrees>
              <LongitudeDegrees>-0.4017689265310764312744140625</LongitudeDegrees>
            </Position>
            <AltitudeMeters>367.20001220703125</AltitudeMeters>
            <DistanceMeters>892.55697281735</DistanceMeters>
          </Trackpoint>
          <Trackpoint>
            <Time>2021-06-20T05:51:57.000Z</Time>
            <Position>
              <LatitudeDegrees>38.8585964776575565338134765625</LatitudeDegrees>
              <LongitudeDegrees>-0.4018001072108745574951171875</LongitudeDegrees>
            </Position>
            <AltitudeMeters>367.600006103515625</AltitudeMeters>
            <DistanceMeters>900.04903229226</DistanceMeters>
          </Trackpoint>
          <Trackpoint>
            <Time>2021-06-20T05:51:58.000Z</Time>
            <Position>
              <LatitudeDegrees>38.8585844077169895172119140625</LatitudeDegrees>
              <LongitudeDegrees>-0.40179918520152568817138671875</LongitudeDegrees>
            </Position>
            <AltitudeMeters>368</AltitudeMeters>
            <DistanceMeters>901.39961566313</DistanceMeters>
          </Trackpoint>
          <Trackpoint>
            <Time>2021-06-20T05:51:59.000Z</Time>
            <Position>
              <LatitudeDegrees>38.8585733436048030853271484375</LatitudeDegrees>
              <LongitudeDegrees>-0.4017997719347476959228515625</LongitudeDegrees>
            </Position>
            <AltitudeMeters>368.20001220703125</AltitudeMeters>
            <DistanceMeters>902.63130265364</DistanceMeters>
          </Trackpoint>
          <Trackpoint>
            <Time>2021-06-20T05:52:00.000Z</Time>
            <Position>
              <LatitudeDegrees>38.85856051929295063018798828125</LatitudeDegrees>
              <LongitudeDegrees>-0.4018004424870014190673828125</LongitudeDegrees>
            </Position>
            <AltitudeMeters>366.399993896484375</AltitudeMeters>
            <DistanceMeters>904.05986741462</DistanceMeters>
          </Trackpoint>
          <Trackpoint>
            <Time>2021-06-20T05:52:01.000Z</Time>
            <Position>
              <LatitudeDegrees>38.85854803025722503662109375</LatitudeDegrees>
              <LongitudeDegrees>-0.4018042981624603271484375</LongitudeDegrees>
            </Position>
            <AltitudeMeters>366.399993896484375</AltitudeMeters>
            <DistanceMeters>905.48843217561</DistanceMeters>
          </Trackpoint>
          <Trackpoint>
            <Time>2021-06-20T05:52:03.000Z</Time>
            <Position>
              <LatitudeDegrees>38.85851592756807804107666015625</LatitudeDegrees>
              <LongitudeDegrees>-0.4018056392669677734375</LongitudeDegrees>
            </Position>
            <AltitudeMeters>367.20001220703125</AltitudeMeters>
            <DistanceMeters>909.0617398998</DistanceMeters>
          </Trackpoint>
          <Trackpoint>
            <Time>2021-06-20T05:52:05.000Z</Time>
            <Position>
              <LatitudeDegrees>38.858486674726009368896484375</LatitudeDegrees>
              <LongitudeDegrees>-0.40179583244025707244873046875</LongitudeDegrees>
            </Position>
            <AltitudeMeters>367.20001220703125</AltitudeMeters>
            <DistanceMeters>912.42681283522</DistanceMeters>
          </Trackpoint>
          <Trackpoint>
            <Time>2021-06-20T05:52:07.000Z</Time>
            <Position>
              <LatitudeDegrees>38.8584616966545581817626953125</LatitudeDegrees>
              <LongitudeDegrees>-0.40179566480219364166259765625</LongitudeDegrees>
            </Position>
            <AltitudeMeters>366.399993896484375</AltitudeMeters>
            <DistanceMeters>915.20705480959</DistanceMeters>
          </Trackpoint>
          <Trackpoint>
            <Time>2021-06-20T05:52:09.000Z</Time>
            <Position>
              <LatitudeDegrees>38.85842657648026943206787109375</LatitudeDegrees>
              <LongitudeDegrees>-0.40180119685828685760498046875</LongitudeDegrees>
            </Position>
            <AltitudeMeters>366.399993896484375</AltitudeMeters>
            <DistanceMeters>919.14579462465</DistanceMeters>
          </Trackpoint>
          <Trackpoint>
            <Time>2021-06-20T05:52:13.000Z</Time>
            <Position>
              <LatitudeDegrees>38.85835231281816959381103515625</LatitudeDegrees>
              <LongitudeDegrees>-0.4018257558345794677734375</LongitudeDegrees>
            </Position>
            <AltitudeMeters>366.20001220703125</AltitudeMeters>
            <DistanceMeters>927.68128856172</DistanceMeters>
          </Trackpoint>
          <Trackpoint>
            <Time>2021-06-20T05:52:19.000Z</Time>
            <Position>
              <LatitudeDegrees>38.85823152959346771240234375</LatitudeDegrees>
              <LongitudeDegrees>-0.40189004503190517425537109375</LongitudeDegrees>
            </Position>
            <AltitudeMeters>366.20001220703125</AltitudeMeters>
            <DistanceMeters>942.2340334176</DistanceMeters>
          </Trackpoint>
          <Trackpoint>
            <Time>2021-06-20T05:52:20.000Z</Time>
            <Position>
              <LatitudeDegrees>38.85822071693837642669677734375</LatitudeDegrees>
              <LongitudeDegrees>-0.4019047133624553680419921875</LongitudeDegrees>
            </Position>
            <AltitudeMeters>366.20001220703125</AltitudeMeters>
            <DistanceMeters>943.98623945312</DistanceMeters>
          </Trackpoint>
          <Trackpoint>
            <Time>2021-06-20T05:52:22.000Z</Time>
            <Position>
              <LatitudeDegrees>38.85820529423654079437255859375</LatitudeDegrees>
              <LongitudeDegrees>-0.40193966589868068695068359375</LongitudeDegrees>
            </Position>
            <AltitudeMeters>366</AltitudeMeters>
            <DistanceMeters>947.4673833151</DistanceMeters>
          </Trackpoint>
          <Trackpoint>
            <Time>2021-06-20T05:52:24.000Z</Time>
            <Position>
              <LatitudeDegrees>38.85818484239280223846435546875</LatitudeDegrees>
              <LongitudeDegrees>-0.40197394788265228271484375</LongitudeDegrees>
            </Position>
            <AltitudeMeters>366</AltitudeMeters>
            <DistanceMeters>951.21100170391</DistanceMeters>
          </Trackpoint>
          <Trackpoint>
            <Time>2021-06-20T05:52:25.000Z</Time>
            <Position>
              <LatitudeDegrees>38.8581710122525691986083984375</LatitudeDegrees>
              <LongitudeDegrees>-0.40198526345193386077880859375</LongitudeDegrees>
            </Position>
            <AltitudeMeters>366</AltitudeMeters>
            <DistanceMeters>953.03887705093</DistanceMeters>
          </Trackpoint>
          <Trackpoint>
            <Time>2021-06-20T05:52:30.000Z</Time>
            <Position>
              <LatitudeDegrees>38.8581021130084991455078125</LatitudeDegrees>
              <LongitudeDegrees>-0.40206514298915863037109375</LongitudeDegrees>
            </Position>
            <AltitudeMeters>365.79998779296875</AltitudeMeters>
            <DistanceMeters>963.37060167193</DistanceMeters>
          </Trackpoint>
          <Trackpoint>
            <Time>2021-06-20T05:52:33.000Z</Time>
            <Position>
              <LatitudeDegrees>38.858040757477283477783203125</LatitudeDegrees>
              <LongitudeDegrees>-0.40211501531302928924560546875</LongitudeDegrees>
            </Position>
            <AltitudeMeters>366.399993896484375</AltitudeMeters>
            <DistanceMeters>971.45234300156</DistanceMeters>
          </Trackpoint>
          <Trackpoint>
            <Time>2021-06-20T05:52:36.000Z</Time>
            <Position>
              <LatitudeDegrees>38.8579755462706089019775390625</LatitudeDegrees>
              <LongitudeDegrees>-0.4021702520549297332763671875</LongitudeDegrees>
            </Position>
            <AltitudeMeters>365.79998779296875</AltitudeMeters>
            <DistanceMeters>980.14715754753</DistanceMeters>
          </Trackpoint>
          <Trackpoint>
            <Time>2021-06-20T05:52:43.000Z</Time>
            <Position>
              <LatitudeDegrees>38.85788963176310062408447265625</LatitudeDegrees>
              <LongitudeDegrees>-0.4022842459380626678466796875</LongitudeDegrees>
            </Position>
            <AltitudeMeters>367.20001220703125</AltitudeMeters>
            <DistanceMeters>993.89683683218</DistanceMeters>
          </Trackpoint>
          <Trackpoint>
            <Time>2021-06-20T05:52:44.000Z</Time>
            <Position>
              <LatitudeDegrees>38.85786809027194976806640625</LatitudeDegrees>
              <LongitudeDegrees>-0.402290783822536468505859375</LongitudeDegrees>
            </Position>
            <AltitudeMeters>367.600006103515625</AltitudeMeters>
            <DistanceMeters>996.36021081319</DistanceMeters>
          </Trackpoint>
          <Trackpoint>
            <Time>2021-06-20T05:52:48.000Z</Time>
            <Position>
              <LatitudeDegrees>38.8578151166439056396484375</LatitudeDegrees>
              <LongitudeDegrees>-0.40227661840617656707763671875</LongitudeDegrees>
            </Position>
            <AltitudeMeters>368.600006103515625</AltitudeMeters>
            <DistanceMeters>1002.3822359708</DistanceMeters>
          </Trackpoint>
          <Trackpoint>
            <Time>2021-06-20T05:52:49.000Z</Time>
            <Position>
              <LatitudeDegrees>38.8578223250806331634521484375</LatitudeDegrees>
              <LongitudeDegrees>-0.40225968696177005767822265625</LongitudeDegrees>
            </Position>
            <AltitudeMeters>369.399993896484375</AltitudeMeters>
            <DistanceMeters>1004.0526531705</DistanceMeters>
          </Trackpoint>
          <Trackpoint>
            <Time>2021-06-20T05:52:50.000Z</Time>
            <Position>
              <LatitudeDegrees>38.85782039724290370941162109375</LatitudeDegrees>
              <LongitudeDegrees>-0.40225164033472537994384765625</LongitudeDegrees>
            </Position>
            <AltitudeMeters>370</AltitudeMeters>
            <DistanceMeters>1004.7825672136</DistanceMeters>
          </Trackpoint>
          <Trackpoint>
            <Time>2021-06-20T05:52:52.000Z</Time>
            <Position>
              <LatitudeDegrees>38.857840597629547119140625</LatitudeDegrees>
              <LongitudeDegrees>-0.40219782851636409759521484375</LongitudeDegrees>
            </Position>
            <AltitudeMeters>370.399993896484375</AltitudeMeters>
            <DistanceMeters>1009.9595612145</DistanceMeters>
          </Trackpoint>
          <Trackpoint>
            <Time>2021-06-20T05:52:58.000Z</Time>
            <Position>
              <LatitudeDegrees>38.8579009473323822021484375</LatitudeDegrees>
              <LongitudeDegrees>-0.40205365978181362152099609375</LongitudeDegrees>
            </Position>
            <AltitudeMeters>370.79998779296875</AltitudeMeters>
            <DistanceMeters>1024.1456206966</DistanceMeters>
          </Trackpoint>
          <Trackpoint>
            <Time>2021-06-20T05:52:59.000Z</Time>
            <Position>
              <LatitudeDegrees>38.8578970916569232940673828125</LatitudeDegrees>
              <LongitudeDegrees>-0.4020294360816478729248046875</LongitudeDegrees>
            </Position>
            <AltitudeMeters>371</AltitudeMeters>
            <DistanceMeters>1026.2874140651</DistanceMeters>
          </Trackpoint>
          <Trackpoint>
            <Time>2021-06-20T05:53:02.000Z</Time>
            <Position>
              <LatitudeDegrees>38.8578910566866397857666015625</LatitudeDegrees>
              <LongitudeDegrees>-0.40197118185460567474365234375</LongitudeDegrees>
            </Position>
            <AltitudeMeters>372</AltitudeMeters>
            <DistanceMeters>1031.3817677729</DistanceMeters>
          </Trackpoint>
          <Trackpoint>
            <Time>2021-06-20T05:53:05.000Z</Time>
            <Position>
              <LatitudeDegrees>38.8578585349023342132568359375</LatitudeDegrees>
              <LongitudeDegrees>-0.401891805231571197509765625</LongitudeDegrees>
            </Position>
            <AltitudeMeters>372.399993896484375</AltitudeMeters>
            <DistanceMeters>1039.1559752335</DistanceMeters>
          </Trackpoint>
          <Trackpoint>
            <Time>2021-06-20T05:53:08.000Z</Time>
            <Position>
              <LatitudeDegrees>38.8578126020729541778564453125</LatitudeDegrees>
              <LongitudeDegrees>-0.40180706419050693511962890625</LongitudeDegrees>
            </Position>
            <AltitudeMeters>372.79998779296875</AltitudeMeters>
            <DistanceMeters>1048.1041419635</DistanceMeters>
          </Trackpoint>
          <Trackpoint>
            <Time>2021-06-20T05:53:10.000Z</Time>
            <Position>
              <LatitudeDegrees>38.857800699770450592041015625</LatitudeDegrees>
              <LongitudeDegrees>-0.401774458587169647216796875</LongitudeDegrees>
            </Position>
            <AltitudeMeters>373.600006103515625</AltitudeMeters>
            <DistanceMeters>1051.2241455543</DistanceMeters>
          </Trackpoint>
          <Trackpoint>
            <Time>2021-06-20T05:53:13.000Z</Time>
            <Position>
              <LatitudeDegrees>38.85777060873806476593017578125</LatitudeDegrees>
              <LongitudeDegrees>-0.4017199762165546417236328125</LongitudeDegrees>
            </Position>
            <AltitudeMeters>374</AltitudeMeters>
            <DistanceMeters>1057.0129808157</DistanceMeters>
          </Trackpoint>
          <Trackpoint>
            <Time>2021-06-20T05:53:14.000Z</Time>
            <Position>
              <LatitudeDegrees>38.857759125530719757080078125</LatitudeDegrees>
              <LongitudeDegrees>-0.40170832537114620208740234375</LongitudeDegrees>
            </Position>
            <AltitudeMeters>372.399993896484375</AltitudeMeters>
            <DistanceMeters>1058.6423495507</DistanceMeters>
          </Trackpoint>
          <Trackpoint>
            <Time>2021-06-20T05:53:15.000Z</Time>
            <Position>
              <LatitudeDegrees>38.857748396694660186767578125</LatitudeDegrees>
              <LongitudeDegrees>-0.40169307030737400054931640625</LongitudeDegrees>
            </Position>
            <AltitudeMeters>373.79998779296875</AltitudeMeters>
            <DistanceMeters>1060.4252087454</DistanceMeters>
          </Trackpoint>
          <Trackpoint>
            <Time>2021-06-20T05:53:17.000Z</Time>
            <Position>
              <LatitudeDegrees>38.85773205198347568511962890625</LatitudeDegrees>
              <LongitudeDegrees>-0.401660464704036712646484375</LongitudeDegrees>
            </Position>
            <AltitudeMeters>372.600006103515625</AltitudeMeters>
            <DistanceMeters>1063.7862540637</DistanceMeters>
          </Trackpoint>
          <Trackpoint>
            <Time>2021-06-20T05:53:20.000Z</Time>
            <Position>
              <LatitudeDegrees>38.857703469693660736083984375</LatitudeDegrees>
              <LongitudeDegrees>-0.401606149971485137939453125</LongitudeDegrees>
            </Position>
            <AltitudeMeters>373.79998779296875</AltitudeMeters>
            <DistanceMeters>1069.4688198014</DistanceMeters>
          </Trackpoint>
          <Trackpoint>
            <Time>2021-06-20T05:53:21.000Z</Time>
            <Position>
              <LatitudeDegrees>38.85769106447696685791015625</LatitudeDegrees>
              <LongitudeDegrees>-0.4015908949077129364013671875</LongitudeDegrees>
            </Position>
            <AltitudeMeters>373.79998779296875</AltitudeMeters>
            <DistanceMeters>1071.3835550406</DistanceMeters>
          </Trackpoint>
          <Trackpoint>
            <Time>2021-06-20T05:53:23.000Z</Time>
            <Position>
              <LatitudeDegrees>38.857666589319705963134765625</LatitudeDegrees>
              <LongitudeDegrees>-0.40156784467399120330810546875</LongitudeDegrees>
            </Position>
            <AltitudeMeters>373.79998779296875</AltitudeMeters>
            <DistanceMeters>1074.7620186892</DistanceMeters>
          </Trackpoint>
          <Trackpoint>
            <Time>2021-06-20T05:53:25.000Z</Time>
            <Position>
              <LatitudeDegrees>38.85764169506728649139404296875</LatitudeDegrees>
              <LongitudeDegrees>-0.4015560261905193328857421875</LongitudeDegrees>
            </Position>
            <AltitudeMeters>373.79998779296875</AltitudeMeters>
            <DistanceMeters>1077.7155003372</DistanceMeters>
          </Trackpoint>
          <Trackpoint>
            <Time>2021-06-20T05:53:27.000Z</Time>
            <Position>
              <LatitudeDegrees>38.8576117716729640960693359375</LatitudeDegrees>
              <LongitudeDegrees>-0.4015328921377658843994140625</LongitudeDegrees>
            </Position>
            <AltitudeMeters>374</AltitudeMeters>
            <DistanceMeters>1081.6034751271</DistanceMeters>
          </Trackpoint>
          <Trackpoint>
            <Time>2021-06-20T05:53:34.000Z</Time>
            <Position>
              <LatitudeDegrees>38.8575007952749729156494140625</LatitudeDegrees>
              <LongitudeDegrees>-0.4014856182038784027099609375</LongitudeDegrees>
            </Position>
            <AltitudeMeters>373.79998779296875</AltitudeMeters>
            <DistanceMeters>1094.6172787105</DistanceMeters>
          </Trackpoint>
          <Trackpoint>
            <Time>2021-06-20T05:53:37.000Z</Time>
            <Position>
              <LatitudeDegrees>38.85746332816779613494873046875</LatitudeDegrees>
              <LongitudeDegrees>-0.40147447027266025543212890625</LongitudeDegrees>
            </Position>
            <AltitudeMeters>373.79998779296875</AltitudeMeters>
            <DistanceMeters>1098.8987568643</DistanceMeters>
          </Trackpoint>
          <Trackpoint>
            <Time>2021-06-20T05:53:40.000Z</Time>
            <Position>
              <LatitudeDegrees>38.85741789825260639190673828125</LatitudeDegrees>
              <LongitudeDegrees>-0.401447229087352752685546875</LongitudeDegrees>
            </Position>
            <AltitudeMeters>374</AltitudeMeters>
            <DistanceMeters>1104.4795035576</DistanceMeters>
          </Trackpoint>
          <Trackpoint>
            <Time>2021-06-20T05:53:45.000Z</Time>
            <Position>
              <LatitudeDegrees>38.85735888965427875518798828125</LatitudeDegrees>
              <LongitudeDegrees>-0.40140808559954166412353515625</LongitudeDegrees>
            </Position>
            <AltitudeMeters>373.79998779296875</AltitudeMeters>
            <DistanceMeters>1111.871458141</DistanceMeters>
          </Trackpoint>
          <Trackpoint>
            <Time>2021-06-20T05:53:46.000Z</Time>
            <Position>
              <LatitudeDegrees>38.85734505951404571533203125</LatitudeDegrees>
              <LongitudeDegrees>-0.40140104480087757110595703125</LongitudeDegrees>
            </Position>
            <AltitudeMeters>373.79998779296875</AltitudeMeters>
            <DistanceMeters>1113.5255781978</DistanceMeters>
          </Trackpoint>
          <Trackpoint>
            <Time>2021-06-20T05:53:50.000Z</Time>
            <Position>
              <LatitudeDegrees>38.85728915221989154815673828125</LatitudeDegrees>
              <LongitudeDegrees>-0.40138076059520244598388671875</LongitudeDegrees>
            </Position>
            <AltitudeMeters>373.79998779296875</AltitudeMeters>
            <DistanceMeters>1119.9915857709</DistanceMeters>
          </Trackpoint>
          <Trackpoint>
            <Time>2021-06-20T05:53:52.000Z</Time>
            <Position>
              <LatitudeDegrees>38.85726333595812320709228515625</LatitudeDegrees>
              <LongitudeDegrees>-0.40136885829269886016845703125</LongitudeDegrees>
            </Position>
            <AltitudeMeters>373.79998779296875</AltitudeMeters>
            <DistanceMeters>1123.0442958604</DistanceMeters>
          </Trackpoint>
          <Trackpoint>
            <Time>2021-06-20T05:53:54.000Z</Time>
            <Position>
              <LatitudeDegrees>38.85723232291638851165771484375</LatitudeDegrees>
              <LongitudeDegrees>-0.40137137286365032196044921875</LongitudeDegrees>
            </Position>
            <AltitudeMeters>373.79998779296875</AltitudeMeters>
            <DistanceMeters>1126.5033204755</DistanceMeters>
          </Trackpoint>
          <Trackpoint>
            <Time>2021-06-20T05:53:56.000Z</Time>
            <Position>
              <LatitudeDegrees>38.857202231884002685546875</LatitudeDegrees>
              <LongitudeDegrees>-0.401367433369159698486328125</LongitudeDegrees>
            </Position>
            <AltitudeMeters>373.79998779296875</AltitudeMeters>
            <DistanceMeters>1129.8710758131</DistanceMeters>
          </Trackpoint>
          <Trackpoint>
            <Time>2021-06-20T05:53:59.000Z</Time>
            <Position>
              <LatitudeDegrees>38.85715462267398834228515625</LatitudeDegrees>
              <LongitudeDegrees>-0.40135175921022891998291015625</LongitudeDegrees>
            </Position>
            <AltitudeMeters>374</AltitudeMeters>
            <DistanceMeters>1135.3415121152</DistanceMeters>
          </Trackpoint>
          <Trackpoint>
            <Time>2021-06-20T05:54:01.000Z</Time>
            <Position>
              <LatitudeDegrees>38.8571229390799999237060546875</LatitudeDegrees>
              <LongitudeDegrees>-0.40135762654244899749755859375</LongitudeDegrees>
            </Position>
            <AltitudeMeters>374.20001220703125</AltitudeMeters>
            <DistanceMeters>1138.9046971342</DistanceMeters>
          </Trackpoint>
          <Trackpoint>
            <Time>2021-06-20T05:54:03.000Z</Time>
            <Position>
              <LatitudeDegrees>38.8570998050272464752197265625</LatitudeDegrees>
              <LongitudeDegrees>-0.40134840644896030426025390625</LongitudeDegrees>
            </Position>
            <AltitudeMeters>373.79998779296875</AltitudeMeters>
            <DistanceMeters>1141.6008446705</DistanceMeters>
          </Trackpoint>
          <Trackpoint>
            <Time>2021-06-20T05:54:07.000Z</Time>
            <Position>
              <LatitudeDegrees>38.8570599071681499481201171875</LatitudeDegrees>
              <LongitudeDegrees>-0.40132887661457061767578125</LongitudeDegrees>
            </Position>
            <AltitudeMeters>373.79998779296875</AltitudeMeters>
            <DistanceMeters>1146.3540805434</DistanceMeters>
          </Trackpoint>
          <Trackpoint>
            <Time>2021-06-20T05:54:09.000Z</Time>
            <Position>
              <LatitudeDegrees>38.85704020969569683074951171875</LatitudeDegrees>
              <LongitudeDegrees>-0.40131722576916217803955078125</LongitudeDegrees>
            </Position>
            <AltitudeMeters>373.79998779296875</AltitudeMeters>
            <DistanceMeters>1148.7693298851</DistanceMeters>
          </Trackpoint>
          <Trackpoint>
            <Time>2021-06-20T05:54:10.000Z</Time>
            <Position>
              <LatitudeDegrees>38.85703367181122303009033203125</LatitudeDegrees>
              <LongitudeDegrees>-0.4013072513043880462646484375</LongitudeDegrees>
            </Position>
            <AltitudeMeters>373.79998779296875</AltitudeMeters>
            <DistanceMeters>1149.9017038759</DistanceMeters>
          </Trackpoint>
          <Trackpoint>
            <Time>2021-06-20T05:54:12.000Z</Time>
            <Position>
              <LatitudeDegrees>38.8570159859955310821533203125</LatitudeDegrees>
              <LongitudeDegrees>-0.40128470398485660552978515625</LongitudeDegrees>
            </Position>
            <AltitudeMeters>373.79998779296875</AltitudeMeters>
            <DistanceMeters>1152.6770696548</DistanceMeters>
          </Trackpoint>
          <Trackpoint>
            <Time>2021-06-20T05:54:14.000Z</Time>
            <Position>
              <LatitudeDegrees>38.85698706842958927154541015625</LatitudeDegrees>
              <LongitudeDegrees>-0.40126861073076725006103515625</LongitudeDegrees>
            </Position>
            <AltitudeMeters>373.79998779296875</AltitudeMeters>
            <DistanceMeters>1156.1840575528</DistanceMeters>
          </Trackpoint>
          <Trackpoint>
            <Time>2021-06-20T05:54:21.000Z</Time>
            <Position>
              <LatitudeDegrees>38.85689134709537029266357421875</LatitudeDegrees>
              <LongitudeDegrees>-0.40122083388268947601318359375</LongitudeDegrees>
            </Position>
            <AltitudeMeters>373.79998779296875</AltitudeMeters>
            <DistanceMeters>1167.614945801</DistanceMeters>
          </Trackpoint>
          <Trackpoint>
            <Time>2021-06-20T05:54:26.000Z</Time>
            <Position>
              <LatitudeDegrees>38.85685748420655727386474609375</LatitudeDegrees>
              <LongitudeDegrees>-0.4011382721364498138427734375</LongitudeDegrees>
            </Position>
            <AltitudeMeters>373.79998779296875</AltitudeMeters>
            <DistanceMeters>1175.702830182</DistanceMeters>
          </Trackpoint>
          <Trackpoint>
            <Time>2021-06-20T05:54:27.000Z</Time>
            <Position>
              <LatitudeDegrees>38.85685949586331844329833984375</LatitudeDegrees>
              <LongitudeDegrees>-0.40111253969371318817138671875</LongitudeDegrees>
            </Position>
            <AltitudeMeters>373.79998779296875</AltitudeMeters>
            <DistanceMeters>1177.9455411708</DistanceMeters>
          </Trackpoint>
          <Trackpoint>
            <Time>2021-06-20T05:54:28.000Z</Time>
            <Position>
              <LatitudeDegrees>38.856858573853969573974609375</LatitudeDegrees>
              <LongitudeDegrees>-0.40108890272676944732666015625</LongitudeDegrees>
            </Position>
            <AltitudeMeters>372.600006103515625</AltitudeMeters>
            <DistanceMeters>1179.9968860036</DistanceMeters>
          </Trackpoint>
          <Trackpoint>
            <Time>2021-06-20T05:54:31.000Z</Time>
            <Position>
              <LatitudeDegrees>38.856878019869327545166015625</LatitudeDegrees>
              <LongitudeDegrees>-0.40101899765431880950927734375</LongitudeDegrees>
            </Position>
            <AltitudeMeters>372.600006103515625</AltitudeMeters>
            <DistanceMeters>1186.4306928408</DistanceMeters>
          </Trackpoint>
          <Trackpoint>
            <Time>2021-06-20T05:54:32.000Z</Time>
            <Position>
              <LatitudeDegrees>38.85688983835279941558837890625</LatitudeDegrees>
              <LongitudeDegrees>-0.40099494159221649169921875</LongitudeDegrees>
            </Position>
            <AltitudeMeters>372.600006103515625</AltitudeMeters>
            <DistanceMeters>1188.8940668218</DistanceMeters>
          </Trackpoint>
          <Trackpoint>
            <Time>2021-06-20T05:54:34.000Z</Time>
            <Position>
              <LatitudeDegrees>38.85692403651773929595947265625</LatitudeDegrees>
              <LongitudeDegrees>-0.40096334181725978851318359375</LongitudeDegrees>
            </Position>
            <AltitudeMeters>373.79998779296875</AltitudeMeters>
            <DistanceMeters>1193.5832283824</DistanceMeters>
          </Trackpoint>
          <Trackpoint>
            <Time>2021-06-20T05:54:38.000Z</Time>
            <Position>
              <LatitudeDegrees>38.856975920498371124267578125</LatitudeDegrees>
              <LongitudeDegrees>-0.4008962027728557586669921875</LongitudeDegrees>
            </Position>
            <AltitudeMeters>375</AltitudeMeters>
            <DistanceMeters>1201.7814512979</DistanceMeters>
          </Trackpoint>
          <Trackpoint>
            <Time>2021-06-20T05:54:40.000Z</Time>
            <Position>
              <LatitudeDegrees>38.8569972105324268341064453125</LatitudeDegrees>
              <LongitudeDegrees>-0.4008418880403041839599609375</LongitudeDegrees>
            </Position>
            <AltitudeMeters>375.20001220703125</AltitudeMeters>
            <DistanceMeters>1207.0517942793</DistanceMeters>
          </Trackpoint>
          <Trackpoint>
            <Time>2021-06-20T05:54:42.000Z</Time>
            <Position>
              <LatitudeDegrees>38.8569970428943634033203125</LatitudeDegrees>
              <LongitudeDegrees>-0.400789417326450347900390625</LongitudeDegrees>
            </Position>
            <AltitudeMeters>375.399993896484375</AltitudeMeters>
            <DistanceMeters>1211.5991973906</DistanceMeters>
          </Trackpoint>
          <Trackpoint>
            <Time>2021-06-20T05:54:47.000Z</Time>
            <Position>
              <LatitudeDegrees>38.85692403651773929595947265625</LatitudeDegrees>
              <LongitudeDegrees>-0.40069528855383396148681640625</LongitudeDegrees>
            </Position>
            <AltitudeMeters>373.79998779296875</AltitudeMeters>
            <DistanceMeters>1223.114302362</DistanceMeters>
          </Trackpoint>
          <Trackpoint>
            <Time>2021-06-20T05:54:48.000Z</Time>
            <Position>
              <LatitudeDegrees>38.85689520277082920074462890625</LatitudeDegrees>
              <LongitudeDegrees>-0.4006831347942352294921875</LongitudeDegrees>
            </Position>
            <AltitudeMeters>373.79998779296875</AltitudeMeters>
            <DistanceMeters>1226.4914293287</DistanceMeters>
          </Trackpoint>
          <Trackpoint>
            <Time>2021-06-20T05:54:53.000Z</Time>
            <Position>
              <LatitudeDegrees>38.85680585168302059173583984375</LatitudeDegrees>
              <LongitudeDegrees>-0.40064047090709209442138671875</LongitudeDegrees>
            </Position>
            <AltitudeMeters>373.79998779296875</AltitudeMeters>
            <DistanceMeters>1237.1012800793</DistanceMeters>
          </Trackpoint>
          <Trackpoint>
            <Time>2021-06-20T05:54:58.000Z</Time>
            <Position>
              <LatitudeDegrees>38.85671163909137248992919921875</LatitudeDegrees>
              <LongitudeDegrees>-0.40059638209640979766845703125</LongitudeDegrees>
            </Position>
            <AltitudeMeters>373.79998779296875</AltitudeMeters>
            <DistanceMeters>1248.2619643983</DistanceMeters>
          </Trackpoint>
          <Trackpoint>
            <Time>2021-06-20T05:55:03.000Z</Time>
            <Position>
              <LatitudeDegrees>38.856601417064666748046875</LatitudeDegrees>
              <LongitudeDegrees>-0.40052345953881740570068359375</LongitudeDegrees>
            </Position>
            <AltitudeMeters>373.79998779296875</AltitudeMeters>
            <DistanceMeters>1262.0621206366</DistanceMeters>
          </Trackpoint>
          <Trackpoint>
            <Time>2021-06-20T05:55:08.000Z</Time>
            <Position>
              <LatitudeDegrees>38.85649144649505615234375</LatitudeDegrees>
              <LongitudeDegrees>-0.4004881717264652252197265625</LongitudeDegrees>
            </Position>
            <AltitudeMeters>373.79998779296875</AltitudeMeters>
            <DistanceMeters>1274.6785051218</DistanceMeters>
          </Trackpoint>
          <Trackpoint>
            <Time>2021-06-20T05:55:10.000Z</Time>
            <Position>
              <LatitudeDegrees>38.85643788613379001617431640625</LatitudeDegrees>
              <LongitudeDegrees>-0.400498397648334503173828125</LongitudeDegrees>
            </Position>
            <AltitudeMeters>373.79998779296875</AltitudeMeters>
            <DistanceMeters>1280.7050271252</DistanceMeters>
          </Trackpoint>
          <Trackpoint>
            <Time>2021-06-20T05:55:12.000Z</Time>
            <Position>
              <LatitudeDegrees>38.8563779555261135101318359375</LatitudeDegrees>
              <LongitudeDegrees>-0.40051893331110477447509765625</LongitudeDegrees>
            </Position>
            <AltitudeMeters>373.79998779296875</AltitudeMeters>
            <DistanceMeters>1287.6087032091</DistanceMeters>
          </Trackpoint>
          <Trackpoint>
            <Time>2021-06-20T05:55:13.000Z</Time>
            <Position>
              <LatitudeDegrees>38.8563554920256137847900390625</LatitudeDegrees>
              <LongitudeDegrees>-0.40052530355751514434814453125</LongitudeDegrees>
            </Position>
            <AltitudeMeters>373.79998779296875</AltitudeMeters>
            <DistanceMeters>1290.1709025719</DistanceMeters>
          </Trackpoint>
          <Trackpoint>
            <Time>2021-06-20T05:55:17.000Z</Time>
            <Position>
              <LatitudeDegrees>38.85628215037286281585693359375</LatitudeDegrees>
              <LongitudeDegrees>-0.40053896605968475341796875</LongitudeDegrees>
            </Position>
            <AltitudeMeters>374</AltitudeMeters>
            <DistanceMeters>1298.4190900048</DistanceMeters>
          </Trackpoint>
          <Trackpoint>
            <Time>2021-06-20T05:55:19.000Z</Time>
            <Position>
              <LatitudeDegrees>38.85624543763697147369384765625</LatitudeDegrees>
              <LongitudeDegrees>-0.40055799297988414764404296875</LongitudeDegrees>
            </Position>
            <AltitudeMeters>374.20001220703125</AltitudeMeters>
            <DistanceMeters>1302.824272666</DistanceMeters>
          </Trackpoint>
          <Trackpoint>
            <Time>2021-06-20T05:55:24.000Z</Time>
            <Position>
              <LatitudeDegrees>38.856163881719112396240234375</LatitudeDegrees>
              <LongitudeDegrees>-0.4006179235875606536865234375</LongitudeDegrees>
            </Position>
            <AltitudeMeters>374.79998779296875</AltitudeMeters>
            <DistanceMeters>1313.2832566531</DistanceMeters>
          </Trackpoint>
          <Trackpoint>
            <Time>2021-06-20T05:55:25.000Z</Time>
            <Position>
              <LatitudeDegrees>38.85614602826535701751708984375</LatitudeDegrees>
              <LongitudeDegrees>-0.400630496442317962646484375</LongitudeDegrees>
            </Position>
            <AltitudeMeters>374.79998779296875</AltitudeMeters>
            <DistanceMeters>1315.5519883633</DistanceMeters>
          </Trackpoint>
          <Trackpoint>
            <Time>2021-06-20T05:55:29.000Z</Time>
            <Position>
              <LatitudeDegrees>38.85607101023197174072265625</LatitudeDegrees>
              <LongitudeDegrees>-0.4006910137832164764404296875</LongitudeDegrees>
            </Position>
            <AltitudeMeters>375.600006103515625</AltitudeMeters>
            <DistanceMeters>1325.4128130321</DistanceMeters>
          </Trackpoint>
          <Trackpoint>
            <Time>2021-06-20T05:55:32.000Z</Time>
            <Position>
              <LatitudeDegrees>38.8560319505631923675537109375</LatitudeDegrees>
              <LongitudeDegrees>-0.4007416404783725738525390625</LongitudeDegrees>
            </Position>
            <AltitudeMeters>376</AltitudeMeters>
            <DistanceMeters>1331.5895494661</DistanceMeters>
          </Trackpoint>
          <Trackpoint>
            <Time>2021-06-20T05:55:34.000Z</Time>
            <Position>
              <LatitudeDegrees>38.85601543821394443511962890625</LatitudeDegrees>
              <LongitudeDegrees>-0.40078497491776943206787109375</LongitudeDegrees>
            </Position>
            <AltitudeMeters>376.399993896484375</AltitudeMeters>
            <DistanceMeters>1335.7707248984</DistanceMeters>
          </Trackpoint>
          <Trackpoint>
            <Time>2021-06-20T05:55:37.000Z</Time>
            <Position>
              <LatitudeDegrees>38.8559659011662006378173828125</LatitudeDegrees>
              <LongitudeDegrees>-0.40085135959088802337646484375</LongitudeDegrees>
            </Position>
            <AltitudeMeters>377</AltitudeMeters>
            <DistanceMeters>1343.7393820973</DistanceMeters>
          </Trackpoint>
          <Trackpoint>
            <Time>2021-06-20T05:55:39.000Z</Time>
            <Position>
              <LatitudeDegrees>38.85593011043965816497802734375</LatitudeDegrees>
              <LongitudeDegrees>-0.40087633766233921051025390625</LongitudeDegrees>
            </Position>
            <AltitudeMeters>377.20001220703125</AltitudeMeters>
            <DistanceMeters>1348.2728635395</DistanceMeters>
          </Trackpoint>
          <Trackpoint>
            <Time>2021-06-20T05:55:44.000Z</Time>
            <Position>
              <LatitudeDegrees>38.85586255230009555816650390625</LatitudeDegrees>
              <LongitudeDegrees>-0.4009568877518177032470703125</LongitudeDegrees>
            </Position>
            <AltitudeMeters>378.399993896484375</AltitudeMeters>
            <DistanceMeters>1358.5331087209</DistanceMeters>
          </Trackpoint>
          <Trackpoint>
            <Time>2021-06-20T05:55:45.000Z</Time>
            <Position>
              <LatitudeDegrees>38.85584444738924503326416015625</LatitudeDegrees>
              <LongitudeDegrees>-0.4009837098419666290283203125</LongitudeDegrees>
            </Position>
            <AltitudeMeters>378.79998779296875</AltitudeMeters>
            <DistanceMeters>1361.6093922113</DistanceMeters>
          </Trackpoint>
          <Trackpoint>
            <Time>2021-06-20T05:55:50.000Z</Time>
            <Position>
              <LatitudeDegrees>38.85578745044767856597900390625</LatitudeDegrees>
              <LongitudeDegrees>-0.40109309367835521697998046875</LongitudeDegrees>
            </Position>
            <AltitudeMeters>379.399993896484375</AltitudeMeters>
            <DistanceMeters>1373.016556695</DistanceMeters>
          </Trackpoint>
          <Trackpoint>
            <Time>2021-06-20T05:55:54.000Z</Time>
            <Position>
              <LatitudeDegrees>38.855784349143505096435546875</LatitudeDegrees>
              <LongitudeDegrees>-0.40119619108736515045166015625</LongitudeDegrees>
            </Position>
            <AltitudeMeters>380</AltitudeMeters>
            <DistanceMeters>1381.9591713567</DistanceMeters>
          </Trackpoint>
          <Trackpoint>
            <Time>2021-06-20T05:55:55.000Z</Time>
            <Position>
              <LatitudeDegrees>38.85578409768640995025634765625</LatitudeDegrees>
              <LongitudeDegrees>-0.40121890604496002197265625</LongitudeDegrees>
            </Position>
            <AltitudeMeters>379.600006103515625</AltitudeMeters>
            <DistanceMeters>1383.927394615</DistanceMeters>
          </Trackpoint>
          <Trackpoint>
            <Time>2021-06-20T05:56:00.000Z</Time>
            <Position>
              <LatitudeDegrees>38.85571737773716449737548828125</LatitudeDegrees>
              <LongitudeDegrees>-0.40131471119821071624755859375</LongitudeDegrees>
            </Position>
            <AltitudeMeters>380.600006103515625</AltitudeMeters>
            <DistanceMeters>1395.0674278541</DistanceMeters>
          </Trackpoint>
          <Trackpoint>
            <Time>2021-06-20T05:56:06.000Z</Time>
            <Position>
              <LatitudeDegrees>38.85559760034084320068359375</LatitudeDegrees>
              <LongitudeDegrees>-0.40141596458852291107177734375</LongitudeDegrees>
            </Position>
            <AltitudeMeters>381.20001220703125</AltitudeMeters>
            <DistanceMeters>1411.0279559307</DistanceMeters>
          </Trackpoint>
          <Trackpoint>
            <Time>2021-06-20T05:56:12.000Z</Time>
            <Position>
              <LatitudeDegrees>38.85552559979259967803955078125</LatitudeDegrees>
              <LongitudeDegrees>-0.4015416093170642852783203125</LongitudeDegrees>
            </Position>
            <AltitudeMeters>381.79998779296875</AltitudeMeters>
            <DistanceMeters>1424.5488248972</DistanceMeters>
          </Trackpoint>
          <Trackpoint>
            <Time>2021-06-20T05:56:18.000Z</Time>
            <Position>
              <LatitudeDegrees>38.855457790195941925048828125</LatitudeDegrees>
              <LongitudeDegrees>-0.401670522987842559814453125</LongitudeDegrees>
            </Position>
            <AltitudeMeters>382</AltitudeMeters>
            <DistanceMeters>1438.0325765681</DistanceMeters>
          </Trackpoint>
          <Trackpoint>
            <Time>2021-06-20T05:56:20.000Z</Time>
            <Position>
              <LatitudeDegrees>38.85542459785938262939453125</LatitudeDegrees>
              <LongitudeDegrees>-0.40172047913074493408203125</LongitudeDegrees>
            </Position>
            <AltitudeMeters>382.600006103515625</AltitudeMeters>
            <DistanceMeters>1443.7246688267</DistanceMeters>
          </Trackpoint>
          <Trackpoint>
            <Time>2021-06-20T05:56:23.000Z</Time>
            <Position>
              <LatitudeDegrees>38.8553774915635585784912109375</LatitudeDegrees>
              <LongitudeDegrees>-0.4017706029117107391357421875</LongitudeDegrees>
            </Position>
            <AltitudeMeters>382.79998779296875</AltitudeMeters>
            <DistanceMeters>1450.5335169278</DistanceMeters>
          </Trackpoint>
          <Trackpoint>
            <Time>2021-06-20T05:56:28.000Z</Time>
            <Position>
              <LatitudeDegrees>38.85530079714953899383544921875</LatitudeDegrees>
              <LongitudeDegrees>-0.40182801894843578338623046875</LongitudeDegrees>
            </Position>
            <AltitudeMeters>384</AltitudeMeters>
            <DistanceMeters>1460.4144676165</DistanceMeters>
          </Trackpoint>
          <Trackpoint>
            <Time>2021-06-20T05:56:30.000Z</Time>
            <Position>
              <LatitudeDegrees>38.855261318385601043701171875</LatitudeDegrees>
              <LongitudeDegrees>-0.40185903199017047882080078125</LongitudeDegrees>
            </Position>
            <AltitudeMeters>384.600006103515625</AltitudeMeters>
            <DistanceMeters>1465.5652311125</DistanceMeters>
          </Trackpoint>
          <Trackpoint>
            <Time>2021-06-20T05:56:35.000Z</Time>
            <Position>
              <LatitudeDegrees>38.85517003946006298065185546875</LatitudeDegrees>
              <LongitudeDegrees>-0.401926673948764801025390625</LongitudeDegrees>
            </Position>
            <AltitudeMeters>385</AltitudeMeters>
            <DistanceMeters>1477.2955467457</DistanceMeters>
          </Trackpoint>
          <Trackpoint>
            <Time>2021-06-20T05:56:39.000Z</Time>
            <Position>
              <LatitudeDegrees>38.85510130785405635833740234375</LatitudeDegrees>
              <LongitudeDegrees>-0.40196531452238559722900390625</LongitudeDegrees>
            </Position>
            <AltitudeMeters>385.399993896484375</AltitudeMeters>
            <DistanceMeters>1485.6460108226</DistanceMeters>
          </Trackpoint>
          <Trackpoint>
            <Time>2021-06-20T05:56:40.000Z</Time>
            <Position>
              <LatitudeDegrees>38.85508663952350616455078125</LatitudeDegrees>
              <LongitudeDegrees>-0.4019627161324024200439453125</LongitudeDegrees>
            </Position>
            <AltitudeMeters>385.79998779296875</AltitudeMeters>
            <DistanceMeters>1487.2919217963</DistanceMeters>
          </Trackpoint>
          <Trackpoint>
            <Time>2021-06-20T05:56:42.000Z</Time>
            <Position>
              <LatitudeDegrees>38.85507054626941680908203125</LatitudeDegrees>
              <LongitudeDegrees>-0.401930697262287139892578125</LongitudeDegrees>
            </Position>
            <AltitudeMeters>386.20001220703125</AltitudeMeters>
            <DistanceMeters>1490.5946982562</DistanceMeters>
          </Trackpoint>
          <Trackpoint>
            <Time>2021-06-20T05:56:44.000Z</Time>
            <Position>
              <LatitudeDegrees>38.855040371417999267578125</LatitudeDegrees>
              <LongitudeDegrees>-0.40189373306930065155029296875</LongitudeDegrees>
            </Position>
            <AltitudeMeters>386.399993896484375</AltitudeMeters>
            <DistanceMeters>1495.2354667614</DistanceMeters>
          </Trackpoint>
          <Trackpoint>
            <Time>2021-06-20T05:56:48.000Z</Time>
            <Position>
              <LatitudeDegrees>38.85500675998628139495849609375</LatitudeDegrees>
              <LongitudeDegrees>-0.40182508528232574462890625</LongitudeDegrees>
            </Position>
            <AltitudeMeters>386.600006103515625</AltitudeMeters>
            <DistanceMeters>1502.2642325296</DistanceMeters>
          </Trackpoint>
          <Trackpoint>
            <Time>2021-06-20T05:56:49.000Z</Time>
            <Position>
              <LatitudeDegrees>38.85499812662601470947265625</LatitudeDegrees>
              <LongitudeDegrees>-0.40180605836212635040283203125</LongitudeDegrees>
            </Position>
            <AltitudeMeters>386.600006103515625</AltitudeMeters>
            <DistanceMeters>1504.1718805074</DistanceMeters>
          </Trackpoint>
          <Trackpoint>
            <Time>2021-06-20T05:56:54.000Z</Time>
            <Position>
              <LatitudeDegrees>38.85495043359696865081787109375</LatitudeDegrees>
              <LongitudeDegrees>-0.40173933841288089752197265625</LongitudeDegrees>
            </Position>
            <AltitudeMeters>387</AltitudeMeters>
            <DistanceMeters>1512.0218003575</DistanceMeters>
          </Trackpoint>
          <Trackpoint>
            <Time>2021-06-20T05:56:55.000Z</Time>
            <Position>
              <LatitudeDegrees>38.85494138114154338836669921875</LatitudeDegrees>
              <LongitudeDegrees>-0.40172911249101161956787109375</LongitudeDegrees>
            </Position>
            <AltitudeMeters>387.399993896484375</AltitudeMeters>
            <DistanceMeters>1513.36568104</DistanceMeters>
          </Trackpoint>
          <Trackpoint>
            <Time>2021-06-20T05:56:57.000Z</Time>
            <Position>
              <LatitudeDegrees>38.85492713190615177154541015625</LatitudeDegrees>
              <LongitudeDegrees>-0.401709079742431640625</LongitudeDegrees>
            </Position>
            <AltitudeMeters>387.600006103515625</AltitudeMeters>
            <DistanceMeters>1515.7203502177</DistanceMeters>
          </Trackpoint>
          <Trackpoint>
            <Time>2021-06-20T05:56:59.000Z</Time>
            <Position>
              <LatitudeDegrees>38.8549114577472209930419921875</LatitudeDegrees>
              <LongitudeDegrees>-0.401687957346439361572265625</LongitudeDegrees>
            </Position>
            <AltitudeMeters>388</AltitudeMeters>
            <DistanceMeters>1518.2488466331</DistanceMeters>
          </Trackpoint>
          <Trackpoint>
            <Time>2021-06-20T05:57:00.000Z</Time>
            <Position>
              <LatitudeDegrees>38.85490290820598602294921875</LatitudeDegrees>
              <LongitudeDegrees>-0.40167697705328464508056640625</LongitudeDegrees>
            </Position>
            <AltitudeMeters>388</AltitudeMeters>
            <DistanceMeters>1519.5927273156</DistanceMeters>
          </Trackpoint>
          <Trackpoint>
            <Time>2021-06-20T05:57:02.000Z</Time>
            <Position>
              <LatitudeDegrees>38.854883126914501190185546875</LatitudeDegrees>
              <LongitudeDegrees>-0.401652418076992034912109375</LongitudeDegrees>
            </Position>
            <AltitudeMeters>388.20001220703125</AltitudeMeters>
            <DistanceMeters>1522.6542987011</DistanceMeters>
          </Trackpoint>
          <Trackpoint>
            <Time>2021-06-20T05:57:04.000Z</Time>
            <Position>
              <LatitudeDegrees>38.8548673689365386962890625</LatitudeDegrees>
              <LongitudeDegrees>-0.401622243225574493408203125</LongitudeDegrees>
            </Position>
            <AltitudeMeters>388.399993896484375</AltitudeMeters>
            <DistanceMeters>1525.8031118006</DistanceMeters>
          </Trackpoint>
          <Trackpoint>
            <Time>2021-06-20T05:57:09.000Z</Time>
            <Position>
              <LatitudeDegrees>38.8547924347221851348876953125</LatitudeDegrees>
              <LongitudeDegrees>-0.40156834758818149566650390625</LongitudeDegrees>
            </Position>
            <AltitudeMeters>388.79998779296875</AltitudeMeters>
            <DistanceMeters>1535.3626292368</DistanceMeters>
          </Trackpoint>
          <Trackpoint>
            <Time>2021-06-20T05:57:10.000Z</Time>
            <Position>
              <LatitudeDegrees>38.85476745665073394775390625</LatitudeDegrees>
              <LongitudeDegrees>-0.40156424045562744140625</LongitudeDegrees>
            </Position>
            <AltitudeMeters>389</AltitudeMeters>
            <DistanceMeters>1538.1655146262</DistanceMeters>
          </Trackpoint>
          <Trackpoint>
            <Time>2021-06-20T05:57:15.000Z</Time>
            <Position>
              <LatitudeDegrees>38.85469847358763217926025390625</LatitudeDegrees>
              <LongitudeDegrees>-0.401560552418231964111328125</LongitudeDegrees>
            </Position>
            <AltitudeMeters>389.399993896484375</AltitudeMeters>
            <DistanceMeters>1545.8503503397</DistanceMeters>
          </Trackpoint>
          <Trackpoint>
            <Time>2021-06-20T05:57:18.000Z</Time>
            <Position>
              <LatitudeDegrees>38.85463862679898738861083984375</LatitudeDegrees>
              <LongitudeDegrees>-0.4015513323247432708740234375</LongitudeDegrees>
            </Position>
            <AltitudeMeters>389.399993896484375</AltitudeMeters>
            <DistanceMeters>1552.5589940921</DistanceMeters>
          </Trackpoint>
          <Trackpoint>
            <Time>2021-06-20T05:57:20.000Z</Time>
            <Position>
              <LatitudeDegrees>38.85459654964506626129150390625</LatitudeDegrees>
              <LongitudeDegrees>-0.40155309252440929412841796875</LongitudeDegrees>
            </Position>
            <AltitudeMeters>389.600006103515625</AltitudeMeters>
            <DistanceMeters>1557.2443026023</DistanceMeters>
          </Trackpoint>
          <Trackpoint>
            <Time>2021-06-20T05:57:26.000Z</Time>
            <Position>
              <LatitudeDegrees>38.85448590852320194244384765625</LatitudeDegrees>
              <LongitudeDegrees>-0.40158293209969997406005859375</LongitudeDegrees>
            </Position>
            <AltitudeMeters>390.399993896484375</AltitudeMeters>
            <DistanceMeters>1569.8277198823</DistanceMeters>
          </Trackpoint>
          <Trackpoint>
            <Time>2021-06-20T05:57:32.000Z</Time>
            <Position>
              <LatitudeDegrees>38.85440929792821407318115234375</LatitudeDegrees>
              <LongitudeDegrees>-0.40167161263525485992431640625</LongitudeDegrees>
            </Position>
            <AltitudeMeters>391</AltitudeMeters>
            <DistanceMeters>1581.3078751818</DistanceMeters>
          </Trackpoint>
          <Trackpoint>
            <Time>2021-06-20T05:57:35.000Z</Time>
            <Position>
              <LatitudeDegrees>38.85438515804708003997802734375</LatitudeDegrees>
              <LongitudeDegrees>-0.401718132197856903076171875</LongitudeDegrees>
            </Position>
            <AltitudeMeters>390.79998779296875</AltitudeMeters>
            <DistanceMeters>1586.1542376147</DistanceMeters>
          </Trackpoint>
          <Trackpoint>
            <Time>2021-06-20T05:57:39.000Z</Time>
            <Position>
              <LatitudeDegrees>38.85434567928314208984375</LatitudeDegrees>
              <LongitudeDegrees>-0.40177739225327968597412109375</LongitudeDegrees>
            </Position>
            <AltitudeMeters>391.20001220703125</AltitudeMeters>
            <DistanceMeters>1592.9138372187</DistanceMeters>
          </Trackpoint>
          <Trackpoint>
            <Time>2021-06-20T05:57:40.000Z</Time>
            <Position>
              <LatitudeDegrees>38.8543327711522579193115234375</LatitudeDegrees>
              <LongitudeDegrees>-0.4017910547554492950439453125</LongitudeDegrees>
            </Position>
            <AltitudeMeters>391.20001220703125</AltitudeMeters>
            <DistanceMeters>1594.7783959951</DistanceMeters>
          </Trackpoint>
          <Trackpoint>
            <Time>2021-06-20T05:57:41.000Z</Time>
            <Position>
              <LatitudeDegrees>38.85432011447846889495849609375</LatitudeDegrees>
              <LongitudeDegrees>-0.40180362761020660400390625</LongitudeDegrees>
            </Position>
            <AltitudeMeters>391.399993896484375</AltitudeMeters>
            <DistanceMeters>1596.5612551899</DistanceMeters>
          </Trackpoint>
          <Trackpoint>
            <Time>2021-06-20T05:57:47.000Z</Time>
            <Position>
              <LatitudeDegrees>38.85426529683172702789306640625</LatitudeDegrees>
              <LongitudeDegrees>-0.40184997953474521636962890625</LongitudeDegrees>
            </Position>
            <AltitudeMeters>392.20001220703125</AltitudeMeters>
            <DistanceMeters>1603.8665787134</DistanceMeters>
          </Trackpoint>
          <Trackpoint>
            <Time>2021-06-20T05:57:51.000Z</Time>
            <Position>
              <LatitudeDegrees>38.8542117364704608917236328125</LatitudeDegrees>
              <LongitudeDegrees>-0.4018778912723064422607421875</LongitudeDegrees>
            </Position>
            <AltitudeMeters>392.399993896484375</AltitudeMeters>
            <DistanceMeters>1610.3003855507</DistanceMeters>
          </Trackpoint>
          <Trackpoint>
            <Time>2021-06-20T05:57:54.000Z</Time>
            <Position>
              <LatitudeDegrees>38.854175023734569549560546875</LatitudeDegrees>
              <LongitudeDegrees>-0.4019016958773136138916015625</LongitudeDegrees>
            </Position>
            <AltitudeMeters>393</AltitudeMeters>
            <DistanceMeters>1614.8774782251</DistanceMeters>
          </Trackpoint>
          <Trackpoint>
            <Time>2021-06-20T05:57:57.000Z</Time>
            <Position>
              <LatitudeDegrees>38.85413437150418758392333984375</LatitudeDegrees>
              <LongitudeDegrees>-0.40192910470068454742431640625</LongitudeDegrees>
            </Position>
            <AltitudeMeters>393.20001220703125</AltitudeMeters>
            <DistanceMeters>1619.987760123</DistanceMeters>
          </Trackpoint>
          <Trackpoint>
            <Time>2021-06-20T05:58:01.000Z</Time>
            <Position>
              <LatitudeDegrees>38.8540841639041900634765625</LatitudeDegrees>
              <LongitudeDegrees>-0.4019620455801486968994140625</LongitudeDegrees>
            </Position>
            <AltitudeMeters>393.399993896484375</AltitudeMeters>
            <DistanceMeters>1626.2638411811</DistanceMeters>
          </Trackpoint>
          <Trackpoint>
            <Time>2021-06-20T05:58:04.000Z</Time>
            <Position>
              <LatitudeDegrees>38.85405491106212139129638671875</LatitudeDegrees>
              <LongitudeDegrees>-0.401987023651599884033203125</LongitudeDegrees>
            </Position>
            <AltitudeMeters>393.600006103515625</AltitudeMeters>
            <DistanceMeters>1630.1726631703</DistanceMeters>
          </Trackpoint>
          <Trackpoint>
            <Time>2021-06-20T05:58:07.000Z</Time>
            <Position>
              <LatitudeDegrees>38.85400847531855106353759765625</LatitudeDegrees>
              <LongitudeDegrees>-0.402022562921047210693359375</LongitudeDegrees>
            </Position>
            <AltitudeMeters>393.79998779296875</AltitudeMeters>
            <DistanceMeters>1636.1894377601</DistanceMeters>
          </Trackpoint>
          <Trackpoint>
            <Time>2021-06-20T05:58:09.000Z</Time>
            <Position>
              <LatitudeDegrees>38.8539757020771503448486328125</LatitudeDegrees>
              <LongitudeDegrees>-0.40205600671470165252685546875</LongitudeDegrees>
            </Position>
            <AltitudeMeters>394.20001220703125</AltitudeMeters>
            <DistanceMeters>1640.8486548371</DistanceMeters>
          </Trackpoint>
          <Trackpoint>
            <Time>2021-06-20T05:58:12.000Z</Time>
            <Position>
              <LatitudeDegrees>38.8539441861212253570556640625</LatitudeDegrees>
              <LongitudeDegrees>-0.402106381952762603759765625</LongitudeDegrees>
            </Position>
            <AltitudeMeters>394.399993896484375</AltitudeMeters>
            <DistanceMeters>1646.4487847901</DistanceMeters>
          </Trackpoint>
          <Trackpoint>
            <Time>2021-06-20T05:58:13.000Z</Time>
            <Position>
              <LatitudeDegrees>38.8539307750761508941650390625</LatitudeDegrees>
              <LongitudeDegrees>-0.4021263308823108673095703125</LongitudeDegrees>
            </Position>
            <AltitudeMeters>394.600006103515625</AltitudeMeters>
            <DistanceMeters>1648.7314047997</DistanceMeters>
          </Trackpoint>
          <Trackpoint>
            <Time>2021-06-20T05:58:15.000Z</Time>
            <Position>
              <LatitudeDegrees>38.8539136759936809539794921875</LatitudeDegrees>
              <LongitudeDegrees>-0.4021665640175342559814453125</LongitudeDegrees>
            </Position>
            <AltitudeMeters>394.600006103515625</AltitudeMeters>
            <DistanceMeters>1652.7043852456</DistanceMeters>
          </Trackpoint>
          <Trackpoint>
            <Time>2021-06-20T05:58:19.000Z</Time>
            <Position>
              <LatitudeDegrees>38.8538764603435993194580078125</LatitudeDegrees>
              <LongitudeDegrees>-0.40221744216978549957275390625</LongitudeDegrees>
            </Position>
            <AltitudeMeters>394.79998779296875</AltitudeMeters>
            <DistanceMeters>1658.7540877034</DistanceMeters>
          </Trackpoint>
          <Trackpoint>
            <Time>2021-06-20T05:58:21.000Z</Time>
            <Position>
              <LatitudeDegrees>38.8538623787462711334228515625</LatitudeDegrees>
              <LongitudeDegrees>-0.4022383131086826324462890625</LongitudeDegrees>
            </Position>
            <AltitudeMeters>394.79998779296875</AltitudeMeters>
            <DistanceMeters>1661.1486854863</DistanceMeters>
          </Trackpoint>
          <Trackpoint>
            <Time>2021-06-20T05:58:25.000Z</Time>
            <Position>
              <LatitudeDegrees>38.85384586639702320098876953125</LatitudeDegrees>
              <LongitudeDegrees>-0.4022654704749584197998046875</LongitudeDegrees>
            </Position>
            <AltitudeMeters>395.600006103515625</AltitudeMeters>
            <DistanceMeters>1664.1356095775</DistanceMeters>
          </Trackpoint>
          <Trackpoint>
            <Time>2021-06-20T05:58:27.000Z</Time>
            <Position>
              <LatitudeDegrees>38.85383295826613903045654296875</LatitudeDegrees>
              <LongitudeDegrees>-0.40226806886494159698486328125</LongitudeDegrees>
            </Position>
            <AltitudeMeters>395.79998779296875</AltitudeMeters>
            <DistanceMeters>1665.5861294193</DistanceMeters>
          </Trackpoint>
          <Trackpoint>
            <Time>2021-06-20T05:58:32.000Z</Time>
            <Position>
              <LatitudeDegrees>38.85376120917499065399169921875</LatitudeDegrees>
              <LongitudeDegrees>-0.4022782109677791595458984375</LongitudeDegrees>
            </Position>
            <AltitudeMeters>396</AltitudeMeters>
            <DistanceMeters>1673.6202433357</DistanceMeters>
          </Trackpoint>
          <Trackpoint>
            <Time>2021-06-20T05:58:36.000Z</Time>
            <Position>
              <LatitudeDegrees>38.85368292219936847686767578125</LatitudeDegrees>
              <LongitudeDegrees>-0.40226756595075130462646484375</LongitudeDegrees>
            </Position>
            <AltitudeMeters>395.79998779296875</AltitudeMeters>
            <DistanceMeters>1682.3823041621</DistanceMeters>
          </Trackpoint>
          <Trackpoint>
            <Time>2021-06-20T05:58:39.000Z</Time>
            <Position>
              <LatitudeDegrees>38.8536323793232440948486328125</LatitudeDegrees>
              <LongitudeDegrees>-0.40224392898380756378173828125</LongitudeDegrees>
            </Position>
            <AltitudeMeters>396.600006103515625</AltitudeMeters>
            <DistanceMeters>1688.3697413002</DistanceMeters>
          </Trackpoint>
          <Trackpoint>
            <Time>2021-06-20T05:58:40.000Z</Time>
            <Position>
              <LatitudeDegrees>38.853617794811725616455078125</LatitudeDegrees>
              <LongitudeDegrees>-0.40223554708063602447509765625</LongitudeDegrees>
            </Position>
            <AltitudeMeters>396.600006103515625</AltitudeMeters>
            <DistanceMeters>1690.1449868266</DistanceMeters>
          </Trackpoint>
          <Trackpoint>
            <Time>2021-06-20T05:58:41.000Z</Time>
            <Position>
              <LatitudeDegrees>38.8536018691956996917724609375</LatitudeDegrees>
              <LongitudeDegrees>-0.4022307693958282470703125</LongitudeDegrees>
            </Position>
            <AltitudeMeters>397</AltitudeMeters>
            <DistanceMeters>1691.9679152759</DistanceMeters>
          </Trackpoint>
          <Trackpoint>
            <Time>2021-06-20T05:58:47.000Z</Time>
            <Position>
              <LatitudeDegrees>38.85350036434829235076904296875</LatitudeDegrees>
              <LongitudeDegrees>-0.40225164033472537994384765625</LongitudeDegrees>
            </Position>
            <AltitudeMeters>397.20001220703125</AltitudeMeters>
            <DistanceMeters>1703.4098577808</DistanceMeters>
          </Trackpoint>
          <Trackpoint>
            <Time>2021-06-20T05:58:48.000Z</Time>
            <Position>
              <LatitudeDegrees>38.85347790084779262542724609375</LatitudeDegrees>
              <LongitudeDegrees>-0.4022575914859771728515625</LongitudeDegrees>
            </Position>
            <AltitudeMeters>397.399993896484375</AltitudeMeters>
            <DistanceMeters>1705.9632310775</DistanceMeters>
          </Trackpoint>
          <Trackpoint>
            <Time>2021-06-20T05:58:51.000Z</Time>
            <Position>
              <LatitudeDegrees>38.85340430773794651031494140625</LatitudeDegrees>
              <LongitudeDegrees>-0.402259938418865203857421875</LongitudeDegrees>
            </Position>
            <AltitudeMeters>397.79998779296875</AltitudeMeters>
            <DistanceMeters>1714.1564958898</DistanceMeters>
          </Trackpoint>
          <Trackpoint>
            <Time>2021-06-20T05:58:53.000Z</Time>
            <Position>
              <LatitudeDegrees>38.85336223058402538299560546875</LatitudeDegrees>
              <LongitudeDegrees>-0.402255244553089141845703125</LongitudeDegrees>
            </Position>
            <AltitudeMeters>398.20001220703125</AltitudeMeters>
            <DistanceMeters>1718.856237051</DistanceMeters>
          </Trackpoint>
          <Trackpoint>
            <Time>2021-06-20T05:58:55.000Z</Time>
            <Position>
              <LatitudeDegrees>38.85332853533327579498291015625</LatitudeDegrees>
              <LongitudeDegrees>-0.402242839336395263671875</LongitudeDegrees>
            </Position>
            <AltitudeMeters>398.399993896484375</AltitudeMeters>
            <DistanceMeters>1722.7581223497</DistanceMeters>
          </Trackpoint>
          <Trackpoint>
            <Time>2021-06-20T05:58:56.000Z</Time>
            <Position>
              <LatitudeDegrees>38.85330506600439548492431640625</LatitudeDegrees>
              <LongitudeDegrees>-0.402234457433223724365234375</LongitudeDegrees>
            </Position>
            <AltitudeMeters>399</AltitudeMeters>
            <DistanceMeters>1725.4692996264</DistanceMeters>
          </Trackpoint>
          <Trackpoint>
            <Time>2021-06-20T05:58:57.000Z</Time>
            <Position>
              <LatitudeDegrees>38.8532813452184200286865234375</LatitudeDegrees>
              <LongitudeDegrees>-0.40222951211035251617431640625</LongitudeDegrees>
            </Position>
            <AltitudeMeters>399.399993896484375</AltitudeMeters>
            <DistanceMeters>1728.1469629167</DistanceMeters>
          </Trackpoint>
          <Trackpoint>
            <Time>2021-06-20T05:58:58.000Z</Time>
            <Position>
              <LatitudeDegrees>38.85325980372726917266845703125</LatitudeDegrees>
              <LongitudeDegrees>-0.40222682990133762359619140625</LongitudeDegrees>
            </Position>
            <AltitudeMeters>399.600006103515625</AltitudeMeters>
            <DistanceMeters>1730.5584705841</DistanceMeters>
          </Trackpoint>
          <Trackpoint>
            <Time>2021-06-20T05:59:00.000Z</Time>
            <Position>
              <LatitudeDegrees>38.85322392918169498443603515625</LatitudeDegrees>
              <LongitudeDegrees>-0.402229763567447662353515625</LongitudeDegrees>
            </Position>
            <AltitudeMeters>400.20001220703125</AltitudeMeters>
            <DistanceMeters>1734.5586325132</DistanceMeters>
          </Trackpoint>
          <Trackpoint>
            <Time>2021-06-20T05:59:01.000Z</Time>
            <Position>
              <LatitudeDegrees>38.8532089255750179290771484375</LatitudeDegrees>
              <LongitudeDegrees>-0.40223806165158748626708984375</LongitudeDegrees>
            </Position>
            <AltitudeMeters>400.20001220703125</AltitudeMeters>
            <DistanceMeters>1736.3766006038</DistanceMeters>
          </Trackpoint>
          <Trackpoint>
            <Time>2021-06-20T05:59:03.000Z</Time>
            <Position>
              <LatitudeDegrees>38.85317464359104633331298828125</LatitudeDegrees>
              <LongitudeDegrees>-0.4022601060569286346435546875</LongitudeDegrees>
            </Position>
            <AltitudeMeters>400.600006103515625</AltitudeMeters>
            <DistanceMeters>1740.6454053854</DistanceMeters>
          </Trackpoint>
          <Trackpoint>
            <Time>2021-06-20T05:59:08.000Z</Time>
            <Position>
              <LatitudeDegrees>38.85309216566383838653564453125</LatitudeDegrees>
              <LongitudeDegrees>-0.40232925675809383392333984375</LongitudeDegrees>
            </Position>
            <AltitudeMeters>401.20001220703125</AltitudeMeters>
            <DistanceMeters>1751.6085398583</DistanceMeters>
          </Trackpoint>
          <Trackpoint>
            <Time>2021-06-20T05:59:09.000Z</Time>
            <Position>
              <LatitudeDegrees>38.85307473130524158477783203125</LatitudeDegrees>
              <LongitudeDegrees>-0.40233378298580646514892578125</LongitudeDegrees>
            </Position>
            <AltitudeMeters>401.20001220703125</AltitudeMeters>
            <DistanceMeters>1753.5881997221</DistanceMeters>
          </Trackpoint>
          <Trackpoint>
            <Time>2021-06-20T05:59:14.000Z</Time>
            <Position>
              <LatitudeDegrees>38.852989487349987030029296875</LatitudeDegrees>
              <LongitudeDegrees>-0.402374267578125</LongitudeDegrees>
            </Position>
            <AltitudeMeters>402.399993896484375</AltitudeMeters>
            <DistanceMeters>1763.7039708872</DistanceMeters>
          </Trackpoint>
          <Trackpoint>
            <Time>2021-06-20T05:59:16.000Z</Time>
            <Position>
              <LatitudeDegrees>38.85295352898538112640380859375</LatitudeDegrees>
              <LongitudeDegrees>-0.40239446796476840972900390625</LongitudeDegrees>
            </Position>
            <AltitudeMeters>403.600006103515625</AltitudeMeters>
            <DistanceMeters>1768.0731334617</DistanceMeters>
          </Trackpoint>
          <Trackpoint>
            <Time>2021-06-20T05:59:19.000Z</Time>
            <Position>
              <LatitudeDegrees>38.85289904661476612091064453125</LatitudeDegrees>
              <LongitudeDegrees>-0.402416847646236419677734375</LongitudeDegrees>
            </Position>
            <AltitudeMeters>404</AltitudeMeters>
            <DistanceMeters>1774.4406324396</DistanceMeters>
          </Trackpoint>
          <Trackpoint>
            <Time>2021-06-20T05:59:23.000Z</Time>
            <Position>
              <LatitudeDegrees>38.85282880626618862152099609375</LatitudeDegrees>
              <LongitudeDegrees>-0.40245397947728633880615234375</LongitudeDegrees>
            </Position>
            <AltitudeMeters>404.399993896484375</AltitudeMeters>
            <DistanceMeters>1782.894806264</DistanceMeters>
          </Trackpoint>
          <Trackpoint>
            <Time>2021-06-20T05:59:24.000Z</Time>
            <Position>
              <LatitudeDegrees>38.85281103663146495819091796875</LatitudeDegrees>
              <LongitudeDegrees>-0.4024575836956501007080078125</LongitudeDegrees>
            </Position>
            <AltitudeMeters>404.600006103515625</AltitudeMeters>
            <DistanceMeters>1784.8971433837</DistanceMeters>
          </Trackpoint>
          <Trackpoint>
            <Time>2021-06-20T05:59:25.000Z</Time>
            <Position>
              <LatitudeDegrees>38.85279226116836071014404296875</LatitudeDegrees>
              <LongitudeDegrees>-0.402460433542728424072265625</LongitudeDegrees>
            </Position>
            <AltitudeMeters>405</AltitudeMeters>
            <DistanceMeters>1787.0027947162</DistanceMeters>
          </Trackpoint>
          <Trackpoint>
            <Time>2021-06-20T05:59:28.000Z</Time>
            <Position>
              <LatitudeDegrees>38.8527385331690311431884765625</LatitudeDegrees>
              <LongitudeDegrees>-0.40247560478746891021728515625</LongitudeDegrees>
            </Position>
            <AltitudeMeters>406.20001220703125</AltitudeMeters>
            <DistanceMeters>1793.1266748156</DistanceMeters>
          </Trackpoint>
          <Trackpoint>
            <Time>2021-06-20T05:59:29.000Z</Time>
            <Position>
              <LatitudeDegrees>38.85272520594298839569091796875</LatitudeDegrees>
              <LongitudeDegrees>-0.40246973745524883270263671875</LongitudeDegrees>
            </Position>
            <AltitudeMeters>406.399993896484375</AltitudeMeters>
            <DistanceMeters>1794.6996468261</DistanceMeters>
          </Trackpoint>
          <Trackpoint>
            <Time>2021-06-20T05:59:30.000Z</Time>
            <Position>
              <LatitudeDegrees>38.85271246545016765594482421875</LatitudeDegrees>
              <LongitudeDegrees>-0.4024609364569187164306640625</LongitudeDegrees>
            </Position>
            <AltitudeMeters>406</AltitudeMeters>
            <DistanceMeters>1796.3095014591</DistanceMeters>
          </Trackpoint>
          <Trackpoint>
            <Time>2021-06-20T05:59:34.000Z</Time>
            <Position>
              <LatitudeDegrees>38.8526801951229572296142578125</LatitudeDegrees>
              <LongitudeDegrees>-0.402404777705669403076171875</LongitudeDegrees>
            </Position>
            <AltitudeMeters>405.600006103515625</AltitudeMeters>
            <DistanceMeters>1802.3584575468</DistanceMeters>
          </Trackpoint>
          <Trackpoint>
            <Time>2021-06-20T05:59:35.000Z</Time>
            <Position>
              <LatitudeDegrees>38.852670975029468536376953125</LatitudeDegrees>
              <LongitudeDegrees>-0.402390696108341217041015625</LongitudeDegrees>
            </Position>
            <AltitudeMeters>405.399993896484375</AltitudeMeters>
            <DistanceMeters>1803.9542274416</DistanceMeters>
          </Trackpoint>
          <Trackpoint>
            <Time>2021-06-20T05:59:37.000Z</Time>
            <Position>
              <LatitudeDegrees>38.85264314711093902587890625</LatitudeDegrees>
              <LongitudeDegrees>-0.4023754410445690155029296875</LongitudeDegrees>
            </Position>
            <AltitudeMeters>405.399993896484375</AltitudeMeters>
            <DistanceMeters>1807.3219827791</DistanceMeters>
          </Trackpoint>
          <Trackpoint>
            <Time>2021-06-20T05:59:41.000Z</Time>
            <Position>
              <LatitudeDegrees>38.85258237831294536590576171875</LatitudeDegrees>
              <LongitudeDegrees>-0.40236144326627254486083984375</LongitudeDegrees>
            </Position>
            <AltitudeMeters>405.399993896484375</AltitudeMeters>
            <DistanceMeters>1814.1935378961</DistanceMeters>
          </Trackpoint>
          <Trackpoint>
            <Time>2021-06-20T05:59:42.000Z</Time>
            <Position>
              <LatitudeDegrees>38.85256745852530002593994140625</LatitudeDegrees>
              <LongitudeDegrees>-0.40236429311335086822509765625</LongitudeDegrees>
            </Position>
            <AltitudeMeters>405.20001220703125</AltitudeMeters>
            <DistanceMeters>1815.8720443306</DistanceMeters>
          </Trackpoint>
          <Trackpoint>
            <Time>2021-06-20T05:59:44.000Z</Time>
            <Position>
              <LatitudeDegrees>38.8525373674929141998291015625</LatitudeDegrees>
              <LongitudeDegrees>-0.40237301029264926910400390625</LongitudeDegrees>
            </Position>
            <AltitudeMeters>405.20001220703125</AltitudeMeters>
            <DistanceMeters>1819.3035483278</DistanceMeters>
          </Trackpoint>
          <Trackpoint>
            <Time>2021-06-20T05:59:45.000Z</Time>
            <Position>
              <LatitudeDegrees>38.85252068750560283660888671875</LatitudeDegrees>
              <LongitudeDegrees>-0.40238290093839168548583984375</LongitudeDegrees>
            </Position>
            <AltitudeMeters>405.20001220703125</AltitudeMeters>
            <DistanceMeters>1821.3460701311</DistanceMeters>
          </Trackpoint>
          <Trackpoint>
            <Time>2021-06-20T05:59:50.000Z</Time>
            <Position>
              <LatitudeDegrees>38.8524196855723857879638671875</LatitudeDegrees>
              <LongitudeDegrees>-0.402443669736385345458984375</LongitudeDegrees>
            </Position>
            <AltitudeMeters>406.20001220703125</AltitudeMeters>
            <DistanceMeters>1833.7600656439</DistanceMeters>
          </Trackpoint>
          <Trackpoint>
            <Time>2021-06-20T05:59:53.000Z</Time>
            <Position>
              <LatitudeDegrees>38.85238272137939929962158203125</LatitudeDegrees>
              <LongitudeDegrees>-0.4024854116141796112060546875</LongitudeDegrees>
            </Position>
            <AltitudeMeters>406.79998779296875</AltitudeMeters>
            <DistanceMeters>1839.2371007859</DistanceMeters>
          </Trackpoint>
          <Trackpoint>
            <Time>2021-06-20T05:59:56.000Z</Time>
            <Position>
              <LatitudeDegrees>38.85236361064016819000244140625</LatitudeDegrees>
              <LongitudeDegrees>-0.40252522565424442291259765625</LongitudeDegrees>
            </Position>
            <AltitudeMeters>407.20001220703125</AltitudeMeters>
            <DistanceMeters>1843.2910789714</DistanceMeters>
          </Trackpoint>
          <Trackpoint>
            <Time>2021-06-20T05:59:57.000Z</Time>
            <Position>
              <LatitudeDegrees>38.852358497679233551025390625</LatitudeDegrees>
              <LongitudeDegrees>-0.40253528393805027008056640625</LongitudeDegrees>
            </Position>
            <AltitudeMeters>407.399993896484375</AltitudeMeters>
            <DistanceMeters>1844.3320444719</DistanceMeters>
          </Trackpoint>
          <Trackpoint>
            <Time>2021-06-20T05:59:59.000Z</Time>
            <Position>
              <LatitudeDegrees>38.85235288180410861968994140625</LatitudeDegrees>
              <LongitudeDegrees>-0.4025648720562458038330078125</LongitudeDegrees>
            </Position>
            <AltitudeMeters>408</AltitudeMeters>
            <DistanceMeters>1846.9706404884</DistanceMeters>
          </Trackpoint>
          <Trackpoint>
            <Time>2021-06-20T06:00:00.000Z</Time>
            <Position>
              <LatitudeDegrees>38.85234500281512737274169921875</LatitudeDegrees>
              <LongitudeDegrees>-0.4025776125490665435791015625</LongitudeDegrees>
            </Position>
            <AltitudeMeters>408.399993896484375</AltitudeMeters>
            <DistanceMeters>1848.3801144391</DistanceMeters>
          </Trackpoint>
          <Trackpoint>
            <Time>2021-06-20T06:00:03.000Z</Time>
            <Position>
              <LatitudeDegrees>38.8523110561072826385498046875</LatitudeDegrees>
              <LongitudeDegrees>-0.4026097990572452545166015625</LongitudeDegrees>
            </Position>
            <AltitudeMeters>409.399993896484375</AltitudeMeters>
            <DistanceMeters>1853.076972618</DistanceMeters>
          </Trackpoint>
          <Trackpoint>
            <Time>2021-06-20T06:00:05.000Z</Time>
            <Position>
              <LatitudeDegrees>38.852287419140338897705078125</LatitudeDegrees>
              <LongitudeDegrees>-0.4026329331099987030029296875</LongitudeDegrees>
            </Position>
            <AltitudeMeters>409.399993896484375</AltitudeMeters>
            <DistanceMeters>1856.3824820337</DistanceMeters>
          </Trackpoint>
          <Trackpoint>
            <Time>2021-06-20T06:00:08.000Z</Time>
            <Position>
              <LatitudeDegrees>38.8522594235837459564208984375</LatitudeDegrees>
              <LongitudeDegrees>-0.402686409652233123779296875</LongitudeDegrees>
            </Position>
            <AltitudeMeters>410.600006103515625</AltitudeMeters>
            <DistanceMeters>1861.9672724539</DistanceMeters>
          </Trackpoint>
          <Trackpoint>
            <Time>2021-06-20T06:00:11.000Z</Time>
            <Position>
              <LatitudeDegrees>38.8522265665233135223388671875</LatitudeDegrees>
              <LongitudeDegrees>-0.40272689424455165863037109375</LongitudeDegrees>
            </Position>
            <AltitudeMeters>411.399993896484375</AltitudeMeters>
            <DistanceMeters>1867.0367495038</DistanceMeters>
          </Trackpoint>
          <Trackpoint>
            <Time>2021-06-20T06:00:12.000Z</Time>
            <Position>
              <LatitudeDegrees>38.8522181846201419830322265625</LatitudeDegrees>
              <LongitudeDegrees>-0.40273678489029407501220703125</LongitudeDegrees>
            </Position>
            <AltitudeMeters>411.600006103515625</AltitudeMeters>
            <DistanceMeters>1868.304564004</DistanceMeters>
          </Trackpoint>
          <Trackpoint>
            <Time>2021-06-20T06:00:17.000Z</Time>
            <Position>
              <LatitudeDegrees>38.85215096175670623779296875</LatitudeDegrees>
              <LongitudeDegrees>-0.4027898423373699188232421875</LongitudeDegrees>
            </Position>
            <AltitudeMeters>411.600006103515625</AltitudeMeters>
            <DistanceMeters>1877.0872124078</DistanceMeters>
          </Trackpoint>
          <Trackpoint>
            <Time>2021-06-20T06:00:22.000Z</Time>
            <Position>
              <LatitudeDegrees>38.85211248882114887237548828125</LatitudeDegrees>
              <LongitudeDegrees>-0.4028337635099887847900390625</LongitudeDegrees>
            </Position>
            <AltitudeMeters>412.399993896484375</AltitudeMeters>
            <DistanceMeters>1882.8172523684</DistanceMeters>
          </Trackpoint>
          <Trackpoint>
            <Time>2021-06-20T06:00:24.000Z</Time>
            <Position>
              <LatitudeDegrees>38.8521038554608821868896484375</LatitudeDegrees>
              <LongitudeDegrees>-0.4028669558465480804443359375</LongitudeDegrees>
            </Position>
            <AltitudeMeters>412.600006103515625</AltitudeMeters>
            <DistanceMeters>1885.8491853854</DistanceMeters>
          </Trackpoint>
          <Trackpoint>
            <Time>2021-06-20T06:00:28.000Z</Time>
            <Position>
              <LatitudeDegrees>38.8520709984004497528076171875</LatitudeDegrees>
              <LongitudeDegrees>-0.4029507748782634735107421875</LongitudeDegrees>
            </Position>
            <AltitudeMeters>413.20001220703125</AltitudeMeters>
            <DistanceMeters>1893.9827172154</DistanceMeters>
          </Trackpoint>
          <Trackpoint>
            <Time>2021-06-20T06:00:29.000Z</Time>
            <Position>
              <LatitudeDegrees>38.852064795792102813720703125</LatitudeDegrees>
              <LongitudeDegrees>-0.40297365747392177581787109375</LongitudeDegrees>
            </Position>
            <AltitudeMeters>413.399993896484375</AltitudeMeters>
            <DistanceMeters>1896.0819259484</DistanceMeters>
          </Trackpoint>
          <Trackpoint>
            <Time>2021-06-20T06:00:32.000Z</Time>
            <Position>
              <LatitudeDegrees>38.8520537316799163818359375</LatitudeDegrees>
              <LongitudeDegrees>-0.40301942266523838043212890625</LongitudeDegrees>
            </Position>
            <AltitudeMeters>413.79998779296875</AltitudeMeters>
            <DistanceMeters>1900.2349304039</DistanceMeters>
          </Trackpoint>
          <Trackpoint>
            <Time>2021-06-20T06:00:35.000Z</Time>
            <Position>
              <LatitudeDegrees>38.852046020328998565673828125</LatitudeDegrees>
              <LongitudeDegrees>-0.4030731506645679473876953125</LongitudeDegrees>
            </Position>
            <AltitudeMeters>414.399993896484375</AltitudeMeters>
            <DistanceMeters>1904.9710374431</DistanceMeters>
          </Trackpoint>
          <Trackpoint>
            <Time>2021-06-20T06:00:36.000Z</Time>
            <Position>
              <LatitudeDegrees>38.8520424999296665191650390625</LatitudeDegrees>
              <LongitudeDegrees>-0.40309418924152851104736328125</LongitudeDegrees>
            </Position>
            <AltitudeMeters>414.79998779296875</AltitudeMeters>
            <DistanceMeters>1906.8331731402</DistanceMeters>
          </Trackpoint>
          <Trackpoint>
            <Time>2021-06-20T06:00:38.000Z</Time>
            <Position>
              <LatitudeDegrees>38.8520341180264949798583984375</LatitudeDegrees>
              <LongitudeDegrees>-0.40313509292900562286376953125</LongitudeDegrees>
            </Position>
            <AltitudeMeters>415.20001220703125</AltitudeMeters>
            <DistanceMeters>1910.5000224452</DistanceMeters>
          </Trackpoint>
          <Trackpoint>
            <Time>2021-06-20T06:00:42.000Z</Time>
            <Position>
              <LatitudeDegrees>38.8520069606602191925048828125</LatitudeDegrees>
              <LongitudeDegrees>-0.403208434581756591796875</LongitudeDegrees>
            </Position>
            <AltitudeMeters>415.399993896484375</AltitudeMeters>
            <DistanceMeters>1917.5390585616</DistanceMeters>
          </Trackpoint>
          <Trackpoint>
            <Time>2021-06-20T06:00:43.000Z</Time>
            <Position>
              <LatitudeDegrees>38.85200344026088714599609375</LatitudeDegrees>
              <LongitudeDegrees>-0.40322561748325824737548828125</LongitudeDegrees>
            </Position>
            <AltitudeMeters>415.600006103515625</AltitudeMeters>
            <DistanceMeters>1919.0801328962</DistanceMeters>
          </Trackpoint>
          <Trackpoint>
            <Time>2021-06-20T06:00:45.000Z</Time>
            <Position>
              <LatitudeDegrees>38.85199564509093761444091796875</LatitudeDegrees>
              <LongitudeDegrees>-0.40325872600078582763671875</LongitudeDegrees>
            </Position>
            <AltitudeMeters>416</AltitudeMeters>
            <DistanceMeters>1922.0791254167</DistanceMeters>
          </Trackpoint>
          <Trackpoint>
            <Time>2021-06-20T06:00:46.000Z</Time>
            <Position>
              <LatitudeDegrees>38.851993381977081298828125</LatitudeDegrees>
              <LongitudeDegrees>-0.403273813426494598388671875</LongitudeDegrees>
            </Position>
            <AltitudeMeters>416.20001220703125</AltitudeMeters>
            <DistanceMeters>1923.4094994179</DistanceMeters>
          </Trackpoint>
          <Trackpoint>
            <Time>2021-06-20T06:00:48.000Z</Time>
            <Position>
              <LatitudeDegrees>38.851993717253208160400390625</LatitudeDegrees>
              <LongitudeDegrees>-0.40329904295504093170166015625</LongitudeDegrees>
            </Position>
            <AltitudeMeters>416.600006103515625</AltitudeMeters>
            <DistanceMeters>1925.5951138484</DistanceMeters>
          </Trackpoint>
          <Trackpoint>
            <Time>2021-06-20T06:00:50.000Z</Time>
            <Position>
              <LatitudeDegrees>38.8519893586635589599609375</LatitudeDegrees>
              <LongitudeDegrees>-0.40332569740712642669677734375</LongitudeDegrees>
            </Position>
            <AltitudeMeters>417</AltitudeMeters>
            <DistanceMeters>1927.9536148744</DistanceMeters>
          </Trackpoint>
          <Trackpoint>
            <Time>2021-06-20T06:00:52.000Z</Time>
            <Position>
              <LatitudeDegrees>38.851982653141021728515625</LatitudeDegrees>
              <LongitudeDegrees>-0.403346903622150421142578125</LongitudeDegrees>
            </Position>
            <AltitudeMeters>417.399993896484375</AltitudeMeters>
            <DistanceMeters>1929.9378309235</DistanceMeters>
          </Trackpoint>
          <Trackpoint>
            <Time>2021-06-20T06:00:54.000Z</Time>
            <Position>
              <LatitudeDegrees>38.8519690744578838348388671875</LatitudeDegrees>
              <LongitudeDegrees>-0.40337045677006244659423828125</LongitudeDegrees>
            </Position>
            <AltitudeMeters>418</AltitudeMeters>
            <DistanceMeters>1932.4770187032</DistanceMeters>
          </Trackpoint>
          <Trackpoint>
            <Time>2021-06-20T06:00:56.000Z</Time>
            <Position>
              <LatitudeDegrees>38.8519546575844287872314453125</LatitudeDegrees>
              <LongitudeDegrees>-0.4034023918211460113525390625</LongitudeDegrees>
            </Position>
            <AltitudeMeters>418</AltitudeMeters>
            <DistanceMeters>1935.6742122436</DistanceMeters>
          </Trackpoint>
          <Trackpoint>
            <Time>2021-06-20T06:01:00.000Z</Time>
            <Position>
              <LatitudeDegrees>38.85192221961915493011474609375</LatitudeDegrees>
              <LongitudeDegrees>-0.4034895636141300201416015625</LongitudeDegrees>
            </Position>
            <AltitudeMeters>418.600006103515625</AltitudeMeters>
            <DistanceMeters>1944.0484330231</DistanceMeters>
          </Trackpoint>
          <Trackpoint>
            <Time>2021-06-20T06:01:01.000Z</Time>
            <Position>
              <LatitudeDegrees>38.85191358625888824462890625</LatitudeDegrees>
              <LongitudeDegrees>-0.40350456722080707550048828125</LongitudeDegrees>
            </Position>
            <AltitudeMeters>418.79998779296875</AltitudeMeters>
            <DistanceMeters>1945.6666796572</DistanceMeters>
          </Trackpoint>
          <Trackpoint>
            <Time>2021-06-20T06:01:03.000Z</Time>
            <Position>
              <LatitudeDegrees>38.85190277360379695892333984375</LatitudeDegrees>
              <LongitudeDegrees>-0.403534658253192901611328125</LongitudeDegrees>
            </Position>
            <AltitudeMeters>419.20001220703125</AltitudeMeters>
            <DistanceMeters>1948.5395684246</DistanceMeters>
          </Trackpoint>
          <Trackpoint>
            <Time>2021-06-20T06:01:09.000Z</Time>
            <Position>
              <LatitudeDegrees>38.8518832437694072723388671875</LatitudeDegrees>
              <LongitudeDegrees>-0.40364286862313747406005859375</LongitudeDegrees>
            </Position>
            <AltitudeMeters>420.600006103515625</AltitudeMeters>
            <DistanceMeters>1958.1677959236</DistanceMeters>
          </Trackpoint>
          <Trackpoint>
            <Time>2021-06-20T06:01:12.000Z</Time>
            <Position>
              <LatitudeDegrees>38.8518659770488739013671875</LatitudeDegrees>
              <LongitudeDegrees>-0.4036903940141201019287109375</LongitudeDegrees>
            </Position>
            <AltitudeMeters>421.20001220703125</AltitudeMeters>
            <DistanceMeters>1962.7142060438</DistanceMeters>
          </Trackpoint>
          <Trackpoint>
            <Time>2021-06-20T06:01:13.000Z</Time>
            <Position>
              <LatitudeDegrees>38.8518547452986240386962890625</LatitudeDegrees>
              <LongitudeDegrees>-0.40370590053498744964599609375</LongitudeDegrees>
            </Position>
            <AltitudeMeters>421.399993896484375</AltitudeMeters>
            <DistanceMeters>1964.5494767359</DistanceMeters>
          </Trackpoint>
          <Trackpoint>
            <Time>2021-06-20T06:01:18.000Z</Time>
            <Position>
              <LatitudeDegrees>38.85180638171732425689697265625</LatitudeDegrees>
              <LongitudeDegrees>-0.40376725606620311737060546875</LongitudeDegrees>
            </Position>
            <AltitudeMeters>421.20001220703125</AltitudeMeters>
            <DistanceMeters>1972.1158949543</DistanceMeters>
          </Trackpoint>
          <Trackpoint>
            <Time>2021-06-20T06:01:23.000Z</Time>
            <Position>
              <LatitudeDegrees>38.8517558388411998748779296875</LatitudeDegrees>
              <LongitudeDegrees>-0.40382710285484790802001953125</LongitudeDegrees>
            </Position>
            <AltitudeMeters>422</AltitudeMeters>
            <DistanceMeters>1979.7677584961</DistanceMeters>
          </Trackpoint>
          <Trackpoint>
            <Time>2021-06-20T06:01:27.000Z</Time>
            <Position>
              <LatitudeDegrees>38.8517211377620697021484375</LatitudeDegrees>
              <LongitudeDegrees>-0.403873622417449951171875</LongitudeDegrees>
            </Position>
            <AltitudeMeters>423</AltitudeMeters>
            <DistanceMeters>1985.350931777</DistanceMeters>
          </Trackpoint>
          <Trackpoint>
            <Time>2021-06-20T06:01:30.000Z</Time>
            <Position>
              <LatitudeDegrees>38.8516931422054767608642578125</LatitudeDegrees>
              <LongitudeDegrees>-0.40389013476669788360595703125</LongitudeDegrees>
            </Position>
            <AltitudeMeters>423.399993896484375</AltitudeMeters>
            <DistanceMeters>1988.7798032429</DistanceMeters>
          </Trackpoint>
          <Trackpoint>
            <Time>2021-06-20T06:01:34.000Z</Time>
            <Position>
              <LatitudeDegrees>38.85164880193769931793212890625</LatitudeDegrees>
              <LongitudeDegrees>-0.40391318500041961669921875</LongitudeDegrees>
            </Position>
            <AltitudeMeters>424</AltitudeMeters>
            <DistanceMeters>1994.1046919774</DistanceMeters>
          </Trackpoint>
          <Trackpoint>
            <Time>2021-06-20T06:01:35.000Z</Time>
            <Position>
              <LatitudeDegrees>38.8516398333013057708740234375</LatitudeDegrees>
              <LongitudeDegrees>-0.4039227403700351715087890625</LongitudeDegrees>
            </Position>
            <AltitudeMeters>424</AltitudeMeters>
            <DistanceMeters>1995.400683574</DistanceMeters>
          </Trackpoint>
          <Trackpoint>
            <Time>2021-06-20T06:01:37.000Z</Time>
            <Position>
              <LatitudeDegrees>38.851619549095630645751953125</LatitudeDegrees>
              <LongitudeDegrees>-0.403937995433807373046875</LongitudeDegrees>
            </Position>
            <AltitudeMeters>424.600006103515625</AltitudeMeters>
            <DistanceMeters>1998.0169400493</DistanceMeters>
          </Trackpoint>
          <Trackpoint>
            <Time>2021-06-20T06:01:39.000Z</Time>
            <Position>
              <LatitudeDegrees>38.8515989296138286590576171875</LatitudeDegrees>
              <LongitudeDegrees>-0.40394310839474201202392578125</LongitudeDegrees>
            </Position>
            <AltitudeMeters>424.79998779296875</AltitudeMeters>
            <DistanceMeters>2000.3562190675</DistanceMeters>
          </Trackpoint>
          <Trackpoint>
            <Time>2021-06-20T06:01:42.000Z</Time>
            <Position>
              <LatitudeDegrees>38.851572610437870025634765625</LatitudeDegrees>
              <LongitudeDegrees>-0.4039693437516689300537109375</LongitudeDegrees>
            </Position>
            <AltitudeMeters>425</AltitudeMeters>
            <DistanceMeters>2004.0659140011</DistanceMeters>
          </Trackpoint>
          <Trackpoint>
            <Time>2021-06-20T06:01:44.000Z</Time>
            <Position>
              <LatitudeDegrees>38.85154402814805507659912109375</LatitudeDegrees>
              <LongitudeDegrees>-0.40398116223514080047607421875</LongitudeDegrees>
            </Position>
            <AltitudeMeters>425.20001220703125</AltitudeMeters>
            <DistanceMeters>2007.4080995976</DistanceMeters>
          </Trackpoint>
          <Trackpoint>
            <Time>2021-06-20T06:01:48.000Z</Time>
            <Position>
              <LatitudeDegrees>38.8514725305140018463134765625</LatitudeDegrees>
              <LongitudeDegrees>-0.40403061546385288238525390625</LongitudeDegrees>
            </Position>
            <AltitudeMeters>426.20001220703125</AltitudeMeters>
            <DistanceMeters>2016.447133377</DistanceMeters>
          </Trackpoint>
          <Trackpoint>
            <Time>2021-06-20T06:01:50.000Z</Time>
            <Position>
              <LatitudeDegrees>38.85144813917577266693115234375</LatitudeDegrees>
              <LongitudeDegrees>-0.4040488041937351226806640625</LongitudeDegrees>
            </Position>
            <AltitudeMeters>426.79998779296875</AltitudeMeters>
            <DistanceMeters>2019.5873313766</DistanceMeters>
          </Trackpoint>
          <Trackpoint>
            <Time>2021-06-20T06:01:53.000Z</Time>
            <Position>
              <LatitudeDegrees>38.85142886079847812652587890625</LatitudeDegrees>
              <LongitudeDegrees>-0.40407839231193065643310546875</LongitudeDegrees>
            </Position>
            <AltitudeMeters>427.20001220703125</AltitudeMeters>
            <DistanceMeters>2022.930867624</DistanceMeters>
          </Trackpoint>
          <Trackpoint>
            <Time>2021-06-20T06:01:56.000Z</Time>
            <Position>
              <LatitudeDegrees>38.8514078222215175628662109375</LatitudeDegrees>
              <LongitudeDegrees>-0.40412901900708675384521484375</LongitudeDegrees>
            </Position>
            <AltitudeMeters>427.20001220703125</AltitudeMeters>
            <DistanceMeters>2027.9041340938</DistanceMeters>
          </Trackpoint>
          <Trackpoint>
            <Time>2021-06-20T06:01:57.000Z</Time>
            <Position>
              <LatitudeDegrees>38.85139700956642627716064453125</LatitudeDegrees>
              <LongitudeDegrees>-0.40414444170892238616943359375</LongitudeDegrees>
            </Position>
            <AltitudeMeters>427.20001220703125</AltitudeMeters>
            <DistanceMeters>2029.7021239066</DistanceMeters>
          </Trackpoint>
          <Trackpoint>
            <Time>2021-06-20T06:01:58.000Z</Time>
            <Position>
              <LatitudeDegrees>38.85138292796909809112548828125</LatitudeDegrees>
              <LongitudeDegrees>-0.40416506119072437286376953125</LongitudeDegrees>
            </Position>
            <AltitudeMeters>427.20001220703125</AltitudeMeters>
            <DistanceMeters>2032.0796915406</DistanceMeters>
          </Trackpoint>
          <Trackpoint>
            <Time>2021-06-20T06:02:03.000Z</Time>
            <Position>
              <LatitudeDegrees>38.851344287395477294921875</LatitudeDegrees>
              <LongitudeDegrees>-0.404247455298900604248046875</LongitudeDegrees>
            </Position>
            <AltitudeMeters>428.399993896484375</AltitudeMeters>
            <DistanceMeters>2040.4160857439</DistanceMeters>
          </Trackpoint>
          <Trackpoint>
            <Time>2021-06-20T06:02:04.000Z</Time>
            <Position>
              <LatitudeDegrees>38.8513357378542423248291015625</LatitudeDegrees>
              <LongitudeDegrees>-0.40425608865916728973388671875</LongitudeDegrees>
            </Position>
            <AltitudeMeters>428.79998779296875</AltitudeMeters>
            <DistanceMeters>2041.6255783581</DistanceMeters>
          </Trackpoint>
          <Trackpoint>
            <Time>2021-06-20T06:02:06.000Z</Time>
            <Position>
              <LatitudeDegrees>38.8513199798762798309326171875</LatitudeDegrees>
              <LongitudeDegrees>-0.404275618493556976318359375</LongitudeDegrees>
            </Position>
            <AltitudeMeters>429.399993896484375</AltitudeMeters>
            <DistanceMeters>2044.0631571363</DistanceMeters>
          </Trackpoint>
          <Trackpoint>
            <Time>2021-06-20T06:02:07.000Z</Time>
            <Position>
              <LatitudeDegrees>38.85131436400115489959716796875</LatitudeDegrees>
              <LongitudeDegrees>-0.40428391657769680023193359375</LongitudeDegrees>
            </Position>
            <AltitudeMeters>429.600006103515625</AltitudeMeters>
            <DistanceMeters>2045.01342428</DistanceMeters>
          </Trackpoint>
          <Trackpoint>
            <Time>2021-06-20T06:02:08.000Z</Time>
            <Position>
              <LatitudeDegrees>38.85131034068763256072998046875</LatitudeDegrees>
              <LongitudeDegrees>-0.40428693406283855438232421875</LongitudeDegrees>
            </Position>
            <AltitudeMeters>429.79998779296875</AltitudeMeters>
            <DistanceMeters>2045.5162583883</DistanceMeters>
          </Trackpoint>
          <Trackpoint>
            <Time>2021-06-20T06:02:12.000Z</Time>
            <Position>
              <LatitudeDegrees>38.8513149507343769073486328125</LatitudeDegrees>
              <LongitudeDegrees>-0.40428291074931621551513671875</LongitudeDegrees>
            </Position>
            <AltitudeMeters>430.600006103515625</AltitudeMeters>
            <DistanceMeters>2046.1321018836</DistanceMeters>
          </Trackpoint>
          <Trackpoint>
            <Time>2021-06-20T06:02:14.000Z</Time>
            <Position>
              <LatitudeDegrees>38.85131050832569599151611328125</LatitudeDegrees>
              <LongitudeDegrees>-0.40425650775432586669921875</LongitudeDegrees>
            </Position>
            <AltitudeMeters>430.600006103515625</AltitudeMeters>
            <DistanceMeters>2048.4752379184</DistanceMeters>
          </Trackpoint>
          <Trackpoint>
            <Time>2021-06-20T06:02:16.000Z</Time>
            <Position>
              <LatitudeDegrees>38.851304389536380767822265625</LatitudeDegrees>
              <LongitudeDegrees>-0.404225997626781463623046875</LongitudeDegrees>
            </Position>
            <AltitudeMeters>430.399993896484375</AltitudeMeters>
            <DistanceMeters>2051.2063261892</DistanceMeters>
          </Trackpoint>
          <Trackpoint>
            <Time>2021-06-20T06:02:19.000Z</Time>
            <Position>
              <LatitudeDegrees>38.8513216562569141387939453125</LatitudeDegrees>
              <LongitudeDegrees>-0.404179729521274566650390625</LongitudeDegrees>
            </Position>
            <AltitudeMeters>430.399993896484375</AltitudeMeters>
            <DistanceMeters>2055.6533327568</DistanceMeters>
          </Trackpoint>
          <Trackpoint>
            <Time>2021-06-20T06:02:20.000Z</Time>
            <Position>
              <LatitudeDegrees>38.85132743977010250091552734375</LatitudeDegrees>
              <LongitudeDegrees>-0.4041617922484874725341796875</LongitudeDegrees>
            </Position>
            <AltitudeMeters>430.600006103515625</AltitudeMeters>
            <DistanceMeters>2057.3372104256</DistanceMeters>
          </Trackpoint>
          <Trackpoint>
            <Time>2021-06-20T06:02:23.000Z</Time>
            <Position>
              <LatitudeDegrees>38.851349987089633941650390625</LatitudeDegrees>
              <LongitudeDegrees>-0.4041001014411449432373046875</LongitudeDegrees>
            </Position>
            <AltitudeMeters>431.20001220703125</AltitudeMeters>
            <DistanceMeters>2063.2441737215</DistanceMeters>
          </Trackpoint>
          <Trackpoint>
            <Time>2021-06-20T06:02:24.000Z</Time>
            <Position>
              <LatitudeDegrees>38.8513582013547420501708984375</LatitudeDegrees>
              <LongitudeDegrees>-0.4040803201496601104736328125</LongitudeDegrees>
            </Position>
            <AltitudeMeters>431.399993896484375</AltitudeMeters>
            <DistanceMeters>2065.1869994866</DistanceMeters>
          </Trackpoint>
          <Trackpoint>
            <Time>2021-06-20T06:02:26.000Z</Time>
            <Position>
              <LatitudeDegrees>38.851367421448230743408203125</LatitudeDegrees>
              <LongitudeDegrees>-0.40404687635600566864013671875</LongitudeDegrees>
            </Position>
            <AltitudeMeters>431.600006103515625</AltitudeMeters>
            <DistanceMeters>2068.2603461902</DistanceMeters>
          </Trackpoint>
          <Trackpoint>
            <Time>2021-06-20T06:02:31.000Z</Time>
            <Position>
              <LatitudeDegrees>38.85137219913303852081298828125</LatitudeDegrees>
              <LongitudeDegrees>-0.40398535318672657012939453125</LongitudeDegrees>
            </Position>
            <AltitudeMeters>432.600006103515625</AltitudeMeters>
            <DistanceMeters>2073.6207289419</DistanceMeters>
          </Trackpoint>
          <Trackpoint>
            <Time>2021-06-20T06:02:32.000Z</Time>
            <Position>
              <LatitudeDegrees>38.85137303732335567474365234375</LatitudeDegrees>
              <LongitudeDegrees>-0.40397412143647670745849609375</LongitudeDegrees>
            </Position>
            <AltitudeMeters>432.79998779296875</AltitudeMeters>
            <DistanceMeters>2074.5944630055</DistanceMeters>
          </Trackpoint>
          <Trackpoint>
            <Time>2021-06-20T06:02:36.000Z</Time>
            <Position>
              <LatitudeDegrees>38.85139700956642627716064453125</LatitudeDegrees>
              <LongitudeDegrees>-0.40389616973698139190673828125</LongitudeDegrees>
            </Position>
            <AltitudeMeters>433.20001220703125</AltitudeMeters>
            <DistanceMeters>2081.8588808582</DistanceMeters>
          </Trackpoint>
          <Trackpoint>
            <Time>2021-06-20T06:02:40.000Z</Time>
            <Position>
              <LatitudeDegrees>38.851425088942050933837890625</LatitudeDegrees>
              <LongitudeDegrees>-0.40383364073932170867919921875</LongitudeDegrees>
            </Position>
            <AltitudeMeters>433.79998779296875</AltitudeMeters>
            <DistanceMeters>2088.114786173</DistanceMeters>
          </Trackpoint>
          <Trackpoint>
            <Time>2021-06-20T06:02:43.000Z</Time>
            <Position>
              <LatitudeDegrees>38.85142944753170013427734375</LatitudeDegrees>
              <LongitudeDegrees>-0.403776057064533233642578125</LongitudeDegrees>
            </Position>
            <AltitudeMeters>434.600006103515625</AltitudeMeters>
            <DistanceMeters>2093.1287399841</DistanceMeters>
          </Trackpoint>
          <Trackpoint>
            <Time>2021-06-20T06:02:46.000Z</Time>
            <Position>
              <LatitudeDegrees>38.8514582812786102294921875</LatitudeDegrees>
              <LongitudeDegrees>-0.40370799601078033447265625</LongitudeDegrees>
            </Position>
            <AltitudeMeters>435</AltitudeMeters>
            <DistanceMeters>2099.8441105443</DistanceMeters>
          </Trackpoint>
          <Trackpoint>
            <Time>2021-06-20T06:02:52.000Z</Time>
            <Position>
              <LatitudeDegrees>38.85152332484722137451171875</LatitudeDegrees>
              <LongitudeDegrees>-0.40362644009292125701904296875</LongitudeDegrees>
            </Position>
            <AltitudeMeters>436.20001220703125</AltitudeMeters>
            <DistanceMeters>2109.9625593741</DistanceMeters>
          </Trackpoint>
          <Trackpoint>
            <Time>2021-06-20T06:02:56.000Z</Time>
            <Position>
              <LatitudeDegrees>38.8515628874301910400390625</LatitudeDegrees>
              <LongitudeDegrees>-0.40357950143516063690185546875</LongitudeDegrees>
            </Position>
            <AltitudeMeters>437.20001220703125</AltitudeMeters>
            <DistanceMeters>2115.9582857124</DistanceMeters>
          </Trackpoint>
          <Trackpoint>
            <Time>2021-06-20T06:02:58.000Z</Time>
            <Position>
              <LatitudeDegrees>38.85158660821616649627685546875</LatitudeDegrees>
              <LongitudeDegrees>-0.40355217643082141876220703125</LongitudeDegrees>
            </Position>
            <AltitudeMeters>437.600006103515625</AltitudeMeters>
            <DistanceMeters>2119.5062325219</DistanceMeters>
          </Trackpoint>
          <Trackpoint>
            <Time>2021-06-20T06:03:01.000Z</Time>
            <Position>
              <LatitudeDegrees>38.85161175392568111419677734375</LatitudeDegrees>
              <LongitudeDegrees>-0.40350322611629962921142578125</LongitudeDegrees>
            </Position>
            <AltitudeMeters>438.399993896484375</AltitudeMeters>
            <DistanceMeters>2124.5899397108</DistanceMeters>
          </Trackpoint>
          <Trackpoint>
            <Time>2021-06-20T06:03:05.000Z</Time>
            <Position>
              <LatitudeDegrees>38.85162332095205783843994140625</LatitudeDegrees>
              <LongitudeDegrees>-0.40346450172364711761474609375</LongitudeDegrees>
            </Position>
            <AltitudeMeters>439</AltitudeMeters>
            <DistanceMeters>2128.1859193364</DistanceMeters>
          </Trackpoint>
          <Trackpoint>
            <Time>2021-06-20T06:03:06.000Z</Time>
            <Position>
              <LatitudeDegrees>38.8516277633607387542724609375</LatitudeDegrees>
              <LongitudeDegrees>-0.4034506715834140777587890625</LongitudeDegrees>
            </Position>
            <AltitudeMeters>439</AltitudeMeters>
            <DistanceMeters>2129.481910933</DistanceMeters>
          </Trackpoint>
          <Trackpoint>
            <Time>2021-06-20T06:03:11.000Z</Time>
            <Position>
              <LatitudeDegrees>38.85165316052734851837158203125</LatitudeDegrees>
              <LongitudeDegrees>-0.4033464007079601287841796875</LongitudeDegrees>
            </Position>
            <AltitudeMeters>439.600006103515625</AltitudeMeters>
            <DistanceMeters>2138.9517414049</DistanceMeters>
          </Trackpoint>
          <Trackpoint>
            <Time>2021-06-20T06:03:13.000Z</Time>
            <Position>
              <LatitudeDegrees>38.851655758917331695556640625</LatitudeDegrees>
              <LongitudeDegrees>-0.403293929994106292724609375</LongitudeDegrees>
            </Position>
            <AltitudeMeters>440.20001220703125</AltitudeMeters>
            <DistanceMeters>2143.5090625282</DistanceMeters>
          </Trackpoint>
          <Trackpoint>
            <Time>2021-06-20T06:03:17.000Z</Time>
            <Position>
              <LatitudeDegrees>38.85162390768527984619140625</LatitudeDegrees>
              <LongitudeDegrees>-0.40320365689694881439208984375</LongitudeDegrees>
            </Position>
            <AltitudeMeters>440.600006103515625</AltitudeMeters>
            <DistanceMeters>2152.0993934124</DistanceMeters>
          </Trackpoint>
          <Trackpoint>
            <Time>2021-06-20T06:03:20.000Z</Time>
            <Position>
              <LatitudeDegrees>38.8515694253146648406982421875</LatitudeDegrees>
              <LongitudeDegrees>-0.4031636752188205718994140625</LongitudeDegrees>
            </Position>
            <AltitudeMeters>440.600006103515625</AltitudeMeters>
            <DistanceMeters>2159.0836953067</DistanceMeters>
          </Trackpoint>
          <Trackpoint>
            <Time>2021-06-20T06:03:21.000Z</Time>
            <Position>
              <LatitudeDegrees>38.85154469870030879974365234375</LatitudeDegrees>
              <LongitudeDegrees>-0.4031534492969512939453125</LongitudeDegrees>
            </Position>
            <AltitudeMeters>440.79998779296875</AltitudeMeters>
            <DistanceMeters>2161.9753818019</DistanceMeters>
          </Trackpoint>
          <Trackpoint>
            <Time>2021-06-20T06:03:26.000Z</Time>
            <Position>
              <LatitudeDegrees>38.85145048610866069793701171875</LatitudeDegrees>
              <LongitudeDegrees>-0.40308580733835697174072265625</LongitudeDegrees>
            </Position>
            <AltitudeMeters>442</AltitudeMeters>
            <DistanceMeters>2173.9894045204</DistanceMeters>
          </Trackpoint>
          <Trackpoint>
            <Time>2021-06-20T06:03:27.000Z</Time>
            <Position>
              <LatitudeDegrees>38.8514329679310321807861328125</LatitudeDegrees>
              <LongitudeDegrees>-0.403071977198123931884765625</LongitudeDegrees>
            </Position>
            <AltitudeMeters>442.399993896484375</AltitudeMeters>
            <DistanceMeters>2176.2779508576</DistanceMeters>
          </Trackpoint>
          <Trackpoint>
            <Time>2021-06-20T06:03:30.000Z</Time>
            <Position>
              <LatitudeDegrees>38.8513997755944728851318359375</LatitudeDegrees>
              <LongitudeDegrees>-0.4030252061784267425537109375</LongitudeDegrees>
            </Position>
            <AltitudeMeters>443.20001220703125</AltitudeMeters>
            <DistanceMeters>2181.7632233861</DistanceMeters>
          </Trackpoint>
          <Trackpoint>
            <Time>2021-06-20T06:03:33.000Z</Time>
            <Position>
              <LatitudeDegrees>38.85138309560716152191162109375</LatitudeDegrees>
              <LongitudeDegrees>-0.40297147817909717559814453125</LongitudeDegrees>
            </Position>
            <AltitudeMeters>443.600006103515625</AltitudeMeters>
            <DistanceMeters>2186.7771771972</DistanceMeters>
          </Trackpoint>
          <Trackpoint>
            <Time>2021-06-20T06:03:35.000Z</Time>
            <Position>
              <LatitudeDegrees>38.851374797523021697998046875</LatitudeDegrees>
              <LongitudeDegrees>-0.40294700302183628082275390625</LongitudeDegrees>
            </Position>
            <AltitudeMeters>444</AltitudeMeters>
            <DistanceMeters>2189.0912289104</DistanceMeters>
          </Trackpoint>
          <Trackpoint>
            <Time>2021-06-20T06:03:36.000Z</Time>
            <Position>
              <LatitudeDegrees>38.85137085802853107452392578125</LatitudeDegrees>
              <LongitudeDegrees>-0.40293728001415729522705078125</LongitudeDegrees>
            </Position>
            <AltitudeMeters>444.20001220703125</AltitudeMeters>
            <DistanceMeters>2190.0414960541</DistanceMeters>
          </Trackpoint>
          <Trackpoint>
            <Time>2021-06-20T06:03:41.000Z</Time>
            <Position>
              <LatitudeDegrees>38.8513536751270294189453125</LatitudeDegrees>
              <LongitudeDegrees>-0.40284474380314350128173828125</LongitudeDegrees>
            </Position>
            <AltitudeMeters>445.20001220703125</AltitudeMeters>
            <DistanceMeters>2198.2874936058</DistanceMeters>
          </Trackpoint>
          <Trackpoint>
            <Time>2021-06-20T06:03:42.000Z</Time>
            <Position>
              <LatitudeDegrees>38.85135258547961711883544921875</LatitudeDegrees>
              <LongitudeDegrees>-0.40282915346324443817138671875</LongitudeDegrees>
            </Position>
            <AltitudeMeters>445.20001220703125</AltitudeMeters>
            <DistanceMeters>2199.6447465647</DistanceMeters>
          </Trackpoint>
          <Trackpoint>
            <Time>2021-06-20T06:03:48.000Z</Time>
            <Position>
              <LatitudeDegrees>38.8513293676078319549560546875</LatitudeDegrees>
              <LongitudeDegrees>-0.402729995548725128173828125</LongitudeDegrees>
            </Position>
            <AltitudeMeters>446.399993896484375</AltitudeMeters>
            <DistanceMeters>2208.6201190894</DistanceMeters>
          </Trackpoint>
          <Trackpoint>
            <Time>2021-06-20T06:03:51.000Z</Time>
            <Position>
              <LatitudeDegrees>38.8512834347784519195556640625</LatitudeDegrees>
              <LongitudeDegrees>-0.40270510129630565643310546875</LongitudeDegrees>
            </Position>
            <AltitudeMeters>447.399993896484375</AltitudeMeters>
            <DistanceMeters>2214.1700371744</DistanceMeters>
          </Trackpoint>
          <Trackpoint>
            <Time>2021-06-20T06:03:52.000Z</Time>
            <Position>
              <LatitudeDegrees>38.851268850266933441162109375</LatitudeDegrees>
              <LongitudeDegrees>-0.40270610712468624114990234375</LongitudeDegrees>
            </Position>
            <AltitudeMeters>447.600006103515625</AltitudeMeters>
            <DistanceMeters>2215.7938543814</DistanceMeters>
          </Trackpoint>
          <Trackpoint>
            <Time>2021-06-20T06:03:53.000Z</Time>
            <Position>
              <LatitudeDegrees>38.85124915279448032379150390625</LatitudeDegrees>
              <LongitudeDegrees>-0.40271147154271602630615234375</LongitudeDegrees>
            </Position>
            <AltitudeMeters>447.79998779296875</AltitudeMeters>
            <DistanceMeters>2218.0345512602</DistanceMeters>
          </Trackpoint>
          <Trackpoint>
            <Time>2021-06-20T06:03:54.000Z</Time>
            <Position>
              <LatitudeDegrees>38.8512271083891391754150390625</LatitudeDegrees>
              <LongitudeDegrees>-0.402721278369426727294921875</LongitudeDegrees>
            </Position>
            <AltitudeMeters>448</AltitudeMeters>
            <DistanceMeters>2220.6300159637</DistanceMeters>
          </Trackpoint>
          <Trackpoint>
            <Time>2021-06-20T06:03:58.000Z</Time>
            <Position>
              <LatitudeDegrees>38.8511506654322147369384765625</LatitudeDegrees>
              <LongitudeDegrees>-0.40280300192534923553466796875</LongitudeDegrees>
            </Position>
            <AltitudeMeters>448.600006103515625</AltitudeMeters>
            <DistanceMeters>2231.7005262274</DistanceMeters>
          </Trackpoint>
          <Trackpoint>
            <Time>2021-06-20T06:03:59.000Z</Time>
            <Position>
              <LatitudeDegrees>38.85113817639648914337158203125</LatitudeDegrees>
              <LongitudeDegrees>-0.40282445959746837615966796875</LongitudeDegrees>
            </Position>
            <AltitudeMeters>448.79998779296875</AltitudeMeters>
            <DistanceMeters>2234.0204239752</DistanceMeters>
          </Trackpoint>
          <Trackpoint>
            <Time>2021-06-20T06:04:00.000Z</Time>
            <Position>
              <LatitudeDegrees>38.85112635791301727294921875</LatitudeDegrees>
              <LongitudeDegrees>-0.40284432470798492431640625</LongitudeDegrees>
            </Position>
            <AltitudeMeters>449</AltitudeMeters>
            <DistanceMeters>2236.185281863</DistanceMeters>
          </Trackpoint>
          <Trackpoint>
            <Time>2021-06-20T06:04:02.000Z</Time>
            <Position>
              <LatitudeDegrees>38.85110246948897838592529296875</LatitudeDegrees>
              <LongitudeDegrees>-0.402877517044544219970703125</LongitudeDegrees>
            </Position>
            <AltitudeMeters>449.600006103515625</AltitudeMeters>
            <DistanceMeters>2240.1010282545</DistanceMeters>
          </Trackpoint>
          <Trackpoint>
            <Time>2021-06-20T06:04:03.000Z</Time>
            <Position>
              <LatitudeDegrees>38.8510923273861408233642578125</LatitudeDegrees>
              <LongitudeDegrees>-0.40289126336574554443359375</LongitudeDegrees>
            </Position>
            <AltitudeMeters>449.79998779296875</AltitudeMeters>
            <DistanceMeters>2241.7414436836</DistanceMeters>
          </Trackpoint>
          <Trackpoint>
            <Time>2021-06-20T06:04:05.000Z</Time>
            <Position>
              <LatitudeDegrees>38.851080425083637237548828125</LatitudeDegrees>
              <LongitudeDegrees>-0.4029266349971294403076171875</LongitudeDegrees>
            </Position>
            <AltitudeMeters>450</AltitudeMeters>
            <DistanceMeters>2245.0822780831</DistanceMeters>
          </Trackpoint>
          <Trackpoint>
            <Time>2021-06-20T06:04:06.000Z</Time>
            <Position>
              <LatitudeDegrees>38.85107849724590778350830078125</LatitudeDegrees>
              <LongitudeDegrees>-0.40293828584253787994384765625</LongitudeDegrees>
            </Position>
            <AltitudeMeters>450.20001220703125</AltitudeMeters>
            <DistanceMeters>2246.1145324221</DistanceMeters>
          </Trackpoint>
          <Trackpoint>
            <Time>2021-06-20T06:04:11.000Z</Time>
            <Position>
              <LatitudeDegrees>38.8510618172585964202880859375</LatitudeDegrees>
              <LongitudeDegrees>-0.40304054506123065948486328125</LongitudeDegrees>
            </Position>
            <AltitudeMeters>450.79998779296875</AltitudeMeters>
            <DistanceMeters>2255.1705334305</DistanceMeters>
          </Trackpoint>
          <Trackpoint>
            <Time>2021-06-20T06:04:14.000Z</Time>
            <Position>
              <LatitudeDegrees>38.85105519555509090423583984375</LatitudeDegrees>
              <LongitudeDegrees>-0.4031073488295078277587890625</LongitudeDegrees>
            </Position>
            <AltitudeMeters>451.79998779296875</AltitudeMeters>
            <DistanceMeters>2261.006752099</DistanceMeters>
          </Trackpoint>
          <Trackpoint>
            <Time>2021-06-20T06:04:16.000Z</Time>
            <Position>
              <LatitudeDegrees>38.85105125606060028076171875</LatitudeDegrees>
              <LongitudeDegrees>-0.4031485877931118011474609375</LongitudeDegrees>
            </Position>
            <AltitudeMeters>452</AltitudeMeters>
            <DistanceMeters>2264.6077505402</DistanceMeters>
          </Trackpoint>
          <Trackpoint>
            <Time>2021-06-20T06:04:17.000Z</Time>
            <Position>
              <LatitudeDegrees>38.85104681365191936492919921875</LatitudeDegrees>
              <LongitudeDegrees>-0.403168201446533203125</LongitudeDegrees>
            </Position>
            <AltitudeMeters>452</AltitudeMeters>
            <DistanceMeters>2266.3779020948</DistanceMeters>
          </Trackpoint>
          <Trackpoint>
            <Time>2021-06-20T06:04:22.000Z</Time>
            <Position>
              <LatitudeDegrees>38.85100901126861572265625</LatitudeDegrees>
              <LongitudeDegrees>-0.40323886089026927947998046875</LongitudeDegrees>
            </Position>
            <AltitudeMeters>452.399993896484375</AltitudeMeters>
            <DistanceMeters>2273.8082377116</DistanceMeters>
          </Trackpoint>
          <Trackpoint>
            <Time>2021-06-20T06:04:23.000Z</Time>
            <Position>
              <LatitudeDegrees>38.85100054554641246795654296875</LatitudeDegrees>
              <LongitudeDegrees>-0.40324875153601169586181640625</LongitudeDegrees>
            </Position>
            <AltitudeMeters>453</AltitudeMeters>
            <DistanceMeters>2275.0831548696</DistanceMeters>
          </Trackpoint>
          <Trackpoint>
            <Time>2021-06-20T06:04:24.000Z</Time>
            <Position>
              <LatitudeDegrees>38.8509915769100189208984375</LatitudeDegrees>
              <LongitudeDegrees>-0.40326233021914958953857421875</LongitudeDegrees>
            </Position>
            <AltitudeMeters>453.600006103515625</AltitudeMeters>
            <DistanceMeters>2276.6212966148</DistanceMeters>
          </Trackpoint>
          <Trackpoint>
            <Time>2021-06-20T06:04:27.000Z</Time>
            <Position>
              <LatitudeDegrees>38.85097615420818328857421875</LatitudeDegrees>
              <LongitudeDegrees>-0.4033339954912662506103515625</LongitudeDegrees>
            </Position>
            <AltitudeMeters>454</AltitudeMeters>
            <DistanceMeters>2283.0649207107</DistanceMeters>
          </Trackpoint>
          <Trackpoint>
            <Time>2021-06-20T06:04:29.000Z</Time>
            <Position>
              <LatitudeDegrees>38.8509701192378997802734375</LatitudeDegrees>
              <LongitudeDegrees>-0.4033980332314968109130859375</LongitudeDegrees>
            </Position>
            <AltitudeMeters>454</AltitudeMeters>
            <DistanceMeters>2288.6561750109</DistanceMeters>
          </Trackpoint>
          <Trackpoint>
            <Time>2021-06-20T06:04:31.000Z</Time>
            <Position>
              <LatitudeDegrees>38.8509486615657806396484375</LatitudeDegrees>
              <LongitudeDegrees>-0.403426699340343475341796875</LongitudeDegrees>
            </Position>
            <AltitudeMeters>454.20001220703125</AltitudeMeters>
            <DistanceMeters>2292.1034319784</DistanceMeters>
          </Trackpoint>
          <Trackpoint>
            <Time>2021-06-20T06:04:36.000Z</Time>
            <Position>
              <LatitudeDegrees>38.85091312229633331298828125</LatitudeDegrees>
              <LongitudeDegrees>-0.40342108346521854400634765625</LongitudeDegrees>
            </Position>
            <AltitudeMeters>454.600006103515625</AltitudeMeters>
            <DistanceMeters>2296.088893616</DistanceMeters>
          </Trackpoint>
          <Trackpoint>
            <Time>2021-06-20T06:04:42.000Z</Time>
            <Position>
              <LatitudeDegrees>38.850860483944416046142578125</LatitudeDegrees>
              <LongitudeDegrees>-0.40351881645619869232177734375</LongitudeDegrees>
            </Position>
            <AltitudeMeters>455.399993896484375</AltitudeMeters>
            <DistanceMeters>2306.3891056595</DistanceMeters>
          </Trackpoint>
          <Trackpoint>
            <Time>2021-06-20T06:04:46.000Z</Time>
            <Position>
              <LatitudeDegrees>38.850818909704685211181640625</LatitudeDegrees>
              <LongitudeDegrees>-0.40358461439609527587890625</LongitudeDegrees>
            </Position>
            <AltitudeMeters>456.399993896484375</AltitudeMeters>
            <DistanceMeters>2313.7326481645</DistanceMeters>
          </Trackpoint>
          <Trackpoint>
            <Time>2021-06-20T06:04:49.000Z</Time>
            <Position>
              <LatitudeDegrees>38.8507872261106967926025390625</LatitudeDegrees>
              <LongitudeDegrees>-0.40362291969358921051025390625</LongitudeDegrees>
            </Position>
            <AltitudeMeters>456.79998779296875</AltitudeMeters>
            <DistanceMeters>2318.5762148876</DistanceMeters>
          </Trackpoint>
          <Trackpoint>
            <Time>2021-06-20T06:04:57.000Z</Time>
            <Position>
              <LatitudeDegrees>38.85063953697681427001953125</LatitudeDegrees>
              <LongitudeDegrees>-0.40372266434133052825927734375</LongitudeDegrees>
            </Position>
            <AltitudeMeters>457.399993896484375</AltitudeMeters>
            <DistanceMeters>2337.1492585326</DistanceMeters>
          </Trackpoint>
          <Trackpoint>
            <Time>2021-06-20T06:04:58.000Z</Time>
            <Position>
              <LatitudeDegrees>38.8506241142749786376953125</LatitudeDegrees>
              <LongitudeDegrees>-0.40374152362346649169921875</LongitudeDegrees>
            </Position>
            <AltitudeMeters>457.399993896484375</AltitudeMeters>
            <DistanceMeters>2339.5192179305</DistanceMeters>
          </Trackpoint>
          <Trackpoint>
            <Time>2021-06-20T06:05:03.000Z</Time>
            <Position>
              <LatitudeDegrees>38.85055412538349628448486328125</LatitudeDegrees>
              <LongitudeDegrees>-0.403806902468204498291015625</LongitudeDegrees>
            </Position>
            <AltitudeMeters>458.20001220703125</AltitudeMeters>
            <DistanceMeters>2349.1526023625</DistanceMeters>
          </Trackpoint>
          <Trackpoint>
            <Time>2021-06-20T06:05:05.000Z</Time>
            <Position>
              <LatitudeDegrees>38.85053099133074283599853515625</LatitudeDegrees>
              <LongitudeDegrees>-0.40383431129157543182373046875</LongitudeDegrees>
            </Position>
            <AltitudeMeters>458.399993896484375</AltitudeMeters>
            <DistanceMeters>2352.654436712</DistanceMeters>
          </Trackpoint>
          <Trackpoint>
            <Time>2021-06-20T06:05:08.000Z</Time>
            <Position>
              <LatitudeDegrees>38.85050953365862369537353515625</LatitudeDegrees>
              <LongitudeDegrees>-0.40388845838606357574462890625</LongitudeDegrees>
            </Position>
            <AltitudeMeters>459.399993896484375</AltitudeMeters>
            <DistanceMeters>2357.9196370579</DistanceMeters>
          </Trackpoint>
          <Trackpoint>
            <Time>2021-06-20T06:05:09.000Z</Time>
            <Position>
              <LatitudeDegrees>38.85050450451672077178955078125</LatitudeDegrees>
              <LongitudeDegrees>-0.4039103351533412933349609375</LongitudeDegrees>
            </Position>
            <AltitudeMeters>459.600006103515625</AltitudeMeters>
            <DistanceMeters>2359.8947302263</DistanceMeters>
          </Trackpoint>
          <Trackpoint>
            <Time>2021-06-20T06:05:15.000Z</Time>
            <Position>
              <LatitudeDegrees>38.8504512794315814971923828125</LatitudeDegrees>
              <LongitudeDegrees>-0.4040327109396457672119140625</LongitudeDegrees>
            </Position>
            <AltitudeMeters>460.399993896484375</AltitudeMeters>
            <DistanceMeters>2372.044407573</DistanceMeters>
          </Trackpoint>
          <Trackpoint>
            <Time>2021-06-20T06:05:16.000Z</Time>
            <Position>
              <LatitudeDegrees>38.85044750757515430450439453125</LatitudeDegrees>
              <LongitudeDegrees>-0.4040461219847202301025390625</LongitudeDegrees>
            </Position>
            <AltitudeMeters>460.600006103515625</AltitudeMeters>
            <DistanceMeters>2373.2834043428</DistanceMeters>
          </Trackpoint>
          <Trackpoint>
            <Time>2021-06-20T06:05:21.000Z</Time>
            <Position>
              <LatitudeDegrees>38.85043971240520477294921875</LatitudeDegrees>
              <LongitudeDegrees>-0.40413220413029193878173828125</LongitudeDegrees>
            </Position>
            <AltitudeMeters>460.79998779296875</AltitudeMeters>
            <DistanceMeters>2380.7947236425</DistanceMeters>
          </Trackpoint>
          <Trackpoint>
            <Time>2021-06-20T06:05:22.000Z</Time>
            <Position>
              <LatitudeDegrees>38.8504371978342533111572265625</LatitudeDegrees>
              <LongitudeDegrees>-0.4041473753750324249267578125</LongitudeDegrees>
            </Position>
            <AltitudeMeters>460.79998779296875</AltitudeMeters>
            <DistanceMeters>2382.138604325</DistanceMeters>
          </Trackpoint>
          <Trackpoint>
            <Time>2021-06-20T06:05:24.000Z</Time>
            <Position>
              <LatitudeDegrees>38.850432671606540679931640625</LatitudeDegrees>
              <LongitudeDegrees>-0.4041886143386363983154296875</LongitudeDegrees>
            </Position>
            <AltitudeMeters>461</AltitudeMeters>
            <DistanceMeters>2385.749619471</DistanceMeters>
          </Trackpoint>
          <Trackpoint>
            <Time>2021-06-20T06:05:26.000Z</Time>
            <Position>
              <LatitudeDegrees>38.85043174959719181060791015625</LatitudeDegrees>
              <LongitudeDegrees>-0.404216609895229339599609375</LongitudeDegrees>
            </Position>
            <AltitudeMeters>461.20001220703125</AltitudeMeters>
            <DistanceMeters>2388.1779192709</DistanceMeters>
          </Trackpoint>
          <Trackpoint>
            <Time>2021-06-20T06:05:28.000Z</Time>
            <Position>
              <LatitudeDegrees>38.850429989397525787353515625</LatitudeDegrees>
              <LongitudeDegrees>-0.40425424464046955108642578125</LongitudeDegrees>
            </Position>
            <AltitudeMeters>461.600006103515625</AltitudeMeters>
            <DistanceMeters>2391.4449592701</DistanceMeters>
          </Trackpoint>
          <Trackpoint>
            <Time>2021-06-20T06:05:31.000Z</Time>
            <Position>
              <LatitudeDegrees>38.85042873211205005645751953125</LatitudeDegrees>
              <LongitudeDegrees>-0.40427251718938350677490234375</LongitudeDegrees>
            </Position>
            <AltitudeMeters>462.600006103515625</AltitudeMeters>
            <DistanceMeters>2393.0350603374</DistanceMeters>
          </Trackpoint>
          <Trackpoint>
            <Time>2021-06-20T06:05:32.000Z</Time>
            <Position>
              <LatitudeDegrees>38.85043258778750896453857421875</LatitudeDegrees>
              <LongitudeDegrees>-0.40426748804748058319091796875</LongitudeDegrees>
            </Position>
            <AltitudeMeters>462.79998779296875</AltitudeMeters>
            <DistanceMeters>2393.6360620494</DistanceMeters>
          </Trackpoint>
          <Trackpoint>
            <Time>2021-06-20T06:05:34.000Z</Time>
            <Position>
              <LatitudeDegrees>38.85043661110103130340576171875</LatitudeDegrees>
              <LongitudeDegrees>-0.40423848666250705718994140625</LongitudeDegrees>
            </Position>
            <AltitudeMeters>462.79998779296875</AltitudeMeters>
            <DistanceMeters>2396.1894353461</DistanceMeters>
          </Trackpoint>
          <Trackpoint>
            <Time>2021-06-20T06:05:36.000Z</Time>
            <Position>
              <LatitudeDegrees>38.8504439033567905426025390625</LatitudeDegrees>
              <LongitudeDegrees>-0.40419238619506359100341796875</LongitudeDegrees>
            </Position>
            <AltitudeMeters>463.20001220703125</AltitudeMeters>
            <DistanceMeters>2400.2689489061</DistanceMeters>
          </Trackpoint>
          <Trackpoint>
            <Time>2021-06-20T06:05:39.000Z</Time>
            <Position>
              <LatitudeDegrees>38.85045656003057956695556640625</LatitudeDegrees>
              <LongitudeDegrees>-0.40414075367152690887451171875</LongitudeDegrees>
            </Position>
            <AltitudeMeters>464</AltitudeMeters>
            <DistanceMeters>2404.9609981781</DistanceMeters>
          </Trackpoint>
          <Trackpoint>
            <Time>2021-06-20T06:05:43.000Z</Time>
            <Position>
              <LatitudeDegrees>38.85046360082924365997314453125</LatitudeDegrees>
              <LongitudeDegrees>-0.40408886969089508056640625</LongitudeDegrees>
            </Position>
            <AltitudeMeters>464.79998779296875</AltitudeMeters>
            <DistanceMeters>2409.5272270936</DistanceMeters>
          </Trackpoint>
          <Trackpoint>
            <Time>2021-06-20T06:05:44.000Z</Time>
            <Position>
              <LatitudeDegrees>38.85046653449535369873046875</LatitudeDegrees>
              <LongitudeDegrees>-0.40406565181910991668701171875</LongitudeDegrees>
            </Position>
            <AltitudeMeters>465</AltitudeMeters>
            <DistanceMeters>2411.565323059</DistanceMeters>
          </Trackpoint>
          <Trackpoint>
            <Time>2021-06-20T06:05:49.000Z</Time>
            <Position>
              <LatitudeDegrees>38.8504740782082080841064453125</LatitudeDegrees>
              <LongitudeDegrees>-0.40396724827587604522705078125</LongitudeDegrees>
            </Position>
            <AltitudeMeters>465.600006103515625</AltitudeMeters>
            <DistanceMeters>2420.1361848518</DistanceMeters>
          </Trackpoint>
          <Trackpoint>
            <Time>2021-06-20T06:05:52.000Z</Time>
            <Position>
              <LatitudeDegrees>38.85046862997114658355712890625</LatitudeDegrees>
              <LongitudeDegrees>-0.40391460992395877838134765625</LongitudeDegrees>
            </Position>
            <AltitudeMeters>466</AltitudeMeters>
            <DistanceMeters>2424.7388535709</DistanceMeters>
          </Trackpoint>
          <Trackpoint>
            <Time>2021-06-20T06:05:55.000Z</Time>
            <Position>
              <LatitudeDegrees>38.8504811190068721771240234375</LatitudeDegrees>
              <LongitudeDegrees>-0.40383850224316120147705078125</LongitudeDegrees>
            </Position>
            <AltitudeMeters>466.600006103515625</AltitudeMeters>
            <DistanceMeters>2431.4797247806</DistanceMeters>
          </Trackpoint>
          <Trackpoint>
            <Time>2021-06-20T06:05:59.000Z</Time>
            <Position>
              <LatitudeDegrees>38.85049310512840747833251953125</LatitudeDegrees>
              <LongitudeDegrees>-0.4037540964782238006591796875</LongitudeDegrees>
            </Position>
            <AltitudeMeters>467.20001220703125</AltitudeMeters>
            <DistanceMeters>2438.9161344078</DistanceMeters>
          </Trackpoint>
          <Trackpoint>
            <Time>2021-06-20T06:06:01.000Z</Time>
            <Position>
              <LatitudeDegrees>38.85049746371805667877197265625</LatitudeDegrees>
              <LongitudeDegrees>-0.40370137430727481842041015625</LongitudeDegrees>
            </Position>
            <AltitudeMeters>467.600006103515625</AltitudeMeters>
            <DistanceMeters>2443.5129135931</DistanceMeters>
          </Trackpoint>
          <Trackpoint>
            <Time>2021-06-20T06:06:04.000Z</Time>
            <Position>
              <LatitudeDegrees>38.85050031356513500213623046875</LatitudeDegrees>
              <LongitudeDegrees>-0.403648652136325836181640625</LongitudeDegrees>
            </Position>
            <AltitudeMeters>468.399993896484375</AltitudeMeters>
            <DistanceMeters>2448.0949358249</DistanceMeters>
          </Trackpoint>
          <Trackpoint>
            <Time>2021-06-20T06:06:07.000Z</Time>
            <Position>
              <LatitudeDegrees>38.85051003657281398773193359375</LatitudeDegrees>
              <LongitudeDegrees>-0.40359425358474254608154296875</LongitudeDegrees>
            </Position>
            <AltitudeMeters>469</AltitudeMeters>
            <DistanceMeters>2452.9329062819</DistanceMeters>
          </Trackpoint>
          <Trackpoint>
            <Time>2021-06-20T06:06:13.000Z</Time>
            <Position>
              <LatitudeDegrees>38.85053534992039203643798828125</LatitudeDegrees>
              <LongitudeDegrees>-0.40350875817239284515380859375</LongitudeDegrees>
            </Position>
            <AltitudeMeters>469.399993896484375</AltitudeMeters>
            <DistanceMeters>2460.8618023086</DistanceMeters>
          </Trackpoint>
          <Trackpoint>
            <Time>2021-06-20T06:06:14.000Z</Time>
            <Position>
              <LatitudeDegrees>38.850542642176151275634765625</LatitudeDegrees>
              <LongitudeDegrees>-0.403487719595432281494140625</LongitudeDegrees>
            </Position>
            <AltitudeMeters>469.79998779296875</AltitudeMeters>
            <DistanceMeters>2462.8573633104</DistanceMeters>
          </Trackpoint>
          <Trackpoint>
            <Time>2021-06-20T06:06:20.000Z</Time>
            <Position>
              <LatitudeDegrees>38.8505713082849979400634765625</LatitudeDegrees>
              <LongitudeDegrees>-0.40335637517273426055908203125</LongitudeDegrees>
            </Position>
            <AltitudeMeters>470.399993896484375</AltitudeMeters>
            <DistanceMeters>2474.6812223887</DistanceMeters>
          </Trackpoint>
          <Trackpoint>
            <Time>2021-06-20T06:06:22.000Z</Time>
            <Position>
              <LatitudeDegrees>38.85058027692139148712158203125</LatitudeDegrees>
              <LongitudeDegrees>-0.40330558083951473236083984375</LongitudeDegrees>
            </Position>
            <AltitudeMeters>471</AltitudeMeters>
            <DistanceMeters>2479.1967414741</DistanceMeters>
          </Trackpoint>
          <Trackpoint>
            <Time>2021-06-20T06:06:25.000Z</Time>
            <Position>
              <LatitudeDegrees>38.85057508014142513275146484375</LatitudeDegrees>
              <LongitudeDegrees>-0.40325176902115345001220703125</LongitudeDegrees>
            </Position>
            <AltitudeMeters>471.79998779296875</AltitudeMeters>
            <DistanceMeters>2483.8984036414</DistanceMeters>
          </Trackpoint>
          <Trackpoint>
            <Time>2021-06-20T06:06:28.000Z</Time>
            <Position>
              <LatitudeDegrees>38.85057055391371250152587890625</LatitudeDegrees>
              <LongitudeDegrees>-0.4031767509877681732177734375</LongitudeDegrees>
            </Position>
            <AltitudeMeters>472.20001220703125</AltitudeMeters>
            <DistanceMeters>2490.4214182975</DistanceMeters>
          </Trackpoint>
          <Trackpoint>
            <Time>2021-06-20T06:06:31.000Z</Time>
            <Position>
              <LatitudeDegrees>38.8505481742322444915771484375</LatitudeDegrees>
              <LongitudeDegrees>-0.40312193334102630615234375</LongitudeDegrees>
            </Position>
            <AltitudeMeters>473</AltitudeMeters>
            <DistanceMeters>2495.7868524554</DistanceMeters>
          </Trackpoint>
          <Trackpoint>
            <Time>2021-06-20T06:06:32.000Z</Time>
            <Position>
              <LatitudeDegrees>38.85053803212940692901611328125</LatitudeDegrees>
              <LongitudeDegrees>-0.403106510639190673828125</LongitudeDegrees>
            </Position>
            <AltitudeMeters>473.20001220703125</AltitudeMeters>
            <DistanceMeters>2497.5364798199</DistanceMeters>
          </Trackpoint>
          <Trackpoint>
            <Time>2021-06-20T06:06:35.000Z</Time>
            <Position>
              <LatitudeDegrees>38.850511796772480010986328125</LatitudeDegrees>
              <LongitudeDegrees>-0.40304892696440219879150390625</LongitudeDegrees>
            </Position>
            <AltitudeMeters>473.600006103515625</AltitudeMeters>
            <DistanceMeters>2503.3198528105</DistanceMeters>
          </Trackpoint>
          <Trackpoint>
            <Time>2021-06-20T06:06:36.000Z</Time>
            <Position>
              <LatitudeDegrees>38.85050383396446704864501953125</LatitudeDegrees>
              <LongitudeDegrees>-0.4030322469770908355712890625</LongitudeDegrees>
            </Position>
            <AltitudeMeters>473.79998779296875</AltitudeMeters>
            <DistanceMeters>2505.0144218735</DistanceMeters>
          </Trackpoint>
          <Trackpoint>
            <Time>2021-06-20T06:06:39.000Z</Time>
            <Position>
              <LatitudeDegrees>38.85046117007732391357421875</LatitudeDegrees>
              <LongitudeDegrees>-0.40298270992934703826904296875</LongitudeDegrees>
            </Position>
            <AltitudeMeters>474</AltitudeMeters>
            <DistanceMeters>2511.4165712765</DistanceMeters>
          </Trackpoint>
          <Trackpoint>
            <Time>2021-06-20T06:06:41.000Z</Time>
            <Position>
              <LatitudeDegrees>38.85041347704827785491943359375</LatitudeDegrees>
              <LongitudeDegrees>-0.40293593890964984893798828125</LongitudeDegrees>
            </Position>
            <AltitudeMeters>474.20001220703125</AltitudeMeters>
            <DistanceMeters>2518.0962125625</DistanceMeters>
          </Trackpoint>
          <Trackpoint>
            <Time>2021-06-20T06:06:46.000Z</Time>
            <Position>
              <LatitudeDegrees>38.85029261000454425811767578125</LatitudeDegrees>
              <LongitudeDegrees>-0.40285061113536357879638671875</LongitudeDegrees>
            </Position>
            <AltitudeMeters>475.20001220703125</AltitudeMeters>
            <DistanceMeters>2533.4479539983</DistanceMeters>
          </Trackpoint>
          <Trackpoint>
            <Time>2021-06-20T06:06:47.000Z</Time>
            <Position>
              <LatitudeDegrees>38.85026243515312671661376953125</LatitudeDegrees>
              <LongitudeDegrees>-0.4028387926518917083740234375</LongitudeDegrees>
            </Position>
            <AltitudeMeters>475.600006103515625</AltitudeMeters>
            <DistanceMeters>2536.9600878828</DistanceMeters>
          </Trackpoint>
          <Trackpoint>
            <Time>2021-06-20T06:06:51.000Z</Time>
            <Position>
              <LatitudeDegrees>38.85013796389102935791015625</LatitudeDegrees>
              <LongitudeDegrees>-0.4028342664241790771484375</LongitudeDegrees>
            </Position>
            <AltitudeMeters>475.600006103515625</AltitudeMeters>
            <DistanceMeters>2550.8196616899</DistanceMeters>
          </Trackpoint>
          <Trackpoint>
            <Time>2021-06-20T06:06:54.000Z</Time>
            <Position>
              <LatitudeDegrees>38.85003377683460712432861328125</LatitudeDegrees>
              <LongitudeDegrees>-0.402898974716663360595703125</LongitudeDegrees>
            </Position>
            <AltitudeMeters>475.79998779296875</AltitudeMeters>
            <DistanceMeters>2563.7013030735</DistanceMeters>
          </Trackpoint>
          <Trackpoint>
            <Time>2021-06-20T06:06:55.000Z</Time>
            <Position>
              <LatitudeDegrees>38.85000896640121936798095703125</LatitudeDegrees>
              <LongitudeDegrees>-0.4029410518705844879150390625</LongitudeDegrees>
            </Position>
            <AltitudeMeters>476</AltitudeMeters>
            <DistanceMeters>2568.2764224377</DistanceMeters>
          </Trackpoint>
          <Trackpoint>
            <Time>2021-06-20T06:06:57.000Z</Time>
            <Position>
              <LatitudeDegrees>38.84999488480389118194580078125</LatitudeDegrees>
              <LongitudeDegrees>-0.40300265885889530181884765625</LongitudeDegrees>
            </Position>
            <AltitudeMeters>477</AltitudeMeters>
            <DistanceMeters>2573.8417761734</DistanceMeters>
          </Trackpoint>
          <Trackpoint>
            <Time>2021-06-20T06:06:59.000Z</Time>
            <Position>
              <LatitudeDegrees>38.85001868940889835357666015625</LatitudeDegrees>
              <LongitudeDegrees>-0.40303853340446949005126953125</LongitudeDegrees>
            </Position>
            <AltitudeMeters>477.79998779296875</AltitudeMeters>
            <DistanceMeters>2577.92681978</DistanceMeters>
          </Trackpoint>
          <Trackpoint>
            <Time>2021-06-20T06:07:00.000Z</Time>
            <Position>
              <LatitudeDegrees>38.85003847070038318634033203125</LatitudeDegrees>
              <LongitudeDegrees>-0.40305647067725658416748046875</LongitudeDegrees>
            </Position>
            <AltitudeMeters>478</AltitudeMeters>
            <DistanceMeters>2580.6179387495</DistanceMeters>
          </Trackpoint>
          <Trackpoint>
            <Time>2021-06-20T06:07:03.000Z</Time>
            <Position>
              <LatitudeDegrees>38.85009504854679107666015625</LatitudeDegrees>
              <LongitudeDegrees>-0.403124950826168060302734375</LongitudeDegrees>
            </Position>
            <AltitudeMeters>478.399993896484375</AltitudeMeters>
            <DistanceMeters>2589.2716329867</DistanceMeters>
          </Trackpoint>
          <Trackpoint>
            <Time>2021-06-20T06:07:05.000Z</Time>
            <Position>
              <LatitudeDegrees>38.85012782178819179534912109375</LatitudeDegrees>
              <LongitudeDegrees>-0.40317180566489696502685546875</LongitudeDegrees>
            </Position>
            <AltitudeMeters>479</AltitudeMeters>
            <DistanceMeters>2594.7305021246</DistanceMeters>
          </Trackpoint>
          <Trackpoint>
            <Time>2021-06-20T06:07:09.000Z</Time>
            <Position>
              <LatitudeDegrees>38.85015833191573619842529296875</LatitudeDegrees>
              <LongitudeDegrees>-0.40328797884285449981689453125</LongitudeDegrees>
            </Position>
            <AltitudeMeters>480.600006103515625</AltitudeMeters>
            <DistanceMeters>2605.3573613035</DistanceMeters>
          </Trackpoint>
          <Trackpoint>
            <Time>2021-06-20T06:07:13.000Z</Time>
            <Position>
              <LatitudeDegrees>38.8501493632793426513671875</LatitudeDegrees>
              <LongitudeDegrees>-0.4034002125263214111328125</LongitudeDegrees>
            </Position>
            <AltitudeMeters>481.399993896484375</AltitudeMeters>
            <DistanceMeters>2615.1368060535</DistanceMeters>
          </Trackpoint>
          <Trackpoint>
            <Time>2021-06-20T06:07:14.000Z</Time>
            <Position>
              <LatitudeDegrees>38.8501388020813465118408203125</LatitudeDegrees>
              <LongitudeDegrees>-0.40343231521546840667724609375</LongitudeDegrees>
            </Position>
            <AltitudeMeters>481.600006103515625</AltitudeMeters>
            <DistanceMeters>2618.1582969578</DistanceMeters>
          </Trackpoint>
          <Trackpoint>
            <Time>2021-06-20T06:07:19.000Z</Time>
            <Position>
              <LatitudeDegrees>38.8501076214015483856201171875</LatitudeDegrees>
              <LongitudeDegrees>-0.40357522666454315185546875</LongitudeDegrees>
            </Position>
            <AltitudeMeters>482.20001220703125</AltitudeMeters>
            <DistanceMeters>2631.023103255</DistanceMeters>
          </Trackpoint>
          <Trackpoint>
            <Time>2021-06-20T06:07:20.000Z</Time>
            <Position>
              <LatitudeDegrees>38.850100077688694000244140625</LatitudeDegrees>
              <LongitudeDegrees>-0.40360079146921634674072265625</LongitudeDegrees>
            </Position>
            <AltitudeMeters>482.79998779296875</AltitudeMeters>
            <DistanceMeters>2633.393062653</DistanceMeters>
          </Trackpoint>
          <Trackpoint>
            <Time>2021-06-20T06:07:23.000Z</Time>
            <Position>
              <LatitudeDegrees>38.8500630296766757965087890625</LatitudeDegrees>
              <LongitudeDegrees>-0.40366667322814464569091796875</LongitudeDegrees>
            </Position>
            <AltitudeMeters>483.79998779296875</AltitudeMeters>
            <DistanceMeters>2640.4365873376</DistanceMeters>
          </Trackpoint>
          <Trackpoint>
            <Time>2021-06-20T06:07:24.000Z</Time>
            <Position>
              <LatitudeDegrees>38.85005054064095020294189453125</LatitudeDegrees>
              <LongitudeDegrees>-0.4036898910999298095703125</LongitudeDegrees>
            </Position>
            <AltitudeMeters>484.20001220703125</AltitudeMeters>
            <DistanceMeters>2642.8852544769</DistanceMeters>
          </Trackpoint>
          <Trackpoint>
            <Time>2021-06-20T06:07:28.000Z</Time>
            <Position>
              <LatitudeDegrees>38.84999983012676239013671875</LatitudeDegrees>
              <LongitudeDegrees>-0.403816960752010345458984375</LongitudeDegrees>
            </Position>
            <AltitudeMeters>484.79998779296875</AltitudeMeters>
            <DistanceMeters>2655.2620964325</DistanceMeters>
          </Trackpoint>
          <Trackpoint>
            <Time>2021-06-20T06:07:29.000Z</Time>
            <Position>
              <LatitudeDegrees>38.84999178349971771240234375</LatitudeDegrees>
              <LongitudeDegrees>-0.40385191328823566436767578125</LongitudeDegrees>
            </Position>
            <AltitudeMeters>485</AltitudeMeters>
            <DistanceMeters>2658.4237881669</DistanceMeters>
          </Trackpoint>
          <Trackpoint>
            <Time>2021-06-20T06:07:32.000Z</Time>
            <Position>
              <LatitudeDegrees>38.849970996379852294921875</LatitudeDegrees>
              <LongitudeDegrees>-0.403941012918949127197265625</LongitudeDegrees>
            </Position>
            <AltitudeMeters>485.79998779296875</AltitudeMeters>
            <DistanceMeters>2666.4870722619</DistanceMeters>
          </Trackpoint>
          <Trackpoint>
            <Time>2021-06-20T06:07:35.000Z</Time>
            <Position>
              <LatitudeDegrees>38.84994744323194026947021484375</LatitudeDegrees>
              <LongitudeDegrees>-0.4040229879319667816162109375</LongitudeDegrees>
            </Position>
            <AltitudeMeters>486.600006103515625</AltitudeMeters>
            <DistanceMeters>2674.0606477433</DistanceMeters>
          </Trackpoint>
          <Trackpoint>
            <Time>2021-06-20T06:07:37.000Z</Time>
            <Position>
              <LatitudeDegrees>38.84993000887334346771240234375</LatitudeDegrees>
              <LongitudeDegrees>-0.40405944921076297760009765625</LongitudeDegrees>
            </Position>
            <AltitudeMeters>487.399993896484375</AltitudeMeters>
            <DistanceMeters>2677.7703426769</DistanceMeters>
          </Trackpoint>
          <Trackpoint>
            <Time>2021-06-20T06:07:41.000Z</Time>
            <Position>
              <LatitudeDegrees>38.84989463724195957183837890625</LatitudeDegrees>
              <LongitudeDegrees>-0.40414645336568355560302734375</LongitudeDegrees>
            </Position>
            <AltitudeMeters>488.399993896484375</AltitudeMeters>
            <DistanceMeters>2686.2782855996</DistanceMeters>
          </Trackpoint>
          <Trackpoint>
            <Time>2021-06-20T06:07:45.000Z</Time>
            <Position>
              <LatitudeDegrees>38.84989321231842041015625</LatitudeDegrees>
              <LongitudeDegrees>-0.4041353054344654083251953125</LongitudeDegrees>
            </Position>
            <AltitudeMeters>489.399993896484375</AltitudeMeters>
            <DistanceMeters>2687.2566455042</DistanceMeters>
          </Trackpoint>
          <Trackpoint>
            <Time>2021-06-20T06:07:46.000Z</Time>
            <Position>
              <LatitudeDegrees>38.849894218146800994873046875</LatitudeDegrees>
              <LongitudeDegrees>-0.40410806424915790557861328125</LongitudeDegrees>
            </Position>
            <AltitudeMeters>489.600006103515625</AltitudeMeters>
            <DistanceMeters>2689.6189721629</DistanceMeters>
          </Trackpoint>
          <Trackpoint>
            <Time>2021-06-20T06:07:49.000Z</Time>
            <Position>
              <LatitudeDegrees>38.84992548264563083648681640625</LatitudeDegrees>
              <LongitudeDegrees>-0.40399172343313694000244140625</LongitudeDegrees>
            </Position>
            <AltitudeMeters>490.600006103515625</AltitudeMeters>
            <DistanceMeters>2700.287387392</DistanceMeters>
          </Trackpoint>
          <Trackpoint>
            <Time>2021-06-20T06:07:52.000Z</Time>
            <Position>
              <LatitudeDegrees>38.8499401509761810302734375</LatitudeDegrees>
              <LongitudeDegrees>-0.4038630612194538116455078125</LongitudeDegrees>
            </Position>
            <AltitudeMeters>491.600006103515625</AltitudeMeters>
            <DistanceMeters>2711.5591740989</DistanceMeters>
          </Trackpoint>
          <Trackpoint>
            <Time>2021-06-20T06:07:53.000Z</Time>
            <Position>
              <LatitudeDegrees>38.8499480299651622772216796875</LatitudeDegrees>
              <LongitudeDegrees>-0.40382995270192623138427734375</LongitudeDegrees>
            </Position>
            <AltitudeMeters>491.79998779296875</AltitudeMeters>
            <DistanceMeters>2714.5596717601</DistanceMeters>
          </Trackpoint>
          <Trackpoint>
            <Time>2021-06-20T06:07:57.000Z</Time>
            <Position>
              <LatitudeDegrees>38.84993671439588069915771484375</LatitudeDegrees>
              <LongitudeDegrees>-0.40369835682213306427001953125</LongitudeDegrees>
            </Position>
            <AltitudeMeters>492.399993896484375</AltitudeMeters>
            <DistanceMeters>2726.0358934787</DistanceMeters>
          </Trackpoint>
          <Trackpoint>
            <Time>2021-06-20T06:07:58.000Z</Time>
            <Position>
              <LatitudeDegrees>38.8499275781214237213134765625</LatitudeDegrees>
              <LongitudeDegrees>-0.4036686010658740997314453125</LongitudeDegrees>
            </Position>
            <AltitudeMeters>493</AltitudeMeters>
            <DistanceMeters>2728.8096319541</DistanceMeters>
          </Trackpoint>
          <Trackpoint>
            <Time>2021-06-20T06:08:02.000Z</Time>
            <Position>
              <LatitudeDegrees>38.849906958639621734619140625</LatitudeDegrees>
              <LongitudeDegrees>-0.4035593010485172271728515625</LongitudeDegrees>
            </Position>
            <AltitudeMeters>494.399993896484375</AltitudeMeters>
            <DistanceMeters>2738.5580946276</DistanceMeters>
          </Trackpoint>
          <Trackpoint>
            <Time>2021-06-20T06:08:06.000Z</Time>
            <Position>
              <LatitudeDegrees>38.8498491235077381134033203125</LatitudeDegrees>
              <LongitudeDegrees>-0.40346123278141021728515625</LongitudeDegrees>
            </Position>
            <AltitudeMeters>495.79998779296875</AltitudeMeters>
            <DistanceMeters>2749.2205831941</DistanceMeters>
          </Trackpoint>
          <Trackpoint>
            <Time>2021-06-20T06:08:07.000Z</Time>
            <Position>
              <LatitudeDegrees>38.849835209548473358154296875</LatitudeDegrees>
              <LongitudeDegrees>-0.4034479893743991851806640625</LongitudeDegrees>
            </Position>
            <AltitudeMeters>496</AltitudeMeters>
            <DistanceMeters>2751.1494148339</DistanceMeters>
          </Trackpoint>
          <Trackpoint>
            <Time>2021-06-20T06:08:09.000Z</Time>
            <Position>
              <LatitudeDegrees>38.849780559539794921875</LatitudeDegrees>
              <LongitudeDegrees>-0.40348361246287822723388671875</LongitudeDegrees>
            </Position>
            <AltitudeMeters>496.399993896484375</AltitudeMeters>
            <DistanceMeters>2757.9715123114</DistanceMeters>
          </Trackpoint>
          <Trackpoint>
            <Time>2021-06-20T06:08:11.000Z</Time>
            <Position>
              <LatitudeDegrees>38.84973873384296894073486328125</LatitudeDegrees>
              <LongitudeDegrees>-0.40354781784117221832275390625</LongitudeDegrees>
            </Position>
            <AltitudeMeters>497.20001220703125</AltitudeMeters>
            <DistanceMeters>2765.2272235562</DistanceMeters>
          </Trackpoint>
          <Trackpoint>
            <Time>2021-06-20T06:08:12.000Z</Time>
            <Position>
              <LatitudeDegrees>38.8497277535498142242431640625</LatitudeDegrees>
              <LongitudeDegrees>-0.40357313118875026702880859375</LongitudeDegrees>
            </Position>
            <AltitudeMeters>497.399993896484375</AltitudeMeters>
            <DistanceMeters>2767.7377998562</DistanceMeters>
          </Trackpoint>
          <Trackpoint>
            <Time>2021-06-20T06:08:14.000Z</Time>
            <Position>
              <LatitudeDegrees>38.8497277535498142242431640625</LatitudeDegrees>
              <LongitudeDegrees>-0.4036447964608669281005859375</LongitudeDegrees>
            </Position>
            <AltitudeMeters>497.79998779296875</AltitudeMeters>
            <DistanceMeters>2773.9495239844</DistanceMeters>
          </Trackpoint>
          <Trackpoint>
            <Time>2021-06-20T06:08:15.000Z</Time>
            <Position>
              <LatitudeDegrees>38.8497324474155902862548828125</LatitudeDegrees>
              <LongitudeDegrees>-0.40367673151195049285888671875</LongitudeDegrees>
            </Position>
            <AltitudeMeters>498.20001220703125</AltitudeMeters>
            <DistanceMeters>2776.7652667137</DistanceMeters>
          </Trackpoint>
          <Trackpoint>
            <Time>2021-06-20T06:08:19.000Z</Time>
            <Position>
              <LatitudeDegrees>38.84976639412343502044677734375</LatitudeDegrees>
              <LongitudeDegrees>-0.4037839360535144805908203125</LongitudeDegrees>
            </Position>
            <AltitudeMeters>498.79998779296875</AltitudeMeters>
            <DistanceMeters>2786.7967756676</DistanceMeters>
          </Trackpoint>
          <Trackpoint>
            <Time>2021-06-20T06:08:21.000Z</Time>
            <Position>
              <LatitudeDegrees>38.849774859845638275146484375</LatitudeDegrees>
              <LongitudeDegrees>-0.40383531711995601654052734375</LongitudeDegrees>
            </Position>
            <AltitudeMeters>499.399993896484375</AltitudeMeters>
            <DistanceMeters>2791.3501321785</DistanceMeters>
          </Trackpoint>
          <Trackpoint>
            <Time>2021-06-20T06:08:23.000Z</Time>
            <Position>
              <LatitudeDegrees>38.849768154323101043701171875</LatitudeDegrees>
              <LongitudeDegrees>-0.4038811661303043365478515625</LongitudeDegrees>
            </Position>
            <AltitudeMeters>500</AltitudeMeters>
            <DistanceMeters>2795.394074369</DistanceMeters>
          </Trackpoint>
          <Trackpoint>
            <Time>2021-06-20T06:08:25.000Z</Time>
            <Position>
              <LatitudeDegrees>38.8497448526322841644287109375</LatitudeDegrees>
              <LongitudeDegrees>-0.40393170900642871856689453125</LongitudeDegrees>
            </Position>
            <AltitudeMeters>500.399993896484375</AltitudeMeters>
            <DistanceMeters>2800.485768534</DistanceMeters>
          </Trackpoint>
          <Trackpoint>
            <Time>2021-06-20T06:08:27.000Z</Time>
            <Position>
              <LatitudeDegrees>38.84970436803996562957763671875</LatitudeDegrees>
              <LongitudeDegrees>-0.40395383723080158233642578125</LongitudeDegrees>
            </Position>
            <AltitudeMeters>501</AltitudeMeters>
            <DistanceMeters>2805.3840246637</DistanceMeters>
          </Trackpoint>
          <Trackpoint>
            <Time>2021-06-20T06:08:30.000Z</Time>
            <Position>
              <LatitudeDegrees>38.849630020558834075927734375</LatitudeDegrees>
              <LongitudeDegrees>-0.40394327603280544281005859375</LongitudeDegrees>
            </Position>
            <AltitudeMeters>502</AltitudeMeters>
            <DistanceMeters>2813.7101220004</DistanceMeters>
          </Trackpoint>
          <Trackpoint>
            <Time>2021-06-20T06:08:31.000Z</Time>
            <Position>
              <LatitudeDegrees>38.84960378520190715789794921875</LatitudeDegrees>
              <LongitudeDegrees>-0.403930284082889556884765625</LongitudeDegrees>
            </Position>
            <AltitudeMeters>502.20001220703125</AltitudeMeters>
            <DistanceMeters>2816.8416811996</DistanceMeters>
          </Trackpoint>
          <Trackpoint>
            <Time>2021-06-20T06:08:35.000Z</Time>
            <Position>
              <LatitudeDegrees>38.8495242409408092498779296875</LatitudeDegrees>
              <LongitudeDegrees>-0.40387504734098911285400390625</LongitudeDegrees>
            </Position>
            <AltitudeMeters>503</AltitudeMeters>
            <DistanceMeters>2826.9073385403</DistanceMeters>
          </Trackpoint>
          <Trackpoint>
            <Time>2021-06-20T06:08:37.000Z</Time>
            <Position>
              <LatitudeDegrees>38.84948878549039363861083984375</LatitudeDegrees>
              <LongitudeDegrees>-0.40385761298239231109619140625</LongitudeDegrees>
            </Position>
            <AltitudeMeters>503.399993896484375</AltitudeMeters>
            <DistanceMeters>2831.1336242862</DistanceMeters>
          </Trackpoint>
          <Trackpoint>
            <Time>2021-06-20T06:08:41.000Z</Time>
            <Position>
              <LatitudeDegrees>38.84939641691744327545166015625</LatitudeDegrees>
              <LongitudeDegrees>-0.40379458107054233551025390625</LongitudeDegrees>
            </Position>
            <AltitudeMeters>504.399993896484375</AltitudeMeters>
            <DistanceMeters>2842.7766268018</DistanceMeters>
          </Trackpoint>
          <Trackpoint>
            <Time>2021-06-20T06:08:42.000Z</Time>
            <Position>
              <LatitudeDegrees>38.84937194176018238067626953125</LatitudeDegrees>
              <LongitudeDegrees>-0.4037879593670368194580078125</LongitudeDegrees>
            </Position>
            <AltitudeMeters>504.79998779296875</AltitudeMeters>
            <DistanceMeters>2845.5617364343</DistanceMeters>
          </Trackpoint>
          <Trackpoint>
            <Time>2021-06-20T06:08:43.000Z</Time>
            <Position>
              <LatitudeDegrees>38.8493475504219532012939453125</LatitudeDegrees>
              <LongitudeDegrees>-0.40377714671194553375244140625</LongitudeDegrees>
            </Position>
            <AltitudeMeters>505.399993896484375</AltitudeMeters>
            <DistanceMeters>2848.4346252017</DistanceMeters>
          </Trackpoint>
          <Trackpoint>
            <Time>2021-06-20T06:08:49.000Z</Time>
            <Position>
              <LatitudeDegrees>38.849227018654346466064453125</LatitudeDegrees>
              <LongitudeDegrees>-0.40371914394199848175048828125</LongitudeDegrees>
            </Position>
            <AltitudeMeters>506.399993896484375</AltitudeMeters>
            <DistanceMeters>2862.7609857826</DistanceMeters>
          </Trackpoint>
          <Trackpoint>
            <Time>2021-06-20T06:08:50.000Z</Time>
            <Position>
              <LatitudeDegrees>38.84920212440192699432373046875</LatitudeDegrees>
              <LongitudeDegrees>-0.40371880866587162017822265625</LongitudeDegrees>
            </Position>
            <AltitudeMeters>506.600006103515625</AltitudeMeters>
            <DistanceMeters>2865.5314667837</DistanceMeters>
          </Trackpoint>
          <Trackpoint>
            <Time>2021-06-20T06:08:54.000Z</Time>
            <Position>
              <LatitudeDegrees>38.84908142499625682830810546875</LatitudeDegrees>
              <LongitudeDegrees>-0.403707660734653472900390625</LongitudeDegrees>
            </Position>
            <AltitudeMeters>507.600006103515625</AltitudeMeters>
            <DistanceMeters>2879.0001417624</DistanceMeters>
          </Trackpoint>
          <Trackpoint>
            <Time>2021-06-20T06:08:55.000Z</Time>
            <Position>
              <LatitudeDegrees>38.8490535132586956024169921875</LatitudeDegrees>
              <LongitudeDegrees>-0.40370489470660686492919921875</LongitudeDegrees>
            </Position>
            <AltitudeMeters>507.79998779296875</AltitudeMeters>
            <DistanceMeters>2882.1158009507</DistanceMeters>
          </Trackpoint>
          <Trackpoint>
            <Time>2021-06-20T06:08:59.000Z</Time>
            <Position>
              <LatitudeDegrees>38.8489643298089504241943359375</LatitudeDegrees>
              <LongitudeDegrees>-0.4036925733089447021484375</LongitudeDegrees>
            </Position>
            <AltitudeMeters>508.399993896484375</AltitudeMeters>
            <DistanceMeters>2892.0994868326</DistanceMeters>
          </Trackpoint>
          <Trackpoint>
            <Time>2021-06-20T06:09:03.000Z</Time>
            <Position>
              <LatitudeDegrees>38.8488999567925930023193359375</LatitudeDegrees>
              <LongitudeDegrees>-0.40364488027989864349365234375</LongitudeDegrees>
            </Position>
            <AltitudeMeters>508.79998779296875</AltitudeMeters>
            <DistanceMeters>2900.3717246974</DistanceMeters>
          </Trackpoint>
          <Trackpoint>
            <Time>2021-06-20T06:09:04.000Z</Time>
            <Position>
              <LatitudeDegrees>38.848879002034664154052734375</LatitudeDegrees>
              <LongitudeDegrees>-0.4036360792815685272216796875</LongitudeDegrees>
            </Position>
            <AltitudeMeters>509.399993896484375</AltitudeMeters>
            <DistanceMeters>2902.8240768156</DistanceMeters>
          </Trackpoint>
          <Trackpoint>
            <Time>2021-06-20T06:09:05.000Z</Time>
            <Position>
              <LatitudeDegrees>38.84885586798191070556640625</LatitudeDegrees>
              <LongitudeDegrees>-0.403627865016460418701171875</LongitudeDegrees>
            </Position>
            <AltitudeMeters>510.399993896484375</AltitudeMeters>
            <DistanceMeters>2905.4949868461</DistanceMeters>
          </Trackpoint>
          <Trackpoint>
            <Time>2021-06-20T06:09:09.000Z</Time>
            <Position>
              <LatitudeDegrees>38.848748244345188140869140625</LatitudeDegrees>
              <LongitudeDegrees>-0.40363021194934844970703125</LongitudeDegrees>
            </Position>
            <AltitudeMeters>511.399993896484375</AltitudeMeters>
            <DistanceMeters>2917.4758922857</DistanceMeters>
          </Trackpoint>
          <Trackpoint>
            <Time>2021-06-20T06:09:10.000Z</Time>
            <Position>
              <LatitudeDegrees>38.8487175665795803070068359375</LatitudeDegrees>
              <LongitudeDegrees>-0.403635241091251373291015625</LongitudeDegrees>
            </Position>
            <AltitudeMeters>511.600006103515625</AltitudeMeters>
            <DistanceMeters>2920.9179062738</DistanceMeters>
          </Trackpoint>
          <Trackpoint>
            <Time>2021-06-20T06:09:13.000Z</Time>
            <Position>
              <LatitudeDegrees>38.84863014332950115203857421875</LatitudeDegrees>
              <LongitudeDegrees>-0.4036642424762248992919921875</LongitudeDegrees>
            </Position>
            <AltitudeMeters>513</AltitudeMeters>
            <DistanceMeters>2930.9678517973</DistanceMeters>
          </Trackpoint>
          <Trackpoint>
            <Time>2021-06-20T06:09:15.000Z</Time>
            <Position>
              <LatitudeDegrees>38.84858136065304279327392578125</LatitudeDegrees>
              <LongitudeDegrees>-0.40368695743381977081298828125</LongitudeDegrees>
            </Position>
            <AltitudeMeters>513.5999755859375</AltitudeMeters>
            <DistanceMeters>2936.7426307808</DistanceMeters>
          </Trackpoint>
          <Trackpoint>
            <Time>2021-06-20T06:09:18.000Z</Time>
            <Position>
              <LatitudeDegrees>38.8485207594931125640869140625</LatitudeDegrees>
              <LongitudeDegrees>-0.40368310175836086273193359375</LongitudeDegrees>
            </Position>
            <AltitudeMeters>514.20001220703125</AltitudeMeters>
            <DistanceMeters>2943.4955476351</DistanceMeters>
          </Trackpoint>
          <Trackpoint>
            <Time>2021-06-20T06:09:20.000Z</Time>
            <Position>
              <LatitudeDegrees>38.84848169982433319091796875</LatitudeDegrees>
              <LongitudeDegrees>-0.4036612249910831451416015625</LongitudeDegrees>
            </Position>
            <AltitudeMeters>514.79998779296875</AltitudeMeters>
            <DistanceMeters>2948.2383232383</DistanceMeters>
          </Trackpoint>
          <Trackpoint>
            <Time>2021-06-20T06:09:22.000Z</Time>
            <Position>
              <LatitudeDegrees>38.848429732024669647216796875</LatitudeDegrees>
              <LongitudeDegrees>-0.4036320559680461883544921875</LongitudeDegrees>
            </Position>
            <AltitudeMeters>515.4000244140625</AltitudeMeters>
            <DistanceMeters>2954.5502720079</DistanceMeters>
          </Trackpoint>
          <Trackpoint>
            <Time>2021-06-20T06:09:25.000Z</Time>
            <Position>
              <LatitudeDegrees>38.84835136123001575469970703125</LatitudeDegrees>
              <LongitudeDegrees>-0.4036233387887477874755859375</LongitudeDegrees>
            </Position>
            <AltitudeMeters>516</AltitudeMeters>
            <DistanceMeters>2963.3061471218</DistanceMeters>
          </Trackpoint>
          <Trackpoint>
            <Time>2021-06-20T06:09:28.000Z</Time>
            <Position>
              <LatitudeDegrees>38.8482830487191677093505859375</LatitudeDegrees>
              <LongitudeDegrees>-0.40361009538173675537109375</LongitudeDegrees>
            </Position>
            <AltitudeMeters>516.5999755859375</AltitudeMeters>
            <DistanceMeters>2970.9956816041</DistanceMeters>
          </Trackpoint>
          <Trackpoint>
            <Time>2021-06-20T06:09:30.000Z</Time>
            <Position>
              <LatitudeDegrees>38.848239965736865997314453125</LatitudeDegrees>
              <LongitudeDegrees>-0.4036121070384979248046875</LongitudeDegrees>
            </Position>
            <AltitudeMeters>517.20001220703125</AltitudeMeters>
            <DistanceMeters>2975.7942954594</DistanceMeters>
          </Trackpoint>
          <Trackpoint>
            <Time>2021-06-20T06:09:31.000Z</Time>
            <Position>
              <LatitudeDegrees>38.8482208549976348876953125</LatitudeDegrees>
              <LongitudeDegrees>-0.4036116041243076324462890625</LongitudeDegrees>
            </Position>
            <AltitudeMeters>517.79998779296875</AltitudeMeters>
            <DistanceMeters>2977.9234028721</DistanceMeters>
          </Trackpoint>
          <Trackpoint>
            <Time>2021-06-20T06:09:36.000Z</Time>
            <Position>
              <LatitudeDegrees>38.848109878599643707275390625</LatitudeDegrees>
              <LongitudeDegrees>-0.403592325747013092041015625</LongitudeDegrees>
            </Position>
            <AltitudeMeters>518.20001220703125</AltitudeMeters>
            <DistanceMeters>2990.3882131512</DistanceMeters>
          </Trackpoint>
          <Trackpoint>
            <Time>2021-06-20T06:09:40.000Z</Time>
            <Position>
              <LatitudeDegrees>38.8480181805789470672607421875</LatitudeDegrees>
              <LongitudeDegrees>-0.40354840457439422607421875</LongitudeDegrees>
            </Position>
            <AltitudeMeters>518.79998779296875</AltitudeMeters>
            <DistanceMeters>3001.2815246106</DistanceMeters>
          </Trackpoint>
          <Trackpoint>
            <Time>2021-06-20T06:09:42.000Z</Time>
            <Position>
              <LatitudeDegrees>38.8479631952941417694091796875</LatitudeDegrees>
              <LongitudeDegrees>-0.40353239513933658599853515625</LongitudeDegrees>
            </Position>
            <AltitudeMeters>520</AltitudeMeters>
            <DistanceMeters>3007.5576056687</DistanceMeters>
          </Trackpoint>
          <Trackpoint>
            <Time>2021-06-20T06:09:46.000Z</Time>
            <Position>
              <LatitudeDegrees>38.84786479175090789794921875</LatitudeDegrees>
              <LongitudeDegrees>-0.4034860432147979736328125</LongitudeDegrees>
            </Position>
            <AltitudeMeters>521.4000244140625</AltitudeMeters>
            <DistanceMeters>3019.2238523729</DistanceMeters>
          </Trackpoint>
          <Trackpoint>
            <Time>2021-06-20T06:09:47.000Z</Time>
            <Position>
              <LatitudeDegrees>38.8478424958884716033935546875</LatitudeDegrees>
              <LongitudeDegrees>-0.40347858332097530364990234375</LongitudeDegrees>
            </Position>
            <AltitudeMeters>521.5999755859375</AltitudeMeters>
            <DistanceMeters>3021.7860517357</DistanceMeters>
          </Trackpoint>
          <Trackpoint>
            <Time>2021-06-20T06:09:52.000Z</Time>
            <Position>
              <LatitudeDegrees>38.8477194495499134063720703125</LatitudeDegrees>
              <LongitudeDegrees>-0.4034288786351680755615234375</LongitudeDegrees>
            </Position>
            <AltitudeMeters>522.5999755859375</AltitudeMeters>
            <DistanceMeters>3036.1432643826</DistanceMeters>
          </Trackpoint>
          <Trackpoint>
            <Time>2021-06-20T06:09:55.000Z</Time>
            <Position>
              <LatitudeDegrees>38.84764811955392360687255859375</LatitudeDegrees>
              <LongitudeDegrees>-0.4033866338431835174560546875</LongitudeDegrees>
            </Position>
            <AltitudeMeters>523.79998779296875</AltitudeMeters>
            <DistanceMeters>3044.8862385389</DistanceMeters>
          </Trackpoint>
          <Trackpoint>
            <Time>2021-06-20T06:09:58.000Z</Time>
            <Position>
              <LatitudeDegrees>38.84757368825376033782958984375</LatitudeDegrees>
              <LongitudeDegrees>-0.40332653559744358062744140625</LongitudeDegrees>
            </Position>
            <AltitudeMeters>524.79998779296875</AltitudeMeters>
            <DistanceMeters>3054.672606137</DistanceMeters>
          </Trackpoint>
          <Trackpoint>
            <Time>2021-06-20T06:09:59.000Z</Time>
            <Position>
              <LatitudeDegrees>38.84755189530551433563232421875</LatitudeDegrees>
              <LongitudeDegrees>-0.40330256335437297821044921875</LongitudeDegrees>
            </Position>
            <AltitudeMeters>525</AltitudeMeters>
            <DistanceMeters>3057.8641459266</DistanceMeters>
          </Trackpoint>
          <Trackpoint>
            <Time>2021-06-20T06:10:04.000Z</Time>
            <Position>
              <LatitudeDegrees>38.8474415056407451629638671875</LatitudeDegrees>
              <LongitudeDegrees>-0.40317817591130733489990234375</LongitudeDegrees>
            </Position>
            <AltitudeMeters>525.20001220703125</AltitudeMeters>
            <DistanceMeters>3074.2109505724</DistanceMeters>
          </Trackpoint>
          <Trackpoint>
            <Time>2021-06-20T06:10:08.000Z</Time>
            <Position>
              <LatitudeDegrees>38.84737218730151653289794921875</LatitudeDegrees>
              <LongitudeDegrees>-0.4031167365610599517822265625</LongitudeDegrees>
            </Position>
            <AltitudeMeters>525.4000244140625</AltitudeMeters>
            <DistanceMeters>3083.585421435</DistanceMeters>
          </Trackpoint>
          <Trackpoint>
            <Time>2021-06-20T06:10:10.000Z</Time>
            <Position>
              <LatitudeDegrees>38.8473357260227203369140625</LatitudeDegrees>
              <LongitudeDegrees>-0.40309016592800617218017578125</LongitudeDegrees>
            </Position>
            <AltitudeMeters>526.20001220703125</AltitudeMeters>
            <DistanceMeters>3088.2523845142</DistanceMeters>
          </Trackpoint>
          <Trackpoint>
            <Time>2021-06-20T06:10:13.000Z</Time>
            <Position>
              <LatitudeDegrees>38.84726355783641338348388671875</LatitudeDegrees>
              <LongitudeDegrees>-0.40306468494236469268798828125</LongitudeDegrees>
            </Position>
            <AltitudeMeters>527.5999755859375</AltitudeMeters>
            <DistanceMeters>3096.5833609004</DistanceMeters>
          </Trackpoint>
          <Trackpoint>
            <Time>2021-06-20T06:10:17.000Z</Time>
            <Position>
              <LatitudeDegrees>38.847162723541259765625</LatitudeDegrees>
              <LongitudeDegrees>-0.40306426584720611572265625</LongitudeDegrees>
            </Position>
            <AltitudeMeters>528.5999755859375</AltitudeMeters>
            <DistanceMeters>3107.8061727691</DistanceMeters>
          </Trackpoint>
          <Trackpoint>
            <Time>2021-06-20T06:10:18.000Z</Time>
            <Position>
              <LatitudeDegrees>38.84713782928884029388427734375</LatitudeDegrees>
              <LongitudeDegrees>-0.40307097136974334716796875</LongitudeDegrees>
            </Position>
            <AltitudeMeters>529</AltitudeMeters>
            <DistanceMeters>3110.6379050803</DistanceMeters>
          </Trackpoint>
          <Trackpoint>
            <Time>2021-06-20T06:10:23.000Z</Time>
            <Position>
              <LatitudeDegrees>38.84700472466647624969482421875</LatitudeDegrees>
              <LongitudeDegrees>-0.4030838795006275177001953125</LongitudeDegrees>
            </Position>
            <AltitudeMeters>530.20001220703125</AltitudeMeters>
            <DistanceMeters>3125.4946260685</DistanceMeters>
          </Trackpoint>
          <Trackpoint>
            <Time>2021-06-20T06:10:26.000Z</Time>
            <Position>
              <LatitudeDegrees>38.8469292037189006805419921875</LatitudeDegrees>
              <LongitudeDegrees>-0.403078012168407440185546875</LongitudeDegrees>
            </Position>
            <AltitudeMeters>531.4000244140625</AltitudeMeters>
            <DistanceMeters>3133.9161592063</DistanceMeters>
          </Trackpoint>
          <Trackpoint>
            <Time>2021-06-20T06:10:29.000Z</Time>
            <Position>
              <LatitudeDegrees>38.84685351513326168060302734375</LatitudeDegrees>
              <LongitudeDegrees>-0.4031009785830974578857421875</LongitudeDegrees>
            </Position>
            <AltitudeMeters>531.5999755859375</AltitudeMeters>
            <DistanceMeters>3142.5729833588</DistanceMeters>
          </Trackpoint>
          <Trackpoint>
            <Time>2021-06-20T06:10:33.000Z</Time>
            <Position>
              <LatitudeDegrees>38.84674823842942714691162109375</LatitudeDegrees>
              <LongitudeDegrees>-0.40313400328159332275390625</LongitudeDegrees>
            </Position>
            <AltitudeMeters>532.4000244140625</AltitudeMeters>
            <DistanceMeters>3154.6353886638</DistanceMeters>
          </Trackpoint>
          <Trackpoint>
            <Time>2021-06-20T06:10:35.000Z</Time>
            <Position>
              <LatitudeDegrees>38.84670113213360309600830078125</LatitudeDegrees>
              <LongitudeDegrees>-0.403148420155048370361328125</LongitudeDegrees>
            </Position>
            <AltitudeMeters>533.20001220703125</AltitudeMeters>
            <DistanceMeters>3160.0260088504</DistanceMeters>
          </Trackpoint>
          <Trackpoint>
            <Time>2021-06-20T06:10:36.000Z</Time>
            <Position>
              <LatitudeDegrees>38.84668059647083282470703125</LatitudeDegrees>
              <LongitudeDegrees>-0.40315353311598300933837890625</LongitudeDegrees>
            </Position>
            <AltitudeMeters>533.5999755859375</AltitudeMeters>
            <DistanceMeters>3162.355617389</DistanceMeters>
          </Trackpoint>
          <Trackpoint>
            <Time>2021-06-20T06:10:41.000Z</Time>
            <Position>
              <LatitudeDegrees>38.84657288901507854461669921875</LatitudeDegrees>
              <LongitudeDegrees>-0.4031650163233280181884765625</LongitudeDegrees>
            </Position>
            <AltitudeMeters>534.5999755859375</AltitudeMeters>
            <DistanceMeters>3174.3850386142</DistanceMeters>
          </Trackpoint>
          <Trackpoint>
            <Time>2021-06-20T06:10:43.000Z</Time>
            <Position>
              <LatitudeDegrees>38.8465337455272674560546875</LatitudeDegrees>
              <LongitudeDegrees>-0.40316543541848659515380859375</LongitudeDegrees>
            </Position>
            <AltitudeMeters>535.79998779296875</AltitudeMeters>
            <DistanceMeters>3178.7417828901</DistanceMeters>
          </Trackpoint>
          <Trackpoint>
            <Time>2021-06-20T06:10:46.000Z</Time>
            <Position>
              <LatitudeDegrees>38.846470378339290618896484375</LatitudeDegrees>
              <LongitudeDegrees>-0.403148420155048370361328125</LongitudeDegrees>
            </Position>
            <AltitudeMeters>536.79998779296875</AltitudeMeters>
            <DistanceMeters>3185.9462869951</DistanceMeters>
          </Trackpoint>
          <Trackpoint>
            <Time>2021-06-20T06:10:47.000Z</Time>
            <Position>
              <LatitudeDegrees>38.84644783101975917816162109375</LatitudeDegrees>
              <LongitudeDegrees>-0.4031516052782535552978515625</LongitudeDegrees>
            </Position>
            <AltitudeMeters>537</AltitudeMeters>
            <DistanceMeters>3188.4676306481</DistanceMeters>
          </Trackpoint>
          <Trackpoint>
            <Time>2021-06-20T06:10:52.000Z</Time>
            <Position>
              <LatitudeDegrees>38.84631925262510776519775390625</LatitudeDegrees>
              <LongitudeDegrees>-0.40316778235137462615966796875</LongitudeDegrees>
            </Position>
            <AltitudeMeters>538</AltitudeMeters>
            <DistanceMeters>3202.8471539509</DistanceMeters>
          </Trackpoint>
          <Trackpoint>
            <Time>2021-06-20T06:10:56.000Z</Time>
            <Position>
              <LatitudeDegrees>38.84622571058571338653564453125</LatitudeDegrees>
              <LongitudeDegrees>-0.40320231579244136810302734375</LongitudeDegrees>
            </Position>
            <AltitudeMeters>539.20001220703125</AltitudeMeters>
            <DistanceMeters>3213.6801993891</DistanceMeters>
          </Trackpoint>
          <Trackpoint>
            <Time>2021-06-20T06:10:57.000Z</Time>
            <Position>
              <LatitudeDegrees>38.84620307944715023040771484375</LatitudeDegrees>
              <LongitudeDegrees>-0.40321388281881809234619140625</LongitudeDegrees>
            </Position>
            <AltitudeMeters>539.79998779296875</AltitudeMeters>
            <DistanceMeters>3216.3913766657</DistanceMeters>
          </Trackpoint>
          <Trackpoint>
            <Time>2021-06-20T06:11:02.000Z</Time>
            <Position>
              <LatitudeDegrees>38.8461007364094257354736328125</LatitudeDegrees>
              <LongitudeDegrees>-0.40326811373233795166015625</LongitudeDegrees>
            </Position>
            <AltitudeMeters>540.5999755859375</AltitudeMeters>
            <DistanceMeters>3228.7148431275</DistanceMeters>
          </Trackpoint>
          <Trackpoint>
            <Time>2021-06-20T06:11:03.000Z</Time>
            <Position>
              <LatitudeDegrees>38.8460759259760379791259765625</LatitudeDegrees>
              <LongitudeDegrees>-0.4032729752361774444580078125</LongitudeDegrees>
            </Position>
            <AltitudeMeters>540.79998779296875</AltitudeMeters>
            <DistanceMeters>3231.5080466731</DistanceMeters>
          </Trackpoint>
          <Trackpoint>
            <Time>2021-06-20T06:11:07.000Z</Time>
            <Position>
              <LatitudeDegrees>38.8459785282611846923828125</LatitudeDegrees>
              <LongitudeDegrees>-0.40331429801881313323974609375</LongitudeDegrees>
            </Position>
            <AltitudeMeters>541.79998779296875</AltitudeMeters>
            <DistanceMeters>3242.9247065784</DistanceMeters>
          </Trackpoint>
          <Trackpoint>
            <Time>2021-06-20T06:11:09.000Z</Time>
            <Position>
              <LatitudeDegrees>38.8459250517189502716064453125</LatitudeDegrees>
              <LongitudeDegrees>-0.4033282957971096038818359375</LongitudeDegrees>
            </Position>
            <AltitudeMeters>542</AltitudeMeters>
            <DistanceMeters>3248.9989877992</DistanceMeters>
          </Trackpoint>
          <Trackpoint>
            <Time>2021-06-20T06:11:11.000Z</Time>
            <Position>
              <LatitudeDegrees>38.84588272310793399810791015625</LatitudeDegrees>
              <LongitudeDegrees>-0.40333860553801059722900390625</LongitudeDegrees>
            </Position>
            <AltitudeMeters>543</AltitudeMeters>
            <DistanceMeters>3253.7938365587</DistanceMeters>
          </Trackpoint>
          <Trackpoint>
            <Time>2021-06-20T06:11:15.000Z</Time>
            <Position>
              <LatitudeDegrees>38.8458093814551830291748046875</LatitudeDegrees>
              <LongitudeDegrees>-0.40336207486689090728759765625</LongitudeDegrees>
            </Position>
            <AltitudeMeters>544</AltitudeMeters>
            <DistanceMeters>3262.2067872401</DistanceMeters>
          </Trackpoint>
          <Trackpoint>
            <Time>2021-06-20T06:11:16.000Z</Time>
            <Position>
              <LatitudeDegrees>38.8457906059920787811279296875</LatitudeDegrees>
              <LongitudeDegrees>-0.4033631645143032073974609375</LongitudeDegrees>
            </Position>
            <AltitudeMeters>544.20001220703125</AltitudeMeters>
            <DistanceMeters>3264.2973749563</DistanceMeters>
          </Trackpoint>
          <Trackpoint>
            <Time>2021-06-20T06:11:19.000Z</Time>
            <Position>
              <LatitudeDegrees>38.84570896625518798828125</LatitudeDegrees>
              <LongitudeDegrees>-0.4033423773944377899169921875</LongitudeDegrees>
            </Position>
            <AltitudeMeters>544.5999755859375</AltitudeMeters>
            <DistanceMeters>3273.5613830804</DistanceMeters>
          </Trackpoint>
          <Trackpoint>
            <Time>2021-06-20T06:11:20.000Z</Time>
            <Position>
              <LatitudeDegrees>38.84568340145051479339599609375</LatitudeDegrees>
              <LongitudeDegrees>-0.40333005599677562713623046875</LongitudeDegrees>
            </Position>
            <AltitudeMeters>544.79998779296875</AltitudeMeters>
            <DistanceMeters>3276.599266904</DistanceMeters>
          </Trackpoint>
          <Trackpoint>
            <Time>2021-06-20T06:11:21.000Z</Time>
            <Position>
              <LatitudeDegrees>38.84566378779709339141845703125</LatitudeDegrees>
              <LongitudeDegrees>-0.40331815369427204132080078125</LongitudeDegrees>
            </Position>
            <AltitudeMeters>545</AltitudeMeters>
            <DistanceMeters>3279.0145162457</DistanceMeters>
          </Trackpoint>
          <Trackpoint>
            <Time>2021-06-20T06:11:22.000Z</Time>
            <Position>
              <LatitudeDegrees>38.845640905201435089111328125</LatitudeDegrees>
              <LongitudeDegrees>-0.40330675430595874786376953125</LongitudeDegrees>
            </Position>
            <AltitudeMeters>545.20001220703125</AltitudeMeters>
            <DistanceMeters>3281.7456045165</DistanceMeters>
          </Trackpoint>
          <Trackpoint>
            <Time>2021-06-20T06:11:24.000Z</Time>
            <Position>
              <LatitudeDegrees>38.8455927930772304534912109375</LatitudeDegrees>
              <LongitudeDegrees>-0.40327750146389007568359375</LongitudeDegrees>
            </Position>
            <AltitudeMeters>546</AltitudeMeters>
            <DistanceMeters>3287.6701219768</DistanceMeters>
          </Trackpoint>
          <Trackpoint>
            <Time>2021-06-20T06:11:26.000Z</Time>
            <Position>
              <LatitudeDegrees>38.845546357333660125732421875</LatitudeDegrees>
              <LongitudeDegrees>-0.40325109846889972686767578125</LongitudeDegrees>
            </Position>
            <AltitudeMeters>546.79998779296875</AltitudeMeters>
            <DistanceMeters>3293.3224144727</DistanceMeters>
          </Trackpoint>
          <Trackpoint>
            <Time>2021-06-20T06:11:29.000Z</Time>
            <Position>
              <LatitudeDegrees>38.84549061767756938934326171875</LatitudeDegrees>
              <LongitudeDegrees>-0.403186976909637451171875</LongitudeDegrees>
            </Position>
            <AltitudeMeters>547.79998779296875</AltitudeMeters>
            <DistanceMeters>3301.6523068726</DistanceMeters>
          </Trackpoint>
          <Trackpoint>
            <Time>2021-06-20T06:11:34.000Z</Time>
            <Position>
              <LatitudeDegrees>38.84540788829326629638671875</LatitudeDegrees>
              <LongitudeDegrees>-0.403090082108974456787109375</LongitudeDegrees>
            </Position>
            <AltitudeMeters>548.5999755859375</AltitudeMeters>
            <DistanceMeters>3314.1160304361</DistanceMeters>
          </Trackpoint>
          <Trackpoint>
            <Time>2021-06-20T06:11:35.000Z</Time>
            <Position>
              <LatitudeDegrees>38.84539338760077953338623046875</LatitudeDegrees>
              <LongitudeDegrees>-0.403058566153049468994140625</LongitudeDegrees>
            </Position>
            <AltitudeMeters>549</AltitudeMeters>
            <DistanceMeters>3317.2905485588</DistanceMeters>
          </Trackpoint>
          <Trackpoint>
            <Time>2021-06-20T06:11:38.000Z</Time>
            <Position>
              <LatitudeDegrees>38.84535013698041439056396484375</LatitudeDegrees>
              <LongitudeDegrees>-0.40296502411365509033203125</LongitudeDegrees>
            </Position>
            <AltitudeMeters>549.79998779296875</AltitudeMeters>
            <DistanceMeters>3326.72072315</DistanceMeters>
          </Trackpoint>
          <Trackpoint>
            <Time>2021-06-20T06:11:39.000Z</Time>
            <Position>
              <LatitudeDegrees>38.84533546864986419677734375</LatitudeDegrees>
              <LongitudeDegrees>-0.40293828584253787994384765625</LongitudeDegrees>
            </Position>
            <AltitudeMeters>550.4000244140625</AltitudeMeters>
            <DistanceMeters>3329.5572347596</DistanceMeters>
          </Trackpoint>
          <Trackpoint>
            <Time>2021-06-20T06:11:46.000Z</Time>
            <Position>
              <LatitudeDegrees>38.8452199660241603851318359375</LatitudeDegrees>
              <LongitudeDegrees>-0.40277659893035888671875</LongitudeDegrees>
            </Position>
            <AltitudeMeters>551.4000244140625</AltitudeMeters>
            <DistanceMeters>3348.576351516</DistanceMeters>
          </Trackpoint>
          <Trackpoint>
            <Time>2021-06-20T06:11:48.000Z</Time>
            <Position>
              <LatitudeDegrees>38.84517713449895381927490234375</LatitudeDegrees>
              <LongitudeDegrees>-0.40274047292768955230712890625</LongitudeDegrees>
            </Position>
            <AltitudeMeters>553</AltitudeMeters>
            <DistanceMeters>3354.2803295513</DistanceMeters>
          </Trackpoint>
          <Trackpoint>
            <Time>2021-06-20T06:11:52.000Z</Time>
            <Position>
              <LatitudeDegrees>38.8450781442224979400634765625</LatitudeDegrees>
              <LongitudeDegrees>-0.40272454731166362762451171875</LongitudeDegrees>
            </Position>
            <AltitudeMeters>553.4000244140625</AltitudeMeters>
            <DistanceMeters>3365.3842326383</DistanceMeters>
          </Trackpoint>
          <Trackpoint>
            <Time>2021-06-20T06:11:57.000Z</Time>
            <Position>
              <LatitudeDegrees>38.844949565827846527099609375</LatitudeDegrees>
              <LongitudeDegrees>-0.4026771895587444305419921875</LongitudeDegrees>
            </Position>
            <AltitudeMeters>554.20001220703125</AltitudeMeters>
            <DistanceMeters>3380.2728295012</DistanceMeters>
          </Trackpoint>
          <Trackpoint>
            <Time>2021-06-20T06:11:58.000Z</Time>
            <Position>
              <LatitudeDegrees>38.84492333047091960906982421875</LatitudeDegrees>
              <LongitudeDegrees>-0.4026718251407146453857421875</LongitudeDegrees>
            </Position>
            <AltitudeMeters>554.5999755859375</AltitudeMeters>
            <DistanceMeters>3383.2293670027</DistanceMeters>
          </Trackpoint>
          <Trackpoint>
            <Time>2021-06-20T06:12:01.000Z</Time>
            <Position>
              <LatitudeDegrees>38.84484998881816864013671875</LatitudeDegrees>
              <LongitudeDegrees>-0.4026785306632518768310546875</LongitudeDegrees>
            </Position>
            <AltitudeMeters>555.5999755859375</AltitudeMeters>
            <DistanceMeters>3391.413809993</DistanceMeters>
          </Trackpoint>
          <Trackpoint>
            <Time>2021-06-20T06:12:03.000Z</Time>
            <Position>
              <LatitudeDegrees>38.84480548091232776641845703125</LatitudeDegrees>
              <LongitudeDegrees>-0.4026835598051548004150390625</LongitudeDegrees>
            </Position>
            <AltitudeMeters>556</AltitudeMeters>
            <DistanceMeters>3396.3870764628</DistanceMeters>
          </Trackpoint>
          <Trackpoint>
            <Time>2021-06-20T06:12:05.000Z</Time>
            <Position>
              <LatitudeDegrees>38.844767510890960693359375</LatitudeDegrees>
              <LongitudeDegrees>-0.40267257951200008392333984375</LongitudeDegrees>
            </Position>
            <AltitudeMeters>556.5999755859375</AltitudeMeters>
            <DistanceMeters>3400.7188773413</DistanceMeters>
          </Trackpoint>
          <Trackpoint>
            <Time>2021-06-20T06:12:07.000Z</Time>
            <Position>
              <LatitudeDegrees>38.84474747814238071441650390625</LatitudeDegrees>
              <LongitudeDegrees>-0.40263108909130096435546875</LongitudeDegrees>
            </Position>
            <AltitudeMeters>557.5999755859375</AltitudeMeters>
            <DistanceMeters>3404.9515681716</DistanceMeters>
          </Trackpoint>
          <Trackpoint>
            <Time>2021-06-20T06:12:08.000Z</Time>
            <Position>
              <LatitudeDegrees>38.84474110789597034454345703125</LatitudeDegrees>
              <LongitudeDegrees>-0.40260686539113521575927734375</LongitudeDegrees>
            </Position>
            <AltitudeMeters>557.5999755859375</AltitudeMeters>
            <DistanceMeters>3407.1679529724</DistanceMeters>
          </Trackpoint>
          <Trackpoint>
            <Time>2021-06-20T06:12:12.000Z</Time>
            <Position>
              <LatitudeDegrees>38.84472283534705638885498046875</LatitudeDegrees>
              <LongitudeDegrees>-0.4024663008749485015869140625</LongitudeDegrees>
            </Position>
            <AltitudeMeters>559</AltitudeMeters>
            <DistanceMeters>3419.5214258405</DistanceMeters>
          </Trackpoint>
          <Trackpoint>
            <Time>2021-06-20T06:12:13.000Z</Time>
            <Position>
              <LatitudeDegrees>38.844720236957073211669921875</LatitudeDegrees>
              <LongitudeDegrees>-0.4024388082325458526611328125</LongitudeDegrees>
            </Position>
            <AltitudeMeters>559.5999755859375</AltitudeMeters>
            <DistanceMeters>3421.9216734884</DistanceMeters>
          </Trackpoint>
          <Trackpoint>
            <Time>2021-06-20T06:12:16.000Z</Time>
            <Position>
              <LatitudeDegrees>38.84471814148128032684326171875</LatitudeDegrees>
              <LongitudeDegrees>-0.40234970860183238983154296875</LongitudeDegrees>
            </Position>
            <AltitudeMeters>560</AltitudeMeters>
            <DistanceMeters>3429.6486952593</DistanceMeters>
          </Trackpoint>
          <Trackpoint>
            <Time>2021-06-20T06:12:18.000Z</Time>
            <Position>
              <LatitudeDegrees>38.84471596218645572662353515625</LatitudeDegrees>
              <LongitudeDegrees>-0.40228332392871379852294921875</LongitudeDegrees>
            </Position>
            <AltitudeMeters>560.20001220703125</AltitudeMeters>
            <DistanceMeters>3435.4093836671</DistanceMeters>
          </Trackpoint>
          <Trackpoint>
            <Time>2021-06-20T06:12:22.000Z</Time>
            <Position>
              <LatitudeDegrees>38.844692409038543701171875</LatitudeDegrees>
              <LongitudeDegrees>-0.4021893627941608428955078125</LongitudeDegrees>
            </Position>
            <AltitudeMeters>561.20001220703125</AltitudeMeters>
            <DistanceMeters>3443.9660103276</DistanceMeters>
          </Trackpoint>
          <Trackpoint>
            <Time>2021-06-20T06:12:25.000Z</Time>
            <Position>
              <LatitudeDegrees>38.84464354254305362701416015625</LatitudeDegrees>
              <LongitudeDegrees>-0.40216974914073944091796875</LongitudeDegrees>
            </Position>
            <AltitudeMeters>562</AltitudeMeters>
            <DistanceMeters>3449.6644447523</DistanceMeters>
          </Trackpoint>
          <Trackpoint>
            <Time>2021-06-20T06:12:26.000Z</Time>
            <Position>
              <LatitudeDegrees>38.84461018256843090057373046875</LatitudeDegrees>
              <LongitudeDegrees>-0.40219279937446117401123046875</LongitudeDegrees>
            </Position>
            <AltitudeMeters>562.20001220703125</AltitudeMeters>
            <DistanceMeters>3453.8811046293</DistanceMeters>
          </Trackpoint>
          <Trackpoint>
            <Time>2021-06-20T06:12:27.000Z</Time>
            <Position>
              <LatitudeDegrees>38.8445819355547428131103515625</LatitudeDegrees>
              <LongitudeDegrees>-0.4022161848843097686767578125</LongitudeDegrees>
            </Position>
            <AltitudeMeters>562.4000244140625</AltitudeMeters>
            <DistanceMeters>3457.62110308</DistanceMeters>
          </Trackpoint>
          <Trackpoint>
            <Time>2021-06-20T06:12:28.000Z</Time>
            <Position>
              <LatitudeDegrees>38.84456257335841655731201171875</LatitudeDegrees>
              <LongitudeDegrees>-0.40223873220384120941162109375</LongitudeDegrees>
            </Position>
            <AltitudeMeters>563</AltitudeMeters>
            <DistanceMeters>3460.5299141134</DistanceMeters>
          </Trackpoint>
          <Trackpoint>
            <Time>2021-06-20T06:12:29.000Z</Time>
            <Position>
              <LatitudeDegrees>38.84454547427594661712646484375</LatitudeDegrees>
              <LongitudeDegrees>-0.40226253680884838104248046875</LongitudeDegrees>
            </Position>
            <AltitudeMeters>563.4000244140625</AltitudeMeters>
            <DistanceMeters>3463.3360193608</DistanceMeters>
          </Trackpoint>
          <Trackpoint>
            <Time>2021-06-20T06:12:32.000Z</Time>
            <Position>
              <LatitudeDegrees>38.844519071280956268310546875</LatitudeDegrees>
              <LongitudeDegrees>-0.4023526422679424285888671875</LongitudeDegrees>
            </Position>
            <AltitudeMeters>564</AltitudeMeters>
            <DistanceMeters>3471.6810747552</DistanceMeters>
          </Trackpoint>
          <Trackpoint>
            <Time>2021-06-20T06:12:35.000Z</Time>
            <Position>
              <LatitudeDegrees>38.84449593722820281982421875</LatitudeDegrees>
              <LongitudeDegrees>-0.40243939496576786041259765625</LongitudeDegrees>
            </Position>
            <AltitudeMeters>564.79998779296875</AltitudeMeters>
            <DistanceMeters>3479.6298762295</DistanceMeters>
          </Trackpoint>
          <Trackpoint>
            <Time>2021-06-20T06:12:38.000Z</Time>
            <Position>
              <LatitudeDegrees>38.84446869604289531707763671875</LatitudeDegrees>
              <LongitudeDegrees>-0.40251483209431171417236328125</LongitudeDegrees>
            </Position>
            <AltitudeMeters>565.5999755859375</AltitudeMeters>
            <DistanceMeters>3486.8381395334</DistanceMeters>
          </Trackpoint>
          <Trackpoint>
            <Time>2021-06-20T06:12:40.000Z</Time>
            <Position>
              <LatitudeDegrees>38.84444271214306354522705078125</LatitudeDegrees>
              <LongitudeDegrees>-0.4025662131607532501220703125</LongitudeDegrees>
            </Position>
            <AltitudeMeters>566</AltitudeMeters>
            <DistanceMeters>3492.1477439121</DistanceMeters>
          </Trackpoint>
          <Trackpoint>
            <Time>2021-06-20T06:12:44.000Z</Time>
            <Position>
              <LatitudeDegrees>38.8443998806178569793701171875</LatitudeDegrees>
              <LongitudeDegrees>-0.40267274715006351470947265625</LongitudeDegrees>
            </Position>
            <AltitudeMeters>567</AltitudeMeters>
            <DistanceMeters>3502.5409038946</DistanceMeters>
          </Trackpoint>
          <Trackpoint>
            <Time>2021-06-20T06:12:45.000Z</Time>
            <Position>
              <LatitudeDegrees>38.84438705630600452423095703125</LatitudeDegrees>
              <LongitudeDegrees>-0.40270023979246616363525390625</LongitudeDegrees>
            </Position>
            <AltitudeMeters>567.20001220703125</AltitudeMeters>
            <DistanceMeters>3505.3178960234</DistanceMeters>
          </Trackpoint>
          <Trackpoint>
            <Time>2021-06-20T06:12:49.000Z</Time>
            <Position>
              <LatitudeDegrees>38.8443546183407306671142578125</LatitudeDegrees>
              <LongitudeDegrees>-0.40279738605022430419921875</LongitudeDegrees>
            </Position>
            <AltitudeMeters>568.20001220703125</AltitudeMeters>
            <DistanceMeters>3514.480462296</DistanceMeters>
          </Trackpoint>
          <Trackpoint>
            <Time>2021-06-20T06:12:51.000Z</Time>
            <Position>
              <LatitudeDegrees>38.844336681067943572998046875</LatitudeDegrees>
              <LongitudeDegrees>-0.4028377868235111236572265625</LongitudeDegrees>
            </Position>
            <AltitudeMeters>568.4000244140625</AltitudeMeters>
            <DistanceMeters>3518.5098639198</DistanceMeters>
          </Trackpoint>
          <Trackpoint>
            <Time>2021-06-20T06:12:56.000Z</Time>
            <Position>
              <LatitudeDegrees>38.8443006388843059539794921875</LatitudeDegrees>
              <LongitudeDegrees>-0.40296628139913082122802734375</LongitudeDegrees>
            </Position>
            <AltitudeMeters>569.4000244140625</AltitudeMeters>
            <DistanceMeters>3530.3489874753</DistanceMeters>
          </Trackpoint>
          <Trackpoint>
            <Time>2021-06-20T06:12:57.000Z</Time>
            <Position>
              <LatitudeDegrees>38.8442912511527538299560546875</LatitudeDegrees>
              <LongitudeDegrees>-0.4029910080134868621826171875</LongitudeDegrees>
            </Position>
            <AltitudeMeters>569.79998779296875</AltitudeMeters>
            <DistanceMeters>3532.7341390763</DistanceMeters>
          </Trackpoint>
          <Trackpoint>
            <Time>2021-06-20T06:13:00.000Z</Time>
            <Position>
              <LatitudeDegrees>38.84427138604223728179931640625</LatitudeDegrees>
              <LongitudeDegrees>-0.40309016592800617218017578125</LongitudeDegrees>
            </Position>
            <AltitudeMeters>570.5999755859375</AltitudeMeters>
            <DistanceMeters>3541.61087536</DistanceMeters>
          </Trackpoint>
          <Trackpoint>
            <Time>2021-06-20T06:13:02.000Z</Time>
            <Position>
              <LatitudeDegrees>38.84425998665392398834228515625</LatitudeDegrees>
              <LongitudeDegrees>-0.4031485877931118011474609375</LongitudeDegrees>
            </Position>
            <AltitudeMeters>571</AltitudeMeters>
            <DistanceMeters>3546.8312939934</DistanceMeters>
          </Trackpoint>
          <Trackpoint>
            <Time>2021-06-20T06:13:06.000Z</Time>
            <Position>
              <LatitudeDegrees>38.84421220980584621429443359375</LatitudeDegrees>
              <LongitudeDegrees>-0.4032365977764129638671875</LongitudeDegrees>
            </Position>
            <AltitudeMeters>571.79998779296875</AltitudeMeters>
            <DistanceMeters>3556.131297874</DistanceMeters>
          </Trackpoint>
          <Trackpoint>
            <Time>2021-06-20T06:13:08.000Z</Time>
            <Position>
              <LatitudeDegrees>38.84417549706995487213134765625</LatitudeDegrees>
              <LongitudeDegrees>-0.40326333604753017425537109375</LongitudeDegrees>
            </Position>
            <AltitudeMeters>572.4000244140625</AltitudeMeters>
            <DistanceMeters>3560.8291172436</DistanceMeters>
          </Trackpoint>
          <Trackpoint>
            <Time>2021-06-20T06:13:10.000Z</Time>
            <Position>
              <LatitudeDegrees>38.84413308463990688323974609375</LatitudeDegrees>
              <LongitudeDegrees>-0.4032984562218189239501953125</LongitudeDegrees>
            </Position>
            <AltitudeMeters>573</AltitudeMeters>
            <DistanceMeters>3566.4461526801</DistanceMeters>
          </Trackpoint>
          <Trackpoint>
            <Time>2021-06-20T06:13:12.000Z</Time>
            <Position>
              <LatitudeDegrees>38.8440900854766368865966796875</LatitudeDegrees>
              <LongitudeDegrees>-0.4033222608268260955810546875</LongitudeDegrees>
            </Position>
            <AltitudeMeters>573.79998779296875</AltitudeMeters>
            <DistanceMeters>3571.6579153324</DistanceMeters>
          </Trackpoint>
          <Trackpoint>
            <Time>2021-06-20T06:13:13.000Z</Time>
            <Position>
              <LatitudeDegrees>38.84406770579516887664794921875</LatitudeDegrees>
              <LongitudeDegrees>-0.403337180614471435546875</LongitudeDegrees>
            </Position>
            <AltitudeMeters>574.20001220703125</AltitudeMeters>
            <DistanceMeters>3574.4640205797</DistanceMeters>
          </Trackpoint>
          <Trackpoint>
            <Time>2021-06-20T06:13:18.000Z</Time>
            <Position>
              <LatitudeDegrees>38.8439683802425861358642578125</LatitudeDegrees>
              <LongitudeDegrees>-0.40340750478208065032958984375</LongitudeDegrees>
            </Position>
            <AltitudeMeters>575.20001220703125</AltitudeMeters>
            <DistanceMeters>3587.0886334148</DistanceMeters>
          </Trackpoint>
          <Trackpoint>
            <Time>2021-06-20T06:13:19.000Z</Time>
            <Position>
              <LatitudeDegrees>38.8439516164362430572509765625</LatitudeDegrees>
              <LongitudeDegrees>-0.40341923944652080535888671875</LongitudeDegrees>
            </Position>
            <AltitudeMeters>575.4000244140625</AltitudeMeters>
            <DistanceMeters>3589.2134953449</DistanceMeters>
          </Trackpoint>
          <Trackpoint>
            <Time>2021-06-20T06:13:22.000Z</Time>
            <Position>
              <LatitudeDegrees>38.84389604441821575164794921875</LatitudeDegrees>
              <LongitudeDegrees>-0.4034416191279888153076171875</LongitudeDegrees>
            </Position>
            <AltitudeMeters>576.4000244140625</AltitudeMeters>
            <DistanceMeters>3595.6962398077</DistanceMeters>
          </Trackpoint>
          <Trackpoint>
            <Time>2021-06-20T06:13:24.000Z</Time>
            <Position>
              <LatitudeDegrees>38.843849189579486846923828125</LatitudeDegrees>
              <LongitudeDegrees>-0.403460226953029632568359375</LongitudeDegrees>
            </Position>
            <AltitudeMeters>576.79998779296875</AltitudeMeters>
            <DistanceMeters>3601.1542817816</DistanceMeters>
          </Trackpoint>
          <Trackpoint>
            <Time>2021-06-20T06:13:29.000Z</Time>
            <Position>
              <LatitudeDegrees>38.843716084957122802734375</LatitudeDegrees>
              <LongitudeDegrees>-0.40349585004150867462158203125</LongitudeDegrees>
            </Position>
            <AltitudeMeters>577.20001220703125</AltitudeMeters>
            <DistanceMeters>3616.2871182183</DistanceMeters>
          </Trackpoint>
          <Trackpoint>
            <Time>2021-06-20T06:13:30.000Z</Time>
            <Position>
              <LatitudeDegrees>38.84368834085762500762939453125</LatitudeDegrees>
              <LongitudeDegrees>-0.4035029746592044830322265625</LongitudeDegrees>
            </Position>
            <AltitudeMeters>577.79998779296875</AltitudeMeters>
            <DistanceMeters>3619.4359313177</DistanceMeters>
          </Trackpoint>
          <Trackpoint>
            <Time>2021-06-20T06:13:34.000Z</Time>
            <Position>
              <LatitudeDegrees>38.8435368798673152923583984375</LatitudeDegrees>
              <LongitudeDegrees>-0.40346031077206134796142578125</LongitudeDegrees>
            </Position>
            <AltitudeMeters>578.79998779296875</AltitudeMeters>
            <DistanceMeters>3636.69472912</DistanceMeters>
          </Trackpoint>
          <Trackpoint>
            <Time>2021-06-20T06:13:37.000Z</Time>
            <Position>
              <LatitudeDegrees>38.84349371306598186492919921875</LatitudeDegrees>
              <LongitudeDegrees>-0.4035727120935916900634765625</LongitudeDegrees>
            </Position>
            <AltitudeMeters>580</AltitudeMeters>
            <DistanceMeters>3647.5585727825</DistanceMeters>
          </Trackpoint>
          <Trackpoint>
            <Time>2021-06-20T06:13:39.000Z</Time>
            <Position>
              <LatitudeDegrees>38.84348683990538120269775390625</LatitudeDegrees>
              <LongitudeDegrees>-0.4036565311253070831298828125</LongitudeDegrees>
            </Position>
            <AltitudeMeters>580.20001220703125</AltitudeMeters>
            <DistanceMeters>3654.8651322968</DistanceMeters>
          </Trackpoint>
          <Trackpoint>
            <Time>2021-06-20T06:13:43.000Z</Time>
            <Position>
              <LatitudeDegrees>38.84348466061055660247802734375</LatitudeDegrees>
              <LongitudeDegrees>-0.40378401987254619598388671875</LongitudeDegrees>
            </Position>
            <AltitudeMeters>581.20001220703125</AltitudeMeters>
            <DistanceMeters>3665.9201336353</DistanceMeters>
          </Trackpoint>
          <Trackpoint>
            <Time>2021-06-20T06:13:44.000Z</Time>
            <Position>
              <LatitudeDegrees>38.8434748537838459014892578125</LatitudeDegrees>
              <LongitudeDegrees>-0.4038020409643650054931640625</LongitudeDegrees>
            </Position>
            <AltitudeMeters>581.79998779296875</AltitudeMeters>
            <DistanceMeters>3667.827781613</DistanceMeters>
          </Trackpoint>
          <Trackpoint>
            <Time>2021-06-20T06:13:45.000Z</Time>
            <Position>
              <LatitudeDegrees>38.8434741832315921783447265625</LatitudeDegrees>
              <LongitudeDegrees>-0.4038362391293048858642578125</LongitudeDegrees>
            </Position>
            <AltitudeMeters>582</AltitudeMeters>
            <DistanceMeters>3670.7934677826</DistanceMeters>
          </Trackpoint>
          <Trackpoint>
            <Time>2021-06-20T06:13:46.000Z</Time>
            <Position>
              <LatitudeDegrees>38.84348013438284397125244140625</LatitudeDegrees>
              <LongitudeDegrees>-0.403886698186397552490234375</LongitudeDegrees>
            </Position>
            <AltitudeMeters>582.20001220703125</AltitudeMeters>
            <DistanceMeters>3675.2180814076</DistanceMeters>
          </Trackpoint>
          <Trackpoint>
            <Time>2021-06-20T06:13:48.000Z</Time>
            <Position>
              <LatitudeDegrees>38.84347292594611644744873046875</LatitudeDegrees>
              <LongitudeDegrees>-0.40395333431661128997802734375</LongitudeDegrees>
            </Position>
            <AltitudeMeters>582.5999755859375</AltitudeMeters>
            <DistanceMeters>3681.0512047597</DistanceMeters>
          </Trackpoint>
          <Trackpoint>
            <Time>2021-06-20T06:13:49.000Z</Time>
            <Position>
              <LatitudeDegrees>38.8434678129851818084716796875</LatitudeDegrees>
              <LongitudeDegrees>-0.40397948585450649261474609375</LongitudeDegrees>
            </Position>
            <AltitudeMeters>583.20001220703125</AltitudeMeters>
            <DistanceMeters>3683.3885528828</DistanceMeters>
          </Trackpoint>
          <Trackpoint>
            <Time>2021-06-20T06:13:50.000Z</Time>
            <Position>
              <LatitudeDegrees>38.84346102364361286163330078125</LatitudeDegrees>
              <LongitudeDegrees>-0.40400748141109943389892578125</LongitudeDegrees>
            </Position>
            <AltitudeMeters>583.4000244140625</AltitudeMeters>
            <DistanceMeters>3685.931294461</DistanceMeters>
          </Trackpoint>
          <Trackpoint>
            <Time>2021-06-20T06:13:54.000Z</Time>
            <Position>
              <LatitudeDegrees>38.84342850185930728912353515625</LatitudeDegrees>
              <LongitudeDegrees>-0.404107309877872467041015625</LongitudeDegrees>
            </Position>
            <AltitudeMeters>584.4000244140625</AltitudeMeters>
            <DistanceMeters>3695.3115431182</DistanceMeters>
          </Trackpoint>
          <Trackpoint>
            <Time>2021-06-20T06:13:55.000Z</Time>
            <Position>
              <LatitudeDegrees>38.8434175215661525726318359375</LatitudeDegrees>
              <LongitudeDegrees>-0.40413589216768741607666015625</LongitudeDegrees>
            </Position>
            <AltitudeMeters>584.5999755859375</AltitudeMeters>
            <DistanceMeters>3698.0754976532</DistanceMeters>
          </Trackpoint>
          <Trackpoint>
            <Time>2021-06-20T06:13:58.000Z</Time>
            <Position>
              <LatitudeDegrees>38.84338106028735637664794921875</LatitudeDegrees>
              <LongitudeDegrees>-0.40422834455966949462890625</LongitudeDegrees>
            </Position>
            <AltitudeMeters>585.5999755859375</AltitudeMeters>
            <DistanceMeters>3707.0594179142</DistanceMeters>
          </Trackpoint>
          <Trackpoint>
            <Time>2021-06-20T06:14:00.000Z</Time>
            <Position>
              <LatitudeDegrees>38.84335138835012912750244140625</LatitudeDegrees>
              <LongitudeDegrees>-0.4042881913483142852783203125</LongitudeDegrees>
            </Position>
            <AltitudeMeters>586</AltitudeMeters>
            <DistanceMeters>3713.2097829622</DistanceMeters>
          </Trackpoint>
          <Trackpoint>
            <Time>2021-06-20T06:14:02.000Z</Time>
            <Position>
              <LatitudeDegrees>38.84332515299320220947265625</LatitudeDegrees>
              <LongitudeDegrees>-0.40434367954730987548828125</LongitudeDegrees>
            </Position>
            <AltitudeMeters>586.79998779296875</AltitudeMeters>
            <DistanceMeters>3718.8364558701</DistanceMeters>
          </Trackpoint>
          <Trackpoint>
            <Time>2021-06-20T06:14:04.000Z</Time>
            <Position>
              <LatitudeDegrees>38.8432981632649898529052734375</LatitudeDegrees>
              <LongitudeDegrees>-0.40438734926283359527587890625</LongitudeDegrees>
            </Position>
            <AltitudeMeters>587.4000244140625</AltitudeMeters>
            <DistanceMeters>3723.6697578222</DistanceMeters>
          </Trackpoint>
          <Trackpoint>
            <Time>2021-06-20T06:14:06.000Z</Time>
            <Position>
              <LatitudeDegrees>38.8432686589658260345458984375</LatitudeDegrees>
              <LongitudeDegrees>-0.40443629957735538482666015625</LongitudeDegrees>
            </Position>
            <AltitudeMeters>588</AltitudeMeters>
            <DistanceMeters>3729.0351919802</DistanceMeters>
          </Trackpoint>
          <Trackpoint>
            <Time>2021-06-20T06:14:10.000Z</Time>
            <Position>
              <LatitudeDegrees>38.8432163558900356292724609375</LatitudeDegrees>
              <LongitudeDegrees>-0.40451894514262676239013671875</LongitudeDegrees>
            </Position>
            <AltitudeMeters>588.5999755859375</AltitudeMeters>
            <DistanceMeters>3738.2659991673</DistanceMeters>
          </Trackpoint>
          <Trackpoint>
            <Time>2021-06-20T06:14:11.000Z</Time>
            <Position>
              <LatitudeDegrees>38.843199424445629119873046875</LatitudeDegrees>
              <LongitudeDegrees>-0.40454023517668247222900390625</LongitudeDegrees>
            </Position>
            <AltitudeMeters>589</AltitudeMeters>
            <DistanceMeters>3740.9028834768</DistanceMeters>
          </Trackpoint>
          <Trackpoint>
            <Time>2021-06-20T06:14:16.000Z</Time>
            <Position>
              <LatitudeDegrees>38.843122310936450958251953125</LatitudeDegrees>
              <LongitudeDegrees>-0.40464802645146846771240234375</LongitudeDegrees>
            </Position>
            <AltitudeMeters>589.79998779296875</AltitudeMeters>
            <DistanceMeters>3753.5909961356</DistanceMeters>
          </Trackpoint>
          <Trackpoint>
            <Time>2021-06-20T06:14:17.000Z</Time>
            <Position>
              <LatitudeDegrees>38.8431100733578205108642578125</LatitudeDegrees>
              <LongitudeDegrees>-0.40467987768352031707763671875</LongitudeDegrees>
            </Position>
            <AltitudeMeters>590.20001220703125</AltitudeMeters>
            <DistanceMeters>3756.6687469686</DistanceMeters>
          </Trackpoint>
          <Trackpoint>
            <Time>2021-06-20T06:14:20.000Z</Time>
            <Position>
              <LatitudeDegrees>38.84306590072810649871826171875</LatitudeDegrees>
              <LongitudeDegrees>-0.40475137531757354736328125</LongitudeDegrees>
            </Position>
            <AltitudeMeters>591.4000244140625</AltitudeMeters>
            <DistanceMeters>3764.5793998972</DistanceMeters>
          </Trackpoint>
          <Trackpoint>
            <Time>2021-06-20T06:14:23.000Z</Time>
            <Position>
              <LatitudeDegrees>38.84302700869739055633544921875</LatitudeDegrees>
              <LongitudeDegrees>-0.40482572279870510101318359375</LongitudeDegrees>
            </Position>
            <AltitudeMeters>591.79998779296875</AltitudeMeters>
            <DistanceMeters>3772.3425648566</DistanceMeters>
          </Trackpoint>
          <Trackpoint>
            <Time>2021-06-20T06:14:25.000Z</Time>
            <Position>
              <LatitudeDegrees>38.84300974197685718536376953125</LatitudeDegrees>
              <LongitudeDegrees>-0.404881127178668975830078125</LongitudeDegrees>
            </Position>
            <AltitudeMeters>592.5999755859375</AltitudeMeters>
            <DistanceMeters>3777.5160691409</DistanceMeters>
          </Trackpoint>
          <Trackpoint>
            <Time>2021-06-20T06:14:28.000Z</Time>
            <Position>
              <LatitudeDegrees>38.8429984264075756072998046875</LatitudeDegrees>
              <LongitudeDegrees>-0.40496922098100185394287109375</LongitudeDegrees>
            </Position>
            <AltitudeMeters>593</AltitudeMeters>
            <DistanceMeters>3785.2559352334</DistanceMeters>
          </Trackpoint>
          <Trackpoint>
            <Time>2021-06-20T06:14:31.000Z</Time>
            <Position>
              <LatitudeDegrees>38.84298778139054775238037109375</LatitudeDegrees>
              <LongitudeDegrees>-0.4050801135599613189697265625</LongitudeDegrees>
            </Position>
            <AltitudeMeters>593.5999755859375</AltitudeMeters>
            <DistanceMeters>3794.9416703204</DistanceMeters>
          </Trackpoint>
          <Trackpoint>
            <Time>2021-06-20T06:14:32.000Z</Time>
            <Position>
              <LatitudeDegrees>38.8429833389818668365478515625</LatitudeDegrees>
              <LongitudeDegrees>-0.40511037223041057586669921875</LongitudeDegrees>
            </Position>
            <AltitudeMeters>594</AltitudeMeters>
            <DistanceMeters>3797.6108893662</DistanceMeters>
          </Trackpoint>
          <Trackpoint>
            <Time>2021-06-20T06:14:34.000Z</Time>
            <Position>
              <LatitudeDegrees>38.84297780692577362060546875</LatitudeDegrees>
              <LongitudeDegrees>-0.4051766730844974517822265625</LongitudeDegrees>
            </Position>
            <AltitudeMeters>594.79998779296875</AltitudeMeters>
            <DistanceMeters>3803.3911387416</DistanceMeters>
          </Trackpoint>
          <Trackpoint>
            <Time>2021-06-20T06:14:39.000Z</Time>
            <Position>
              <LatitudeDegrees>38.8429771363735198974609375</LatitudeDegrees>
              <LongitudeDegrees>-0.40531757287681102752685546875</LongitudeDegrees>
            </Position>
            <AltitudeMeters>595.79998779296875</AltitudeMeters>
            <DistanceMeters>3815.6060457443</DistanceMeters>
          </Trackpoint>
          <Trackpoint>
            <Time>2021-06-20T06:14:40.000Z</Time>
            <Position>
              <LatitudeDegrees>38.8429732806980609893798828125</LatitudeDegrees>
              <LongitudeDegrees>-0.405347160995006561279296875</LongitudeDegrees>
            </Position>
            <AltitudeMeters>596.20001220703125</AltitudeMeters>
            <DistanceMeters>3818.2084594956</DistanceMeters>
          </Trackpoint>
          <Trackpoint>
            <Time>2021-06-20T06:14:44.000Z</Time>
            <Position>
              <LatitudeDegrees>38.84295106865465641021728515625</LatitudeDegrees>
              <LongitudeDegrees>-0.4054878093302249908447265625</LongitudeDegrees>
            </Position>
            <AltitudeMeters>597.20001220703125</AltitudeMeters>
            <DistanceMeters>3830.6500659193</DistanceMeters>
          </Trackpoint>
          <Trackpoint>
            <Time>2021-06-20T06:14:45.000Z</Time>
            <Position>
              <LatitudeDegrees>38.84295500814914703369140625</LatitudeDegrees>
              <LongitudeDegrees>-0.4055218398571014404296875</LongitudeDegrees>
            </Position>
            <AltitudeMeters>597.20001220703125</AltitudeMeters>
            <DistanceMeters>3833.6324517591</DistanceMeters>
          </Trackpoint>
          <Trackpoint>
            <Time>2021-06-20T06:14:49.000Z</Time>
            <Position>
              <LatitudeDegrees>38.84295274503529071807861328125</LatitudeDegrees>
              <LongitudeDegrees>-0.40565284900367259979248046875</LongitudeDegrees>
            </Position>
            <AltitudeMeters>598</AltitudeMeters>
            <DistanceMeters>3844.9920200776</DistanceMeters>
          </Trackpoint>
          <Trackpoint>
            <Time>2021-06-20T06:14:52.000Z</Time>
            <Position>
              <LatitudeDegrees>38.84294972755014896392822265625</LatitudeDegrees>
              <LongitudeDegrees>-0.40575309656560420989990234375</LongitudeDegrees>
            </Position>
            <AltitudeMeters>598.4000244140625</AltitudeMeters>
            <DistanceMeters>3853.6889114932</DistanceMeters>
          </Trackpoint>
          <Trackpoint>
            <Time>2021-06-20T06:14:54.000Z</Time>
            <Position>
              <LatitudeDegrees>38.84294704534113407135009765625</LatitudeDegrees>
              <LongitudeDegrees>-0.405823923647403717041015625</LongitudeDegrees>
            </Position>
            <AltitudeMeters>598.79998779296875</AltitudeMeters>
            <DistanceMeters>3859.8370738198</DistanceMeters>
          </Trackpoint>
          <Trackpoint>
            <Time>2021-06-20T06:14:57.000Z</Time>
            <Position>
              <LatitudeDegrees>38.84294251911342144012451171875</LatitudeDegrees>
              <LongitudeDegrees>-0.4059025458991527557373046875</LongitudeDegrees>
            </Position>
            <AltitudeMeters>599.79998779296875</AltitudeMeters>
            <DistanceMeters>3866.6710737736</DistanceMeters>
          </Trackpoint>
          <Trackpoint>
            <Time>2021-06-20T06:14:59.000Z</Time>
            <Position>
              <LatitudeDegrees>38.842934556305408477783203125</LatitudeDegrees>
              <LongitudeDegrees>-0.40595359168946743011474609375</LongitudeDegrees>
            </Position>
            <AltitudeMeters>600.5999755859375</AltitudeMeters>
            <DistanceMeters>3871.1845926289</DistanceMeters>
          </Trackpoint>
          <Trackpoint>
            <Time>2021-06-20T06:15:00.000Z</Time>
            <Position>
              <LatitudeDegrees>38.84293179027736186981201171875</LatitudeDegrees>
              <LongitudeDegrees>-0.4059860296547412872314453125</LongitudeDegrees>
            </Position>
            <AltitudeMeters>601.20001220703125</AltitudeMeters>
            <DistanceMeters>3874.0131342548</DistanceMeters>
          </Trackpoint>
          <Trackpoint>
            <Time>2021-06-20T06:15:05.000Z</Time>
            <Position>
              <LatitudeDegrees>38.8429119251668453216552734375</LatitudeDegrees>
              <LongitudeDegrees>-0.4061198048293590545654296875</LongitudeDegrees>
            </Position>
            <AltitudeMeters>602.20001220703125</AltitudeMeters>
            <DistanceMeters>3885.8190323533</DistanceMeters>
          </Trackpoint>
          <Trackpoint>
            <Time>2021-06-20T06:15:11.000Z</Time>
            <Position>
              <LatitudeDegrees>38.84287680499255657196044921875</LatitudeDegrees>
              <LongitudeDegrees>-0.40629758499562740325927734375</LongitudeDegrees>
            </Position>
            <AltitudeMeters>603.4000244140625</AltitudeMeters>
            <DistanceMeters>3901.7189071996</DistanceMeters>
          </Trackpoint>
          <Trackpoint>
            <Time>2021-06-20T06:15:16.000Z</Time>
            <Position>
              <LatitudeDegrees>38.84283372201025485992431640625</LatitudeDegrees>
              <LongitudeDegrees>-0.4064364731311798095703125</LongitudeDegrees>
            </Position>
            <AltitudeMeters>604.5999755859375</AltitudeMeters>
            <DistanceMeters>3914.678823166</DistanceMeters>
          </Trackpoint>
          <Trackpoint>
            <Time>2021-06-20T06:15:20.000Z</Time>
            <Position>
              <LatitudeDegrees>38.8427942432463169097900390625</LatitudeDegrees>
              <LongitudeDegrees>-0.4065399058163166046142578125</LongitudeDegrees>
            </Position>
            <AltitudeMeters>605.79998779296875</AltitudeMeters>
            <DistanceMeters>3924.6643178505</DistanceMeters>
          </Trackpoint>
          <Trackpoint>
            <Time>2021-06-20T06:15:21.000Z</Time>
            <Position>
              <LatitudeDegrees>38.84277798235416412353515625</LatitudeDegrees>
              <LongitudeDegrees>-0.40656195022165775299072265625</LongitudeDegrees>
            </Position>
            <AltitudeMeters>606</AltitudeMeters>
            <DistanceMeters>3927.2977754083</DistanceMeters>
          </Trackpoint>
          <Trackpoint>
            <Time>2021-06-20T06:15:25.000Z</Time>
            <Position>
              <LatitudeDegrees>38.84272358380258083343505859375</LatitudeDegrees>
              <LongitudeDegrees>-0.4066579230129718780517578125</LongitudeDegrees>
            </Position>
            <AltitudeMeters>607</AltitudeMeters>
            <DistanceMeters>3937.587023011</DistanceMeters>
          </Trackpoint>
          <Trackpoint>
            <Time>2021-06-20T06:15:27.000Z</Time>
            <Position>
              <LatitudeDegrees>38.84269894100725650787353515625</LatitudeDegrees>
              <LongitudeDegrees>-0.40671550668776035308837890625</LongitudeDegrees>
            </Position>
            <AltitudeMeters>607.4000244140625</AltitudeMeters>
            <DistanceMeters>3943.2822872355</DistanceMeters>
          </Trackpoint>
          <Trackpoint>
            <Time>2021-06-20T06:15:30.000Z</Time>
            <Position>
              <LatitudeDegrees>38.84266943670809268951416015625</LatitudeDegrees>
              <LongitudeDegrees>-0.406797565519809722900390625</LongitudeDegrees>
            </Position>
            <AltitudeMeters>608.5999755859375</AltitudeMeters>
            <DistanceMeters>3951.1166621046</DistanceMeters>
          </Trackpoint>
          <Trackpoint>
            <Time>2021-06-20T06:15:33.000Z</Time>
            <Position>
              <LatitudeDegrees>38.8426212407648563385009765625</LatitudeDegrees>
              <LongitudeDegrees>-0.40685833431780338287353515625</LongitudeDegrees>
            </Position>
            <AltitudeMeters>609.4000244140625</AltitudeMeters>
            <DistanceMeters>3958.6351911189</DistanceMeters>
          </Trackpoint>
          <Trackpoint>
            <Time>2021-06-20T06:15:34.000Z</Time>
            <Position>
              <LatitudeDegrees>38.84260456077754497528076171875</LatitudeDegrees>
              <LongitudeDegrees>-0.406874008476734161376953125</LongitudeDegrees>
            </Position>
            <AltitudeMeters>609.5999755859375</AltitudeMeters>
            <DistanceMeters>3960.9355443084</DistanceMeters>
          </Trackpoint>
          <Trackpoint>
            <Time>2021-06-20T06:15:39.000Z</Time>
            <Position>
              <LatitudeDegrees>38.8425104320049285888671875</LatitudeDegrees>
              <LongitudeDegrees>-0.40695237927138805389404296875</LongitudeDegrees>
            </Position>
            <AltitudeMeters>610.5999755859375</AltitudeMeters>
            <DistanceMeters>3973.4224306279</DistanceMeters>
          </Trackpoint>
          <Trackpoint>
            <Time>2021-06-20T06:15:40.000Z</Time>
            <Position>
              <LatitudeDegrees>38.8424908183515071868896484375</LatitudeDegrees>
              <LongitudeDegrees>-0.40696562267839908599853515625</LongitudeDegrees>
            </Position>
            <AltitudeMeters>611</AltitudeMeters>
            <DistanceMeters>3975.8894676206</DistanceMeters>
          </Trackpoint>
          <Trackpoint>
            <Time>2021-06-20T06:15:44.000Z</Time>
            <Position>
              <LatitudeDegrees>38.84241320192813873291015625</LatitudeDegrees>
              <LongitudeDegrees>-0.4070280678570270538330078125</LongitudeDegrees>
            </Position>
            <AltitudeMeters>612.20001220703125</AltitudeMeters>
            <DistanceMeters>3986.0843771283</DistanceMeters>
          </Trackpoint>
          <Trackpoint>
            <Time>2021-06-20T06:15:45.000Z</Time>
            <Position>
              <LatitudeDegrees>38.8423892296850681304931640625</LatitudeDegrees>
              <LongitudeDegrees>-0.40703737176954746246337890625</LongitudeDegrees>
            </Position>
            <AltitudeMeters>612.20001220703125</AltitudeMeters>
            <DistanceMeters>3988.8711074241</DistanceMeters>
          </Trackpoint>
          <Trackpoint>
            <Time>2021-06-20T06:15:50.000Z</Time>
            <Position>
              <LatitudeDegrees>38.8422812707722187042236328125</LatitudeDegrees>
              <LongitudeDegrees>-0.40706838481128215789794921875</LongitudeDegrees>
            </Position>
            <AltitudeMeters>612.79998779296875</AltitudeMeters>
            <DistanceMeters>4001.1839443603</DistanceMeters>
          </Trackpoint>
          <Trackpoint>
            <Time>2021-06-20T06:15:51.000Z</Time>
            <Position>
              <LatitudeDegrees>38.8422598131000995635986328125</LatitudeDegrees>
              <LongitudeDegrees>-0.4070726595818996429443359375</LongitudeDegrees>
            </Position>
            <AltitudeMeters>613.20001220703125</AltitudeMeters>
            <DistanceMeters>4003.6010623672</DistanceMeters>
          </Trackpoint>
          <Trackpoint>
            <Time>2021-06-20T06:15:55.000Z</Time>
            <Position>
              <LatitudeDegrees>38.84216467849910259246826171875</LatitudeDegrees>
              <LongitudeDegrees>-0.40708363987505435943603515625</LongitudeDegrees>
            </Position>
            <AltitudeMeters>614.4000244140625</AltitudeMeters>
            <DistanceMeters>4014.2321694014</DistanceMeters>
          </Trackpoint>
          <Trackpoint>
            <Time>2021-06-20T06:15:57.000Z</Time>
            <Position>
              <LatitudeDegrees>38.84211623109877109527587890625</LatitudeDegrees>
              <LongitudeDegrees>-0.4070907644927501678466796875</LongitudeDegrees>
            </Position>
            <AltitudeMeters>615</AltitudeMeters>
            <DistanceMeters>4019.6595176821</DistanceMeters>
          </Trackpoint>
          <Trackpoint>
            <Time>2021-06-20T06:15:59.000Z</Time>
            <Position>
              <LatitudeDegrees>38.842069543898105621337890625</LatitudeDegrees>
              <LongitudeDegrees>-0.40708950720727443695068359375</LongitudeDegrees>
            </Position>
            <AltitudeMeters>615.4000244140625</AltitudeMeters>
            <DistanceMeters>4024.8565320793</DistanceMeters>
          </Trackpoint>
          <Trackpoint>
            <Time>2021-06-20T06:16:02.000Z</Time>
            <Position>
              <LatitudeDegrees>38.841990418732166290283203125</LatitudeDegrees>
              <LongitudeDegrees>-0.40706670843064785003662109375</LongitudeDegrees>
            </Position>
            <AltitudeMeters>616.79998779296875</AltitudeMeters>
            <DistanceMeters>4033.8825693979</DistanceMeters>
          </Trackpoint>
          <Trackpoint>
            <Time>2021-06-20T06:16:03.000Z</Time>
            <Position>
              <LatitudeDegrees>38.84196384809911251068115234375</LatitudeDegrees>
              <LongitudeDegrees>-0.40706209838390350341796875</LongitudeDegrees>
            </Position>
            <AltitudeMeters>617</AltitudeMeters>
            <DistanceMeters>4036.8679815052</DistanceMeters>
          </Trackpoint>
          <Trackpoint>
            <Time>2021-06-20T06:16:08.000Z</Time>
            <Position>
              <LatitudeDegrees>38.8418586552143096923828125</LatitudeDegrees>
              <LongitudeDegrees>-0.40705866180360317230224609375</LongitudeDegrees>
            </Position>
            <AltitudeMeters>618</AltitudeMeters>
            <DistanceMeters>4048.580192708</DistanceMeters>
          </Trackpoint>
          <Trackpoint>
            <Time>2021-06-20T06:16:10.000Z</Time>
            <Position>
              <LatitudeDegrees>38.84181465022265911102294921875</LatitudeDegrees>
              <LongitudeDegrees>-0.40705748833715915679931640625</LongitudeDegrees>
            </Position>
            <AltitudeMeters>619</AltitudeMeters>
            <DistanceMeters>4053.4793705154</DistanceMeters>
          </Trackpoint>
          <Trackpoint>
            <Time>2021-06-20T06:16:11.000Z</Time>
            <Position>
              <LatitudeDegrees>38.8417941145598888397216796875</LatitudeDegrees>
              <LongitudeDegrees>-0.40705665014684200286865234375</LongitudeDegrees>
            </Position>
            <AltitudeMeters>619.20001220703125</AltitudeMeters>
            <DistanceMeters>4055.7679168526</DistanceMeters>
          </Trackpoint>
          <Trackpoint>
            <Time>2021-06-20T06:16:16.000Z</Time>
            <Position>
              <LatitudeDegrees>38.84168992750346660614013671875</LatitudeDegrees>
              <LongitudeDegrees>-0.40704592131078243255615234375</LongitudeDegrees>
            </Position>
            <AltitudeMeters>620</AltitudeMeters>
            <DistanceMeters>4067.4016086889</DistanceMeters>
          </Trackpoint>
          <Trackpoint>
            <Time>2021-06-20T06:16:17.000Z</Time>
            <Position>
              <LatitudeDegrees>38.84166411124169826507568359375</LatitudeDegrees>
              <LongitudeDegrees>-0.40702999569475650787353515625</LongitudeDegrees>
            </Position>
            <AltitudeMeters>620.20001220703125</AltitudeMeters>
            <DistanceMeters>4070.590317844</DistanceMeters>
          </Trackpoint>
          <Trackpoint>
            <Time>2021-06-20T06:16:22.000Z</Time>
            <Position>
              <LatitudeDegrees>38.84155229665338993072509765625</LatitudeDegrees>
              <LongitudeDegrees>-0.40695237927138805389404296875</LongitudeDegrees>
            </Position>
            <AltitudeMeters>621</AltitudeMeters>
            <DistanceMeters>4084.7384521568</DistanceMeters>
          </Trackpoint>
          <Trackpoint>
            <Time>2021-06-20T06:16:23.000Z</Time>
            <Position>
              <LatitudeDegrees>38.841535113751888275146484375</LatitudeDegrees>
              <LongitudeDegrees>-0.40693209506571292877197265625</LongitudeDegrees>
            </Position>
            <AltitudeMeters>621.20001220703125</AltitudeMeters>
            <DistanceMeters>4087.3373937067</DistanceMeters>
          </Trackpoint>
          <Trackpoint>
            <Time>2021-06-20T06:16:27.000Z</Time>
            <Position>
              <LatitudeDegrees>38.84145892225205898284912109375</LatitudeDegrees>
              <LongitudeDegrees>-0.4068825580179691314697265625</LongitudeDegrees>
            </Position>
            <AltitudeMeters>621.79998779296875</AltitudeMeters>
            <DistanceMeters>4096.8429155177</DistanceMeters>
          </Trackpoint>
          <Trackpoint>
            <Time>2021-06-20T06:16:29.000Z</Time>
            <Position>
              <LatitudeDegrees>38.84140561334788799285888671875</LatitudeDegrees>
              <LongitudeDegrees>-0.40689270012080669403076171875</LongitudeDegrees>
            </Position>
            <AltitudeMeters>622.5999755859375</AltitudeMeters>
            <DistanceMeters>4102.8409005587</DistanceMeters>
          </Trackpoint>
          <Trackpoint>
            <Time>2021-06-20T06:16:33.000Z</Time>
            <Position>
              <LatitudeDegrees>38.8412969000637531280517578125</LatitudeDegrees>
              <LongitudeDegrees>-0.40689714252948760986328125</LongitudeDegrees>
            </Position>
            <AltitudeMeters>623.20001220703125</AltitudeMeters>
            <DistanceMeters>4114.947020527</DistanceMeters>
          </Trackpoint>
          <Trackpoint>
            <Time>2021-06-20T06:16:34.000Z</Time>
            <Position>
              <LatitudeDegrees>38.84127116762101650238037109375</LatitudeDegrees>
              <LongitudeDegrees>-0.4068976454436779022216796875</LongitudeDegrees>
            </Position>
            <AltitudeMeters>623.5999755859375</AltitudeMeters>
            <DistanceMeters>4117.8120405073</DistanceMeters>
          </Trackpoint>
          <Trackpoint>
            <Time>2021-06-20T06:16:37.000Z</Time>
            <Position>
              <LatitudeDegrees>38.84118475019931793212890625</LatitudeDegrees>
              <LongitudeDegrees>-0.4069125652313232421875</LongitudeDegrees>
            </Position>
            <AltitudeMeters>624.5999755859375</AltitudeMeters>
            <DistanceMeters>4127.5173342889</DistanceMeters>
          </Trackpoint>
          <Trackpoint>
            <Time>2021-06-20T06:16:38.000Z</Time>
            <Position>
              <LatitudeDegrees>38.84115667082369327545166015625</LatitudeDegrees>
              <LongitudeDegrees>-0.40692589245736598968505859375</LongitudeDegrees>
            </Position>
            <AltitudeMeters>625</AltitudeMeters>
            <DistanceMeters>4130.8500500022</DistanceMeters>
          </Trackpoint>
          <Trackpoint>
            <Time>2021-06-20T06:16:42.000Z</Time>
            <Position>
              <LatitudeDegrees>38.841042257845401763916015625</LatitudeDegrees>
              <LongitudeDegrees>-0.40699697099626064300537109375</LongitudeDegrees>
            </Position>
            <AltitudeMeters>626</AltitudeMeters>
            <DistanceMeters>4144.9972269045</DistanceMeters>
          </Trackpoint>
          <Trackpoint>
            <Time>2021-06-20T06:16:43.000Z</Time>
            <Position>
              <LatitudeDegrees>38.84101920761168003082275390625</LatitudeDegrees>
              <LongitudeDegrees>-0.4070186801254749298095703125</LongitudeDegrees>
            </Position>
            <AltitudeMeters>626.4000244140625</AltitudeMeters>
            <DistanceMeters>4148.1802672388</DistanceMeters>
          </Trackpoint>
          <Trackpoint>
            <Time>2021-06-20T06:16:45.000Z</Time>
            <Position>
              <LatitudeDegrees>38.84097344242036342620849609375</LatitudeDegrees>
              <LongitudeDegrees>-0.40706302039325237274169921875</LongitudeDegrees>
            </Position>
            <AltitudeMeters>627.4000244140625</AltitudeMeters>
            <DistanceMeters>4154.5619319717</DistanceMeters>
          </Trackpoint>
          <Trackpoint>
            <Time>2021-06-20T06:16:49.000Z</Time>
            <Position>
              <LatitudeDegrees>38.84090890176594257354736328125</LatitudeDegrees>
              <LongitudeDegrees>-0.40713225491344928741455078125</LongitudeDegrees>
            </Position>
            <AltitudeMeters>628</AltitudeMeters>
            <DistanceMeters>4163.922907445</DistanceMeters>
          </Trackpoint>
          <Trackpoint>
            <Time>2021-06-20T06:16:51.000Z</Time>
            <Position>
              <LatitudeDegrees>38.8408680818974971771240234375</LatitudeDegrees>
              <LongitudeDegrees>-0.40717349387705326080322265625</LongitudeDegrees>
            </Position>
            <AltitudeMeters>628.5999755859375</AltitudeMeters>
            <DistanceMeters>4169.7039378825</DistanceMeters>
          </Trackpoint>
          <Trackpoint>
            <Time>2021-06-20T06:16:54.000Z</Time>
            <Position>
              <LatitudeDegrees>38.84080328978598117828369140625</LatitudeDegrees>
              <LongitudeDegrees>-0.40720886550843715667724609375</LongitudeDegrees>
            </Position>
            <AltitudeMeters>629.4000244140625</AltitudeMeters>
            <DistanceMeters>4177.5400414945</DistanceMeters>
          </Trackpoint>
          <Trackpoint>
            <Time>2021-06-20T06:16:55.000Z</Time>
            <Position>
              <LatitudeDegrees>38.84077780880033969879150390625</LatitudeDegrees>
              <LongitudeDegrees>-0.4072151519358158111572265625</LongitudeDegrees>
            </Position>
            <AltitudeMeters>630</AltitudeMeters>
            <DistanceMeters>4180.4286035302</DistanceMeters>
          </Trackpoint>
          <Trackpoint>
            <Time>2021-06-20T06:16:58.000Z</Time>
            <Position>
              <LatitudeDegrees>38.840690888464450836181640625</LatitudeDegrees>
              <LongitudeDegrees>-0.407257564365863800048828125</LongitudeDegrees>
            </Position>
            <AltitudeMeters>631.20001220703125</AltitudeMeters>
            <DistanceMeters>4190.7782299379</DistanceMeters>
          </Trackpoint>
          <Trackpoint>
            <Time>2021-06-20T06:17:01.000Z</Time>
            <Position>
              <LatitudeDegrees>38.84063364006578922271728515625</LatitudeDegrees>
              <LongitudeDegrees>-0.4073231108486652374267578125</LongitudeDegrees>
            </Position>
            <AltitudeMeters>631.5999755859375</AltitudeMeters>
            <DistanceMeters>4199.3158395012</DistanceMeters>
          </Trackpoint>
          <Trackpoint>
            <Time>2021-06-20T06:17:03.000Z</Time>
            <Position>
              <LatitudeDegrees>38.8405944965779781341552734375</LatitudeDegrees>
              <LongitudeDegrees>-0.4073925130069255828857421875</LongitudeDegrees>
            </Position>
            <AltitudeMeters>631.5999755859375</AltitudeMeters>
            <DistanceMeters>4206.7437441231</DistanceMeters>
          </Trackpoint>
          <Trackpoint>
            <Time>2021-06-20T06:17:06.000Z</Time>
            <Position>
              <LatitudeDegrees>38.8405499048531055450439453125</LatitudeDegrees>
              <LongitudeDegrees>-0.40748412720859050750732421875</LongitudeDegrees>
            </Position>
            <AltitudeMeters>632.79998779296875</AltitudeMeters>
            <DistanceMeters>4216.1085774064</DistanceMeters>
          </Trackpoint>
          <Trackpoint>
            <Time>2021-06-20T06:17:08.000Z</Time>
            <Position>
              <LatitudeDegrees>38.84053339250385761260986328125</LatitudeDegrees>
              <LongitudeDegrees>-0.407541207969188690185546875</LongitudeDegrees>
            </Position>
            <AltitudeMeters>633.20001220703125</AltitudeMeters>
            <DistanceMeters>4221.3874803139</DistanceMeters>
          </Trackpoint>
          <Trackpoint>
            <Time>2021-06-20T06:17:12.000Z</Time>
            <Position>
              <LatitudeDegrees>38.840524256229400634765625</LatitudeDegrees>
              <LongitudeDegrees>-0.4076728038489818572998046875</LongitudeDegrees>
            </Position>
            <AltitudeMeters>634</AltitudeMeters>
            <DistanceMeters>4232.8404664059</DistanceMeters>
          </Trackpoint>
          <Trackpoint>
            <Time>2021-06-20T06:17:13.000Z</Time>
            <Position>
              <LatitudeDegrees>38.84052651934325695037841796875</LatitudeDegrees>
              <LongitudeDegrees>-0.4077053256332874298095703125</LongitudeDegrees>
            </Position>
            <AltitudeMeters>634.4000244140625</AltitudeMeters>
            <DistanceMeters>4235.6690080318</DistanceMeters>
          </Trackpoint>
          <Trackpoint>
            <Time>2021-06-20T06:17:14.000Z</Time>
            <Position>
              <LatitudeDegrees>38.84053305722773075103759765625</LatitudeDegrees>
              <LongitudeDegrees>-0.4077427089214324951171875</LongitudeDegrees>
            </Position>
            <AltitudeMeters>634.79998779296875</AltitudeMeters>
            <DistanceMeters>4238.9895084968</DistanceMeters>
          </Trackpoint>
          <Trackpoint>
            <Time>2021-06-20T06:17:15.000Z</Time>
            <Position>
              <LatitudeDegrees>38.84053456597030162811279296875</LatitudeDegrees>
              <LongitudeDegrees>-0.40777313522994518280029296875</LongitudeDegrees>
            </Position>
            <AltitudeMeters>635</AltitudeMeters>
            <DistanceMeters>4241.6315246003</DistanceMeters>
          </Trackpoint>
          <Trackpoint>
            <Time>2021-06-20T06:17:17.000Z</Time>
            <Position>
              <LatitudeDegrees>38.8405385054647922515869140625</LatitudeDegrees>
              <LongitudeDegrees>-0.4078273661434650421142578125</LongitudeDegrees>
            </Position>
            <AltitudeMeters>635.5999755859375</AltitudeMeters>
            <DistanceMeters>4246.3533101461</DistanceMeters>
          </Trackpoint>
          <Trackpoint>
            <Time>2021-06-20T06:17:18.000Z</Time>
            <Position>
              <LatitudeDegrees>38.84053993038833141326904296875</LatitudeDegrees>
              <LongitudeDegrees>-0.40785879828035831451416015625</LongitudeDegrees>
            </Position>
            <AltitudeMeters>636</AltitudeMeters>
            <DistanceMeters>4249.0810900107</DistanceMeters>
          </Trackpoint>
          <Trackpoint>
            <Time>2021-06-20T06:17:19.000Z</Time>
            <Position>
              <LatitudeDegrees>38.84054328314960002899169921875</LatitudeDegrees>
              <LongitudeDegrees>-0.4078900627791881561279296875</LongitudeDegrees>
            </Position>
            <AltitudeMeters>636.20001220703125</AltitudeMeters>
            <DistanceMeters>4251.8187830995</DistanceMeters>
          </Trackpoint>
          <Trackpoint>
            <Time>2021-06-20T06:17:21.000Z</Time>
            <Position>
              <LatitudeDegrees>38.8405572809278964996337890625</LatitudeDegrees>
              <LongitudeDegrees>-0.40795804001390933990478515625</LongitudeDegrees>
            </Position>
            <AltitudeMeters>637</AltitudeMeters>
            <DistanceMeters>4257.9145820272</DistanceMeters>
          </Trackpoint>
          <Trackpoint>
            <Time>2021-06-20T06:17:22.000Z</Time>
            <Position>
              <LatitudeDegrees>38.84056172333657741546630859375</LatitudeDegrees>
              <LongitudeDegrees>-0.40799039416015148162841796875</LongitudeDegrees>
            </Position>
            <AltitudeMeters>637.5999755859375</AltitudeMeters>
            <DistanceMeters>4260.7622141394</DistanceMeters>
          </Trackpoint>
          <Trackpoint>
            <Time>2021-06-20T06:17:24.000Z</Time>
            <Position>
              <LatitudeDegrees>38.8405643217265605926513671875</LatitudeDegrees>
              <LongitudeDegrees>-0.40804588235914707183837890625</LongitudeDegrees>
            </Position>
            <AltitudeMeters>638</AltitudeMeters>
            <DistanceMeters>4265.5824202232</DistanceMeters>
          </Trackpoint>
          <Trackpoint>
            <Time>2021-06-20T06:17:25.000Z</Time>
            <Position>
              <LatitudeDegrees>38.8405609689652919769287109375</LatitudeDegrees>
              <LongitudeDegrees>-0.4080724529922008514404296875</LongitudeDegrees>
            </Position>
            <AltitudeMeters>638</AltitudeMeters>
            <DistanceMeters>4267.9178358548</DistanceMeters>
          </Trackpoint>
          <Trackpoint>
            <Time>2021-06-20T06:17:26.000Z</Time>
            <Position>
              <LatitudeDegrees>38.84055786766111850738525390625</LatitudeDegrees>
              <LongitudeDegrees>-0.40810002945363521575927734375</LongitudeDegrees>
            </Position>
            <AltitudeMeters>638.20001220703125</AltitudeMeters>
            <DistanceMeters>4270.3349538617</DistanceMeters>
          </Trackpoint>
          <Trackpoint>
            <Time>2021-06-20T06:17:30.000Z</Time>
            <Position>
              <LatitudeDegrees>38.84056373499333858489990234375</LatitudeDegrees>
              <LongitudeDegrees>-0.40826263837516307830810546875</LongitudeDegrees>
            </Position>
            <AltitudeMeters>639.4000244140625</AltitudeMeters>
            <DistanceMeters>4284.4469808562</DistanceMeters>
          </Trackpoint>
          <Trackpoint>
            <Time>2021-06-20T06:17:31.000Z</Time>
            <Position>
              <LatitudeDegrees>38.84056474082171916961669921875</LatitudeDegrees>
              <LongitudeDegrees>-0.4082944057881832122802734375</LongitudeDegrees>
            </Position>
            <AltitudeMeters>639.5999755859375</AltitudeMeters>
            <DistanceMeters>4287.2043934778</DistanceMeters>
          </Trackpoint>
          <Trackpoint>
            <Time>2021-06-20T06:17:35.000Z</Time>
            <Position>
              <LatitudeDegrees>38.84056784212589263916015625</LatitudeDegrees>
              <LongitudeDegrees>-0.40829784236848354339599609375</LongitudeDegrees>
            </Position>
            <AltitudeMeters>640.20001220703125</AltitudeMeters>
            <DistanceMeters>4287.6601255902</DistanceMeters>
          </Trackpoint>
          <Trackpoint>
            <Time>2021-06-20T06:23:39.000Z</Time>
            <Position>
              <LatitudeDegrees>38.84052383713424205780029296875</LatitudeDegrees>
              <LongitudeDegrees>-0.40826012380421161651611328125</LongitudeDegrees>
            </Position>
            <AltitudeMeters>639.79998779296875</AltitudeMeters>
            <DistanceMeters>4293.5487157054</DistanceMeters>
          </Trackpoint>
          <Trackpoint>
            <Time>2021-06-20T06:23:40.000Z</Time>
            <Position>
              <LatitudeDegrees>38.84050942026078701019287109375</LatitudeDegrees>
              <LongitudeDegrees>-0.40826372802257537841796875</LongitudeDegrees>
            </Position>
            <AltitudeMeters>639.79998779296875</AltitudeMeters>
            <DistanceMeters>4295.1836171175</DistanceMeters>
          </Trackpoint>
          <Trackpoint>
            <Time>2021-06-20T06:23:41.000Z</Time>
            <Position>
              <LatitudeDegrees>38.84049567393958568572998046875</LatitudeDegrees>
              <LongitudeDegrees>-0.4082769714295864105224609375</LongitudeDegrees>
            </Position>
            <AltitudeMeters>639.79998779296875</AltitudeMeters>
            <DistanceMeters>4297.0983523567</DistanceMeters>
          </Trackpoint>
          <Trackpoint>
            <Time>2021-06-20T06:23:43.000Z</Time>
            <Position>
              <LatitudeDegrees>38.84048067033290863037109375</LatitudeDegrees>
              <LongitudeDegrees>-0.4082900471985340118408203125</LongitudeDegrees>
            </Position>
            <AltitudeMeters>639.79998779296875</AltitudeMeters>
            <DistanceMeters>4299.1186480164</DistanceMeters>
          </Trackpoint>
          <Trackpoint>
            <Time>2021-06-20T06:23:46.000Z</Time>
            <Position>
              <LatitudeDegrees>38.840416967868804931640625</LatitudeDegrees>
              <LongitudeDegrees>-0.4083073139190673828125</LongitudeDegrees>
            </Position>
            <AltitudeMeters>640.20001220703125</AltitudeMeters>
            <DistanceMeters>4306.3643960417</DistanceMeters>
          </Trackpoint>
          <Trackpoint>
            <Time>2021-06-20T06:23:48.000Z</Time>
            <Position>
              <LatitudeDegrees>38.84036709554493427276611328125</LatitudeDegrees>
              <LongitudeDegrees>-0.4083198867738246917724609375</LongitudeDegrees>
            </Position>
            <AltitudeMeters>640.4000244140625</AltitudeMeters>
            <DistanceMeters>4312.0214792934</DistanceMeters>
          </Trackpoint>
          <Trackpoint>
            <Time>2021-06-20T06:23:49.000Z</Time>
            <Position>
              <LatitudeDegrees>38.84036273695528507232666015625</LatitudeDegrees>
              <LongitudeDegrees>-0.40831427089869976043701171875</LongitudeDegrees>
            </Position>
            <AltitudeMeters>640.79998779296875</AltitudeMeters>
            <DistanceMeters>4312.7067266758</DistanceMeters>
          </Trackpoint>
          <Trackpoint>
            <Time>2021-06-20T06:23:50.000Z</Time>
            <Position>
              <LatitudeDegrees>38.84034479968249797821044921875</LatitudeDegrees>
              <LongitudeDegrees>-0.40829298086464405059814453125</LongitudeDegrees>
            </Position>
            <AltitudeMeters>641.4000244140625</AltitudeMeters>
            <DistanceMeters>4315.4262179164</DistanceMeters>
          </Trackpoint>
          <Trackpoint>
            <Time>2021-06-20T06:23:51.000Z</Time>
            <Position>
              <LatitudeDegrees>38.84034178219735622406005859375</LatitudeDegrees>
              <LongitudeDegrees>-0.408280156552791595458984375</LongitudeDegrees>
            </Position>
            <AltitudeMeters>641.79998779296875</AltitudeMeters>
            <DistanceMeters>4316.5900527271</DistanceMeters>
          </Trackpoint>
          <Trackpoint>
            <Time>2021-06-20T06:23:54.000Z</Time>
            <Position>
              <LatitudeDegrees>38.8403121940791606903076171875</LatitudeDegrees>
              <LongitudeDegrees>-0.40822491981089115142822265625</LongitudeDegrees>
            </Position>
            <AltitudeMeters>642.4000244140625</AltitudeMeters>
            <DistanceMeters>4322.4030163476</DistanceMeters>
          </Trackpoint>
          <Trackpoint>
            <Time>2021-06-20T06:23:56.000Z</Time>
            <Position>
              <LatitudeDegrees>38.8402895629405975341796875</LatitudeDegrees>
              <LongitudeDegrees>-0.40822458453476428985595703125</LongitudeDegrees>
            </Position>
            <AltitudeMeters>642.5999755859375</AltitudeMeters>
            <DistanceMeters>4324.9225686372</DistanceMeters>
          </Trackpoint>
          <Trackpoint>
            <Time>2021-06-20T06:23:57.000Z</Time>
            <Position>
              <LatitudeDegrees>38.84027791209518909454345703125</LatitudeDegrees>
              <LongitudeDegrees>-0.40822508744895458221435546875</LongitudeDegrees>
            </Position>
            <AltitudeMeters>642.5999755859375</AltitudeMeters>
            <DistanceMeters>4326.2150716903</DistanceMeters>
          </Trackpoint>
          <Trackpoint>
            <Time>2021-06-20T06:24:00.000Z</Time>
            <Position>
              <LatitudeDegrees>38.8402404449880123138427734375</LatitudeDegrees>
              <LongitudeDegrees>-0.4082065634429454803466796875</LongitudeDegrees>
            </Position>
            <AltitudeMeters>642.79998779296875</AltitudeMeters>
            <DistanceMeters>4330.6843590041</DistanceMeters>
          </Trackpoint>
          <Trackpoint>
            <Time>2021-06-20T06:24:08.000Z</Time>
            <Position>
              <LatitudeDegrees>38.8401666842401027679443359375</LatitudeDegrees>
              <LongitudeDegrees>-0.4082429409027099609375</LongitudeDegrees>
            </Position>
            <AltitudeMeters>644.5999755859375</AltitudeMeters>
            <DistanceMeters>4339.4788234416</DistanceMeters>
          </Trackpoint>
          <Trackpoint>
            <Time>2021-06-20T06:24:10.000Z</Time>
            <Position>
              <LatitudeDegrees>38.84014447219669818878173828125</LatitudeDegrees>
              <LongitudeDegrees>-0.4082347266376018524169921875</LongitudeDegrees>
            </Position>
            <AltitudeMeters>644.79998779296875</AltitudeMeters>
            <DistanceMeters>4342.0498185714</DistanceMeters>
          </Trackpoint>
          <Trackpoint>
            <Time>2021-06-20T06:24:14.000Z</Time>
            <Position>
              <LatitudeDegrees>38.840094096958637237548828125</LatitudeDegrees>
              <LongitudeDegrees>-0.40820664726197719573974609375</LongitudeDegrees>
            </Position>
            <AltitudeMeters>646.4000244140625</AltitudeMeters>
            <DistanceMeters>4348.1618907444</DistanceMeters>
          </Trackpoint>
          <Trackpoint>
            <Time>2021-06-20T06:24:18.000Z</Time>
            <Position>
              <LatitudeDegrees>38.84003735147416591644287109375</LatitudeDegrees>
              <LongitudeDegrees>-0.40817060507833957672119140625</LongitudeDegrees>
            </Position>
            <AltitudeMeters>647</AltitudeMeters>
            <DistanceMeters>4355.2079790414</DistanceMeters>
          </Trackpoint>
          <Trackpoint>
            <Time>2021-06-20T06:24:22.000Z</Time>
            <Position>
              <LatitudeDegrees>38.83999460376799106597900390625</LatitudeDegrees>
              <LongitudeDegrees>-0.40810220874845981597900390625</LongitudeDegrees>
            </Position>
            <AltitudeMeters>647.4000244140625</AltitudeMeters>
            <DistanceMeters>4362.8107100848</DistanceMeters>
          </Trackpoint>
          <Trackpoint>
            <Time>2021-06-20T06:24:26.000Z</Time>
            <Position>
              <LatitudeDegrees>38.839953951537609100341796875</LatitudeDegrees>
              <LongitudeDegrees>-0.40802492760121822357177734375</LongitudeDegrees>
            </Position>
            <AltitudeMeters>648.4000244140625</AltitudeMeters>
            <DistanceMeters>4370.8963611689</DistanceMeters>
          </Trackpoint>
          <Trackpoint>
            <Time>2021-06-20T06:24:52.000Z</Time>
            <Position>
              <LatitudeDegrees>38.839634768664836883544921875</LatitudeDegrees>
              <LongitudeDegrees>-0.40748194791376590728759765625</LongitudeDegrees>
            </Position>
            <AltitudeMeters>654.20001220703125</AltitudeMeters>
            <DistanceMeters>4429.8703719059</DistanceMeters>
          </Trackpoint>
          <Trackpoint>
            <Time>2021-06-20T06:25:06.000Z</Time>
            <Position>
              <LatitudeDegrees>38.839392364025115966796875</LatitudeDegrees>
              <LongitudeDegrees>-0.40728027932345867156982421875</LongitudeDegrees>
            </Position>
            <AltitudeMeters>657.4000244140625</AltitudeMeters>
            <DistanceMeters>4462.0200314676</DistanceMeters>
          </Trackpoint>
          <Trackpoint>
            <Time>2021-06-20T06:25:14.000Z</Time>
            <Position>
              <LatitudeDegrees>38.83925615809857845306396484375</LatitudeDegrees>
              <LongitudeDegrees>-0.40722009725868701934814453125</LongitudeDegrees>
            </Position>
            <AltitudeMeters>658.20001220703125</AltitudeMeters>
            <DistanceMeters>4478.0528152575</DistanceMeters>
          </Trackpoint>
          <Trackpoint>
            <Time>2021-06-20T06:25:16.000Z</Time>
            <Position>
              <LatitudeDegrees>38.83922346867620944976806640625</LatitudeDegrees>
              <LongitudeDegrees>-0.40720953606069087982177734375</LongitudeDegrees>
            </Position>
            <AltitudeMeters>658.5999755859375</AltitudeMeters>
            <DistanceMeters>4481.8060697456</DistanceMeters>
          </Trackpoint>
          <Trackpoint>
            <Time>2021-06-20T06:25:20.000Z</Time>
            <Position>
              <LatitudeDegrees>38.83916244842112064361572265625</LatitudeDegrees>
              <LongitudeDegrees>-0.40718170814216136932373046875</LongitudeDegrees>
            </Position>
            <AltitudeMeters>659.20001220703125</AltitudeMeters>
            <DistanceMeters>4489.0130802011</DistanceMeters>
          </Trackpoint>
          <Trackpoint>
            <Time>2021-06-20T06:25:26.000Z</Time>
            <Position>
              <LatitudeDegrees>38.83907779119908809661865234375</LatitudeDegrees>
              <LongitudeDegrees>-0.4071380384266376495361328125</LongitudeDegrees>
            </Position>
            <AltitudeMeters>660.5999755859375</AltitudeMeters>
            <DistanceMeters>4499.1676083986</DistanceMeters>
          </Trackpoint>
          <Trackpoint>
            <Time>2021-06-20T06:25:32.000Z</Time>
            <Position>
              <LatitudeDegrees>38.83900905959308147430419921875</LatitudeDegrees>
              <LongitudeDegrees>-0.40706888772547245025634765625</LongitudeDegrees>
            </Position>
            <AltitudeMeters>661.5999755859375</AltitudeMeters>
            <DistanceMeters>4508.8868485788</DistanceMeters>
          </Trackpoint>
          <Trackpoint>
            <Time>2021-06-20T06:25:38.000Z</Time>
            <Position>
              <LatitudeDegrees>38.8389499671757221221923828125</LatitudeDegrees>
              <LongitudeDegrees>-0.40698205120861530303955078125</LongitudeDegrees>
            </Position>
            <AltitudeMeters>662.79998779296875</AltitudeMeters>
            <DistanceMeters>4518.8831892057</DistanceMeters>
          </Trackpoint>
          <Trackpoint>
            <Time>2021-06-20T06:25:43.000Z</Time>
            <Position>
              <LatitudeDegrees>38.83887226693332195281982421875</LatitudeDegrees>
              <LongitudeDegrees>-0.406859926879405975341796875</LongitudeDegrees>
            </Position>
            <AltitudeMeters>663</AltitudeMeters>
            <DistanceMeters>4532.5538315492</DistanceMeters>
          </Trackpoint>
          <Trackpoint>
            <Time>2021-06-20T06:25:47.000Z</Time>
            <Position>
              <LatitudeDegrees>38.83887528441846370697021484375</LatitudeDegrees>
              <LongitudeDegrees>-0.40677133016288280487060546875</LongitudeDegrees>
            </Position>
            <AltitudeMeters>663.79998779296875</AltitudeMeters>
            <DistanceMeters>4540.2416043297</DistanceMeters>
          </Trackpoint>
          <Trackpoint>
            <Time>2021-06-20T06:25:48.000Z</Time>
            <Position>
              <LatitudeDegrees>38.8388031162321567535400390625</LatitudeDegrees>
              <LongitudeDegrees>-0.40675657801330089569091796875</LongitudeDegrees>
            </Position>
            <AltitudeMeters>664</AltitudeMeters>
            <DistanceMeters>4548.3751361597</DistanceMeters>
          </Trackpoint>
          <Trackpoint>
            <Time>2021-06-20T06:25:49.000Z</Time>
            <Position>
              <LatitudeDegrees>38.8388031162321567535400390625</LatitudeDegrees>
              <LongitudeDegrees>-0.40675657801330089569091796875</LongitudeDegrees>
            </Position>
            <AltitudeMeters>664.20001220703125</AltitudeMeters>
            <DistanceMeters>4548.3751361597</DistanceMeters>
          </Trackpoint>
          <Trackpoint>
            <Time>2021-06-20T06:25:52.000Z</Time>
            <Position>
              <LatitudeDegrees>38.83879632689058780670166015625</LatitudeDegrees>
              <LongitudeDegrees>-0.406700335443019866943359375</LongitudeDegrees>
            </Position>
            <AltitudeMeters>664.79998779296875</AltitudeMeters>
            <DistanceMeters>4553.309210145</DistanceMeters>
          </Trackpoint>
          <Trackpoint>
            <Time>2021-06-20T06:25:54.000Z</Time>
            <Position>
              <LatitudeDegrees>38.8388049602508544921875</LatitudeDegrees>
              <LongitudeDegrees>-0.4066696576774120330810546875</LongitudeDegrees>
            </Position>
            <AltitudeMeters>665.4000244140625</AltitudeMeters>
            <DistanceMeters>4556.1361550778</DistanceMeters>
          </Trackpoint>
          <Trackpoint>
            <Time>2021-06-20T06:25:58.000Z</Time>
            <Position>
              <LatitudeDegrees>38.83877302519977092742919921875</LatitudeDegrees>
              <LongitudeDegrees>-0.40670729242265224456787109375</LongitudeDegrees>
            </Position>
            <AltitudeMeters>666</AltitudeMeters>
            <DistanceMeters>4560.9610423379</DistanceMeters>
          </Trackpoint>
          <Trackpoint>
            <Time>2021-06-20T06:26:01.000Z</Time>
            <Position>
              <LatitudeDegrees>38.8387192972004413604736328125</LatitudeDegrees>
              <LongitudeDegrees>-0.40662146173417568206787109375</LongitudeDegrees>
            </Position>
            <AltitudeMeters>666.5999755859375</AltitudeMeters>
            <DistanceMeters>4570.507325985</DistanceMeters>
          </Trackpoint>
          <Trackpoint>
            <Time>2021-06-20T06:26:07.000Z</Time>
            <Position>
              <LatitudeDegrees>38.83868250064551830291748046875</LatitudeDegrees>
              <LongitudeDegrees>-0.4064919613301753997802734375</LongitudeDegrees>
            </Position>
            <AltitudeMeters>667</AltitudeMeters>
            <DistanceMeters>4582.4584229688</DistanceMeters>
          </Trackpoint>
          <Trackpoint>
            <Time>2021-06-20T06:26:13.000Z</Time>
            <Position>
              <LatitudeDegrees>38.8386455364525318145751953125</LatitudeDegrees>
              <LongitudeDegrees>-0.4063655622303485870361328125</LongitudeDegrees>
            </Position>
            <AltitudeMeters>668</AltitudeMeters>
            <DistanceMeters>4594.162921665</DistanceMeters>
          </Trackpoint>
          <Trackpoint>
            <Time>2021-06-20T06:26:41.000Z</Time>
            <Position>
              <LatitudeDegrees>38.838467337191104888916015625</LatitudeDegrees>
              <LongitudeDegrees>-0.4058110155165195465087890625</LongitudeDegrees>
            </Position>
            <AltitudeMeters>671.20001220703125</AltitudeMeters>
            <DistanceMeters>4646.1698886677</DistanceMeters>
          </Trackpoint>
          <Trackpoint>
            <Time>2021-06-20T06:27:05.000Z</Time>
            <Position>
              <LatitudeDegrees>38.83824060671031475067138671875</LatitudeDegrees>
              <LongitudeDegrees>-0.40539468638598918914794921875</LongitudeDegrees>
            </Position>
            <AltitudeMeters>674.5999755859375</AltitudeMeters>
            <DistanceMeters>4690.2106445599</DistanceMeters>
          </Trackpoint>
          <Trackpoint>
            <Time>2021-06-20T06:27:11.000Z</Time>
            <Position>
              <LatitudeDegrees>38.83819450624287128448486328125</LatitudeDegrees>
              <LongitudeDegrees>-0.40528186596930027008056640625</LongitudeDegrees>
            </Position>
            <AltitudeMeters>675.5999755859375</AltitudeMeters>
            <DistanceMeters>4701.2558395676</DistanceMeters>
          </Trackpoint>
          <Trackpoint>
            <Time>2021-06-20T06:27:21.000Z</Time>
            <Position>
              <LatitudeDegrees>38.8380923308432102203369140625</LatitudeDegrees>
              <LongitudeDegrees>-0.40511481463909149169921875</LongitudeDegrees>
            </Position>
            <AltitudeMeters>677.79998779296875</AltitudeMeters>
            <DistanceMeters>4719.67019268</DistanceMeters>
          </Trackpoint>
          <Trackpoint>
            <Time>2021-06-20T06:27:42.000Z</Time>
            <Position>
              <LatitudeDegrees>38.83788119070231914520263671875</LatitudeDegrees>
              <LongitudeDegrees>-0.40492261759936809539794921875</LongitudeDegrees>
            </Position>
            <AltitudeMeters>682.20001220703125</AltitudeMeters>
            <DistanceMeters>4748.4784936653</DistanceMeters>
          </Trackpoint>
          <Trackpoint>
            <Time>2021-06-20T06:27:44.000Z</Time>
            <Position>
              <LatitudeDegrees>38.83785906247794628143310546875</LatitudeDegrees>
              <LongitudeDegrees>-0.404841899871826171875</LongitudeDegrees>
            </Position>
            <AltitudeMeters>682.5999755859375</AltitudeMeters>
            <DistanceMeters>4755.8978835325</DistanceMeters>
          </Trackpoint>
          <Trackpoint>
            <Time>2021-06-20T06:27:45.000Z</Time>
            <Position>
              <LatitudeDegrees>38.83783475495874881744384765625</LatitudeDegrees>
              <LongitudeDegrees>-0.4048269800841808319091796875</LongitudeDegrees>
            </Position>
            <AltitudeMeters>682.5999755859375</AltitudeMeters>
            <DistanceMeters>4758.896876053</DistanceMeters>
          </Trackpoint>
          <Trackpoint>
            <Time>2021-06-20T06:27:48.000Z</Time>
            <Position>
              <LatitudeDegrees>38.83777306415140628814697265625</LatitudeDegrees>
              <LongitudeDegrees>-0.40481113828718662261962890625</LongitudeDegrees>
            </Position>
            <AltitudeMeters>683.4000244140625</AltitudeMeters>
            <DistanceMeters>4765.899255298</DistanceMeters>
          </Trackpoint>
          <Trackpoint>
            <Time>2021-06-20T06:27:49.000Z</Time>
            <Position>
              <LatitudeDegrees>38.8377604074776172637939453125</LatitudeDegrees>
              <LongitudeDegrees>-0.4048098810017108917236328125</LongitudeDegrees>
            </Position>
            <AltitudeMeters>683.4000244140625</AltitudeMeters>
            <DistanceMeters>4767.3087292487</DistanceMeters>
          </Trackpoint>
          <Trackpoint>
            <Time>2021-06-20T06:27:52.000Z</Time>
            <Position>
              <LatitudeDegrees>38.83765630424022674560546875</LatitudeDegrees>
              <LongitudeDegrees>-0.40488908998668193817138671875</LongitudeDegrees>
            </Position>
            <AltitudeMeters>684</AltitudeMeters>
            <DistanceMeters>4780.7774042274</DistanceMeters>
          </Trackpoint>
          <Trackpoint>
            <Time>2021-06-20T06:27:53.000Z</Time>
            <Position>
              <LatitudeDegrees>38.83763744495809078216552734375</LatitudeDegrees>
              <LongitudeDegrees>-0.40487878024578094482421875</LongitudeDegrees>
            </Position>
            <AltitudeMeters>684.20001220703125</AltitudeMeters>
            <DistanceMeters>4783.0580453723</DistanceMeters>
          </Trackpoint>
          <Trackpoint>
            <Time>2021-06-20T06:27:54.000Z</Time>
            <Position>
              <LatitudeDegrees>38.8375562243163585662841796875</LatitudeDegrees>
              <LongitudeDegrees>-0.40487634949386119842529296875</LongitudeDegrees>
            </Position>
            <AltitudeMeters>684.4000244140625</AltitudeMeters>
            <DistanceMeters>4792.1000756821</DistanceMeters>
          </Trackpoint>
          <Trackpoint>
            <Time>2021-06-20T06:27:59.000Z</Time>
            <Position>
              <LatitudeDegrees>38.83748464286327362060546875</LatitudeDegrees>
              <LongitudeDegrees>-0.404809378087520599365234375</LongitudeDegrees>
            </Position>
            <AltitudeMeters>685.20001220703125</AltitudeMeters>
            <DistanceMeters>4801.9581527101</DistanceMeters>
          </Trackpoint>
          <Trackpoint>
            <Time>2021-06-20T06:28:02.000Z</Time>
            <Position>
              <LatitudeDegrees>38.83744977414608001708984375</LatitudeDegrees>
              <LongitudeDegrees>-0.40481180883944034576416015625</LongitudeDegrees>
            </Position>
            <AltitudeMeters>685.5999755859375</AltitudeMeters>
            <DistanceMeters>4805.8449660438</DistanceMeters>
          </Trackpoint>
          <Trackpoint>
            <Time>2021-06-20T06:28:06.000Z</Time>
            <Position>
              <LatitudeDegrees>38.8373859040439128875732421875</LatitudeDegrees>
              <LongitudeDegrees>-0.40481700561940670013427734375</LongitudeDegrees>
            </Position>
            <AltitudeMeters>686.5999755859375</AltitudeMeters>
            <DistanceMeters>4812.967533661</DistanceMeters>
          </Trackpoint>
          <Trackpoint>
            <Time>2021-06-20T06:28:10.000Z</Time>
            <Position>
              <LatitudeDegrees>38.8373111374676227569580078125</LatitudeDegrees>
              <LongitudeDegrees>-0.40483443997800350189208984375</LongitudeDegrees>
            </Position>
            <AltitudeMeters>686.5999755859375</AltitudeMeters>
            <DistanceMeters>4821.42491124</DistanceMeters>
          </Trackpoint>
          <Trackpoint>
            <Time>2021-06-20T06:28:14.000Z</Time>
            <Position>
              <LatitudeDegrees>38.83723712526261806488037109375</LatitudeDegrees>
              <LongitudeDegrees>-0.4048598371446132659912109375</LongitudeDegrees>
            </Position>
            <AltitudeMeters>687.20001220703125</AltitudeMeters>
            <DistanceMeters>4829.951937423</DistanceMeters>
          </Trackpoint>
          <Trackpoint>
            <Time>2021-06-20T06:28:44.000Z</Time>
            <Position>
              <LatitudeDegrees>38.83683328516781330108642578125</LatitudeDegrees>
              <LongitudeDegrees>-0.40499319322407245635986328125</LongitudeDegrees>
            </Position>
            <AltitudeMeters>690.4000244140625</AltitudeMeters>
            <DistanceMeters>4876.363222093</DistanceMeters>
          </Trackpoint>
          <Trackpoint>
            <Time>2021-06-20T06:28:46.000Z</Time>
            <Position>
              <LatitudeDegrees>38.83683227933943271636962890625</LatitudeDegrees>
              <LongitudeDegrees>-0.404993779957294464111328125</LongitudeDegrees>
            </Position>
            <AltitudeMeters>690.5999755859375</AltitudeMeters>
            <DistanceMeters>4876.4582488074</DistanceMeters>
          </Trackpoint>
          <Trackpoint>
            <Time>2021-06-20T06:28:48.000Z</Time>
            <Position>
              <LatitudeDegrees>38.8368308544158935546875</LatitudeDegrees>
              <LongitudeDegrees>-0.4049946181476116180419921875</LongitudeDegrees>
            </Position>
            <AltitudeMeters>690.5999755859375</AltitudeMeters>
            <DistanceMeters>4876.6228399048</DistanceMeters>
          </Trackpoint>
          <Trackpoint>
            <Time>2021-06-20T06:28:50.000Z</Time>
            <Position>
              <LatitudeDegrees>38.83682884275913238525390625</LatitudeDegrees>
              <LongitudeDegrees>-0.404995791614055633544921875</LongitudeDegrees>
            </Position>
            <AltitudeMeters>690.5999755859375</AltitudeMeters>
            <DistanceMeters>4876.8556068669</DistanceMeters>
          </Trackpoint>
          <Trackpoint>
            <Time>2021-06-20T06:28:52.000Z</Time>
            <Position>
              <LatitudeDegrees>38.836825825273990631103515625</LatitudeDegrees>
              <LongitudeDegrees>-0.40499755181372165679931640625</LongitudeDegrees>
            </Position>
            <AltitudeMeters>690.4000244140625</AltitudeMeters>
            <DistanceMeters>4877.2236437491</DistanceMeters>
          </Trackpoint>
          <Trackpoint>
            <Time>2021-06-20T06:28:54.000Z</Time>
            <Position>
              <LatitudeDegrees>38.836821131408214569091796875</LatitudeDegrees>
              <LongitudeDegrees>-0.405000485479831695556640625</LongitudeDegrees>
            </Position>
            <AltitudeMeters>690.20001220703125</AltitudeMeters>
            <DistanceMeters>4877.8094277578</DistanceMeters>
          </Trackpoint>
          <Trackpoint>
            <Time>2021-06-20T06:28:56.000Z</Time>
            <Position>
              <LatitudeDegrees>38.83681350387632846832275390625</LatitudeDegrees>
              <LongitudeDegrees>-0.405005179345607757568359375</LongitudeDegrees>
            </Position>
            <AltitudeMeters>690</AltitudeMeters>
            <DistanceMeters>4878.7501442356</DistanceMeters>
          </Trackpoint>
          <Trackpoint>
            <Time>2021-06-20T06:29:02.000Z</Time>
            <Position>
              <LatitudeDegrees>38.83673236705362796783447265625</LatitudeDegrees>
              <LongitudeDegrees>-0.405058152973651885986328125</LongitudeDegrees>
            </Position>
            <AltitudeMeters>691</AltitudeMeters>
            <DistanceMeters>4888.8819707745</DistanceMeters>
          </Trackpoint>
          <Trackpoint>
            <Time>2021-06-20T06:29:14.000Z</Time>
            <Position>
              <LatitudeDegrees>38.83656053803861141204833984375</LatitudeDegrees>
              <LongitudeDegrees>-0.40516032837331295013427734375</LongitudeDegrees>
            </Position>
            <AltitudeMeters>693.20001220703125</AltitudeMeters>
            <DistanceMeters>4909.9586303909</DistanceMeters>
          </Trackpoint>
          <Trackpoint>
            <Time>2021-06-20T06:29:18.000Z</Time>
            <Position>
              <LatitudeDegrees>38.83649800904095172882080078125</LatitudeDegrees>
              <LongitudeDegrees>-0.40517407469451427459716796875</LongitudeDegrees>
            </Position>
            <AltitudeMeters>694.20001220703125</AltitudeMeters>
            <DistanceMeters>4917.0188019165</DistanceMeters>
          </Trackpoint>
          <Trackpoint>
            <Time>2021-06-20T06:29:30.000Z</Time>
            <Position>
              <LatitudeDegrees>38.83631243370473384857177734375</LatitudeDegrees>
              <LongitudeDegrees>-0.4052541218698024749755859375</LongitudeDegrees>
            </Position>
            <AltitudeMeters>694.79998779296875</AltitudeMeters>
            <DistanceMeters>4938.8083259882</DistanceMeters>
          </Trackpoint>
          <Trackpoint>
            <Time>2021-06-20T06:29:36.000Z</Time>
            <Position>
              <LatitudeDegrees>38.83621034212410449981689453125</LatitudeDegrees>
              <LongitudeDegrees>-0.4052960313856601715087890625</LongitudeDegrees>
            </Position>
            <AltitudeMeters>695.5999755859375</AltitudeMeters>
            <DistanceMeters>4950.7382478166</DistanceMeters>
          </Trackpoint>
          <Trackpoint>
            <Time>2021-06-20T06:29:43.000Z</Time>
            <Position>
              <LatitudeDegrees>38.83600800298154354095458984375</LatitudeDegrees>
              <LongitudeDegrees>-0.40535897947847843170166015625</LongitudeDegrees>
            </Position>
            <AltitudeMeters>697</AltitudeMeters>
            <DistanceMeters>4973.9109363905</DistanceMeters>
          </Trackpoint>
          <Trackpoint>
            <Time>2021-06-20T06:29:48.000Z</Time>
            <Position>
              <LatitudeDegrees>38.8359443843364715576171875</LatitudeDegrees>
              <LongitudeDegrees>-0.40543726645410060882568359375</LongitudeDegrees>
            </Position>
            <AltitudeMeters>697.20001220703125</AltitudeMeters>
            <DistanceMeters>4983.7198845762</DistanceMeters>
          </Trackpoint>
          <Trackpoint>
            <Time>2021-06-20T06:29:49.000Z</Time>
            <Position>
              <LatitudeDegrees>38.83596776984632015228271484375</LatitudeDegrees>
              <LongitudeDegrees>-0.40545453317463397979736328125</LongitudeDegrees>
            </Position>
            <AltitudeMeters>697.5999755859375</AltitudeMeters>
            <DistanceMeters>4986.7218866233</DistanceMeters>
          </Trackpoint>
          <Trackpoint>
            <Time>2021-06-20T06:29:50.000Z</Time>
            <Position>
              <LatitudeDegrees>38.83595846593379974365234375</LatitudeDegrees>
              <LongitudeDegrees>-0.4054757393896579742431640625</LongitudeDegrees>
            </Position>
            <AltitudeMeters>697.79998779296875</AltitudeMeters>
            <DistanceMeters>4988.8318220932</DistanceMeters>
          </Trackpoint>
          <Trackpoint>
            <Time>2021-06-20T06:29:52.000Z</Time>
            <Position>
              <LatitudeDegrees>38.835883028805255889892578125</LatitudeDegrees>
              <LongitudeDegrees>-0.4054861329495906829833984375</LongitudeDegrees>
            </Position>
            <AltitudeMeters>698.20001220703125</AltitudeMeters>
            <DistanceMeters>4997.2763773614</DistanceMeters>
          </Trackpoint>
          <Trackpoint>
            <Time>2021-06-20T06:29:58.000Z</Time>
            <Position>
              <LatitudeDegrees>38.83587397634983062744140625</LatitudeDegrees>
              <LongitudeDegrees>-0.40559937246143817901611328125</LongitudeDegrees>
            </Position>
            <AltitudeMeters>699</AltitudeMeters>
            <DistanceMeters>5007.1454403627</DistanceMeters>
          </Trackpoint>
          <Trackpoint>
            <Time>2021-06-20T06:29:59.000Z</Time>
            <Position>
              <LatitudeDegrees>38.8358704559504985809326171875</LatitudeDegrees>
              <LongitudeDegrees>-0.40561680682003498077392578125</LongitudeDegrees>
            </Position>
            <AltitudeMeters>699.4000244140625</AltitudeMeters>
            <DistanceMeters>5008.7068886135</DistanceMeters>
          </Trackpoint>
          <Trackpoint>
            <Time>2021-06-20T06:30:03.000Z</Time>
            <Position>
              <LatitudeDegrees>38.83584740571677684783935546875</LatitudeDegrees>
              <LongitudeDegrees>-0.405764244496822357177734375</LongitudeDegrees>
            </Position>
            <AltitudeMeters>700.20001220703125</AltitudeMeters>
            <DistanceMeters>5021.7442629237</DistanceMeters>
          </Trackpoint>
          <Trackpoint>
            <Time>2021-06-20T06:30:17.000Z</Time>
            <Position>
              <LatitudeDegrees>38.835706003010272979736328125</LatitudeDegrees>
              <LongitudeDegrees>-0.40616045705974102020263671875</LongitudeDegrees>
            </Position>
            <AltitudeMeters>702.4000244140625</AltitudeMeters>
            <DistanceMeters>5059.5288251939</DistanceMeters>
          </Trackpoint>
          <Trackpoint>
            <Time>2021-06-20T06:30:47.000Z</Time>
            <Position>
              <LatitudeDegrees>38.83531414903700351715087890625</LatitudeDegrees>
              <LongitudeDegrees>-0.40640219114720821380615234375</LongitudeDegrees>
            </Position>
            <AltitudeMeters>702.79998779296875</AltitudeMeters>
            <DistanceMeters>5107.9171149065</DistanceMeters>
          </Trackpoint>
          <Trackpoint>
            <Time>2021-06-20T06:30:55.000Z</Time>
            <Position>
              <LatitudeDegrees>38.83521272800862789154052734375</LatitudeDegrees>
              <LongitudeDegrees>-0.40651400573551654815673828125</LongitudeDegrees>
            </Position>
            <AltitudeMeters>701.20001220703125</AltitudeMeters>
            <DistanceMeters>5122.7966113447</DistanceMeters>
          </Trackpoint>
          <Trackpoint>
            <Time>2021-06-20T06:31:07.000Z</Time>
            <Position>
              <LatitudeDegrees>38.8352133147418498992919921875</LatitudeDegrees>
              <LongitudeDegrees>-0.40685732848942279815673828125</LongitudeDegrees>
            </Position>
            <AltitudeMeters>699</AltitudeMeters>
            <DistanceMeters>5152.5625825287</DistanceMeters>
          </Trackpoint>
          <Trackpoint>
            <Time>2021-06-20T06:31:13.000Z</Time>
            <Position>
              <LatitudeDegrees>38.83525145240128040313720703125</LatitudeDegrees>
              <LongitudeDegrees>-0.40702966041862964630126953125</LongitudeDegrees>
            </Position>
            <AltitudeMeters>697.5999755859375</AltitudeMeters>
            <DistanceMeters>5168.095018022</DistanceMeters>
          </Trackpoint>
          <Trackpoint>
            <Time>2021-06-20T06:31:19.000Z</Time>
            <Position>
              <LatitudeDegrees>38.8353055156767368316650390625</LatitudeDegrees>
              <LongitudeDegrees>-0.40720023214817047119140625</LongitudeDegrees>
            </Position>
            <AltitudeMeters>696.5999755859375</AltitudeMeters>
            <DistanceMeters>5184.0606372665</DistanceMeters>
          </Trackpoint>
          <Trackpoint>
            <Time>2021-06-20T06:31:29.000Z</Time>
            <Position>
              <LatitudeDegrees>38.83534767664968967437744140625</LatitudeDegrees>
              <LongitudeDegrees>-0.40752134285867214202880859375</LongitudeDegrees>
            </Position>
            <AltitudeMeters>695.4000244140625</AltitudeMeters>
            <DistanceMeters>5212.2931684607</DistanceMeters>
          </Trackpoint>
          <Trackpoint>
            <Time>2021-06-20T06:31:42.000Z</Time>
            <Position>
              <LatitudeDegrees>38.83526167832314968109130859375</LatitudeDegrees>
              <LongitudeDegrees>-0.4080650769174098968505859375</LongitudeDegrees>
            </Position>
            <AltitudeMeters>694.4000244140625</AltitudeMeters>
            <DistanceMeters>5260.3962131494</DistanceMeters>
          </Trackpoint>
          <Trackpoint>
            <Time>2021-06-20T06:31:43.000Z</Time>
            <Position>
              <LatitudeDegrees>38.83515807799994945526123046875</LatitudeDegrees>
              <LongitudeDegrees>-0.4080067388713359832763671875</LongitudeDegrees>
            </Position>
            <AltitudeMeters>694.4000244140625</AltitudeMeters>
            <DistanceMeters>5272.9871631552</DistanceMeters>
          </Trackpoint>
          <Trackpoint>
            <Time>2021-06-20T06:31:44.000Z</Time>
            <Position>
              <LatitudeDegrees>38.83507459424436092376708984375</LatitudeDegrees>
              <LongitudeDegrees>-0.40796088986098766326904296875</LongitudeDegrees>
            </Position>
            <AltitudeMeters>694.4000244140625</AltitudeMeters>
            <DistanceMeters>5283.0940036474</DistanceMeters>
          </Trackpoint>
          <Trackpoint>
            <Time>2021-06-20T06:31:46.000Z</Time>
            <Position>
              <LatitudeDegrees>38.83513594977557659149169921875</LatitudeDegrees>
              <LongitudeDegrees>-0.40795468725264072418212890625</LongitudeDegrees>
            </Position>
            <AltitudeMeters>695.5999755859375</AltitudeMeters>
            <DistanceMeters>5289.9451595612</DistanceMeters>
          </Trackpoint>
          <Trackpoint>
            <Time>2021-06-20T06:31:48.000Z</Time>
            <Position>
              <LatitudeDegrees>38.8351030088961124420166015625</LatitudeDegrees>
              <LongitudeDegrees>-0.40795301087200641632080078125</LongitudeDegrees>
            </Position>
            <AltitudeMeters>695.79998779296875</AltitudeMeters>
            <DistanceMeters>5293.6132399722</DistanceMeters>
          </Trackpoint>
          <Trackpoint>
            <Time>2021-06-20T06:31:49.000Z</Time>
            <Position>
              <LatitudeDegrees>38.8350215367972850799560546875</LatitudeDegrees>
              <LongitudeDegrees>-0.4079671762883663177490234375</LongitudeDegrees>
            </Position>
            <AltitudeMeters>695.79998779296875</AltitudeMeters>
            <DistanceMeters>5302.7634787007</DistanceMeters>
          </Trackpoint>
          <Trackpoint>
            <Time>2021-06-20T06:31:53.000Z</Time>
            <Position>
              <LatitudeDegrees>38.83490175940096378326416015625</LatitudeDegrees>
              <LongitudeDegrees>-0.40804035030305385589599609375</LongitudeDegrees>
            </Position>
            <AltitudeMeters>695</AltitudeMeters>
            <DistanceMeters>5317.5275233796</DistanceMeters>
          </Trackpoint>
          <Trackpoint>
            <Time>2021-06-20T06:31:57.000Z</Time>
            <Position>
              <LatitudeDegrees>38.8347472809255123138427734375</LatitudeDegrees>
              <LongitudeDegrees>-0.40816021151840686798095703125</LongitudeDegrees>
            </Position>
            <AltitudeMeters>694.79998779296875</AltitudeMeters>
            <DistanceMeters>5337.6175282761</DistanceMeters>
          </Trackpoint>
          <Trackpoint>
            <Time>2021-06-20T06:31:59.000Z</Time>
            <Position>
              <LatitudeDegrees>38.8347221352159976959228515625</LatitudeDegrees>
              <LongitudeDegrees>-0.40821352042257785797119140625</LongitudeDegrees>
            </Position>
            <AltitudeMeters>694.79998779296875</AltitudeMeters>
            <DistanceMeters>5343.0206974519</DistanceMeters>
          </Trackpoint>
          <Trackpoint>
            <Time>2021-06-20T06:32:07.000Z</Time>
            <Position>
              <LatitudeDegrees>38.8347248174250125885009765625</LatitudeDegrees>
              <LongitudeDegrees>-0.408036075532436370849609375</LongitudeDegrees>
            </Position>
            <AltitudeMeters>696.4000244140625</AltitudeMeters>
            <DistanceMeters>5358.407984554</DistanceMeters>
          </Trackpoint>
          <Trackpoint>
            <Time>2021-06-20T06:32:13.000Z</Time>
            <Position>
              <LatitudeDegrees>38.83472506888210773468017578125</LatitudeDegrees>
              <LongitudeDegrees>-0.40782191790640354156494140625</LongitudeDegrees>
            </Position>
            <AltitudeMeters>697.5999755859375</AltitudeMeters>
            <DistanceMeters>5376.9754361421</DistanceMeters>
          </Trackpoint>
          <Trackpoint>
            <Time>2021-06-20T06:32:17.000Z</Time>
            <Position>
              <LatitudeDegrees>38.834736049175262451171875</LatitudeDegrees>
              <LongitudeDegrees>-0.4076852090656757354736328125</LongitudeDegrees>
            </Position>
            <AltitudeMeters>699.20001220703125</AltitudeMeters>
            <DistanceMeters>5388.8905887577</DistanceMeters>
          </Trackpoint>
          <Trackpoint>
            <Time>2021-06-20T06:32:21.000Z</Time>
            <Position>
              <LatitudeDegrees>38.83476412855088710784912109375</LatitudeDegrees>
              <LongitudeDegrees>-0.40756140835583209991455078125</LongitudeDegrees>
            </Position>
            <AltitudeMeters>700.4000244140625</AltitudeMeters>
            <DistanceMeters>5400.0698668195</DistanceMeters>
          </Trackpoint>
          <Trackpoint>
            <Time>2021-06-20T06:32:25.000Z</Time>
            <Position>
              <LatitudeDegrees>38.83480436168611049652099609375</LatitudeDegrees>
              <LongitudeDegrees>-0.407464094460010528564453125</LongitudeDegrees>
            </Position>
            <AltitudeMeters>702</AltitudeMeters>
            <DistanceMeters>5409.621351642</DistanceMeters>
          </Trackpoint>
          <Trackpoint>
            <Time>2021-06-20T06:32:33.000Z</Time>
            <Position>
              <LatitudeDegrees>38.83467947132885456085205078125</LatitudeDegrees>
              <LongitudeDegrees>-0.40749636478722095489501953125</LongitudeDegrees>
            </Position>
            <AltitudeMeters>704.5999755859375</AltitudeMeters>
            <DistanceMeters>5423.8004073915</DistanceMeters>
          </Trackpoint>
          <Trackpoint>
            <Time>2021-06-20T06:32:51.000Z</Time>
            <Position>
              <LatitudeDegrees>38.8346416689455509185791015625</LatitudeDegrees>
              <LongitudeDegrees>-0.40743702091276645660400390625</LongitudeDegrees>
            </Position>
            <AltitudeMeters>710.5999755859375</AltitudeMeters>
            <DistanceMeters>5430.4468450812</DistanceMeters>
          </Trackpoint>
          <Trackpoint>
            <Time>2021-06-20T06:32:55.000Z</Time>
            <Position>
              <LatitudeDegrees>38.83464124985039234161376953125</LatitudeDegrees>
              <LongitudeDegrees>-0.40742109529674053192138671875</LongitudeDegrees>
            </Position>
            <AltitudeMeters>712</AltitudeMeters>
            <DistanceMeters>5431.8304549273</DistanceMeters>
          </Trackpoint>
          <Trackpoint>
            <Time>2021-06-20T06:32:59.000Z</Time>
            <Position>
              <LatitudeDegrees>38.83464879356324672698974609375</LatitudeDegrees>
              <LongitudeDegrees>-0.4073656909167766571044921875</LongitudeDegrees>
            </Position>
            <AltitudeMeters>713.20001220703125</AltitudeMeters>
            <DistanceMeters>5436.7074643956</DistanceMeters>
          </Trackpoint>
          <Trackpoint>
            <Time>2021-06-20T06:33:05.000Z</Time>
            <Position>
              <LatitudeDegrees>38.83462431840598583221435546875</LatitudeDegrees>
              <LongitudeDegrees>-0.40726552717387676239013671875</LongitudeDegrees>
            </Position>
            <AltitudeMeters>716</AltitudeMeters>
            <DistanceMeters>5445.809218144</DistanceMeters>
          </Trackpoint>
          <Trackpoint>
            <Time>2021-06-20T06:33:09.000Z</Time>
            <Position>
              <LatitudeDegrees>38.8345917128026485443115234375</LatitudeDegrees>
              <LongitudeDegrees>-0.407288074493408203125</LongitudeDegrees>
            </Position>
            <AltitudeMeters>717.20001220703125</AltitudeMeters>
            <DistanceMeters>5449.9316693405</DistanceMeters>
          </Trackpoint>
          <Trackpoint>
            <Time>2021-06-20T06:33:13.000Z</Time>
            <Position>
              <LatitudeDegrees>38.83452608250081539154052734375</LatitudeDegrees>
              <LongitudeDegrees>-0.40732520632445812225341796875</LongitudeDegrees>
            </Position>
            <AltitudeMeters>718.20001220703125</AltitudeMeters>
            <DistanceMeters>5457.9150445378</DistanceMeters>
          </Trackpoint>
          <Trackpoint>
            <Time>2021-06-20T06:33:21.000Z</Time>
            <Position>
              <LatitudeDegrees>38.8344696722924709320068359375</LatitudeDegrees>
              <LongitudeDegrees>-0.40731959044933319091796875</LongitudeDegrees>
            </Position>
            <AltitudeMeters>721</AltitudeMeters>
            <DistanceMeters>5464.2126707368</DistanceMeters>
          </Trackpoint>
          <Trackpoint>
            <Time>2021-06-20T06:33:25.000Z</Time>
            <Position>
              <LatitudeDegrees>38.83449456654489040374755859375</LatitudeDegrees>
              <LongitudeDegrees>-0.4072614200413227081298828125</LongitudeDegrees>
            </Position>
            <AltitudeMeters>722</AltitudeMeters>
            <DistanceMeters>5469.9678701596</DistanceMeters>
          </Trackpoint>
          <Trackpoint>
            <Time>2021-06-20T06:33:42.000Z</Time>
            <Position>
              <LatitudeDegrees>38.83473026566207408905029296875</LatitudeDegrees>
              <LongitudeDegrees>-0.40705732069909572601318359375</LongitudeDegrees>
            </Position>
            <AltitudeMeters>727.20001220703125</AltitudeMeters>
            <DistanceMeters>5501.6119087273</DistanceMeters>
          </Trackpoint>
          <Trackpoint>
            <Time>2021-06-20T06:33:46.000Z</Time>
            <Position>
              <LatitudeDegrees>38.834757171571254730224609375</LatitudeDegrees>
              <LongitudeDegrees>-0.40727541781961917877197265625</LongitudeDegrees>
            </Position>
            <AltitudeMeters>728.20001220703125</AltitudeMeters>
            <DistanceMeters>5520.7564312522</DistanceMeters>
          </Trackpoint>
          <Trackpoint>
            <Time>2021-06-20T06:33:47.000Z</Time>
            <Position>
              <LatitudeDegrees>38.83474485017359256744384765625</LatitudeDegrees>
              <LongitudeDegrees>-0.40731548331677913665771484375</LongitudeDegrees>
            </Position>
            <AltitudeMeters>728.4000244140625</AltitudeMeters>
            <DistanceMeters>5524.4903886742</DistanceMeters>
          </Trackpoint>
          <Trackpoint>
            <Time>2021-06-20T06:33:50.000Z</Time>
            <Position>
              <LatitudeDegrees>38.83469958789646625518798828125</LatitudeDegrees>
              <LongitudeDegrees>-0.40734163485467433929443359375</LongitudeDegrees>
            </Position>
            <AltitudeMeters>729.4000244140625</AltitudeMeters>
            <DistanceMeters>5530.0150296925</DistanceMeters>
          </Trackpoint>
          <Trackpoint>
            <Time>2021-06-20T06:33:53.000Z</Time>
            <Position>
              <LatitudeDegrees>38.8346574269235134124755859375</LatitudeDegrees>
              <LongitudeDegrees>-0.40739477612078189849853515625</LongitudeDegrees>
            </Position>
            <AltitudeMeters>730.4000244140625</AltitudeMeters>
            <DistanceMeters>5536.5911255015</DistanceMeters>
          </Trackpoint>
          <Trackpoint>
            <Time>2021-06-20T06:33:54.000Z</Time>
            <Position>
              <LatitudeDegrees>38.8346383161842823028564453125</LatitudeDegrees>
              <LongitudeDegrees>-0.40739527903497219085693359375</LongitudeDegrees>
            </Position>
            <AltitudeMeters>730.79998779296875</AltitudeMeters>
            <DistanceMeters>5538.7202329143</DistanceMeters>
          </Trackpoint>
          <Trackpoint>
            <Time>2021-06-20T06:33:57.000Z</Time>
            <Position>
              <LatitudeDegrees>38.8346081413328647613525390625</LatitudeDegrees>
              <LongitudeDegrees>-0.40739293210208415985107421875</LongitudeDegrees>
            </Position>
            <AltitudeMeters>731.20001220703125</AltitudeMeters>
            <DistanceMeters>5542.0853058497</DistanceMeters>
          </Trackpoint>
          <Trackpoint>
            <Time>2021-06-20T06:34:00.000Z</Time>
            <Position>
              <LatitudeDegrees>38.83455256931483745574951171875</LatitudeDegrees>
              <LongitudeDegrees>-0.40736443363130092620849609375</LongitudeDegrees>
            </Position>
            <AltitudeMeters>732.20001220703125</AltitudeMeters>
            <DistanceMeters>5548.7453160218</DistanceMeters>
          </Trackpoint>
          <Trackpoint>
            <Time>2021-06-20T06:34:18.000Z</Time>
            <Position>
              <LatitudeDegrees>38.83427496068179607391357421875</LatitudeDegrees>
              <LongitudeDegrees>-0.40768763981759548187255859375</LongitudeDegrees>
            </Position>
            <AltitudeMeters>736.79998779296875</AltitudeMeters>
            <DistanceMeters>5590.4578224123</DistanceMeters>
          </Trackpoint>
          <Trackpoint>
            <Time>2021-06-20T06:34:28.000Z</Time>
            <Position>
              <LatitudeDegrees>38.8341407664120197296142578125</LatitudeDegrees>
              <LongitudeDegrees>-0.40795736946165561676025390625</LongitudeDegrees>
            </Position>
            <AltitudeMeters>739</AltitudeMeters>
            <DistanceMeters>5618.2062738687</DistanceMeters>
          </Trackpoint>
          <Trackpoint>
            <Time>2021-06-20T06:34:56.000Z</Time>
            <Position>
              <LatitudeDegrees>38.83404328487813472747802734375</LatitudeDegrees>
              <LongitudeDegrees>-0.40807857178151607513427734375</LongitudeDegrees>
            </Position>
            <AltitudeMeters>747.5999755859375</AltitudeMeters>
            <DistanceMeters>5633.3110383962</DistanceMeters>
          </Trackpoint>
          <Trackpoint>
            <Time>2021-06-20T06:35:02.000Z</Time>
            <Position>
              <LatitudeDegrees>38.8340304605662822723388671875</LatitudeDegrees>
              <LongitudeDegrees>-0.408098436892032623291015625</LongitudeDegrees>
            </Position>
            <AltitudeMeters>748.79998779296875</AltitudeMeters>
            <DistanceMeters>5635.547701614</DistanceMeters>
          </Trackpoint>
          <Trackpoint>
            <Time>2021-06-20T06:35:06.000Z</Time>
            <Position>
              <LatitudeDegrees>38.834021575748920440673828125</LatitudeDegrees>
              <LongitudeDegrees>-0.40811209939420223236083984375</LongitudeDegrees>
            </Position>
            <AltitudeMeters>750</AltitudeMeters>
            <DistanceMeters>5637.0917029681</DistanceMeters>
          </Trackpoint>
          <Trackpoint>
            <Time>2021-06-20T06:35:12.000Z</Time>
            <Position>
              <LatitudeDegrees>38.83400757797062397003173828125</LatitudeDegrees>
              <LongitudeDegrees>-0.408133976161479949951171875</LongitudeDegrees>
            </Position>
            <AltitudeMeters>752.4000244140625</AltitudeMeters>
            <DistanceMeters>5639.5477345364</DistanceMeters>
          </Trackpoint>
          <Trackpoint>
            <Time>2021-06-20T06:35:28.000Z</Time>
            <Position>
              <LatitudeDegrees>38.83395812474191188812255859375</LatitudeDegrees>
              <LongitudeDegrees>-0.40822609327733516693115234375</LongitudeDegrees>
            </Position>
            <AltitudeMeters>756</AltitudeMeters>
            <DistanceMeters>5649.2474441439</DistanceMeters>
          </Trackpoint>
          <Trackpoint>
            <Time>2021-06-20T06:35:36.000Z</Time>
            <Position>
              <LatitudeDegrees>38.8339184783399105072021484375</LatitudeDegrees>
              <LongitudeDegrees>-0.408354587852954864501953125</LongitudeDegrees>
            </Position>
            <AltitudeMeters>758.20001220703125</AltitudeMeters>
            <DistanceMeters>5661.2298569</DistanceMeters>
          </Trackpoint>
          <Trackpoint>
            <Time>2021-06-20T06:35:43.000Z</Time>
            <Position>
              <LatitudeDegrees>38.83382770232856273651123046875</LatitudeDegrees>
              <LongitudeDegrees>-0.408556759357452392578125</LongitudeDegrees>
            </Position>
            <AltitudeMeters>759.20001220703125</AltitudeMeters>
            <DistanceMeters>5681.4616223971</DistanceMeters>
          </Trackpoint>
          <Trackpoint>
            <Time>2021-06-20T06:35:44.000Z</Time>
            <Position>
              <LatitudeDegrees>38.833798952400684356689453125</LatitudeDegrees>
              <LongitudeDegrees>-0.408581905066967010498046875</LongitudeDegrees>
            </Position>
            <AltitudeMeters>759.5999755859375</AltitudeMeters>
            <DistanceMeters>5685.3333050929</DistanceMeters>
          </Trackpoint>
          <Trackpoint>
            <Time>2021-06-20T06:35:47.000Z</Time>
            <Position>
              <LatitudeDegrees>38.8337199948728084564208984375</LatitudeDegrees>
              <LongitudeDegrees>-0.408673100173473358154296875</LongitudeDegrees>
            </Position>
            <AltitudeMeters>760.4000244140625</AltitudeMeters>
            <DistanceMeters>5697.1548727997</DistanceMeters>
          </Trackpoint>
          <Trackpoint>
            <Time>2021-06-20T06:35:48.000Z</Time>
            <Position>
              <LatitudeDegrees>38.8336365111172199249267578125</LatitudeDegrees>
              <LongitudeDegrees>-0.4087788797914981842041015625</LongitudeDegrees>
            </Position>
            <AltitudeMeters>761</AltitudeMeters>
            <DistanceMeters>5710.2105889025</DistanceMeters>
          </Trackpoint>
          <Trackpoint>
            <Time>2021-06-20T06:35:50.000Z</Time>
            <Position>
              <LatitudeDegrees>38.83355814032256603240966796875</LatitudeDegrees>
              <LongitudeDegrees>-0.40881819091737270355224609375</LongitudeDegrees>
            </Position>
            <AltitudeMeters>761.5999755859375</AltitudeMeters>
            <DistanceMeters>5719.5754221857</DistanceMeters>
          </Trackpoint>
          <Trackpoint>
            <Time>2021-06-20T06:35:51.000Z</Time>
            <Position>
              <LatitudeDegrees>38.83349209092557430267333984375</LatitudeDegrees>
              <LongitudeDegrees>-0.40879773907363414764404296875</LongitudeDegrees>
            </Position>
            <AltitudeMeters>761.79998779296875</AltitudeMeters>
            <DistanceMeters>5727.1376622057</DistanceMeters>
          </Trackpoint>
          <Trackpoint>
            <Time>2021-06-20T06:35:52.000Z</Time>
            <Position>
              <LatitudeDegrees>38.83350667543709278106689453125</LatitudeDegrees>
              <LongitudeDegrees>-0.4088067077100276947021484375</LongitudeDegrees>
            </Position>
            <AltitudeMeters>761.79998779296875</AltitudeMeters>
            <DistanceMeters>5728.9381614263</DistanceMeters>
          </Trackpoint>
          <Trackpoint>
            <Time>2021-06-20T06:35:54.000Z</Time>
            <Position>
              <LatitudeDegrees>38.83351656608283519744873046875</LatitudeDegrees>
              <LongitudeDegrees>-0.40881223976612091064453125</LongitudeDegrees>
            </Position>
            <AltitudeMeters>762.5999755859375</AltitudeMeters>
            <DistanceMeters>5730.1401648502</DistanceMeters>
          </Trackpoint>
          <Trackpoint>
            <Time>2021-06-20T06:35:57.000Z</Time>
            <Position>
              <LatitudeDegrees>38.83323208428919315338134765625</LatitudeDegrees>
              <LongitudeDegrees>-0.409066043794155120849609375</LongitudeDegrees>
            </Position>
            <AltitudeMeters>763.5999755859375</AltitudeMeters>
            <DistanceMeters>5768.6991204432</DistanceMeters>
          </Trackpoint>
          <Trackpoint>
            <Time>2021-06-20T06:35:58.000Z</Time>
            <Position>
              <LatitudeDegrees>38.83323493413627147674560546875</LatitudeDegrees>
              <LongitudeDegrees>-0.40901013650000095367431640625</LongitudeDegrees>
            </Position>
            <AltitudeMeters>763.79998779296875</AltitudeMeters>
            <DistanceMeters>5773.5575790285</DistanceMeters>
          </Trackpoint>
          <Trackpoint>
            <Time>2021-06-20T06:36:02.000Z</Time>
            <Position>
              <LatitudeDegrees>38.8331584073603153228759765625</LatitudeDegrees>
              <LongitudeDegrees>-0.4089052788913249969482421875</LongitudeDegrees>
            </Position>
            <AltitudeMeters>765.20001220703125</AltitudeMeters>
            <DistanceMeters>5786.0158675915</DistanceMeters>
          </Trackpoint>
          <Trackpoint>
            <Time>2021-06-20T06:36:03.000Z</Time>
            <Position>
              <LatitudeDegrees>38.83309923112392425537109375</LatitudeDegrees>
              <LongitudeDegrees>-0.4088958911597728729248046875</LongitudeDegrees>
            </Position>
            <AltitudeMeters>765.4000244140625</AltitudeMeters>
            <DistanceMeters>5792.6527880289</DistanceMeters>
          </Trackpoint>
          <Trackpoint>
            <Time>2021-06-20T06:36:04.000Z</Time>
            <Position>
              <LatitudeDegrees>38.8331547193229198455810546875</LatitudeDegrees>
              <LongitudeDegrees>-0.408985577523708343505859375</LongitudeDegrees>
            </Position>
            <AltitudeMeters>766.20001220703125</AltitudeMeters>
            <DistanceMeters>5802.5829660116</DistanceMeters>
          </Trackpoint>
          <Trackpoint>
            <Time>2021-06-20T06:36:22.000Z</Time>
            <Position>
              <LatitudeDegrees>38.83310250006616115570068359375</LatitudeDegrees>
              <LongitudeDegrees>-0.409253798425197601318359375</LongitudeDegrees>
            </Position>
            <AltitudeMeters>771.5999755859375</AltitudeMeters>
            <DistanceMeters>5826.5534429391</DistanceMeters>
          </Trackpoint>
          <Trackpoint>
            <Time>2021-06-20T06:36:26.000Z</Time>
            <Position>
              <LatitudeDegrees>38.83308271877467632293701171875</LatitudeDegrees>
              <LongitudeDegrees>-0.409234352409839630126953125</LongitudeDegrees>
            </Position>
            <AltitudeMeters>772.5999755859375</AltitudeMeters>
            <DistanceMeters>5829.3271814146</DistanceMeters>
          </Trackpoint>
          <Trackpoint>
            <Time>2021-06-20T06:36:42.000Z</Time>
            <Position>
              <LatitudeDegrees>38.83312144316732883453369140625</LatitudeDegrees>
              <LongitudeDegrees>-0.40930115617811679840087890625</LongitudeDegrees>
            </Position>
            <AltitudeMeters>776.4000244140625</AltitudeMeters>
            <DistanceMeters>5836.5467105706</DistanceMeters>
          </Trackpoint>
          <Trackpoint>
            <Time>2021-06-20T06:36:46.000Z</Time>
            <Position>
              <LatitudeDegrees>38.83317374624311923980712890625</LatitudeDegrees>
              <LongitudeDegrees>-0.40934641845524311065673828125</LongitudeDegrees>
            </Position>
            <AltitudeMeters>777.4000244140625</AltitudeMeters>
            <DistanceMeters>5843.5677637186</DistanceMeters>
          </Trackpoint>
          <Trackpoint>
            <Time>2021-06-20T06:36:48.000Z</Time>
            <Position>
              <LatitudeDegrees>38.83320090360939502716064453125</LatitudeDegrees>
              <LongitudeDegrees>-0.40936619974672794342041015625</LongitudeDegrees>
            </Position>
            <AltitudeMeters>778.79998779296875</AltitudeMeters>
            <DistanceMeters>5847.0437157151</DistanceMeters>
          </Trackpoint>
          <Trackpoint>
            <Time>2021-06-20T06:36:54.000Z</Time>
            <Position>
              <LatitudeDegrees>38.83328170515596866607666015625</LatitudeDegrees>
              <LongitudeDegrees>-0.40942504070699214935302734375</LongitudeDegrees>
            </Position>
            <AltitudeMeters>780</AltitudeMeters>
            <DistanceMeters>5857.3828667897</DistanceMeters>
          </Trackpoint>
          <Trackpoint>
            <Time>2021-06-20T06:36:58.000Z</Time>
            <Position>
              <LatitudeDegrees>38.83333518169820308685302734375</LatitudeDegrees>
              <LongitudeDegrees>-0.40945907123386859893798828125</LongitudeDegrees>
            </Position>
            <AltitudeMeters>781.4000244140625</AltitudeMeters>
            <DistanceMeters>5864.0259070261</DistanceMeters>
          </Trackpoint>
          <Trackpoint>
            <Time>2021-06-20T06:37:02.000Z</Time>
            <Position>
              <LatitudeDegrees>38.83338647894561290740966796875</LatitudeDegrees>
              <LongitudeDegrees>-0.40948438458144664764404296875</LongitudeDegrees>
            </Position>
            <AltitudeMeters>782.5999755859375</AltitudeMeters>
            <DistanceMeters>5870.1424098428</DistanceMeters>
          </Trackpoint>
          <Trackpoint>
            <Time>2021-06-20T06:37:04.000Z</Time>
            <Position>
              <LatitudeDegrees>38.83340944536030292510986328125</LatitudeDegrees>
              <LongitudeDegrees>-0.40949511341750621795654296875</LongitudeDegrees>
            </Position>
            <AltitudeMeters>784.20001220703125</AltitudeMeters>
            <DistanceMeters>5872.863560828</DistanceMeters>
          </Trackpoint>
          <Trackpoint>
            <Time>2021-06-20T06:37:16.000Z</Time>
            <Position>
              <LatitudeDegrees>38.83345194160938262939453125</LatitudeDegrees>
              <LongitudeDegrees>-0.40953752584755420684814453125</LongitudeDegrees>
            </Position>
            <AltitudeMeters>787.79998779296875</AltitudeMeters>
            <DistanceMeters>5878.8555207695</DistanceMeters>
          </Trackpoint>
          <Trackpoint>
            <Time>2021-06-20T06:37:22.000Z</Time>
            <Position>
              <LatitudeDegrees>38.83348102681338787078857421875</LatitudeDegrees>
              <LongitudeDegrees>-0.4095666110515594482421875</LongitudeDegrees>
            </Position>
            <AltitudeMeters>790.4000244140625</AltitudeMeters>
            <DistanceMeters>5882.9593107944</DistanceMeters>
          </Trackpoint>
          <Trackpoint>
            <Time>2021-06-20T06:37:26.000Z</Time>
            <Position>
              <LatitudeDegrees>38.83351338095963001251220703125</LatitudeDegrees>
              <LongitudeDegrees>-0.40959812700748443603515625</LongitudeDegrees>
            </Position>
            <AltitudeMeters>791.79998779296875</AltitudeMeters>
            <DistanceMeters>5887.4808252607</DistanceMeters>
          </Trackpoint>
          <Trackpoint>
            <Time>2021-06-20T06:37:42.000Z</Time>
            <Position>
              <LatitudeDegrees>38.8340190611779689788818359375</LatitudeDegrees>
              <LongitudeDegrees>-0.40984614752233028411865234375</LongitudeDegrees>
            </Position>
            <AltitudeMeters>793.79998779296875</AltitudeMeters>
            <DistanceMeters>5947.7320337256</DistanceMeters>
          </Trackpoint>
          <Trackpoint>
            <Time>2021-06-20T06:37:43.000Z</Time>
            <Position>
              <LatitudeDegrees>38.83366207592189311981201171875</LatitudeDegrees>
              <LongitudeDegrees>-0.409554541110992431640625</LongitudeDegrees>
            </Position>
            <AltitudeMeters>793.79998779296875</AltitudeMeters>
            <DistanceMeters>5994.826951242</DistanceMeters>
          </Trackpoint>
          <Trackpoint>
            <Time>2021-06-20T06:37:48.000Z</Time>
            <Position>
              <LatitudeDegrees>38.83324080146849155426025390625</LatitudeDegrees>
              <LongitudeDegrees>-0.40951003320515155792236328125</LongitudeDegrees>
            </Position>
            <AltitudeMeters>793.4000244140625</AltitudeMeters>
            <DistanceMeters>6041.8741967286</DistanceMeters>
          </Trackpoint>
          <Trackpoint>
            <Time>2021-06-20T06:37:50.000Z</Time>
            <Position>
              <LatitudeDegrees>38.83318799547851085662841796875</LatitudeDegrees>
              <LongitudeDegrees>-0.40956753306090831756591796875</LongitudeDegrees>
            </Position>
            <AltitudeMeters>794</AltitudeMeters>
            <DistanceMeters>6049.5813260805</DistanceMeters>
          </Trackpoint>
          <Trackpoint>
            <Time>2021-06-20T06:37:52.000Z</Time>
            <Position>
              <LatitudeDegrees>38.8330953754484653472900390625</LatitudeDegrees>
              <LongitudeDegrees>-0.40939670987427234649658203125</LongitudeDegrees>
            </Position>
            <AltitudeMeters>794.20001220703125</AltitudeMeters>
            <DistanceMeters>6067.6266464336</DistanceMeters>
          </Trackpoint>
          <Trackpoint>
            <Time>2021-06-20T06:37:57.000Z</Time>
            <Position>
              <LatitudeDegrees>38.83317106403410434722900390625</LatitudeDegrees>
              <LongitudeDegrees>-0.40963207371532917022705078125</LongitudeDegrees>
            </Position>
            <AltitudeMeters>793.20001220703125</AltitudeMeters>
            <DistanceMeters>6089.7035426373</DistanceMeters>
          </Trackpoint>
          <Trackpoint>
            <Time>2021-06-20T06:37:58.000Z</Time>
            <Position>
              <LatitudeDegrees>38.833147175610065460205078125</LatitudeDegrees>
              <LongitudeDegrees>-0.4097149707376956939697265625</LongitudeDegrees>
            </Position>
            <AltitudeMeters>793</AltitudeMeters>
            <DistanceMeters>6097.3666090676</DistanceMeters>
          </Trackpoint>
          <Trackpoint>
            <Time>2021-06-20T06:38:00.000Z</Time>
            <Position>
              <LatitudeDegrees>38.8331557251513004302978515625</LatitudeDegrees>
              <LongitudeDegrees>-0.4098641686141490936279296875</LongitudeDegrees>
            </Position>
            <AltitudeMeters>792.79998779296875</AltitudeMeters>
            <DistanceMeters>6110.337668558</DistanceMeters>
          </Trackpoint>
          <Trackpoint>
            <Time>2021-06-20T06:38:03.000Z</Time>
            <Position>
              <LatitudeDegrees>38.83313183672726154327392578125</LatitudeDegrees>
              <LongitudeDegrees>-0.4100834392011165618896484375</LongitudeDegrees>
            </Position>
            <AltitudeMeters>792.79998779296875</AltitudeMeters>
            <DistanceMeters>6129.5335352842</DistanceMeters>
          </Trackpoint>
          <Trackpoint>
            <Time>2021-06-20T06:38:19.000Z</Time>
            <Position>
              <LatitudeDegrees>38.8330085389316082000732421875</LatitudeDegrees>
              <LongitudeDegrees>-0.41082121431827545166015625</LongitudeDegrees>
            </Position>
            <AltitudeMeters>789.4000244140625</AltitudeMeters>
            <DistanceMeters>6194.9554081746</DistanceMeters>
          </Trackpoint>
          <Trackpoint>
            <Time>2021-06-20T06:38:25.000Z</Time>
            <Position>
              <LatitudeDegrees>38.83300979621708393096923828125</LatitudeDegrees>
              <LongitudeDegrees>-0.4110647924244403839111328125</LongitudeDegrees>
            </Position>
            <AltitudeMeters>788.4000244140625</AltitudeMeters>
            <DistanceMeters>6216.0746545105</DistanceMeters>
          </Trackpoint>
          <Trackpoint>
            <Time>2021-06-20T06:38:41.000Z</Time>
            <Position>
              <LatitudeDegrees>38.83315748535096645355224609375</LatitudeDegrees>
              <LongitudeDegrees>-0.41162051260471343994140625</LongitudeDegrees>
            </Position>
            <AltitudeMeters>785.20001220703125</AltitudeMeters>
            <DistanceMeters>6266.9834374467</DistanceMeters>
          </Trackpoint>
          <Trackpoint>
            <Time>2021-06-20T06:38:57.000Z</Time>
            <Position>
              <LatitudeDegrees>38.833357058465480804443359375</LatitudeDegrees>
              <LongitudeDegrees>-0.41211060248315334320068359375</LongitudeDegrees>
            </Position>
            <AltitudeMeters>783.5999755859375</AltitudeMeters>
            <DistanceMeters>6314.9307950561</DistanceMeters>
          </Trackpoint>
          <Trackpoint>
            <Time>2021-06-20T06:39:05.000Z</Time>
            <Position>
              <LatitudeDegrees>38.83337818086147308349609375</LatitudeDegrees>
              <LongitudeDegrees>-0.4123941622674465179443359375</LongitudeDegrees>
            </Position>
            <AltitudeMeters>785.4000244140625</AltitudeMeters>
            <DistanceMeters>6339.627870662</DistanceMeters>
          </Trackpoint>
          <Trackpoint>
            <Time>2021-06-20T06:39:09.000Z</Time>
            <Position>
              <LatitudeDegrees>38.8333855569362640380859375</LatitudeDegrees>
              <LongitudeDegrees>-0.41253707371652126312255859375</LongitudeDegrees>
            </Position>
            <AltitudeMeters>786.5999755859375</AltitudeMeters>
            <DistanceMeters>6352.0462298737</DistanceMeters>
          </Trackpoint>
          <Trackpoint>
            <Time>2021-06-20T06:39:13.000Z</Time>
            <Position>
              <LatitudeDegrees>38.83341900072991847991943359375</LatitudeDegrees>
              <LongitudeDegrees>-0.41267420165240764617919921875</LongitudeDegrees>
            </Position>
            <AltitudeMeters>787.79998779296875</AltitudeMeters>
            <DistanceMeters>6364.5045184366</DistanceMeters>
          </Trackpoint>
          <Trackpoint>
            <Time>2021-06-20T06:39:23.000Z</Time>
            <Position>
              <LatitudeDegrees>38.8335369341075420379638671875</LatitudeDegrees>
              <LongitudeDegrees>-0.41300562210381031036376953125</LongitudeDegrees>
            </Position>
            <AltitudeMeters>789.79998779296875</AltitudeMeters>
            <DistanceMeters>6396.0951488242</DistanceMeters>
          </Trackpoint>
          <Trackpoint>
            <Time>2021-06-20T06:39:35.000Z</Time>
            <Position>
              <LatitudeDegrees>38.833597116172313690185546875</LatitudeDegrees>
              <LongitudeDegrees>-0.4134496115148067474365234375</LongitudeDegrees>
            </Position>
            <AltitudeMeters>791.4000244140625</AltitudeMeters>
            <DistanceMeters>6435.1678874546</DistanceMeters>
          </Trackpoint>
          <Trackpoint>
            <Time>2021-06-20T06:39:37.000Z</Time>
            <Position>
              <LatitudeDegrees>38.8335974514484405517578125</LatitudeDegrees>
              <LongitudeDegrees>-0.41352965869009494781494140625</LongitudeDegrees>
            </Position>
            <AltitudeMeters>792</AltitudeMeters>
            <DistanceMeters>6442.1080911801</DistanceMeters>
          </Trackpoint>
          <Trackpoint>
            <Time>2021-06-20T06:39:44.000Z</Time>
            <Position>
              <LatitudeDegrees>38.83352176286280155181884765625</LatitudeDegrees>
              <LongitudeDegrees>-0.41386627592146396636962890625</LongitudeDegrees>
            </Position>
            <AltitudeMeters>791.5999755859375</AltitudeMeters>
            <DistanceMeters>6472.4845513319</DistanceMeters>
          </Trackpoint>
          <Trackpoint>
            <Time>2021-06-20T06:39:45.000Z</Time>
            <Position>
              <LatitudeDegrees>38.83297727443277835845947265625</LatitudeDegrees>
              <LongitudeDegrees>-0.4135716520249843597412109375</LongitudeDegrees>
            </Position>
            <AltitudeMeters>791.4000244140625</AltitudeMeters>
            <DistanceMeters>6538.2507959026</DistanceMeters>
          </Trackpoint>
          <Trackpoint>
            <Time>2021-06-20T06:39:48.000Z</Time>
            <Position>
              <LatitudeDegrees>38.83277510292828083038330078125</LatitudeDegrees>
              <LongitudeDegrees>-0.413630492985248565673828125</LongitudeDegrees>
            </Position>
            <AltitudeMeters>791.4000244140625</AltitudeMeters>
            <DistanceMeters>6561.3239005215</DistanceMeters>
          </Trackpoint>
          <Trackpoint>
            <Time>2021-06-20T06:39:51.000Z</Time>
            <Position>
              <LatitudeDegrees>38.83231870830059051513671875</LatitudeDegrees>
              <LongitudeDegrees>-0.41353560984134674072265625</LongitudeDegrees>
            </Position>
            <AltitudeMeters>791</AltitudeMeters>
            <DistanceMeters>6612.7833011904</DistanceMeters>
          </Trackpoint>
          <Trackpoint>
            <Time>2021-06-20T06:39:52.000Z</Time>
            <Position>
              <LatitudeDegrees>38.83216992951929569244384765625</LatitudeDegrees>
              <LongitudeDegrees>-0.413661338388919830322265625</LongitudeDegrees>
            </Position>
            <AltitudeMeters>790.79998779296875</AltitudeMeters>
            <DistanceMeters>6632.6083882576</DistanceMeters>
          </Trackpoint>
          <Trackpoint>
            <Time>2021-06-20T06:39:53.000Z</Time>
            <Position>
              <LatitudeDegrees>38.8321817480027675628662109375</LatitudeDegrees>
              <LongitudeDegrees>-0.41363543830811977386474609375</LongitudeDegrees>
            </Position>
            <AltitudeMeters>790.79998779296875</AltitudeMeters>
            <DistanceMeters>6635.2090664877</DistanceMeters>
          </Trackpoint>
          <Trackpoint>
            <Time>2021-06-20T06:39:58.000Z</Time>
            <Position>
              <LatitudeDegrees>38.8323234021663665771484375</LatitudeDegrees>
              <LongitudeDegrees>-0.41378849186003208160400390625</LongitudeDegrees>
            </Position>
            <AltitudeMeters>791</AltitudeMeters>
            <DistanceMeters>6655.8169410787</DistanceMeters>
          </Trackpoint>
          <Trackpoint>
            <Time>2021-06-20T06:39:59.000Z</Time>
            <Position>
              <LatitudeDegrees>38.832329772412776947021484375</LatitudeDegrees>
              <LongitudeDegrees>-0.41381229646503925323486328125</LongitudeDegrees>
            </Position>
            <AltitudeMeters>791.20001220703125</AltitudeMeters>
            <DistanceMeters>6657.9963493033</DistanceMeters>
          </Trackpoint>
          <Trackpoint>
            <Time>2021-06-20T06:40:02.000Z</Time>
            <Position>
              <LatitudeDegrees>38.832416944205760955810546875</LatitudeDegrees>
              <LongitudeDegrees>-0.41399334557354450225830078125</LongitudeDegrees>
            </Position>
            <AltitudeMeters>791.79998779296875</AltitudeMeters>
            <DistanceMeters>6676.450135984</DistanceMeters>
          </Trackpoint>
          <Trackpoint>
            <Time>2021-06-20T06:40:03.000Z</Time>
            <Position>
              <LatitudeDegrees>38.83231862448155879974365234375</LatitudeDegrees>
              <LongitudeDegrees>-0.413877256214618682861328125</LongitudeDegrees>
            </Position>
            <AltitudeMeters>792.4000244140625</AltitudeMeters>
            <DistanceMeters>6691.3180972211</DistanceMeters>
          </Trackpoint>
          <Trackpoint>
            <Time>2021-06-20T06:40:16.000Z</Time>
            <Position>
              <LatitudeDegrees>38.83361010812222957611083984375</LatitudeDegrees>
              <LongitudeDegrees>-0.4152782075107097625732421875</LongitudeDegrees>
            </Position>
            <AltitudeMeters>795.20001220703125</AltitudeMeters>
            <DistanceMeters>6879.5101501304</DistanceMeters>
          </Trackpoint>
          <Trackpoint>
            <Time>2021-06-20T06:40:22.000Z</Time>
            <Position>
              <LatitudeDegrees>38.83395644836127758026123046875</LatitudeDegrees>
              <LongitudeDegrees>-0.41560317389667034149169921875</LongitudeDegrees>
            </Position>
            <AltitudeMeters>797.4000244140625</AltitudeMeters>
            <DistanceMeters>6927.2573627148</DistanceMeters>
          </Trackpoint>
          <Trackpoint>
            <Time>2021-06-20T06:40:26.000Z</Time>
            <Position>
              <LatitudeDegrees>38.8341126032173633575439453125</LatitudeDegrees>
              <LongitudeDegrees>-0.415747426450252532958984375</LongitudeDegrees>
            </Position>
            <AltitudeMeters>798.4000244140625</AltitudeMeters>
            <DistanceMeters>6948.6702364481</DistanceMeters>
          </Trackpoint>
          <Trackpoint>
            <Time>2021-06-20T06:40:32.000Z</Time>
            <Position>
              <LatitudeDegrees>38.834248892962932586669921875</LatitudeDegrees>
              <LongitudeDegrees>-0.4159021563827991485595703125</LongitudeDegrees>
            </Position>
            <AltitudeMeters>801</AltitudeMeters>
            <DistanceMeters>6968.9209621543</DistanceMeters>
          </Trackpoint>
          <Trackpoint>
            <Time>2021-06-20T06:40:34.000Z</Time>
            <Position>
              <LatitudeDegrees>38.83429189212620258331298828125</LatitudeDegrees>
              <LongitudeDegrees>-0.41595119051635265350341796875</LongitudeDegrees>
            </Position>
            <AltitudeMeters>801.4000244140625</AltitudeMeters>
            <DistanceMeters>6975.3224062806</DistanceMeters>
          </Trackpoint>
          <Trackpoint>
            <Time>2021-06-20T06:40:42.000Z</Time>
            <Position>
              <LatitudeDegrees>38.83446388877928256988525390625</LatitudeDegrees>
              <LongitudeDegrees>-0.41615336202085018157958984375</LongitudeDegrees>
            </Position>
            <AltitudeMeters>802.79998779296875</AltitudeMeters>
            <DistanceMeters>7001.2784449486</DistanceMeters>
          </Trackpoint>
          <Trackpoint>
            <Time>2021-06-20T06:40:46.000Z</Time>
            <Position>
              <LatitudeDegrees>38.8345984183251857757568359375</LatitudeDegrees>
              <LongitudeDegrees>-0.4163299687206745147705078125</LongitudeDegrees>
            </Position>
            <AltitudeMeters>803.4000244140625</AltitudeMeters>
            <DistanceMeters>7022.6944812921</DistanceMeters>
          </Trackpoint>
          <Trackpoint>
            <Time>2021-06-20T06:41:06.000Z</Time>
            <Position>
              <LatitudeDegrees>38.835308365523815155029296875</LatitudeDegrees>
              <LongitudeDegrees>-0.4172144271433353424072265625</LongitudeDegrees>
            </Position>
            <AltitudeMeters>806.79998779296875</AltitudeMeters>
            <DistanceMeters>7132.8037521835</DistanceMeters>
          </Trackpoint>
          <Trackpoint>
            <Time>2021-06-20T06:41:08.000Z</Time>
            <Position>
              <LatitudeDegrees>38.83538455702364444732666015625</LatitudeDegrees>
              <LongitudeDegrees>-0.4172994196414947509765625</LongitudeDegrees>
            </Position>
            <AltitudeMeters>807.79998779296875</AltitudeMeters>
            <DistanceMeters>7144.0386268394</DistanceMeters>
          </Trackpoint>
          <Trackpoint>
            <Time>2021-06-20T06:41:18.000Z</Time>
            <Position>
              <LatitudeDegrees>38.83572922088205814361572265625</LatitudeDegrees>
              <LongitudeDegrees>-0.41768322698771953582763671875</LongitudeDegrees>
            </Position>
            <AltitudeMeters>810.20001220703125</AltitudeMeters>
            <DistanceMeters>7194.8213155383</DistanceMeters>
          </Trackpoint>
          <Trackpoint>
            <Time>2021-06-20T06:41:22.000Z</Time>
            <Position>
              <LatitudeDegrees>38.83582091890275478363037109375</LatitudeDegrees>
              <LongitudeDegrees>-0.41779537685215473175048828125</LongitudeDegrees>
            </Position>
            <AltitudeMeters>811.20001220703125</AltitudeMeters>
            <DistanceMeters>7208.9179769241</DistanceMeters>
          </Trackpoint>
          <Trackpoint>
            <Time>2021-06-20T06:41:32.000Z</Time>
            <Position>
              <LatitudeDegrees>38.836036585271358489990234375</LatitudeDegrees>
              <LongitudeDegrees>-0.41809796355664730072021484375</LongitudeDegrees>
            </Position>
            <AltitudeMeters>814.4000244140625</AltitudeMeters>
            <DistanceMeters>7244.4765112561</DistanceMeters>
          </Trackpoint>
          <Trackpoint>
            <Time>2021-06-20T06:41:36.000Z</Time>
            <Position>
              <LatitudeDegrees>38.83617245592176914215087890625</LatitudeDegrees>
              <LongitudeDegrees>-0.41826643981039524078369140625</LongitudeDegrees>
            </Position>
            <AltitudeMeters>815.5999755859375</AltitudeMeters>
            <DistanceMeters>7265.5014805108</DistanceMeters>
          </Trackpoint>
          <Trackpoint>
            <Time>2021-06-20T06:41:40.000Z</Time>
            <Position>
              <LatitudeDegrees>38.8364169560372829437255859375</LatitudeDegrees>
              <LongitudeDegrees>-0.41850733570754528045654296875</LongitudeDegrees>
            </Position>
            <AltitudeMeters>817.20001220703125</AltitudeMeters>
            <DistanceMeters>7299.8053346936</DistanceMeters>
          </Trackpoint>
          <Trackpoint>
            <Time>2021-06-20T06:41:44.000Z</Time>
            <Position>
              <LatitudeDegrees>38.83702724240720272064208984375</LatitudeDegrees>
              <LongitudeDegrees>-0.4189516603946685791015625</LongitudeDegrees>
            </Position>
            <AltitudeMeters>818.20001220703125</AltitudeMeters>
            <DistanceMeters>7377.8941696283</DistanceMeters>
          </Trackpoint>
          <Trackpoint>
            <Time>2021-06-20T06:41:47.000Z</Time>
            <Position>
              <LatitudeDegrees>38.83280795998871326446533203125</LatitudeDegrees>
              <LongitudeDegrees>-0.4165703617036342620849609375</LongitudeDegrees>
            </Position>
            <AltitudeMeters>819.4000244140625</AltitudeMeters>
            <DistanceMeters>7890.8876470896</DistanceMeters>
          </Trackpoint>
          <Trackpoint>
            <Time>2021-06-20T06:41:50.000Z</Time>
            <Position>
              <LatitudeDegrees>38.83254359476268291473388671875</LatitudeDegrees>
              <LongitudeDegrees>-0.41645460762083530426025390625</LongitudeDegrees>
            </Position>
            <AltitudeMeters>820.4000244140625</AltitudeMeters>
            <DistanceMeters>7921.9764902978</DistanceMeters>
          </Trackpoint>
          <Trackpoint>
            <Time>2021-06-20T06:41:51.000Z</Time>
            <Position>
              <LatitudeDegrees>38.83254292421042919158935546875</LatitudeDegrees>
              <LongitudeDegrees>-0.41635352186858654022216796875</LongitudeDegrees>
            </Position>
            <AltitudeMeters>820.5999755859375</AltitudeMeters>
            <DistanceMeters>7930.7411272161</DistanceMeters>
          </Trackpoint>
          <Trackpoint>
            <Time>2021-06-20T06:41:53.000Z</Time>
            <Position>
              <LatitudeDegrees>38.83247989229857921600341796875</LatitudeDegrees>
              <LongitudeDegrees>-0.41629828512668609619140625</LongitudeDegrees>
            </Position>
            <AltitudeMeters>821.20001220703125</AltitudeMeters>
            <DistanceMeters>7939.2352611206</DistanceMeters>
          </Trackpoint>
          <Trackpoint>
            <Time>2021-06-20T06:41:54.000Z</Time>
            <Position>
              <LatitudeDegrees>38.83246086537837982177734375</LatitudeDegrees>
              <LongitudeDegrees>-0.41628277860581874847412109375</LongitudeDegrees>
            </Position>
            <AltitudeMeters>821.79998779296875</AltitudeMeters>
            <DistanceMeters>7941.7422380261</DistanceMeters>
          </Trackpoint>
          <Trackpoint>
            <Time>2021-06-20T06:41:55.000Z</Time>
            <Position>
              <LatitudeDegrees>38.8324405811727046966552734375</LatitudeDegrees>
              <LongitudeDegrees>-0.41628210805356502532958984375</LongitudeDegrees>
            </Position>
            <AltitudeMeters>822.20001220703125</AltitudeMeters>
            <DistanceMeters>7944.0029952593</DistanceMeters>
          </Trackpoint>
          <Trackpoint>
            <Time>2021-06-20T06:41:57.000Z</Time>
            <Position>
              <LatitudeDegrees>38.83232809603214263916015625</LatitudeDegrees>
              <LongitudeDegrees>-0.41624103672802448272705078125</LongitudeDegrees>
            </Position>
            <AltitudeMeters>822.5999755859375</AltitudeMeters>
            <DistanceMeters>7957.0192272118</DistanceMeters>
          </Trackpoint>
          <Trackpoint>
            <Time>2021-06-20T06:41:58.000Z</Time>
            <Position>
              <LatitudeDegrees>38.832308314740657806396484375</LatitudeDegrees>
              <LongitudeDegrees>-0.41627682745456695556640625</LongitudeDegrees>
            </Position>
            <AltitudeMeters>822.5999755859375</AltitudeMeters>
            <DistanceMeters>7960.8226707125</DistanceMeters>
          </Trackpoint>
          <Trackpoint>
            <Time>2021-06-20T06:41:59.000Z</Time>
            <Position>
              <LatitudeDegrees>38.83229850791394710540771484375</LatitudeDegrees>
              <LongitudeDegrees>-0.41630205698311328887939453125</LongitudeDegrees>
            </Position>
            <AltitudeMeters>823</AltitudeMeters>
            <DistanceMeters>7963.2676473189</DistanceMeters>
          </Trackpoint>
          <Trackpoint>
            <Time>2021-06-20T06:42:02.000Z</Time>
            <Position>
              <LatitudeDegrees>38.83227311074733734130859375</LatitudeDegrees>
              <LongitudeDegrees>-0.416363663971424102783203125</LongitudeDegrees>
            </Position>
            <AltitudeMeters>824</AltitudeMeters>
            <DistanceMeters>7969.3113762354</DistanceMeters>
          </Trackpoint>
          <Trackpoint>
            <Time>2021-06-20T06:42:03.000Z</Time>
            <Position>
              <LatitudeDegrees>38.8322858512401580810546875</LatitudeDegrees>
              <LongitudeDegrees>-0.41635737754404544830322265625</LongitudeDegrees>
            </Position>
            <AltitudeMeters>824.4000244140625</AltitudeMeters>
            <DistanceMeters>7970.8318036653</DistanceMeters>
          </Trackpoint>
          <Trackpoint>
            <Time>2021-06-20T06:42:06.000Z</Time>
            <Position>
              <LatitudeDegrees>38.83225173689424991607666015625</LatitudeDegrees>
              <LongitudeDegrees>-0.416340194642543792724609375</LongitudeDegrees>
            </Position>
            <AltitudeMeters>825.4000244140625</AltitudeMeters>
            <DistanceMeters>7974.9124238342</DistanceMeters>
          </Trackpoint>
          <Trackpoint>
            <Time>2021-06-20T06:42:12.000Z</Time>
            <Position>
              <LatitudeDegrees>38.83223698474466800689697265625</LatitudeDegrees>
              <LongitudeDegrees>-0.41636207140982151031494140625</LongitudeDegrees>
            </Position>
            <AltitudeMeters>827.79998779296875</AltitudeMeters>
            <DistanceMeters>7977.4230001342</DistanceMeters>
          </Trackpoint>
          <Trackpoint>
            <Time>2021-06-20T06:42:18.000Z</Time>
            <Position>
              <LatitudeDegrees>38.832228519022464752197265625</LatitudeDegrees>
              <LongitudeDegrees>-0.41638151742517948150634765625</LongitudeDegrees>
            </Position>
            <AltitudeMeters>829</AltitudeMeters>
            <DistanceMeters>7979.3541711704</DistanceMeters>
          </Trackpoint>
          <Trackpoint>
            <Time>2021-06-20T06:42:22.000Z</Time>
            <Position>
              <LatitudeDegrees>38.83222407661378383636474609375</LatitudeDegrees>
              <LongitudeDegrees>-0.4163919948041439056396484375</LongitudeDegrees>
            </Position>
            <AltitudeMeters>830.4000244140625</AltitudeMeters>
            <DistanceMeters>7980.3864255094</DistanceMeters>
          </Trackpoint>
          <Trackpoint>
            <Time>2021-06-20T06:42:24.000Z</Time>
            <Position>
              <LatitudeDegrees>38.83222206495702266693115234375</LatitudeDegrees>
              <LongitudeDegrees>-0.41639677248895168304443359375</LongitudeDegrees>
            </Position>
            <AltitudeMeters>831.4000244140625</AltitudeMeters>
            <DistanceMeters>7980.8519594337</DistanceMeters>
          </Trackpoint>
          <Trackpoint>
            <Time>2021-06-20T06:42:34.000Z</Time>
            <Position>
              <LatitudeDegrees>38.832213766872882843017578125</LatitudeDegrees>
              <LongitudeDegrees>-0.416416637599468231201171875</LongitudeDegrees>
            </Position>
            <AltitudeMeters>835</AltitudeMeters>
            <DistanceMeters>7982.8040588829</DistanceMeters>
          </Trackpoint>
          <Trackpoint>
            <Time>2021-06-20T06:42:38.000Z</Time>
            <Position>
              <LatitudeDegrees>38.8322115875780582427978515625</LatitudeDegrees>
              <LongitudeDegrees>-0.41642225347459316253662109375</LongitudeDegrees>
            </Position>
            <AltitudeMeters>836</AltitudeMeters>
            <DistanceMeters>7983.3416111559</DistanceMeters>
          </Trackpoint>
          <Trackpoint>
            <Time>2021-06-20T06:42:44.000Z</Time>
            <Position>
              <LatitudeDegrees>38.8322192989289760589599609375</LatitudeDegrees>
              <LongitudeDegrees>-0.416409932076930999755859375</LongitudeDegrees>
            </Position>
            <AltitudeMeters>837</AltitudeMeters>
            <DistanceMeters>7984.7088074929</DistanceMeters>
          </Trackpoint>
          <Trackpoint>
            <Time>2021-06-20T06:42:48.000Z</Time>
            <Position>
              <LatitudeDegrees>38.8322246633470058441162109375</LatitudeDegrees>
              <LongitudeDegrees>-0.4163943417370319366455078125</LongitudeDegrees>
            </Position>
            <AltitudeMeters>838.20001220703125</AltitudeMeters>
            <DistanceMeters>7986.1870762436</DistanceMeters>
          </Trackpoint>
          <Trackpoint>
            <Time>2021-06-20T06:42:54.000Z</Time>
            <Position>
              <LatitudeDegrees>38.83222055621445178985595703125</LatitudeDegrees>
              <LongitudeDegrees>-0.41640129871666431427001953125</LongitudeDegrees>
            </Position>
            <AltitudeMeters>840.79998779296875</AltitudeMeters>
            <DistanceMeters>7986.941327406</DistanceMeters>
          </Trackpoint>
          <Trackpoint>
            <Time>2021-06-20T06:43:04.000Z</Time>
            <Position>
              <LatitudeDegrees>38.83223421871662139892578125</LatitudeDegrees>
              <LongitudeDegrees>-0.416427366435527801513671875</LongitudeDegrees>
            </Position>
            <AltitudeMeters>843</AltitudeMeters>
            <DistanceMeters>7989.665794847</DistanceMeters>
          </Trackpoint>
          <Trackpoint>
            <Time>2021-06-20T06:43:08.000Z</Time>
            <Position>
              <LatitudeDegrees>38.83219406940042972564697265625</LatitudeDegrees>
              <LongitudeDegrees>-0.4165153764188289642333984375</LongitudeDegrees>
            </Position>
            <AltitudeMeters>844</AltitudeMeters>
            <DistanceMeters>7998.5088973571</DistanceMeters>
          </Trackpoint>
          <Trackpoint>
            <Time>2021-06-20T06:43:12.000Z</Time>
            <Position>
              <LatitudeDegrees>38.8321247510612010955810546875</LatitudeDegrees>
              <LongitudeDegrees>-0.41659022681415081024169921875</LongitudeDegrees>
            </Position>
            <AltitudeMeters>845.20001220703125</AltitudeMeters>
            <DistanceMeters>8008.5906898789</DistanceMeters>
          </Trackpoint>
          <Trackpoint>
            <Time>2021-06-20T06:43:24.000Z</Time>
            <Position>
              <LatitudeDegrees>38.83204487152397632598876953125</LatitudeDegrees>
              <LongitudeDegrees>-0.4167963378131389617919921875</LongitudeDegrees>
            </Position>
            <AltitudeMeters>847.20001220703125</AltitudeMeters>
            <DistanceMeters>8028.5508244653</DistanceMeters>
          </Trackpoint>
          <Trackpoint>
            <Time>2021-06-20T06:43:26.000Z</Time>
            <Position>
              <LatitudeDegrees>38.83204185403883457183837890625</LatitudeDegrees>
              <LongitudeDegrees>-0.4168023727834224700927734375</LongitudeDegrees>
            </Position>
            <AltitudeMeters>848.4000244140625</AltitudeMeters>
            <DistanceMeters>8029.1666679606</DistanceMeters>
          </Trackpoint>
          <Trackpoint>
            <Time>2021-06-20T06:43:32.000Z</Time>
            <Position>
              <LatitudeDegrees>38.8320298679172992706298828125</LatitudeDegrees>
              <LongitudeDegrees>-0.41682726703584194183349609375</LongitudeDegrees>
            </Position>
            <AltitudeMeters>850.5999755859375</AltitudeMeters>
            <DistanceMeters>8031.7058557404</DistanceMeters>
          </Trackpoint>
          <Trackpoint>
            <Time>2021-06-20T06:43:42.000Z</Time>
            <Position>
              <LatitudeDegrees>38.83196172304451465606689453125</LatitudeDegrees>
              <LongitudeDegrees>-0.41697797365486621856689453125</LongitudeDegrees>
            </Position>
            <AltitudeMeters>853.4000244140625</AltitudeMeters>
            <DistanceMeters>8046.8148044961</DistanceMeters>
          </Trackpoint>
          <Trackpoint>
            <Time>2021-06-20T06:43:43.000Z</Time>
            <Position>
              <LatitudeDegrees>38.83194361813366413116455078125</LatitudeDegrees>
              <LongitudeDegrees>-0.41694067418575286865234375</LongitudeDegrees>
            </Position>
            <AltitudeMeters>853.4000244140625</AltitudeMeters>
            <DistanceMeters>8050.6253638936</DistanceMeters>
          </Trackpoint>
          <Trackpoint>
            <Time>2021-06-20T06:43:47.000Z</Time>
            <Position>
              <LatitudeDegrees>38.83196289651095867156982421875</LatitudeDegrees>
              <LongitudeDegrees>-0.4168553464114665985107421875</LongitudeDegrees>
            </Position>
            <AltitudeMeters>854.5999755859375</AltitudeMeters>
            <DistanceMeters>8058.3283913707</DistanceMeters>
          </Trackpoint>
          <Trackpoint>
            <Time>2021-06-20T06:43:49.000Z</Time>
            <Position>
              <LatitudeDegrees>38.8319795764982700347900390625</LatitudeDegrees>
              <LongitudeDegrees>-0.41681720875203609466552734375</LongitudeDegrees>
            </Position>
            <AltitudeMeters>855.20001220703125</AltitudeMeters>
            <DistanceMeters>8062.1199453659</DistanceMeters>
          </Trackpoint>
          <Trackpoint>
            <Time>2021-06-20T06:43:51.000Z</Time>
            <Position>
              <LatitudeDegrees>38.83200497366487979888916015625</LatitudeDegrees>
              <LongitudeDegrees>-0.417016446590423583984375</LongitudeDegrees>
            </Position>
            <AltitudeMeters>855.4000244140625</AltitudeMeters>
            <DistanceMeters>8079.6239590126</DistanceMeters>
          </Trackpoint>
          <Trackpoint>
            <Time>2021-06-20T06:43:52.000Z</Time>
            <Position>
              <LatitudeDegrees>38.832026682794094085693359375</LatitudeDegrees>
              <LongitudeDegrees>-0.41698065586388111114501953125</LongitudeDegrees>
            </Position>
            <AltitudeMeters>855.5999755859375</AltitudeMeters>
            <DistanceMeters>8083.5558149195</DistanceMeters>
          </Trackpoint>
          <Trackpoint>
            <Time>2021-06-20T06:43:56.000Z</Time>
            <Position>
              <LatitudeDegrees>38.83209683932363986968994140625</LatitudeDegrees>
              <LongitudeDegrees>-0.416758954524993896484375</LongitudeDegrees>
            </Position>
            <AltitudeMeters>856.20001220703125</AltitudeMeters>
            <DistanceMeters>8104.3034351224</DistanceMeters>
          </Trackpoint>
          <Trackpoint>
            <Time>2021-06-20T06:43:58.000Z</Time>
            <Position>
              <LatitudeDegrees>38.83211393840610980987548828125</LatitudeDegrees>
              <LongitudeDegrees>-0.41672970168292522430419921875</LongitudeDegrees>
            </Position>
            <AltitudeMeters>856.79998779296875</AltitudeMeters>
            <DistanceMeters>8107.4722590376</DistanceMeters>
          </Trackpoint>
          <Trackpoint>
            <Time>2021-06-20T06:44:00.000Z</Time>
            <Position>
              <LatitudeDegrees>38.83211963810026645660400390625</LatitudeDegrees>
              <LongitudeDegrees>-0.41665946133434772491455078125</LongitudeDegrees>
            </Position>
            <AltitudeMeters>856.79998779296875</AltitudeMeters>
            <DistanceMeters>8113.5946643916</DistanceMeters>
          </Trackpoint>
          <Trackpoint>
            <Time>2021-06-20T06:44:19.000Z</Time>
            <Position>
              <LatitudeDegrees>38.83219708688557147979736328125</LatitudeDegrees>
              <LongitudeDegrees>-0.41586116887629032135009765625</LongitudeDegrees>
            </Position>
            <AltitudeMeters>858</AltitudeMeters>
            <DistanceMeters>8183.3434959501</DistanceMeters>
          </Trackpoint>
          <Trackpoint>
            <Time>2021-06-20T06:44:23.000Z</Time>
            <Position>
              <LatitudeDegrees>38.83214646019041538238525390625</LatitudeDegrees>
              <LongitudeDegrees>-0.4157459177076816558837890625</LongitudeDegrees>
            </Position>
            <AltitudeMeters>859.20001220703125</AltitudeMeters>
            <DistanceMeters>8194.8149955912</DistanceMeters>
          </Trackpoint>
          <Trackpoint>
            <Time>2021-06-20T06:44:35.000Z</Time>
            <Position>
              <LatitudeDegrees>38.83207320235669612884521484375</LatitudeDegrees>
              <LongitudeDegrees>-0.41537065990269184112548828125</LongitudeDegrees>
            </Position>
            <AltitudeMeters>861.4000244140625</AltitudeMeters>
            <DistanceMeters>8228.3571375072</DistanceMeters>
          </Trackpoint>
          <Trackpoint>
            <Time>2021-06-20T06:44:45.000Z</Time>
            <Position>
              <LatitudeDegrees>38.832067586481571197509765625</LatitudeDegrees>
              <LongitudeDegrees>-0.415078215301036834716796875</LongitudeDegrees>
            </Position>
            <AltitudeMeters>864.20001220703125</AltitudeMeters>
            <DistanceMeters>8253.7205490653</DistanceMeters>
          </Trackpoint>
          <Trackpoint>
            <Time>2021-06-20T06:45:23.000Z</Time>
            <Position>
              <LatitudeDegrees>38.8320774771273136138916015625</LatitudeDegrees>
              <LongitudeDegrees>-0.41408487595617771148681640625</LongitudeDegrees>
            </Position>
            <AltitudeMeters>864.79998779296875</AltitudeMeters>
            <DistanceMeters>8339.8529223271</DistanceMeters>
          </Trackpoint>
          <Trackpoint>
            <Time>2021-06-20T06:45:27.000Z</Time>
            <Position>
              <LatitudeDegrees>38.83210220374166965484619140625</LatitudeDegrees>
              <LongitudeDegrees>-0.413966439664363861083984375</LongitudeDegrees>
            </Position>
            <AltitudeMeters>864.4000244140625</AltitudeMeters>
            <DistanceMeters>8350.4840293613</DistanceMeters>
          </Trackpoint>
          <Trackpoint>
            <Time>2021-06-20T06:45:43.000Z</Time>
            <Position>
              <LatitudeDegrees>38.83215165697038173675537109375</LatitudeDegrees>
              <LongitudeDegrees>-0.41342890821397304534912109375</LongitudeDegrees>
            </Position>
            <AltitudeMeters>869.4000244140625</AltitudeMeters>
            <DistanceMeters>8397.4134703782</DistanceMeters>
          </Trackpoint>
          <Trackpoint>
            <Time>2021-06-20T06:45:44.000Z</Time>
            <Position>
              <LatitudeDegrees>38.83213355205953121185302734375</LatitudeDegrees>
              <LongitudeDegrees>-0.41346377693116664886474609375</LongitudeDegrees>
            </Position>
            <AltitudeMeters>870</AltitudeMeters>
            <DistanceMeters>8401.0469221477</DistanceMeters>
          </Trackpoint>
          <Trackpoint>
            <Time>2021-06-20T06:45:46.000Z</Time>
            <Position>
              <LatitudeDegrees>38.83215031586587429046630859375</LatitudeDegrees>
              <LongitudeDegrees>-0.4134157486259937286376953125</LongitudeDegrees>
            </Position>
            <AltitudeMeters>870.5999755859375</AltitudeMeters>
            <DistanceMeters>8405.6101837312</DistanceMeters>
          </Trackpoint>
          <Trackpoint>
            <Time>2021-06-20T06:45:47.000Z</Time>
            <Position>
              <LatitudeDegrees>38.8321314565837383270263671875</LatitudeDegrees>
              <LongitudeDegrees>-0.41338616050779819488525390625</LongitudeDegrees>
            </Position>
            <AltitudeMeters>870.79998779296875</AltitudeMeters>
            <DistanceMeters>8408.9238784902</DistanceMeters>
          </Trackpoint>
          <Trackpoint>
            <Time>2021-06-20T06:45:50.000Z</Time>
            <Position>
              <LatitudeDegrees>38.83213003166019916534423828125</LatitudeDegrees>
              <LongitudeDegrees>-0.41333905421197414398193359375</LongitudeDegrees>
            </Position>
            <AltitudeMeters>871.79998779296875</AltitudeMeters>
            <DistanceMeters>8413.0111320206</DistanceMeters>
          </Trackpoint>
          <Trackpoint>
            <Time>2021-06-20T06:45:51.000Z</Time>
            <Position>
              <LatitudeDegrees>38.832471929490566253662109375</LatitudeDegrees>
              <LongitudeDegrees>-0.41344382800161838531494140625</LongitudeDegrees>
            </Position>
            <AltitudeMeters>872.20001220703125</AltitudeMeters>
            <DistanceMeters>8452.1342200557</DistanceMeters>
          </Trackpoint>
          <Trackpoint>
            <Time>2021-06-20T06:45:53.000Z</Time>
            <Position>
              <LatitudeDegrees>38.8323604501783847808837890625</LatitudeDegrees>
              <LongitudeDegrees>-0.41347400285303592681884765625</LongitudeDegrees>
            </Position>
            <AltitudeMeters>872.5999755859375</AltitudeMeters>
            <DistanceMeters>8464.8145016441</DistanceMeters>
          </Trackpoint>
          <Trackpoint>
            <Time>2021-06-20T06:45:54.000Z</Time>
            <Position>
              <LatitudeDegrees>38.83234125562012195587158203125</LatitudeDegrees>
              <LongitudeDegrees>-0.4134217835962772369384765625</LongitudeDegrees>
            </Position>
            <AltitudeMeters>872.79998779296875</AltitudeMeters>
            <DistanceMeters>8469.8203444435</DistanceMeters>
          </Trackpoint>
          <Trackpoint>
            <Time>2021-06-20T06:45:58.000Z</Time>
            <Position>
              <LatitudeDegrees>38.83231543935835361480712890625</LatitudeDegrees>
              <LongitudeDegrees>-0.41333846747875213623046875</LongitudeDegrees>
            </Position>
            <AltitudeMeters>874</AltitudeMeters>
            <DistanceMeters>8477.594551904</DistanceMeters>
          </Trackpoint>
          <Trackpoint>
            <Time>2021-06-20T06:46:02.000Z</Time>
            <Position>
              <LatitudeDegrees>38.8323249109089374542236328125</LatitudeDegrees>
              <LongitudeDegrees>-0.41327551938593387603759765625</LongitudeDegrees>
            </Position>
            <AltitudeMeters>875.20001220703125</AltitudeMeters>
            <DistanceMeters>8483.1534116424</DistanceMeters>
          </Trackpoint>
          <Trackpoint>
            <Time>2021-06-20T06:46:03.000Z</Time>
            <Position>
              <LatitudeDegrees>38.832321055233478546142578125</LatitudeDegrees>
              <LongitudeDegrees>-0.41328591294586658477783203125</LongitudeDegrees>
            </Position>
            <AltitudeMeters>875.5999755859375</AltitudeMeters>
            <DistanceMeters>8484.1500602309</DistanceMeters>
          </Trackpoint>
          <Trackpoint>
            <Time>2021-06-20T06:46:06.000Z</Time>
            <Position>
              <LatitudeDegrees>38.8322813250124454498291015625</LatitudeDegrees>
              <LongitudeDegrees>-0.41322983801364898681640625</LongitudeDegrees>
            </Position>
            <AltitudeMeters>876.5999755859375</AltitudeMeters>
            <DistanceMeters>8490.7227222264</DistanceMeters>
          </Trackpoint>
          <Trackpoint>
            <Time>2021-06-20T06:46:16.000Z</Time>
            <Position>
              <LatitudeDegrees>38.8322662375867366790771484375</LatitudeDegrees>
              <LongitudeDegrees>-0.41320879943668842315673828125</LongitudeDegrees>
            </Position>
            <AltitudeMeters>880.20001220703125</AltitudeMeters>
            <DistanceMeters>8493.2007157659</DistanceMeters>
          </Trackpoint>
          <Trackpoint>
            <Time>2021-06-20T06:46:38.000Z</Time>
            <Position>
              <LatitudeDegrees>38.83227788843214511871337890625</LatitudeDegrees>
              <LongitudeDegrees>-0.41327887214720249176025390625</LongitudeDegrees>
            </Position>
            <AltitudeMeters>886.20001220703125</AltitudeMeters>
            <DistanceMeters>8499.4131667091</DistanceMeters>
          </Trackpoint>
          <Trackpoint>
            <Time>2021-06-20T06:46:52.000Z</Time>
            <Position>
              <LatitudeDegrees>38.83227386511862277984619140625</LatitudeDegrees>
              <LongitudeDegrees>-0.413271076977252960205078125</LongitudeDegrees>
            </Position>
            <AltitudeMeters>889.20001220703125</AltitudeMeters>
            <DistanceMeters>8500.2194951186</DistanceMeters>
          </Trackpoint>
          <Trackpoint>
            <Time>2021-06-20T06:46:58.000Z</Time>
            <Position>
              <LatitudeDegrees>38.83227017708122730255126953125</LatitudeDegrees>
              <LongitudeDegrees>-0.41326663456857204437255859375</LongitudeDegrees>
            </Position>
            <AltitudeMeters>890.4000244140625</AltitudeMeters>
            <DistanceMeters>8500.7735913188</DistanceMeters>
          </Trackpoint>
          <Trackpoint>
            <Time>2021-06-20T06:47:00.000Z</Time>
            <Position>
              <LatitudeDegrees>38.8322679139673709869384765625</LatitudeDegrees>
              <LongitudeDegrees>-0.4132645390927791595458984375</LongitudeDegrees>
            </Position>
            <AltitudeMeters>891.5999755859375</AltitudeMeters>
            <DistanceMeters>8501.0740921748</DistanceMeters>
          </Trackpoint>
          <Trackpoint>
            <Time>2021-06-20T06:47:02.000Z</Time>
            <Position>
              <LatitudeDegrees>38.83226430974900722503662109375</LatitudeDegrees>
              <LongitudeDegrees>-0.41326160542666912078857421875</LongitudeDegrees>
            </Position>
            <AltitudeMeters>892.79998779296875</AltitudeMeters>
            <DistanceMeters>8501.5396260991</DistanceMeters>
          </Trackpoint>
          <Trackpoint>
            <Time>2021-06-20T06:47:18.000Z</Time>
            <Position>
              <LatitudeDegrees>38.832102119922637939453125</LatitudeDegrees>
              <LongitudeDegrees>-0.4130147583782672882080078125</LongitudeDegrees>
            </Position>
            <AltitudeMeters>896.4000244140625</AltitudeMeters>
            <DistanceMeters>8529.5385020838</DistanceMeters>
          </Trackpoint>
          <Trackpoint>
            <Time>2021-06-20T06:47:28.000Z</Time>
            <Position>
              <LatitudeDegrees>38.83197940886020660400390625</LatitudeDegrees>
              <LongitudeDegrees>-0.41276288218796253204345703125</LongitudeDegrees>
            </Position>
            <AltitudeMeters>897.5999755859375</AltitudeMeters>
            <DistanceMeters>8555.2961762119</DistanceMeters>
          </Trackpoint>
          <Trackpoint>
            <Time>2021-06-20T06:47:44.000Z</Time>
            <Position>
              <LatitudeDegrees>38.83178520016372203826904296875</LatitudeDegrees>
              <LongitudeDegrees>-0.41232819668948650360107421875</LongitudeDegrees>
            </Position>
            <AltitudeMeters>900.79998779296875</AltitudeMeters>
            <DistanceMeters>8598.7434458615</DistanceMeters>
          </Trackpoint>
          <Trackpoint>
            <Time>2021-06-20T06:47:47.000Z</Time>
            <Position>
              <LatitudeDegrees>38.831838257610797882080078125</LatitudeDegrees>
              <LongitudeDegrees>-0.4123492352664470672607421875</LongitudeDegrees>
            </Position>
            <AltitudeMeters>902</AltitudeMeters>
            <DistanceMeters>8604.9238360885</DistanceMeters>
          </Trackpoint>
          <Trackpoint>
            <Time>2021-06-20T06:47:50.000Z</Time>
            <Position>
              <LatitudeDegrees>38.831842280924320220947265625</LatitudeDegrees>
              <LongitudeDegrees>-0.41234579868614673614501953125</LongitudeDegrees>
            </Position>
            <AltitudeMeters>902.79998779296875</AltitudeMeters>
            <DistanceMeters>8605.4613883615</DistanceMeters>
          </Trackpoint>
          <Trackpoint>
            <Time>2021-06-20T06:47:52.000Z</Time>
            <Position>
              <LatitudeDegrees>38.8318955898284912109375</LatitudeDegrees>
              <LongitudeDegrees>-0.4125574417412281036376953125</LongitudeDegrees>
            </Position>
            <AltitudeMeters>903.20001220703125</AltitudeMeters>
            <DistanceMeters>8624.7468955774</DistanceMeters>
          </Trackpoint>
          <Trackpoint>
            <Time>2021-06-20T06:47:54.000Z</Time>
            <Position>
              <LatitudeDegrees>38.83186549879610538482666015625</LatitudeDegrees>
              <LongitudeDegrees>-0.41253791190683841705322265625</LongitudeDegrees>
            </Position>
            <AltitudeMeters>903.5999755859375</AltitudeMeters>
            <DistanceMeters>8628.5001500655</DistanceMeters>
          </Trackpoint>
          <Trackpoint>
            <Time>2021-06-20T06:47:59.000Z</Time>
            <Position>
              <LatitudeDegrees>38.83188025094568729400634765625</LatitudeDegrees>
              <LongitudeDegrees>-0.41246750392019748687744140625</LongitudeDegrees>
            </Position>
            <AltitudeMeters>904.20001220703125</AltitudeMeters>
            <DistanceMeters>8634.822105328</DistanceMeters>
          </Trackpoint>
          <Trackpoint>
            <Time>2021-06-20T06:48:00.000Z</Time>
            <Position>
              <LatitudeDegrees>38.831875808537006378173828125</LatitudeDegrees>
              <LongitudeDegrees>-0.41243934072554111480712890625</LongitudeDegrees>
            </Position>
            <AltitudeMeters>904.5999755859375</AltitudeMeters>
            <DistanceMeters>8637.3128205901</DistanceMeters>
          </Trackpoint>
          <Trackpoint>
            <Time>2021-06-20T06:48:02.000Z</Time>
            <Position>
              <LatitudeDegrees>38.83187153376638889312744140625</LatitudeDegrees>
              <LongitudeDegrees>-0.41235233657062053680419921875</LongitudeDegrees>
            </Position>
            <AltitudeMeters>905.20001220703125</AltitudeMeters>
            <DistanceMeters>8644.871477459</DistanceMeters>
          </Trackpoint>
          <Trackpoint>
            <Time>2021-06-20T06:48:10.000Z</Time>
            <Position>
              <LatitudeDegrees>38.83183456957340240478515625</LatitudeDegrees>
              <LongitudeDegrees>-0.4121048189699649810791015625</LongitudeDegrees>
            </Position>
            <AltitudeMeters>905.4000244140625</AltitudeMeters>
            <DistanceMeters>8666.7226632861</DistanceMeters>
          </Trackpoint>
          <Trackpoint>
            <Time>2021-06-20T06:48:16.000Z</Time>
            <Position>
              <LatitudeDegrees>38.83181638084352016448974609375</LatitudeDegrees>
              <LongitudeDegrees>-0.4119365103542804718017578125</LongitudeDegrees>
            </Position>
            <AltitudeMeters>905.5999755859375</AltitudeMeters>
            <DistanceMeters>8681.4551755432</DistanceMeters>
          </Trackpoint>
          <Trackpoint>
            <Time>2021-06-20T06:48:28.000Z</Time>
            <Position>
              <LatitudeDegrees>38.8319343142211437225341796875</LatitudeDegrees>
              <LongitudeDegrees>-0.41161858476698398590087890625</LongitudeDegrees>
            </Position>
            <AltitudeMeters>908.4000244140625</AltitudeMeters>
            <DistanceMeters>8711.9859737793</DistanceMeters>
          </Trackpoint>
          <Trackpoint>
            <Time>2021-06-20T06:48:36.000Z</Time>
            <Position>
              <LatitudeDegrees>38.83194596506655216217041015625</LatitudeDegrees>
              <LongitudeDegrees>-0.41136436164379119873046875</LongitudeDegrees>
            </Position>
            <AltitudeMeters>906.79998779296875</AltitudeMeters>
            <DistanceMeters>8734.0661419672</DistanceMeters>
          </Trackpoint>
          <Trackpoint>
            <Time>2021-06-20T06:48:46.000Z</Time>
            <Position>
              <LatitudeDegrees>38.83203171193599700927734375</LatitudeDegrees>
              <LongitudeDegrees>-0.41105599142611026763916015625</LongitudeDegrees>
            </Position>
            <AltitudeMeters>900.79998779296875</AltitudeMeters>
            <DistanceMeters>8762.4551243834</DistanceMeters>
          </Trackpoint>
          <Trackpoint>
            <Time>2021-06-20T06:48:48.000Z</Time>
            <Position>
              <LatitudeDegrees>38.8320563547313213348388671875</LatitudeDegrees>
              <LongitudeDegrees>-0.41099815629422664642333984375</LongitudeDegrees>
            </Position>
            <AltitudeMeters>900.5999755859375</AltitudeMeters>
            <DistanceMeters>8768.1709634796</DistanceMeters>
          </Trackpoint>
          <Trackpoint>
            <Time>2021-06-20T06:49:06.000Z</Time>
            <Position>
              <LatitudeDegrees>38.83218434639275074005126953125</LatitudeDegrees>
              <LongitudeDegrees>-0.4105340503156185150146484375</LongitudeDegrees>
            </Position>
            <AltitudeMeters>905.5999755859375</AltitudeMeters>
            <DistanceMeters>8810.8575305157</DistanceMeters>
          </Trackpoint>
          <Trackpoint>
            <Time>2021-06-20T06:49:10.000Z</Time>
            <Position>
              <LatitudeDegrees>38.832104466855525970458984375</LatitudeDegrees>
              <LongitudeDegrees>-0.4105571843683719635009765625</LongitudeDegrees>
            </Position>
            <AltitudeMeters>906.5999755859375</AltitudeMeters>
            <DistanceMeters>8819.9716773879</DistanceMeters>
          </Trackpoint>
          <Trackpoint>
            <Time>2021-06-20T06:49:14.000Z</Time>
            <Position>
              <LatitudeDegrees>38.83203414268791675567626953125</LatitudeDegrees>
              <LongitudeDegrees>-0.410595238208770751953125</LongitudeDegrees>
            </Position>
            <AltitudeMeters>907.79998779296875</AltitudeMeters>
            <DistanceMeters>8828.4658112924</DistanceMeters>
          </Trackpoint>
          <Trackpoint>
            <Time>2021-06-20T06:49:18.000Z</Time>
            <Position>
              <LatitudeDegrees>38.831994496285915374755859375</LatitudeDegrees>
              <LongitudeDegrees>-0.4105457849800586700439453125</LongitudeDegrees>
            </Position>
            <AltitudeMeters>909</AltitudeMeters>
            <DistanceMeters>8834.6183782732</DistanceMeters>
          </Trackpoint>
          <Trackpoint>
            <Time>2021-06-20T06:49:22.000Z</Time>
            <Position>
              <LatitudeDegrees>38.83199281990528106689453125</LatitudeDegrees>
              <LongitudeDegrees>-0.41053287684917449951171875</LongitudeDegrees>
            </Position>
            <AltitudeMeters>910</AltitudeMeters>
            <DistanceMeters>8835.7547325012</DistanceMeters>
          </Trackpoint>
          <Trackpoint>
            <Time>2021-06-20T06:49:26.000Z</Time>
            <Position>
              <LatitudeDegrees>38.83199189789593219757080078125</LatitudeDegrees>
              <LongitudeDegrees>-0.41052474640309810638427734375</LongitudeDegrees>
            </Position>
            <AltitudeMeters>911.4000244140625</AltitudeMeters>
            <DistanceMeters>8836.4658473167</DistanceMeters>
          </Trackpoint>
          <Trackpoint>
            <Time>2021-06-20T06:49:28.000Z</Time>
            <Position>
              <LatitudeDegrees>38.8319916464388370513916015625</LatitudeDegrees>
              <LongitudeDegrees>-0.4105176217854022979736328125</LongitudeDegrees>
            </Position>
            <AltitudeMeters>912.5999755859375</AltitudeMeters>
            <DistanceMeters>8837.081690812</DistanceMeters>
          </Trackpoint>
          <Trackpoint>
            <Time>2021-06-20T06:49:34.000Z</Time>
            <Position>
              <LatitudeDegrees>38.83199374191462993621826171875</LatitudeDegrees>
              <LongitudeDegrees>-0.41045819409191608428955078125</LongitudeDegrees>
            </Position>
            <AltitudeMeters>914.79998779296875</AltitudeMeters>
            <DistanceMeters>8842.2394621528</DistanceMeters>
          </Trackpoint>
          <Trackpoint>
            <Time>2021-06-20T06:49:38.000Z</Time>
            <Position>
              <LatitudeDegrees>38.83201100863516330718994140625</LatitudeDegrees>
              <LongitudeDegrees>-0.410327352583408355712890625</LongitudeDegrees>
            </Position>
            <AltitudeMeters>915.5999755859375</AltitudeMeters>
            <DistanceMeters>8853.7451529477</DistanceMeters>
          </Trackpoint>
          <Trackpoint>
            <Time>2021-06-20T06:49:44.000Z</Time>
            <Position>
              <LatitudeDegrees>38.83219088427722454071044921875</LatitudeDegrees>
              <LongitudeDegrees>-0.40997640229761600494384765625</LongitudeDegrees>
            </Position>
            <AltitudeMeters>916.79998779296875</AltitudeMeters>
            <DistanceMeters>8890.1689062012</DistanceMeters>
          </Trackpoint>
          <Trackpoint>
            <Time>2021-06-20T06:49:45.000Z</Time>
            <Position>
              <LatitudeDegrees>38.832211755216121673583984375</LatitudeDegrees>
              <LongitudeDegrees>-0.40993273258209228515625</LongitudeDegrees>
            </Position>
            <AltitudeMeters>917</AltitudeMeters>
            <DistanceMeters>8894.6098168008</DistanceMeters>
          </Trackpoint>
          <Trackpoint>
            <Time>2021-06-20T06:49:47.000Z</Time>
            <Position>
              <LatitudeDegrees>38.83227042853832244873046875</LatitudeDegrees>
              <LongitudeDegrees>-0.4099161364138126373291015625</LongitudeDegrees>
            </Position>
            <AltitudeMeters>917.4000244140625</AltitudeMeters>
            <DistanceMeters>8901.2968892956</DistanceMeters>
          </Trackpoint>
          <Trackpoint>
            <Time>2021-06-20T06:49:49.000Z</Time>
            <Position>
              <LatitudeDegrees>38.8324533216655254364013671875</LatitudeDegrees>
              <LongitudeDegrees>-0.40997774340212345123291015625</LongitudeDegrees>
            </Position>
            <AltitudeMeters>918.20001220703125</AltitudeMeters>
            <DistanceMeters>8922.3424641155</DistanceMeters>
          </Trackpoint>
          <Trackpoint>
            <Time>2021-06-20T06:49:52.000Z</Time>
            <Position>
              <LatitudeDegrees>38.83277208544313907623291015625</LatitudeDegrees>
              <LongitudeDegrees>-0.4102591238915920257568359375</LongitudeDegrees>
            </Position>
            <AltitudeMeters>919.20001220703125</AltitudeMeters>
            <DistanceMeters>8965.3998433261</DistanceMeters>
          </Trackpoint>
          <Trackpoint>
            <Time>2021-06-20T06:49:53.000Z</Time>
            <Position>
              <LatitudeDegrees>38.832718692719936370849609375</LatitudeDegrees>
              <LongitudeDegrees>-0.4102131910622119903564453125</LongitudeDegrees>
            </Position>
            <AltitudeMeters>919.4000244140625</AltitudeMeters>
            <DistanceMeters>8972.5540360328</DistanceMeters>
          </Trackpoint>
          <Trackpoint>
            <Time>2021-06-20T06:49:57.000Z</Time>
            <Position>
              <LatitudeDegrees>38.832682482898235321044921875</LatitudeDegrees>
              <LongitudeDegrees>-0.4101005382835865020751953125</LongitudeDegrees>
            </Position>
            <AltitudeMeters>920.5999755859375</AltitudeMeters>
            <DistanceMeters>8983.1203913719</DistanceMeters>
          </Trackpoint>
          <Trackpoint>
            <Time>2021-06-20T06:49:59.000Z</Time>
            <Position>
              <LatitudeDegrees>38.83266462944447994232177734375</LatitudeDegrees>
              <LongitudeDegrees>-0.41006022132933139801025390625</LongitudeDegrees>
            </Position>
            <AltitudeMeters>921.4000244140625</AltitudeMeters>
            <DistanceMeters>8987.1408188162</DistanceMeters>
          </Trackpoint>
          <Trackpoint>
            <Time>2021-06-20T06:50:01.000Z</Time>
            <Position>
              <LatitudeDegrees>38.83265809156000614166259765625</LatitudeDegrees>
              <LongitudeDegrees>-0.4099349118769168853759765625</LongitudeDegrees>
            </Position>
            <AltitudeMeters>922.4000244140625</AltitudeMeters>
            <DistanceMeters>8998.0299847064</DistanceMeters>
          </Trackpoint>
          <Trackpoint>
            <Time>2021-06-20T06:50:11.000Z</Time>
            <Position>
              <LatitudeDegrees>38.83242473937571048736572265625</LatitudeDegrees>
              <LongitudeDegrees>-0.409458987414836883544921875</LongitudeDegrees>
            </Position>
            <AltitudeMeters>924.5999755859375</AltitudeMeters>
            <DistanceMeters>9046.7873019501</DistanceMeters>
          </Trackpoint>
          <Trackpoint>
            <Time>2021-06-20T06:50:15.000Z</Time>
            <Position>
              <LatitudeDegrees>38.83240210823714733123779296875</LatitudeDegrees>
              <LongitudeDegrees>-0.4093654453754425048828125</LongitudeDegrees>
            </Position>
            <AltitudeMeters>925.79998779296875</AltitudeMeters>
            <DistanceMeters>9055.2798410615</DistanceMeters>
          </Trackpoint>
          <Trackpoint>
            <Time>2021-06-20T06:50:25.000Z</Time>
            <Position>
              <LatitudeDegrees>38.83236304856836795806884765625</LatitudeDegrees>
              <LongitudeDegrees>-0.40919587947428226470947265625</LongitudeDegrees>
            </Position>
            <AltitudeMeters>929</AltitudeMeters>
            <DistanceMeters>9070.6109812591</DistanceMeters>
          </Trackpoint>
          <Trackpoint>
            <Time>2021-06-20T06:50:29.000Z</Time>
            <Position>
              <LatitudeDegrees>38.8323503918945789337158203125</LatitudeDegrees>
              <LongitudeDegrees>-0.40914055891335010528564453125</LongitudeDegrees>
            </Position>
            <AltitudeMeters>930.5999755859375</AltitudeMeters>
            <DistanceMeters>9075.6096032212</DistanceMeters>
          </Trackpoint>
          <Trackpoint>
            <Time>2021-06-20T06:50:33.000Z</Time>
            <Position>
              <LatitudeDegrees>38.8323386572301387786865234375</LatitudeDegrees>
              <LongitudeDegrees>-0.4090893454849720001220703125</LongitudeDegrees>
            </Position>
            <AltitudeMeters>931.5999755859375</AltitudeMeters>
            <DistanceMeters>9080.2377066476</DistanceMeters>
          </Trackpoint>
          <Trackpoint>
            <Time>2021-06-20T06:50:47.000Z</Time>
            <Position>
              <LatitudeDegrees>38.83230152539908885955810546875</LatitudeDegrees>
              <LongitudeDegrees>-0.4089270718395709991455078125</LongitudeDegrees>
            </Position>
            <AltitudeMeters>936.20001220703125</AltitudeMeters>
            <DistanceMeters>9094.9014094639</DistanceMeters>
          </Trackpoint>
          <Trackpoint>
            <Time>2021-06-20T06:50:51.000Z</Time>
            <Position>
              <LatitudeDegrees>38.83229146711528301239013671875</LatitudeDegrees>
              <LongitudeDegrees>-0.4088828153908252716064453125</LongitudeDegrees>
            </Position>
            <AltitudeMeters>937.5999755859375</AltitudeMeters>
            <DistanceMeters>9098.8993133279</DistanceMeters>
          </Trackpoint>
          <Trackpoint>
            <Time>2021-06-20T06:50:55.000Z</Time>
            <Position>
              <LatitudeDegrees>38.8322813250124454498291015625</LatitudeDegrees>
              <LongitudeDegrees>-0.40883864276111125946044921875</LongitudeDegrees>
            </Position>
            <AltitudeMeters>939</AltitudeMeters>
            <DistanceMeters>9102.8926972313</DistanceMeters>
          </Trackpoint>
          <Trackpoint>
            <Time>2021-06-20T06:50:59.000Z</Time>
            <Position>
              <LatitudeDegrees>38.83227118290960788726806640625</LatitudeDegrees>
              <LongitudeDegrees>-0.40879421867430210113525390625</LongitudeDegrees>
            </Position>
            <AltitudeMeters>940.20001220703125</AltitudeMeters>
            <DistanceMeters>9106.9075056268</DistanceMeters>
          </Trackpoint>
          <Trackpoint>
            <Time>2021-06-20T06:51:07.000Z</Time>
            <Position>
              <LatitudeDegrees>38.83225006051361560821533203125</LatitudeDegrees>
              <LongitudeDegrees>-0.40870134718716144561767578125</LongitudeDegrees>
            </Position>
            <AltitudeMeters>942.5999755859375</AltitudeMeters>
            <DistanceMeters>9115.2957328323</DistanceMeters>
          </Trackpoint>
          <Trackpoint>
            <Time>2021-06-20T06:51:15.000Z</Time>
            <Position>
              <LatitudeDegrees>38.83222751319408416748046875</LatitudeDegrees>
              <LongitudeDegrees>-0.40859808214008808135986328125</LongitudeDegrees>
            </Position>
            <AltitudeMeters>945</AltitudeMeters>
            <DistanceMeters>9124.593794559</DistanceMeters>
          </Trackpoint>
          <Trackpoint>
            <Time>2021-06-20T06:51:19.000Z</Time>
            <Position>
              <LatitudeDegrees>38.83221586234867572784423828125</LatitudeDegrees>
              <LongitudeDegrees>-0.4085374809801578521728515625</LongitudeDegrees>
            </Position>
            <AltitudeMeters>946</AltitudeMeters>
            <DistanceMeters>9130.006147835</DistanceMeters>
          </Trackpoint>
          <Trackpoint>
            <Time>2021-06-20T06:51:35.000Z</Time>
            <Position>
              <LatitudeDegrees>38.83219725452363491058349609375</LatitudeDegrees>
              <LongitudeDegrees>-0.40808544494211673736572265625</LongitudeDegrees>
            </Position>
            <AltitudeMeters>950.5999755859375</AltitudeMeters>
            <DistanceMeters>9169.253561379</DistanceMeters>
          </Trackpoint>
          <Trackpoint>
            <Time>2021-06-20T06:51:39.000Z</Time>
            <Position>
              <LatitudeDegrees>38.83218199945986270904541015625</LatitudeDegrees>
              <LongitudeDegrees>-0.40790372528135776519775390625</LongitudeDegrees>
            </Position>
            <AltitudeMeters>952</AltitudeMeters>
            <DistanceMeters>9185.1005303607</DistanceMeters>
          </Trackpoint>
          <Trackpoint>
            <Time>2021-06-20T06:51:44.000Z</Time>
            <Position>
              <LatitudeDegrees>38.83211846463382244110107421875</LatitudeDegrees>
              <LongitudeDegrees>-0.4077066667377948760986328125</LongitudeDegrees>
            </Position>
            <AltitudeMeters>954.20001220703125</AltitudeMeters>
            <DistanceMeters>9203.5914690733</DistanceMeters>
          </Trackpoint>
          <Trackpoint>
            <Time>2021-06-20T06:51:45.000Z</Time>
            <Position>
              <LatitudeDegrees>38.83215132169425487518310546875</LatitudeDegrees>
              <LongitudeDegrees>-0.40781177580356597900390625</LongitudeDegrees>
            </Position>
            <AltitudeMeters>954.4000244140625</AltitudeMeters>
            <DistanceMeters>9213.4109984036</DistanceMeters>
          </Trackpoint>
          <Trackpoint>
            <Time>2021-06-20T06:51:47.000Z</Time>
            <Position>
              <LatitudeDegrees>38.83221552707254886627197265625</LatitudeDegrees>
              <LongitudeDegrees>-0.407969020307064056396484375</LongitudeDegrees>
            </Position>
            <AltitudeMeters>955.20001220703125</AltitudeMeters>
            <DistanceMeters>9228.8038596</DistanceMeters>
          </Trackpoint>
          <Trackpoint>
            <Time>2021-06-20T06:51:49.000Z</Time>
            <Position>
              <LatitudeDegrees>38.832257352769374847412109375</LatitudeDegrees>
              <LongitudeDegrees>-0.40809432975947856903076171875</LongitudeDegrees>
            </Position>
            <AltitudeMeters>956</AltitudeMeters>
            <DistanceMeters>9240.623899479</DistanceMeters>
          </Trackpoint>
          <Trackpoint>
            <Time>2021-06-20T06:51:51.000Z</Time>
            <Position>
              <LatitudeDegrees>38.8327004201710224151611328125</LatitudeDegrees>
              <LongitudeDegrees>-0.40849112905561923980712890625</LongitudeDegrees>
            </Position>
            <AltitudeMeters>956.79998779296875</AltitudeMeters>
            <DistanceMeters>9300.7528367463</DistanceMeters>
          </Trackpoint>
          <Trackpoint>
            <Time>2021-06-20T06:51:53.000Z</Time>
            <Position>
              <LatitudeDegrees>38.8324762880802154541015625</LatitudeDegrees>
              <LongitudeDegrees>-0.40848325006663799285888671875</LongitudeDegrees>
            </Position>
            <AltitudeMeters>957.79998779296875</AltitudeMeters>
            <DistanceMeters>9325.7085237171</DistanceMeters>
          </Trackpoint>
          <Trackpoint>
            <Time>2021-06-20T06:51:54.000Z</Time>
            <Position>
              <LatitudeDegrees>38.8324368931353092193603515625</LatitudeDegrees>
              <LongitudeDegrees>-0.40846849791705608367919921875</LongitudeDegrees>
            </Position>
            <AltitudeMeters>958</AltitudeMeters>
            <DistanceMeters>9330.2747526327</DistanceMeters>
          </Trackpoint>
          <Trackpoint>
            <Time>2021-06-20T06:51:55.000Z</Time>
            <Position>
              <LatitudeDegrees>38.83242205716669559478759765625</LatitudeDegrees>
              <LongitudeDegrees>-0.40845257230103015899658203125</LongitudeDegrees>
            </Position>
            <AltitudeMeters>958</AltitudeMeters>
            <DistanceMeters>9332.4249617247</DistanceMeters>
          </Trackpoint>
          <Trackpoint>
            <Time>2021-06-20T06:51:58.000Z</Time>
            <Position>
              <LatitudeDegrees>38.83240411989390850067138671875</LatitudeDegrees>
              <LongitudeDegrees>-0.40845894254744052886962890625</LongitudeDegrees>
            </Position>
            <AltitudeMeters>958.79998779296875</AltitudeMeters>
            <DistanceMeters>9334.4981998652</DistanceMeters>
          </Trackpoint>
          <Trackpoint>
            <Time>2021-06-20T06:51:59.000Z</Time>
            <Position>
              <LatitudeDegrees>38.83235818706452846527099609375</LatitudeDegrees>
              <LongitudeDegrees>-0.40844653733074665069580078125</LongitudeDegrees>
            </Position>
            <AltitudeMeters>959</AltitudeMeters>
            <DistanceMeters>9339.722076875</DistanceMeters>
          </Trackpoint>
          <Trackpoint>
            <Time>2021-06-20T06:52:02.000Z</Time>
            <Position>
              <LatitudeDegrees>38.8322776369750499725341796875</LatitudeDegrees>
              <LongitudeDegrees>-0.4083651490509510040283203125</LongitudeDegrees>
            </Position>
            <AltitudeMeters>960</AltitudeMeters>
            <DistanceMeters>9351.1316159549</DistanceMeters>
          </Trackpoint>
          <Trackpoint>
            <Time>2021-06-20T06:52:06.000Z</Time>
            <Position>
              <LatitudeDegrees>38.83214562200009822845458984375</LatitudeDegrees>
              <LongitudeDegrees>-0.408197343349456787109375</LongitudeDegrees>
            </Position>
            <AltitudeMeters>961.20001220703125</AltitudeMeters>
            <DistanceMeters>9371.8096997563</DistanceMeters>
          </Trackpoint>
          <Trackpoint>
            <Time>2021-06-20T06:52:10.000Z</Time>
            <Position>
              <LatitudeDegrees>38.83210639469325542449951171875</LatitudeDegrees>
              <LongitudeDegrees>-0.408085025846958160400390625</LongitudeDegrees>
            </Position>
            <AltitudeMeters>962.4000244140625</AltitudeMeters>
            <DistanceMeters>9382.4823463008</DistanceMeters>
          </Trackpoint>
          <Trackpoint>
            <Time>2021-06-20T06:52:14.000Z</Time>
            <Position>
              <LatitudeDegrees>38.83208879269659519195556640625</LatitudeDegrees>
              <LongitudeDegrees>-0.4080094210803508758544921875</LongitudeDegrees>
            </Position>
            <AltitudeMeters>963.5999755859375</AltitudeMeters>
            <DistanceMeters>9389.3242697355</DistanceMeters>
          </Trackpoint>
          <Trackpoint>
            <Time>2021-06-20T06:52:18.000Z</Time>
            <Position>
              <LatitudeDegrees>38.8320766389369964599609375</LatitudeDegrees>
              <LongitudeDegrees>-0.40795116685330867767333984375</LongitudeDegrees>
            </Position>
            <AltitudeMeters>965</AltitudeMeters>
            <DistanceMeters>9394.5524664988</DistanceMeters>
          </Trackpoint>
          <Trackpoint>
            <Time>2021-06-20T06:52:34.000Z</Time>
            <Position>
              <LatitudeDegrees>38.8320426084101200103759765625</LatitudeDegrees>
              <LongitudeDegrees>-0.4077844507992267608642578125</LongitudeDegrees>
            </Position>
            <AltitudeMeters>969.5999755859375</AltitudeMeters>
            <DistanceMeters>9409.4949452139</DistanceMeters>
          </Trackpoint>
          <Trackpoint>
            <Time>2021-06-20T06:52:38.000Z</Time>
            <Position>
              <LatitudeDegrees>38.8320355676114559173583984375</LatitudeDegrees>
              <LongitudeDegrees>-0.40775016881525516510009765625</LongitudeDegrees>
            </Position>
            <AltitudeMeters>970.5999755859375</AltitudeMeters>
            <DistanceMeters>9412.5682919175</DistanceMeters>
          </Trackpoint>
          <Trackpoint>
            <Time>2021-06-20T06:52:42.000Z</Time>
            <Position>
              <LatitudeDegrees>38.8320288620889186859130859375</LatitudeDegrees>
              <LongitudeDegrees>-0.4077170602977275848388671875</LongitudeDegrees>
            </Position>
            <AltitudeMeters>971.79998779296875</AltitudeMeters>
            <DistanceMeters>9415.5355001227</DistanceMeters>
          </Trackpoint>
          <Trackpoint>
            <Time>2021-06-20T06:52:44.000Z</Time>
            <Position>
              <LatitudeDegrees>38.83202559314668178558349609375</LatitudeDegrees>
              <LongitudeDegrees>-0.40770088322460651397705078125</LongitudeDegrees>
            </Position>
            <AltitudeMeters>972.79998779296875</AltitudeMeters>
            <DistanceMeters>9416.9860199645</DistanceMeters>
          </Trackpoint>
          <Trackpoint>
            <Time>2021-06-20T06:52:54.000Z</Time>
            <Position>
              <LatitudeDegrees>38.83200949989259243011474609375</LatitudeDegrees>
              <LongitudeDegrees>-0.40761739946901798248291015625</LongitudeDegrees>
            </Position>
            <AltitudeMeters>976.20001220703125</AltitudeMeters>
            <DistanceMeters>9424.4424387205</DistanceMeters>
          </Trackpoint>
          <Trackpoint>
            <Time>2021-06-20T06:53:32.000Z</Time>
            <Position>
              <LatitudeDegrees>38.8319276086986064910888671875</LatitudeDegrees>
              <LongitudeDegrees>-0.40705807507038116455078125</LongitudeDegrees>
            </Position>
            <AltitudeMeters>988.5999755859375</AltitudeMeters>
            <DistanceMeters>9473.7866557293</DistanceMeters>
          </Trackpoint>
          <Trackpoint>
            <Time>2021-06-20T06:53:38.000Z</Time>
            <Position>
              <LatitudeDegrees>38.83189885877072811126708984375</LatitudeDegrees>
              <LongitudeDegrees>-0.4068731702864170074462890625</LongitudeDegrees>
            </Position>
            <AltitudeMeters>991.4000244140625</AltitudeMeters>
            <DistanceMeters>9490.1345651502</DistanceMeters>
          </Trackpoint>
          <Trackpoint>
            <Time>2021-06-20T06:53:44.000Z</Time>
            <Position>
              <LatitudeDegrees>38.831985779106616973876953125</LatitudeDegrees>
              <LongitudeDegrees>-0.4065321944653987884521484375</LongitudeDegrees>
            </Position>
            <AltitudeMeters>993.20001220703125</AltitudeMeters>
            <DistanceMeters>9521.2406859486</DistanceMeters>
          </Trackpoint>
          <Trackpoint>
            <Time>2021-06-20T06:53:46.000Z</Time>
            <Position>
              <LatitudeDegrees>38.83189584128558635711669921875</LatitudeDegrees>
              <LongitudeDegrees>-0.40648198686540126800537109375</LongitudeDegrees>
            </Position>
            <AltitudeMeters>993.79998779296875</AltitudeMeters>
            <DistanceMeters>9532.1563562752</DistanceMeters>
          </Trackpoint>
          <Trackpoint>
            <Time>2021-06-20T06:53:48.000Z</Time>
            <Position>
              <LatitudeDegrees>38.831971026957035064697265625</LatitudeDegrees>
              <LongitudeDegrees>-0.40669270791113376617431640625</LongitudeDegrees>
            </Position>
            <AltitudeMeters>994.4000244140625</AltitudeMeters>
            <DistanceMeters>9552.2517542203</DistanceMeters>
          </Trackpoint>
          <Trackpoint>
            <Time>2021-06-20T06:53:49.000Z</Time>
            <Position>
              <LatitudeDegrees>38.83216448128223419189453125</LatitudeDegrees>
              <LongitudeDegrees>-0.4068191908299922943115234375</LongitudeDegrees>
            </Position>
            <AltitudeMeters>994.79998779296875</AltitudeMeters>
            <DistanceMeters>9576.4154613628</DistanceMeters>
          </Trackpoint>
          <Trackpoint>
            <Time>2021-06-20T06:53:50.000Z</Time>
            <Position>
              <LatitudeDegrees>38.83220111019909381866455078125</LatitudeDegrees>
              <LongitudeDegrees>-0.4068302549421787261962890625</LongitudeDegrees>
            </Position>
            <AltitudeMeters>995</AltitudeMeters>
            <DistanceMeters>9580.603110877</DistanceMeters>
          </Trackpoint>
          <Trackpoint>
            <Time>2021-06-20T06:53:52.000Z</Time>
            <Position>
              <LatitudeDegrees>38.83257058449089527130126953125</LatitudeDegrees>
              <LongitudeDegrees>-0.407263599336147308349609375</LongitudeDegrees>
            </Position>
            <AltitudeMeters>995.5999755859375</AltitudeMeters>
            <DistanceMeters>9636.3057088106</DistanceMeters>
          </Trackpoint>
          <Trackpoint>
            <Time>2021-06-20T06:53:53.000Z</Time>
            <Position>
              <LatitudeDegrees>38.83222994394600391387939453125</LatitudeDegrees>
              <LongitudeDegrees>-0.4066733457148075103759765625</LongitudeDegrees>
            </Position>
            <AltitudeMeters>995.5999755859375</AltitudeMeters>
            <DistanceMeters>9699.9962963427</DistanceMeters>
          </Trackpoint>
          <Trackpoint>
            <Time>2021-06-20T06:53:54.000Z</Time>
            <Position>
              <LatitudeDegrees>38.8322471268475055694580078125</LatitudeDegrees>
              <LongitudeDegrees>-0.406671501696109771728515625</LongitudeDegrees>
            </Position>
            <AltitudeMeters>996.79998779296875</AltitudeMeters>
            <DistanceMeters>9701.9180927069</DistanceMeters>
          </Trackpoint>
          <Trackpoint>
            <Time>2021-06-20T06:53:56.000Z</Time>
            <Position>
              <LatitudeDegrees>38.83217881433665752410888671875</LatitudeDegrees>
              <LongitudeDegrees>-0.40696226991713047027587890625</LongitudeDegrees>
            </Position>
            <AltitudeMeters>997.79998779296875</AltitudeMeters>
            <DistanceMeters>9728.2500964239</DistanceMeters>
          </Trackpoint>
          <Trackpoint>
            <Time>2021-06-20T06:53:57.000Z</Time>
            <Position>
              <LatitudeDegrees>38.83226531557738780975341796875</LatitudeDegrees>
              <LongitudeDegrees>-0.40707978419959545135498046875</LongitudeDegrees>
            </Position>
            <AltitudeMeters>998.20001220703125</AltitudeMeters>
            <DistanceMeters>9742.2677447081</DistanceMeters>
          </Trackpoint>
          <Trackpoint>
            <Time>2021-06-20T06:53:58.000Z</Time>
            <Position>
              <LatitudeDegrees>38.8322648964822292327880859375</LatitudeDegrees>
              <LongitudeDegrees>-0.40708833374083042144775390625</LongitudeDegrees>
            </Position>
            <AltitudeMeters>998.79998779296875</AltitudeMeters>
            <DistanceMeters>9743.0099270732</DistanceMeters>
          </Trackpoint>
          <Trackpoint>
            <Time>2021-06-20T06:54:00.000Z</Time>
            <Position>
              <LatitudeDegrees>38.83228459395468235015869140625</LatitudeDegrees>
              <LongitudeDegrees>-0.40707877837121486663818359375</LongitudeDegrees>
            </Position>
            <AltitudeMeters>1000.20001220703125</AltitudeMeters>
            <DistanceMeters>9745.3549892375</DistanceMeters>
          </Trackpoint>
          <Trackpoint>
            <Time>2021-06-20T06:54:02.000Z</Time>
            <Position>
              <LatitudeDegrees>38.83228241465985774993896484375</LatitudeDegrees>
              <LongitudeDegrees>-0.40710610337555408477783203125</LongitudeDegrees>
            </Position>
            <AltitudeMeters>1001.4000244140625</AltitudeMeters>
            <DistanceMeters>9747.7363518741</DistanceMeters>
          </Trackpoint>
          <Trackpoint>
            <Time>2021-06-20T06:54:07.000Z</Time>
            <Position>
              <LatitudeDegrees>38.8324191235005855560302734375</LatitudeDegrees>
              <LongitudeDegrees>-0.40700099430978298187255859375</LongitudeDegrees>
            </Position>
            <AltitudeMeters>1002.4000244140625</AltitudeMeters>
            <DistanceMeters>9765.4725223458</DistanceMeters>
          </Trackpoint>
          <Trackpoint>
            <Time>2021-06-20T06:54:13.000Z</Time>
            <Position>
              <LatitudeDegrees>38.83259858004748821258544921875</LatitudeDegrees>
              <LongitudeDegrees>-0.40713577531278133392333984375</LongitudeDegrees>
            </Position>
            <AltitudeMeters>1003.79998779296875</AltitudeMeters>
            <DistanceMeters>9788.6136248121</DistanceMeters>
          </Trackpoint>
          <Trackpoint>
            <Time>2021-06-20T06:54:35.000Z</Time>
            <Position>
              <LatitudeDegrees>38.8330876640975475311279296875</LatitudeDegrees>
              <LongitudeDegrees>-0.40715907700359821319580078125</LongitudeDegrees>
            </Position>
            <AltitudeMeters>1006.5999755859375</AltitudeMeters>
            <DistanceMeters>9843.0871448947</DistanceMeters>
          </Trackpoint>
          <Trackpoint>
            <Time>2021-06-20T06:54:47.000Z</Time>
            <Position>
              <LatitudeDegrees>38.8332774303853511810302734375</LatitudeDegrees>
              <LongitudeDegrees>-0.4072067700326442718505859375</LongitudeDegrees>
            </Position>
            <AltitudeMeters>1008</AltitudeMeters>
            <DistanceMeters>9864.6095943684</DistanceMeters>
          </Trackpoint>
          <Trackpoint>
            <Time>2021-06-20T06:54:57.000Z</Time>
            <Position>
              <LatitudeDegrees>38.83337013423442840576171875</LatitudeDegrees>
              <LongitudeDegrees>-0.4072966240346431732177734375</LongitudeDegrees>
            </Position>
            <AltitudeMeters>1009.5999755859375</AltitudeMeters>
            <DistanceMeters>9877.5388161211</DistanceMeters>
          </Trackpoint>
          <Trackpoint>
            <Time>2021-06-20T06:55:23.000Z</Time>
            <Position>
              <LatitudeDegrees>38.83319838903844356536865234375</LatitudeDegrees>
              <LongitudeDegrees>-0.40698607452213764190673828125</LongitudeDegrees>
            </Position>
            <AltitudeMeters>1009</AltitudeMeters>
            <DistanceMeters>9910.5596080639</DistanceMeters>
          </Trackpoint>
          <Trackpoint>
            <Time>2021-06-20T06:55:29.000Z</Time>
            <Position>
              <LatitudeDegrees>38.83315178565680980682373046875</LatitudeDegrees>
              <LongitudeDegrees>-0.4069787822663784027099609375</LongitudeDegrees>
            </Position>
            <AltitudeMeters>1008</AltitudeMeters>
            <DistanceMeters>9915.7843493101</DistanceMeters>
          </Trackpoint>
          <Trackpoint>
            <Time>2021-06-20T06:55:31.000Z</Time>
            <Position>
              <LatitudeDegrees>38.83313183672726154327392578125</LatitudeDegrees>
              <LongitudeDegrees>-0.40698540396988391876220703125</LongitudeDegrees>
            </Position>
            <AltitudeMeters>1006.79998779296875</AltitudeMeters>
            <DistanceMeters>9918.0768380212</DistanceMeters>
          </Trackpoint>
          <Trackpoint>
            <Time>2021-06-20T06:55:37.000Z</Time>
            <Position>
              <LatitudeDegrees>38.833101578056812286376953125</LatitudeDegrees>
              <LongitudeDegrees>-0.407022871077060699462890625</LongitudeDegrees>
            </Position>
            <AltitudeMeters>1006</AltitudeMeters>
            <DistanceMeters>9922.7563610072</DistanceMeters>
          </Trackpoint>
          <Trackpoint>
            <Time>2021-06-20T06:55:43.000Z</Time>
            <Position>
              <LatitudeDegrees>38.83319939486682415008544921875</LatitudeDegrees>
              <LongitudeDegrees>-0.4073311574757099151611328125</LongitudeDegrees>
            </Position>
            <AltitudeMeters>1005.5999755859375</AltitudeMeters>
            <DistanceMeters>9951.6174306586</DistanceMeters>
          </Trackpoint>
          <Trackpoint>
            <Time>2021-06-20T06:55:46.000Z</Time>
            <Position>
              <LatitudeDegrees>38.8326350413262844085693359375</LatitudeDegrees>
              <LongitudeDegrees>-0.40730961598455905914306640625</LongitudeDegrees>
            </Position>
            <AltitudeMeters>1005</AltitudeMeters>
            <DistanceMeters>10014.458906538</DistanceMeters>
          </Trackpoint>
          <Trackpoint>
            <Time>2021-06-20T06:55:48.000Z</Time>
            <Position>
              <LatitudeDegrees>38.83236254565417766571044921875</LatitudeDegrees>
              <LongitudeDegrees>-0.407037623226642608642578125</LongitudeDegrees>
            </Position>
            <AltitudeMeters>1003.5999755859375</AltitudeMeters>
            <DistanceMeters>10052.877679489</DistanceMeters>
          </Trackpoint>
          <Trackpoint>
            <Time>2021-06-20T06:55:49.000Z</Time>
            <Position>
              <LatitudeDegrees>38.83223480544984340667724609375</LatitudeDegrees>
              <LongitudeDegrees>-0.40696746669709682464599609375</LongitudeDegrees>
            </Position>
            <AltitudeMeters>1003</AltitudeMeters>
            <DistanceMeters>10068.341653247</DistanceMeters>
          </Trackpoint>
          <Trackpoint>
            <Time>2021-06-20T06:55:50.000Z</Time>
            <Position>
              <LatitudeDegrees>38.83220714516937732696533203125</LatitudeDegrees>
              <LongitudeDegrees>-0.4068869166076183319091796875</LongitudeDegrees>
            </Position>
            <AltitudeMeters>1002</AltitudeMeters>
            <DistanceMeters>10075.97342847</DistanceMeters>
          </Trackpoint>
          <Trackpoint>
            <Time>2021-06-20T06:55:51.000Z</Time>
            <Position>
              <LatitudeDegrees>38.83329092524945735931396484375</LatitudeDegrees>
              <LongitudeDegrees>-0.4075182415544986724853515625</LongitudeDegrees>
            </Position>
            <AltitudeMeters>1001</AltitudeMeters>
            <DistanceMeters>10208.438486899</DistanceMeters>
          </Trackpoint>
          <Trackpoint>
            <Time>2021-06-20T06:55:52.000Z</Time>
            <Position>
              <LatitudeDegrees>38.83272296749055385589599609375</LatitudeDegrees>
              <LongitudeDegrees>-0.40736292488873004913330078125</LongitudeDegrees>
            </Position>
            <AltitudeMeters>1000</AltitudeMeters>
            <DistanceMeters>10273.071743387</DistanceMeters>
          </Trackpoint>
          <Trackpoint>
            <Time>2021-06-20T06:55:53.000Z</Time>
            <Position>
              <LatitudeDegrees>38.8327523879706859588623046875</LatitudeDegrees>
              <LongitudeDegrees>-0.40732562541961669921875</LongitudeDegrees>
            </Position>
            <AltitudeMeters>998.5999755859375</AltitudeMeters>
            <DistanceMeters>10277.67343104</DistanceMeters>
          </Trackpoint>
          <Trackpoint>
            <Time>2021-06-20T06:55:55.000Z</Time>
            <Position>
              <LatitudeDegrees>38.83278013207018375396728515625</LatitudeDegrees>
              <LongitudeDegrees>-0.407395027577877044677734375</LongitudeDegrees>
            </Position>
            <AltitudeMeters>997</AltitudeMeters>
            <DistanceMeters>10284.437037125</DistanceMeters>
          </Trackpoint>
          <Trackpoint>
            <Time>2021-06-20T06:55:56.000Z</Time>
            <Position>
              <LatitudeDegrees>38.83280376903712749481201171875</LatitudeDegrees>
              <LongitudeDegrees>-0.407476164400577545166015625</LongitudeDegrees>
            </Position>
            <AltitudeMeters>996.5999755859375</AltitudeMeters>
            <DistanceMeters>10291.948356424</DistanceMeters>
          </Trackpoint>
          <Trackpoint>
            <Time>2021-06-20T06:55:57.000Z</Time>
            <Position>
              <LatitudeDegrees>38.8328479416668415069580078125</LatitudeDegrees>
              <LongitudeDegrees>-0.40753173641860485076904296875</LongitudeDegrees>
            </Position>
            <AltitudeMeters>996.4000244140625</AltitudeMeters>
            <DistanceMeters>10298.8323844</DistanceMeters>
          </Trackpoint>
          <Trackpoint>
            <Time>2021-06-20T06:55:59.000Z</Time>
            <Position>
              <LatitudeDegrees>38.83290317840874195098876953125</LatitudeDegrees>
              <LongitudeDegrees>-0.40766081772744655609130859375</LongitudeDegrees>
            </Position>
            <AltitudeMeters>995.79998779296875</AltitudeMeters>
            <DistanceMeters>10311.601372625</DistanceMeters>
          </Trackpoint>
          <Trackpoint>
            <Time>2021-06-20T06:56:00.000Z</Time>
            <Position>
              <LatitudeDegrees>38.83285607211291790008544921875</LatitudeDegrees>
              <LongitudeDegrees>-0.40764321573078632354736328125</LongitudeDegrees>
            </Position>
            <AltitudeMeters>994.79998779296875</AltitudeMeters>
            <DistanceMeters>10317.061895715</DistanceMeters>
          </Trackpoint>
          <Trackpoint>
            <Time>2021-06-20T06:56:01.000Z</Time>
            <Position>
              <LatitudeDegrees>38.83284098468720912933349609375</LatitudeDegrees>
              <LongitudeDegrees>-0.4076635837554931640625</LongitudeDegrees>
            </Position>
            <AltitudeMeters>993.5999755859375</AltitudeMeters>
            <DistanceMeters>10319.499474493</DistanceMeters>
          </Trackpoint>
          <Trackpoint>
            <Time>2021-06-20T06:56:02.000Z</Time>
            <Position>
              <LatitudeDegrees>38.83276856504380702972412109375</LatitudeDegrees>
              <LongitudeDegrees>-0.40762268006801605224609375</LongitudeDegrees>
            </Position>
            <AltitudeMeters>992.20001220703125</AltitudeMeters>
            <DistanceMeters>10328.30573911</DistanceMeters>
          </Trackpoint>
          <Trackpoint>
            <Time>2021-06-20T06:56:03.000Z</Time>
            <Position>
              <LatitudeDegrees>38.83282656781375408172607421875</LatitudeDegrees>
              <LongitudeDegrees>-0.40768059901893138885498046875</LongitudeDegrees>
            </Position>
            <AltitudeMeters>991</AltitudeMeters>
            <DistanceMeters>10336.484663629</DistanceMeters>
          </Trackpoint>
          <Trackpoint>
            <Time>2021-06-20T06:56:12.000Z</Time>
            <Position>
              <LatitudeDegrees>38.83218887262046337127685546875</LatitudeDegrees>
              <LongitudeDegrees>-0.40789316408336162567138671875</LongitudeDegrees>
            </Position>
            <AltitudeMeters>984</AltitudeMeters>
            <DistanceMeters>10409.815185052</DistanceMeters>
          </Trackpoint>
          <Trackpoint>
            <Time>2021-06-20T06:56:14.000Z</Time>
            <Position>
              <LatitudeDegrees>38.83218325674533843994140625</LatitudeDegrees>
              <LongitudeDegrees>-0.4078954271972179412841796875</LongitudeDegrees>
            </Position>
            <AltitudeMeters>982.4000244140625</AltitudeMeters>
            <DistanceMeters>10410.473549441</DistanceMeters>
          </Trackpoint>
          <Trackpoint>
            <Time>2021-06-20T06:56:20.000Z</Time>
            <Position>
              <LatitudeDegrees>38.83218870498239994049072265625</LatitudeDegrees>
              <LongitudeDegrees>-0.40791034698486328125</LongitudeDegrees>
            </Position>
            <AltitudeMeters>978.4000244140625</AltitudeMeters>
            <DistanceMeters>10411.902114202</DistanceMeters>
          </Trackpoint>
          <Trackpoint>
            <Time>2021-06-20T06:56:22.000Z</Time>
            <Position>
              <LatitudeDegrees>38.832218460738658905029296875</LatitudeDegrees>
              <LongitudeDegrees>-0.4079705290496349334716796875</LongitudeDegrees>
            </Position>
            <AltitudeMeters>977</AltitudeMeters>
            <DistanceMeters>10418.082504429</DistanceMeters>
          </Trackpoint>
          <Trackpoint>
            <Time>2021-06-20T06:56:24.000Z</Time>
            <Position>
              <LatitudeDegrees>38.832268081605434417724609375</LatitudeDegrees>
              <LongitudeDegrees>-0.40800346992909908294677734375</LongitudeDegrees>
            </Position>
            <AltitudeMeters>975.5999755859375</AltitudeMeters>
            <DistanceMeters>10424.300766834</DistanceMeters>
          </Trackpoint>
          <Trackpoint>
            <Time>2021-06-20T06:56:26.000Z</Time>
            <Position>
              <LatitudeDegrees>38.83230856619775295257568359375</LatitudeDegrees>
              <LongitudeDegrees>-0.40805124677717685699462890625</LongitudeDegrees>
            </Position>
            <AltitudeMeters>974</AltitudeMeters>
            <DistanceMeters>10430.421697087</DistanceMeters>
          </Trackpoint>
          <Trackpoint>
            <Time>2021-06-20T06:56:28.000Z</Time>
            <Position>
              <LatitudeDegrees>38.83234594948589801788330078125</LatitudeDegrees>
              <LongitudeDegrees>-0.40809935890138149261474609375</LongitudeDegrees>
            </Position>
            <AltitudeMeters>970.5999755859375</AltitudeMeters>
            <DistanceMeters>10436.313353378</DistanceMeters>
          </Trackpoint>
          <Trackpoint>
            <Time>2021-06-20T06:56:30.000Z</Time>
            <Position>
              <LatitudeDegrees>38.83238467387855052947998046875</LatitudeDegrees>
              <LongitudeDegrees>-0.408139340579509735107421875</LongitudeDegrees>
            </Position>
            <AltitudeMeters>968.4000244140625</AltitudeMeters>
            <DistanceMeters>10441.844528569</DistanceMeters>
          </Trackpoint>
          <Trackpoint>
            <Time>2021-06-20T06:56:32.000Z</Time>
            <Position>
              <LatitudeDegrees>38.832415603101253509521484375</LatitudeDegrees>
              <LongitudeDegrees>-0.40818351320922374725341796875</LongitudeDegrees>
            </Position>
            <AltitudeMeters>967</AltitudeMeters>
            <DistanceMeters>10446.994415414</DistanceMeters>
          </Trackpoint>
          <Trackpoint>
            <Time>2021-06-20T06:56:34.000Z</Time>
            <Position>
              <LatitudeDegrees>38.832394145429134368896484375</LatitudeDegrees>
              <LongitudeDegrees>-0.4082330502569675445556640625</LongitudeDegrees>
            </Position>
            <AltitudeMeters>966</AltitudeMeters>
            <DistanceMeters>10451.908316554</DistanceMeters>
          </Trackpoint>
          <Trackpoint>
            <Time>2021-06-20T06:56:38.000Z</Time>
            <Position>
              <LatitudeDegrees>38.83238920010626316070556640625</LatitudeDegrees>
              <LongitudeDegrees>-0.40825190953910350799560546875</LongitudeDegrees>
            </Position>
            <AltitudeMeters>964.79998779296875</AltitudeMeters>
            <DistanceMeters>10453.631945037</DistanceMeters>
          </Trackpoint>
          <Trackpoint>
            <Time>2021-06-20T06:56:44.000Z</Time>
            <Position>
              <LatitudeDegrees>38.8324172794818878173828125</LatitudeDegrees>
              <LongitudeDegrees>-0.40837931446731090545654296875</LongitudeDegrees>
            </Position>
            <AltitudeMeters>961.4000244140625</AltitudeMeters>
            <DistanceMeters>10465.112493621</DistanceMeters>
          </Trackpoint>
          <Trackpoint>
            <Time>2021-06-20T06:56:46.000Z</Time>
            <Position>
              <LatitudeDegrees>38.83245558477938175201416015625</LatitudeDegrees>
              <LongitudeDegrees>-0.4084080643951892852783203125</LongitudeDegrees>
            </Position>
            <AltitudeMeters>959.20001220703125</AltitudeMeters>
            <DistanceMeters>10470.052054993</DistanceMeters>
          </Trackpoint>
          <Trackpoint>
            <Time>2021-06-20T06:56:48.000Z</Time>
            <Position>
              <LatitudeDegrees>38.83249246515333652496337890625</LatitudeDegrees>
              <LongitudeDegrees>-0.40843681432306766510009765625</LongitudeDegrees>
            </Position>
            <AltitudeMeters>957.20001220703125</AltitudeMeters>
            <DistanceMeters>10474.854430992</DistanceMeters>
          </Trackpoint>
          <Trackpoint>
            <Time>2021-06-20T06:56:50.000Z</Time>
            <Position>
              <LatitudeDegrees>38.83252548985183238983154296875</LatitudeDegrees>
              <LongitudeDegrees>-0.40846833027899265289306640625</LongitudeDegrees>
            </Position>
            <AltitudeMeters>955.79998779296875</AltitudeMeters>
            <DistanceMeters>10479.435467737</DistanceMeters>
          </Trackpoint>
          <Trackpoint>
            <Time>2021-06-20T06:57:06.000Z</Time>
            <Position>
              <LatitudeDegrees>38.8323721848428249359130859375</LatitudeDegrees>
              <LongitudeDegrees>-0.40856815874576568603515625</LongitudeDegrees>
            </Position>
            <AltitudeMeters>949.20001220703125</AltitudeMeters>
            <DistanceMeters>10498.568194644</DistanceMeters>
          </Trackpoint>
          <Trackpoint>
            <Time>2021-06-20T06:57:08.000Z</Time>
            <Position>
              <LatitudeDegrees>38.8323379866778850555419921875</LatitudeDegrees>
              <LongitudeDegrees>-0.4085860960185527801513671875</LongitudeDegrees>
            </Position>
            <AltitudeMeters>947.79998779296875</AltitudeMeters>
            <DistanceMeters>10502.679678938</DistanceMeters>
          </Trackpoint>
          <Trackpoint>
            <Time>2021-06-20T06:57:10.000Z</Time>
            <Position>
              <LatitudeDegrees>38.83232298307120800018310546875</LatitudeDegrees>
              <LongitudeDegrees>-0.4086303524672985076904296875</LongitudeDegrees>
            </Position>
            <AltitudeMeters>946</AltitudeMeters>
            <DistanceMeters>10506.865171538</DistanceMeters>
          </Trackpoint>
          <Trackpoint>
            <Time>2021-06-20T06:57:20.000Z</Time>
            <Position>
              <LatitudeDegrees>38.83245013654232025146484375</LatitudeDegrees>
              <LongitudeDegrees>-0.4088717512786388397216796875</LongitudeDegrees>
            </Position>
            <AltitudeMeters>940.20001220703125</AltitudeMeters>
            <DistanceMeters>10532.130843189</DistanceMeters>
          </Trackpoint>
          <Trackpoint>
            <Time>2021-06-20T06:57:24.000Z</Time>
            <Position>
              <LatitudeDegrees>38.8324881903827190399169921875</LatitudeDegrees>
              <LongitudeDegrees>-0.40898851118981838226318359375</LongitudeDegrees>
            </Position>
            <AltitudeMeters>937.4000244140625</AltitudeMeters>
            <DistanceMeters>10543.104680232</DistanceMeters>
          </Trackpoint>
          <Trackpoint>
            <Time>2021-06-20T06:57:28.000Z</Time>
            <Position>
              <LatitudeDegrees>38.8325123302638530731201171875</LatitudeDegrees>
              <LongitudeDegrees>-0.409114323556423187255859375</LongitudeDegrees>
            </Position>
            <AltitudeMeters>934</AltitudeMeters>
            <DistanceMeters>10554.338751105</DistanceMeters>
          </Trackpoint>
          <Trackpoint>
            <Time>2021-06-20T06:57:30.000Z</Time>
            <Position>
              <LatitudeDegrees>38.83253621868789196014404296875</LatitudeDegrees>
              <LongitudeDegrees>-0.40917207486927509307861328125</LongitudeDegrees>
            </Position>
            <AltitudeMeters>930</AltitudeMeters>
            <DistanceMeters>10560.007793534</DistanceMeters>
          </Trackpoint>
          <Trackpoint>
            <Time>2021-06-20T06:57:34.000Z</Time>
            <Position>
              <LatitudeDegrees>38.83259254507720470428466796875</LatitudeDegrees>
              <LongitudeDegrees>-0.40929101407527923583984375</LongitudeDegrees>
            </Position>
            <AltitudeMeters>927.79998779296875</AltitudeMeters>
            <DistanceMeters>10572.075812133</DistanceMeters>
          </Trackpoint>
          <Trackpoint>
            <Time>2021-06-20T06:57:36.000Z</Time>
            <Position>
              <LatitudeDegrees>38.8326209597289562225341796875</LatitudeDegrees>
              <LongitudeDegrees>-0.40935941040515899658203125</LongitudeDegrees>
            </Position>
            <AltitudeMeters>926</AltitudeMeters>
            <DistanceMeters>10578.796559291</DistanceMeters>
          </Trackpoint>
          <Trackpoint>
            <Time>2021-06-20T06:57:43.000Z</Time>
            <Position>
              <LatitudeDegrees>38.8328569941222667694091796875</LatitudeDegrees>
              <LongitudeDegrees>-0.40977356024086475372314453125</LongitudeDegrees>
            </Position>
            <AltitudeMeters>921.5999755859375</AltitudeMeters>
            <DistanceMeters>10623.288550006</DistanceMeters>
          </Trackpoint>
          <Trackpoint>
            <Time>2021-06-20T06:57:44.000Z</Time>
            <Position>
              <LatitudeDegrees>38.83288373239338397979736328125</LatitudeDegrees>
              <LongitudeDegrees>-0.409851931035518646240234375</LongitudeDegrees>
            </Position>
            <AltitudeMeters>921.4000244140625</AltitudeMeters>
            <DistanceMeters>10630.706722682</DistanceMeters>
          </Trackpoint>
          <Trackpoint>
            <Time>2021-06-20T06:57:46.000Z</Time>
            <Position>
              <LatitudeDegrees>38.8328201137483119964599609375</LatitudeDegrees>
              <LongitudeDegrees>-0.409977994859218597412109375</LongitudeDegrees>
            </Position>
            <AltitudeMeters>920.20001220703125</AltitudeMeters>
            <DistanceMeters>10643.729890337</DistanceMeters>
          </Trackpoint>
          <Trackpoint>
            <Time>2021-06-20T06:57:48.000Z</Time>
            <Position>
              <LatitudeDegrees>38.83284869603812694549560546875</LatitudeDegrees>
              <LongitudeDegrees>-0.41007044725120067596435546875</LongitudeDegrees>
            </Position>
            <AltitudeMeters>919</AltitudeMeters>
            <DistanceMeters>10652.353793722</DistanceMeters>
          </Trackpoint>
          <Trackpoint>
            <Time>2021-06-20T06:57:51.000Z</Time>
            <Position>
              <LatitudeDegrees>38.83284785784780979156494140625</LatitudeDegrees>
              <LongitudeDegrees>-0.4104810766875743865966796875</LongitudeDegrees>
            </Position>
            <AltitudeMeters>918.20001220703125</AltitudeMeters>
            <DistanceMeters>10687.956234232</DistanceMeters>
          </Trackpoint>
          <Trackpoint>
            <Time>2021-06-20T06:57:52.000Z</Time>
            <Position>
              <LatitudeDegrees>38.83280821144580841064453125</LatitudeDegrees>
              <LongitudeDegrees>-0.41055341251194477081298828125</LongitudeDegrees>
            </Position>
            <AltitudeMeters>917.4000244140625</AltitudeMeters>
            <DistanceMeters>10695.624601581</DistanceMeters>
          </Trackpoint>
          <Trackpoint>
            <Time>2021-06-20T06:57:54.000Z</Time>
            <Position>
              <LatitudeDegrees>38.83273788727819919586181640625</LatitudeDegrees>
              <LongitudeDegrees>-0.41064712218940258026123046875</LongitudeDegrees>
            </Position>
            <AltitudeMeters>916.20001220703125</AltitudeMeters>
            <DistanceMeters>10706.906798068</DistanceMeters>
          </Trackpoint>
          <Trackpoint>
            <Time>2021-06-20T06:57:57.000Z</Time>
            <Position>
              <LatitudeDegrees>38.83272279985249042510986328125</LatitudeDegrees>
              <LongitudeDegrees>-0.4107167758047580718994140625</LongitudeDegrees>
            </Position>
            <AltitudeMeters>915</AltitudeMeters>
            <DistanceMeters>10713.174960686</DistanceMeters>
          </Trackpoint>
          <Trackpoint>
            <Time>2021-06-20T06:57:58.000Z</Time>
            <Position>
              <LatitudeDegrees>38.83270620368421077728271484375</LatitudeDegrees>
              <LongitudeDegrees>-0.41070696897804737091064453125</LongitudeDegrees>
            </Position>
            <AltitudeMeters>914.5999755859375</AltitudeMeters>
            <DistanceMeters>10715.208621181</DistanceMeters>
          </Trackpoint>
          <Trackpoint>
            <Time>2021-06-20T06:58:00.000Z</Time>
            <Position>
              <LatitudeDegrees>38.8325917907059192657470703125</LatitudeDegrees>
              <LongitudeDegrees>-0.41055500507354736328125</LongitudeDegrees>
            </Position>
            <AltitudeMeters>914</AltitudeMeters>
            <DistanceMeters>10733.532275357</DistanceMeters>
          </Trackpoint>
          <Trackpoint>
            <Time>2021-06-20T06:58:02.000Z</Time>
            <Position>
              <LatitudeDegrees>38.83257578127086162567138671875</LatitudeDegrees>
              <LongitudeDegrees>-0.4104452021420001983642578125</LongitudeDegrees>
            </Position>
            <AltitudeMeters>913.5999755859375</AltitudeMeters>
            <DistanceMeters>10743.217544279</DistanceMeters>
          </Trackpoint>
          <Trackpoint>
            <Time>2021-06-20T06:58:06.000Z</Time>
            <Position>
              <LatitudeDegrees>38.83249565027654170989990234375</LatitudeDegrees>
              <LongitudeDegrees>-0.41024990379810333251953125</LongitudeDegrees>
            </Position>
            <AltitudeMeters>914.79998779296875</AltitudeMeters>
            <DistanceMeters>10762.355226231</DistanceMeters>
          </Trackpoint>
          <Trackpoint>
            <Time>2021-06-20T06:58:18.000Z</Time>
            <Position>
              <LatitudeDegrees>38.832504786550998687744140625</LatitudeDegrees>
              <LongitudeDegrees>-0.40978043340146541595458984375</LongitudeDegrees>
            </Position>
            <AltitudeMeters>917.5999755859375</AltitudeMeters>
            <DistanceMeters>10803.072149674</DistanceMeters>
          </Trackpoint>
          <Trackpoint>
            <Time>2021-06-20T06:58:26.000Z</Time>
            <Position>
              <LatitudeDegrees>38.832479976117610931396484375</LatitudeDegrees>
              <LongitudeDegrees>-0.40948673151433467864990234375</LongitudeDegrees>
            </Position>
            <AltitudeMeters>920.20001220703125</AltitudeMeters>
            <DistanceMeters>10828.686036024</DistanceMeters>
          </Trackpoint>
          <Trackpoint>
            <Time>2021-06-20T06:58:34.000Z</Time>
            <Position>
              <LatitudeDegrees>38.83238618262112140655517578125</LatitudeDegrees>
              <LongitudeDegrees>-0.409227311611175537109375</LongitudeDegrees>
            </Position>
            <AltitudeMeters>922.4000244140625</AltitudeMeters>
            <DistanceMeters>10853.482728651</DistanceMeters>
          </Trackpoint>
          <Trackpoint>
            <Time>2021-06-20T06:58:50.000Z</Time>
            <Position>
              <LatitudeDegrees>38.8321683369576930999755859375</LatitudeDegrees>
              <LongitudeDegrees>-0.4087413288652896881103515625</LongitudeDegrees>
            </Position>
            <AltitudeMeters>927.5999755859375</AltitudeMeters>
            <DistanceMeters>10902.096857737</DistanceMeters>
          </Trackpoint>
          <Trackpoint>
            <Time>2021-06-20T06:59:02.000Z</Time>
            <Position>
              <LatitudeDegrees>38.8320442847907543182373046875</LatitudeDegrees>
              <LongitudeDegrees>-0.40835316292941570281982421875</LongitudeDegrees>
            </Position>
            <AltitudeMeters>931</AltitudeMeters>
            <DistanceMeters>10938.47397269</DistanceMeters>
          </Trackpoint>
          <Trackpoint>
            <Time>2021-06-20T06:59:06.000Z</Time>
            <Position>
              <LatitudeDegrees>38.83200782351195812225341796875</LatitudeDegrees>
              <LongitudeDegrees>-0.408221818506717681884765625</LongitudeDegrees>
            </Position>
            <AltitudeMeters>932</AltitudeMeters>
            <DistanceMeters>10950.5636715</DistanceMeters>
          </Trackpoint>
          <Trackpoint>
            <Time>2021-06-20T06:59:10.000Z</Time>
            <Position>
              <LatitudeDegrees>38.83197530172765254974365234375</LatitudeDegrees>
              <LongitudeDegrees>-0.4080887138843536376953125</LongitudeDegrees>
            </Position>
            <AltitudeMeters>933.4000244140625</AltitudeMeters>
            <DistanceMeters>10962.658597643</DistanceMeters>
          </Trackpoint>
          <Trackpoint>
            <Time>2021-06-20T06:59:14.000Z</Time>
            <Position>
              <LatitudeDegrees>38.8319400139153003692626953125</LatitudeDegrees>
              <LongitudeDegrees>-0.4079581238329410552978515625</LongitudeDegrees>
            </Position>
            <AltitudeMeters>934.5999755859375</AltitudeMeters>
            <DistanceMeters>10974.642517526</DistanceMeters>
          </Trackpoint>
          <Trackpoint>
            <Time>2021-06-20T06:59:26.000Z</Time>
            <Position>
              <LatitudeDegrees>38.83183331228792667388916015625</LatitudeDegrees>
              <LongitudeDegrees>-0.407706163823604583740234375</LongitudeDegrees>
            </Position>
            <AltitudeMeters>938.4000244140625</AltitudeMeters>
            <DistanceMeters>10999.507578836</DistanceMeters>
          </Trackpoint>
          <Trackpoint>
            <Time>2021-06-20T06:59:45.000Z</Time>
            <Position>
              <LatitudeDegrees>38.83179257623851299285888671875</LatitudeDegrees>
              <LongitudeDegrees>-0.407408773899078369140625</LongitudeDegrees>
            </Position>
            <AltitudeMeters>945.4000244140625</AltitudeMeters>
            <DistanceMeters>11025.687740452</DistanceMeters>
          </Trackpoint>
          <Trackpoint>
            <Time>2021-06-20T06:59:46.000Z</Time>
            <Position>
              <LatitudeDegrees>38.83180431090295314788818359375</LatitudeDegrees>
              <LongitudeDegrees>-0.4074592329561710357666015625</LongitudeDegrees>
            </Position>
            <AltitudeMeters>945.5999755859375</AltitudeMeters>
            <DistanceMeters>11030.253969368</DistanceMeters>
          </Trackpoint>
          <Trackpoint>
            <Time>2021-06-20T06:59:47.000Z</Time>
            <Position>
              <LatitudeDegrees>38.83182610385119915008544921875</LatitudeDegrees>
              <LongitudeDegrees>-0.40747842751443386077880859375</LongitudeDegrees>
            </Position>
            <AltitudeMeters>945.79998779296875</AltitudeMeters>
            <DistanceMeters>11033.195195852</DistanceMeters>
          </Trackpoint>
          <Trackpoint>
            <Time>2021-06-20T06:59:49.000Z</Time>
            <Position>
              <LatitudeDegrees>38.8318528421223163604736328125</LatitudeDegrees>
              <LongitudeDegrees>-0.40748865343630313873291015625</LongitudeDegrees>
            </Position>
            <AltitudeMeters>946.4000244140625</AltitudeMeters>
            <DistanceMeters>11036.300694467</DistanceMeters>
          </Trackpoint>
          <Trackpoint>
            <Time>2021-06-20T06:59:50.000Z</Time>
            <Position>
              <LatitudeDegrees>38.83185577578842639923095703125</LatitudeDegrees>
              <LongitudeDegrees>-0.4074823670089244842529296875</LongitudeDegrees>
            </Position>
            <AltitudeMeters>946.5999755859375</AltitudeMeters>
            <DistanceMeters>11036.945197001</DistanceMeters>
          </Trackpoint>
          <Trackpoint>
            <Time>2021-06-20T06:59:51.000Z</Time>
            <Position>
              <LatitudeDegrees>38.8321126811206340789794921875</LatitudeDegrees>
              <LongitudeDegrees>-0.4074371047317981719970703125</LongitudeDegrees>
            </Position>
            <AltitudeMeters>947.20001220703125</AltitudeMeters>
            <DistanceMeters>11065.807361714</DistanceMeters>
          </Trackpoint>
          <Trackpoint>
            <Time>2021-06-20T06:59:52.000Z</Time>
            <Position>
              <LatitudeDegrees>38.83213858120143413543701171875</LatitudeDegrees>
              <LongitudeDegrees>-0.407439284026622772216796875</LongitudeDegrees>
            </Position>
            <AltitudeMeters>947.79998779296875</AltitudeMeters>
            <DistanceMeters>11068.69592375</DistanceMeters>
          </Trackpoint>
          <Trackpoint>
            <Time>2021-06-20T06:59:53.000Z</Time>
            <Position>
              <LatitudeDegrees>38.8321535848081111907958984375</LatitudeDegrees>
              <LongitudeDegrees>-0.40741204284131526947021484375</LongitudeDegrees>
            </Position>
            <AltitudeMeters>948.4000244140625</AltitudeMeters>
            <DistanceMeters>11071.58917121</DistanceMeters>
          </Trackpoint>
          <Trackpoint>
            <Time>2021-06-20T06:59:56.000Z</Time>
            <Position>
              <LatitudeDegrees>38.8322038762271404266357421875</LatitudeDegrees>
              <LongitudeDegrees>-0.407373905181884765625</LongitudeDegrees>
            </Position>
            <AltitudeMeters>949.20001220703125</AltitudeMeters>
            <DistanceMeters>11078.090693173</DistanceMeters>
          </Trackpoint>
          <Trackpoint>
            <Time>2021-06-20T06:59:57.000Z</Time>
            <Position>
              <LatitudeDegrees>38.8322169519960880279541015625</LatitudeDegrees>
              <LongitudeDegrees>-0.40738941170275211334228515625</LongitudeDegrees>
            </Position>
            <AltitudeMeters>949.4000244140625</AltitudeMeters>
            <DistanceMeters>11080.072632438</DistanceMeters>
          </Trackpoint>
          <Trackpoint>
            <Time>2021-06-20T06:59:59.000Z</Time>
            <Position>
              <LatitudeDegrees>38.8322483003139495849609375</LatitudeDegrees>
              <LongitudeDegrees>-0.40749183855950832366943359375</LongitudeDegrees>
            </Position>
            <AltitudeMeters>949.79998779296875</AltitudeMeters>
            <DistanceMeters>11089.614185284</DistanceMeters>
          </Trackpoint>
          <Trackpoint>
            <Time>2021-06-20T07:00:00.000Z</Time>
            <Position>
              <LatitudeDegrees>38.83225844241678714752197265625</LatitudeDegrees>
              <LongitudeDegrees>-0.40748278610408306121826171875</LongitudeDegrees>
            </Position>
            <AltitudeMeters>950.20001220703125</AltitudeMeters>
            <DistanceMeters>11090.984680049</DistanceMeters>
          </Trackpoint>
          <Trackpoint>
            <Time>2021-06-20T07:00:01.000Z</Time>
            <Position>
              <LatitudeDegrees>38.83225777186453342437744140625</LatitudeDegrees>
              <LongitudeDegrees>-0.40747490711510181427001953125</LongitudeDegrees>
            </Position>
            <AltitudeMeters>950.5999755859375</AltitudeMeters>
            <DistanceMeters>11091.669927431</DistanceMeters>
          </Trackpoint>
          <Trackpoint>
            <Time>2021-06-20T07:00:04.000Z</Time>
            <Position>
              <LatitudeDegrees>38.8322025351226329803466796875</LatitudeDegrees>
              <LongitudeDegrees>-0.4073975421488285064697265625</LongitudeDegrees>
            </Position>
            <AltitudeMeters>951.5999755859375</AltitudeMeters>
            <DistanceMeters>11100.769200529</DistanceMeters>
          </Trackpoint>
          <Trackpoint>
            <Time>2021-06-20T07:00:06.000Z</Time>
            <Position>
              <LatitudeDegrees>38.8321633078157901763916015625</LatitudeDegrees>
              <LongitudeDegrees>-0.40737667120993137359619140625</LongitudeDegrees>
            </Position>
            <AltitudeMeters>952.5999755859375</AltitudeMeters>
            <DistanceMeters>11105.495764728</DistanceMeters>
          </Trackpoint>
          <Trackpoint>
            <Time>2021-06-20T07:00:12.000Z</Time>
            <Position>
              <LatitudeDegrees>38.832097761332988739013671875</LatitudeDegrees>
              <LongitudeDegrees>-0.4073395393788814544677734375</LongitudeDegrees>
            </Position>
            <AltitudeMeters>955</AltitudeMeters>
            <DistanceMeters>11113.469519693</DistanceMeters>
          </Trackpoint>
          <Trackpoint>
            <Time>2021-06-20T07:00:18.000Z</Time>
            <Position>
              <LatitudeDegrees>38.832017295062541961669921875</LatitudeDegrees>
              <LongitudeDegrees>-0.4073350131511688232421875</LongitudeDegrees>
            </Position>
            <AltitudeMeters>956</AltitudeMeters>
            <DistanceMeters>11122.433818342</DistanceMeters>
          </Trackpoint>
          <Trackpoint>
            <Time>2021-06-20T07:00:22.000Z</Time>
            <Position>
              <LatitudeDegrees>38.831936828792095184326171875</LatitudeDegrees>
              <LongitudeDegrees>-0.4073469154536724090576171875</LongitudeDegrees>
            </Position>
            <AltitudeMeters>957</AltitudeMeters>
            <DistanceMeters>11131.449344842</DistanceMeters>
          </Trackpoint>
          <Trackpoint>
            <Time>2021-06-20T07:00:42.000Z</Time>
            <Position>
              <LatitudeDegrees>38.831956945359706878662109375</LatitudeDegrees>
              <LongitudeDegrees>-0.40721833705902099609375</LongitudeDegrees>
            </Position>
            <AltitudeMeters>963.4000244140625</AltitudeMeters>
            <DistanceMeters>11142.820036753</DistanceMeters>
          </Trackpoint>
          <Trackpoint>
            <Time>2021-06-20T07:00:46.000Z</Time>
            <Position>
              <LatitudeDegrees>38.83195526897907257080078125</LatitudeDegrees>
              <LongitudeDegrees>-0.4071558080613613128662109375</LongitudeDegrees>
            </Position>
            <AltitudeMeters>964.5999755859375</AltitudeMeters>
            <DistanceMeters>11148.245720968</DistanceMeters>
          </Trackpoint>
          <Trackpoint>
            <Time>2021-06-20T07:00:48.000Z</Time>
            <Position>
              <LatitudeDegrees>38.83192953653633594512939453125</LatitudeDegrees>
              <LongitudeDegrees>-0.40715337730944156646728515625</LongitudeDegrees>
            </Position>
            <AltitudeMeters>965.79998779296875</AltitudeMeters>
            <DistanceMeters>11151.118609736</DistanceMeters>
          </Trackpoint>
          <Trackpoint>
            <Time>2021-06-20T07:01:02.000Z</Time>
            <Position>
              <LatitudeDegrees>38.83191092871129512786865234375</LatitudeDegrees>
              <LongitudeDegrees>-0.4071309976279735565185546875</LongitudeDegrees>
            </Position>
            <AltitudeMeters>970.5999755859375</AltitudeMeters>
            <DistanceMeters>11153.956712656</DistanceMeters>
          </Trackpoint>
          <Trackpoint>
            <Time>2021-06-20T07:01:08.000Z</Time>
            <Position>
              <LatitudeDegrees>38.831891901791095733642578125</LatitudeDegrees>
              <LongitudeDegrees>-0.40712370537221431732177734375</LongitudeDegrees>
            </Position>
            <AltitudeMeters>973.20001220703125</AltitudeMeters>
            <DistanceMeters>11156.16493395</DistanceMeters>
          </Trackpoint>
          <Trackpoint>
            <Time>2021-06-20T07:01:16.000Z</Time>
            <Position>
              <LatitudeDegrees>38.831789307296276092529296875</LatitudeDegrees>
              <LongitudeDegrees>-0.4070592485368251800537109375</LongitudeDegrees>
            </Position>
            <AltitudeMeters>976.4000244140625</AltitudeMeters>
            <DistanceMeters>11168.877931558</DistanceMeters>
          </Trackpoint>
          <Trackpoint>
            <Time>2021-06-20T07:01:28.000Z</Time>
            <Position>
              <LatitudeDegrees>38.83176038973033428192138671875</LatitudeDegrees>
              <LongitudeDegrees>-0.406754314899444580078125</LongitudeDegrees>
            </Position>
            <AltitudeMeters>980.20001220703125</AltitudeMeters>
            <DistanceMeters>11195.511870154</DistanceMeters>
          </Trackpoint>
          <Trackpoint>
            <Time>2021-06-20T07:01:34.000Z</Time>
            <Position>
              <LatitudeDegrees>38.83182920515537261962890625</LatitudeDegrees>
              <LongitudeDegrees>-0.406672172248363494873046875</LongitudeDegrees>
            </Position>
            <AltitudeMeters>981.79998779296875</AltitudeMeters>
            <DistanceMeters>11205.970854141</DistanceMeters>
          </Trackpoint>
          <Trackpoint>
            <Time>2021-06-20T07:01:38.000Z</Time>
            <Position>
              <LatitudeDegrees>38.831818141043186187744140625</LatitudeDegrees>
              <LongitudeDegrees>-0.4066197015345096588134765625</LongitudeDegrees>
            </Position>
            <AltitudeMeters>983.20001220703125</AltitudeMeters>
            <DistanceMeters>11210.684025903</DistanceMeters>
          </Trackpoint>
          <Trackpoint>
            <Time>2021-06-20T07:01:40.000Z</Time>
            <Position>
              <LatitudeDegrees>38.8318075798451900482177734375</LatitudeDegrees>
              <LongitudeDegrees>-0.406607799232006072998046875</LongitudeDegrees>
            </Position>
            <AltitudeMeters>984.20001220703125</AltitudeMeters>
            <DistanceMeters>11212.251246625</DistanceMeters>
          </Trackpoint>
          <Trackpoint>
            <Time>2021-06-20T07:01:43.000Z</Time>
            <Position>
              <LatitudeDegrees>38.831757120788097381591796875</LatitudeDegrees>
              <LongitudeDegrees>-0.40655524469912052154541015625</LongitudeDegrees>
            </Position>
            <AltitudeMeters>984.79998779296875</AltitudeMeters>
            <DistanceMeters>11219.483272811</DistanceMeters>
          </Trackpoint>
          <Trackpoint>
            <Time>2021-06-20T07:01:44.000Z</Time>
            <Position>
              <LatitudeDegrees>38.8317133672535419464111328125</LatitudeDegrees>
              <LongitudeDegrees>-0.40660746395587921142578125</LongitudeDegrees>
            </Position>
            <AltitudeMeters>985.20001220703125</AltitudeMeters>
            <DistanceMeters>11226.132427214</DistanceMeters>
          </Trackpoint>
          <Trackpoint>
            <Time>2021-06-20T07:01:47.000Z</Time>
            <Position>
              <LatitudeDegrees>38.83169735781848430633544921875</LatitudeDegrees>
              <LongitudeDegrees>-0.40665029548108577728271484375</LongitudeDegrees>
            </Position>
            <AltitudeMeters>986.5999755859375</AltitudeMeters>
            <DistanceMeters>11230.250495154</DistanceMeters>
          </Trackpoint>
          <Trackpoint>
            <Time>2021-06-20T07:01:49.000Z</Time>
            <Position>
              <LatitudeDegrees>38.83183565922081470489501953125</LatitudeDegrees>
              <LongitudeDegrees>-0.4066716693341732025146484375</LongitudeDegrees>
            </Position>
            <AltitudeMeters>987.5999755859375</AltitudeMeters>
            <DistanceMeters>11245.754708612</DistanceMeters>
          </Trackpoint>
          <Trackpoint>
            <Time>2021-06-20T07:01:50.000Z</Time>
            <Position>
              <LatitudeDegrees>38.831782601773738861083984375</LatitudeDegrees>
              <LongitudeDegrees>-0.406716428697109222412109375</LongitudeDegrees>
            </Position>
            <AltitudeMeters>987.79998779296875</AltitudeMeters>
            <DistanceMeters>11252.821272327</DistanceMeters>
          </Trackpoint>
          <Trackpoint>
            <Time>2021-06-20T07:01:51.000Z</Time>
            <Position>
              <LatitudeDegrees>38.83176558651030063629150390625</LatitudeDegrees>
              <LongitudeDegrees>-0.40670963935554027557373046875</LongitudeDegrees>
            </Position>
            <AltitudeMeters>988</AltitudeMeters>
            <DistanceMeters>11254.805488376</DistanceMeters>
          </Trackpoint>
          <Trackpoint>
            <Time>2021-06-20T07:01:55.000Z</Time>
            <Position>
              <LatitudeDegrees>38.83171965368092060089111328125</LatitudeDegrees>
              <LongitudeDegrees>-0.4065942205488681793212890625</LongitudeDegrees>
            </Position>
            <AltitudeMeters>988.4000244140625</AltitudeMeters>
            <DistanceMeters>11266.042774035</DistanceMeters>
          </Trackpoint>
          <Trackpoint>
            <Time>2021-06-20T07:01:56.000Z</Time>
            <Position>
              <LatitudeDegrees>38.83171864785254001617431640625</LatitudeDegrees>
              <LongitudeDegrees>-0.40659748949110507965087890625</LongitudeDegrees>
            </Position>
            <AltitudeMeters>989</AltitudeMeters>
            <DistanceMeters>11266.343274891</DistanceMeters>
          </Trackpoint>
          <Trackpoint>
            <Time>2021-06-20T07:01:57.000Z</Time>
            <Position>
              <LatitudeDegrees>38.83231292478740215301513671875</LatitudeDegrees>
              <LongitudeDegrees>-0.40702278725802898406982421875</LongitudeDegrees>
            </Position>
            <AltitudeMeters>989.20001220703125</AltitudeMeters>
            <DistanceMeters>11342.071637001</DistanceMeters>
          </Trackpoint>
          <Trackpoint>
            <Time>2021-06-20T07:01:59.000Z</Time>
            <Position>
              <LatitudeDegrees>38.832323737442493438720703125</LatitudeDegrees>
              <LongitudeDegrees>-0.407065786421298980712890625</LongitudeDegrees>
            </Position>
            <AltitudeMeters>990</AltitudeMeters>
            <DistanceMeters>11345.989688807</DistanceMeters>
          </Trackpoint>
          <Trackpoint>
            <Time>2021-06-20T07:02:02.000Z</Time>
            <Position>
              <LatitudeDegrees>38.83236824534833431243896484375</LatitudeDegrees>
              <LongitudeDegrees>-0.406994037330150604248046875</LongitudeDegrees>
            </Position>
            <AltitudeMeters>991.20001220703125</AltitudeMeters>
            <DistanceMeters>11353.941897641</DistanceMeters>
          </Trackpoint>
          <Trackpoint>
            <Time>2021-06-20T07:02:03.000Z</Time>
            <Position>
              <LatitudeDegrees>38.8323255814611911773681640625</LatitudeDegrees>
              <LongitudeDegrees>-0.40685464628040790557861328125</LongitudeDegrees>
            </Position>
            <AltitudeMeters>991.4000244140625</AltitudeMeters>
            <DistanceMeters>11366.926873088</DistanceMeters>
          </Trackpoint>
          <Trackpoint>
            <Time>2021-06-20T07:02:07.000Z</Time>
            <Position>
              <LatitudeDegrees>38.83246866054832935333251953125</LatitudeDegrees>
              <LongitudeDegrees>-0.40670041926205158233642578125</LongitudeDegrees>
            </Position>
            <AltitudeMeters>992.4000244140625</AltitudeMeters>
            <DistanceMeters>11387.721445471</DistanceMeters>
          </Trackpoint>
          <Trackpoint>
            <Time>2021-06-20T07:02:09.000Z</Time>
            <Position>
              <LatitudeDegrees>38.83246899582445621490478515625</LatitudeDegrees>
              <LongitudeDegrees>-0.4066029377281665802001953125</LongitudeDegrees>
            </Position>
            <AltitudeMeters>993.79998779296875</AltitudeMeters>
            <DistanceMeters>11396.172948572</DistanceMeters>
          </Trackpoint>
          <Trackpoint>
            <Time>2021-06-20T07:02:11.000Z</Time>
            <Position>
              <LatitudeDegrees>38.8325089775025844573974609375</LatitudeDegrees>
              <LongitudeDegrees>-0.406627245247364044189453125</LongitudeDegrees>
            </Position>
            <AltitudeMeters>994.79998779296875</AltitudeMeters>
            <DistanceMeters>11401.096029434</DistanceMeters>
          </Trackpoint>
          <Trackpoint>
            <Time>2021-06-20T07:02:15.000Z</Time>
            <Position>
              <LatitudeDegrees>38.8325857557356357574462890625</LatitudeDegrees>
              <LongitudeDegrees>-0.40660385973751544952392578125</LongitudeDegrees>
            </Position>
            <AltitudeMeters>996.20001220703125</AltitudeMeters>
            <DistanceMeters>11409.878677838</DistanceMeters>
          </Trackpoint>
          <Trackpoint>
            <Time>2021-06-20T07:02:17.000Z</Time>
            <Position>
              <LatitudeDegrees>38.83260545320808887481689453125</LatitudeDegrees>
              <LongitudeDegrees>-0.4065221361815929412841796875</LongitudeDegrees>
            </Position>
            <AltitudeMeters>998</AltitudeMeters>
            <DistanceMeters>11417.295633123</DistanceMeters>
          </Trackpoint>
          <Trackpoint>
            <Time>2021-06-20T07:02:19.000Z</Time>
            <Position>
              <LatitudeDegrees>38.8326477818191051483154296875</LatitudeDegrees>
              <LongitudeDegrees>-0.40645231492817401885986328125</LongitudeDegrees>
            </Position>
            <AltitudeMeters>999.4000244140625</AltitudeMeters>
            <DistanceMeters>11424.96635526</DistanceMeters>
          </Trackpoint>
          <Trackpoint>
            <Time>2021-06-20T07:02:25.000Z</Time>
            <Position>
              <LatitudeDegrees>38.83266949094831943511962890625</LatitudeDegrees>
              <LongitudeDegrees>-0.40640353225171566009521484375</LongitudeDegrees>
            </Position>
            <AltitudeMeters>1000.79998779296875</AltitudeMeters>
            <DistanceMeters>11429.837806881</DistanceMeters>
          </Trackpoint>
          <Trackpoint>
            <Time>2021-06-20T07:02:33.000Z</Time>
            <Position>
              <LatitudeDegrees>38.8326866738498210906982421875</LatitudeDegrees>
              <LongitudeDegrees>-0.4063447751104831695556640625</LongitudeDegrees>
            </Position>
            <AltitudeMeters>1003.20001220703125</AltitudeMeters>
            <DistanceMeters>11435.280108852</DistanceMeters>
          </Trackpoint>
          <Trackpoint>
            <Time>2021-06-20T07:02:37.000Z</Time>
            <Position>
              <LatitudeDegrees>38.83266932331025600433349609375</LatitudeDegrees>
              <LongitudeDegrees>-0.406283922493457794189453125</LongitudeDegrees>
            </Position>
            <AltitudeMeters>1004.4000244140625</AltitudeMeters>
            <DistanceMeters>11440.899555206</DistanceMeters>
          </Trackpoint>
          <Trackpoint>
            <Time>2021-06-20T07:02:47.000Z</Time>
            <Position>
              <LatitudeDegrees>38.8327198661863803863525390625</LatitudeDegrees>
              <LongitudeDegrees>-0.40602366439998149871826171875</LongitudeDegrees>
            </Position>
            <AltitudeMeters>1005</AltitudeMeters>
            <DistanceMeters>11464.155487104</DistanceMeters>
          </Trackpoint>
          <Trackpoint>
            <Time>2021-06-20T07:03:11.000Z</Time>
            <Position>
              <LatitudeDegrees>38.832953386008739471435546875</LatitudeDegrees>
              <LongitudeDegrees>-0.4055116139352321624755859375</LongitudeDegrees>
            </Position>
            <AltitudeMeters>1006.79998779296875</AltitudeMeters>
            <DistanceMeters>11515.599969842</DistanceMeters>
          </Trackpoint>
          <Trackpoint>
            <Time>2021-06-20T07:03:13.000Z</Time>
            <Position>
              <LatitudeDegrees>38.83294207043945789337158203125</LatitudeDegrees>
              <LongitudeDegrees>-0.40550868026912212371826171875</LongitudeDegrees>
            </Position>
            <AltitudeMeters>1007.20001220703125</AltitudeMeters>
            <DistanceMeters>11516.885467407</DistanceMeters>
          </Trackpoint>
          <Trackpoint>
            <Time>2021-06-20T07:03:21.000Z</Time>
            <Position>
              <LatitudeDegrees>38.8329907692968845367431640625</LatitudeDegrees>
              <LongitudeDegrees>-0.40537574328482151031494140625</LongitudeDegrees>
            </Position>
            <AltitudeMeters>1008.5999755859375</AltitudeMeters>
            <DistanceMeters>11529.621883435</DistanceMeters>
          </Trackpoint>
          <Trackpoint>
            <Time>2021-06-20T07:03:44.000Z</Time>
            <Position>
              <LatitudeDegrees>38.83303058333694934844970703125</LatitudeDegrees>
              <LongitudeDegrees>-0.40517508052289485931396484375</LongitudeDegrees>
            </Position>
            <AltitudeMeters>1008.5999755859375</AltitudeMeters>
            <DistanceMeters>11547.574892055</DistanceMeters>
          </Trackpoint>
          <Trackpoint>
            <Time>2021-06-20T07:03:45.000Z</Time>
            <Position>
              <LatitudeDegrees>38.83253806270658969879150390625</LatitudeDegrees>
              <LongitudeDegrees>-0.40604378096759319305419921875</LongitudeDegrees>
            </Position>
            <AltitudeMeters>1006.20001220703125</AltitudeMeters>
            <DistanceMeters>11640.729963535</DistanceMeters>
          </Trackpoint>
          <Trackpoint>
            <Time>2021-06-20T07:03:46.000Z</Time>
            <Position>
              <LatitudeDegrees>38.8322283513844013214111328125</LatitudeDegrees>
              <LongitudeDegrees>-0.40581981651484966278076171875</LongitudeDegrees>
            </Position>
            <AltitudeMeters>1006.20001220703125</AltitudeMeters>
            <DistanceMeters>11680.294527497</DistanceMeters>
          </Trackpoint>
          <Trackpoint>
            <Time>2021-06-20T07:03:47.000Z</Time>
            <Position>
              <LatitudeDegrees>38.8320519961416721343994140625</LatitudeDegrees>
              <LongitudeDegrees>-0.40580841712653636932373046875</LongitudeDegrees>
            </Position>
            <AltitudeMeters>1006.20001220703125</AltitudeMeters>
            <DistanceMeters>11699.948294311</DistanceMeters>
          </Trackpoint>
          <Trackpoint>
            <Time>2021-06-20T07:03:49.000Z</Time>
            <Position>
              <LatitudeDegrees>38.83190874941647052764892578125</LatitudeDegrees>
              <LongitudeDegrees>-0.4058140330016613006591796875</LongitudeDegrees>
            </Position>
            <AltitudeMeters>1007</AltitudeMeters>
            <DistanceMeters>11715.899201303</DistanceMeters>
          </Trackpoint>
          <Trackpoint>
            <Time>2021-06-20T07:03:50.000Z</Time>
            <Position>
              <LatitudeDegrees>38.83184856735169887542724609375</LatitudeDegrees>
              <LongitudeDegrees>-0.4059684276580810546875</LongitudeDegrees>
            </Position>
            <AltitudeMeters>1007.4000244140625</AltitudeMeters>
            <DistanceMeters>11730.867643331</DistanceMeters>
          </Trackpoint>
          <Trackpoint>
            <Time>2021-06-20T07:03:51.000Z</Time>
            <Position>
              <LatitudeDegrees>38.831829540431499481201171875</LatitudeDegrees>
              <LongitudeDegrees>-0.40630563162267208099365234375</LongitudeDegrees>
            </Position>
            <AltitudeMeters>1007.4000244140625</AltitudeMeters>
            <DistanceMeters>11760.180573821</DistanceMeters>
          </Trackpoint>
          <Trackpoint>
            <Time>2021-06-20T07:03:52.000Z</Time>
            <Position>
              <LatitudeDegrees>38.83227604441344738006591796875</LatitudeDegrees>
              <LongitudeDegrees>-0.40661660023033618927001953125</LongitudeDegrees>
            </Position>
            <AltitudeMeters>1007.5999755859375</AltitudeMeters>
            <DistanceMeters>11816.719951618</DistanceMeters>
          </Trackpoint>
          <Trackpoint>
            <Time>2021-06-20T07:03:54.000Z</Time>
            <Position>
              <LatitudeDegrees>38.83219809271395206451416015625</LatitudeDegrees>
              <LongitudeDegrees>-0.40667141787707805633544921875</LongitudeDegrees>
            </Position>
            <AltitudeMeters>1006.79998779296875</AltitudeMeters>
            <DistanceMeters>11826.612775709</DistanceMeters>
          </Trackpoint>
          <Trackpoint>
            <Time>2021-06-20T07:03:55.000Z</Time>
            <Position>
              <LatitudeDegrees>38.8322174549102783203125</LatitudeDegrees>
              <LongitudeDegrees>-0.40664375759661197662353515625</LongitudeDegrees>
            </Position>
            <AltitudeMeters>1006.4000244140625</AltitudeMeters>
            <DistanceMeters>11829.836689168</DistanceMeters>
          </Trackpoint>
          <Trackpoint>
            <Time>2021-06-20T07:03:57.000Z</Time>
            <Position>
              <LatitudeDegrees>38.83223799057304859161376953125</LatitudeDegrees>
              <LongitudeDegrees>-0.406670831143856048583984375</LongitudeDegrees>
            </Position>
            <AltitudeMeters>1006.20001220703125</AltitudeMeters>
            <DistanceMeters>11833.11201065</DistanceMeters>
          </Trackpoint>
          <Trackpoint>
            <Time>2021-06-20T07:03:58.000Z</Time>
            <Position>
              <LatitudeDegrees>38.8322333805263042449951171875</LatitudeDegrees>
              <LongitudeDegrees>-0.406675525009632110595703125</LongitudeDegrees>
            </Position>
            <AltitudeMeters>1006.20001220703125</AltitudeMeters>
            <DistanceMeters>11833.763480982</DistanceMeters>
          </Trackpoint>
          <Trackpoint>
            <Time>2021-06-20T07:03:59.000Z</Time>
            <Position>
              <LatitudeDegrees>38.83222273550927639007568359375</LatitudeDegrees>
              <LongitudeDegrees>-0.4066884331405162811279296875</LongitudeDegrees>
            </Position>
            <AltitudeMeters>1007</AltitudeMeters>
            <DistanceMeters>11835.392849717</DistanceMeters>
          </Trackpoint>
          <Trackpoint>
            <Time>2021-06-20T07:04:00.000Z</Time>
            <Position>
              <LatitudeDegrees>38.83223530836403369903564453125</LatitudeDegrees>
              <LongitudeDegrees>-0.406691618263721466064453125</LongitudeDegrees>
            </Position>
            <AltitudeMeters>1007.20001220703125</AltitudeMeters>
            <DistanceMeters>11836.821414478</DistanceMeters>
          </Trackpoint>
          <Trackpoint>
            <Time>2021-06-20T07:04:02.000Z</Time>
            <Position>
              <LatitudeDegrees>38.83222642354667186737060546875</LatitudeDegrees>
              <LongitudeDegrees>-0.4067769460380077362060546875</LongitudeDegrees>
            </Position>
            <AltitudeMeters>1007.5999755859375</AltitudeMeters>
            <DistanceMeters>11844.285095981</DistanceMeters>
          </Trackpoint>
          <Trackpoint>
            <Time>2021-06-20T07:04:03.000Z</Time>
            <Position>
              <LatitudeDegrees>38.832258023321628570556640625</LatitudeDegrees>
              <LongitudeDegrees>-0.40697626769542694091796875</LongitudeDegrees>
            </Position>
            <AltitudeMeters>1007</AltitudeMeters>
            <DistanceMeters>11861.921193992</DistanceMeters>
          </Trackpoint>
          <Trackpoint>
            <Time>2021-06-20T07:04:05.000Z</Time>
            <Position>
              <LatitudeDegrees>38.83242188952863216400146484375</LatitudeDegrees>
              <LongitudeDegrees>-0.4073050059378147125244140625</LongitudeDegrees>
            </Position>
            <AltitudeMeters>1006.79998779296875</AltitudeMeters>
            <DistanceMeters>11895.759645247</DistanceMeters>
          </Trackpoint>
          <Trackpoint>
            <Time>2021-06-20T07:04:19.000Z</Time>
            <Position>
              <LatitudeDegrees>38.83247335441410541534423828125</LatitudeDegrees>
              <LongitudeDegrees>-0.40747457183897495269775390625</LongitudeDegrees>
            </Position>
            <AltitudeMeters>1004.79998779296875</AltitudeMeters>
            <DistanceMeters>11911.538086474</DistanceMeters>
          </Trackpoint>
          <Trackpoint>
            <Time>2021-06-20T07:04:27.000Z</Time>
            <Position>
              <LatitudeDegrees>38.83247352205216884613037109375</LatitudeDegrees>
              <LongitudeDegrees>-0.40747423656284809112548828125</LongitudeDegrees>
            </Position>
            <AltitudeMeters>1002.5999755859375</AltitudeMeters>
            <DistanceMeters>11911.538086474</DistanceMeters>
          </Trackpoint>
          <Trackpoint>
            <Time>2021-06-20T07:04:35.000Z</Time>
            <Position>
              <LatitudeDegrees>38.83247368969023227691650390625</LatitudeDegrees>
              <LongitudeDegrees>-0.40747381746768951416015625</LongitudeDegrees>
            </Position>
            <AltitudeMeters>997</AltitudeMeters>
            <DistanceMeters>11911.538086474</DistanceMeters>
          </Trackpoint>
          <Trackpoint>
            <Time>2021-06-20T07:04:37.000Z</Time>
            <Position>
              <LatitudeDegrees>38.8324737735092639923095703125</LatitudeDegrees>
              <LongitudeDegrees>-0.40747373364865779876708984375</LongitudeDegrees>
            </Position>
            <AltitudeMeters>994</AltitudeMeters>
            <DistanceMeters>11911.538086474</DistanceMeters>
          </Trackpoint>
          <Trackpoint>
            <Time>2021-06-20T07:04:39.000Z</Time>
            <Position>
              <LatitudeDegrees>38.8324737735092639923095703125</LatitudeDegrees>
              <LongitudeDegrees>-0.40747356601059436798095703125</LongitudeDegrees>
            </Position>
            <AltitudeMeters>992.5999755859375</AltitudeMeters>
            <DistanceMeters>11911.538086474</DistanceMeters>
          </Trackpoint>
          <Trackpoint>
            <Time>2021-06-20T07:04:47.000Z</Time>
            <Position>
              <LatitudeDegrees>38.83247335441410541534423828125</LatitudeDegrees>
              <LongitudeDegrees>-0.40747289545834064483642578125</LongitudeDegrees>
            </Position>
            <AltitudeMeters>990.20001220703125</AltitudeMeters>
            <DistanceMeters>11911.672474542</DistanceMeters>
          </Trackpoint>
          <Trackpoint>
            <Time>2021-06-20T07:04:51.000Z</Time>
            <Position>
              <LatitudeDegrees>38.83247201330959796905517578125</LatitudeDegrees>
              <LongitudeDegrees>-0.407472141087055206298828125</LongitudeDegrees>
            </Position>
            <AltitudeMeters>988.4000244140625</AltitudeMeters>
            <DistanceMeters>11911.837065639</DistanceMeters>
          </Trackpoint>
          <Trackpoint>
            <Time>2021-06-20T07:04:53.000Z</Time>
            <Position>
              <LatitudeDegrees>38.8324704207479953765869140625</LatitudeDegrees>
              <LongitudeDegrees>-0.40747138671576976776123046875</LongitudeDegrees>
            </Position>
            <AltitudeMeters>984.79998779296875</AltitudeMeters>
            <DistanceMeters>11912.027119068</DistanceMeters>
          </Trackpoint>
          <Trackpoint>
            <Time>2021-06-20T07:04:55.000Z</Time>
            <Position>
              <LatitudeDegrees>38.83246748708188533782958984375</LatitudeDegrees>
              <LongitudeDegrees>-0.40747021324932575225830078125</LongitudeDegrees>
            </Position>
            <AltitudeMeters>983.5999755859375</AltitudeMeters>
            <DistanceMeters>11912.369742759</DistanceMeters>
          </Trackpoint>
          <Trackpoint>
            <Time>2021-06-20T07:13:21.000Z</Time>
            <Position>
              <LatitudeDegrees>38.8321150280535221099853515625</LatitudeDegrees>
              <LongitudeDegrees>-0.40731615386903285980224609375</LongitudeDegrees>
            </Position>
            <AltitudeMeters>978.5999755859375</AltitudeMeters>
            <DistanceMeters>11953.810978967</DistanceMeters>
          </Trackpoint>
          <Trackpoint>
            <Time>2021-06-20T07:13:22.000Z</Time>
            <Position>
              <LatitudeDegrees>38.8321197219192981719970703125</LatitudeDegrees>
              <LongitudeDegrees>-0.4073237814009189605712890625</LongitudeDegrees>
            </Position>
            <AltitudeMeters>978.5999755859375</AltitudeMeters>
            <DistanceMeters>11954.660923739</DistanceMeters>
          </Trackpoint>
          <Trackpoint>
            <Time>2021-06-20T07:13:23.000Z</Time>
            <Position>
              <LatitudeDegrees>38.83212198503315448760986328125</LatitudeDegrees>
              <LongitudeDegrees>-0.4073350131511688232421875</LongitudeDegrees>
            </Position>
            <AltitudeMeters>978.5999755859375</AltitudeMeters>
            <DistanceMeters>11955.671071569</DistanceMeters>
          </Trackpoint>
          <Trackpoint>
            <Time>2021-06-20T07:13:26.000Z</Time>
            <Position>
              <LatitudeDegrees>38.83211812935769557952880859375</LatitudeDegrees>
              <LongitudeDegrees>-0.407368876039981842041015625</LongitudeDegrees>
            </Position>
            <AltitudeMeters>978.5999755859375</AltitudeMeters>
            <DistanceMeters>11958.639801029</DistanceMeters>
          </Trackpoint>
          <Trackpoint>
            <Time>2021-06-20T07:13:27.000Z</Time>
            <Position>
              <LatitudeDegrees>38.832114525139331817626953125</LatitudeDegrees>
              <LongitudeDegrees>-0.407386980950832366943359375</LongitudeDegrees>
            </Position>
            <AltitudeMeters>978.5999755859375</AltitudeMeters>
            <DistanceMeters>11960.260835343</DistanceMeters>
          </Trackpoint>
          <Trackpoint>
            <Time>2021-06-20T07:13:28.000Z</Time>
            <Position>
              <LatitudeDegrees>38.83211477659642696380615234375</LatitudeDegrees>
              <LongitudeDegrees>-0.40741237811744213104248046875</LongitudeDegrees>
            </Position>
            <AltitudeMeters>978.5999755859375</AltitudeMeters>
            <DistanceMeters>11962.460862837</DistanceMeters>
          </Trackpoint>
          <Trackpoint>
            <Time>2021-06-20T07:13:31.000Z</Time>
            <Position>
              <LatitudeDegrees>38.83211494423449039459228515625</LatitudeDegrees>
              <LongitudeDegrees>-0.407484881579875946044921875</LongitudeDegrees>
            </Position>
            <AltitudeMeters>978</AltitudeMeters>
            <DistanceMeters>11968.747007483</DistanceMeters>
          </Trackpoint>
          <Trackpoint>
            <Time>2021-06-20T07:13:32.000Z</Time>
            <Position>
              <LatitudeDegrees>38.8321150280535221099853515625</LatitudeDegrees>
              <LongitudeDegrees>-0.4075048305094242095947265625</LongitudeDegrees>
            </Position>
            <AltitudeMeters>977.5999755859375</AltitudeMeters>
            <DistanceMeters>11970.475867022</DistanceMeters>
          </Trackpoint>
          <Trackpoint>
            <Time>2021-06-20T07:13:33.000Z</Time>
            <Position>
              <LatitudeDegrees>38.83211293257772922515869140625</LatitudeDegrees>
              <LongitudeDegrees>-0.40752151049673557281494140625</LongitudeDegrees>
            </Position>
            <AltitudeMeters>977.20001220703125</AltitudeMeters>
            <DistanceMeters>11971.94186777</DistanceMeters>
          </Trackpoint>
          <Trackpoint>
            <Time>2021-06-20T07:13:38.000Z</Time>
            <Position>
              <LatitudeDegrees>38.83209415711462497711181640625</LatitudeDegrees>
              <LongitudeDegrees>-0.407631732523441314697265625</LongitudeDegrees>
            </Position>
            <AltitudeMeters>976.20001220703125</AltitudeMeters>
            <DistanceMeters>11981.724543792</DistanceMeters>
          </Trackpoint>
          <Trackpoint>
            <Time>2021-06-20T07:13:39.000Z</Time>
            <Position>
              <LatitudeDegrees>38.83210103027522563934326171875</LatitudeDegrees>
              <LongitudeDegrees>-0.4076526872813701629638671875</LongitudeDegrees>
            </Position>
            <AltitudeMeters>976</AltitudeMeters>
            <DistanceMeters>11983.695059681</DistanceMeters>
          </Trackpoint>
          <Trackpoint>
            <Time>2021-06-20T07:13:40.000Z</Time>
            <Position>
              <LatitudeDegrees>38.832112848758697509765625</LatitudeDegrees>
              <LongitudeDegrees>-0.40766819380223751068115234375</LongitudeDegrees>
            </Position>
            <AltitudeMeters>976</AltitudeMeters>
            <DistanceMeters>11985.576492637</DistanceMeters>
          </Trackpoint>
          <Trackpoint>
            <Time>2021-06-20T07:13:42.000Z</Time>
            <Position>
              <LatitudeDegrees>38.83214972913265228271484375</LatitudeDegrees>
              <LongitudeDegrees>-0.40769820101559162139892578125</LongitudeDegrees>
            </Position>
            <AltitudeMeters>974.5999755859375</AltitudeMeters>
            <DistanceMeters>11990.436809497</DistanceMeters>
          </Trackpoint>
          <Trackpoint>
            <Time>2021-06-20T07:13:44.000Z</Time>
            <Position>
              <LatitudeDegrees>38.8321847654879093170166015625</LatitudeDegrees>
              <LongitudeDegrees>-0.40771949104964733123779296875</LongitudeDegrees>
            </Position>
            <AltitudeMeters>973.20001220703125</AltitudeMeters>
            <DistanceMeters>11994.751901341</DistanceMeters>
          </Trackpoint>
          <Trackpoint>
            <Time>2021-06-20T07:13:46.000Z</Time>
            <Position>
              <LatitudeDegrees>38.8322159461677074432373046875</LatitudeDegrees>
              <LongitudeDegrees>-0.40774497203528881072998046875</LongitudeDegrees>
            </Position>
            <AltitudeMeters>972</AltitudeMeters>
            <DistanceMeters>11998.865581355</DistanceMeters>
          </Trackpoint>
          <Trackpoint>
            <Time>2021-06-20T07:13:48.000Z</Time>
            <Position>
              <LatitudeDegrees>38.83224905468523502349853515625</LatitudeDegrees>
              <LongitudeDegrees>-0.40777447633445262908935546875</LongitudeDegrees>
            </Position>
            <AltitudeMeters>971</AltitudeMeters>
            <DistanceMeters>12003.351003333</DistanceMeters>
          </Trackpoint>
          <Trackpoint>
            <Time>2021-06-20T07:13:49.000Z</Time>
            <Position>
              <LatitudeDegrees>38.83226665668189525604248046875</LatitudeDegrees>
              <LongitudeDegrees>-0.40779434144496917724609375</LongitudeDegrees>
            </Position>
            <AltitudeMeters>970.5999755859375</AltitudeMeters>
            <DistanceMeters>12005.956884659</DistanceMeters>
          </Trackpoint>
          <Trackpoint>
            <Time>2021-06-20T07:13:51.000Z</Time>
            <Position>
              <LatitudeDegrees>38.83230035193264484405517578125</LatitudeDegrees>
              <LongitudeDegrees>-0.40782996453344821929931640625</LongitudeDegrees>
            </Position>
            <AltitudeMeters>969.4000244140625</AltitudeMeters>
            <DistanceMeters>12010.815343244</DistanceMeters>
          </Trackpoint>
          <Trackpoint>
            <Time>2021-06-20T07:13:54.000Z</Time>
            <Position>
              <LatitudeDegrees>38.83235567249357700347900390625</LatitudeDegrees>
              <LongitudeDegrees>-0.40789090096950531005859375</LongitudeDegrees>
            </Position>
            <AltitudeMeters>968.20001220703125</AltitudeMeters>
            <DistanceMeters>12018.928866355</DistanceMeters>
          </Trackpoint>
          <Trackpoint>
            <Time>2021-06-20T07:13:55.000Z</Time>
            <Position>
              <LatitudeDegrees>38.8323725201189517974853515625</LatitudeDegrees>
              <LongitudeDegrees>-0.407909341156482696533203125</LongitudeDegrees>
            </Position>
            <AltitudeMeters>968.20001220703125</AltitudeMeters>
            <DistanceMeters>12021.394072522</DistanceMeters>
          </Trackpoint>
          <Trackpoint>
            <Time>2021-06-20T07:13:57.000Z</Time>
            <Position>
              <LatitudeDegrees>38.83239758200943470001220703125</LatitudeDegrees>
              <LongitudeDegrees>-0.407938174903392791748046875</LongitudeDegrees>
            </Position>
            <AltitudeMeters>966.79998779296875</AltitudeMeters>
            <DistanceMeters>12025.14010226</DistanceMeters>
          </Trackpoint>
          <Trackpoint>
            <Time>2021-06-20T07:13:58.000Z</Time>
            <Position>
              <LatitudeDegrees>38.83239909075200557708740234375</LatitudeDegrees>
              <LongitudeDegrees>-0.4079492390155792236328125</LongitudeDegrees>
            </Position>
            <AltitudeMeters>965.5999755859375</AltitudeMeters>
            <DistanceMeters>12026.113836324</DistanceMeters>
          </Trackpoint>
          <Trackpoint>
            <Time>2021-06-20T07:14:00.000Z</Time>
            <Position>
              <LatitudeDegrees>38.83238299749791622161865234375</LatitudeDegrees>
              <LongitudeDegrees>-0.40796055458486080169677734375</LongitudeDegrees>
            </Position>
            <AltitudeMeters>964.79998779296875</AltitudeMeters>
            <DistanceMeters>12028.156358127</DistanceMeters>
          </Trackpoint>
          <Trackpoint>
            <Time>2021-06-20T07:14:03.000Z</Time>
            <Position>
              <LatitudeDegrees>38.83230437524616718292236328125</LatitudeDegrees>
              <LongitudeDegrees>-0.407936833798885345458984375</LongitudeDegrees>
            </Position>
            <AltitudeMeters>964.5999755859375</AltitudeMeters>
            <DistanceMeters>12037.145302671</DistanceMeters>
          </Trackpoint>
          <Trackpoint>
            <Time>2021-06-20T07:14:07.000Z</Time>
            <Position>
              <LatitudeDegrees>38.83224234916269779205322265625</LatitudeDegrees>
              <LongitudeDegrees>-0.4079411923885345458984375</LongitudeDegrees>
            </Position>
            <AltitudeMeters>963</AltitudeMeters>
            <DistanceMeters>12044.059434916</DistanceMeters>
          </Trackpoint>
          <Trackpoint>
            <Time>2021-06-20T07:14:09.000Z</Time>
            <Position>
              <LatitudeDegrees>38.8322266750037670135498046875</LatitudeDegrees>
              <LongitudeDegrees>-0.40797161869704723358154296875</LongitudeDegrees>
            </Position>
            <AltitudeMeters>961.5999755859375</AltitudeMeters>
            <DistanceMeters>12047.222554373</DistanceMeters>
          </Trackpoint>
          <Trackpoint>
            <Time>2021-06-20T07:14:11.000Z</Time>
            <Position>
              <LatitudeDegrees>38.832241594791412353515625</LatitudeDegrees>
              <LongitudeDegrees>-0.4080070741474628448486328125</LongitudeDegrees>
            </Position>
            <AltitudeMeters>960.20001220703125</AltitudeMeters>
            <DistanceMeters>12050.716644147</DistanceMeters>
          </Trackpoint>
          <Trackpoint>
            <Time>2021-06-20T07:14:13.000Z</Time>
            <Position>
              <LatitudeDegrees>38.8322695903480052947998046875</LatitudeDegrees>
              <LongitudeDegrees>-0.40803615935146808624267578125</LongitudeDegrees>
            </Position>
            <AltitudeMeters>959</AltitudeMeters>
            <DistanceMeters>12054.725825619</DistanceMeters>
          </Trackpoint>
          <Trackpoint>
            <Time>2021-06-20T07:14:21.000Z</Time>
            <Position>
              <LatitudeDegrees>38.83236832916736602783203125</LatitudeDegrees>
              <LongitudeDegrees>-0.4081951640546321868896484375</LongitudeDegrees>
            </Position>
            <AltitudeMeters>956.5999755859375</AltitudeMeters>
            <DistanceMeters>12072.356290484</DistanceMeters>
          </Trackpoint>
          <Trackpoint>
            <Time>2021-06-20T07:14:37.000Z</Time>
            <Position>
              <LatitudeDegrees>38.832253329455852508544921875</LatitudeDegrees>
              <LongitudeDegrees>-0.4082491435110569000244140625</LongitudeDegrees>
            </Position>
            <AltitudeMeters>949.4000244140625</AltitudeMeters>
            <DistanceMeters>12085.98459237</DistanceMeters>
          </Trackpoint>
          <Trackpoint>
            <Time>2021-06-20T07:14:51.000Z</Time>
            <Position>
              <LatitudeDegrees>38.83212701417505741119384765625</LatitudeDegrees>
              <LongitudeDegrees>-0.40839993394911289215087890625</LongitudeDegrees>
            </Position>
            <AltitudeMeters>943</AltitudeMeters>
            <DistanceMeters>12105.183281395</DistanceMeters>
          </Trackpoint>
          <Trackpoint>
            <Time>2021-06-20T07:14:53.000Z</Time>
            <Position>
              <LatitudeDegrees>38.83216188289225101470947265625</LatitudeDegrees>
              <LongitudeDegrees>-0.4084479622542858123779296875</LongitudeDegrees>
            </Position>
            <AltitudeMeters>942</AltitudeMeters>
            <DistanceMeters>12110.876959857</DistanceMeters>
          </Trackpoint>
          <Trackpoint>
            <Time>2021-06-20T07:14:55.000Z</Time>
            <Position>
              <LatitudeDegrees>38.8321877829730510711669921875</LatitudeDegrees>
              <LongitudeDegrees>-0.40850512683391571044921875</LongitudeDegrees>
            </Position>
            <AltitudeMeters>941.4000244140625</AltitudeMeters>
            <DistanceMeters>12116.610150789</DistanceMeters>
          </Trackpoint>
          <Trackpoint>
            <Time>2021-06-20T07:15:01.000Z</Time>
            <Position>
              <LatitudeDegrees>38.83223153650760650634765625</LatitudeDegrees>
              <LongitudeDegrees>-0.40869313292205333709716796875</LongitudeDegrees>
            </Position>
            <AltitudeMeters>938.20001220703125</AltitudeMeters>
            <DistanceMeters>12133.622586831</DistanceMeters>
          </Trackpoint>
          <Trackpoint>
            <Time>2021-06-20T07:15:03.000Z</Time>
            <Position>
              <LatitudeDegrees>38.83223958313465118408203125</LatitudeDegrees>
              <LongitudeDegrees>-0.40875733830034732818603515625</LongitudeDegrees>
            </Position>
            <AltitudeMeters>937</AltitudeMeters>
            <DistanceMeters>12139.260482634</DistanceMeters>
          </Trackpoint>
          <Trackpoint>
            <Time>2021-06-20T07:15:05.000Z</Time>
            <Position>
              <LatitudeDegrees>38.832249976694583892822265625</LatitudeDegrees>
              <LongitudeDegrees>-0.40882053785026073455810546875</LongitudeDegrees>
            </Position>
            <AltitudeMeters>935.5999755859375</AltitudeMeters>
            <DistanceMeters>12144.859806291</DistanceMeters>
          </Trackpoint>
          <Trackpoint>
            <Time>2021-06-20T07:15:09.000Z</Time>
            <Position>
              <LatitudeDegrees>38.83226665668189525604248046875</LatitudeDegrees>
              <LongitudeDegrees>-0.40894676931202411651611328125</LongitudeDegrees>
            </Position>
            <AltitudeMeters>934.5999755859375</AltitudeMeters>
            <DistanceMeters>12155.960862693</DistanceMeters>
          </Trackpoint>
          <Trackpoint>
            <Time>2021-06-20T07:15:11.000Z</Time>
            <Position>
              <LatitudeDegrees>38.83227135054767131805419921875</LatitudeDegrees>
              <LongitudeDegrees>-0.40901047177612781524658203125</LongitudeDegrees>
            </Position>
            <AltitudeMeters>933.4000244140625</AltitudeMeters>
            <DistanceMeters>12161.508339643</DistanceMeters>
          </Trackpoint>
          <Trackpoint>
            <Time>2021-06-20T07:15:13.000Z</Time>
            <Position>
              <LatitudeDegrees>38.8322756253182888031005859375</LatitudeDegrees>
              <LongitudeDegrees>-0.40907434187829494476318359375</LongitudeDegrees>
            </Position>
            <AltitudeMeters>932</AltitudeMeters>
            <DistanceMeters>12167.065574697</DistanceMeters>
          </Trackpoint>
          <Trackpoint>
            <Time>2021-06-20T07:15:17.000Z</Time>
            <Position>
              <LatitudeDegrees>38.83228249847888946533203125</LatitudeDegrees>
              <LongitudeDegrees>-0.40920275263488292694091796875</LongitudeDegrees>
            </Position>
            <AltitudeMeters>930.79998779296875</AltitudeMeters>
            <DistanceMeters>12178.225449889</DistanceMeters>
          </Trackpoint>
          <Trackpoint>
            <Time>2021-06-20T07:15:19.000Z</Time>
            <Position>
              <LatitudeDegrees>38.832282163202762603759765625</LatitudeDegrees>
              <LongitudeDegrees>-0.40926712565124034881591796875</LongitudeDegrees>
            </Position>
            <AltitudeMeters>929.79998779296875</AltitudeMeters>
            <DistanceMeters>12183.807814425</DistanceMeters>
          </Trackpoint>
          <Trackpoint>
            <Time>2021-06-20T07:15:23.000Z</Time>
            <Position>
              <LatitudeDegrees>38.83229515515267848968505859375</LatitudeDegrees>
              <LongitudeDegrees>-0.40939486585557460784912109375</LongitudeDegrees>
            </Position>
            <AltitudeMeters>928.4000244140625</AltitudeMeters>
            <DistanceMeters>12194.977395265</DistanceMeters>
          </Trackpoint>
          <Trackpoint>
            <Time>2021-06-20T07:15:25.000Z</Time>
            <Position>
              <LatitudeDegrees>38.8323074765503406524658203125</LatitudeDegrees>
              <LongitudeDegrees>-0.409456975758075714111328125</LongitudeDegrees>
            </Position>
            <AltitudeMeters>927.4000244140625</AltitudeMeters>
            <DistanceMeters>12200.534630319</DistanceMeters>
          </Trackpoint>
          <Trackpoint>
            <Time>2021-06-20T07:15:27.000Z</Time>
            <Position>
              <LatitudeDegrees>38.83231778629124164581298828125</LatitudeDegrees>
              <LongitudeDegrees>-0.40951891802251338958740234375</LongitudeDegrees>
            </Position>
            <AltitudeMeters>926.20001220703125</AltitudeMeters>
            <DistanceMeters>12206.025661665</DistanceMeters>
          </Trackpoint>
          <Trackpoint>
            <Time>2021-06-20T07:15:29.000Z</Time>
            <Position>
              <LatitudeDegrees>38.83233086206018924713134765625</LatitudeDegrees>
              <LongitudeDegrees>-0.40957926772534847259521484375</LongitudeDegrees>
            </Position>
            <AltitudeMeters>925</AltitudeMeters>
            <DistanceMeters>12211.456336546</DistanceMeters>
          </Trackpoint>
          <Trackpoint>
            <Time>2021-06-20T07:15:41.000Z</Time>
            <Position>
              <LatitudeDegrees>38.8323446922004222869873046875</LatitudeDegrees>
              <LongitudeDegrees>-0.4098883084952831268310546875</LongitudeDegrees>
            </Position>
            <AltitudeMeters>920.20001220703125</AltitudeMeters>
            <DistanceMeters>12238.295285817</DistanceMeters>
          </Trackpoint>
          <Trackpoint>
            <Time>2021-06-20T07:15:42.000Z</Time>
            <Position>
              <LatitudeDegrees>38.8323420099914073944091796875</LatitudeDegrees>
              <LongitudeDegrees>-0.40987498126924037933349609375</LongitudeDegrees>
            </Position>
            <AltitudeMeters>919.79998779296875</AltitudeMeters>
            <DistanceMeters>12239.489753095</DistanceMeters>
          </Trackpoint>
          <Trackpoint>
            <Time>2021-06-20T07:15:44.000Z</Time>
            <Position>
              <LatitudeDegrees>38.8323456980288028717041015625</LatitudeDegrees>
              <LongitudeDegrees>-0.4098614864051342010498046875</LongitudeDegrees>
            </Position>
            <AltitudeMeters>918.5999755859375</AltitudeMeters>
            <DistanceMeters>12240.728749864</DistanceMeters>
          </Trackpoint>
          <Trackpoint>
            <Time>2021-06-20T07:15:45.000Z</Time>
            <Position>
              <LatitudeDegrees>38.8323234021663665771484375</LatitudeDegrees>
              <LongitudeDegrees>-0.4098282940685749053955078125</LongitudeDegrees>
            </Position>
            <AltitudeMeters>918.20001220703125</AltitudeMeters>
            <DistanceMeters>12244.527442029</DistanceMeters>
          </Trackpoint>
          <Trackpoint>
            <Time>2021-06-20T07:15:46.000Z</Time>
            <Position>
              <LatitudeDegrees>38.83233270607888698577880859375</LatitudeDegrees>
              <LongitudeDegrees>-0.40989442728459835052490234375</LongitudeDegrees>
            </Position>
            <AltitudeMeters>918.20001220703125</AltitudeMeters>
            <DistanceMeters>12250.354369815</DistanceMeters>
          </Trackpoint>
          <Trackpoint>
            <Time>2021-06-20T07:15:47.000Z</Time>
            <Position>
              <LatitudeDegrees>38.832311332225799560546875</LatitudeDegrees>
              <LongitudeDegrees>-0.40990716777741909027099609375</LongitudeDegrees>
            </Position>
            <AltitudeMeters>917.4000244140625</AltitudeMeters>
            <DistanceMeters>12252.977520259</DistanceMeters>
          </Trackpoint>
          <Trackpoint>
            <Time>2021-06-20T07:15:49.000Z</Time>
            <Position>
              <LatitudeDegrees>38.83229817263782024383544921875</LatitudeDegrees>
              <LongitudeDegrees>-0.409925691783428192138671875</LongitudeDegrees>
            </Position>
            <AltitudeMeters>916.79998779296875</AltitudeMeters>
            <DistanceMeters>12255.152781176</DistanceMeters>
          </Trackpoint>
          <Trackpoint>
            <Time>2021-06-20T07:15:50.000Z</Time>
            <Position>
              <LatitudeDegrees>38.83228258229792118072509765625</LatitudeDegrees>
              <LongitudeDegrees>-0.409957878291606903076171875</LongitudeDegrees>
            </Position>
            <AltitudeMeters>916.20001220703125</AltitudeMeters>
            <DistanceMeters>12258.439112173</DistanceMeters>
          </Trackpoint>
          <Trackpoint>
            <Time>2021-06-20T07:15:53.000Z</Time>
            <Position>
              <LatitudeDegrees>38.83224519900977611541748046875</LatitudeDegrees>
              <LongitudeDegrees>-0.41003490798175334930419921875</LongitudeDegrees>
            </Position>
            <AltitudeMeters>915.20001220703125</AltitudeMeters>
            <DistanceMeters>12266.307415936</DistanceMeters>
          </Trackpoint>
          <Trackpoint>
            <Time>2021-06-20T07:15:55.000Z</Time>
            <Position>
              <LatitudeDegrees>38.8322226516902446746826171875</LatitudeDegrees>
              <LongitudeDegrees>-0.4100864566862583160400390625</LongitudeDegrees>
            </Position>
            <AltitudeMeters>914.79998779296875</AltitudeMeters>
            <DistanceMeters>12271.431814662</DistanceMeters>
          </Trackpoint>
          <Trackpoint>
            <Time>2021-06-20T07:15:56.000Z</Time>
            <Position>
              <LatitudeDegrees>38.832214772701263427734375</LatitudeDegrees>
              <LongitudeDegrees>-0.4101084172725677490234375</LongitudeDegrees>
            </Position>
            <AltitudeMeters>914</AltitudeMeters>
            <DistanceMeters>12273.531023395</DistanceMeters>
          </Trackpoint>
          <Trackpoint>
            <Time>2021-06-20T07:15:59.000Z</Time>
            <Position>
              <LatitudeDegrees>38.83221217431128025054931640625</LatitudeDegrees>
              <LongitudeDegrees>-0.4101853631436824798583984375</LongitudeDegrees>
            </Position>
            <AltitudeMeters>913.20001220703125</AltitudeMeters>
            <DistanceMeters>12280.209312663</DistanceMeters>
          </Trackpoint>
          <Trackpoint>
            <Time>2021-06-20T07:16:01.000Z</Time>
            <Position>
              <LatitudeDegrees>38.83223421871662139892578125</LatitudeDegrees>
              <LongitudeDegrees>-0.4102426953613758087158203125</LongitudeDegrees>
            </Position>
            <AltitudeMeters>913</AltitudeMeters>
            <DistanceMeters>12285.752718669</DistanceMeters>
          </Trackpoint>
          <Trackpoint>
            <Time>2021-06-20T07:16:05.000Z</Time>
            <Position>
              <LatitudeDegrees>38.83226464502513408660888671875</LatitudeDegrees>
              <LongitudeDegrees>-0.4103214852511882781982421875</LongitudeDegrees>
            </Position>
            <AltitudeMeters>911.79998779296875</AltitudeMeters>
            <DistanceMeters>12293.377391261</DistanceMeters>
          </Trackpoint>
          <Trackpoint>
            <Time>2021-06-20T07:16:11.000Z</Time>
            <Position>
              <LatitudeDegrees>38.83223681710660457611083984375</LatitudeDegrees>
              <LongitudeDegrees>-0.41048686020076274871826171875</LongitudeDegrees>
            </Position>
            <AltitudeMeters>909.4000244140625</AltitudeMeters>
            <DistanceMeters>12308.046635334</DistanceMeters>
          </Trackpoint>
          <Trackpoint>
            <Time>2021-06-20T07:16:15.000Z</Time>
            <Position>
              <LatitudeDegrees>38.8322348892688751220703125</LatitudeDegrees>
              <LongitudeDegrees>-0.4106007702648639678955078125</LongitudeDegrees>
            </Position>
            <AltitudeMeters>908.4000244140625</AltitudeMeters>
            <DistanceMeters>12317.92484398</DistanceMeters>
          </Trackpoint>
          <Trackpoint>
            <Time>2021-06-20T07:16:19.000Z</Time>
            <Position>
              <LatitudeDegrees>38.832252323627471923828125</LatitudeDegrees>
              <LongitudeDegrees>-0.41069221682846546173095703125</LongitudeDegrees>
            </Position>
            <AltitudeMeters>906.4000244140625</AltitudeMeters>
            <DistanceMeters>12326.087190701</DistanceMeters>
          </Trackpoint>
          <Trackpoint>
            <Time>2021-06-20T07:16:21.000Z</Time>
            <Position>
              <LatitudeDegrees>38.83229180239140987396240234375</LatitudeDegrees>
              <LongitudeDegrees>-0.41069305501878261566162109375</LongitudeDegrees>
            </Position>
            <AltitudeMeters>905.20001220703125</AltitudeMeters>
            <DistanceMeters>12330.482112033</DistanceMeters>
          </Trackpoint>
          <Trackpoint>
            <Time>2021-06-20T07:16:25.000Z</Time>
            <Position>
              <LatitudeDegrees>38.83235969580709934234619140625</LatitudeDegrees>
              <LongitudeDegrees>-0.410701520740985870361328125</LongitudeDegrees>
            </Position>
            <AltitudeMeters>903.79998779296875</AltitudeMeters>
            <DistanceMeters>12338.07355115</DistanceMeters>
          </Trackpoint>
          <Trackpoint>
            <Time>2021-06-20T07:16:27.000Z</Time>
            <Position>
              <LatitudeDegrees>38.83236229419708251953125</LatitudeDegrees>
              <LongitudeDegrees>-0.4107492975890636444091796875</LongitudeDegrees>
            </Position>
            <AltitudeMeters>903.20001220703125</AltitudeMeters>
            <DistanceMeters>12342.225468289</DistanceMeters>
          </Trackpoint>
          <Trackpoint>
            <Time>2021-06-20T07:16:29.000Z</Time>
            <Position>
              <LatitudeDegrees>38.832330442965030670166015625</LatitudeDegrees>
              <LongitudeDegrees>-0.41077888570725917816162109375</LongitudeDegrees>
            </Position>
            <AltitudeMeters>902.5999755859375</AltitudeMeters>
            <DistanceMeters>12346.600826796</DistanceMeters>
          </Trackpoint>
          <Trackpoint>
            <Time>2021-06-20T07:16:35.000Z</Time>
            <Position>
              <LatitudeDegrees>38.832267411053180694580078125</LatitudeDegrees>
              <LongitudeDegrees>-0.41091098450124263763427734375</LongitudeDegrees>
            </Position>
            <AltitudeMeters>900.4000244140625</AltitudeMeters>
            <DistanceMeters>12360.032240244</DistanceMeters>
          </Trackpoint>
          <Trackpoint>
            <Time>2021-06-20T07:16:49.000Z</Time>
            <Position>
              <LatitudeDegrees>38.8322494737803936004638671875</LatitudeDegrees>
              <LongitudeDegrees>-0.411289595067501068115234375</LongitudeDegrees>
            </Position>
            <AltitudeMeters>896.79998779296875</AltitudeMeters>
            <DistanceMeters>12392.919447118</DistanceMeters>
          </Trackpoint>
          <Trackpoint>
            <Time>2021-06-20T07:16:53.000Z</Time>
            <Position>
              <LatitudeDegrees>38.8322618789970874786376953125</LatitudeDegrees>
              <LongitudeDegrees>-0.411392189562320709228515625</LongitudeDegrees>
            </Position>
            <AltitudeMeters>898.4000244140625</AltitudeMeters>
            <DistanceMeters>12401.920940101</DistanceMeters>
          </Trackpoint>
          <Trackpoint>
            <Time>2021-06-20T07:17:13.000Z</Time>
            <Position>
              <LatitudeDegrees>38.8323587737977504730224609375</LatitudeDegrees>
              <LongitudeDegrees>-0.41179125197231769561767578125</LongitudeDegrees>
            </Position>
            <AltitudeMeters>905.5999755859375</AltitudeMeters>
            <DistanceMeters>12438.162514419</DistanceMeters>
          </Trackpoint>
          <Trackpoint>
            <Time>2021-06-20T07:17:25.000Z</Time>
            <Position>
              <LatitudeDegrees>38.83233622647821903228759765625</LatitudeDegrees>
              <LongitudeDegrees>-0.412023179233074188232421875</LongitudeDegrees>
            </Position>
            <AltitudeMeters>903.20001220703125</AltitudeMeters>
            <DistanceMeters>12458.427058736</DistanceMeters>
          </Trackpoint>
          <Trackpoint>
            <Time>2021-06-20T07:17:31.000Z</Time>
            <Position>
              <LatitudeDegrees>38.832387439906597137451171875</LatitudeDegrees>
              <LongitudeDegrees>-0.41219274513423442840576171875</LongitudeDegrees>
            </Position>
            <AltitudeMeters>901.79998779296875</AltitudeMeters>
            <DistanceMeters>12474.195195113</DistanceMeters>
          </Trackpoint>
          <Trackpoint>
            <Time>2021-06-20T07:17:42.000Z</Time>
            <Position>
              <LatitudeDegrees>38.83243739604949951171875</LatitudeDegrees>
              <LongitudeDegrees>-0.4125058092176914215087890625</LongitudeDegrees>
            </Position>
            <AltitudeMeters>901.79998779296875</AltitudeMeters>
            <DistanceMeters>12501.902286602</DistanceMeters>
          </Trackpoint>
          <Trackpoint>
            <Time>2021-06-20T07:17:44.000Z</Time>
            <Position>
              <LatitudeDegrees>38.83250285871326923370361328125</LatitudeDegrees>
              <LongitudeDegrees>-0.41258401237428188323974609375</LongitudeDegrees>
            </Position>
            <AltitudeMeters>901.79998779296875</AltitudeMeters>
            <DistanceMeters>12511.855626176</DistanceMeters>
          </Trackpoint>
          <Trackpoint>
            <Time>2021-06-20T07:17:49.000Z</Time>
            <Position>
              <LatitudeDegrees>38.8325458578765392303466796875</LatitudeDegrees>
              <LongitudeDegrees>-0.41272717528045177459716796875</LongitudeDegrees>
            </Position>
            <AltitudeMeters>900.4000244140625</AltitudeMeters>
            <DistanceMeters>12525.158687408</DistanceMeters>
          </Trackpoint>
          <Trackpoint>
            <Time>2021-06-20T07:17:51.000Z</Time>
            <Position>
              <LatitudeDegrees>38.832062892615795135498046875</LatitudeDegrees>
              <LongitudeDegrees>-0.41263178922235965728759765625</LongitudeDegrees>
            </Position>
            <AltitudeMeters>899.20001220703125</AltitudeMeters>
            <DistanceMeters>12579.546187819</DistanceMeters>
          </Trackpoint>
          <Trackpoint>
            <Time>2021-06-20T07:17:53.000Z</Time>
            <Position>
              <LatitudeDegrees>38.8320690952241420745849609375</LatitudeDegrees>
              <LongitudeDegrees>-0.41250572539865970611572265625</LongitudeDegrees>
            </Position>
            <AltitudeMeters>898.79998779296875</AltitudeMeters>
            <DistanceMeters>12590.498609262</DistanceMeters>
          </Trackpoint>
          <Trackpoint>
            <Time>2021-06-20T07:17:55.000Z</Time>
            <Position>
              <LatitudeDegrees>38.83205140940845012664794921875</LatitudeDegrees>
              <LongitudeDegrees>-0.41248527355492115020751953125</LongitudeDegrees>
            </Position>
            <AltitudeMeters>898.4000244140625</AltitudeMeters>
            <DistanceMeters>12593.147452292</DistanceMeters>
          </Trackpoint>
          <Trackpoint>
            <Time>2021-06-20T07:17:56.000Z</Time>
            <Position>
              <LatitudeDegrees>38.83202542550861835479736328125</LatitudeDegrees>
              <LongitudeDegrees>-0.41250220499932765960693359375</LongitudeDegrees>
            </Position>
            <AltitudeMeters>898</AltitudeMeters>
            <DistanceMeters>12596.389520919</DistanceMeters>
          </Trackpoint>
          <Trackpoint>
            <Time>2021-06-20T07:17:58.000Z</Time>
            <Position>
              <LatitudeDegrees>38.8319966755807399749755859375</LatitudeDegrees>
              <LongitudeDegrees>-0.4125545918941497802734375</LongitudeDegrees>
            </Position>
            <AltitudeMeters>897.5999755859375</AltitudeMeters>
            <DistanceMeters>12601.945943452</DistanceMeters>
          </Trackpoint>
          <Trackpoint>
            <Time>2021-06-20T07:17:59.000Z</Time>
            <Position>
              <LatitudeDegrees>38.83198251016438007354736328125</LatitudeDegrees>
              <LongitudeDegrees>-0.4125825874507427215576171875</LongitudeDegrees>
            </Position>
            <AltitudeMeters>897.4000244140625</AltitudeMeters>
            <DistanceMeters>12604.840751034</DistanceMeters>
          </Trackpoint>
          <Trackpoint>
            <Time>2021-06-20T07:18:01.000Z</Time>
            <Position>
              <LatitudeDegrees>38.8319685123860836029052734375</LatitudeDegrees>
              <LongitudeDegrees>-0.4126726090908050537109375</LongitudeDegrees>
            </Position>
            <AltitudeMeters>899</AltitudeMeters>
            <DistanceMeters>12612.800337477</DistanceMeters>
          </Trackpoint>
          <Trackpoint>
            <Time>2021-06-20T07:18:02.000Z</Time>
            <Position>
              <LatitudeDegrees>38.83196868002414703369140625</LatitudeDegrees>
              <LongitudeDegrees>-0.41269146837294101715087890625</LongitudeDegrees>
            </Position>
            <AltitudeMeters>899</AltitudeMeters>
            <DistanceMeters>12614.435238889</DistanceMeters>
          </Trackpoint>
          <Trackpoint>
            <Time>2021-06-20T07:18:09.000Z</Time>
            <Position>
              <LatitudeDegrees>38.8319507427513599395751953125</LatitudeDegrees>
              <LongitudeDegrees>-0.41290252469480037689208984375</LongitudeDegrees>
            </Position>
            <AltitudeMeters>897.5999755859375</AltitudeMeters>
            <DistanceMeters>12632.842970647</DistanceMeters>
          </Trackpoint>
          <Trackpoint>
            <Time>2021-06-20T07:18:11.000Z</Time>
            <Position>
              <LatitudeDegrees>38.831956945359706878662109375</LatitudeDegrees>
              <LongitudeDegrees>-0.41296572424471378326416015625</LongitudeDegrees>
            </Position>
            <AltitudeMeters>897</AltitudeMeters>
            <DistanceMeters>12638.365976914</DistanceMeters>
          </Trackpoint>
          <Trackpoint>
            <Time>2021-06-20T07:18:21.000Z</Time>
            <Position>
              <LatitudeDegrees>38.83203648962080478668212890625</LatitudeDegrees>
              <LongitudeDegrees>-0.41326663456857204437255859375</LongitudeDegrees>
            </Position>
            <AltitudeMeters>896</AltitudeMeters>
            <DistanceMeters>12665.917169735</DistanceMeters>
          </Trackpoint>
          <Trackpoint>
            <Time>2021-06-20T07:18:23.000Z</Time>
            <Position>
              <LatitudeDegrees>38.83204001002013683319091796875</LatitudeDegrees>
              <LongitudeDegrees>-0.4133284091949462890625</LongitudeDegrees>
            </Position>
            <AltitudeMeters>895.79998779296875</AltitudeMeters>
            <DistanceMeters>12671.287650548</DistanceMeters>
          </Trackpoint>
          <Trackpoint>
            <Time>2021-06-20T07:18:33.000Z</Time>
            <Position>
              <LatitudeDegrees>38.8320466317236423492431640625</LatitudeDegrees>
              <LongitudeDegrees>-0.41355036199092864990234375</LongitudeDegrees>
            </Position>
            <AltitudeMeters>894.4000244140625</AltitudeMeters>
            <DistanceMeters>12690.545512308</DistanceMeters>
          </Trackpoint>
          <Trackpoint>
            <Time>2021-06-20T07:18:37.000Z</Time>
            <Position>
              <LatitudeDegrees>38.832044787704944610595703125</LatitudeDegrees>
              <LongitudeDegrees>-0.41354122571647167205810546875</LongitudeDegrees>
            </Position>
            <AltitudeMeters>894</AltitudeMeters>
            <DistanceMeters>12691.362963014</DistanceMeters>
          </Trackpoint>
          <Trackpoint>
            <Time>2021-06-20T07:18:39.000Z</Time>
            <Position>
              <LatitudeDegrees>38.8320439495146274566650390625</LatitudeDegrees>
              <LongitudeDegrees>-0.4135367833077907562255859375</LongitudeDegrees>
            </Position>
            <AltitudeMeters>894.20001220703125</AltitudeMeters>
            <DistanceMeters>12691.743069872</DistanceMeters>
          </Trackpoint>
          <Trackpoint>
            <Time>2021-06-20T07:18:47.000Z</Time>
            <Position>
              <LatitudeDegrees>38.83204051293432712554931640625</LatitudeDegrees>
              <LongitudeDegrees>-0.41351976804435253143310546875</LongitudeDegrees>
            </Position>
            <AltitudeMeters>894</AltitudeMeters>
            <DistanceMeters>12693.263497302</DistanceMeters>
          </Trackpoint>
          <Trackpoint>
            <Time>2021-06-20T07:18:49.000Z</Time>
            <Position>
              <LatitudeDegrees>38.83203967474400997161865234375</LatitudeDegrees>
              <LongitudeDegrees>-0.41351557709276676177978515625</LongitudeDegrees>
            </Position>
            <AltitudeMeters>893.79998779296875</AltitudeMeters>
            <DistanceMeters>12693.643604159</DistanceMeters>
          </Trackpoint>
          <Trackpoint>
            <Time>2021-06-20T07:18:51.000Z</Time>
            <Position>
              <LatitudeDegrees>38.83203883655369281768798828125</LatitudeDegrees>
              <LongitudeDegrees>-0.41351146996021270751953125</LongitudeDegrees>
            </Position>
            <AltitudeMeters>893.79998779296875</AltitudeMeters>
            <DistanceMeters>12694.011641041</DistanceMeters>
          </Trackpoint>
          <Trackpoint>
            <Time>2021-06-20T07:18:53.000Z</Time>
            <Position>
              <LatitudeDegrees>38.83203799836337566375732421875</LatitudeDegrees>
              <LongitudeDegrees>-0.41350736282765865325927734375</LongitudeDegrees>
            </Position>
            <AltitudeMeters>894</AltitudeMeters>
            <DistanceMeters>12694.379677923</DistanceMeters>
          </Trackpoint>
          <Trackpoint>
            <Time>2021-06-20T07:18:59.000Z</Time>
            <Position>
              <LatitudeDegrees>38.83203548379242420196533203125</LatitudeDegrees>
              <LongitudeDegrees>-0.41349512524902820587158203125</LongitudeDegrees>
            </Position>
            <AltitudeMeters>894.20001220703125</AltitudeMeters>
            <DistanceMeters>12695.475579455</DistanceMeters>
          </Trackpoint>
          <Trackpoint>
            <Time>2021-06-20T07:19:01.000Z</Time>
            <Position>
              <LatitudeDegrees>38.8320345617830753326416015625</LatitudeDegrees>
              <LongitudeDegrees>-0.41349126957356929779052734375</LongitudeDegrees>
            </Position>
            <AltitudeMeters>893.79998779296875</AltitudeMeters>
            <DistanceMeters>12695.818203146</DistanceMeters>
          </Trackpoint>
          <Trackpoint>
            <Time>2021-06-20T07:19:03.000Z</Time>
            <Position>
              <LatitudeDegrees>38.83203380741178989410400390625</LatitudeDegrees>
              <LongitudeDegrees>-0.41348758153617382049560546875</LongitudeDegrees>
            </Position>
            <AltitudeMeters>893.79998779296875</AltitudeMeters>
            <DistanceMeters>12696.147385341</DistanceMeters>
          </Trackpoint>
          <Trackpoint>
            <Time>2021-06-20T07:19:07.000Z</Time>
            <Position>
              <LatitudeDegrees>38.83203213103115558624267578125</LatitudeDegrees>
              <LongitudeDegrees>-0.4134817980229854583740234375</LongitudeDegrees>
            </Position>
            <AltitudeMeters>893.5999755859375</AltitudeMeters>
            <DistanceMeters>12696.684937614</DistanceMeters>
          </Trackpoint>
          <Trackpoint>
            <Time>2021-06-20T07:19:09.000Z</Time>
            <Position>
              <LatitudeDegrees>38.832031376659870147705078125</LatitudeDegrees>
              <LongitudeDegrees>-0.4134804569184780120849609375</LongitudeDegrees>
            </Position>
            <AltitudeMeters>893</AltitudeMeters>
            <DistanceMeters>12696.819325682</DistanceMeters>
          </Trackpoint>
          <Trackpoint>
            <Time>2021-06-20T07:19:11.000Z</Time>
            <Position>
              <LatitudeDegrees>38.83203078992664813995361328125</LatitudeDegrees>
              <LongitudeDegrees>-0.413481295108795166015625</LongitudeDegrees>
            </Position>
            <AltitudeMeters>892.79998779296875</AltitudeMeters>
            <DistanceMeters>12696.95371375</DistanceMeters>
          </Trackpoint>
          <Trackpoint>
            <Time>2021-06-20T07:19:13.000Z</Time>
            <Position>
              <LatitudeDegrees>38.83203028701245784759521484375</LatitudeDegrees>
              <LongitudeDegrees>-0.41348573751747608184814453125</LongitudeDegrees>
            </Position>
            <AltitudeMeters>892.79998779296875</AltitudeMeters>
            <DistanceMeters>12697.333820608</DistanceMeters>
          </Trackpoint>
          <Trackpoint>
            <Time>2021-06-20T07:19:15.000Z</Time>
            <Position>
              <LatitudeDegrees>38.8320302031934261322021484375</LatitudeDegrees>
              <LongitudeDegrees>-0.41349646635353565216064453125</LongitudeDegrees>
            </Position>
            <AltitudeMeters>893.5999755859375</AltitudeMeters>
            <DistanceMeters>12698.264888456</DistanceMeters>
          </Trackpoint>
          <Trackpoint>
            <Time>2021-06-20T07:19:25.000Z</Time>
            <Position>
              <LatitudeDegrees>38.83207554928958415985107421875</LatitudeDegrees>
              <LongitudeDegrees>-0.41380156762897968292236328125</LongitudeDegrees>
            </Position>
            <AltitudeMeters>894.5999755859375</AltitudeMeters>
            <DistanceMeters>12725.195197766</DistanceMeters>
          </Trackpoint>
          <Trackpoint>
            <Time>2021-06-20T07:19:27.000Z</Time>
            <Position>
              <LatitudeDegrees>38.83209331892430782318115234375</LatitudeDegrees>
              <LongitudeDegrees>-0.41387113742530345916748046875</LongitudeDegrees>
            </Position>
            <AltitudeMeters>895.20001220703125</AltitudeMeters>
            <DistanceMeters>12731.543522834</DistanceMeters>
          </Trackpoint>
          <Trackpoint>
            <Time>2021-06-20T07:19:29.000Z</Time>
            <Position>
              <LatitudeDegrees>38.83211083710193634033203125</LatitudeDegrees>
              <LongitudeDegrees>-0.4139417968690395355224609375</LongitudeDegrees>
            </Position>
            <AltitudeMeters>895.5999755859375</AltitudeMeters>
            <DistanceMeters>12737.97241542</DistanceMeters>
          </Trackpoint>
          <Trackpoint>
            <Time>2021-06-20T07:19:35.000Z</Time>
            <Position>
              <LatitudeDegrees>38.8321515731513500213623046875</LatitudeDegrees>
              <LongitudeDegrees>-0.41413181461393833160400390625</LongitudeDegrees>
            </Position>
            <AltitudeMeters>897.79998779296875</AltitudeMeters>
            <DistanceMeters>12755.059793562</DistanceMeters>
          </Trackpoint>
          <Trackpoint>
            <Time>2021-06-20T07:19:41.000Z</Time>
            <Position>
              <LatitudeDegrees>38.83219934999942779541015625</LatitudeDegrees>
              <LongitudeDegrees>-0.414194427430629730224609375</LongitudeDegrees>
            </Position>
            <AltitudeMeters>899.4000244140625</AltitudeMeters>
            <DistanceMeters>12762.658366374</DistanceMeters>
          </Trackpoint>
          <Trackpoint>
            <Time>2021-06-20T07:19:43.000Z</Time>
            <Position>
              <LatitudeDegrees>38.8320157863199710845947265625</LatitudeDegrees>
              <LongitudeDegrees>-0.4119391925632953643798828125</LongitudeDegrees>
            </Position>
            <AltitudeMeters>900.20001220703125</AltitudeMeters>
            <DistanceMeters>12959.257959674</DistanceMeters>
          </Trackpoint>
          <Trackpoint>
            <Time>2021-06-20T07:19:45.000Z</Time>
            <Position>
              <LatitudeDegrees>38.83198418654501438140869140625</LatitudeDegrees>
              <LongitudeDegrees>-0.4121742211282253265380859375</LongitudeDegrees>
            </Position>
            <AltitudeMeters>900.79998779296875</AltitudeMeters>
            <DistanceMeters>12979.936916853</DistanceMeters>
          </Trackpoint>
          <Trackpoint>
            <Time>2021-06-20T07:19:46.000Z</Time>
            <Position>
              <LatitudeDegrees>38.8320245034992694854736328125</LatitudeDegrees>
              <LongitudeDegrees>-0.41230036877095699310302734375</LongitudeDegrees>
            </Position>
            <AltitudeMeters>901.20001220703125</AltitudeMeters>
            <DistanceMeters>12991.7592484</DistanceMeters>
          </Trackpoint>
          <Trackpoint>
            <Time>2021-06-20T07:19:47.000Z</Time>
            <Position>
              <LatitudeDegrees>38.83199726231396198272705078125</LatitudeDegrees>
              <LongitudeDegrees>-0.41234739124774932861328125</LongitudeDegrees>
            </Position>
            <AltitudeMeters>901.5999755859375</AltitudeMeters>
            <DistanceMeters>12996.839401791</DistanceMeters>
          </Trackpoint>
          <Trackpoint>
            <Time>2021-06-20T07:19:49.000Z</Time>
            <Position>
              <LatitudeDegrees>38.83203615434467792510986328125</LatitudeDegrees>
              <LongitudeDegrees>-0.41260882280766963958740234375</LongitudeDegrees>
            </Position>
            <AltitudeMeters>902.4000244140625</AltitudeMeters>
            <DistanceMeters>13019.915832798</DistanceMeters>
          </Trackpoint>
          <Trackpoint>
            <Time>2021-06-20T07:19:51.000Z</Time>
            <Position>
              <LatitudeDegrees>38.8319825939834117889404296875</LatitudeDegrees>
              <LongitudeDegrees>-0.4131076298654079437255859375</LongitudeDegrees>
            </Position>
            <AltitudeMeters>903.20001220703125</AltitudeMeters>
            <DistanceMeters>13063.572722914</DistanceMeters>
          </Trackpoint>
          <Trackpoint>
            <Time>2021-06-20T07:19:52.000Z</Time>
            <Position>
              <LatitudeDegrees>38.831977061927318572998046875</LatitudeDegrees>
              <LongitudeDegrees>-0.41318667121231555938720703125</LongitudeDegrees>
            </Position>
            <AltitudeMeters>903.5999755859375</AltitudeMeters>
            <DistanceMeters>13070.454126904</DistanceMeters>
          </Trackpoint>
          <Trackpoint>
            <Time>2021-06-20T07:19:54.000Z</Time>
            <Position>
              <LatitudeDegrees>38.831962980329990386962890625</LatitudeDegrees>
              <LongitudeDegrees>-0.4133778624236583709716796875</LongitudeDegrees>
            </Position>
            <AltitudeMeters>904.20001220703125</AltitudeMeters>
            <DistanceMeters>13087.105236991</DistanceMeters>
          </Trackpoint>
          <Trackpoint>
            <Time>2021-06-20T07:19:55.000Z</Time>
            <Position>
              <LatitudeDegrees>38.8318397663533687591552734375</LatitudeDegrees>
              <LongitudeDegrees>-0.4145067371428012847900390625</LongitudeDegrees>
            </Position>
            <AltitudeMeters>904.5999755859375</AltitudeMeters>
            <DistanceMeters>13185.938136627</DistanceMeters>
          </Trackpoint>
          <Trackpoint>
            <Time>2021-06-20T07:19:56.000Z</Time>
            <Position>
              <LatitudeDegrees>38.83189047686755657196044921875</LatitudeDegrees>
              <LongitudeDegrees>-0.4145426116883754730224609375</LongitudeDegrees>
            </Position>
            <AltitudeMeters>904.79998779296875</AltitudeMeters>
            <DistanceMeters>13192.383161968</DistanceMeters>
          </Trackpoint>
          <Trackpoint>
            <Time>2021-06-20T07:19:58.000Z</Time>
            <Position>
              <LatitudeDegrees>38.83193758316338062286376953125</LatitudeDegrees>
              <LongitudeDegrees>-0.41464411653578281402587890625</LongitudeDegrees>
            </Position>
            <AltitudeMeters>906</AltitudeMeters>
            <DistanceMeters>13202.62755304</DistanceMeters>
          </Trackpoint>
          <Trackpoint>
            <Time>2021-06-20T07:20:00.000Z</Time>
            <Position>
              <LatitudeDegrees>38.83185476996004581451416015625</LatitudeDegrees>
              <LongitudeDegrees>-0.414518304169178009033203125</LongitudeDegrees>
            </Position>
            <AltitudeMeters>906.79998779296875</AltitudeMeters>
            <DistanceMeters>13216.908459051</DistanceMeters>
          </Trackpoint>
          <Trackpoint>
            <Time>2021-06-20T07:20:02.000Z</Time>
            <Position>
              <LatitudeDegrees>38.8317904807627201080322265625</LatitudeDegrees>
              <LongitudeDegrees>-0.41453850455582141876220703125</LongitudeDegrees>
            </Position>
            <AltitudeMeters>907.4000244140625</AltitudeMeters>
            <DistanceMeters>13224.275328089</DistanceMeters>
          </Trackpoint>
          <Trackpoint>
            <Time>2021-06-20T07:20:14.000Z</Time>
            <Position>
              <LatitudeDegrees>38.831641785800457000732421875</LatitudeDegrees>
              <LongitudeDegrees>-0.41509087197482585906982421875</LongitudeDegrees>
            </Position>
            <AltitudeMeters>909.79998779296875</AltitudeMeters>
            <DistanceMeters>13274.94640224</DistanceMeters>
          </Trackpoint>
          <Trackpoint>
            <Time>2021-06-20T07:20:28.000Z</Time>
            <Position>
              <LatitudeDegrees>38.83141840808093547821044921875</LatitudeDegrees>
              <LongitudeDegrees>-0.4155021719634532928466796875</LongitudeDegrees>
            </Position>
            <AltitudeMeters>913</AltitudeMeters>
            <DistanceMeters>13318.418813244</DistanceMeters>
          </Trackpoint>
          <Trackpoint>
            <Time>2021-06-20T07:20:34.000Z</Time>
            <Position>
              <LatitudeDegrees>38.83139845915138721466064453125</LatitudeDegrees>
              <LongitudeDegrees>-0.415634103119373321533203125</LongitudeDegrees>
            </Position>
            <AltitudeMeters>912.4000244140625</AltitudeMeters>
            <DistanceMeters>13330.071893934</DistanceMeters>
          </Trackpoint>
          <Trackpoint>
            <Time>2021-06-20T07:20:46.000Z</Time>
            <Position>
              <LatitudeDegrees>38.83146400563418865203857421875</LatitudeDegrees>
              <LongitudeDegrees>-0.4158818721771240234375</LongitudeDegrees>
            </Position>
            <AltitudeMeters>915.5999755859375</AltitudeMeters>
            <DistanceMeters>13352.759609056</DistanceMeters>
          </Trackpoint>
          <Trackpoint>
            <Time>2021-06-20T07:20:50.000Z</Time>
            <Position>
              <LatitudeDegrees>38.83148051798343658447265625</LatitudeDegrees>
              <LongitudeDegrees>-0.415968038141727447509765625</LongitudeDegrees>
            </Position>
            <AltitudeMeters>916.20001220703125</AltitudeMeters>
            <DistanceMeters>13360.453839438</DistanceMeters>
          </Trackpoint>
          <Trackpoint>
            <Time>2021-06-20T07:20:54.000Z</Time>
            <Position>
              <LatitudeDegrees>38.8314927555620670318603515625</LatitudeDegrees>
              <LongitudeDegrees>-0.41605931706726551055908203125</LongitudeDegrees>
            </Position>
            <AltitudeMeters>916.5999755859375</AltitudeMeters>
            <DistanceMeters>13368.484580746</DistanceMeters>
          </Trackpoint>
          <Trackpoint>
            <Time>2021-06-20T07:21:08.000Z</Time>
            <Position>
              <LatitudeDegrees>38.831469118595123291015625</LatitudeDegrees>
              <LongitudeDegrees>-0.41642074473202228546142578125</LongitudeDegrees>
            </Position>
            <AltitudeMeters>917.79998779296875</AltitudeMeters>
            <DistanceMeters>13399.931963019</DistanceMeters>
          </Trackpoint>
          <Trackpoint>
            <Time>2021-06-20T07:21:10.000Z</Time>
            <Position>
              <LatitudeDegrees>38.83145612664520740509033203125</LatitudeDegrees>
              <LongitudeDegrees>-0.4164727963507175445556640625</LongitudeDegrees>
            </Position>
            <AltitudeMeters>919.4000244140625</AltitudeMeters>
            <DistanceMeters>13404.671881815</DistanceMeters>
          </Trackpoint>
          <Trackpoint>
            <Time>2021-06-20T07:21:18.000Z</Time>
            <Position>
              <LatitudeDegrees>38.83144992403686046600341796875</LatitudeDegrees>
              <LongitudeDegrees>-0.416690222918987274169921875</LongitudeDegrees>
            </Position>
            <AltitudeMeters>920</AltitudeMeters>
            <DistanceMeters>13423.536060899</DistanceMeters>
          </Trackpoint>
          <Trackpoint>
            <Time>2021-06-20T07:21:32.000Z</Time>
            <Position>
              <LatitudeDegrees>38.83132360875606536865234375</LatitudeDegrees>
              <LongitudeDegrees>-0.41701988317072391510009765625</LongitudeDegrees>
            </Position>
            <AltitudeMeters>919.20001220703125</AltitudeMeters>
            <DistanceMeters>13455.389293378</DistanceMeters>
          </Trackpoint>
          <Trackpoint>
            <Time>2021-06-20T07:21:41.000Z</Time>
            <Position>
              <LatitudeDegrees>38.831236772239208221435546875</LatitudeDegrees>
              <LongitudeDegrees>-0.417251475155353546142578125</LongitudeDegrees>
            </Position>
            <AltitudeMeters>917.4000244140625</AltitudeMeters>
            <DistanceMeters>13477.674222907</DistanceMeters>
          </Trackpoint>
          <Trackpoint>
            <Time>2021-06-20T07:21:42.000Z</Time>
            <Position>
              <LatitudeDegrees>38.83114616386592388153076171875</LatitudeDegrees>
              <LongitudeDegrees>-0.4171302728354930877685546875</LongitudeDegrees>
            </Position>
            <AltitudeMeters>917</AltitudeMeters>
            <DistanceMeters>13492.23937261</DistanceMeters>
          </Trackpoint>
          <Trackpoint>
            <Time>2021-06-20T07:21:43.000Z</Time>
            <Position>
              <LatitudeDegrees>38.83107550442218780517578125</LatitudeDegrees>
              <LongitudeDegrees>-0.41708417236804962158203125</LongitudeDegrees>
            </Position>
            <AltitudeMeters>916.79998779296875</AltitudeMeters>
            <DistanceMeters>13501.062028613</DistanceMeters>
          </Trackpoint>
          <Trackpoint>
            <Time>2021-06-20T07:21:47.000Z</Time>
            <Position>
              <LatitudeDegrees>38.83097802288830280303955078125</LatitudeDegrees>
              <LongitudeDegrees>-0.4171138443052768707275390625</LongitudeDegrees>
            </Position>
            <AltitudeMeters>916</AltitudeMeters>
            <DistanceMeters>13512.212594633</DistanceMeters>
          </Trackpoint>
          <Trackpoint>
            <Time>2021-06-20T07:21:49.000Z</Time>
            <Position>
              <LatitudeDegrees>38.830943740904331207275390625</LatitudeDegrees>
              <LongitudeDegrees>-0.41716857813298702239990234375</LongitudeDegrees>
            </Position>
            <AltitudeMeters>915.79998779296875</AltitudeMeters>
            <DistanceMeters>13518.301723789</DistanceMeters>
          </Trackpoint>
          <Trackpoint>
            <Time>2021-06-20T07:21:51.000Z</Time>
            <Position>
              <LatitudeDegrees>38.83051064796745777130126953125</LatitudeDegrees>
              <LongitudeDegrees>-0.41691385209560394287109375</LongitudeDegrees>
            </Position>
            <AltitudeMeters>914</AltitudeMeters>
            <DistanceMeters>13571.32450163</DistanceMeters>
          </Trackpoint>
          <Trackpoint>
            <Time>2021-06-20T07:21:54.000Z</Time>
            <Position>
              <LatitudeDegrees>38.83055004291236400604248046875</LatitudeDegrees>
              <LongitudeDegrees>-0.41705198585987091064453125</LongitudeDegrees>
            </Position>
            <AltitudeMeters>912.79998779296875</AltitudeMeters>
            <DistanceMeters>13584.078630258</DistanceMeters>
          </Trackpoint>
          <Trackpoint>
            <Time>2021-06-20T07:21:55.000Z</Time>
            <Position>
              <LatitudeDegrees>38.83052255026996135711669921875</LatitudeDegrees>
              <LongitudeDegrees>-0.41706673800945281982421875</LongitudeDegrees>
            </Position>
            <AltitudeMeters>912.5999755859375</AltitudeMeters>
            <DistanceMeters>13587.395048976</DistanceMeters>
          </Trackpoint>
          <Trackpoint>
            <Time>2021-06-20T07:21:59.000Z</Time>
            <Position>
              <LatitudeDegrees>38.8304426707327365875244140625</LatitudeDegrees>
              <LongitudeDegrees>-0.41716572828590869903564453125</LongitudeDegrees>
            </Position>
            <AltitudeMeters>911.79998779296875</AltitudeMeters>
            <DistanceMeters>13599.752541551</DistanceMeters>
          </Trackpoint>
          <Trackpoint>
            <Time>2021-06-20T07:22:00.000Z</Time>
            <Position>
              <LatitudeDegrees>38.83042012341320514678955078125</LatitudeDegrees>
              <LongitudeDegrees>-0.41718517430126667022705078125</LongitudeDegrees>
            </Position>
            <AltitudeMeters>911.79998779296875</AltitudeMeters>
            <DistanceMeters>13602.775526394</DistanceMeters>
          </Trackpoint>
          <Trackpoint>
            <Time>2021-06-20T07:22:13.000Z</Time>
            <Position>
              <LatitudeDegrees>38.83035591803491115570068359375</LatitudeDegrees>
              <LongitudeDegrees>-0.4176657088100910186767578125</LongitudeDegrees>
            </Position>
            <AltitudeMeters>911</AltitudeMeters>
            <DistanceMeters>13645.048531703</DistanceMeters>
          </Trackpoint>
          <Trackpoint>
            <Time>2021-06-20T07:22:27.000Z</Time>
            <Position>
              <LatitudeDegrees>38.83003187365829944610595703125</LatitudeDegrees>
              <LongitudeDegrees>-0.41793568991124629974365234375</LongitudeDegrees>
            </Position>
            <AltitudeMeters>910.20001220703125</AltitudeMeters>
            <DistanceMeters>13688.045993615</DistanceMeters>
          </Trackpoint>
          <Trackpoint>
            <Time>2021-06-20T07:22:39.000Z</Time>
            <Position>
              <LatitudeDegrees>38.82981763221323490142822265625</LatitudeDegrees>
              <LongitudeDegrees>-0.41822939179837703704833984375</LongitudeDegrees>
            </Position>
            <AltitudeMeters>908.5999755859375</AltitudeMeters>
            <DistanceMeters>13722.9329653</DistanceMeters>
          </Trackpoint>
          <Trackpoint>
            <Time>2021-06-20T07:22:41.000Z</Time>
            <Position>
              <LatitudeDegrees>38.82978762499988079071044921875</LatitudeDegrees>
              <LongitudeDegrees>-0.4182856343686580657958984375</LongitudeDegrees>
            </Position>
            <AltitudeMeters>908</AltitudeMeters>
            <DistanceMeters>13728.842985239</DistanceMeters>
          </Trackpoint>
          <Trackpoint>
            <Time>2021-06-20T07:22:59.000Z</Time>
            <Position>
              <LatitudeDegrees>38.82960992865264415740966796875</LatitudeDegrees>
              <LongitudeDegrees>-0.418828614056110382080078125</LongitudeDegrees>
            </Position>
            <AltitudeMeters>906.4000244140625</AltitudeMeters>
            <DistanceMeters>13779.908063962</DistanceMeters>
          </Trackpoint>
          <Trackpoint>
            <Time>2021-06-20T07:24:09.000Z</Time>
            <Position>
              <LatitudeDegrees>38.82952191866934299468994140625</LatitudeDegrees>
              <LongitudeDegrees>-0.419137738645076751708984375</LongitudeDegrees>
            </Position>
            <AltitudeMeters>903.20001220703125</AltitudeMeters>
            <DistanceMeters>13808.444888485</DistanceMeters>
          </Trackpoint>
          <Trackpoint>
            <Time>2021-06-20T07:24:15.000Z</Time>
            <Position>
              <LatitudeDegrees>38.82943089120090007781982421875</LatitudeDegrees>
              <LongitudeDegrees>-0.419120304286479949951171875</LongitudeDegrees>
            </Position>
            <AltitudeMeters>903.20001220703125</AltitudeMeters>
            <DistanceMeters>13818.688398054</DistanceMeters>
          </Trackpoint>
          <Trackpoint>
            <Time>2021-06-20T07:24:16.000Z</Time>
            <Position>
              <LatitudeDegrees>38.8294683583080768585205078125</LatitudeDegrees>
              <LongitudeDegrees>-0.41920286603271961212158203125</LongitudeDegrees>
            </Position>
            <AltitudeMeters>903.20001220703125</AltitudeMeters>
            <DistanceMeters>13826.973179949</DistanceMeters>
          </Trackpoint>
          <Trackpoint>
            <Time>2021-06-20T07:24:17.000Z</Time>
            <Position>
              <LatitudeDegrees>38.82940582931041717529296875</LatitudeDegrees>
              <LongitudeDegrees>-0.41918325237929821014404296875</LongitudeDegrees>
            </Position>
            <AltitudeMeters>903.20001220703125</AltitudeMeters>
            <DistanceMeters>13834.1374632</DistanceMeters>
          </Trackpoint>
          <Trackpoint>
            <Time>2021-06-20T07:24:18.000Z</Time>
            <Position>
              <LatitudeDegrees>38.82938495837152004241943359375</LatitudeDegrees>
              <LongitudeDegrees>-0.4192368127405643463134765625</LongitudeDegrees>
            </Position>
            <AltitudeMeters>903.4000244140625</AltitudeMeters>
            <DistanceMeters>13839.330131904</DistanceMeters>
          </Trackpoint>
          <Trackpoint>
            <Time>2021-06-20T07:24:19.000Z</Time>
            <Position>
              <LatitudeDegrees>38.82939644157886505126953125</LatitudeDegrees>
              <LongitudeDegrees>-0.4193065501749515533447265625</LongitudeDegrees>
            </Position>
            <AltitudeMeters>903.4000244140625</AltitudeMeters>
            <DistanceMeters>13845.510522131</DistanceMeters>
          </Trackpoint>
          <Trackpoint>
            <Time>2021-06-20T07:24:20.000Z</Time>
            <Position>
              <LatitudeDegrees>38.8293919153511524200439453125</LatitudeDegrees>
              <LongitudeDegrees>-0.4193575121462345123291015625</LongitudeDegrees>
            </Position>
            <AltitudeMeters>903.79998779296875</AltitudeMeters>
            <DistanceMeters>13849.957528698</DistanceMeters>
          </Trackpoint>
          <Trackpoint>
            <Time>2021-06-20T07:24:21.000Z</Time>
            <Position>
              <LatitudeDegrees>38.82941647432744503021240234375</LatitudeDegrees>
              <LongitudeDegrees>-0.4194188676774501800537109375</LongitudeDegrees>
            </Position>
            <AltitudeMeters>904</AltitudeMeters>
            <DistanceMeters>13855.938930112</DistanceMeters>
          </Trackpoint>
          <Trackpoint>
            <Time>2021-06-20T07:24:22.000Z</Time>
            <Position>
              <LatitudeDegrees>38.82941932417452335357666015625</LatitudeDegrees>
              <LongitudeDegrees>-0.41946052573621273040771484375</LongitudeDegrees>
            </Position>
            <AltitudeMeters>904</AltitudeMeters>
            <DistanceMeters>13859.564918433</DistanceMeters>
          </Trackpoint>
          <Trackpoint>
            <Time>2021-06-20T07:24:23.000Z</Time>
            <Position>
              <LatitudeDegrees>38.82943374104797840118408203125</LatitudeDegrees>
              <LongitudeDegrees>-0.41950461454689502716064453125</LongitudeDegrees>
            </Position>
            <AltitudeMeters>904.4000244140625</AltitudeMeters>
            <DistanceMeters>13863.712483456</DistanceMeters>
          </Trackpoint>
          <Trackpoint>
            <Time>2021-06-20T07:24:24.000Z</Time>
            <Position>
              <LatitudeDegrees>38.82944463752210140228271484375</LatitudeDegrees>
              <LongitudeDegrees>-0.41954434476792812347412109375</LongitudeDegrees>
            </Position>
            <AltitudeMeters>904.5999755859375</AltitudeMeters>
            <DistanceMeters>13867.364527118</DistanceMeters>
          </Trackpoint>
          <Trackpoint>
            <Time>2021-06-20T07:24:32.000Z</Time>
            <Position>
              <LatitudeDegrees>38.82943357340991497039794921875</LatitudeDegrees>
              <LongitudeDegrees>-0.41976260952651500701904296875</LongitudeDegrees>
            </Position>
            <AltitudeMeters>904.4000244140625</AltitudeMeters>
            <DistanceMeters>13886.329440637</DistanceMeters>
          </Trackpoint>
          <Trackpoint>
            <Time>2021-06-20T07:24:35.000Z</Time>
            <Position>
              <LatitudeDegrees>38.8294643349945545196533203125</LatitudeDegrees>
              <LongitudeDegrees>-0.419923625886440277099609375</LongitudeDegrees>
            </Position>
            <AltitudeMeters>904</AltitudeMeters>
            <DistanceMeters>13900.704567396</DistanceMeters>
          </Trackpoint>
          <Trackpoint>
            <Time>2021-06-20T07:24:37.000Z</Time>
            <Position>
              <LatitudeDegrees>38.8294797576963901519775390625</LatitudeDegrees>
              <LongitudeDegrees>-0.4199978895485401153564453125</LongitudeDegrees>
            </Position>
            <AltitudeMeters>904.20001220703125</AltitudeMeters>
            <DistanceMeters>13907.368643922</DistanceMeters>
          </Trackpoint>
          <Trackpoint>
            <Time>2021-06-20T07:24:45.000Z</Time>
            <Position>
              <LatitudeDegrees>38.82950917817652225494384765625</LatitudeDegrees>
              <LongitudeDegrees>-0.42027331888675689697265625</LongitudeDegrees>
            </Position>
            <AltitudeMeters>901.79998779296875</AltitudeMeters>
            <DistanceMeters>13931.473608118</DistanceMeters>
          </Trackpoint>
          <Trackpoint>
            <Time>2021-06-20T07:24:47.000Z</Time>
            <Position>
              <LatitudeDegrees>38.82951169274747371673583984375</LatitudeDegrees>
              <LongitudeDegrees>-0.4203422181308269500732421875</LongitudeDegrees>
            </Position>
            <AltitudeMeters>900.4000244140625</AltitudeMeters>
            <DistanceMeters>13937.453499648</DistanceMeters>
          </Trackpoint>
          <Trackpoint>
            <Time>2021-06-20T07:25:05.000Z</Time>
            <Position>
              <LatitudeDegrees>38.82968100719153881072998046875</LatitudeDegrees>
              <LongitudeDegrees>-0.4208736307919025421142578125</LongitudeDegrees>
            </Position>
            <AltitudeMeters>898.20001220703125</AltitudeMeters>
            <DistanceMeters>13987.234801951</DistanceMeters>
          </Trackpoint>
          <Trackpoint>
            <Time>2021-06-20T07:25:13.000Z</Time>
            <Position>
              <LatitudeDegrees>38.82977488450706005096435546875</LatitudeDegrees>
              <LongitudeDegrees>-0.42110480368137359619140625</LongitudeDegrees>
            </Position>
            <AltitudeMeters>897.20001220703125</AltitudeMeters>
            <DistanceMeters>14009.838579407</DistanceMeters>
          </Trackpoint>
          <Trackpoint>
            <Time>2021-06-20T07:25:39.000Z</Time>
            <Position>
              <LatitudeDegrees>38.829864151775836944580078125</LatitudeDegrees>
              <LongitudeDegrees>-0.4219344444572925567626953125</LongitudeDegrees>
            </Position>
            <AltitudeMeters>893.4000244140625</AltitudeMeters>
            <DistanceMeters>14082.456027318</DistanceMeters>
          </Trackpoint>
          <Trackpoint>
            <Time>2021-06-20T07:25:45.000Z</Time>
            <Position>
              <LatitudeDegrees>38.82989005185663700103759765625</LatitudeDegrees>
              <LongitudeDegrees>-0.42211876250803470611572265625</LongitudeDegrees>
            </Position>
            <AltitudeMeters>892</AltitudeMeters>
            <DistanceMeters>14098.695311553</DistanceMeters>
          </Trackpoint>
          <Trackpoint>
            <Time>2021-06-20T07:25:47.000Z</Time>
            <Position>
              <LatitudeDegrees>38.829880915582180023193359375</LatitudeDegrees>
              <LongitudeDegrees>-0.42218313552439212799072265625</LongitudeDegrees>
            </Position>
            <AltitudeMeters>890.5999755859375</AltitudeMeters>
            <DistanceMeters>14104.368334772</DistanceMeters>
          </Trackpoint>
          <Trackpoint>
            <Time>2021-06-20T07:25:53.000Z</Time>
            <Position>
              <LatitudeDegrees>38.829872868955135345458984375</LatitudeDegrees>
              <LongitudeDegrees>-0.42237860150635242462158203125</LongitudeDegrees>
            </Position>
            <AltitudeMeters>888</AltitudeMeters>
            <DistanceMeters>14121.339584527</DistanceMeters>
          </Trackpoint>
          <Trackpoint>
            <Time>2021-06-20T07:25:55.000Z</Time>
            <Position>
              <LatitudeDegrees>38.82986188866198062896728515625</LatitudeDegrees>
              <LongitudeDegrees>-0.42244247160851955413818359375</LongitudeDegrees>
            </Position>
            <AltitudeMeters>886.79998779296875</AltitudeMeters>
            <DistanceMeters>14127.010219608</DistanceMeters>
          </Trackpoint>
          <Trackpoint>
            <Time>2021-06-20T07:25:57.000Z</Time>
            <Position>
              <LatitudeDegrees>38.8298425264656543731689453125</LatitudeDegrees>
              <LongitudeDegrees>-0.4225037433207035064697265625</LongitudeDegrees>
            </Position>
            <AltitudeMeters>886.5999755859375</AltitudeMeters>
            <DistanceMeters>14132.742622959</DistanceMeters>
          </Trackpoint>
          <Trackpoint>
            <Time>2021-06-20T07:26:05.000Z</Time>
            <Position>
              <LatitudeDegrees>38.82977723143994808197021484375</LatitudeDegrees>
              <LongitudeDegrees>-0.42275838553905487060546875</LongitudeDegrees>
            </Position>
            <AltitudeMeters>887</AltitudeMeters>
            <DistanceMeters>14155.987097441</DistanceMeters>
          </Trackpoint>
          <Trackpoint>
            <Time>2021-06-20T07:26:12.000Z</Time>
            <Position>
              <LatitudeDegrees>38.82974202744662761688232421875</LatitudeDegrees>
              <LongitudeDegrees>-0.4230375029146671295166015625</LongitudeDegrees>
            </Position>
            <AltitudeMeters>888</AltitudeMeters>
            <DistanceMeters>14180.503437262</DistanceMeters>
          </Trackpoint>
          <Trackpoint>
            <Time>2021-06-20T07:26:13.000Z</Time>
            <Position>
              <LatitudeDegrees>38.82981595583260059356689453125</LatitudeDegrees>
              <LongitudeDegrees>-0.42311989702284336090087890625</LongitudeDegrees>
            </Position>
            <AltitudeMeters>888.20001220703125</AltitudeMeters>
            <DistanceMeters>14191.400478385</DistanceMeters>
          </Trackpoint>
          <Trackpoint>
            <Time>2021-06-20T07:26:14.000Z</Time>
            <Position>
              <LatitudeDegrees>38.82985174655914306640625</LatitudeDegrees>
              <LongitudeDegrees>-0.42317815124988555908203125</LongitudeDegrees>
            </Position>
            <AltitudeMeters>888.20001220703125</AltitudeMeters>
            <DistanceMeters>14197.834285222</DistanceMeters>
          </Trackpoint>
          <Trackpoint>
            <Time>2021-06-20T07:26:15.000Z</Time>
            <Position>
              <LatitudeDegrees>38.82985987700521945953369140625</LatitudeDegrees>
              <LongitudeDegrees>-0.42321662418544292449951171875</LongitudeDegrees>
            </Position>
            <AltitudeMeters>887.5999755859375</AltitudeMeters>
            <DistanceMeters>14201.292004298</DistanceMeters>
          </Trackpoint>
          <Trackpoint>
            <Time>2021-06-20T07:26:18.000Z</Time>
            <Position>
              <LatitudeDegrees>38.82986985146999359130859375</LatitudeDegrees>
              <LongitudeDegrees>-0.42333095334470272064208984375</LongitudeDegrees>
            </Position>
            <AltitudeMeters>887.4000244140625</AltitudeMeters>
            <DistanceMeters>14211.266641247</DistanceMeters>
          </Trackpoint>
          <Trackpoint>
            <Time>2021-06-20T07:26:19.000Z</Time>
            <Position>
              <LatitudeDegrees>38.82986021228134632110595703125</LatitudeDegrees>
              <LongitudeDegrees>-0.423358865082263946533203125</LongitudeDegrees>
            </Position>
            <AltitudeMeters>887.20001220703125</AltitudeMeters>
            <DistanceMeters>14213.913779196</DistanceMeters>
          </Trackpoint>
          <Trackpoint>
            <Time>2021-06-20T07:26:24.000Z</Time>
            <Position>
              <LatitudeDegrees>38.82984814234077930450439453125</LatitudeDegrees>
              <LongitudeDegrees>-0.423486270010471343994140625</LongitudeDegrees>
            </Position>
            <AltitudeMeters>886.79998779296875</AltitudeMeters>
            <DistanceMeters>14225.042052573</DistanceMeters>
          </Trackpoint>
          <Trackpoint>
            <Time>2021-06-20T07:26:29.000Z</Time>
            <Position>
              <LatitudeDegrees>38.829821906983852386474609375</LatitudeDegrees>
              <LongitudeDegrees>-0.42350881733000278472900390625</LongitudeDegrees>
            </Position>
            <AltitudeMeters>886.4000244140625</AltitudeMeters>
            <DistanceMeters>14228.555471776</DistanceMeters>
          </Trackpoint>
          <Trackpoint>
            <Time>2021-06-20T07:26:30.000Z</Time>
            <Position>
              <LatitudeDegrees>38.8295044004917144775390625</LatitudeDegrees>
              <LongitudeDegrees>-0.423308908939361572265625</LongitudeDegrees>
            </Position>
            <AltitudeMeters>886.20001220703125</AltitudeMeters>
            <DistanceMeters>14267.916495842</DistanceMeters>
          </Trackpoint>
          <Trackpoint>
            <Time>2021-06-20T07:26:33.000Z</Time>
            <Position>
              <LatitudeDegrees>38.82906426675617694854736328125</LatitudeDegrees>
              <LongitudeDegrees>-0.42292359285056591033935546875</LongitudeDegrees>
            </Position>
            <AltitudeMeters>886</AltitudeMeters>
            <DistanceMeters>14327.212099595</DistanceMeters>
          </Trackpoint>
          <Trackpoint>
            <Time>2021-06-20T07:26:36.000Z</Time>
            <Position>
              <LatitudeDegrees>38.82925973273813724517822265625</LatitudeDegrees>
              <LongitudeDegrees>-0.42344712652266025543212890625</LongitudeDegrees>
            </Position>
            <AltitudeMeters>885.5999755859375</AltitudeMeters>
            <DistanceMeters>14377.549894845</DistanceMeters>
          </Trackpoint>
          <Trackpoint>
            <Time>2021-06-20T07:26:38.000Z</Time>
            <Position>
              <LatitudeDegrees>38.8292571343481540679931640625</LatitudeDegrees>
              <LongitudeDegrees>-0.4235273413360118865966796875</LongitudeDegrees>
            </Position>
            <AltitudeMeters>884.4000244140625</AltitudeMeters>
            <DistanceMeters>14384.511534039</DistanceMeters>
          </Trackpoint>
          <Trackpoint>
            <Time>2021-06-20T07:26:48.000Z</Time>
            <Position>
              <LatitudeDegrees>38.82930097170174121856689453125</LatitudeDegrees>
              <LongitudeDegrees>-0.42391282506287097930908203125</LongitudeDegrees>
            </Position>
            <AltitudeMeters>881</AltitudeMeters>
            <DistanceMeters>14418.289621445</DistanceMeters>
          </Trackpoint>
          <Trackpoint>
            <Time>2021-06-20T07:26:50.000Z</Time>
            <Position>
              <LatitudeDegrees>38.8293265365064144134521484375</LatitudeDegrees>
              <LongitudeDegrees>-0.42397887445986270904541015625</LongitudeDegrees>
            </Position>
            <AltitudeMeters>880.20001220703125</AltitudeMeters>
            <DistanceMeters>14424.684008526</DistanceMeters>
          </Trackpoint>
          <Trackpoint>
            <Time>2021-06-20T07:26:54.000Z</Time>
            <Position>
              <LatitudeDegrees>38.82937355898320674896240234375</LatitudeDegrees>
              <LongitudeDegrees>-0.4241070337593555450439453125</LongitudeDegrees>
            </Position>
            <AltitudeMeters>878.4000244140625</AltitudeMeters>
            <DistanceMeters>14436.96710737</DistanceMeters>
          </Trackpoint>
          <Trackpoint>
            <Time>2021-06-20T07:26:56.000Z</Time>
            <Position>
              <LatitudeDegrees>38.82938160561025142669677734375</LatitudeDegrees>
              <LongitudeDegrees>-0.4241724126040935516357421875</LongitudeDegrees>
            </Position>
            <AltitudeMeters>877.20001220703125</AltitudeMeters>
            <DistanceMeters>14442.706595053</DistanceMeters>
          </Trackpoint>
          <Trackpoint>
            <Time>2021-06-20T07:27:00.000Z</Time>
            <Position>
              <LatitudeDegrees>38.8294106908142566680908203125</LatitudeDegrees>
              <LongitudeDegrees>-0.42423762381076812744140625</LongitudeDegrees>
            </Position>
            <AltitudeMeters>876.20001220703125</AltitudeMeters>
            <DistanceMeters>14449.221298369</DistanceMeters>
          </Trackpoint>
          <Trackpoint>
            <Time>2021-06-20T07:27:02.000Z</Time>
            <Position>
              <LatitudeDegrees>38.82941261865198612213134765625</LatitudeDegrees>
              <LongitudeDegrees>-0.424249358475208282470703125</LongitudeDegrees>
            </Position>
            <AltitudeMeters>876</AltitudeMeters>
            <DistanceMeters>14450.262263869</DistanceMeters>
          </Trackpoint>
          <Trackpoint>
            <Time>2021-06-20T07:27:10.000Z</Time>
            <Position>
              <LatitudeDegrees>38.82941211573779582977294921875</LatitudeDegrees>
              <LongitudeDegrees>-0.42437307536602020263671875</LongitudeDegrees>
            </Position>
            <AltitudeMeters>875.20001220703125</AltitudeMeters>
            <DistanceMeters>14460.989344746</DistanceMeters>
          </Trackpoint>
          <Trackpoint>
            <Time>2021-06-20T07:27:16.000Z</Time>
            <Position>
              <LatitudeDegrees>38.82942737080156803131103515625</LatitudeDegrees>
              <LongitudeDegrees>-0.4245387017726898193359375</LongitudeDegrees>
            </Position>
            <AltitudeMeters>875.20001220703125</AltitudeMeters>
            <DistanceMeters>14475.449962997</DistanceMeters>
          </Trackpoint>
          <Trackpoint>
            <Time>2021-06-20T07:27:18.000Z</Time>
            <Position>
              <LatitudeDegrees>38.82943759672343730926513671875</LatitudeDegrees>
              <LongitudeDegrees>-0.42459343560039997100830078125</LongitudeDegrees>
            </Position>
            <AltitudeMeters>874.79998779296875</AltitudeMeters>
            <DistanceMeters>14480.330674181</DistanceMeters>
          </Trackpoint>
          <Trackpoint>
            <Time>2021-06-20T07:27:30.000Z</Time>
            <Position>
              <LatitudeDegrees>38.82947296835482120513916015625</LatitudeDegrees>
              <LongitudeDegrees>-0.42492267675697803497314453125</LongitudeDegrees>
            </Position>
            <AltitudeMeters>874</AltitudeMeters>
            <DistanceMeters>14509.148063898</DistanceMeters>
          </Trackpoint>
          <Trackpoint>
            <Time>2021-06-20T07:27:40.000Z</Time>
            <Position>
              <LatitudeDegrees>38.8295038975775241851806640625</LatitudeDegrees>
              <LongitudeDegrees>-0.425198189914226531982421875</LongitudeDegrees>
            </Position>
            <AltitudeMeters>873.79998779296875</AltitudeMeters>
            <DistanceMeters>14533.283352817</DistanceMeters>
          </Trackpoint>
          <Trackpoint>
            <Time>2021-06-20T07:27:52.000Z</Time>
            <Position>
              <LatitudeDegrees>38.82951554842293262481689453125</LatitudeDegrees>
              <LongitudeDegrees>-0.42553137056529521942138671875</LongitudeDegrees>
            </Position>
            <AltitudeMeters>870.4000244140625</AltitudeMeters>
            <DistanceMeters>14562.201154587</DistanceMeters>
          </Trackpoint>
          <Trackpoint>
            <Time>2021-06-20T07:27:54.000Z</Time>
            <Position>
              <LatitudeDegrees>38.82953231222927570343017578125</LatitudeDegrees>
              <LongitudeDegrees>-0.4255681671202182769775390625</LongitudeDegrees>
            </Position>
            <AltitudeMeters>869.20001220703125</AltitudeMeters>
            <DistanceMeters>14565.897437268</DistanceMeters>
          </Trackpoint>
          <Trackpoint>
            <Time>2021-06-20T07:28:00.000Z</Time>
            <Position>
              <LatitudeDegrees>38.8296041451394557952880859375</LatitudeDegrees>
              <LongitudeDegrees>-0.42551569640636444091796875</LongitudeDegrees>
            </Position>
            <AltitudeMeters>868</AltitudeMeters>
            <DistanceMeters>14575.096887058</DistanceMeters>
          </Trackpoint>
          <Trackpoint>
            <Time>2021-06-20T07:28:11.000Z</Time>
            <Position>
              <LatitudeDegrees>38.82975778542459011077880859375</LatitudeDegrees>
              <LongitudeDegrees>-0.42542307637631893157958984375</LongitudeDegrees>
            </Position>
            <AltitudeMeters>864.4000244140625</AltitudeMeters>
            <DistanceMeters>14593.989287687</DistanceMeters>
          </Trackpoint>
          <Trackpoint>
            <Time>2021-06-20T07:28:14.000Z</Time>
            <Position>
              <LatitudeDegrees>38.82992458529770374298095703125</LatitudeDegrees>
              <LongitudeDegrees>-0.4252473078668117523193359375</LongitudeDegrees>
            </Position>
            <AltitudeMeters>863.5999755859375</AltitudeMeters>
            <DistanceMeters>14618.008687846</DistanceMeters>
          </Trackpoint>
          <Trackpoint>
            <Time>2021-06-20T07:28:15.000Z</Time>
            <Position>
              <LatitudeDegrees>38.8299672491848468780517578125</LatitudeDegrees>
              <LongitudeDegrees>-0.42526264674961566925048828125</LongitudeDegrees>
            </Position>
            <AltitudeMeters>863</AltitudeMeters>
            <DistanceMeters>14622.93910018</DistanceMeters>
          </Trackpoint>
          <Trackpoint>
            <Time>2021-06-20T07:28:24.000Z</Time>
            <Position>
              <LatitudeDegrees>38.82999231107532978057861328125</LatitudeDegrees>
              <LongitudeDegrees>-0.42475637979805469512939453125</LongitudeDegrees>
            </Position>
            <AltitudeMeters>859.5999755859375</AltitudeMeters>
            <DistanceMeters>14666.923844783</DistanceMeters>
          </Trackpoint>
          <Trackpoint>
            <Time>2021-06-20T07:28:30.000Z</Time>
            <Position>
              <LatitudeDegrees>38.83010881952941417694091796875</LatitudeDegrees>
              <LongitudeDegrees>-0.4245140589773654937744140625</LongitudeDegrees>
            </Position>
            <AltitudeMeters>857.4000244140625</AltitudeMeters>
            <DistanceMeters>14691.613972377</DistanceMeters>
          </Trackpoint>
          <Trackpoint>
            <Time>2021-06-20T07:28:42.000Z</Time>
            <Position>
              <LatitudeDegrees>38.8300748728215694427490234375</LatitudeDegrees>
              <LongitudeDegrees>-0.42395196855068206787109375</LongitudeDegrees>
            </Position>
            <AltitudeMeters>854.20001220703125</AltitudeMeters>
            <DistanceMeters>14740.496512289</DistanceMeters>
          </Trackpoint>
          <Trackpoint>
            <Time>2021-06-20T07:28:43.000Z</Time>
            <Position>
              <LatitudeDegrees>38.83012508042156696319580078125</LatitudeDegrees>
              <LongitudeDegrees>-0.4239186085760593414306640625</LongitudeDegrees>
            </Position>
            <AltitudeMeters>853.5999755859375</AltitudeMeters>
            <DistanceMeters>14746.789117887</DistanceMeters>
          </Trackpoint>
          <Trackpoint>
            <Time>2021-06-20T07:28:46.000Z</Time>
            <Position>
              <LatitudeDegrees>38.83014452643692493438720703125</LatitudeDegrees>
              <LongitudeDegrees>-0.4243061877787113189697265625</LongitudeDegrees>
            </Position>
            <AltitudeMeters>852.79998779296875</AltitudeMeters>
            <DistanceMeters>14780.463721666</DistanceMeters>
          </Trackpoint>
          <Trackpoint>
            <Time>2021-06-20T07:28:47.000Z</Time>
            <Position>
              <LatitudeDegrees>38.8301318697631359100341796875</LatitudeDegrees>
              <LongitudeDegrees>-0.42437869124114513397216796875</LongitudeDegrees>
            </Position>
            <AltitudeMeters>852.5999755859375</AltitudeMeters>
            <DistanceMeters>14786.905944213</DistanceMeters>
          </Trackpoint>
          <Trackpoint>
            <Time>2021-06-20T07:28:49.000Z</Time>
            <Position>
              <LatitudeDegrees>38.830107562243938446044921875</LatitudeDegrees>
              <LongitudeDegrees>-0.4246860556304454803466796875</LongitudeDegrees>
            </Position>
            <AltitudeMeters>851.20001220703125</AltitudeMeters>
            <DistanceMeters>14813.693029429</DistanceMeters>
          </Trackpoint>
          <Trackpoint>
            <Time>2021-06-20T07:28:50.000Z</Time>
            <Position>
              <LatitudeDegrees>38.83010781370103359222412109375</LatitudeDegrees>
              <LongitudeDegrees>-0.424881689250469207763671875</LongitudeDegrees>
            </Position>
            <AltitudeMeters>850.79998779296875</AltitudeMeters>
            <DistanceMeters>14830.655231399</DistanceMeters>
          </Trackpoint>
          <Trackpoint>
            <Time>2021-06-20T07:28:51.000Z</Time>
            <Position>
              <LatitudeDegrees>38.82957539521157741546630859375</LatitudeDegrees>
              <LongitudeDegrees>-0.4249023087322711944580078125</LongitudeDegrees>
            </Position>
            <AltitudeMeters>850</AltitudeMeters>
            <DistanceMeters>14889.941392473</DistanceMeters>
          </Trackpoint>
          <Trackpoint>
            <Time>2021-06-20T07:28:53.000Z</Time>
            <Position>
              <LatitudeDegrees>38.829525522887706756591796875</LatitudeDegrees>
              <LongitudeDegrees>-0.42493759654462337493896484375</LongitudeDegrees>
            </Position>
            <AltitudeMeters>848.79998779296875</AltitudeMeters>
            <DistanceMeters>14896.279040303</DistanceMeters>
          </Trackpoint>
          <Trackpoint>
            <Time>2021-06-20T07:28:56.000Z</Time>
            <Position>
              <LatitudeDegrees>38.82951940409839153289794921875</LatitudeDegrees>
              <LongitudeDegrees>-0.4248496703803539276123046875</LongitudeDegrees>
            </Position>
            <AltitudeMeters>847.4000244140625</AltitudeMeters>
            <DistanceMeters>14903.932083869</DistanceMeters>
          </Trackpoint>
          <Trackpoint>
            <Time>2021-06-20T07:28:57.000Z</Time>
            <Position>
              <LatitudeDegrees>38.82954119704663753509521484375</LatitudeDegrees>
              <LongitudeDegrees>-0.42483315803110599517822265625</LongitudeDegrees>
            </Position>
            <AltitudeMeters>847</AltitudeMeters>
            <DistanceMeters>14906.747826598</DistanceMeters>
          </Trackpoint>
          <Trackpoint>
            <Time>2021-06-20T07:28:58.000Z</Time>
            <Position>
              <LatitudeDegrees>38.829530216753482818603515625</LatitudeDegrees>
              <LongitudeDegrees>-0.42482578195631504058837890625</LongitudeDegrees>
            </Position>
            <AltitudeMeters>846.79998779296875</AltitudeMeters>
            <DistanceMeters>14908.131436444</DistanceMeters>
          </Trackpoint>
          <Trackpoint>
            <Time>2021-06-20T07:29:01.000Z</Time>
            <Position>
              <LatitudeDegrees>38.8294814340770244598388671875</LatitudeDegrees>
              <LongitudeDegrees>-0.42511093430221080780029296875</LongitudeDegrees>
            </Position>
            <AltitudeMeters>846.5999755859375</AltitudeMeters>
            <DistanceMeters>14933.445133419</DistanceMeters>
          </Trackpoint>
          <Trackpoint>
            <Time>2021-06-20T07:29:03.000Z</Time>
            <Position>
              <LatitudeDegrees>38.82961998693645000457763671875</LatitudeDegrees>
              <LongitudeDegrees>-0.42540916241705417633056640625</LongitudeDegrees>
            </Position>
            <AltitudeMeters>846</AltitudeMeters>
            <DistanceMeters>14963.552709935</DistanceMeters>
          </Trackpoint>
          <Trackpoint>
            <Time>2021-06-20T07:29:05.000Z</Time>
            <Position>
              <LatitudeDegrees>38.8297530077397823333740234375</LatitudeDegrees>
              <LongitudeDegrees>-0.4257161915302276611328125</LongitudeDegrees>
            </Position>
            <AltitudeMeters>845.20001220703125</AltitudeMeters>
            <DistanceMeters>14994.014071282</DistanceMeters>
          </Trackpoint>
          <Trackpoint>
            <Time>2021-06-20T07:29:11.000Z</Time>
            <Position>
              <LatitudeDegrees>38.83012239821255207061767578125</LatitudeDegrees>
              <LongitudeDegrees>-0.426457487046718597412109375</LongitudeDegrees>
            </Position>
            <AltitudeMeters>841.79998779296875</AltitudeMeters>
            <DistanceMeters>15070.313007985</DistanceMeters>
          </Trackpoint>
          <Trackpoint>
            <Time>2021-06-20T07:29:13.000Z</Time>
            <Position>
              <LatitudeDegrees>38.83027696050703525543212890625</LatitudeDegrees>
              <LongitudeDegrees>-0.4266710579395294189453125</LongitudeDegrees>
            </Position>
            <AltitudeMeters>839.20001220703125</AltitudeMeters>
            <DistanceMeters>15095.588506362</DistanceMeters>
          </Trackpoint>
          <Trackpoint>
            <Time>2021-06-20T07:30:03.000Z</Time>
            <Position>
              <LatitudeDegrees>38.8301647268235683441162109375</LatitudeDegrees>
              <LongitudeDegrees>-0.426961742341518402099609375</LongitudeDegrees>
            </Position>
            <AltitudeMeters>837.4000244140625</AltitudeMeters>
            <DistanceMeters>15123.718018951</DistanceMeters>
          </Trackpoint>
          <Trackpoint>
            <Time>2021-06-20T07:30:06.000Z</Time>
            <Position>
              <LatitudeDegrees>38.83027620613574981689453125</LatitudeDegrees>
              <LongitudeDegrees>-0.42738075368106365203857421875</LongitudeDegrees>
            </Position>
            <AltitudeMeters>837.20001220703125</AltitudeMeters>
            <DistanceMeters>15162.108811556</DistanceMeters>
          </Trackpoint>
          <Trackpoint>
            <Time>2021-06-20T07:30:07.000Z</Time>
            <Position>
              <LatitudeDegrees>38.83032004348933696746826171875</LatitudeDegrees>
              <LongitudeDegrees>-0.42758191935718059539794921875</LongitudeDegrees>
            </Position>
            <AltitudeMeters>836.79998779296875</AltitudeMeters>
            <DistanceMeters>15180.220813573</DistanceMeters>
          </Trackpoint>
          <Trackpoint>
            <Time>2021-06-20T07:30:08.000Z</Time>
            <Position>
              <LatitudeDegrees>38.830377124249935150146484375</LatitudeDegrees>
              <LongitudeDegrees>-0.42779129929840564727783203125</LongitudeDegrees>
            </Position>
            <AltitudeMeters>836.4000244140625</AltitudeMeters>
            <DistanceMeters>15199.454746394</DistanceMeters>
          </Trackpoint>
          <Trackpoint>
            <Time>2021-06-20T07:30:13.000Z</Time>
            <Position>
              <LatitudeDegrees>38.830307386815547943115234375</LatitudeDegrees>
              <LongitudeDegrees>-0.427286624908447265625</LongitudeDegrees>
            </Position>
            <AltitudeMeters>836</AltitudeMeters>
            <DistanceMeters>15243.895561859</DistanceMeters>
          </Trackpoint>
          <Trackpoint>
            <Time>2021-06-20T07:30:14.000Z</Time>
            <Position>
              <LatitudeDegrees>38.83030428551137447357177734375</LatitudeDegrees>
              <LongitudeDegrees>-0.4270745627582073211669921875</LongitudeDegrees>
            </Position>
            <AltitudeMeters>835.79998779296875</AltitudeMeters>
            <DistanceMeters>15262.285625018</DistanceMeters>
          </Trackpoint>
          <Trackpoint>
            <Time>2021-06-20T07:30:19.000Z</Time>
            <Position>
              <LatitudeDegrees>38.83024326525628566741943359375</LatitudeDegrees>
              <LongitudeDegrees>-0.42714723385870456695556640625</LongitudeDegrees>
            </Position>
            <AltitudeMeters>835.20001220703125</AltitudeMeters>
            <DistanceMeters>15271.549633142</DistanceMeters>
          </Trackpoint>
          <Trackpoint>
            <Time>2021-06-20T07:30:27.000Z</Time>
            <Position>
              <LatitudeDegrees>38.83001200854778289794921875</LatitudeDegrees>
              <LongitudeDegrees>-0.42689502239227294921875</LongitudeDegrees>
            </Position>
            <AltitudeMeters>832.20001220703125</AltitudeMeters>
            <DistanceMeters>15305.324245009</DistanceMeters>
          </Trackpoint>
          <Trackpoint>
            <Time>2021-06-20T07:30:31.000Z</Time>
            <Position>
              <LatitudeDegrees>38.82988594472408294677734375</LatitudeDegrees>
              <LongitudeDegrees>-0.42680718004703521728515625</LongitudeDegrees>
            </Position>
            <AltitudeMeters>830.79998779296875</AltitudeMeters>
            <DistanceMeters>15321.289298648</DistanceMeters>
          </Trackpoint>
          <Trackpoint>
            <Time>2021-06-20T07:30:35.000Z</Time>
            <Position>
              <LatitudeDegrees>38.82977664470672607421875</LatitudeDegrees>
              <LongitudeDegrees>-0.42671657167375087738037109375</LongitudeDegrees>
            </Position>
            <AltitudeMeters>829.4000244140625</AltitudeMeters>
            <DistanceMeters>15335.770821197</DistanceMeters>
          </Trackpoint>
          <Trackpoint>
            <Time>2021-06-20T07:30:42.000Z</Time>
            <Position>
              <LatitudeDegrees>38.82970154285430908203125</LatitudeDegrees>
              <LongitudeDegrees>-0.4265729896724224090576171875</LongitudeDegrees>
            </Position>
            <AltitudeMeters>828.20001220703125</AltitudeMeters>
            <DistanceMeters>15350.7660849</DistanceMeters>
          </Trackpoint>
          <Trackpoint>
            <Time>2021-06-20T07:30:44.000Z</Time>
            <Position>
              <LatitudeDegrees>38.83000739850103855133056640625</LatitudeDegrees>
              <LongitudeDegrees>-0.4267247021198272705078125</LongitudeDegrees>
            </Position>
            <AltitudeMeters>828.20001220703125</AltitudeMeters>
            <DistanceMeters>15387.261539622</DistanceMeters>
          </Trackpoint>
          <Trackpoint>
            <Time>2021-06-20T07:30:47.000Z</Time>
            <Position>
              <LatitudeDegrees>38.829988203942775726318359375</LatitudeDegrees>
              <LongitudeDegrees>-0.4269696213304996490478515625</LongitudeDegrees>
            </Position>
            <AltitudeMeters>828.4000244140625</AltitudeMeters>
            <DistanceMeters>15408.604294274</DistanceMeters>
          </Trackpoint>
          <Trackpoint>
            <Time>2021-06-20T07:30:49.000Z</Time>
            <Position>
              <LatitudeDegrees>38.82994269020855426788330078125</LatitudeDegrees>
              <LongitudeDegrees>-0.42726315557956695556640625</LongitudeDegrees>
            </Position>
            <AltitudeMeters>829.20001220703125</AltitudeMeters>
            <DistanceMeters>15434.554591976</DistanceMeters>
          </Trackpoint>
          <Trackpoint>
            <Time>2021-06-20T07:30:50.000Z</Time>
            <Position>
              <LatitudeDegrees>38.82995241321623325347900390625</LatitudeDegrees>
              <LongitudeDegrees>-0.42736105620861053466796875</LongitudeDegrees>
            </Position>
            <AltitudeMeters>829.5999755859375</AltitudeMeters>
            <DistanceMeters>15443.112273903</DistanceMeters>
          </Trackpoint>
          <Trackpoint>
            <Time>2021-06-20T07:30:51.000Z</Time>
            <Position>
              <LatitudeDegrees>38.82995962165296077728271484375</LatitudeDegrees>
              <LongitudeDegrees>-0.42742031626403331756591796875</LongitudeDegrees>
            </Position>
            <AltitudeMeters>829.79998779296875</AltitudeMeters>
            <DistanceMeters>15448.31276224</DistanceMeters>
          </Trackpoint>
          <Trackpoint>
            <Time>2021-06-20T07:30:54.000Z</Time>
            <Position>
              <LatitudeDegrees>38.82987412624061107635498046875</LatitudeDegrees>
              <LongitudeDegrees>-0.427475385367870330810546875</LongitudeDegrees>
            </Position>
            <AltitudeMeters>830</AltitudeMeters>
            <DistanceMeters>15458.959571603</DistanceMeters>
          </Trackpoint>
          <Trackpoint>
            <Time>2021-06-20T07:30:58.000Z</Time>
            <Position>
              <LatitudeDegrees>38.82962786592543125152587890625</LatitudeDegrees>
              <LongitudeDegrees>-0.427230633795261383056640625</LongitudeDegrees>
            </Position>
            <AltitudeMeters>830.5999755859375</AltitudeMeters>
            <DistanceMeters>15493.623879071</DistanceMeters>
          </Trackpoint>
          <Trackpoint>
            <Time>2021-06-20T07:30:59.000Z</Time>
            <Position>
              <LatitudeDegrees>38.82962283678352832794189453125</LatitudeDegrees>
              <LongitudeDegrees>-0.42725603096187114715576171875</LongitudeDegrees>
            </Position>
            <AltitudeMeters>830.79998779296875</AltitudeMeters>
            <DistanceMeters>15495.896587527</DistanceMeters>
          </Trackpoint>
          <Trackpoint>
            <Time>2021-06-20T07:31:00.000Z</Time>
            <Position>
              <LatitudeDegrees>38.82963105104863643646240234375</LatitudeDegrees>
              <LongitudeDegrees>-0.42740304954349994659423828125</LongitudeDegrees>
            </Position>
            <AltitudeMeters>831</AltitudeMeters>
            <DistanceMeters>15508.676532466</DistanceMeters>
          </Trackpoint>
          <Trackpoint>
            <Time>2021-06-20T07:31:01.000Z</Time>
            <Position>
              <LatitudeDegrees>38.82965334691107273101806640625</LatitudeDegrees>
              <LongitudeDegrees>-0.427520982921123504638671875</LongitudeDegrees>
            </Position>
            <AltitudeMeters>831.20001220703125</AltitudeMeters>
            <DistanceMeters>15519.198783522</DistanceMeters>
          </Trackpoint>
          <Trackpoint>
            <Time>2021-06-20T07:31:02.000Z</Time>
            <Position>
              <LatitudeDegrees>38.82970732636749744415283203125</LatitudeDegrees>
              <LongitudeDegrees>-0.42775860987603664398193359375</LongitudeDegrees>
            </Position>
            <AltitudeMeters>831.4000244140625</AltitudeMeters>
            <DistanceMeters>15540.660520153</DistanceMeters>
          </Trackpoint>
          <Trackpoint>
            <Time>2021-06-20T07:31:08.000Z</Time>
            <Position>
              <LatitudeDegrees>38.83009976707398891448974609375</LatitudeDegrees>
              <LongitudeDegrees>-0.4289547912776470184326171875</LongitudeDegrees>
            </Position>
            <AltitudeMeters>834</AltitudeMeters>
            <DistanceMeters>15653.198471858</DistanceMeters>
          </Trackpoint>
          <Trackpoint>
            <Time>2021-06-20T07:31:12.000Z</Time>
            <Position>
              <LatitudeDegrees>38.830201439559459686279296875</LatitudeDegrees>
              <LongitudeDegrees>-0.4296015389263629913330078125</LongitudeDegrees>
            </Position>
            <AltitudeMeters>832.4000244140625</AltitudeMeters>
            <DistanceMeters>15710.405264237</DistanceMeters>
          </Trackpoint>
          <Trackpoint>
            <Time>2021-06-20T07:31:16.000Z</Time>
            <Position>
              <LatitudeDegrees>38.8303481228649616241455078125</LatitudeDegrees>
              <LongitudeDegrees>-0.43012213893234729766845703125</LongitudeDegrees>
            </Position>
            <AltitudeMeters>831.5999755859375</AltitudeMeters>
            <DistanceMeters>15758.405608348</DistanceMeters>
          </Trackpoint>
          <Trackpoint>
            <Time>2021-06-20T07:31:26.000Z</Time>
            <Position>
              <LatitudeDegrees>38.83070896379649639129638671875</LatitudeDegrees>
              <LongitudeDegrees>-0.43108773417770862579345703125</LongitudeDegrees>
            </Position>
            <AltitudeMeters>830.20001220703125</AltitudeMeters>
            <DistanceMeters>15851.26202607</DistanceMeters>
          </Trackpoint>
          <Trackpoint>
            <Time>2021-06-20T07:31:32.000Z</Time>
            <Position>
              <LatitudeDegrees>38.830782137811183929443359375</LatitudeDegrees>
              <LongitudeDegrees>-0.43159651570022106170654296875</LongitudeDegrees>
            </Position>
            <AltitudeMeters>829.79998779296875</AltitudeMeters>
            <DistanceMeters>15896.121278578</DistanceMeters>
          </Trackpoint>
          <Trackpoint>
            <Time>2021-06-20T07:31:44.000Z</Time>
            <Position>
              <LatitudeDegrees>38.8309945352375507354736328125</LatitudeDegrees>
              <LongitudeDegrees>-0.4324027709662914276123046875</LongitudeDegrees>
            </Position>
            <AltitudeMeters>827.79998779296875</AltitudeMeters>
            <DistanceMeters>15969.916115121</DistanceMeters>
          </Trackpoint>
          <Trackpoint>
            <Time>2021-06-20T07:31:46.000Z</Time>
            <Position>
              <LatitudeDegrees>38.831032253801822662353515625</LatitudeDegrees>
              <LongitudeDegrees>-0.43252489529550075531005859375</LongitudeDegrees>
            </Position>
            <AltitudeMeters>827.5999755859375</AltitudeMeters>
            <DistanceMeters>15981.30664357</DistanceMeters>
          </Trackpoint>
          <Trackpoint>
            <Time>2021-06-20T07:32:10.000Z</Time>
            <Position>
              <LatitudeDegrees>38.8314116187393665313720703125</LatitudeDegrees>
              <LongitudeDegrees>-0.434017963707447052001953125</LongitudeDegrees>
            </Position>
            <AltitudeMeters>829</AltitudeMeters>
            <DistanceMeters>16117.473492739</DistanceMeters>
          </Trackpoint>
          <Trackpoint>
            <Time>2021-06-20T07:32:12.000Z</Time>
            <Position>
              <LatitudeDegrees>38.83145637810230255126953125</LatitudeDegrees>
              <LongitudeDegrees>-0.4341438598930835723876953125</LongitudeDegrees>
            </Position>
            <AltitudeMeters>829.4000244140625</AltitudeMeters>
            <DistanceMeters>16129.47247348</DistanceMeters>
          </Trackpoint>
          <Trackpoint>
            <Time>2021-06-20T07:32:24.000Z</Time>
            <Position>
              <LatitudeDegrees>38.831730969250202178955078125</LatitudeDegrees>
              <LongitudeDegrees>-0.43496386148035526275634765625</LongitudeDegrees>
            </Position>
            <AltitudeMeters>831.5999755859375</AltitudeMeters>
            <DistanceMeters>16206.860049992</DistanceMeters>
          </Trackpoint>
          <Trackpoint>
            <Time>2021-06-20T07:32:34.000Z</Time>
            <Position>
              <LatitudeDegrees>38.83205140940845012664794921875</LatitudeDegrees>
              <LongitudeDegrees>-0.43577120639383792877197265625</LongitudeDegrees>
            </Position>
            <AltitudeMeters>833.4000244140625</AltitudeMeters>
            <DistanceMeters>16285.421687122</DistanceMeters>
          </Trackpoint>
          <Trackpoint>
            <Time>2021-06-20T07:32:43.000Z</Time>
            <Position>
              <LatitudeDegrees>38.83265842683613300323486328125</LatitudeDegrees>
              <LongitudeDegrees>-0.43735270388424396514892578125</LongitudeDegrees>
            </Position>
            <AltitudeMeters>834.20001220703125</AltitudeMeters>
            <DistanceMeters>16438.2826653</DistanceMeters>
          </Trackpoint>
          <Trackpoint>
            <Time>2021-06-20T07:32:44.000Z</Time>
            <Position>
              <LatitudeDegrees>38.832307644188404083251953125</LatitudeDegrees>
              <LongitudeDegrees>-0.43717282824218273162841796875</LongitudeDegrees>
            </Position>
            <AltitudeMeters>834.20001220703125</AltitudeMeters>
            <DistanceMeters>16480.325087011</DistanceMeters>
          </Trackpoint>
          <Trackpoint>
            <Time>2021-06-20T07:32:47.000Z</Time>
            <Position>
              <LatitudeDegrees>38.8322856836020946502685546875</LatitudeDegrees>
              <LongitudeDegrees>-0.43681316077709197998046875</LongitudeDegrees>
            </Position>
            <AltitudeMeters>834.20001220703125</AltitudeMeters>
            <DistanceMeters>16511.604902273</DistanceMeters>
          </Trackpoint>
          <Trackpoint>
            <Time>2021-06-20T07:32:54.000Z</Time>
            <Position>
              <LatitudeDegrees>38.8288692198693752288818359375</LatitudeDegrees>
              <LongitudeDegrees>-0.432086773216724395751953125</LongitudeDegrees>
            </Position>
            <AltitudeMeters>834</AltitudeMeters>
            <DistanceMeters>17070.651287023</DistanceMeters>
          </Trackpoint>
          <Trackpoint>
            <Time>2021-06-20T07:32:55.000Z</Time>
            <Position>
              <LatitudeDegrees>38.82878464646637439727783203125</LatitudeDegrees>
              <LongitudeDegrees>-0.43175945989787578582763671875</LongitudeDegrees>
            </Position>
            <AltitudeMeters>833.79998779296875</AltitudeMeters>
            <DistanceMeters>17100.55195271</DistanceMeters>
          </Trackpoint>
          <Trackpoint>
            <Time>2021-06-20T07:32:57.000Z</Time>
            <Position>
              <LatitudeDegrees>38.828687332570552825927734375</LatitudeDegrees>
              <LongitudeDegrees>-0.43129426427185535430908203125</LongitudeDegrees>
            </Position>
            <AltitudeMeters>834</AltitudeMeters>
            <DistanceMeters>17142.316599078</DistanceMeters>
          </Trackpoint>
          <Trackpoint>
            <Time>2021-06-20T07:33:00.000Z</Time>
            <Position>
              <LatitudeDegrees>38.8286117278039455413818359375</LatitudeDegrees>
              <LongitudeDegrees>-0.43051399290561676025390625</LongitudeDegrees>
            </Position>
            <AltitudeMeters>834.5999755859375</AltitudeMeters>
            <DistanceMeters>17210.49295222</DistanceMeters>
          </Trackpoint>
          <Trackpoint>
            <Time>2021-06-20T07:33:02.000Z</Time>
            <Position>
              <LatitudeDegrees>38.82870082743465900421142578125</LatitudeDegrees>
              <LongitudeDegrees>-0.43033294379711151123046875</LongitudeDegrees>
            </Position>
            <AltitudeMeters>835</AltitudeMeters>
            <DistanceMeters>17229.061376461</DistanceMeters>
          </Trackpoint>
          <Trackpoint>
            <Time>2021-06-20T07:33:04.000Z</Time>
            <Position>
              <LatitudeDegrees>38.82872949354350566864013671875</LatitudeDegrees>
              <LongitudeDegrees>-0.43032892048358917236328125</LongitudeDegrees>
            </Position>
            <AltitudeMeters>835</AltitudeMeters>
            <DistanceMeters>17232.269847615</DistanceMeters>
          </Trackpoint>
          <Trackpoint>
            <Time>2021-06-20T07:33:06.000Z</Time>
            <Position>
              <LatitudeDegrees>38.8286921940743923187255859375</LatitudeDegrees>
              <LongitudeDegrees>-0.4304243065416812896728515625</LongitudeDegrees>
            </Position>
            <AltitudeMeters>835.20001220703125</AltitudeMeters>
            <DistanceMeters>17241.524103122</DistanceMeters>
          </Trackpoint>
          <Trackpoint>
            <Time>2021-06-20T07:33:08.000Z</Time>
            <Position>
              <LatitudeDegrees>38.82861457765102386474609375</LatitudeDegrees>
              <LongitudeDegrees>-0.4305537231266498565673828125</LongitudeDegrees>
            </Position>
            <AltitudeMeters>835.4000244140625</AltitudeMeters>
            <DistanceMeters>17255.685634386</DistanceMeters>
          </Trackpoint>
          <Trackpoint>
            <Time>2021-06-20T07:33:10.000Z</Time>
            <Position>
              <LatitudeDegrees>38.828527741134166717529296875</LatitudeDegrees>
              <LongitudeDegrees>-0.43069629929959774017333984375</LongitudeDegrees>
            </Position>
            <AltitudeMeters>835.79998779296875</AltitudeMeters>
            <DistanceMeters>17271.377707371</DistanceMeters>
          </Trackpoint>
          <Trackpoint>
            <Time>2021-06-20T07:33:12.000Z</Time>
            <Position>
              <LatitudeDegrees>38.82843126542866230010986328125</LatitudeDegrees>
              <LongitudeDegrees>-0.43082781136035919189453125</LongitudeDegrees>
            </Position>
            <AltitudeMeters>836.4000244140625</AltitudeMeters>
            <DistanceMeters>17287.040404672</DistanceMeters>
          </Trackpoint>
          <Trackpoint>
            <Time>2021-06-20T07:33:14.000Z</Time>
            <Position>
              <LatitudeDegrees>38.828340657055377960205078125</LatitudeDegrees>
              <LongitudeDegrees>-0.43095194734632968902587890625</LongitudeDegrees>
            </Position>
            <AltitudeMeters>836.79998779296875</AltitudeMeters>
            <DistanceMeters>17301.79037524</DistanceMeters>
          </Trackpoint>
          <Trackpoint>
            <Time>2021-06-20T07:33:16.000Z</Time>
            <Position>
              <LatitudeDegrees>38.82826278917491436004638671875</LatitudeDegrees>
              <LongitudeDegrees>-0.4310734011232852935791015625</LongitudeDegrees>
            </Position>
            <AltitudeMeters>837.20001220703125</AltitudeMeters>
            <DistanceMeters>17315.429274563</DistanceMeters>
          </Trackpoint>
          <Trackpoint>
            <Time>2021-06-20T07:33:22.000Z</Time>
            <Position>
              <LatitudeDegrees>38.828154243528842926025390625</LatitudeDegrees>
              <LongitudeDegrees>-0.43143801391124725341796875</LongitudeDegrees>
            </Position>
            <AltitudeMeters>837.5999755859375</AltitudeMeters>
            <DistanceMeters>17349.273729601</DistanceMeters>
          </Trackpoint>
          <Trackpoint>
            <Time>2021-06-20T07:33:24.000Z</Time>
            <Position>
              <LatitudeDegrees>38.82810361683368682861328125</LatitudeDegrees>
              <LongitudeDegrees>-0.43151722289621829986572265625</LongitudeDegrees>
            </Position>
            <AltitudeMeters>837.5999755859375</AltitudeMeters>
            <DistanceMeters>17358.157583951</DistanceMeters>
          </Trackpoint>
          <Trackpoint>
            <Time>2021-06-20T07:33:34.000Z</Time>
            <Position>
              <LatitudeDegrees>38.82790605537593364715576171875</LatitudeDegrees>
              <LongitudeDegrees>-0.43159626424312591552734375</LongitudeDegrees>
            </Position>
            <AltitudeMeters>836.5999755859375</AltitudeMeters>
            <DistanceMeters>17381.190146356</DistanceMeters>
          </Trackpoint>
          <Trackpoint>
            <Time>2021-06-20T07:33:38.000Z</Time>
            <Position>
              <LatitudeDegrees>38.827936649322509765625</LatitudeDegrees>
              <LongitudeDegrees>-0.43154471553862094879150390625</LongitudeDegrees>
            </Position>
            <AltitudeMeters>835.5999755859375</AltitudeMeters>
            <DistanceMeters>17386.808789186</DistanceMeters>
          </Trackpoint>
          <Trackpoint>
            <Time>2021-06-20T07:33:40.000Z</Time>
            <Position>
              <LatitudeDegrees>38.82792055606842041015625</LatitudeDegrees>
              <LongitudeDegrees>-0.43154756538569927215576171875</LongitudeDegrees>
            </Position>
            <AltitudeMeters>835.20001220703125</AltitudeMeters>
            <DistanceMeters>17388.616795732</DistanceMeters>
          </Trackpoint>
          <Trackpoint>
            <Time>2021-06-20T07:33:44.000Z</Time>
            <Position>
              <LatitudeDegrees>38.82787487469613552093505859375</LatitudeDegrees>
              <LongitudeDegrees>-0.43154907412827014923095703125</LongitudeDegrees>
            </Position>
            <AltitudeMeters>834.79998779296875</AltitudeMeters>
            <DistanceMeters>17393.702278889</DistanceMeters>
          </Trackpoint>
          <Trackpoint>
            <Time>2021-06-20T07:33:50.000Z</Time>
            <Position>
              <LatitudeDegrees>38.82780245505273342132568359375</LatitudeDegrees>
              <LongitudeDegrees>-0.4315424524247646331787109375</LongitudeDegrees>
            </Position>
            <AltitudeMeters>833.20001220703125</AltitudeMeters>
            <DistanceMeters>17401.783461528</DistanceMeters>
          </Trackpoint>
          <Trackpoint>
            <Time>2021-06-20T07:33:54.000Z</Time>
            <Position>
              <LatitudeDegrees>38.82775484584271907806396484375</LatitudeDegrees>
              <LongitudeDegrees>-0.43154203332960605621337890625</LongitudeDegrees>
            </Position>
            <AltitudeMeters>831.4000244140625</AltitudeMeters>
            <DistanceMeters>17407.083703769</DistanceMeters>
          </Trackpoint>
          <Trackpoint>
            <Time>2021-06-20T07:33:58.000Z</Time>
            <Position>
              <LatitudeDegrees>38.82770975120365619659423828125</LatitudeDegrees>
              <LongitudeDegrees>-0.4315471462905406951904296875</LongitudeDegrees>
            </Position>
            <AltitudeMeters>830.4000244140625</AltitudeMeters>
            <DistanceMeters>17412.122808348</DistanceMeters>
          </Trackpoint>
          <Trackpoint>
            <Time>2021-06-20T07:34:02.000Z</Time>
            <Position>
              <LatitudeDegrees>38.82767136208713054656982421875</LatitudeDegrees>
              <LongitudeDegrees>-0.43155779130756855010986328125</LongitudeDegrees>
            </Position>
            <AltitudeMeters>829.5999755859375</AltitudeMeters>
            <DistanceMeters>17416.494037209</DistanceMeters>
          </Trackpoint>
          <Trackpoint>
            <Time>2021-06-20T07:34:04.000Z</Time>
            <Position>
              <LatitudeDegrees>38.8276578672230243682861328125</LatitudeDegrees>
              <LongitudeDegrees>-0.431567765772342681884765625</LongitudeDegrees>
            </Position>
            <AltitudeMeters>829.4000244140625</AltitudeMeters>
            <DistanceMeters>17418.228112022</DistanceMeters>
          </Trackpoint>
          <Trackpoint>
            <Time>2021-06-20T07:34:10.000Z</Time>
            <Position>
              <LatitudeDegrees>38.82763959467411041259765625</LatitudeDegrees>
              <LongitudeDegrees>-0.431591570377349853515625</LongitudeDegrees>
            </Position>
            <AltitudeMeters>828</AltitudeMeters>
            <DistanceMeters>17421.12603733</DistanceMeters>
          </Trackpoint>
          <Trackpoint>
            <Time>2021-06-20T07:34:16.000Z</Time>
            <Position>
              <LatitudeDegrees>38.8276853598654270172119140625</LatitudeDegrees>
              <LongitudeDegrees>-0.43152577243745326995849609375</LongitudeDegrees>
            </Position>
            <AltitudeMeters>827.20001220703125</AltitudeMeters>
            <DistanceMeters>17428.774359709</DistanceMeters>
          </Trackpoint>
          <Trackpoint>
            <Time>2021-06-20T07:34:20.000Z</Time>
            <Position>
              <LatitudeDegrees>38.8277353160083293914794921875</LatitudeDegrees>
              <LongitudeDegrees>-0.4314643330872058868408203125</LongitudeDegrees>
            </Position>
            <AltitudeMeters>828</AltitudeMeters>
            <DistanceMeters>17436.475628571</DistanceMeters>
          </Trackpoint>
          <Trackpoint>
            <Time>2021-06-20T07:34:22.000Z</Time>
            <Position>
              <LatitudeDegrees>38.82775501348078250885009765625</LatitudeDegrees>
              <LongitudeDegrees>-0.43144882656633853912353515625</LongitudeDegrees>
            </Position>
            <AltitudeMeters>828.5999755859375</AltitudeMeters>
            <DistanceMeters>17439.048379245</DistanceMeters>
          </Trackpoint>
          <Trackpoint>
            <Time>2021-06-20T07:34:24.000Z</Time>
            <Position>
              <LatitudeDegrees>38.8277757167816162109375</LatitudeDegrees>
              <LongitudeDegrees>-0.431437678635120391845703125</LongitudeDegrees>
            </Position>
            <AltitudeMeters>828.79998779296875</AltitudeMeters>
            <DistanceMeters>17441.548141814</DistanceMeters>
          </Trackpoint>
          <Trackpoint>
            <Time>2021-06-20T07:34:28.000Z</Time>
            <Position>
              <LatitudeDegrees>38.82782558910548686981201171875</LatitudeDegrees>
              <LongitudeDegrees>-0.43141948990523815155029296875</LongitudeDegrees>
            </Position>
            <AltitudeMeters>829</AltitudeMeters>
            <DistanceMeters>17447.319010199</DistanceMeters>
          </Trackpoint>
          <Trackpoint>
            <Time>2021-06-20T07:34:32.000Z</Time>
            <Position>
              <LatitudeDegrees>38.82787923328578472137451171875</LatitudeDegrees>
              <LongitudeDegrees>-0.43142602778971195220947265625</LongitudeDegrees>
            </Position>
            <AltitudeMeters>830</AltitudeMeters>
            <DistanceMeters>17453.316995241</DistanceMeters>
          </Trackpoint>
          <Trackpoint>
            <Time>2021-06-20T07:34:34.000Z</Time>
            <Position>
              <LatitudeDegrees>38.8279167003929615020751953125</LatitudeDegrees>
              <LongitudeDegrees>-0.43141546659171581268310546875</LongitudeDegrees>
            </Position>
            <AltitudeMeters>830.20001220703125</AltitudeMeters>
            <DistanceMeters>17457.586857573</DistanceMeters>
          </Trackpoint>
          <Trackpoint>
            <Time>2021-06-20T07:34:38.000Z</Time>
            <Position>
              <LatitudeDegrees>38.82801284082233905792236328125</LatitudeDegrees>
              <LongitudeDegrees>-0.43135008774697780609130859375</LongitudeDegrees>
            </Position>
            <AltitudeMeters>830</AltitudeMeters>
            <DistanceMeters>17469.696706517</DistanceMeters>
          </Trackpoint>
          <Trackpoint>
            <Time>2021-06-20T07:34:42.000Z</Time>
            <Position>
              <LatitudeDegrees>38.8282754458487033843994140625</LatitudeDegrees>
              <LongitudeDegrees>-0.43098564259707927703857421875</LongitudeDegrees>
            </Position>
            <AltitudeMeters>830</AltitudeMeters>
            <DistanceMeters>17512.741710356</DistanceMeters>
          </Trackpoint>
          <Trackpoint>
            <Time>2021-06-20T07:34:44.000Z</Time>
            <Position>
              <LatitudeDegrees>38.82808358408510684967041015625</LatitudeDegrees>
              <LongitudeDegrees>-0.431203655898571014404296875</LongitudeDegrees>
            </Position>
            <AltitudeMeters>829.4000244140625</AltitudeMeters>
            <DistanceMeters>17541.261125593</DistanceMeters>
          </Trackpoint>
          <Trackpoint>
            <Time>2021-06-20T07:34:45.000Z</Time>
            <Position>
              <LatitudeDegrees>38.8280317001044750213623046875</LatitudeDegrees>
              <LongitudeDegrees>-0.43128437362611293792724609375</LongitudeDegrees>
            </Position>
            <AltitudeMeters>829.20001220703125</AltitudeMeters>
            <DistanceMeters>17550.335057322</DistanceMeters>
          </Trackpoint>
          <Trackpoint>
            <Time>2021-06-20T07:34:47.000Z</Time>
            <Position>
              <LatitudeDegrees>38.82801669649779796600341796875</LatitudeDegrees>
              <LongitudeDegrees>-0.43140674941241741180419921875</LongitudeDegrees>
            </Position>
            <AltitudeMeters>829</AltitudeMeters>
            <DistanceMeters>17561.076859629</DistanceMeters>
          </Trackpoint>
          <Trackpoint>
            <Time>2021-06-20T07:34:48.000Z</Time>
            <Position>
              <LatitudeDegrees>38.82798719219863414764404296875</LatitudeDegrees>
              <LongitudeDegrees>-0.43149123899638652801513671875</LongitudeDegrees>
            </Position>
            <AltitudeMeters>824.79998779296875</AltitudeMeters>
            <DistanceMeters>17569.104789348</DistanceMeters>
          </Trackpoint>
          <Trackpoint>
            <Time>2021-06-20T07:34:49.000Z</Time>
            <Position>
              <LatitudeDegrees>38.82799691520631313323974609375</LatitudeDegrees>
              <LongitudeDegrees>-0.4315927438437938690185546875</LongitudeDegrees>
            </Position>
            <AltitudeMeters>824.79998779296875</AltitudeMeters>
            <DistanceMeters>17577.972365436</DistanceMeters>
          </Trackpoint>
          <Trackpoint>
            <Time>2021-06-20T07:34:50.000Z</Time>
            <Position>
              <LatitudeDegrees>38.82800563238561153411865234375</LatitudeDegrees>
              <LongitudeDegrees>-0.43167362920939922332763671875</LongitudeDegrees>
            </Position>
            <AltitudeMeters>824.79998779296875</AltitudeMeters>
            <DistanceMeters>17585.052971654</DistanceMeters>
          </Trackpoint>
          <Trackpoint>
            <Time>2021-06-20T07:34:52.000Z</Time>
            <Position>
              <LatitudeDegrees>38.8279941491782665252685546875</LatitudeDegrees>
              <LongitudeDegrees>-0.43179516680538654327392578125</LongitudeDegrees>
            </Position>
            <AltitudeMeters>827.20001220703125</AltitudeMeters>
            <DistanceMeters>17595.667927795</DistanceMeters>
          </Trackpoint>
          <Trackpoint>
            <Time>2021-06-20T07:34:53.000Z</Time>
            <Position>
              <LatitudeDegrees>38.8279834203422069549560546875</LatitudeDegrees>
              <LongitudeDegrees>-0.43184780515730381011962890625</LongitudeDegrees>
            </Position>
            <AltitudeMeters>828.4000244140625</AltitudeMeters>
            <DistanceMeters>17600.384929847</DistanceMeters>
          </Trackpoint>
          <Trackpoint>
            <Time>2021-06-20T07:34:54.000Z</Time>
            <Position>
              <LatitudeDegrees>38.82799096405506134033203125</LatitudeDegrees>
              <LongitudeDegrees>-0.4318854399025440216064453125</LongitudeDegrees>
            </Position>
            <AltitudeMeters>827.4000244140625</AltitudeMeters>
            <DistanceMeters>17603.755365451</DistanceMeters>
          </Trackpoint>
          <Trackpoint>
            <Time>2021-06-20T07:34:56.000Z</Time>
            <Position>
              <LatitudeDegrees>38.8280410878360271453857421875</LatitudeDegrees>
              <LongitudeDegrees>-0.4319454543292522430419921875</LongitudeDegrees>
            </Position>
            <AltitudeMeters>827.4000244140625</AltitudeMeters>
            <DistanceMeters>17611.384773866</DistanceMeters>
          </Trackpoint>
          <Trackpoint>
            <Time>2021-06-20T07:34:57.000Z</Time>
            <Position>
              <LatitudeDegrees>38.8280712626874446868896484375</LatitudeDegrees>
              <LongitudeDegrees>-0.43198761530220508575439453125</LongitudeDegrees>
            </Position>
            <AltitudeMeters>827.4000244140625</AltitudeMeters>
            <DistanceMeters>17616.349862857</DistanceMeters>
          </Trackpoint>
          <Trackpoint>
            <Time>2021-06-20T07:35:01.000Z</Time>
            <Position>
              <LatitudeDegrees>38.82813136093318462371826171875</LatitudeDegrees>
              <LongitudeDegrees>-0.43211753480136394500732421875</LongitudeDegrees>
            </Position>
            <AltitudeMeters>827.20001220703125</AltitudeMeters>
            <DistanceMeters>17629.451148788</DistanceMeters>
          </Trackpoint>
          <Trackpoint>
            <Time>2021-06-20T07:35:04.000Z</Time>
            <Position>
              <LatitudeDegrees>38.828197829425334930419921875</LatitudeDegrees>
              <LongitudeDegrees>-0.43226949870586395263671875</LongitudeDegrees>
            </Position>
            <AltitudeMeters>826.79998779296875</AltitudeMeters>
            <DistanceMeters>17644.562488012</DistanceMeters>
          </Trackpoint>
          <Trackpoint>
            <Time>2021-06-20T07:35:24.000Z</Time>
            <Position>
              <LatitudeDegrees>38.82868163287639617919921875</LatitudeDegrees>
              <LongitudeDegrees>-0.43329183943569660186767578125</LongitudeDegrees>
            </Position>
            <AltitudeMeters>826.20001220703125</AltitudeMeters>
            <DistanceMeters>17748.28065338</DistanceMeters>
          </Trackpoint>
          <Trackpoint>
            <Time>2021-06-20T07:35:30.000Z</Time>
            <Position>
              <LatitudeDegrees>38.828759081661701202392578125</LatitudeDegrees>
              <LongitudeDegrees>-0.4335604794323444366455078125</LongitudeDegrees>
            </Position>
            <AltitudeMeters>826.20001220703125</AltitudeMeters>
            <DistanceMeters>17773.117735378</DistanceMeters>
          </Trackpoint>
          <Trackpoint>
            <Time>2021-06-20T07:35:40.000Z</Time>
            <Position>
              <LatitudeDegrees>38.8287444971501827239990234375</LatitudeDegrees>
              <LongitudeDegrees>-0.43400497175753116607666015625</LongitudeDegrees>
            </Position>
            <AltitudeMeters>827.20001220703125</AltitudeMeters>
            <DistanceMeters>17811.692495478</DistanceMeters>
          </Trackpoint>
          <Trackpoint>
            <Time>2021-06-20T07:35:54.000Z</Time>
            <Position>
              <LatitudeDegrees>38.82868858985602855682373046875</LatitudeDegrees>
              <LongitudeDegrees>-0.43457007966935634613037109375</LongitudeDegrees>
            </Position>
            <AltitudeMeters>828.4000244140625</AltitudeMeters>
            <DistanceMeters>17861.084818489</DistanceMeters>
          </Trackpoint>
          <Trackpoint>
            <Time>2021-06-20T07:35:56.000Z</Time>
            <Position>
              <LatitudeDegrees>38.82868557237088680267333984375</LatitudeDegrees>
              <LongitudeDegrees>-0.43465021066367626190185546875</LongitudeDegrees>
            </Position>
            <AltitudeMeters>828.4000244140625</AltitudeMeters>
            <DistanceMeters>17868.040618197</DistanceMeters>
          </Trackpoint>
          <Trackpoint>
            <Time>2021-06-20T07:36:16.000Z</Time>
            <Position>
              <LatitudeDegrees>38.828740976750850677490234375</LatitudeDegrees>
              <LongitudeDegrees>-0.43547381646931171417236328125</LongitudeDegrees>
            </Position>
            <AltitudeMeters>829</AltitudeMeters>
            <DistanceMeters>17939.718671069</DistanceMeters>
          </Trackpoint>
          <Trackpoint>
            <Time>2021-06-20T07:36:26.000Z</Time>
            <Position>
              <LatitudeDegrees>38.82885589264333248138427734375</LatitudeDegrees>
              <LongitudeDegrees>-0.4358903132379055023193359375</LongitudeDegrees>
            </Position>
            <AltitudeMeters>827.4000244140625</AltitudeMeters>
            <DistanceMeters>17978.029878636</DistanceMeters>
          </Trackpoint>
          <Trackpoint>
            <Time>2021-06-20T07:36:36.000Z</Time>
            <Position>
              <LatitudeDegrees>38.8290241174399852752685546875</LatitudeDegrees>
              <LongitudeDegrees>-0.43632323853671550750732421875</LongitudeDegrees>
            </Position>
            <AltitudeMeters>826</AltitudeMeters>
            <DistanceMeters>18019.978011446</DistanceMeters>
          </Trackpoint>
          <Trackpoint>
            <Time>2021-06-20T07:36:38.000Z</Time>
            <Position>
              <LatitudeDegrees>38.82906518876552581787109375</LatitudeDegrees>
              <LongitudeDegrees>-0.4364116676151752471923828125</LongitudeDegrees>
            </Position>
            <AltitudeMeters>825.79998779296875</AltitudeMeters>
            <DistanceMeters>18028.904960791</DistanceMeters>
          </Trackpoint>
          <Trackpoint>
            <Time>2021-06-20T07:36:42.000Z</Time>
            <Position>
              <LatitudeDegrees>38.82918915711343288421630859375</LatitudeDegrees>
              <LongitudeDegrees>-0.43665700592100620269775390625</LongitudeDegrees>
            </Position>
            <AltitudeMeters>824.79998779296875</AltitudeMeters>
            <DistanceMeters>18054.260538531</DistanceMeters>
          </Trackpoint>
          <Trackpoint>
            <Time>2021-06-20T07:36:43.000Z</Time>
            <Position>
              <LatitudeDegrees>38.82699527777731418609619140625</LatitudeDegrees>
              <LongitudeDegrees>-0.4348932020366191864013671875</LongitudeDegrees>
            </Position>
            <AltitudeMeters>824.5999755859375</AltitudeMeters>
            <DistanceMeters>18342.383087914</DistanceMeters>
          </Trackpoint>
          <Trackpoint>
            <Time>2021-06-20T07:36:48.000Z</Time>
            <Position>
              <LatitudeDegrees>38.8273319788277149200439453125</LatitudeDegrees>
              <LongitudeDegrees>-0.435233004391193389892578125</LongitudeDegrees>
            </Position>
            <AltitudeMeters>824.4000244140625</AltitudeMeters>
            <DistanceMeters>18390.05411788</DistanceMeters>
          </Trackpoint>
          <Trackpoint>
            <Time>2021-06-20T07:36:52.000Z</Time>
            <Position>
              <LatitudeDegrees>38.82726819254457950592041015625</LatitudeDegrees>
              <LongitudeDegrees>-0.4353501833975315093994140625</LongitudeDegrees>
            </Position>
            <AltitudeMeters>824</AltitudeMeters>
            <DistanceMeters>18402.449186279</DistanceMeters>
          </Trackpoint>
          <Trackpoint>
            <Time>2021-06-20T07:36:53.000Z</Time>
            <Position>
              <LatitudeDegrees>38.82724774070084095001220703125</LatitudeDegrees>
              <LongitudeDegrees>-0.43537013232707977294921875</LongitudeDegrees>
            </Position>
            <AltitudeMeters>823.79998779296875</AltitudeMeters>
            <DistanceMeters>18405.306315801</DistanceMeters>
          </Trackpoint>
          <Trackpoint>
            <Time>2021-06-20T07:36:57.000Z</Time>
            <Position>
              <LatitudeDegrees>38.82717431522905826568603515625</LatitudeDegrees>
              <LongitudeDegrees>-0.43546979315578937530517578125</LongitudeDegrees>
            </Position>
            <AltitudeMeters>823.5999755859375</AltitudeMeters>
            <DistanceMeters>18417.200229268</DistanceMeters>
          </Trackpoint>
          <Trackpoint>
            <Time>2021-06-20T07:36:59.000Z</Time>
            <Position>
              <LatitudeDegrees>38.82714472711086273193359375</LatitudeDegrees>
              <LongitudeDegrees>-0.4355275444686412811279296875</LongitudeDegrees>
            </Position>
            <AltitudeMeters>823.4000244140625</AltitudeMeters>
            <DistanceMeters>18423.193696053</DistanceMeters>
          </Trackpoint>
          <Trackpoint>
            <Time>2021-06-20T07:37:02.000Z</Time>
            <Position>
              <LatitudeDegrees>38.82707691751420497894287109375</LatitudeDegrees>
              <LongitudeDegrees>-0.43563835322856903076171875</LongitudeDegrees>
            </Position>
            <AltitudeMeters>822.79998779296875</AltitudeMeters>
            <DistanceMeters>18435.411559765</DistanceMeters>
          </Trackpoint>
          <Trackpoint>
            <Time>2021-06-20T07:37:03.000Z</Time>
            <Position>
              <LatitudeDegrees>38.8270850479602813720703125</LatitudeDegrees>
              <LongitudeDegrees>-0.43563030660152435302734375</LongitudeDegrees>
            </Position>
            <AltitudeMeters>822.79998779296875</AltitudeMeters>
            <DistanceMeters>18436.551880338</DistanceMeters>
          </Trackpoint>
          <Trackpoint>
            <Time>2021-06-20T07:37:10.000Z</Time>
            <Position>
              <LatitudeDegrees>38.8269195891916751861572265625</LatitudeDegrees>
              <LongitudeDegrees>-0.43590095825493335723876953125</LongitudeDegrees>
            </Position>
            <AltitudeMeters>822.20001220703125</AltitudeMeters>
            <DistanceMeters>18466.383004577</DistanceMeters>
          </Trackpoint>
          <Trackpoint>
            <Time>2021-06-20T07:37:12.000Z</Time>
            <Position>
              <LatitudeDegrees>38.82690022699534893035888671875</LatitudeDegrees>
              <LongitudeDegrees>-0.435973294079303741455078125</LongitudeDegrees>
            </Position>
            <AltitudeMeters>821.79998779296875</AltitudeMeters>
            <DistanceMeters>18473.014480452</DistanceMeters>
          </Trackpoint>
          <Trackpoint>
            <Time>2021-06-20T07:37:14.000Z</Time>
            <Position>
              <LatitudeDegrees>38.8268897496163845062255859375</LatitudeDegrees>
              <LongitudeDegrees>-0.4360462166368961334228515625</LongitudeDegrees>
            </Position>
            <AltitudeMeters>821.79998779296875</AltitudeMeters>
            <DistanceMeters>18479.444075304</DistanceMeters>
          </Trackpoint>
          <Trackpoint>
            <Time>2021-06-20T07:37:22.000Z</Time>
            <Position>
              <LatitudeDegrees>38.8268196769058704376220703125</LatitudeDegrees>
              <LongitudeDegrees>-0.43632231652736663818359375</LongitudeDegrees>
            </Position>
            <AltitudeMeters>821.79998779296875</AltitudeMeters>
            <DistanceMeters>18504.623106401</DistanceMeters>
          </Trackpoint>
          <Trackpoint>
            <Time>2021-06-20T07:37:30.000Z</Time>
            <Position>
              <LatitudeDegrees>38.82673644460737705230712890625</LatitudeDegrees>
              <LongitudeDegrees>-0.4365816526114940643310546875</LongitudeDegrees>
            </Position>
            <AltitudeMeters>821.79998779296875</AltitudeMeters>
            <DistanceMeters>18528.943448446</DistanceMeters>
          </Trackpoint>
          <Trackpoint>
            <Time>2021-06-20T07:37:32.000Z</Time>
            <Position>
              <LatitudeDegrees>38.8267144002020359039306640625</LatitudeDegrees>
              <LongitudeDegrees>-0.43664409779012203216552734375</LongitudeDegrees>
            </Position>
            <AltitudeMeters>822</AltitudeMeters>
            <DistanceMeters>18534.886987715</DistanceMeters>
          </Trackpoint>
          <Trackpoint>
            <Time>2021-06-20T07:37:52.000Z</Time>
            <Position>
              <LatitudeDegrees>38.82631315849721431732177734375</LatitudeDegrees>
              <LongitudeDegrees>-0.4369705729186534881591796875</LongitudeDegrees>
            </Position>
            <AltitudeMeters>819.4000244140625</AltitudeMeters>
            <DistanceMeters>18587.762160601</DistanceMeters>
          </Trackpoint>
          <Trackpoint>
            <Time>2021-06-20T07:38:00.000Z</Time>
            <Position>
              <LatitudeDegrees>38.8261088915169239044189453125</LatitudeDegrees>
              <LongitudeDegrees>-0.437018014490604400634765625</LongitudeDegrees>
            </Position>
            <AltitudeMeters>819.79998779296875</AltitudeMeters>
            <DistanceMeters>18610.866553451</DistanceMeters>
          </Trackpoint>
          <Trackpoint>
            <Time>2021-06-20T07:38:08.000Z</Time>
            <Position>
              <LatitudeDegrees>38.82590915076434612274169921875</LatitudeDegrees>
              <LongitudeDegrees>-0.437071658670902252197265625</LongitudeDegrees>
            </Position>
            <AltitudeMeters>819.79998779296875</AltitudeMeters>
            <DistanceMeters>18633.579528535</DistanceMeters>
          </Trackpoint>
          <Trackpoint>
            <Time>2021-06-20T07:38:18.000Z</Time>
            <Position>
              <LatitudeDegrees>38.82572022266685962677001953125</LatitudeDegrees>
              <LongitudeDegrees>-0.4370889253914356231689453125</LongitudeDegrees>
            </Position>
            <AltitudeMeters>820.5999755859375</AltitudeMeters>
            <DistanceMeters>18654.660686288</DistanceMeters>
          </Trackpoint>
          <Trackpoint>
            <Time>2021-06-20T07:38:20.000Z</Time>
            <Position>
              <LatitudeDegrees>38.82568535394966602325439453125</LatitudeDegrees>
              <LongitudeDegrees>-0.43709487654268741607666015625</LongitudeDegrees>
            </Position>
            <AltitudeMeters>820.79998779296875</AltitudeMeters>
            <DistanceMeters>18658.576432679</DistanceMeters>
          </Trackpoint>
          <Trackpoint>
            <Time>2021-06-20T07:38:22.000Z</Time>
            <Position>
              <LatitudeDegrees>38.8256509043276309967041015625</LatitudeDegrees>
              <LongitudeDegrees>-0.4371020011603832244873046875</LongitudeDegrees>
            </Position>
            <AltitudeMeters>821</AltitudeMeters>
            <DistanceMeters>18662.45975956</DistanceMeters>
          </Trackpoint>
          <Trackpoint>
            <Time>2021-06-20T07:38:24.000Z</Time>
            <Position>
              <LatitudeDegrees>38.82561846636235713958740234375</LatitudeDegrees>
              <LongitudeDegrees>-0.43711264617741107940673828125</LongitudeDegrees>
            </Position>
            <AltitudeMeters>820.4000244140625</AltitudeMeters>
            <DistanceMeters>18666.186454821</DistanceMeters>
          </Trackpoint>
          <Trackpoint>
            <Time>2021-06-20T07:38:26.000Z</Time>
            <Position>
              <LatitudeDegrees>38.82558904588222503662109375</LatitudeDegrees>
              <LongitudeDegrees>-0.43712672777473926544189453125</LongitudeDegrees>
            </Position>
            <AltitudeMeters>820.20001220703125</AltitudeMeters>
            <DistanceMeters>18669.680544595</DistanceMeters>
          </Trackpoint>
          <Trackpoint>
            <Time>2021-06-20T07:44:43.000Z</Time>
            <Position>
              <LatitudeDegrees>38.82563858292996883392333984375</LatitudeDegrees>
              <LongitudeDegrees>-0.437184311449527740478515625</LongitudeDegrees>
            </Position>
            <AltitudeMeters>818.79998779296875</AltitudeMeters>
            <DistanceMeters>18677.118775459</DistanceMeters>
          </Trackpoint>
          <Trackpoint>
            <Time>2021-06-20T07:44:45.000Z</Time>
            <Position>
              <LatitudeDegrees>38.82564176805317401885986328125</LatitudeDegrees>
              <LongitudeDegrees>-0.4371801204979419708251953125</LongitudeDegrees>
            </Position>
            <AltitudeMeters>818.5999755859375</AltitudeMeters>
            <DistanceMeters>18677.639258209</DistanceMeters>
          </Trackpoint>
          <Trackpoint>
            <Time>2021-06-20T07:44:46.000Z</Time>
            <Position>
              <LatitudeDegrees>38.825643025338649749755859375</LatitudeDegrees>
              <LongitudeDegrees>-0.43717768974602222442626953125</LongitudeDegrees>
            </Position>
            <AltitudeMeters>818.5999755859375</AltitudeMeters>
            <DistanceMeters>18677.908034345</DistanceMeters>
          </Trackpoint>
          <Trackpoint>
            <Time>2021-06-20T07:44:47.000Z</Time>
            <Position>
              <LatitudeDegrees>38.825654089450836181640625</LatitudeDegrees>
              <LongitudeDegrees>-0.43719847686588764190673828125</LongitudeDegrees>
            </Position>
            <AltitudeMeters>818.79998779296875</AltitudeMeters>
            <DistanceMeters>18680.091582</DistanceMeters>
          </Trackpoint>
          <Trackpoint>
            <Time>2021-06-20T07:44:48.000Z</Time>
            <Position>
              <LatitudeDegrees>38.8256634771823883056640625</LatitudeDegrees>
              <LongitudeDegrees>-0.43721088208258152008056640625</LongitudeDegrees>
            </Position>
            <AltitudeMeters>818.79998779296875</AltitudeMeters>
            <DistanceMeters>18681.588064195</DistanceMeters>
          </Trackpoint>
          <Trackpoint>
            <Time>2021-06-20T07:44:50.000Z</Time>
            <Position>
              <LatitudeDegrees>38.8256768882274627685546875</LatitudeDegrees>
              <LongitudeDegrees>-0.43721616268157958984375</LongitudeDegrees>
            </Position>
            <AltitudeMeters>818.79998779296875</AltitudeMeters>
            <DistanceMeters>18683.149512446</DistanceMeters>
          </Trackpoint>
          <Trackpoint>
            <Time>2021-06-20T07:44:51.000Z</Time>
            <Position>
              <LatitudeDegrees>38.8256747089326381683349609375</LatitudeDegrees>
              <LongitudeDegrees>-0.4372025839984416961669921875</LongitudeDegrees>
            </Position>
            <AltitudeMeters>818.79998779296875</AltitudeMeters>
            <DistanceMeters>18684.351515869</DistanceMeters>
          </Trackpoint>
          <Trackpoint>
            <Time>2021-06-20T07:44:52.000Z</Time>
            <Position>
              <LatitudeDegrees>38.8256747089326381683349609375</LatitudeDegrees>
              <LongitudeDegrees>-0.4372025839984416961669921875</LongitudeDegrees>
            </Position>
            <AltitudeMeters>818.79998779296875</AltitudeMeters>
            <DistanceMeters>18684.351515869</DistanceMeters>
          </Trackpoint>
          <Trackpoint>
            <Time>2021-06-20T07:44:53.000Z</Time>
            <Position>
              <LatitudeDegrees>38.825685940682888031005859375</LatitudeDegrees>
              <LongitudeDegrees>-0.437201075255870819091796875</LongitudeDegrees>
            </Position>
            <AltitudeMeters>818.5999755859375</AltitudeMeters>
            <DistanceMeters>18685.60860114</DistanceMeters>
          </Trackpoint>
          <Trackpoint>
            <Time>2021-06-20T07:44:54.000Z</Time>
            <Position>
              <LatitudeDegrees>38.8256958313286304473876953125</LatitudeDegrees>
              <LongitudeDegrees>-0.437200069427490234375</LongitudeDegrees>
            </Position>
            <AltitudeMeters>818.4000244140625</AltitudeMeters>
            <DistanceMeters>18686.712711787</DistanceMeters>
          </Trackpoint>
          <Trackpoint>
            <Time>2021-06-20T07:44:55.000Z</Time>
            <Position>
              <LatitudeDegrees>38.8257048837840557098388671875</LatitudeDegrees>
              <LongitudeDegrees>-0.43719881214201450347900390625</LongitudeDegrees>
            </Position>
            <AltitudeMeters>819.79998779296875</AltitudeMeters>
            <DistanceMeters>18687.718380003</DistanceMeters>
          </Trackpoint>
          <Trackpoint>
            <Time>2021-06-20T07:45:00.000Z</Time>
            <Position>
              <LatitudeDegrees>38.82578878663480281829833984375</LatitudeDegrees>
              <LongitudeDegrees>-0.4371807910501956939697265625</LongitudeDegrees>
            </Position>
            <AltitudeMeters>819.79998779296875</AltitudeMeters>
            <DistanceMeters>18697.186780023</DistanceMeters>
          </Trackpoint>
          <Trackpoint>
            <Time>2021-06-20T07:45:01.000Z</Time>
            <Position>
              <LatitudeDegrees>38.825809322297573089599609375</LatitudeDegrees>
              <LongitudeDegrees>-0.43717483989894390106201171875</LongitudeDegrees>
            </Position>
            <AltitudeMeters>819.79998779296875</AltitudeMeters>
            <DistanceMeters>18699.531842187</DistanceMeters>
          </Trackpoint>
          <Trackpoint>
            <Time>2021-06-20T07:45:02.000Z</Time>
            <Position>
              <LatitudeDegrees>38.8258369825780391693115234375</LatitudeDegrees>
              <LongitudeDegrees>-0.4371626861393451690673828125</LongitudeDegrees>
            </Position>
            <AltitudeMeters>819.5999755859375</AltitudeMeters>
            <DistanceMeters>18702.78642045</DistanceMeters>
          </Trackpoint>
          <Trackpoint>
            <Time>2021-06-20T07:45:04.000Z</Time>
            <Position>
              <LatitudeDegrees>38.82590076886117458343505859375</LatitudeDegrees>
              <LongitudeDegrees>-0.43714047409594058990478515625</LongitudeDegrees>
            </Position>
            <AltitudeMeters>819</AltitudeMeters>
            <DistanceMeters>18710.142863077</DistanceMeters>
          </Trackpoint>
          <Trackpoint>
            <Time>2021-06-20T07:45:10.000Z</Time>
            <Position>
              <LatitudeDegrees>38.82606446743011474609375</LatitudeDegrees>
              <LongitudeDegrees>-0.43707543052732944488525390625</LongitudeDegrees>
            </Position>
            <AltitudeMeters>816.79998779296875</AltitudeMeters>
            <DistanceMeters>18729.215555585</DistanceMeters>
          </Trackpoint>
          <Trackpoint>
            <Time>2021-06-20T07:45:16.000Z</Time>
            <Position>
              <LatitudeDegrees>38.826194219291210174560546875</LatitudeDegrees>
              <LongitudeDegrees>-0.43702094815671443939208984375</LongitudeDegrees>
            </Position>
            <AltitudeMeters>815.4000244140625</AltitudeMeters>
            <DistanceMeters>18744.409729941</DistanceMeters>
          </Trackpoint>
          <Trackpoint>
            <Time>2021-06-20T07:45:20.000Z</Time>
            <Position>
              <LatitudeDegrees>38.82627678103744983673095703125</LatitudeDegrees>
              <LongitudeDegrees>-0.43703310191631317138671875</LongitudeDegrees>
            </Position>
            <AltitudeMeters>814.20001220703125</AltitudeMeters>
            <DistanceMeters>18753.659105283</DistanceMeters>
          </Trackpoint>
          <Trackpoint>
            <Time>2021-06-20T07:45:22.000Z</Time>
            <Position>
              <LatitudeDegrees>38.82631600834429264068603515625</LatitudeDegrees>
              <LongitudeDegrees>-0.43704651296138763427734375</LongitudeDegrees>
            </Position>
            <AltitudeMeters>813.4000244140625</AltitudeMeters>
            <DistanceMeters>18758.177623054</DistanceMeters>
          </Trackpoint>
          <Trackpoint>
            <Time>2021-06-20T07:45:28.000Z</Time>
            <Position>
              <LatitudeDegrees>38.826434276998043060302734375</LatitudeDegrees>
              <LongitudeDegrees>-0.43708297424018383026123046875</LongitudeDegrees>
            </Position>
            <AltitudeMeters>811.79998779296875</AltitudeMeters>
            <DistanceMeters>18771.715511793</DistanceMeters>
          </Trackpoint>
          <Trackpoint>
            <Time>2021-06-20T07:45:30.000Z</Time>
            <Position>
              <LatitudeDegrees>38.82647258229553699493408203125</LatitudeDegrees>
              <LongitudeDegrees>-0.437099821865558624267578125</LongitudeDegrees>
            </Position>
            <AltitudeMeters>811.20001220703125</AltitudeMeters>
            <DistanceMeters>18776.223024632</DistanceMeters>
          </Trackpoint>
          <Trackpoint>
            <Time>2021-06-20T07:45:32.000Z</Time>
            <Position>
              <LatitudeDegrees>38.8265128992497920989990234375</LatitudeDegrees>
              <LongitudeDegrees>-0.43711113743484020233154296875</LongitudeDegrees>
            </Position>
            <AltitudeMeters>810.79998779296875</AltitudeMeters>
            <DistanceMeters>18780.815873266</DistanceMeters>
          </Trackpoint>
          <Trackpoint>
            <Time>2021-06-20T07:45:38.000Z</Time>
            <Position>
              <LatitudeDegrees>38.8266252167522907257080078125</LatitudeDegrees>
              <LongitudeDegrees>-0.43716981075704097747802734375</LongitudeDegrees>
            </Position>
            <AltitudeMeters>808.4000244140625</AltitudeMeters>
            <DistanceMeters>18794.31234325</DistanceMeters>
          </Trackpoint>
          <Trackpoint>
            <Time>2021-06-20T07:45:42.000Z</Time>
            <Position>
              <LatitudeDegrees>38.8267016597092151641845703125</LatitudeDegrees>
              <LongitudeDegrees>-0.43721088208258152008056640625</LongitudeDegrees>
            </Position>
            <AltitudeMeters>807.4000244140625</AltitudeMeters>
            <DistanceMeters>18803.535321083</DistanceMeters>
          </Trackpoint>
          <Trackpoint>
            <Time>2021-06-20T07:45:48.000Z</Time>
            <Position>
              <LatitudeDegrees>38.82681238465011119842529296875</LatitudeDegrees>
              <LongitudeDegrees>-0.4372850619256496429443359375</LongitudeDegrees>
            </Position>
            <AltitudeMeters>806.4000244140625</AltitudeMeters>
            <DistanceMeters>18817.437180528</DistanceMeters>
          </Trackpoint>
          <Trackpoint>
            <Time>2021-06-20T07:46:00.000Z</Time>
            <Position>
              <LatitudeDegrees>38.8270912505686283111572265625</LatitudeDegrees>
              <LongitudeDegrees>-0.4373055137693881988525390625</LongitudeDegrees>
            </Position>
            <AltitudeMeters>803.79998779296875</AltitudeMeters>
            <DistanceMeters>18848.526023737</DistanceMeters>
          </Trackpoint>
          <Trackpoint>
            <Time>2021-06-20T07:46:12.000Z</Time>
            <Position>
              <LatitudeDegrees>38.8272669352591037750244140625</LatitudeDegrees>
              <LongitudeDegrees>-0.437010638415813446044921875</LongitudeDegrees>
            </Position>
            <AltitudeMeters>799.79998779296875</AltitudeMeters>
            <DistanceMeters>18880.714420886</DistanceMeters>
          </Trackpoint>
          <Trackpoint>
            <Time>2021-06-20T07:46:16.000Z</Time>
            <Position>
              <LatitudeDegrees>38.82731596939265727996826171875</LatitudeDegrees>
              <LongitudeDegrees>-0.4368911124765872955322265625</LongitudeDegrees>
            </Position>
            <AltitudeMeters>798.5999755859375</AltitudeMeters>
            <DistanceMeters>18892.427788527</DistanceMeters>
          </Trackpoint>
          <Trackpoint>
            <Time>2021-06-20T07:46:20.000Z</Time>
            <Position>
              <LatitudeDegrees>38.82739174179732799530029296875</LatitudeDegrees>
              <LongitudeDegrees>-0.43678625486791133880615234375</LongitudeDegrees>
            </Position>
            <AltitudeMeters>797.5999755859375</AltitudeMeters>
            <DistanceMeters>18904.829411888</DistanceMeters>
          </Trackpoint>
          <Trackpoint>
            <Time>2021-06-20T07:46:24.000Z</Time>
            <Position>
              <LatitudeDegrees>38.82747556082904338836669921875</LatitudeDegrees>
              <LongitudeDegrees>-0.43668583966791629791259765625</LongitudeDegrees>
            </Position>
            <AltitudeMeters>796.4000244140625</AltitudeMeters>
            <DistanceMeters>18917.590618672</DistanceMeters>
          </Trackpoint>
          <Trackpoint>
            <Time>2021-06-20T07:46:28.000Z</Time>
            <Position>
              <LatitudeDegrees>38.82756105624139308929443359375</LatitudeDegrees>
              <LongitudeDegrees>-0.43658190406858921051025390625</LongitudeDegrees>
            </Position>
            <AltitudeMeters>795.4000244140625</AltitudeMeters>
            <DistanceMeters>18930.696728473</DistanceMeters>
          </Trackpoint>
          <Trackpoint>
            <Time>2021-06-20T07:46:32.000Z</Time>
            <Position>
              <LatitudeDegrees>38.82764085195958614349365234375</LatitudeDegrees>
              <LongitudeDegrees>-0.43646472506225109100341796875</LongitudeDegrees>
            </Position>
            <AltitudeMeters>794</AltitudeMeters>
            <DistanceMeters>18944.191860252</DistanceMeters>
          </Trackpoint>
          <Trackpoint>
            <Time>2021-06-20T07:46:42.000Z</Time>
            <Position>
              <LatitudeDegrees>38.8279274292290210723876953125</LatitudeDegrees>
              <LongitudeDegrees>-0.43619566597044467926025390625</LongitudeDegrees>
            </Position>
            <AltitudeMeters>791.5999755859375</AltitudeMeters>
            <DistanceMeters>18983.709722292</DistanceMeters>
          </Trackpoint>
          <Trackpoint>
            <Time>2021-06-20T07:46:43.000Z</Time>
            <Position>
              <LatitudeDegrees>38.82794134318828582763671875</LatitudeDegrees>
              <LongitudeDegrees>-0.43614688329398632049560546875</LongitudeDegrees>
            </Position>
            <AltitudeMeters>791.5999755859375</AltitudeMeters>
            <DistanceMeters>18988.215231347</DistanceMeters>
          </Trackpoint>
          <Trackpoint>
            <Time>2021-06-20T07:46:47.000Z</Time>
            <Position>
              <LatitudeDegrees>38.8279733620584011077880859375</LatitudeDegrees>
              <LongitudeDegrees>-0.436172448098659515380859375</LongitudeDegrees>
            </Position>
            <AltitudeMeters>790.20001220703125</AltitudeMeters>
            <DistanceMeters>18992.411497433</DistanceMeters>
          </Trackpoint>
          <Trackpoint>
            <Time>2021-06-20T07:46:49.000Z</Time>
            <Position>
              <LatitudeDegrees>38.82799255661666393280029296875</LatitudeDegrees>
              <LongitudeDegrees>-0.436188876628875732421875</LongitudeDegrees>
            </Position>
            <AltitudeMeters>789</AltitudeMeters>
            <DistanceMeters>18994.978977872</DistanceMeters>
          </Trackpoint>
          <Trackpoint>
            <Time>2021-06-20T07:46:50.000Z</Time>
            <Position>
              <LatitudeDegrees>38.82801803760230541229248046875</LatitudeDegrees>
              <LongitudeDegrees>-0.43618041090667247772216796875</LongitudeDegrees>
            </Position>
            <AltitudeMeters>788.79998779296875</AltitudeMeters>
            <DistanceMeters>18997.906355973</DistanceMeters>
          </Trackpoint>
          <Trackpoint>
            <Time>2021-06-20T07:46:51.000Z</Time>
            <Position>
              <LatitudeDegrees>38.82802893407642841339111328125</LatitudeDegrees>
              <LongitudeDegrees>-0.43616817332804203033447265625</LongitudeDegrees>
            </Position>
            <AltitudeMeters>788.20001220703125</AltitudeMeters>
            <DistanceMeters>18999.513403534</DistanceMeters>
          </Trackpoint>
          <Trackpoint>
            <Time>2021-06-20T07:46:52.000Z</Time>
            <Position>
              <LatitudeDegrees>38.8279996812343597412109375</LatitudeDegrees>
              <LongitudeDegrees>-0.4363806545734405517578125</LongitudeDegrees>
            </Position>
            <AltitudeMeters>787.5999755859375</AltitudeMeters>
            <DistanceMeters>19018.222809812</DistanceMeters>
          </Trackpoint>
          <Trackpoint>
            <Time>2021-06-20T07:46:53.000Z</Time>
            <Position>
              <LatitudeDegrees>38.82803128100931644439697265625</LatitudeDegrees>
              <LongitudeDegrees>-0.43636883608996868133544921875</LongitudeDegrees>
            </Position>
            <AltitudeMeters>787.20001220703125</AltitudeMeters>
            <DistanceMeters>19021.887195664</DistanceMeters>
          </Trackpoint>
          <Trackpoint>
            <Time>2021-06-20T07:46:56.000Z</Time>
            <Position>
              <LatitudeDegrees>38.82809313945472240447998046875</LatitudeDegrees>
              <LongitudeDegrees>-0.4362881183624267578125</LongitudeDegrees>
            </Position>
            <AltitudeMeters>786.4000244140625</AltitudeMeters>
            <DistanceMeters>19031.704885614</DistanceMeters>
          </Trackpoint>
          <Trackpoint>
            <Time>2021-06-20T07:46:58.000Z</Time>
            <Position>
              <LatitudeDegrees>38.82813722826540470123291015625</LatitudeDegrees>
              <LongitudeDegrees>-0.4362480528652667999267578125</LongitudeDegrees>
            </Position>
            <AltitudeMeters>785.5999755859375</AltitudeMeters>
            <DistanceMeters>19037.717156068</DistanceMeters>
          </Trackpoint>
          <Trackpoint>
            <Time>2021-06-20T07:46:59.000Z</Time>
            <Position>
              <LatitudeDegrees>38.8281500525772571563720703125</LatitudeDegrees>
              <LongitudeDegrees>-0.43622718192636966705322265625</LongitudeDegrees>
            </Position>
            <AltitudeMeters>785.20001220703125</AltitudeMeters>
            <DistanceMeters>19040.021431431</DistanceMeters>
          </Trackpoint>
          <Trackpoint>
            <Time>2021-06-20T07:47:03.000Z</Time>
            <Position>
              <LatitudeDegrees>38.82813806645572185516357421875</LatitudeDegrees>
              <LongitudeDegrees>-0.43620019219815731048583984375</LongitudeDegrees>
            </Position>
            <AltitudeMeters>783.79998779296875</AltitudeMeters>
            <DistanceMeters>19042.714227633</DistanceMeters>
          </Trackpoint>
          <Trackpoint>
            <Time>2021-06-20T07:47:08.000Z</Time>
            <Position>
              <LatitudeDegrees>38.82822372950613498687744140625</LatitudeDegrees>
              <LongitudeDegrees>-0.43607345782220363616943359375</LongitudeDegrees>
            </Position>
            <AltitudeMeters>781.5999755859375</AltitudeMeters>
            <DistanceMeters>19057.262938635</DistanceMeters>
          </Trackpoint>
          <Trackpoint>
            <Time>2021-06-20T07:47:12.000Z</Time>
            <Position>
              <LatitudeDegrees>38.82822993211448192596435546875</LatitudeDegrees>
              <LongitudeDegrees>-0.43607060797512531280517578125</LongitudeDegrees>
            </Position>
            <AltitudeMeters>780.4000244140625</AltitudeMeters>
            <DistanceMeters>19057.9990124</DistanceMeters>
          </Trackpoint>
          <Trackpoint>
            <Time>2021-06-20T07:47:16.000Z</Time>
            <Position>
              <LatitudeDegrees>38.82830268703401088714599609375</LatitudeDegrees>
              <LongitudeDegrees>-0.43609608896076679229736328125</LongitudeDegrees>
            </Position>
            <AltitudeMeters>779</AltitudeMeters>
            <DistanceMeters>19066.392620469</DistanceMeters>
          </Trackpoint>
          <Trackpoint>
            <Time>2021-06-20T07:47:20.000Z</Time>
            <Position>
              <LatitudeDegrees>38.82834610529243946075439453125</LatitudeDegrees>
              <LongitudeDegrees>-0.43617923744022846221923828125</LongitudeDegrees>
            </Position>
            <AltitudeMeters>778</AltitudeMeters>
            <DistanceMeters>19075.071842651</DistanceMeters>
          </Trackpoint>
          <Trackpoint>
            <Time>2021-06-20T07:47:50.000Z</Time>
            <Position>
              <LatitudeDegrees>38.82885237224400043487548828125</LatitudeDegrees>
              <LongitudeDegrees>-0.43649590574204921722412109375</LongitudeDegrees>
            </Position>
            <AltitudeMeters>767.5999755859375</AltitudeMeters>
            <DistanceMeters>19137.754045081</DistanceMeters>
          </Trackpoint>
          <Trackpoint>
            <Time>2021-06-20T07:47:56.000Z</Time>
            <Position>
              <LatitudeDegrees>38.8288169167935848236083984375</LatitudeDegrees>
              <LongitudeDegrees>-0.43661643750965595245361328125</LongitudeDegrees>
            </Position>
            <AltitudeMeters>765.20001220703125</AltitudeMeters>
            <DistanceMeters>19148.924838534</DistanceMeters>
          </Trackpoint>
          <Trackpoint>
            <Time>2021-06-20T07:48:06.000Z</Time>
            <Position>
              <LatitudeDegrees>38.82857979275286197662353515625</LatitudeDegrees>
              <LongitudeDegrees>-0.43673428706824779510498046875</LongitudeDegrees>
            </Position>
            <AltitudeMeters>761.79998779296875</AltitudeMeters>
            <DistanceMeters>19177.226212716</DistanceMeters>
          </Trackpoint>
          <Trackpoint>
            <Time>2021-06-20T07:48:08.000Z</Time>
            <Position>
              <LatitudeDegrees>38.828530423343181610107421875</LatitudeDegrees>
              <LongitudeDegrees>-0.43675038032233715057373046875</LongitudeDegrees>
            </Position>
            <AltitudeMeters>760.4000244140625</AltitudeMeters>
            <DistanceMeters>19182.895255145</DistanceMeters>
          </Trackpoint>
          <Trackpoint>
            <Time>2021-06-20T07:48:12.000Z</Time>
            <Position>
              <LatitudeDegrees>38.82843243889510631561279296875</LatitudeDegrees>
              <LongitudeDegrees>-0.4367697425186634063720703125</LongitudeDegrees>
            </Position>
            <AltitudeMeters>758.79998779296875</AltitudeMeters>
            <DistanceMeters>19193.929407614</DistanceMeters>
          </Trackpoint>
          <Trackpoint>
            <Time>2021-06-20T07:48:18.000Z</Time>
            <Position>
              <LatitudeDegrees>38.82831861265003681182861328125</LatitudeDegrees>
              <LongitudeDegrees>-0.4368124902248382568359375</LongitudeDegrees>
            </Position>
            <AltitudeMeters>756.4000244140625</AltitudeMeters>
            <DistanceMeters>19207.129572577</DistanceMeters>
          </Trackpoint>
          <Trackpoint>
            <Time>2021-06-20T07:48:20.000Z</Time>
            <Position>
              <LatitudeDegrees>38.82830067537724971771240234375</LatitudeDegrees>
              <LongitudeDegrees>-0.4368341155350208282470703125</LongitudeDegrees>
            </Position>
            <AltitudeMeters>755.4000244140625</AltitudeMeters>
            <DistanceMeters>19209.870562107</DistanceMeters>
          </Trackpoint>
          <Trackpoint>
            <Time>2021-06-20T07:48:24.000Z</Time>
            <Position>
              <LatitudeDegrees>38.82837141864001750946044921875</LatitudeDegrees>
              <LongitudeDegrees>-0.43685917742550373077392578125</LongitudeDegrees>
            </Position>
            <AltitudeMeters>754</AltitudeMeters>
            <DistanceMeters>19218.0384385</DistanceMeters>
          </Trackpoint>
          <Trackpoint>
            <Time>2021-06-20T07:48:36.000Z</Time>
            <Position>
              <LatitudeDegrees>38.82853570394217967987060546875</LatitudeDegrees>
              <LongitudeDegrees>-0.437032766640186309814453125</LongitudeDegrees>
            </Position>
            <AltitudeMeters>749.79998779296875</AltitudeMeters>
            <DistanceMeters>19241.721642849</DistanceMeters>
          </Trackpoint>
          <Trackpoint>
            <Time>2021-06-20T07:48:43.000Z</Time>
            <Position>
              <LatitudeDegrees>38.82853905670344829559326171875</LatitudeDegrees>
              <LongitudeDegrees>-0.4371100477874279022216796875</LongitudeDegrees>
            </Position>
            <AltitudeMeters>748</AltitudeMeters>
            <DistanceMeters>19248.432305351</DistanceMeters>
          </Trackpoint>
          <Trackpoint>
            <Time>2021-06-20T07:48:44.000Z</Time>
            <Position>
              <LatitudeDegrees>38.828582726418972015380859375</LatitudeDegrees>
              <LongitudeDegrees>-0.437061600387096405029296875</LongitudeDegrees>
            </Position>
            <AltitudeMeters>747.79998779296875</AltitudeMeters>
            <DistanceMeters>19254.856279927</DistanceMeters>
          </Trackpoint>
          <Trackpoint>
            <Time>2021-06-20T07:48:45.000Z</Time>
            <Position>
              <LatitudeDegrees>38.82860845886170864105224609375</LatitudeDegrees>
              <LongitudeDegrees>-0.437038131058216094970703125</LongitudeDegrees>
            </Position>
            <AltitudeMeters>747.5999755859375</AltitudeMeters>
            <DistanceMeters>19258.36969913</DistanceMeters>
          </Trackpoint>
          <Trackpoint>
            <Time>2021-06-20T07:48:46.000Z</Time>
            <Position>
              <LatitudeDegrees>38.82861591875553131103515625</LatitudeDegrees>
              <LongitudeDegrees>-0.4370704852044582366943359375</LongitudeDegrees>
            </Position>
            <AltitudeMeters>747</AltitudeMeters>
            <DistanceMeters>19261.293990907</DistanceMeters>
          </Trackpoint>
          <Trackpoint>
            <Time>2021-06-20T07:48:48.000Z</Time>
            <Position>
              <LatitudeDegrees>38.8286636956036090850830078125</LatitudeDegrees>
              <LongitudeDegrees>-0.43711666949093341827392578125</LongitudeDegrees>
            </Position>
            <AltitudeMeters>746.4000244140625</AltitudeMeters>
            <DistanceMeters>19267.94993224</DistanceMeters>
          </Trackpoint>
          <Trackpoint>
            <Time>2021-06-20T07:48:49.000Z</Time>
            <Position>
              <LatitudeDegrees>38.8286968879401683807373046875</LatitudeDegrees>
              <LongitudeDegrees>-0.43710946105420589447021484375</LongitudeDegrees>
            </Position>
            <AltitudeMeters>746</AltitudeMeters>
            <DistanceMeters>19271.695961978</DistanceMeters>
          </Trackpoint>
          <Trackpoint>
            <Time>2021-06-20T07:48:50.000Z</Time>
            <Position>
              <LatitudeDegrees>38.82871189154684543609619140625</LatitudeDegrees>
              <LongitudeDegrees>-0.437118597328662872314453125</LongitudeDegrees>
            </Position>
            <AltitudeMeters>745.5999755859375</AltitudeMeters>
            <DistanceMeters>19273.545934673</DistanceMeters>
          </Trackpoint>
          <Trackpoint>
            <Time>2021-06-20T07:48:52.000Z</Time>
            <Position>
              <LatitudeDegrees>38.8288092054426670074462890625</LatitudeDegrees>
              <LongitudeDegrees>-0.437131337821483612060546875</LongitudeDegrees>
            </Position>
            <AltitudeMeters>744.79998779296875</AltitudeMeters>
            <DistanceMeters>19284.433027186</DistanceMeters>
          </Trackpoint>
          <Trackpoint>
            <Time>2021-06-20T07:48:53.000Z</Time>
            <Position>
              <LatitudeDegrees>38.8288092054426670074462890625</LatitudeDegrees>
              <LongitudeDegrees>-0.437131337821483612060546875</LongitudeDegrees>
            </Position>
            <AltitudeMeters>744.5999755859375</AltitudeMeters>
            <DistanceMeters>19284.433027186</DistanceMeters>
          </Trackpoint>
          <Trackpoint>
            <Time>2021-06-20T07:48:57.000Z</Time>
            <Position>
              <LatitudeDegrees>38.82890199311077594757080078125</LatitudeDegrees>
              <LongitudeDegrees>-0.4371673800051212310791015625</LongitudeDegrees>
            </Position>
            <AltitudeMeters>743.79998779296875</AltitudeMeters>
            <DistanceMeters>19295.222640039</DistanceMeters>
          </Trackpoint>
          <Trackpoint>
            <Time>2021-06-20T07:48:58.000Z</Time>
            <Position>
              <LatitudeDegrees>38.8289235346019268035888671875</LatitudeDegrees>
              <LongitudeDegrees>-0.437172241508960723876953125</LongitudeDegrees>
            </Position>
            <AltitudeMeters>743.5999755859375</AltitudeMeters>
            <DistanceMeters>19297.656511471</DistanceMeters>
          </Trackpoint>
          <Trackpoint>
            <Time>2021-06-20T07:49:00.000Z</Time>
            <Position>
              <LatitudeDegrees>38.82896787486970424652099609375</LatitudeDegrees>
              <LongitudeDegrees>-0.4372015781700611114501953125</LongitudeDegrees>
            </Position>
            <AltitudeMeters>742.4000244140625</AltitudeMeters>
            <DistanceMeters>19303.208869617</DistanceMeters>
          </Trackpoint>
          <Trackpoint>
            <Time>2021-06-20T07:49:02.000Z</Time>
            <Position>
              <LatitudeDegrees>38.82900257594883441925048828125</LatitudeDegrees>
              <LongitudeDegrees>-0.43722395785152912139892578125</LongitudeDegrees>
            </Position>
            <AltitudeMeters>741</AltitudeMeters>
            <DistanceMeters>19307.53023492</DistanceMeters>
          </Trackpoint>
          <Trackpoint>
            <Time>2021-06-20T07:49:11.000Z</Time>
            <Position>
              <LatitudeDegrees>38.82928915321826934814453125</LatitudeDegrees>
              <LongitudeDegrees>-0.437172241508960723876953125</LongitudeDegrees>
            </Position>
            <AltitudeMeters>737.79998779296875</AltitudeMeters>
            <DistanceMeters>19339.74050662</DistanceMeters>
          </Trackpoint>
          <Trackpoint>
            <Time>2021-06-20T07:49:13.000Z</Time>
            <Position>
              <LatitudeDegrees>38.82934749126434326171875</LatitudeDegrees>
              <LongitudeDegrees>-0.4371707327663898468017578125</LongitudeDegrees>
            </Position>
            <AltitudeMeters>736.4000244140625</AltitudeMeters>
            <DistanceMeters>19346.234385045</DistanceMeters>
          </Trackpoint>
          <Trackpoint>
            <Time>2021-06-20T07:49:19.000Z</Time>
            <Position>
              <LatitudeDegrees>38.82952493615448474884033203125</LatitudeDegrees>
              <LongitudeDegrees>-0.437143407762050628662109375</LongitudeDegrees>
            </Position>
            <AltitudeMeters>735.4000244140625</AltitudeMeters>
            <DistanceMeters>19366.126089085</DistanceMeters>
          </Trackpoint>
          <Trackpoint>
            <Time>2021-06-20T07:49:25.000Z</Time>
            <Position>
              <LatitudeDegrees>38.8295987807214260101318359375</LatitudeDegrees>
              <LongitudeDegrees>-0.437016673386096954345703125</LongitudeDegrees>
            </Position>
            <AltitudeMeters>733</AltitudeMeters>
            <DistanceMeters>19379.848486254</DistanceMeters>
          </Trackpoint>
          <Trackpoint>
            <Time>2021-06-20T07:49:27.000Z</Time>
            <Position>
              <LatitudeDegrees>38.8296423666179180145263671875</LatitudeDegrees>
              <LongitudeDegrees>-0.436942577362060546875</LongitudeDegrees>
            </Position>
            <AltitudeMeters>731.5999755859375</AltitudeMeters>
            <DistanceMeters>19387.898320325</DistanceMeters>
          </Trackpoint>
          <Trackpoint>
            <Time>2021-06-20T07:49:29.000Z</Time>
            <Position>
              <LatitudeDegrees>38.82968083955347537994384765625</LatitudeDegrees>
              <LongitudeDegrees>-0.43686538003385066986083984375</LongitudeDegrees>
            </Position>
            <AltitudeMeters>731.20001220703125</AltitudeMeters>
            <DistanceMeters>19395.844281217</DistanceMeters>
          </Trackpoint>
          <Trackpoint>
            <Time>2021-06-20T07:50:23.000Z</Time>
            <Position>
              <LatitudeDegrees>38.8305419124662876129150390625</LatitudeDegrees>
              <LongitudeDegrees>-0.4348559863865375518798828125</LongitudeDegrees>
            </Position>
            <AltitudeMeters>716.79998779296875</AltitudeMeters>
            <DistanceMeters>19594.689582705</DistanceMeters>
          </Trackpoint>
          <Trackpoint>
            <Time>2021-06-20T07:50:33.000Z</Time>
            <Position>
              <LatitudeDegrees>38.8307511247694492340087890625</LatitudeDegrees>
              <LongitudeDegrees>-0.43441434390842914581298828125</LongitudeDegrees>
            </Position>
            <AltitudeMeters>714.20001220703125</AltitudeMeters>
            <DistanceMeters>19639.506139725</DistanceMeters>
          </Trackpoint>
          <Trackpoint>
            <Time>2021-06-20T07:50:42.000Z</Time>
            <Position>
              <LatitudeDegrees>38.83110693655908107757568359375</LatitudeDegrees>
              <LongitudeDegrees>-0.43363767676055431365966796875</LongitudeDegrees>
            </Position>
            <AltitudeMeters>711.4000244140625</AltitudeMeters>
            <DistanceMeters>19717.628329246</DistanceMeters>
          </Trackpoint>
          <Trackpoint>
            <Time>2021-06-20T07:50:43.000Z</Time>
            <Position>
              <LatitudeDegrees>38.83115873672068119049072265625</LatitudeDegrees>
              <LongitudeDegrees>-0.43367388658225536346435546875</LongitudeDegrees>
            </Position>
            <AltitudeMeters>711.20001220703125</AltitudeMeters>
            <DistanceMeters>19724.19343053</DistanceMeters>
          </Trackpoint>
          <Trackpoint>
            <Time>2021-06-20T07:50:44.000Z</Time>
            <Position>
              <LatitudeDegrees>38.8311618380248546600341796875</LatitudeDegrees>
              <LongitudeDegrees>-0.433657206594944000244140625</LongitudeDegrees>
            </Position>
            <AltitudeMeters>710.79998779296875</AltitudeMeters>
            <DistanceMeters>19725.683866307</DistanceMeters>
          </Trackpoint>
          <Trackpoint>
            <Time>2021-06-20T07:50:47.000Z</Time>
            <Position>
              <LatitudeDegrees>38.83123283274471759796142578125</LatitudeDegrees>
              <LongitudeDegrees>-0.433671958744525909423828125</LongitudeDegrees>
            </Position>
            <AltitudeMeters>709.4000244140625</AltitudeMeters>
            <DistanceMeters>19733.688703747</DistanceMeters>
          </Trackpoint>
          <Trackpoint>
            <Time>2021-06-20T07:50:51.000Z</Time>
            <Position>
              <LatitudeDegrees>38.83135302923619747161865234375</LatitudeDegrees>
              <LongitudeDegrees>-0.433753766119480133056640625</LongitudeDegrees>
            </Position>
            <AltitudeMeters>708.79998779296875</AltitudeMeters>
            <DistanceMeters>19748.830786529</DistanceMeters>
          </Trackpoint>
          <Trackpoint>
            <Time>2021-06-20T07:50:52.000Z</Time>
            <Position>
              <LatitudeDegrees>38.83138521574437618255615234375</LatitudeDegrees>
              <LongitudeDegrees>-0.43378360569477081298828125</LongitudeDegrees>
            </Position>
            <AltitudeMeters>708.4000244140625</AltitudeMeters>
            <DistanceMeters>19753.249273292</DistanceMeters>
          </Trackpoint>
          <Trackpoint>
            <Time>2021-06-20T07:50:53.000Z</Time>
            <Position>
              <LatitudeDegrees>38.83139871060848236083984375</LatitudeDegrees>
              <LongitudeDegrees>-0.43381487019360065460205078125</LongitudeDegrees>
            </Position>
            <AltitudeMeters>708.4000244140625</AltitudeMeters>
            <DistanceMeters>19756.34895091</DistanceMeters>
          </Trackpoint>
          <Trackpoint>
            <Time>2021-06-20T07:50:58.000Z</Time>
            <Position>
              <LatitudeDegrees>38.83121489547193050384521484375</LatitudeDegrees>
              <LongitudeDegrees>-0.43312956579029560089111328125</LongitudeDegrees>
            </Position>
            <AltitudeMeters>707.4000244140625</AltitudeMeters>
            <DistanceMeters>19819.191001571</DistanceMeters>
          </Trackpoint>
          <Trackpoint>
            <Time>2021-06-20T07:50:59.000Z</Time>
            <Position>
              <LatitudeDegrees>38.831183798611164093017578125</LatitudeDegrees>
              <LongitudeDegrees>-0.43302881531417369842529296875</LongitudeDegrees>
            </Position>
            <AltitudeMeters>706.5999755859375</AltitudeMeters>
            <DistanceMeters>19828.587601353</DistanceMeters>
          </Trackpoint>
          <Trackpoint>
            <Time>2021-06-20T07:51:02.000Z</Time>
            <Position>
              <LatitudeDegrees>38.8313363492488861083984375</LatitudeDegrees>
              <LongitudeDegrees>-0.43301557190716266632080078125</LongitudeDegrees>
            </Position>
            <AltitudeMeters>705.79998779296875</AltitudeMeters>
            <DistanceMeters>19845.605609806</DistanceMeters>
          </Trackpoint>
          <Trackpoint>
            <Time>2021-06-20T07:51:03.000Z</Time>
            <Position>
              <LatitudeDegrees>38.8314273767173290252685546875</LatitudeDegrees>
              <LongitudeDegrees>-0.4329398833215236663818359375</LongitudeDegrees>
            </Position>
            <AltitudeMeters>705.20001220703125</AltitudeMeters>
            <DistanceMeters>19857.676621094</DistanceMeters>
          </Trackpoint>
          <Trackpoint>
            <Time>2021-06-20T07:51:06.000Z</Time>
            <Position>
              <LatitudeDegrees>38.83142695762217044830322265625</LatitudeDegrees>
              <LongitudeDegrees>-0.43311833404004573822021484375</LongitudeDegrees>
            </Position>
            <AltitudeMeters>704</AltitudeMeters>
            <DistanceMeters>19873.149351515</DistanceMeters>
          </Trackpoint>
          <Trackpoint>
            <Time>2021-06-20T07:51:12.000Z</Time>
            <Position>
              <LatitudeDegrees>38.83145679719746112823486328125</LatitudeDegrees>
              <LongitudeDegrees>-0.43335252441465854644775390625</LongitudeDegrees>
            </Position>
            <AltitudeMeters>703</AltitudeMeters>
            <DistanceMeters>19893.724555372</DistanceMeters>
          </Trackpoint>
          <Trackpoint>
            <Time>2021-06-20T07:51:36.000Z</Time>
            <Position>
              <LatitudeDegrees>38.8312993012368679046630859375</LatitudeDegrees>
              <LongitudeDegrees>-0.434276796877384185791015625</LongitudeDegrees>
            </Position>
            <AltitudeMeters>697.20001220703125</AltitudeMeters>
            <DistanceMeters>19975.75721623</DistanceMeters>
          </Trackpoint>
          <Trackpoint>
            <Time>2021-06-20T07:51:46.000Z</Time>
            <Position>
              <LatitudeDegrees>38.83114968426525592803955078125</LatitudeDegrees>
              <LongitudeDegrees>-0.43457997031509876251220703125</LongitudeDegrees>
            </Position>
            <AltitudeMeters>695</AltitudeMeters>
            <DistanceMeters>20006.874511533</DistanceMeters>
          </Trackpoint>
          <Trackpoint>
            <Time>2021-06-20T07:51:48.000Z</Time>
            <Position>
              <LatitudeDegrees>38.831119425594806671142578125</LatitudeDegrees>
              <LongitudeDegrees>-0.4346373863518238067626953125</LongitudeDegrees>
            </Position>
            <AltitudeMeters>694.4000244140625</AltitudeMeters>
            <DistanceMeters>20012.886030969</DistanceMeters>
          </Trackpoint>
          <Trackpoint>
            <Time>2021-06-20T07:51:58.000Z</Time>
            <Position>
              <LatitudeDegrees>38.8310112990438938140869140625</LatitudeDegrees>
              <LongitudeDegrees>-0.43494164943695068359375</LongitudeDegrees>
            </Position>
            <AltitudeMeters>691.20001220703125</AltitudeMeters>
            <DistanceMeters>20041.882417256</DistanceMeters>
          </Trackpoint>
          <Trackpoint>
            <Time>2021-06-20T07:52:02.000Z</Time>
            <Position>
              <LatitudeDegrees>38.830994032323360443115234375</LatitudeDegrees>
              <LongitudeDegrees>-0.4350702278316020965576171875</LongitudeDegrees>
            </Position>
            <AltitudeMeters>690</AltitudeMeters>
            <DistanceMeters>20053.194987404</DistanceMeters>
          </Trackpoint>
          <Trackpoint>
            <Time>2021-06-20T07:52:16.000Z</Time>
            <Position>
              <LatitudeDegrees>38.8309224508702754974365234375</LatitudeDegrees>
              <LongitudeDegrees>-0.43550080619752407073974609375</LongitudeDegrees>
            </Position>
            <AltitudeMeters>686.5999755859375</AltitudeMeters>
            <DistanceMeters>20091.368532643</DistanceMeters>
          </Trackpoint>
          <Trackpoint>
            <Time>2021-06-20T07:52:34.000Z</Time>
            <Position>
              <LatitudeDegrees>38.83089068345725536346435546875</LatitudeDegrees>
              <LongitudeDegrees>-0.43603372760117053985595703125</LongitudeDegrees>
            </Position>
            <AltitudeMeters>681.79998779296875</AltitudeMeters>
            <DistanceMeters>20137.710207624</DistanceMeters>
          </Trackpoint>
          <Trackpoint>
            <Time>2021-06-20T07:52:44.000Z</Time>
            <Position>
              <LatitudeDegrees>38.8308721594512462615966796875</LatitudeDegrees>
              <LongitudeDegrees>-0.4363265074789524078369140625</LongitudeDegrees>
            </Position>
            <AltitudeMeters>678.20001220703125</AltitudeMeters>
            <DistanceMeters>20163.1791399</DistanceMeters>
          </Trackpoint>
          <Trackpoint>
            <Time>2021-06-20T07:52:50.000Z</Time>
            <Position>
              <LatitudeDegrees>38.8308604247868061065673828125</LatitudeDegrees>
              <LongitudeDegrees>-0.43648685328662395477294921875</LongitudeDegrees>
            </Position>
            <AltitudeMeters>675.4000244140625</AltitudeMeters>
            <DistanceMeters>20177.143217769</DistanceMeters>
          </Trackpoint>
          <Trackpoint>
            <Time>2021-06-20T07:52:52.000Z</Time>
            <Position>
              <LatitudeDegrees>38.83096260018646717071533203125</LatitudeDegrees>
              <LongitudeDegrees>-0.4368213750422000885009765625</LongitudeDegrees>
            </Position>
            <AltitudeMeters>674.5999755859375</AltitudeMeters>
            <DistanceMeters>20208.29763586</DistanceMeters>
          </Trackpoint>
          <Trackpoint>
            <Time>2021-06-20T07:52:53.000Z</Time>
            <Position>
              <LatitudeDegrees>38.83096092380583286285400390625</LatitudeDegrees>
              <LongitudeDegrees>-0.436912737786769866943359375</LongitudeDegrees>
            </Position>
            <AltitudeMeters>674.4000244140625</AltitudeMeters>
            <DistanceMeters>20216.22140526</DistanceMeters>
          </Trackpoint>
          <Trackpoint>
            <Time>2021-06-20T07:52:56.000Z</Time>
            <Position>
              <LatitudeDegrees>38.8309697248041629791259765625</LatitudeDegrees>
              <LongitudeDegrees>-0.4372119717299938201904296875</LongitudeDegrees>
            </Position>
            <AltitudeMeters>673</AltitudeMeters>
            <DistanceMeters>20242.184748777</DistanceMeters>
          </Trackpoint>
          <Trackpoint>
            <Time>2021-06-20T07:52:58.000Z</Time>
            <Position>
              <LatitudeDegrees>38.83096394129097461700439453125</LatitudeDegrees>
              <LongitudeDegrees>-0.437326468527317047119140625</LongitudeDegrees>
            </Position>
            <AltitudeMeters>672.4000244140625</AltitudeMeters>
            <DistanceMeters>20252.133097274</DistanceMeters>
          </Trackpoint>
          <Trackpoint>
            <Time>2021-06-20T07:53:00.000Z</Time>
            <Position>
              <LatitudeDegrees>38.83094985969364643096923828125</LatitudeDegrees>
              <LongitudeDegrees>-0.43746032752096652984619140625</LongitudeDegrees>
            </Position>
            <AltitudeMeters>672</AltitudeMeters>
            <DistanceMeters>20263.844151925</DistanceMeters>
          </Trackpoint>
          <Trackpoint>
            <Time>2021-06-20T07:53:02.000Z</Time>
            <Position>
              <LatitudeDegrees>38.8309512846171855926513671875</LatitudeDegrees>
              <LongitudeDegrees>-0.43758563697338104248046875</LongitudeDegrees>
            </Position>
            <AltitudeMeters>671.4000244140625</AltitudeMeters>
            <DistanceMeters>20274.7100734</DistanceMeters>
          </Trackpoint>
          <Trackpoint>
            <Time>2021-06-20T07:53:05.000Z</Time>
            <Position>
              <LatitudeDegrees>38.83133023045957088470458984375</LatitudeDegrees>
              <LongitudeDegrees>-0.43749201111495494842529296875</LongitudeDegrees>
            </Position>
            <AltitudeMeters>670.20001220703125</AltitudeMeters>
            <DistanceMeters>20317.661517582</DistanceMeters>
          </Trackpoint>
          <Trackpoint>
            <Time>2021-06-20T07:53:07.000Z</Time>
            <Position>
              <LatitudeDegrees>38.83146987296640872955322265625</LatitudeDegrees>
              <LongitudeDegrees>-0.43743945658206939697265625</LongitudeDegrees>
            </Position>
            <AltitudeMeters>669.4000244140625</AltitudeMeters>
            <DistanceMeters>20333.858485843</DistanceMeters>
          </Trackpoint>
          <Trackpoint>
            <Time>2021-06-20T07:53:11.000Z</Time>
            <Position>
              <LatitudeDegrees>38.83171412162482738494873046875</LatitudeDegrees>
              <LongitudeDegrees>-0.43738522566854953765869140625</LongitudeDegrees>
            </Position>
            <AltitudeMeters>667.5999755859375</AltitudeMeters>
            <DistanceMeters>20361.447672196</DistanceMeters>
          </Trackpoint>
          <Trackpoint>
            <Time>2021-06-20T07:53:17.000Z</Time>
            <Position>
              <LatitudeDegrees>38.83202659897506237030029296875</LatitudeDegrees>
              <LongitudeDegrees>-0.4373450763523578643798828125</LongitudeDegrees>
            </Position>
            <AltitudeMeters>666.5999755859375</AltitudeMeters>
            <DistanceMeters>20396.400714445</DistanceMeters>
          </Trackpoint>
          <Trackpoint>
            <Time>2021-06-20T07:53:19.000Z</Time>
            <Position>
              <LatitudeDegrees>38.83212022483348846435546875</LatitudeDegrees>
              <LongitudeDegrees>-0.43734465725719928741455078125</LongitudeDegrees>
            </Position>
            <AltitudeMeters>665.79998779296875</AltitudeMeters>
            <DistanceMeters>20406.821640474</DistanceMeters>
          </Trackpoint>
          <Trackpoint>
            <Time>2021-06-20T07:53:27.000Z</Time>
            <Position>
              <LatitudeDegrees>38.8324563391506671905517578125</LatitudeDegrees>
              <LongitudeDegrees>-0.43737147934734821319580078125</LongitudeDegrees>
            </Position>
            <AltitudeMeters>662.4000244140625</AltitudeMeters>
            <DistanceMeters>20444.304108555</DistanceMeters>
          </Trackpoint>
          <Trackpoint>
            <Time>2021-06-20T07:53:29.000Z</Time>
            <Position>
              <LatitudeDegrees>38.8325284235179424285888671875</LatitudeDegrees>
              <LongitudeDegrees>-0.43738002888858318328857421875</LongitudeDegrees>
            </Position>
            <AltitudeMeters>661</AltitudeMeters>
            <DistanceMeters>20452.361230843</DistanceMeters>
          </Trackpoint>
          <Trackpoint>
            <Time>2021-06-20T07:53:33.000Z</Time>
            <Position>
              <LatitudeDegrees>38.83264727890491485595703125</LatitudeDegrees>
              <LongitudeDegrees>-0.43730190955102443695068359375</LongitudeDegrees>
            </Position>
            <AltitudeMeters>659.79998779296875</AltitudeMeters>
            <DistanceMeters>20467.223421122</DistanceMeters>
          </Trackpoint>
          <Trackpoint>
            <Time>2021-06-20T07:53:37.000Z</Time>
            <Position>
              <LatitudeDegrees>38.8326417468488216400146484375</LatitudeDegrees>
              <LongitudeDegrees>-0.43714416213333606719970703125</LongitudeDegrees>
            </Position>
            <AltitudeMeters>658.4000244140625</AltitudeMeters>
            <DistanceMeters>20480.914525052</DistanceMeters>
          </Trackpoint>
          <Trackpoint>
            <Time>2021-06-20T07:53:41.000Z</Time>
            <Position>
              <LatitudeDegrees>38.832630850374698638916015625</LatitudeDegrees>
              <LongitudeDegrees>-0.4369880072772502899169921875</LongitudeDegrees>
            </Position>
            <AltitudeMeters>657.79998779296875</AltitudeMeters>
            <DistanceMeters>20494.507663917</DistanceMeters>
          </Trackpoint>
          <Trackpoint>
            <Time>2021-06-20T07:53:49.000Z</Time>
            <Position>
              <LatitudeDegrees>38.83258718065917491912841796875</LatitudeDegrees>
              <LongitudeDegrees>-0.4367087222635746002197265625</LongitudeDegrees>
            </Position>
            <AltitudeMeters>653.5999755859375</AltitudeMeters>
            <DistanceMeters>20519.205470779</DistanceMeters>
          </Trackpoint>
          <Trackpoint>
            <Time>2021-06-20T07:53:53.000Z</Time>
            <Position>
              <LatitudeDegrees>38.832574523985385894775390625</LatitudeDegrees>
              <LongitudeDegrees>-0.436581484973430633544921875</LongitudeDegrees>
            </Position>
            <AltitudeMeters>652.4000244140625</AltitudeMeters>
            <DistanceMeters>20530.326844662</DistanceMeters>
          </Trackpoint>
          <Trackpoint>
            <Time>2021-06-20T07:53:55.000Z</Time>
            <Position>
              <LatitudeDegrees>38.83261551149189472198486328125</LatitudeDegrees>
              <LongitudeDegrees>-0.4365316964685916900634765625</LongitudeDegrees>
            </Position>
            <AltitudeMeters>651</AltitudeMeters>
            <DistanceMeters>20536.607240661</DistanceMeters>
          </Trackpoint>
          <Trackpoint>
            <Time>2021-06-20T07:53:57.000Z</Time>
            <Position>
              <LatitudeDegrees>38.8326065428555011749267578125</LatitudeDegrees>
              <LongitudeDegrees>-0.43649992905557155609130859375</LongitudeDegrees>
            </Position>
            <AltitudeMeters>649.79998779296875</AltitudeMeters>
            <DistanceMeters>20539.536160705</DistanceMeters>
          </Trackpoint>
          <Trackpoint>
            <Time>2021-06-20T07:54:03.000Z</Time>
            <Position>
              <LatitudeDegrees>38.83262774907052516937255859375</LatitudeDegrees>
              <LongitudeDegrees>-0.43632374145090579986572265625</LongitudeDegrees>
            </Position>
            <AltitudeMeters>647.4000244140625</AltitudeMeters>
            <DistanceMeters>20554.993125561</DistanceMeters>
          </Trackpoint>
          <Trackpoint>
            <Time>2021-06-20T07:54:07.000Z</Time>
            <Position>
              <LatitudeDegrees>38.83276571519672870635986328125</LatitudeDegrees>
              <LongitudeDegrees>-0.43627847917377948760986328125</LongitudeDegrees>
            </Position>
            <AltitudeMeters>646</AltitudeMeters>
            <DistanceMeters>20570.842943436</DistanceMeters>
          </Trackpoint>
          <Trackpoint>
            <Time>2021-06-20T07:54:11.000Z</Time>
            <Position>
              <LatitudeDegrees>38.83291549980640411376953125</LatitudeDegrees>
              <LongitudeDegrees>-0.43623648583889007568359375</LongitudeDegrees>
            </Position>
            <AltitudeMeters>644.20001220703125</AltitudeMeters>
            <DistanceMeters>20587.907053287</DistanceMeters>
          </Trackpoint>
          <Trackpoint>
            <Time>2021-06-20T07:54:13.000Z</Time>
            <Position>
              <LatitudeDegrees>38.83299051783978939056396484375</LatitudeDegrees>
              <LongitudeDegrees>-0.43620337732136249542236328125</LongitudeDegrees>
            </Position>
            <AltitudeMeters>643.5999755859375</AltitudeMeters>
            <DistanceMeters>20596.736870953</DistanceMeters>
          </Trackpoint>
          <Trackpoint>
            <Time>2021-06-20T07:54:17.000Z</Time>
            <Position>
              <LatitudeDegrees>38.8331423141062259674072265625</LatitudeDegrees>
              <LongitudeDegrees>-0.43613213114440441131591796875</LongitudeDegrees>
            </Position>
            <AltitudeMeters>642.79998779296875</AltitudeMeters>
            <DistanceMeters>20614.725806982</DistanceMeters>
          </Trackpoint>
          <Trackpoint>
            <Time>2021-06-20T07:54:19.000Z</Time>
            <Position>
              <LatitudeDegrees>38.833217918872833251953125</LatitudeDegrees>
              <LongitudeDegrees>-0.43608804233372211456298828125</LongitudeDegrees>
            </Position>
            <AltitudeMeters>641.4000244140625</AltitudeMeters>
            <DistanceMeters>20623.967368701</DistanceMeters>
          </Trackpoint>
          <Trackpoint>
            <Time>2021-06-20T07:54:21.000Z</Time>
            <Position>
              <LatitudeDegrees>38.83329503238201141357421875</LatitudeDegrees>
              <LongitudeDegrees>-0.43604194186627864837646484375</LongitudeDegrees>
            </Position>
            <AltitudeMeters>640.5999755859375</AltitudeMeters>
            <DistanceMeters>20633.434814966</DistanceMeters>
          </Trackpoint>
          <Trackpoint>
            <Time>2021-06-20T07:54:23.000Z</Time>
            <Position>
              <LatitudeDegrees>38.833373486995697021484375</LatitudeDegrees>
              <LongitudeDegrees>-0.4359945841133594512939453125</LongitudeDegrees>
            </Position>
            <AltitudeMeters>638.4000244140625</AltitudeMeters>
            <DistanceMeters>20643.084589486</DistanceMeters>
          </Trackpoint>
          <Trackpoint>
            <Time>2021-06-20T07:54:29.000Z</Time>
            <Position>
              <LatitudeDegrees>38.83362921886146068572998046875</LatitudeDegrees>
              <LongitudeDegrees>-0.4358601383864879608154296875</LongitudeDegrees>
            </Position>
            <AltitudeMeters>636.5999755859375</AltitudeMeters>
            <DistanceMeters>20673.842433831</DistanceMeters>
          </Trackpoint>
          <Trackpoint>
            <Time>2021-06-20T07:54:35.000Z</Time>
            <Position>
              <LatitudeDegrees>38.83392292074859142303466796875</LatitudeDegrees>
              <LongitudeDegrees>-0.43571739457547664642333984375</LongitudeDegrees>
            </Position>
            <AltitudeMeters>634.20001220703125</AltitudeMeters>
            <DistanceMeters>20708.796251117</DistanceMeters>
          </Trackpoint>
          <Trackpoint>
            <Time>2021-06-20T07:54:37.000Z</Time>
            <Position>
              <LatitudeDegrees>38.83402526378631591796875</LatitudeDegrees>
              <LongitudeDegrees>-0.4356564581394195556640625</LongitudeDegrees>
            </Position>
            <AltitudeMeters>632.79998779296875</AltitudeMeters>
            <DistanceMeters>20721.352728916</DistanceMeters>
          </Trackpoint>
          <Trackpoint>
            <Time>2021-06-20T07:54:45.000Z</Time>
            <Position>
              <LatitudeDegrees>38.83448727428913116455078125</LatitudeDegrees>
              <LongitudeDegrees>-0.435236357152462005615234375</LongitudeDegrees>
            </Position>
            <AltitudeMeters>629.4000244140625</AltitudeMeters>
            <DistanceMeters>20784.367837228</DistanceMeters>
          </Trackpoint>
          <Trackpoint>
            <Time>2021-06-20T07:54:46.000Z</Time>
            <Position>
              <LatitudeDegrees>38.8350882567465305328369140625</LatitudeDegrees>
              <LongitudeDegrees>-0.4345864243805408477783203125</LongitudeDegrees>
            </Position>
            <AltitudeMeters>629</AltitudeMeters>
            <DistanceMeters>20871.829487665</DistanceMeters>
          </Trackpoint>
          <Trackpoint>
            <Time>2021-06-20T07:54:48.000Z</Time>
            <Position>
              <LatitudeDegrees>38.83528866805136203765869140625</LatitudeDegrees>
              <LongitudeDegrees>-0.43441736139357089996337890625</LongitudeDegrees>
            </Position>
            <AltitudeMeters>628</AltitudeMeters>
            <DistanceMeters>20898.520494033</DistanceMeters>
          </Trackpoint>
          <Trackpoint>
            <Time>2021-06-20T07:54:49.000Z</Time>
            <Position>
              <LatitudeDegrees>38.835397548973560333251953125</LatitudeDegrees>
              <LongitudeDegrees>-0.43430487625300884246826171875</LongitudeDegrees>
            </Position>
            <AltitudeMeters>627.5999755859375</AltitudeMeters>
            <DistanceMeters>20914.075876651</DistanceMeters>
          </Trackpoint>
          <Trackpoint>
            <Time>2021-06-20T07:54:52.000Z</Time>
            <Position>
              <LatitudeDegrees>38.831760473549365997314453125</LatitudeDegrees>
              <LongitudeDegrees>-0.4389550723135471343994140625</LongitudeDegrees>
            </Position>
            <AltitudeMeters>626.5999755859375</AltitudeMeters>
            <DistanceMeters>21485.412441547</DistanceMeters>
          </Trackpoint>
          <Trackpoint>
            <Time>2021-06-20T07:54:53.000Z</Time>
            <Position>
              <LatitudeDegrees>38.831760473549365997314453125</LatitudeDegrees>
              <LongitudeDegrees>-0.4389550723135471343994140625</LongitudeDegrees>
            </Position>
            <AltitudeMeters>626.4000244140625</AltitudeMeters>
            <DistanceMeters>21485.412441547</DistanceMeters>
          </Trackpoint>
          <Trackpoint>
            <Time>2021-06-20T07:54:56.000Z</Time>
            <Position>
              <LatitudeDegrees>38.83177681826055049896240234375</LatitudeDegrees>
              <LongitudeDegrees>-0.4390650428831577301025390625</LongitudeDegrees>
            </Position>
            <AltitudeMeters>625.20001220703125</AltitudeMeters>
            <DistanceMeters>21495.11913087</DistanceMeters>
          </Trackpoint>
          <Trackpoint>
            <Time>2021-06-20T07:54:58.000Z</Time>
            <Position>
              <LatitudeDegrees>38.83179257623851299285888671875</LatitudeDegrees>
              <LongitudeDegrees>-0.43911675922572612762451171875</LongitudeDegrees>
            </Position>
            <AltitudeMeters>624.5999755859375</AltitudeMeters>
            <DistanceMeters>21499.932775659</DistanceMeters>
          </Trackpoint>
          <Trackpoint>
            <Time>2021-06-20T07:55:00.000Z</Time>
            <Position>
              <LatitudeDegrees>38.8318048976361751556396484375</LatitudeDegrees>
              <LongitudeDegrees>-0.43917710892856121063232421875</LongitudeDegrees>
            </Position>
            <AltitudeMeters>624</AltitudeMeters>
            <DistanceMeters>21505.341791067</DistanceMeters>
          </Trackpoint>
          <Trackpoint>
            <Time>2021-06-20T07:55:02.000Z</Time>
            <Position>
              <LatitudeDegrees>38.83186097256839275360107421875</LatitudeDegrees>
              <LongitudeDegrees>-0.43919856660068035125732421875</LongitudeDegrees>
            </Position>
            <AltitudeMeters>622.5999755859375</AltitudeMeters>
            <DistanceMeters>21511.855108127</DistanceMeters>
          </Trackpoint>
          <Trackpoint>
            <Time>2021-06-20T07:55:10.000Z</Time>
            <Position>
              <LatitudeDegrees>38.83195501752197742462158203125</LatitudeDegrees>
              <LongitudeDegrees>-0.43945186771452426910400390625</LongitudeDegrees>
            </Position>
            <AltitudeMeters>619.5999755859375</AltitudeMeters>
            <DistanceMeters>21536.183802926</DistanceMeters>
          </Trackpoint>
          <Trackpoint>
            <Time>2021-06-20T07:55:12.000Z</Time>
            <Position>
              <LatitudeDegrees>38.83198670111596584320068359375</LatitudeDegrees>
              <LongitudeDegrees>-0.43951339088380336761474609375</LongitudeDegrees>
            </Position>
            <AltitudeMeters>618.79998779296875</AltitudeMeters>
            <DistanceMeters>21542.578190006</DistanceMeters>
          </Trackpoint>
          <Trackpoint>
            <Time>2021-06-20T07:55:14.000Z</Time>
            <Position>
              <LatitudeDegrees>38.83201737888157367706298828125</LatitudeDegrees>
              <LongitudeDegrees>-0.43957642279565334320068359375</LongitudeDegrees>
            </Position>
            <AltitudeMeters>618</AltitudeMeters>
            <DistanceMeters>21549.021814102</DistanceMeters>
          </Trackpoint>
          <Trackpoint>
            <Time>2021-06-20T07:55:16.000Z</Time>
            <Position>
              <LatitudeDegrees>38.83205476216971874237060546875</LatitudeDegrees>
              <LongitudeDegrees>-0.43963056989014148712158203125</LongitudeDegrees>
            </Position>
            <AltitudeMeters>616.79998779296875</AltitudeMeters>
            <DistanceMeters>21555.295016884</DistanceMeters>
          </Trackpoint>
          <Trackpoint>
            <Time>2021-06-20T07:55:26.000Z</Time>
            <Position>
              <LatitudeDegrees>38.83221385069191455841064453125</LatitudeDegrees>
              <LongitudeDegrees>-0.4399263672530651092529296875</LongitudeDegrees>
            </Position>
            <AltitudeMeters>612.79998779296875</AltitudeMeters>
            <DistanceMeters>21586.460302417</DistanceMeters>
          </Trackpoint>
          <Trackpoint>
            <Time>2021-06-20T07:55:28.000Z</Time>
            <Position>
              <LatitudeDegrees>38.83224226534366607666015625</LatitudeDegrees>
              <LongitudeDegrees>-0.439987219870090484619140625</LongitudeDegrees>
            </Position>
            <AltitudeMeters>611.4000244140625</AltitudeMeters>
            <DistanceMeters>21592.61140153</DistanceMeters>
          </Trackpoint>
          <Trackpoint>
            <Time>2021-06-20T07:55:34.000Z</Time>
            <Position>
              <LatitudeDegrees>38.83232566528022289276123046875</LatitudeDegrees>
              <LongitudeDegrees>-0.4401640780270099639892578125</LongitudeDegrees>
            </Position>
            <AltitudeMeters>609.79998779296875</AltitudeMeters>
            <DistanceMeters>21610.536220914</DistanceMeters>
          </Trackpoint>
          <Trackpoint>
            <Time>2021-06-20T07:55:44.000Z</Time>
            <Position>
              <LatitudeDegrees>38.83246648125350475311279296875</LatitudeDegrees>
              <LongitudeDegrees>-0.4402891360223293304443359375</LongitudeDegrees>
            </Position>
            <AltitudeMeters>606.79998779296875</AltitudeMeters>
            <DistanceMeters>21629.59423064</DistanceMeters>
          </Trackpoint>
          <Trackpoint>
            <Time>2021-06-20T07:55:50.000Z</Time>
            <Position>
              <LatitudeDegrees>38.83251509629189968109130859375</LatitudeDegrees>
              <LongitudeDegrees>-0.44010230340063571929931640625</LongitudeDegrees>
            </Position>
            <AltitudeMeters>604</AltitudeMeters>
            <DistanceMeters>21646.672622518</DistanceMeters>
          </Trackpoint>
          <Trackpoint>
            <Time>2021-06-20T07:55:54.000Z</Time>
            <Position>
              <LatitudeDegrees>38.8325840793550014495849609375</LatitudeDegrees>
              <LongitudeDegrees>-0.440009348094463348388671875</LongitudeDegrees>
            </Position>
            <AltitudeMeters>602</AltitudeMeters>
            <DistanceMeters>21657.80373562</DistanceMeters>
          </Trackpoint>
          <Trackpoint>
            <Time>2021-06-20T07:55:56.000Z</Time>
            <Position>
              <LatitudeDegrees>38.832614086568355560302734375</LatitudeDegrees>
              <LongitudeDegrees>-0.4399578832089900970458984375</LongitudeDegrees>
            </Position>
            <AltitudeMeters>601.20001220703125</AltitudeMeters>
            <DistanceMeters>21663.377196212</DistanceMeters>
          </Trackpoint>
          <Trackpoint>
            <Time>2021-06-20T07:56:10.000Z</Time>
            <Position>
              <LatitudeDegrees>38.83280955255031585693359375</LatitudeDegrees>
              <LongitudeDegrees>-0.43959955684840679168701171875</LongitudeDegrees>
            </Position>
            <AltitudeMeters>595.20001220703125</AltitudeMeters>
            <DistanceMeters>21701.304880529</DistanceMeters>
          </Trackpoint>
          <Trackpoint>
            <Time>2021-06-20T07:56:28.000Z</Time>
            <Position>
              <LatitudeDegrees>38.8329233787953853607177734375</LatitudeDegrees>
              <LongitudeDegrees>-0.4390789568424224853515625</LongitudeDegrees>
            </Position>
            <AltitudeMeters>586.5999755859375</AltitudeMeters>
            <DistanceMeters>21748.18609602</DistanceMeters>
          </Trackpoint>
          <Trackpoint>
            <Time>2021-06-20T07:56:32.000Z</Time>
            <Position>
              <LatitudeDegrees>38.8329391367733478546142578125</LatitudeDegrees>
              <LongitudeDegrees>-0.43897158466279506683349609375</LongitudeDegrees>
            </Position>
            <AltitudeMeters>584.20001220703125</AltitudeMeters>
            <DistanceMeters>21757.659263373</DistanceMeters>
          </Trackpoint>
          <Trackpoint>
            <Time>2021-06-20T07:56:34.000Z</Time>
            <Position>
              <LatitudeDegrees>38.83294190280139446258544921875</LatitudeDegrees>
              <LongitudeDegrees>-0.4389265738427639007568359375</LongitudeDegrees>
            </Position>
            <AltitudeMeters>583</AltitudeMeters>
            <DistanceMeters>21761.573856548</DistanceMeters>
          </Trackpoint>
          <Trackpoint>
            <Time>2021-06-20T07:56:42.000Z</Time>
            <Position>
              <LatitudeDegrees>38.8329978100955486297607421875</LatitudeDegrees>
              <LongitudeDegrees>-0.43893520720303058624267578125</LongitudeDegrees>
            </Position>
            <AltitudeMeters>580.5999755859375</AltitudeMeters>
            <DistanceMeters>21767.841298812</DistanceMeters>
          </Trackpoint>
          <Trackpoint>
            <Time>2021-06-20T07:56:43.000Z</Time>
            <Position>
              <LatitudeDegrees>38.83299118839204311370849609375</LatitudeDegrees>
              <LongitudeDegrees>-0.4389904439449310302734375</LongitudeDegrees>
            </Position>
            <AltitudeMeters>580.4000244140625</AltitudeMeters>
            <DistanceMeters>21772.68672952</DistanceMeters>
          </Trackpoint>
          <Trackpoint>
            <Time>2021-06-20T07:56:45.000Z</Time>
            <Position>
              <LatitudeDegrees>38.83315396495163440704345703125</LatitudeDegrees>
              <LongitudeDegrees>-0.4388662241399288177490234375</LongitudeDegrees>
            </Position>
            <AltitudeMeters>579.4000244140625</AltitudeMeters>
            <DistanceMeters>21793.763389137</DistanceMeters>
          </Trackpoint>
          <Trackpoint>
            <Time>2021-06-20T07:56:47.000Z</Time>
            <Position>
              <LatitudeDegrees>38.83326963521540164947509765625</LatitudeDegrees>
              <LongitudeDegrees>-0.4387731850147247314453125</LongitudeDegrees>
            </Position>
            <AltitudeMeters>578.79998779296875</AltitudeMeters>
            <DistanceMeters>21808.956077641</DistanceMeters>
          </Trackpoint>
          <Trackpoint>
            <Time>2021-06-20T07:56:48.000Z</Time>
            <Position>
              <LatitudeDegrees>38.833314478397369384765625</LatitudeDegrees>
              <LongitudeDegrees>-0.43877108953893184661865234375</LongitudeDegrees>
            </Position>
            <AltitudeMeters>578.20001220703125</AltitudeMeters>
            <DistanceMeters>21813.951989099</DistanceMeters>
          </Trackpoint>
          <Trackpoint>
            <Time>2021-06-20T07:56:51.000Z</Time>
            <Position>
              <LatitudeDegrees>38.83342084474861621856689453125</LatitudeDegrees>
              <LongitudeDegrees>-0.438760109245777130126953125</LongitudeDegrees>
            </Position>
            <AltitudeMeters>577.20001220703125</AltitudeMeters>
            <DistanceMeters>21825.829188019</DistanceMeters>
          </Trackpoint>
          <Trackpoint>
            <Time>2021-06-20T07:56:52.000Z</Time>
            <Position>
              <LatitudeDegrees>38.83345864713191986083984375</LatitudeDegrees>
              <LongitudeDegrees>-0.43875466100871562957763671875</LongitudeDegrees>
            </Position>
            <AltitudeMeters>576.5999755859375</AltitudeMeters>
            <DistanceMeters>21830.064011725</DistanceMeters>
          </Trackpoint>
          <Trackpoint>
            <Time>2021-06-20T07:56:54.000Z</Time>
            <Position>
              <LatitudeDegrees>38.8335017301142215728759765625</LatitudeDegrees>
              <LongitudeDegrees>-0.438779555261135101318359375</LongitudeDegrees>
            </Position>
            <AltitudeMeters>575.4000244140625</AltitudeMeters>
            <DistanceMeters>21835.3223474</DistanceMeters>
          </Trackpoint>
          <Trackpoint>
            <Time>2021-06-20T07:56:55.000Z</Time>
            <Position>
              <LatitudeDegrees>38.83351271040737628936767578125</LatitudeDegrees>
              <LongitudeDegrees>-0.438833869993686676025390625</LongitudeDegrees>
            </Position>
            <AltitudeMeters>574.4000244140625</AltitudeMeters>
            <DistanceMeters>21840.187306841</DistanceMeters>
          </Trackpoint>
          <Trackpoint>
            <Time>2021-06-20T07:56:56.000Z</Time>
            <Position>
              <LatitudeDegrees>38.83352058939635753631591796875</LatitudeDegrees>
              <LongitudeDegrees>-0.43887502513825893402099609375</LongitudeDegrees>
            </Position>
            <AltitudeMeters>573.79998779296875</AltitudeMeters>
            <DistanceMeters>21843.86030755</DistanceMeters>
          </Trackpoint>
          <Trackpoint>
            <Time>2021-06-20T07:56:57.000Z</Time>
            <Position>
              <LatitudeDegrees>38.83286562748253345489501953125</LatitudeDegrees>
              <LongitudeDegrees>-0.43967080302536487579345703125</LongitudeDegrees>
            </Position>
            <AltitudeMeters>573.5999755859375</AltitudeMeters>
            <DistanceMeters>21944.232271793</DistanceMeters>
          </Trackpoint>
          <Trackpoint>
            <Time>2021-06-20T07:56:58.000Z</Time>
            <Position>
              <LatitudeDegrees>38.83286562748253345489501953125</LatitudeDegrees>
              <LongitudeDegrees>-0.43967080302536487579345703125</LongitudeDegrees>
            </Position>
            <AltitudeMeters>573.4000244140625</AltitudeMeters>
            <DistanceMeters>21944.327298507</DistanceMeters>
          </Trackpoint>
          <Trackpoint>
            <Time>2021-06-20T07:57:03.000Z</Time>
            <Position>
              <LatitudeDegrees>38.8329431600868701934814453125</LatitudeDegrees>
              <LongitudeDegrees>-0.4397977888584136962890625</LongitudeDegrees>
            </Position>
            <AltitudeMeters>572.4000244140625</AltitudeMeters>
            <DistanceMeters>21958.316250813</DistanceMeters>
          </Trackpoint>
          <Trackpoint>
            <Time>2021-06-20T07:57:06.000Z</Time>
            <Position>
              <LatitudeDegrees>38.83304231800138950347900390625</LatitudeDegrees>
              <LongitudeDegrees>-0.43977431952953338623046875</LongitudeDegrees>
            </Position>
            <AltitudeMeters>570.79998779296875</AltitudeMeters>
            <DistanceMeters>21969.539062682</DistanceMeters>
          </Trackpoint>
          <Trackpoint>
            <Time>2021-06-20T07:57:12.000Z</Time>
            <Position>
              <LatitudeDegrees>38.8331406377255916595458984375</LatitudeDegrees>
              <LongitudeDegrees>-0.43986761011183261871337890625</LongitudeDegrees>
            </Position>
            <AltitudeMeters>567.20001220703125</AltitudeMeters>
            <DistanceMeters>21983.14747213</DistanceMeters>
          </Trackpoint>
          <Trackpoint>
            <Time>2021-06-20T07:57:14.000Z</Time>
            <Position>
              <LatitudeDegrees>38.83317768573760986328125</LatitudeDegrees>
              <LongitudeDegrees>-0.4399028979241847991943359375</LongitudeDegrees>
            </Position>
            <AltitudeMeters>566.4000244140625</AltitudeMeters>
            <DistanceMeters>21988.280674158</DistanceMeters>
          </Trackpoint>
          <Trackpoint>
            <Time>2021-06-20T07:57:18.000Z</Time>
            <Position>
              <LatitudeDegrees>38.833253793418407440185546875</LatitudeDegrees>
              <LongitudeDegrees>-0.439973808825016021728515625</LongitudeDegrees>
            </Position>
            <AltitudeMeters>564.79998779296875</AltitudeMeters>
            <DistanceMeters>21998.74742568</DistanceMeters>
          </Trackpoint>
          <Trackpoint>
            <Time>2021-06-20T07:57:22.000Z</Time>
            <Position>
              <LatitudeDegrees>38.83333870209753513336181640625</LatitudeDegrees>
              <LongitudeDegrees>-0.4400252737104892730712890625</LongitudeDegrees>
            </Position>
            <AltitudeMeters>563.4000244140625</AltitudeMeters>
            <DistanceMeters>22009.198636359</DistanceMeters>
          </Trackpoint>
          <Trackpoint>
            <Time>2021-06-20T07:57:28.000Z</Time>
            <Position>
              <LatitudeDegrees>38.83345588110387325286865234375</LatitudeDegrees>
              <LongitudeDegrees>-0.4400929994881153106689453125</LongitudeDegrees>
            </Position>
            <AltitudeMeters>561</AltitudeMeters>
            <DistanceMeters>22023.501972051</DistanceMeters>
          </Trackpoint>
          <Trackpoint>
            <Time>2021-06-20T07:57:32.000Z</Time>
            <Position>
              <LatitudeDegrees>38.83350801654160022735595703125</LatitudeDegrees>
              <LongitudeDegrees>-0.4401241801679134368896484375</LongitudeDegrees>
            </Position>
            <AltitudeMeters>560</AltitudeMeters>
            <DistanceMeters>22029.903416178</DistanceMeters>
          </Trackpoint>
          <Trackpoint>
            <Time>2021-06-20T07:57:38.000Z</Time>
            <Position>
              <LatitudeDegrees>38.833492510020732879638671875</LatitudeDegrees>
              <LongitudeDegrees>-0.44001731090247631072998046875</LongitudeDegrees>
            </Position>
            <AltitudeMeters>557.5999755859375</AltitudeMeters>
            <DistanceMeters>22039.328322648</DistanceMeters>
          </Trackpoint>
          <Trackpoint>
            <Time>2021-06-20T07:57:42.000Z</Time>
            <Position>
              <LatitudeDegrees>38.83343995548784732818603515625</LatitudeDegrees>
              <LongitudeDegrees>-0.43989309109747409820556640625</LongitudeDegrees>
            </Position>
            <AltitudeMeters>558.4000244140625</AltitudeMeters>
            <DistanceMeters>22051.584190286</DistanceMeters>
          </Trackpoint>
          <Trackpoint>
            <Time>2021-06-20T07:57:44.000Z</Time>
            <Position>
              <LatitudeDegrees>38.8334085233509540557861328125</LatitudeDegrees>
              <LongitudeDegrees>-0.43984808027744293212890625</LongitudeDegrees>
            </Position>
            <AltitudeMeters>559</AltitudeMeters>
            <DistanceMeters>22056.825324948</DistanceMeters>
          </Trackpoint>
          <Trackpoint>
            <Time>2021-06-20T07:57:46.000Z</Time>
            <Position>
              <LatitudeDegrees>38.8333890773355960845947265625</LatitudeDegrees>
              <LongitudeDegrees>-0.43983601033687591552734375</LongitudeDegrees>
            </Position>
            <AltitudeMeters>559.20001220703125</AltitudeMeters>
            <DistanceMeters>22059.229331796</DistanceMeters>
          </Trackpoint>
          <Trackpoint>
            <Time>2021-06-20T07:57:48.000Z</Time>
            <Position>
              <LatitudeDegrees>38.83336954750120639801025390625</LatitudeDegrees>
              <LongitudeDegrees>-0.439830310642719268798828125</LongitudeDegrees>
            </Position>
            <AltitudeMeters>559.20001220703125</AltitudeMeters>
            <DistanceMeters>22061.457905789</DistanceMeters>
          </Trackpoint>
          <Trackpoint>
            <Time>2021-06-20T08:01:34.000Z</Time>
            <Position>
              <LatitudeDegrees>38.83160046301782131195068359375</LatitudeDegrees>
              <LongitudeDegrees>-0.4447010345757007598876953125</LongitudeDegrees>
            </Position>
            <AltitudeMeters>557.20001220703125</AltitudeMeters>
            <DistanceMeters>22527.409071945</DistanceMeters>
          </Trackpoint>
          <Trackpoint>
            <Time>2021-06-20T08:01:35.000Z</Time>
            <Position>
              <LatitudeDegrees>38.8317304663360118865966796875</LatitudeDegrees>
              <LongitudeDegrees>-0.44458125717937946319580078125</LongitudeDegrees>
            </Position>
            <AltitudeMeters>557.20001220703125</AltitudeMeters>
            <DistanceMeters>22545.219927777</DistanceMeters>
          </Trackpoint>
          <Trackpoint>
            <Time>2021-06-20T08:01:36.000Z</Time>
            <Position>
              <LatitudeDegrees>38.83191168308258056640625</LatitudeDegrees>
              <LongitudeDegrees>-0.4442824423313140869140625</LongitudeDegrees>
            </Position>
            <AltitudeMeters>557.20001220703125</AltitudeMeters>
            <DistanceMeters>22578.053685958</DistanceMeters>
          </Trackpoint>
          <Trackpoint>
            <Time>2021-06-20T08:01:37.000Z</Time>
            <Position>
              <LatitudeDegrees>38.832079656422138214111328125</LatitudeDegrees>
              <LongitudeDegrees>-0.4440314881503582000732421875</LongitudeDegrees>
            </Position>
            <AltitudeMeters>557.20001220703125</AltitudeMeters>
            <DistanceMeters>22606.740895943</DistanceMeters>
          </Trackpoint>
          <Trackpoint>
            <Time>2021-06-20T08:01:38.000Z</Time>
            <Position>
              <LatitudeDegrees>38.83225006051361560821533203125</LatitudeDegrees>
              <LongitudeDegrees>-0.44381280429661273956298828125</LongitudeDegrees>
            </Position>
            <AltitudeMeters>557.20001220703125</AltitudeMeters>
            <DistanceMeters>22633.559313655</DistanceMeters>
          </Trackpoint>
          <Trackpoint>
            <Time>2021-06-20T08:01:39.000Z</Time>
            <Position>
              <LatitudeDegrees>38.832954727113246917724609375</LatitudeDegrees>
              <LongitudeDegrees>-0.44025485403835773468017578125</LongitudeDegrees>
            </Position>
            <AltitudeMeters>557.20001220703125</AltitudeMeters>
            <DistanceMeters>22951.855630569</DistanceMeters>
          </Trackpoint>
          <Trackpoint>
            <Time>2021-06-20T08:01:40.000Z</Time>
            <Position>
              <LatitudeDegrees>38.832954727113246917724609375</LatitudeDegrees>
              <LongitudeDegrees>-0.44025485403835773468017578125</LongitudeDegrees>
            </Position>
            <AltitudeMeters>557</AltitudeMeters>
            <DistanceMeters>22951.855630569</DistanceMeters>
          </Trackpoint>
          <Trackpoint>
            <Time>2021-06-20T08:01:41.000Z</Time>
            <Position>
              <LatitudeDegrees>38.83378445170819759368896484375</LatitudeDegrees>
              <LongitudeDegrees>-0.4399860464036464691162109375</LongitudeDegrees>
            </Position>
            <AltitudeMeters>556.79998779296875</AltitudeMeters>
            <DistanceMeters>23047.101034848</DistanceMeters>
          </Trackpoint>
          <Trackpoint>
            <Time>2021-06-20T08:01:42.000Z</Time>
            <Position>
              <LatitudeDegrees>38.833754695951938629150390625</LatitudeDegrees>
              <LongitudeDegrees>-0.43993919156491756439208984375</LongitudeDegrees>
            </Position>
            <AltitudeMeters>556.5999755859375</AltitudeMeters>
            <DistanceMeters>23052.34216951</DistanceMeters>
          </Trackpoint>
          <Trackpoint>
            <Time>2021-06-20T08:01:44.000Z</Time>
            <Position>
              <LatitudeDegrees>38.83368261158466339111328125</LatitudeDegrees>
              <LongitudeDegrees>-0.43987683020532131195068359375</LongitudeDegrees>
            </Position>
            <AltitudeMeters>556.5999755859375</AltitudeMeters>
            <DistanceMeters>23062.016243743</DistanceMeters>
          </Trackpoint>
          <Trackpoint>
            <Time>2021-06-20T08:01:46.000Z</Time>
            <Position>
              <LatitudeDegrees>38.833668194711208343505859375</LatitudeDegrees>
              <LongitudeDegrees>-0.4398241080343723297119140625</LongitudeDegrees>
            </Position>
            <AltitudeMeters>556.4000244140625</AltitudeMeters>
            <DistanceMeters>23066.859810466</DistanceMeters>
          </Trackpoint>
          <Trackpoint>
            <Time>2021-06-20T08:01:48.000Z</Time>
            <Position>
              <LatitudeDegrees>38.83366710506379604339599609375</LatitudeDegrees>
              <LongitudeDegrees>-0.43976903893053531646728515625</LongitudeDegrees>
            </Position>
            <AltitudeMeters>556.20001220703125</AltitudeMeters>
            <DistanceMeters>23071.635789224</DistanceMeters>
          </Trackpoint>
          <Trackpoint>
            <Time>2021-06-20T08:01:49.000Z</Time>
            <Position>
              <LatitudeDegrees>38.83366039954125881195068359375</LatitudeDegrees>
              <LongitudeDegrees>-0.4397493414580821990966796875</LongitudeDegrees>
            </Position>
            <AltitudeMeters>556.20001220703125</AltitudeMeters>
            <DistanceMeters>23073.497924921</DistanceMeters>
          </Trackpoint>
          <Trackpoint>
            <Time>2021-06-20T08:01:51.000Z</Time>
            <Position>
              <LatitudeDegrees>38.8336723856627941131591796875</LatitudeDegrees>
              <LongitudeDegrees>-0.43970835395157337188720703125</LongitudeDegrees>
            </Position>
            <AltitudeMeters>556</AltitudeMeters>
            <DistanceMeters>23077.294239187</DistanceMeters>
          </Trackpoint>
          <Trackpoint>
            <Time>2021-06-20T08:01:55.000Z</Time>
            <Position>
              <LatitudeDegrees>38.83363961242139339447021484375</LatitudeDegrees>
              <LongitudeDegrees>-0.43964766897261142730712890625</LongitudeDegrees>
            </Position>
            <AltitudeMeters>555.79998779296875</AltitudeMeters>
            <DistanceMeters>23083.697093789</DistanceMeters>
          </Trackpoint>
          <Trackpoint>
            <Time>2021-06-20T08:01:58.000Z</Time>
            <Position>
              <LatitudeDegrees>38.8336455635726451873779296875</LatitudeDegrees>
              <LongitudeDegrees>-0.43958388268947601318359375</LongitudeDegrees>
            </Position>
            <AltitudeMeters>555.79998779296875</AltitudeMeters>
            <DistanceMeters>23089.267313054</DistanceMeters>
          </Trackpoint>
          <Trackpoint>
            <Time>2021-06-20T08:02:06.000Z</Time>
            <Position>
              <LatitudeDegrees>38.83357540704309940338134765625</LatitudeDegrees>
              <LongitudeDegrees>-0.43941490352153778076171875</LongitudeDegrees>
            </Position>
            <AltitudeMeters>555.20001220703125</AltitudeMeters>
            <DistanceMeters>23105.868999511</DistanceMeters>
          </Trackpoint>
          <Trackpoint>
            <Time>2021-06-20T08:02:08.000Z</Time>
            <Position>
              <LatitudeDegrees>38.833533413708209991455078125</LatitudeDegrees>
              <LongitudeDegrees>-0.43937291018664836883544921875</LongitudeDegrees>
            </Position>
            <AltitudeMeters>554.79998779296875</AltitudeMeters>
            <DistanceMeters>23111.793516972</DistanceMeters>
          </Trackpoint>
          <Trackpoint>
            <Time>2021-06-20T08:02:18.000Z</Time>
            <Position>
              <LatitudeDegrees>38.83347339928150177001953125</LatitudeDegrees>
              <LongitudeDegrees>-0.43918012641370296478271484375</LongitudeDegrees>
            </Position>
            <AltitudeMeters>554.5999755859375</AltitudeMeters>
            <DistanceMeters>23129.793743995</DistanceMeters>
          </Trackpoint>
          <Trackpoint>
            <Time>2021-06-20T08:02:24.000Z</Time>
            <Position>
              <LatitudeDegrees>38.83348136208951473236083984375</LatitudeDegrees>
              <LongitudeDegrees>-0.438993461430072784423828125</LongitudeDegrees>
            </Position>
            <AltitudeMeters>554</AltitudeMeters>
            <DistanceMeters>23146.002415873</DistanceMeters>
          </Trackpoint>
          <Trackpoint>
            <Time>2021-06-20T08:02:32.000Z</Time>
            <Position>
              <LatitudeDegrees>38.8335168175399303436279296875</LatitudeDegrees>
              <LongitudeDegrees>-0.4387505538761615753173828125</LongitudeDegrees>
            </Position>
            <AltitudeMeters>553.5999755859375</AltitudeMeters>
            <DistanceMeters>23167.429623034</DistanceMeters>
          </Trackpoint>
          <Trackpoint>
            <Time>2021-06-20T08:03:10.000Z</Time>
            <Position>
              <LatitudeDegrees>38.8331902585923671722412109375</LatitudeDegrees>
              <LongitudeDegrees>-0.43765394948422908782958984375</LongitudeDegrees>
            </Position>
            <AltitudeMeters>554.79998779296875</AltitudeMeters>
            <DistanceMeters>23269.217207683</DistanceMeters>
          </Trackpoint>
          <Trackpoint>
            <Time>2021-06-20T08:03:14.000Z</Time>
            <Position>
              <LatitudeDegrees>38.83314407430589199066162109375</LatitudeDegrees>
              <LongitudeDegrees>-0.43754029087722301483154296875</LongitudeDegrees>
            </Position>
            <AltitudeMeters>556.20001220703125</AltitudeMeters>
            <DistanceMeters>23280.33167779</DistanceMeters>
          </Trackpoint>
          <Trackpoint>
            <Time>2021-06-20T08:03:26.000Z</Time>
            <Position>
              <LatitudeDegrees>38.83299957029521465301513671875</LatitudeDegrees>
              <LongitudeDegrees>-0.4372029192745685577392578125</LongitudeDegrees>
            </Position>
            <AltitudeMeters>557.5999755859375</AltitudeMeters>
            <DistanceMeters>23313.712440407</DistanceMeters>
          </Trackpoint>
          <Trackpoint>
            <Time>2021-06-20T08:03:32.000Z</Time>
            <Position>
              <LatitudeDegrees>38.83293067105114459991455078125</LatitudeDegrees>
              <LongitudeDegrees>-0.43703217990696430206298828125</LongitudeDegrees>
            </Position>
            <AltitudeMeters>557.79998779296875</AltitudeMeters>
            <DistanceMeters>23330.384145567</DistanceMeters>
          </Trackpoint>
          <Trackpoint>
            <Time>2021-06-20T08:03:45.000Z</Time>
            <Position>
              <LatitudeDegrees>38.8329237140715122222900390625</LatitudeDegrees>
              <LongitudeDegrees>-0.436412505805492401123046875</LongitudeDegrees>
            </Position>
            <AltitudeMeters>558.79998779296875</AltitudeMeters>
            <DistanceMeters>23384.116606067</DistanceMeters>
          </Trackpoint>
          <Trackpoint>
            <Time>2021-06-20T08:03:49.000Z</Time>
            <Position>
              <LatitudeDegrees>38.8329149968922138214111328125</LatitudeDegrees>
              <LongitudeDegrees>-0.43616130016744136810302734375</LongitudeDegrees>
            </Position>
            <AltitudeMeters>559.4000244140625</AltitudeMeters>
            <DistanceMeters>23405.918559279</DistanceMeters>
          </Trackpoint>
          <Trackpoint>
            <Time>2021-06-20T08:03:51.000Z</Time>
            <Position>
              <LatitudeDegrees>38.8329052738845348358154296875</LatitudeDegrees>
              <LongitudeDegrees>-0.4360706917941570281982421875</LongitudeDegrees>
            </Position>
            <AltitudeMeters>559.5999755859375</AltitudeMeters>
            <DistanceMeters>23413.848594105</DistanceMeters>
          </Trackpoint>
          <Trackpoint>
            <Time>2021-06-20T08:03:53.000Z</Time>
            <Position>
              <LatitudeDegrees>38.83238668553531169891357421875</LatitudeDegrees>
              <LongitudeDegrees>-0.436696149408817291259765625</LongitudeDegrees>
            </Position>
            <AltitudeMeters>560.20001220703125</AltitudeMeters>
            <DistanceMeters>23493.046619449</DistanceMeters>
          </Trackpoint>
          <Trackpoint>
            <Time>2021-06-20T08:03:55.000Z</Time>
            <Position>
              <LatitudeDegrees>38.8323758728802204132080078125</LatitudeDegrees>
              <LongitudeDegrees>-0.43662314303219318389892578125</LongitudeDegrees>
            </Position>
            <AltitudeMeters>560.79998779296875</AltitudeMeters>
            <DistanceMeters>23499.490243545</DistanceMeters>
          </Trackpoint>
          <Trackpoint>
            <Time>2021-06-20T08:04:00.000Z</Time>
            <Position>
              <LatitudeDegrees>38.83226380683481693267822265625</LatitudeDegrees>
              <LongitudeDegrees>-0.4365276731550693511962890625</LongitudeDegrees>
            </Position>
            <AltitudeMeters>561.5999755859375</AltitudeMeters>
            <DistanceMeters>23514.460495286</DistanceMeters>
          </Trackpoint>
          <Trackpoint>
            <Time>2021-06-20T08:04:03.000Z</Time>
            <Position>
              <LatitudeDegrees>38.83221133612096309661865234375</LatitudeDegrees>
              <LongitudeDegrees>-0.43649875558912754058837890625</LongitudeDegrees>
            </Position>
            <AltitudeMeters>561.5999755859375</AltitudeMeters>
            <DistanceMeters>23520.815928547</DistanceMeters>
          </Trackpoint>
          <Trackpoint>
            <Time>2021-06-20T08:05:02.000Z</Time>
            <Position>
              <LatitudeDegrees>38.83223027922213077545166015625</LatitudeDegrees>
              <LongitudeDegrees>-0.43618644587695598602294921875</LongitudeDegrees>
            </Position>
            <AltitudeMeters>561.5999755859375</AltitudeMeters>
            <DistanceMeters>23547.975953302</DistanceMeters>
          </Trackpoint>
          <Trackpoint>
            <Time>2021-06-20T08:05:08.000Z</Time>
            <Position>
              <LatitudeDegrees>38.83216154761612415313720703125</LatitudeDegrees>
              <LongitudeDegrees>-0.43598779477179050445556640625</LongitudeDegrees>
            </Position>
            <AltitudeMeters>561.20001220703125</AltitudeMeters>
            <DistanceMeters>23566.821933422</DistanceMeters>
          </Trackpoint>
          <Trackpoint>
            <Time>2021-06-20T08:05:09.000Z</Time>
            <Position>
              <LatitudeDegrees>38.83218434639275074005126953125</LatitudeDegrees>
              <LongitudeDegrees>-0.43596348725259304046630859375</LongitudeDegrees>
            </Position>
            <AltitudeMeters>561.20001220703125</AltitudeMeters>
            <DistanceMeters>23570.120606203</DistanceMeters>
          </Trackpoint>
          <Trackpoint>
            <Time>2021-06-20T08:05:10.000Z</Time>
            <Position>
              <LatitudeDegrees>38.832237906754016876220703125</LatitudeDegrees>
              <LongitudeDegrees>-0.4359607212245464324951171875</LongitudeDegrees>
            </Position>
            <AltitudeMeters>561</AltitudeMeters>
            <DistanceMeters>23576.086891592</DistanceMeters>
          </Trackpoint>
          <Trackpoint>
            <Time>2021-06-20T08:05:11.000Z</Time>
            <Position>
              <LatitudeDegrees>38.83230529725551605224609375</LatitudeDegrees>
              <LongitudeDegrees>-0.4359727911651134490966796875</LongitudeDegrees>
            </Position>
            <AltitudeMeters>560.79998779296875</AltitudeMeters>
            <DistanceMeters>23583.660467074</DistanceMeters>
          </Trackpoint>
          <Trackpoint>
            <Time>2021-06-20T08:05:12.000Z</Time>
            <Position>
              <LatitudeDegrees>38.8323440216481685638427734375</LatitudeDegrees>
              <LongitudeDegrees>-0.435965918004512786865234375</LongitudeDegrees>
            </Position>
            <AltitudeMeters>560.79998779296875</AltitudeMeters>
            <DistanceMeters>23588.010988907</DistanceMeters>
          </Trackpoint>
          <Trackpoint>
            <Time>2021-06-20T08:05:13.000Z</Time>
            <Position>
              <LatitudeDegrees>38.83237964473664760589599609375</LatitudeDegrees>
              <LongitudeDegrees>-0.43596751056611537933349609375</LongitudeDegrees>
            </Position>
            <AltitudeMeters>560.79998779296875</AltitudeMeters>
            <DistanceMeters>23591.977144876</DistanceMeters>
          </Trackpoint>
          <Trackpoint>
            <Time>2021-06-20T08:05:18.000Z</Time>
            <Position>
              <LatitudeDegrees>38.8324912078678607940673828125</LatitudeDegrees>
              <LongitudeDegrees>-0.43604697100818157196044921875</LongitudeDegrees>
            </Position>
            <AltitudeMeters>560.79998779296875</AltitudeMeters>
            <DistanceMeters>23606.17720146</DistanceMeters>
          </Trackpoint>
          <Trackpoint>
            <Time>2021-06-20T08:05:22.000Z</Time>
            <Position>
              <LatitudeDegrees>38.83252431638538837432861328125</LatitudeDegrees>
              <LongitudeDegrees>-0.43612156994640827178955078125</LongitudeDegrees>
            </Position>
            <AltitudeMeters>560</AltitudeMeters>
            <DistanceMeters>23613.620893357</DistanceMeters>
          </Trackpoint>
          <Trackpoint>
            <Time>2021-06-20T08:05:30.000Z</Time>
            <Position>
              <LatitudeDegrees>38.83256723172962665557861328125</LatitudeDegrees>
              <LongitudeDegrees>-0.43628937564790248870849609375</LongitudeDegrees>
            </Position>
            <AltitudeMeters>558.4000244140625</AltitudeMeters>
            <DistanceMeters>23628.933763598</DistanceMeters>
          </Trackpoint>
          <Trackpoint>
            <Time>2021-06-20T08:05:36.000Z</Time>
            <Position>
              <LatitudeDegrees>38.83261014707386493682861328125</LatitudeDegrees>
              <LongitudeDegrees>-0.43640756048262119293212890625</LongitudeDegrees>
            </Position>
            <AltitudeMeters>556.79998779296875</AltitudeMeters>
            <DistanceMeters>23640.239147359</DistanceMeters>
          </Trackpoint>
          <Trackpoint>
            <Time>2021-06-20T08:05:42.000Z</Time>
            <Position>
              <LatitudeDegrees>38.83262758143246173858642578125</LatitudeDegrees>
              <LongitudeDegrees>-0.43647654354572296142578125</LongitudeDegrees>
            </Position>
            <AltitudeMeters>554.4000244140625</AltitudeMeters>
            <DistanceMeters>23646.526010217</DistanceMeters>
          </Trackpoint>
          <Trackpoint>
            <Time>2021-06-20T08:05:43.000Z</Time>
            <Position>
              <LatitudeDegrees>38.8326719217002391815185546875</LatitudeDegrees>
              <LongitudeDegrees>-0.4366192035377025604248046875</LongitudeDegrees>
            </Position>
            <AltitudeMeters>554</AltitudeMeters>
            <DistanceMeters>23659.842979515</DistanceMeters>
          </Trackpoint>
          <Trackpoint>
            <Time>2021-06-20T08:05:47.000Z</Time>
            <Position>
              <LatitudeDegrees>38.833094872534275054931640625</LatitudeDegrees>
              <LongitudeDegrees>-0.43656882829964160919189453125</LongitudeDegrees>
            </Position>
            <AltitudeMeters>553.4000244140625</AltitudeMeters>
            <DistanceMeters>23707.120274082</DistanceMeters>
          </Trackpoint>
          <Trackpoint>
            <Time>2021-06-20T08:05:49.000Z</Time>
            <Position>
              <LatitudeDegrees>38.83318841457366943359375</LatitudeDegrees>
              <LongitudeDegrees>-0.43653982691466808319091796875</LongitudeDegrees>
            </Position>
            <AltitudeMeters>553.20001220703125</AltitudeMeters>
            <DistanceMeters>23717.830927244</DistanceMeters>
          </Trackpoint>
          <Trackpoint>
            <Time>2021-06-20T08:05:50.000Z</Time>
            <Position>
              <LatitudeDegrees>38.833253793418407440185546875</LatitudeDegrees>
              <LongitudeDegrees>-0.43651049025356769561767578125</LongitudeDegrees>
            </Position>
            <AltitudeMeters>553.20001220703125</AltitudeMeters>
            <DistanceMeters>23725.539813874</DistanceMeters>
          </Trackpoint>
          <Trackpoint>
            <Time>2021-06-20T08:05:54.000Z</Time>
            <Position>
              <LatitudeDegrees>38.833099566400051116943359375</LatitudeDegrees>
              <LongitudeDegrees>-0.4369202814996242523193359375</LongitudeDegrees>
            </Position>
            <AltitudeMeters>552.20001220703125</AltitudeMeters>
            <DistanceMeters>23764.998677273</DistanceMeters>
          </Trackpoint>
          <Trackpoint>
            <Time>2021-06-20T08:05:55.000Z</Time>
            <Position>
              <LatitudeDegrees>38.83312529884278774261474609375</LatitudeDegrees>
              <LongitudeDegrees>-0.4369068704545497894287109375</LongitudeDegrees>
            </Position>
            <AltitudeMeters>552</AltitudeMeters>
            <DistanceMeters>23768.089602843</DistanceMeters>
          </Trackpoint>
          <Trackpoint>
            <Time>2021-06-20T08:06:00.000Z</Time>
            <Position>
              <LatitudeDegrees>38.833230994641780853271484375</LatitudeDegrees>
              <LongitudeDegrees>-0.4367841593921184539794921875</LongitudeDegrees>
            </Position>
            <AltitudeMeters>551.20001220703125</AltitudeMeters>
            <DistanceMeters>23783.951095831</DistanceMeters>
          </Trackpoint>
          <Trackpoint>
            <Time>2021-06-20T08:06:01.000Z</Time>
            <Position>
              <LatitudeDegrees>38.83328472264111042022705078125</LatitudeDegrees>
              <LongitudeDegrees>-0.43666756711900234222412109375</LongitudeDegrees>
            </Position>
            <AltitudeMeters>551</AltitudeMeters>
            <DistanceMeters>23795.696028686</DistanceMeters>
          </Trackpoint>
          <Trackpoint>
            <Time>2021-06-20T08:06:02.000Z</Time>
            <Position>
              <LatitudeDegrees>38.83326980285346508026123046875</LatitudeDegrees>
              <LongitudeDegrees>-0.43670453131198883056640625</LongitudeDegrees>
            </Position>
            <AltitudeMeters>551.20001220703125</AltitudeMeters>
            <DistanceMeters>23799.304542262</DistanceMeters>
          </Trackpoint>
          <Trackpoint>
            <Time>2021-06-20T08:06:05.000Z</Time>
            <Position>
              <LatitudeDegrees>38.833316154778003692626953125</LatitudeDegrees>
              <LongitudeDegrees>-0.43645919300615787506103515625</LongitudeDegrees>
            </Position>
            <AltitudeMeters>551.4000244140625</AltitudeMeters>
            <DistanceMeters>23821.192476739</DistanceMeters>
          </Trackpoint>
          <Trackpoint>
            <Time>2021-06-20T08:06:09.000Z</Time>
            <Position>
              <LatitudeDegrees>38.833335936069488525390625</LatitudeDegrees>
              <LongitudeDegrees>-0.43625433929264545440673828125</LongitudeDegrees>
            </Position>
            <AltitudeMeters>551.4000244140625</AltitudeMeters>
            <DistanceMeters>23839.089567048</DistanceMeters>
          </Trackpoint>
          <Trackpoint>
            <Time>2021-06-20T08:06:13.000Z</Time>
            <Position>
              <LatitudeDegrees>38.83335932157933712005615234375</LatitudeDegrees>
              <LongitudeDegrees>-0.43606976978480815887451171875</LongitudeDegrees>
            </Position>
            <AltitudeMeters>551</AltitudeMeters>
            <DistanceMeters>23855.302138255</DistanceMeters>
          </Trackpoint>
          <Trackpoint>
            <Time>2021-06-20T08:06:23.000Z</Time>
            <Position>
              <LatitudeDegrees>38.83340994827449321746826171875</LatitudeDegrees>
              <LongitudeDegrees>-0.4356683604419231414794921875</LongitudeDegrees>
            </Position>
            <AltitudeMeters>549</AltitudeMeters>
            <DistanceMeters>23890.558073818</DistanceMeters>
          </Trackpoint>
          <Trackpoint>
            <Time>2021-06-20T08:06:25.000Z</Time>
            <Position>
              <LatitudeDegrees>38.83341112174093723297119140625</LatitudeDegrees>
              <LongitudeDegrees>-0.43559409677982330322265625</LongitudeDegrees>
            </Position>
            <AltitudeMeters>548.79998779296875</AltitudeMeters>
            <DistanceMeters>23896.99889451</DistanceMeters>
          </Trackpoint>
          <Trackpoint>
            <Time>2021-06-20T08:06:37.000Z</Time>
            <Position>
              <LatitudeDegrees>38.83344917558133602142333984375</LatitudeDegrees>
              <LongitudeDegrees>-0.4351731576025485992431640625</LongitudeDegrees>
            </Position>
            <AltitudeMeters>548.5999755859375</AltitudeMeters>
            <DistanceMeters>23933.7398403</DistanceMeters>
          </Trackpoint>
          <Trackpoint>
            <Time>2021-06-20T08:06:47.000Z</Time>
            <Position>
              <LatitudeDegrees>38.8334839604794979095458984375</LatitudeDegrees>
              <LongitudeDegrees>-0.4348392225801944732666015625</LongitudeDegrees>
            </Position>
            <AltitudeMeters>547.5999755859375</AltitudeMeters>
            <DistanceMeters>23962.950007417</DistanceMeters>
          </Trackpoint>
          <Trackpoint>
            <Time>2021-06-20T08:06:53.000Z</Time>
            <Position>
              <LatitudeDegrees>38.83352008648216724395751953125</LatitudeDegrees>
              <LongitudeDegrees>-0.43464727699756622314453125</LongitudeDegrees>
            </Position>
            <AltitudeMeters>547.4000244140625</AltitudeMeters>
            <DistanceMeters>23980.070646464</DistanceMeters>
          </Trackpoint>
          <Trackpoint>
            <Time>2021-06-20T08:07:01.000Z</Time>
            <Position>
              <LatitudeDegrees>38.8335731439292430877685546875</LatitudeDegrees>
              <LongitudeDegrees>-0.43439405970275402069091796875</LongitudeDegrees>
            </Position>
            <AltitudeMeters>547</AltitudeMeters>
            <DistanceMeters>24002.805278977</DistanceMeters>
          </Trackpoint>
          <Trackpoint>
            <Time>2021-06-20T08:07:11.000Z</Time>
            <Position>
              <LatitudeDegrees>38.83366693742573261260986328125</LatitudeDegrees>
              <LongitudeDegrees>-0.4340885393321514129638671875</LongitudeDegrees>
            </Position>
            <AltitudeMeters>546.4000244140625</AltitudeMeters>
            <DistanceMeters>24031.276843079</DistanceMeters>
          </Trackpoint>
          <Trackpoint>
            <Time>2021-06-20T08:07:17.000Z</Time>
            <Position>
              <LatitudeDegrees>38.83373633958399295806884765625</LatitudeDegrees>
              <LongitudeDegrees>-0.4339138604700565338134765625</LongitudeDegrees>
            </Position>
            <AltitudeMeters>546.4000244140625</AltitudeMeters>
            <DistanceMeters>24048.277863248</DistanceMeters>
          </Trackpoint>
          <Trackpoint>
            <Time>2021-06-20T08:07:25.000Z</Time>
            <Position>
              <LatitudeDegrees>38.833804987370967864990234375</LatitudeDegrees>
              <LongitudeDegrees>-0.433666594326496124267578125</LongitudeDegrees>
            </Position>
            <AltitudeMeters>547.4000244140625</AltitudeMeters>
            <DistanceMeters>24071.036711744</DistanceMeters>
          </Trackpoint>
          <Trackpoint>
            <Time>2021-06-20T08:07:31.000Z</Time>
            <Position>
              <LatitudeDegrees>38.83381538093090057373046875</LatitudeDegrees>
              <LongitudeDegrees>-0.43346249498426914215087890625</LongitudeDegrees>
            </Position>
            <AltitudeMeters>547.5999755859375</AltitudeMeters>
            <DistanceMeters>24088.770336366</DistanceMeters>
          </Trackpoint>
          <Trackpoint>
            <Time>2021-06-20T08:07:39.000Z</Time>
            <Position>
              <LatitudeDegrees>38.83383792825043201446533203125</LatitudeDegrees>
              <LongitudeDegrees>-0.4331832937896251678466796875</LongitudeDegrees>
            </Position>
            <AltitudeMeters>548.20001220703125</AltitudeMeters>
            <DistanceMeters>24113.106824481</DistanceMeters>
          </Trackpoint>
          <Trackpoint>
            <Time>2021-06-20T08:07:43.000Z</Time>
            <Position>
              <LatitudeDegrees>38.83387045003473758697509765625</LatitudeDegrees>
              <LongitudeDegrees>-0.4330226965248584747314453125</LongitudeDegrees>
            </Position>
            <AltitudeMeters>547.20001220703125</AltitudeMeters>
            <DistanceMeters>24127.49356776</DistanceMeters>
          </Trackpoint>
          <Trackpoint>
            <Time>2021-06-20T08:07:46.000Z</Time>
            <Position>
              <LatitudeDegrees>38.83401026017963886260986328125</LatitudeDegrees>
              <LongitudeDegrees>-0.43287299573421478271484375</LongitudeDegrees>
            </Position>
            <AltitudeMeters>547.20001220703125</AltitudeMeters>
            <DistanceMeters>24147.756775204</DistanceMeters>
          </Trackpoint>
          <Trackpoint>
            <Time>2021-06-20T08:07:48.000Z</Time>
            <Position>
              <LatitudeDegrees>38.834207318723201751708984375</LatitudeDegrees>
              <LongitudeDegrees>-0.43277048505842685699462890625</LongitudeDegrees>
            </Position>
            <AltitudeMeters>548.20001220703125</AltitudeMeters>
            <DistanceMeters>24171.422052322</DistanceMeters>
          </Trackpoint>
          <Trackpoint>
            <Time>2021-06-20T08:07:49.000Z</Time>
            <Position>
              <LatitudeDegrees>38.83428602479398250579833984375</LatitudeDegrees>
              <LongitudeDegrees>-0.4327569901943206787109375</LongitudeDegrees>
            </Position>
            <AltitudeMeters>548.4000244140625</AltitudeMeters>
            <DistanceMeters>24180.26004764</DistanceMeters>
          </Trackpoint>
          <Trackpoint>
            <Time>2021-06-20T08:07:50.000Z</Time>
            <Position>
              <LatitudeDegrees>38.83433212526142597198486328125</LatitudeDegrees>
              <LongitudeDegrees>-0.4327326826751232147216796875</LongitudeDegrees>
            </Position>
            <AltitudeMeters>548.5999755859375</AltitudeMeters>
            <DistanceMeters>24185.807524591</DistanceMeters>
          </Trackpoint>
          <Trackpoint>
            <Time>2021-06-20T08:07:51.000Z</Time>
            <Position>
              <LatitudeDegrees>38.8342840969562530517578125</LatitudeDegrees>
              <LongitudeDegrees>-0.43271214701235294342041015625</LongitudeDegrees>
            </Position>
            <AltitudeMeters>548.5999755859375</AltitudeMeters>
            <DistanceMeters>24191.441414783</DistanceMeters>
          </Trackpoint>
          <Trackpoint>
            <Time>2021-06-20T08:07:57.000Z</Time>
            <Position>
              <LatitudeDegrees>38.83430756628513336181640625</LatitudeDegrees>
              <LongitudeDegrees>-0.43253160081803798675537109375</LongitudeDegrees>
            </Position>
            <AltitudeMeters>548.20001220703125</AltitudeMeters>
            <DistanceMeters>24207.311445095</DistanceMeters>
          </Trackpoint>
          <Trackpoint>
            <Time>2021-06-20T08:08:30.000Z</Time>
            <Position>
              <LatitudeDegrees>38.83405015803873538970947265625</LatitudeDegrees>
              <LongitudeDegrees>-0.4315390996634960174560546875</LongitudeDegrees>
            </Position>
            <AltitudeMeters>550.79998779296875</AltitudeMeters>
            <DistanceMeters>24298.005670118</DistanceMeters>
          </Trackpoint>
          <Trackpoint>
            <Time>2021-06-20T08:08:32.000Z</Time>
            <Position>
              <LatitudeDegrees>38.83399181999266147613525390625</LatitudeDegrees>
              <LongitudeDegrees>-0.43153935112059116363525390625</LongitudeDegrees>
            </Position>
            <AltitudeMeters>550.79998779296875</AltitudeMeters>
            <DistanceMeters>24304.499548542</DistanceMeters>
          </Trackpoint>
          <Trackpoint>
            <Time>2021-06-20T08:08:38.000Z</Time>
            <Position>
              <LatitudeDegrees>38.83382334373891353607177734375</LatitudeDegrees>
              <LongitudeDegrees>-0.43158545158803462982177734375</LongitudeDegrees>
            </Position>
            <AltitudeMeters>551.79998779296875</AltitudeMeters>
            <DistanceMeters>24323.672586433</DistanceMeters>
          </Trackpoint>
          <Trackpoint>
            <Time>2021-06-20T08:08:50.000Z</Time>
            <Position>
              <LatitudeDegrees>38.8335144706070423126220703125</LatitudeDegrees>
              <LongitudeDegrees>-0.43175040744245052337646484375</LongitudeDegrees>
            </Position>
            <AltitudeMeters>554.20001220703125</AltitudeMeters>
            <DistanceMeters>24360.906813113</DistanceMeters>
          </Trackpoint>
          <Trackpoint>
            <Time>2021-06-20T08:09:00.000Z</Time>
            <Position>
              <LatitudeDegrees>38.833267204463481903076171875</LatitudeDegrees>
              <LongitudeDegrees>-0.43188351206481456756591796875</LongitudeDegrees>
            </Position>
            <AltitudeMeters>555.5999755859375</AltitudeMeters>
            <DistanceMeters>24390.749740572</DistanceMeters>
          </Trackpoint>
          <Trackpoint>
            <Time>2021-06-20T08:09:14.000Z</Time>
            <Position>
              <LatitudeDegrees>38.8329143263399600982666015625</LatitudeDegrees>
              <LongitudeDegrees>-0.43196951039135456085205078125</LongitudeDegrees>
            </Position>
            <AltitudeMeters>556.5999755859375</AltitudeMeters>
            <DistanceMeters>24430.727423968</DistanceMeters>
          </Trackpoint>
          <Trackpoint>
            <Time>2021-06-20T08:09:24.000Z</Time>
            <Position>
              <LatitudeDegrees>38.83267200551927089691162109375</LatitudeDegrees>
              <LongitudeDegrees>-0.43195157311856746673583984375</LongitudeDegrees>
            </Position>
            <AltitudeMeters>557.4000244140625</AltitudeMeters>
            <DistanceMeters>24457.742768466</DistanceMeters>
          </Trackpoint>
          <Trackpoint>
            <Time>2021-06-20T08:09:32.000Z</Time>
            <Position>
              <LatitudeDegrees>38.83254158310592174530029296875</LatitudeDegrees>
              <LongitudeDegrees>-0.4318475537002086639404296875</LongitudeDegrees>
            </Position>
            <AltitudeMeters>556.5999755859375</AltitudeMeters>
            <DistanceMeters>24474.832788726</DistanceMeters>
          </Trackpoint>
          <Trackpoint>
            <Time>2021-06-20T08:09:36.000Z</Time>
            <Position>
              <LatitudeDegrees>38.83256387896835803985595703125</LatitudeDegrees>
              <LongitudeDegrees>-0.4317476414144039154052734375</LongitudeDegrees>
            </Position>
            <AltitudeMeters>556.20001220703125</AltitudeMeters>
            <DistanceMeters>24483.84430788</DistanceMeters>
          </Trackpoint>
          <Trackpoint>
            <Time>2021-06-20T08:09:43.000Z</Time>
            <Position>
              <LatitudeDegrees>38.83279186673462390899658203125</LatitudeDegrees>
              <LongitudeDegrees>-0.4316380061209201812744140625</LongitudeDegrees>
            </Position>
            <AltitudeMeters>556.20001220703125</AltitudeMeters>
            <DistanceMeters>24510.941754918</DistanceMeters>
          </Trackpoint>
          <Trackpoint>
            <Time>2021-06-20T08:09:48.000Z</Time>
            <Position>
              <LatitudeDegrees>38.83295975625514984130859375</LatitudeDegrees>
              <LongitudeDegrees>-0.43140574358403682708740234375</LongitudeDegrees>
            </Position>
            <AltitudeMeters>555.79998779296875</AltitudeMeters>
            <DistanceMeters>24538.413680569</DistanceMeters>
          </Trackpoint>
          <Trackpoint>
            <Time>2021-06-20T08:09:49.000Z</Time>
            <Position>
              <LatitudeDegrees>38.83297492749989032745361328125</LatitudeDegrees>
              <LongitudeDegrees>-0.43137087486684322357177734375</LongitudeDegrees>
            </Position>
            <AltitudeMeters>555.79998779296875</AltitudeMeters>
            <DistanceMeters>24541.876618847</DistanceMeters>
          </Trackpoint>
          <Trackpoint>
            <Time>2021-06-20T08:09:50.000Z</Time>
            <Position>
              <LatitudeDegrees>38.83300912566483020782470703125</LatitudeDegrees>
              <LongitudeDegrees>-0.43134438805282115936279296875</LongitudeDegrees>
            </Position>
            <AltitudeMeters>555.79998779296875</AltitudeMeters>
            <DistanceMeters>24546.321594354</DistanceMeters>
          </Trackpoint>
          <Trackpoint>
            <Time>2021-06-20T08:09:52.000Z</Time>
            <Position>
              <LatitudeDegrees>38.83305757306516170501708984375</LatitudeDegrees>
              <LongitudeDegrees>-0.43128403834998607635498046875</LongitudeDegrees>
            </Position>
            <AltitudeMeters>555.79998779296875</AltitudeMeters>
            <DistanceMeters>24553.835317661</DistanceMeters>
          </Trackpoint>
          <Trackpoint>
            <Time>2021-06-20T08:09:53.000Z</Time>
            <Position>
              <LatitudeDegrees>38.83308389224112033843994140625</LatitudeDegrees>
              <LongitudeDegrees>-0.43123927898705005645751953125</LongitudeDegrees>
            </Position>
            <AltitudeMeters>555.79998779296875</AltitudeMeters>
            <DistanceMeters>24558.697492085</DistanceMeters>
          </Trackpoint>
          <Trackpoint>
            <Time>2021-06-20T08:09:55.000Z</Time>
            <Position>
              <LatitudeDegrees>38.8331121392548084259033203125</LatitudeDegrees>
              <LongitudeDegrees>-0.431203655898571014404296875</LongitudeDegrees>
            </Position>
            <AltitudeMeters>555.79998779296875</AltitudeMeters>
            <DistanceMeters>24563.105748487</DistanceMeters>
          </Trackpoint>
          <Trackpoint>
            <Time>2021-06-20T08:09:57.000Z</Time>
            <Position>
              <LatitudeDegrees>38.83292631246149539947509765625</LatitudeDegrees>
              <LongitudeDegrees>-0.43161244131624698638916015625</LongitudeDegrees>
            </Position>
            <AltitudeMeters>555.5999755859375</AltitudeMeters>
            <DistanceMeters>24604.141668306</DistanceMeters>
          </Trackpoint>
          <Trackpoint>
            <Time>2021-06-20T08:10:01.000Z</Time>
            <Position>
              <LatitudeDegrees>38.83296855725347995758056640625</LatitudeDegrees>
              <LongitudeDegrees>-0.4315112717449665069580078125</LongitudeDegrees>
            </Position>
            <AltitudeMeters>555.20001220703125</AltitudeMeters>
            <DistanceMeters>24614.094554249</DistanceMeters>
          </Trackpoint>
          <Trackpoint>
            <Time>2021-06-20T08:10:04.000Z</Time>
            <Position>
              <LatitudeDegrees>38.83304717950522899627685546875</LatitudeDegrees>
              <LongitudeDegrees>-0.43141655623912811279296875</LongitudeDegrees>
            </Position>
            <AltitudeMeters>554.79998779296875</AltitudeMeters>
            <DistanceMeters>24626.095040036</DistanceMeters>
          </Trackpoint>
          <Trackpoint>
            <Time>2021-06-20T08:10:08.000Z</Time>
            <Position>
              <LatitudeDegrees>38.8331262208521366119384765625</LatitudeDegrees>
              <LongitudeDegrees>-0.4312992095947265625</LongitudeDegrees>
            </Position>
            <AltitudeMeters>554.5999755859375</AltitudeMeters>
            <DistanceMeters>24639.545264996</DistanceMeters>
          </Trackpoint>
          <Trackpoint>
            <Time>2021-06-20T08:10:10.000Z</Time>
            <Position>
              <LatitudeDegrees>38.83316838182508945465087890625</LatitudeDegrees>
              <LongitudeDegrees>-0.4312417097389698028564453125</LongitudeDegrees>
            </Position>
            <AltitudeMeters>554.4000244140625</AltitudeMeters>
            <DistanceMeters>24646.391146732</DistanceMeters>
          </Trackpoint>
          <Trackpoint>
            <Time>2021-06-20T08:10:22.000Z</Time>
            <Position>
              <LatitudeDegrees>38.83338647894561290740966796875</LatitudeDegrees>
              <LongitudeDegrees>-0.4308903403580188751220703125</LongitudeDegrees>
            </Position>
            <AltitudeMeters>553</AltitudeMeters>
            <DistanceMeters>24685.343986743</DistanceMeters>
          </Trackpoint>
          <Trackpoint>
            <Time>2021-06-20T08:10:28.000Z</Time>
            <Position>
              <LatitudeDegrees>38.83345336653292179107666015625</LatitudeDegrees>
              <LongitudeDegrees>-0.43068959377706050872802734375</LongitudeDegrees>
            </Position>
            <AltitudeMeters>553.5999755859375</AltitudeMeters>
            <DistanceMeters>24704.274109659</DistanceMeters>
          </Trackpoint>
          <Trackpoint>
            <Time>2021-06-20T08:10:36.000Z</Time>
            <Position>
              <LatitudeDegrees>38.83354422636330127716064453125</LatitudeDegrees>
              <LongitudeDegrees>-0.43043260462582111358642578125</LongitudeDegrees>
            </Position>
            <AltitudeMeters>552.4000244140625</AltitudeMeters>
            <DistanceMeters>24728.742704395</DistanceMeters>
          </Trackpoint>
          <Trackpoint>
            <Time>2021-06-20T08:10:44.000Z</Time>
            <Position>
              <LatitudeDegrees>38.83360843174159526824951171875</LatitudeDegrees>
              <LongitudeDegrees>-0.43017276562750339508056640625</LongitudeDegrees>
            </Position>
            <AltitudeMeters>553</AltitudeMeters>
            <DistanceMeters>24752.377053734</DistanceMeters>
          </Trackpoint>
          <Trackpoint>
            <Time>2021-06-20T08:10:46.000Z</Time>
            <Position>
              <LatitudeDegrees>38.8336083479225635528564453125</LatitudeDegrees>
              <LongitudeDegrees>-0.43010470457375049591064453125</LongitudeDegrees>
            </Position>
            <AltitudeMeters>553.79998779296875</AltitudeMeters>
            <DistanceMeters>24758.277133792</DistanceMeters>
          </Trackpoint>
          <Trackpoint>
            <Time>2021-06-20T08:10:50.000Z</Time>
            <Position>
              <LatitudeDegrees>38.8335979543626308441162109375</LatitudeDegrees>
              <LongitudeDegrees>-0.42996975593268871307373046875</LongitudeDegrees>
            </Position>
            <AltitudeMeters>553.79998779296875</AltitudeMeters>
            <DistanceMeters>24770.03436179</DistanceMeters>
          </Trackpoint>
          <Trackpoint>
            <Time>2021-06-20T08:10:56.000Z</Time>
            <Position>
              <LatitudeDegrees>38.8335862196981906890869140625</LatitudeDegrees>
              <LongitudeDegrees>-0.429770685732364654541015625</LongitudeDegrees>
            </Position>
            <AltitudeMeters>554.79998779296875</AltitudeMeters>
            <DistanceMeters>24787.343315435</DistanceMeters>
          </Trackpoint>
          <Trackpoint>
            <Time>2021-06-20T08:11:04.000Z</Time>
            <Position>
              <LatitudeDegrees>38.83348002098500728607177734375</LatitudeDegrees>
              <LongitudeDegrees>-0.42954831384122371673583984375</LongitudeDegrees>
            </Position>
            <AltitudeMeters>555.79998779296875</AltitudeMeters>
            <DistanceMeters>24809.958076311</DistanceMeters>
          </Trackpoint>
          <Trackpoint>
            <Time>2021-06-20T08:11:22.000Z</Time>
            <Position>
              <LatitudeDegrees>38.83323677815496921539306640625</LatitudeDegrees>
              <LongitudeDegrees>-0.42908479459583759307861328125</LongitudeDegrees>
            </Position>
            <AltitudeMeters>557</AltitudeMeters>
            <DistanceMeters>24858.414340168</DistanceMeters>
          </Trackpoint>
          <Trackpoint>
            <Time>2021-06-20T08:11:24.000Z</Time>
            <Position>
              <LatitudeDegrees>38.833238370716571807861328125</LatitudeDegrees>
              <LongitudeDegrees>-0.42901690118014812469482421875</LongitudeDegrees>
            </Position>
            <AltitudeMeters>557</AltitudeMeters>
            <DistanceMeters>24864.302930284</DistanceMeters>
          </Trackpoint>
          <Trackpoint>
            <Time>2021-06-20T08:11:40.000Z</Time>
            <Position>
              <LatitudeDegrees>38.8332891650497913360595703125</LatitudeDegrees>
              <LongitudeDegrees>-0.42845581658184528350830078125</LongitudeDegrees>
            </Position>
            <AltitudeMeters>559.20001220703125</AltitudeMeters>
            <DistanceMeters>24913.277102806</DistanceMeters>
          </Trackpoint>
          <Trackpoint>
            <Time>2021-06-20T08:11:43.000Z</Time>
            <Position>
              <LatitudeDegrees>38.833332918584346771240234375</LatitudeDegrees>
              <LongitudeDegrees>-0.42826630175113677978515625</LongitudeDegrees>
            </Position>
            <AltitudeMeters>559.79998779296875</AltitudeMeters>
            <DistanceMeters>24930.414611559</DistanceMeters>
          </Trackpoint>
          <Trackpoint>
            <Time>2021-06-20T08:11:45.000Z</Time>
            <Position>
              <LatitudeDegrees>38.83325136266648769378662109375</LatitudeDegrees>
              <LongitudeDegrees>-0.42821668088436126708984375</LongitudeDegrees>
            </Position>
            <AltitudeMeters>559.5999755859375</AltitudeMeters>
            <DistanceMeters>24940.459614007</DistanceMeters>
          </Trackpoint>
          <Trackpoint>
            <Time>2021-06-20T08:11:46.000Z</Time>
            <Position>
              <LatitudeDegrees>38.83317441679537296295166015625</LatitudeDegrees>
              <LongitudeDegrees>-0.42821525596082210540771484375</LongitudeDegrees>
            </Position>
            <AltitudeMeters>559.5999755859375</AltitudeMeters>
            <DistanceMeters>24949.024679157</DistanceMeters>
          </Trackpoint>
          <Trackpoint>
            <Time>2021-06-20T08:11:49.000Z</Time>
            <Position>
              <LatitudeDegrees>38.83322261273860931396484375</LatitudeDegrees>
              <LongitudeDegrees>-0.42812707833945751190185546875</LongitudeDegrees>
            </Position>
            <AltitudeMeters>559.4000244140625</AltitudeMeters>
            <DistanceMeters>24958.364408192</DistanceMeters>
          </Trackpoint>
          <Trackpoint>
            <Time>2021-06-20T08:11:53.000Z</Time>
            <Position>
              <LatitudeDegrees>38.8333679549396038055419921875</LatitudeDegrees>
              <LongitudeDegrees>-0.428007133305072784423828125</LongitudeDegrees>
            </Position>
            <AltitudeMeters>560.20001220703125</AltitudeMeters>
            <DistanceMeters>24977.595289107</DistanceMeters>
          </Trackpoint>
          <Trackpoint>
            <Time>2021-06-20T08:11:55.000Z</Time>
            <Position>
              <LatitudeDegrees>38.8333976268768310546875</LatitudeDegrees>
              <LongitudeDegrees>-0.4279503040015697479248046875</LongitudeDegrees>
            </Position>
            <AltitudeMeters>560.20001220703125</AltitudeMeters>
            <DistanceMeters>24983.527422611</DistanceMeters>
          </Trackpoint>
          <Trackpoint>
            <Time>2021-06-20T08:11:56.000Z</Time>
            <Position>
              <LatitudeDegrees>38.8333904184401035308837890625</LatitudeDegrees>
              <LongitudeDegrees>-0.4279144294559955596923828125</LongitudeDegrees>
            </Position>
            <AltitudeMeters>560.79998779296875</AltitudeMeters>
            <DistanceMeters>24986.73870698</DistanceMeters>
          </Trackpoint>
          <Trackpoint>
            <Time>2021-06-20T08:11:57.000Z</Time>
            <Position>
              <LatitudeDegrees>38.83338798768818378448486328125</LatitudeDegrees>
              <LongitudeDegrees>-0.42788584716618061065673828125</LongitudeDegrees>
            </Position>
            <AltitudeMeters>560.79998779296875</AltitudeMeters>
            <DistanceMeters>24989.23123433</DistanceMeters>
          </Trackpoint>
          <Trackpoint>
            <Time>2021-06-20T08:11:59.000Z</Time>
            <Position>
              <LatitudeDegrees>38.83323677815496921539306640625</LatitudeDegrees>
              <LongitudeDegrees>-0.42795206420123577117919921875</LongitudeDegrees>
            </Position>
            <AltitudeMeters>561</AltitudeMeters>
            <DistanceMeters>25007.013167767</DistanceMeters>
          </Trackpoint>
          <Trackpoint>
            <Time>2021-06-20T08:12:02.000Z</Time>
            <Position>
              <LatitudeDegrees>38.83309923112392425537109375</LatitudeDegrees>
              <LongitudeDegrees>-0.4278285987675189971923828125</LongitudeDegrees>
            </Position>
            <AltitudeMeters>561.20001220703125</AltitudeMeters>
            <DistanceMeters>25025.693592658</DistanceMeters>
          </Trackpoint>
          <Trackpoint>
            <Time>2021-06-20T08:12:10.000Z</Time>
            <Position>
              <LatitudeDegrees>38.83291575126349925994873046875</LatitudeDegrees>
              <LongitudeDegrees>-0.427749641239643096923828125</LongitudeDegrees>
            </Position>
            <AltitudeMeters>560.20001220703125</AltitudeMeters>
            <DistanceMeters>25047.232189345</DistanceMeters>
          </Trackpoint>
          <Trackpoint>
            <Time>2021-06-20T08:12:24.000Z</Time>
            <Position>
              <LatitudeDegrees>38.83266831748187541961669921875</LatitudeDegrees>
              <LongitudeDegrees>-0.42771418578922748565673828125</LongitudeDegrees>
            </Position>
            <AltitudeMeters>561.79998779296875</AltitudeMeters>
            <DistanceMeters>25074.94302857</DistanceMeters>
          </Trackpoint>
          <Trackpoint>
            <Time>2021-06-20T08:12:30.000Z</Time>
            <Position>
              <LatitudeDegrees>38.83258433081209659576416015625</LatitudeDegrees>
              <LongitudeDegrees>-0.427694655954837799072265625</LongitudeDegrees>
            </Position>
            <AltitudeMeters>562.79998779296875</AltitudeMeters>
            <DistanceMeters>25084.442848778</DistanceMeters>
          </Trackpoint>
          <Trackpoint>
            <Time>2021-06-20T08:12:32.000Z</Time>
            <Position>
              <LatitudeDegrees>38.83255667053163051605224609375</LatitudeDegrees>
              <LongitudeDegrees>-0.4276854358613491058349609375</LongitudeDegrees>
            </Position>
            <AltitudeMeters>563.20001220703125</AltitudeMeters>
            <DistanceMeters>25087.625889112</DistanceMeters>
          </Trackpoint>
          <Trackpoint>
            <Time>2021-06-20T08:12:42.000Z</Time>
            <Position>
              <LatitudeDegrees>38.83244468830525875091552734375</LatitudeDegrees>
              <LongitudeDegrees>-0.42760354466736316680908203125</LongitudeDegrees>
            </Position>
            <AltitudeMeters>564.79998779296875</AltitudeMeters>
            <DistanceMeters>25101.970202336</DistanceMeters>
          </Trackpoint>
          <Trackpoint>
            <Time>2021-06-20T08:12:44.000Z</Time>
            <Position>
              <LatitudeDegrees>38.83243630640208721160888671875</LatitudeDegrees>
              <LongitudeDegrees>-0.42757705785334110260009765625</LongitudeDegrees>
            </Position>
            <AltitudeMeters>565</AltitudeMeters>
            <DistanceMeters>25104.448195875</DistanceMeters>
          </Trackpoint>
          <Trackpoint>
            <Time>2021-06-20T08:12:54.000Z</Time>
            <Position>
              <LatitudeDegrees>38.832484669983386993408203125</LatitudeDegrees>
              <LongitudeDegrees>-0.4274596273899078369140625</LongitudeDegrees>
            </Position>
            <AltitudeMeters>567.20001220703125</AltitudeMeters>
            <DistanceMeters>25115.964869128</DistanceMeters>
          </Trackpoint>
          <Trackpoint>
            <Time>2021-06-20T08:13:20.000Z</Time>
            <Position>
              <LatitudeDegrees>38.832830004394054412841796875</LatitudeDegrees>
              <LongitudeDegrees>-0.42747764848172664642333984375</LongitudeDegrees>
            </Position>
            <AltitudeMeters>568.5999755859375</AltitudeMeters>
            <DistanceMeters>25154.433086883</DistanceMeters>
          </Trackpoint>
          <Trackpoint>
            <Time>2021-06-20T08:13:22.000Z</Time>
            <Position>
              <LatitudeDegrees>38.83285724557936191558837890625</LatitudeDegrees>
              <LongitudeDegrees>-0.42747999541461467742919921875</LongitudeDegrees>
            </Position>
            <AltitudeMeters>568.4000244140625</AltitudeMeters>
            <DistanceMeters>25157.472456588</DistanceMeters>
          </Trackpoint>
          <Trackpoint>
            <Time>2021-06-20T08:13:26.000Z</Time>
            <Position>
              <LatitudeDegrees>38.83291172794997692108154296875</LatitudeDegrees>
              <LongitudeDegrees>-0.42748971842229366302490234375</LongitudeDegrees>
            </Position>
            <AltitudeMeters>568</AltitudeMeters>
            <DistanceMeters>25163.595599359</DistanceMeters>
          </Trackpoint>
          <Trackpoint>
            <Time>2021-06-20T08:13:28.000Z</Time>
            <Position>
              <LatitudeDegrees>38.832938969135284423828125</LatitudeDegrees>
              <LongitudeDegrees>-0.42749742977321147918701171875</LongitudeDegrees>
            </Position>
            <AltitudeMeters>568</AltitudeMeters>
            <DistanceMeters>25166.701097973</DistanceMeters>
          </Trackpoint>
          <Trackpoint>
            <Time>2021-06-20T08:13:30.000Z</Time>
            <Position>
              <LatitudeDegrees>38.83296604268252849578857421875</LatitudeDegrees>
              <LongitudeDegrees>-0.42750530876219272613525390625</LongitudeDegrees>
            </Position>
            <AltitudeMeters>567.79998779296875</AltitudeMeters>
            <DistanceMeters>25169.792023543</DistanceMeters>
          </Trackpoint>
          <Trackpoint>
            <Time>2021-06-20T08:13:32.000Z</Time>
            <Position>
              <LatitudeDegrees>38.8329927809536457061767578125</LatitudeDegrees>
              <LongitudeDegrees>-0.4275151155889034271240234375</LongitudeDegrees>
            </Position>
            <AltitudeMeters>567.5999755859375</AltitudeMeters>
            <DistanceMeters>25172.88732823</DistanceMeters>
          </Trackpoint>
          <Trackpoint>
            <Time>2021-06-20T08:13:34.000Z</Time>
            <Position>
              <LatitudeDegrees>38.83301884867250919342041015625</LatitudeDegrees>
              <LongitudeDegrees>-0.42752467095851898193359375</LongitudeDegrees>
            </Position>
            <AltitudeMeters>567.4000244140625</AltitudeMeters>
            <DistanceMeters>25175.90433288</DistanceMeters>
          </Trackpoint>
          <Trackpoint>
            <Time>2021-06-20T08:13:36.000Z</Time>
            <Position>
              <LatitudeDegrees>38.83304365910589694976806640625</LatitudeDegrees>
              <LongitudeDegrees>-0.42753045447170734405517578125</LongitudeDegrees>
            </Position>
            <AltitudeMeters>567.20001220703125</AltitudeMeters>
            <DistanceMeters>25178.710438127</DistanceMeters>
          </Trackpoint>
          <Trackpoint>
            <Time>2021-06-20T08:13:38.000Z</Time>
            <Position>
              <LatitudeDegrees>38.83306679315865039825439453125</LatitudeDegrees>
              <LongitudeDegrees>-0.4275338910520076751708984375</LongitudeDegrees>
            </Position>
            <AltitudeMeters>567</AltitudeMeters>
            <DistanceMeters>25181.30242132</DistanceMeters>
          </Trackpoint>
          <Trackpoint>
            <Time>2021-06-20T08:13:40.000Z</Time>
            <Position>
              <LatitudeDegrees>38.83308741264045238494873046875</LatitudeDegrees>
              <LongitudeDegrees>-0.4275338910520076751708984375</LongitudeDegrees>
            </Position>
            <AltitudeMeters>566.5999755859375</AltitudeMeters>
            <DistanceMeters>25183.598845637</DistanceMeters>
          </Trackpoint>
          <Trackpoint>
            <Time>2021-06-20T08:13:43.000Z</Time>
            <Position>
              <LatitudeDegrees>38.83312680758535861968994140625</LatitudeDegrees>
              <LongitudeDegrees>-0.42759801261126995086669921875</LongitudeDegrees>
            </Position>
            <AltitudeMeters>566.20001220703125</AltitudeMeters>
            <DistanceMeters>25190.679451855</DistanceMeters>
          </Trackpoint>
          <Trackpoint>
            <Time>2021-06-20T08:13:44.000Z</Time>
            <Position>
              <LatitudeDegrees>38.8330484367907047271728515625</LatitudeDegrees>
              <LongitudeDegrees>-0.42746323160827159881591796875</LongitudeDegrees>
            </Position>
            <AltitudeMeters>566</AltitudeMeters>
            <DistanceMeters>25205.261640995</DistanceMeters>
          </Trackpoint>
          <Trackpoint>
            <Time>2021-06-20T08:13:45.000Z</Time>
            <Position>
              <LatitudeDegrees>38.83301951922476291656494140625</LatitudeDegrees>
              <LongitudeDegrees>-0.42728335596621036529541015625</LongitudeDegrees>
            </Position>
            <AltitudeMeters>566</AltitudeMeters>
            <DistanceMeters>25221.185918269</DistanceMeters>
          </Trackpoint>
          <Trackpoint>
            <Time>2021-06-20T08:13:47.000Z</Time>
            <Position>
              <LatitudeDegrees>38.83299889974296092987060546875</LatitudeDegrees>
              <LongitudeDegrees>-0.42684028856456279754638671875</LongitudeDegrees>
            </Position>
            <AltitudeMeters>565.79998779296875</AltitudeMeters>
            <DistanceMeters>25259.669039205</DistanceMeters>
          </Trackpoint>
          <Trackpoint>
            <Time>2021-06-20T08:13:49.000Z</Time>
            <Position>
              <LatitudeDegrees>38.83305271156132221221923828125</LatitudeDegrees>
              <LongitudeDegrees>-0.42673534713685512542724609375</LongitudeDegrees>
            </Position>
            <AltitudeMeters>565.79998779296875</AltitudeMeters>
            <DistanceMeters>25270.561936178</DistanceMeters>
          </Trackpoint>
          <Trackpoint>
            <Time>2021-06-20T08:13:50.000Z</Time>
            <Position>
              <LatitudeDegrees>38.83308121003210544586181640625</LatitudeDegrees>
              <LongitudeDegrees>-0.42661062441766262054443359375</LongitudeDegrees>
            </Position>
            <AltitudeMeters>565</AltitudeMeters>
            <DistanceMeters>25281.831319263</DistanceMeters>
          </Trackpoint>
          <Trackpoint>
            <Time>2021-06-20T08:13:52.000Z</Time>
            <Position>
              <LatitudeDegrees>38.83308690972626209259033203125</LatitudeDegrees>
              <LongitudeDegrees>-0.426516830921173095703125</LongitudeDegrees>
            </Position>
            <AltitudeMeters>564.5999755859375</AltitudeMeters>
            <DistanceMeters>25289.988132564</DistanceMeters>
          </Trackpoint>
          <Trackpoint>
            <Time>2021-06-20T08:13:53.000Z</Time>
            <Position>
              <LatitudeDegrees>38.83308355696499347686767578125</LatitudeDegrees>
              <LongitudeDegrees>-0.42647148482501506805419921875</LongitudeDegrees>
            </Position>
            <AltitudeMeters>564.20001220703125</AltitudeMeters>
            <DistanceMeters>25293.938318901</DistanceMeters>
          </Trackpoint>
          <Trackpoint>
            <Time>2021-06-20T08:13:57.000Z</Time>
            <Position>
              <LatitudeDegrees>38.83285925723612308502197265625</LatitudeDegrees>
              <LongitudeDegrees>-0.426560081541538238525390625</LongitudeDegrees>
            </Position>
            <AltitudeMeters>564.4000244140625</AltitudeMeters>
            <DistanceMeters>25320.058395387</DistanceMeters>
          </Trackpoint>
          <Trackpoint>
            <Time>2021-06-20T08:14:02.000Z</Time>
            <Position>
              <LatitudeDegrees>38.8327778689563274383544921875</LatitudeDegrees>
              <LongitudeDegrees>-0.426452793180942535400390625</LongitudeDegrees>
            </Position>
            <AltitudeMeters>564.5999755859375</AltitudeMeters>
            <DistanceMeters>25333.042675391</DistanceMeters>
          </Trackpoint>
          <Trackpoint>
            <Time>2021-06-20T08:14:10.000Z</Time>
            <Position>
              <LatitudeDegrees>38.83269648067653179168701171875</LatitudeDegrees>
              <LongitudeDegrees>-0.42628171853721141815185546875</LongitudeDegrees>
            </Position>
            <AltitudeMeters>565.5999755859375</AltitudeMeters>
            <DistanceMeters>25350.422435374</DistanceMeters>
          </Trackpoint>
          <Trackpoint>
            <Time>2021-06-20T08:14:14.000Z</Time>
            <Position>
              <LatitudeDegrees>38.83268306963145732879638671875</LatitudeDegrees>
              <LongitudeDegrees>-0.42618088424205780029296875</LongitudeDegrees>
            </Position>
            <AltitudeMeters>565.5999755859375</AltitudeMeters>
            <DistanceMeters>25359.292047878</DistanceMeters>
          </Trackpoint>
          <Trackpoint>
            <Time>2021-06-20T08:14:16.000Z</Time>
            <Position>
              <LatitudeDegrees>38.832680471241474151611328125</LatitudeDegrees>
              <LongitudeDegrees>-0.42612799443304538726806640625</LongitudeDegrees>
            </Position>
            <AltitudeMeters>565.5999755859375</AltitudeMeters>
            <DistanceMeters>25363.886862208</DistanceMeters>
          </Trackpoint>
          <Trackpoint>
            <Time>2021-06-20T08:14:20.000Z</Time>
            <Position>
              <LatitudeDegrees>38.83269421756267547607421875</LatitudeDegrees>
              <LongitudeDegrees>-0.42602120898663997650146484375</LongitudeDegrees>
            </Position>
            <AltitudeMeters>565.5999755859375</AltitudeMeters>
            <DistanceMeters>25373.270960752</DistanceMeters>
          </Trackpoint>
          <Trackpoint>
            <Time>2021-06-20T08:14:22.000Z</Time>
            <Position>
              <LatitudeDegrees>38.8327098079025745391845703125</LatitudeDegrees>
              <LongitudeDegrees>-0.42596940882503986358642578125</LongitudeDegrees>
            </Position>
            <AltitudeMeters>565.79998779296875</AltitudeMeters>
            <DistanceMeters>25378.084605541</DistanceMeters>
          </Trackpoint>
          <Trackpoint>
            <Time>2021-06-20T08:14:26.000Z</Time>
            <Position>
              <LatitudeDegrees>38.83272833190858364105224609375</LatitudeDegrees>
              <LongitudeDegrees>-0.42586010880768299102783203125</LongitudeDegrees>
            </Position>
            <AltitudeMeters>566.20001220703125</AltitudeMeters>
            <DistanceMeters>25387.782918602</DistanceMeters>
          </Trackpoint>
          <Trackpoint>
            <Time>2021-06-20T08:14:30.000Z</Time>
            <Position>
              <LatitudeDegrees>38.83273805491626262664794921875</LatitudeDegrees>
              <LongitudeDegrees>-0.42574712075293064117431640625</LongitudeDegrees>
            </Position>
            <AltitudeMeters>566.79998779296875</AltitudeMeters>
            <DistanceMeters>25397.639163444</DistanceMeters>
          </Trackpoint>
          <Trackpoint>
            <Time>2021-06-20T08:14:52.000Z</Time>
            <Position>
              <LatitudeDegrees>38.832671083509922027587890625</LatitudeDegrees>
              <LongitudeDegrees>-0.4251302964985370635986328125</LongitudeDegrees>
            </Position>
            <AltitudeMeters>568.4000244140625</AltitudeMeters>
            <DistanceMeters>25451.636081898</DistanceMeters>
          </Trackpoint>
          <Trackpoint>
            <Time>2021-06-20T08:15:00.000Z</Time>
            <Position>
              <LatitudeDegrees>38.832713998854160308837890625</LatitudeDegrees>
              <LongitudeDegrees>-0.4249049909412860870361328125</LongitudeDegrees>
            </Position>
            <AltitudeMeters>568.4000244140625</AltitudeMeters>
            <DistanceMeters>25471.74630327</DistanceMeters>
          </Trackpoint>
          <Trackpoint>
            <Time>2021-06-20T08:15:02.000Z</Time>
            <Position>
              <LatitudeDegrees>38.83272179402410984039306640625</LatitudeDegrees>
              <LongitudeDegrees>-0.42484908364713191986083984375</LongitudeDegrees>
            </Position>
            <AltitudeMeters>568.4000244140625</AltitudeMeters>
            <DistanceMeters>25476.671218024</DistanceMeters>
          </Trackpoint>
          <Trackpoint>
            <Time>2021-06-20T08:15:10.000Z</Time>
            <Position>
              <LatitudeDegrees>38.83282589726150035858154296875</LatitudeDegrees>
              <LongitudeDegrees>-0.4246652685105800628662109375</LongitudeDegrees>
            </Position>
            <AltitudeMeters>569.4000244140625</AltitudeMeters>
            <DistanceMeters>25496.375231237</DistanceMeters>
          </Trackpoint>
          <Trackpoint>
            <Time>2021-06-20T08:15:26.000Z</Time>
            <Position>
              <LatitudeDegrees>38.833080790936946868896484375</LatitudeDegrees>
              <LongitudeDegrees>-0.42439729906618595123291015625</LongitudeDegrees>
            </Position>
            <AltitudeMeters>570.20001220703125</AltitudeMeters>
            <DistanceMeters>25533.044955578</DistanceMeters>
          </Trackpoint>
          <Trackpoint>
            <Time>2021-06-20T08:15:28.000Z</Time>
            <Position>
              <LatitudeDegrees>38.8331104628741741180419921875</LatitudeDegrees>
              <LongitudeDegrees>-0.42436796240508556365966796875</LongitudeDegrees>
            </Position>
            <AltitudeMeters>570.20001220703125</AltitudeMeters>
            <DistanceMeters>25537.21531854</DistanceMeters>
          </Trackpoint>
          <Trackpoint>
            <Time>2021-06-20T08:15:38.000Z</Time>
            <Position>
              <LatitudeDegrees>38.83322588168084621429443359375</LatitudeDegrees>
              <LongitudeDegrees>-0.42420820333063602447509765625</LongitudeDegrees>
            </Position>
            <AltitudeMeters>571</AltitudeMeters>
            <DistanceMeters>25556.106763197</DistanceMeters>
          </Trackpoint>
          <Trackpoint>
            <Time>2021-06-20T08:15:40.000Z</Time>
            <Position>
              <LatitudeDegrees>38.8332435674965381622314453125</LatitudeDegrees>
              <LongitudeDegrees>-0.424172244966030120849609375</LongitudeDegrees>
            </Position>
            <AltitudeMeters>571.20001220703125</AltitudeMeters>
            <DistanceMeters>25559.79448541</DistanceMeters>
          </Trackpoint>
          <Trackpoint>
            <Time>2021-06-20T08:15:43.000Z</Time>
            <Position>
              <LatitudeDegrees>38.833275251090526580810546875</LatitudeDegrees>
              <LongitudeDegrees>-0.42411600239574909210205078125</LongitudeDegrees>
            </Position>
            <AltitudeMeters>571.4000244140625</AltitudeMeters>
            <DistanceMeters>25565.81276063</DistanceMeters>
          </Trackpoint>
          <Trackpoint>
            <Time>2021-06-20T08:15:48.000Z</Time>
            <Position>
              <LatitudeDegrees>38.8331396318972110748291015625</LatitudeDegrees>
              <LongitudeDegrees>-0.42362147010862827301025390625</LongitudeDegrees>
            </Position>
            <AltitudeMeters>571.4000244140625</AltitudeMeters>
            <DistanceMeters>25611.268717684</DistanceMeters>
          </Trackpoint>
          <Trackpoint>
            <Time>2021-06-20T08:15:50.000Z</Time>
            <Position>
              <LatitudeDegrees>38.83311306126415729522705078125</LatitudeDegrees>
              <LongitudeDegrees>-0.42357117868959903717041015625</LongitudeDegrees>
            </Position>
            <AltitudeMeters>571.20001220703125</AltitudeMeters>
            <DistanceMeters>25616.537347012</DistanceMeters>
          </Trackpoint>
          <Trackpoint>
            <Time>2021-06-20T08:15:51.000Z</Time>
            <Position>
              <LatitudeDegrees>38.833123035728931427001953125</LatitudeDegrees>
              <LongitudeDegrees>-0.42355290614068508148193359375</LongitudeDegrees>
            </Position>
            <AltitudeMeters>571.20001220703125</AltitudeMeters>
            <DistanceMeters>25618.470854614</DistanceMeters>
          </Trackpoint>
          <Trackpoint>
            <Time>2021-06-20T08:15:52.000Z</Time>
            <Position>
              <LatitudeDegrees>38.83328120224177837371826171875</LatitudeDegrees>
              <LongitudeDegrees>-0.42385750450193881988525390625</LongitudeDegrees>
            </Position>
            <AltitudeMeters>571.20001220703125</AltitudeMeters>
            <DistanceMeters>25650.209492701</DistanceMeters>
          </Trackpoint>
          <Trackpoint>
            <Time>2021-06-20T08:15:54.000Z</Time>
            <Position>
              <LatitudeDegrees>38.83325387723743915557861328125</LatitudeDegrees>
              <LongitudeDegrees>-0.42380134575068950653076171875</LongitudeDegrees>
            </Position>
            <AltitudeMeters>571.20001220703125</AltitudeMeters>
            <DistanceMeters>25655.950553493</DistanceMeters>
          </Trackpoint>
          <Trackpoint>
            <Time>2021-06-20T08:15:55.000Z</Time>
            <Position>
              <LatitudeDegrees>38.833278603851795196533203125</LatitudeDegrees>
              <LongitudeDegrees>-0.42378005571663379669189453125</LongitudeDegrees>
            </Position>
            <AltitudeMeters>571.20001220703125</AltitudeMeters>
            <DistanceMeters>25659.264248252</DistanceMeters>
          </Trackpoint>
          <Trackpoint>
            <Time>2021-06-20T08:15:56.000Z</Time>
            <Position>
              <LatitudeDegrees>38.833176679909229278564453125</LatitudeDegrees>
              <LongitudeDegrees>-0.42374284006655216217041015625</LongitudeDegrees>
            </Position>
            <AltitudeMeters>571.20001220703125</AltitudeMeters>
            <DistanceMeters>25671.058284777</DistanceMeters>
          </Trackpoint>
          <Trackpoint>
            <Time>2021-06-20T08:15:57.000Z</Time>
            <Position>
              <LatitudeDegrees>38.83316553197801113128662109375</LatitudeDegrees>
              <LongitudeDegrees>-0.42372054420411586761474609375</LongitudeDegrees>
            </Position>
            <AltitudeMeters>571.4000244140625</AltitudeMeters>
            <DistanceMeters>25673.354709094</DistanceMeters>
          </Trackpoint>
          <Trackpoint>
            <Time>2021-06-20T08:15:59.000Z</Time>
            <Position>
              <LatitudeDegrees>38.8332127220928668975830078125</LatitudeDegrees>
              <LongitudeDegrees>-0.42367612011730670928955078125</LongitudeDegrees>
            </Position>
            <AltitudeMeters>571.79998779296875</AltitudeMeters>
            <DistanceMeters>25679.868719319</DistanceMeters>
          </Trackpoint>
          <Trackpoint>
            <Time>2021-06-20T08:16:00.000Z</Time>
            <Position>
              <LatitudeDegrees>38.83322454057633876800537109375</LatitudeDegrees>
              <LongitudeDegrees>-0.423659943044185638427734375</LongitudeDegrees>
            </Position>
            <AltitudeMeters>572</AltitudeMeters>
            <DistanceMeters>25681.792863633</DistanceMeters>
          </Trackpoint>
          <Trackpoint>
            <Time>2021-06-20T08:16:01.000Z</Time>
            <Position>
              <LatitudeDegrees>38.83328975178301334381103515625</LatitudeDegrees>
              <LongitudeDegrees>-0.4236517287790775299072265625</LongitudeDegrees>
            </Position>
            <AltitudeMeters>572.20001220703125</AltitudeMeters>
            <DistanceMeters>25689.085196605</DistanceMeters>
          </Trackpoint>
          <Trackpoint>
            <Time>2021-06-20T08:16:02.000Z</Time>
            <Position>
              <LatitudeDegrees>38.83330115117132663726806640625</LatitudeDegrees>
              <LongitudeDegrees>-0.42361375875771045684814453125</LongitudeDegrees>
            </Position>
            <AltitudeMeters>572.20001220703125</AltitudeMeters>
            <DistanceMeters>25692.612723407</DistanceMeters>
          </Trackpoint>
          <Trackpoint>
            <Time>2021-06-20T08:16:20.000Z</Time>
            <Position>
              <LatitudeDegrees>38.8334338366985321044921875</LatitudeDegrees>
              <LongitudeDegrees>-0.42341561056673526763916015625</LongitudeDegrees>
            </Position>
            <AltitudeMeters>574.20001220703125</AltitudeMeters>
            <DistanceMeters>25715.267777698</DistanceMeters>
          </Trackpoint>
          <Trackpoint>
            <Time>2021-06-20T08:16:26.000Z</Time>
            <Position>
              <LatitudeDegrees>38.83350416086614131927490234375</LatitudeDegrees>
              <LongitudeDegrees>-0.42334084399044513702392578125</LongitudeDegrees>
            </Position>
            <AltitudeMeters>574.79998779296875</AltitudeMeters>
            <DistanceMeters>25725.430750411</DistanceMeters>
          </Trackpoint>
          <Trackpoint>
            <Time>2021-06-20T08:16:34.000Z</Time>
            <Position>
              <LatitudeDegrees>38.83359619416296482086181640625</LatitudeDegrees>
              <LongitudeDegrees>-0.42323690839111804962158203125</LongitudeDegrees>
            </Position>
            <AltitudeMeters>575.5999755859375</AltitudeMeters>
            <DistanceMeters>25739.073621651</DistanceMeters>
          </Trackpoint>
          <Trackpoint>
            <Time>2021-06-20T08:16:38.000Z</Time>
            <Position>
              <LatitudeDegrees>38.83364045061171054840087890625</LatitudeDegrees>
              <LongitudeDegrees>-0.42318209074437618255615234375</LongitudeDegrees>
            </Position>
            <AltitudeMeters>576.20001220703125</AltitudeMeters>
            <DistanceMeters>25745.918184207</DistanceMeters>
          </Trackpoint>
          <Trackpoint>
            <Time>2021-06-20T08:16:40.000Z</Time>
            <Position>
              <LatitudeDegrees>38.83366408757865428924560546875</LatitudeDegrees>
              <LongitudeDegrees>-0.42315694503486156463623046875</LongitudeDegrees>
            </Position>
            <AltitudeMeters>576.5999755859375</AltitudeMeters>
            <DistanceMeters>25749.333862583</DistanceMeters>
          </Trackpoint>
          <Trackpoint>
            <Time>2021-06-20T08:16:56.000Z</Time>
            <Position>
              <LatitudeDegrees>38.83385754190385341644287109375</LatitudeDegrees>
              <LongitudeDegrees>-0.42296231724321842193603515625</LongitudeDegrees>
            </Position>
            <AltitudeMeters>578.20001220703125</AltitudeMeters>
            <DistanceMeters>25776.690005499</DistanceMeters>
          </Trackpoint>
          <Trackpoint>
            <Time>2021-06-20T08:17:06.000Z</Time>
            <Position>
              <LatitudeDegrees>38.83395887911319732666015625</LatitudeDegrees>
              <LongitudeDegrees>-0.42281202971935272216796875</LongitudeDegrees>
            </Position>
            <AltitudeMeters>578.5999755859375</AltitudeMeters>
            <DistanceMeters>25793.923670641</DistanceMeters>
          </Trackpoint>
          <Trackpoint>
            <Time>2021-06-20T08:17:14.000Z</Time>
            <Position>
              <LatitudeDegrees>38.83403507061302661895751953125</LatitudeDegrees>
              <LongitudeDegrees>-0.422686636447906494140625</LongitudeDegrees>
            </Position>
            <AltitudeMeters>579.20001220703125</AltitudeMeters>
            <DistanceMeters>25807.711716165</DistanceMeters>
          </Trackpoint>
          <Trackpoint>
            <Time>2021-06-20T08:17:18.000Z</Time>
            <Position>
              <LatitudeDegrees>38.834076561033725738525390625</LatitudeDegrees>
              <LongitudeDegrees>-0.42262854985892772674560546875</LongitudeDegrees>
            </Position>
            <AltitudeMeters>579.5999755859375</AltitudeMeters>
            <DistanceMeters>25814.544394646</DistanceMeters>
          </Trackpoint>
          <Trackpoint>
            <Time>2021-06-20T08:17:22.000Z</Time>
            <Position>
              <LatitudeDegrees>38.8341216556727886199951171875</LatitudeDegrees>
              <LongitudeDegrees>-0.42257674969732761383056640625</LongitudeDegrees>
            </Position>
            <AltitudeMeters>579.5999755859375</AltitudeMeters>
            <DistanceMeters>25821.279234954</DistanceMeters>
          </Trackpoint>
          <Trackpoint>
            <Time>2021-06-20T08:17:24.000Z</Time>
            <Position>
              <LatitudeDegrees>38.83414797484874725341796875</LatitudeDegrees>
              <LongitudeDegrees>-0.42255713604390621185302734375</LongitudeDegrees>
            </Position>
            <AltitudeMeters>579.5999755859375</AltitudeMeters>
            <DistanceMeters>25824.665707615</DistanceMeters>
          </Trackpoint>
          <Trackpoint>
            <Time>2021-06-20T08:17:30.000Z</Time>
            <Position>
              <LatitudeDegrees>38.834231458604335784912109375</LatitudeDegrees>
              <LongitudeDegrees>-0.42251321487128734588623046875</LongitudeDegrees>
            </Position>
            <AltitudeMeters>580.5999755859375</AltitudeMeters>
            <DistanceMeters>25834.707563203</DistanceMeters>
          </Trackpoint>
          <Trackpoint>
            <Time>2021-06-20T08:17:32.000Z</Time>
            <Position>
              <LatitudeDegrees>38.83426054380834102630615234375</LatitudeDegrees>
              <LongitudeDegrees>-0.42250516824424266815185546875</LongitudeDegrees>
            </Position>
            <AltitudeMeters>581</AltitudeMeters>
            <DistanceMeters>25838.019895143</DistanceMeters>
          </Trackpoint>
          <Trackpoint>
            <Time>2021-06-20T08:17:34.000Z</Time>
            <Position>
              <LatitudeDegrees>38.83428920991718769073486328125</LatitudeDegrees>
              <LongitudeDegrees>-0.4224975407123565673828125</LongitudeDegrees>
            </Position>
            <AltitudeMeters>581.4000244140625</AltitudeMeters>
            <DistanceMeters>25841.278632613</DistanceMeters>
          </Trackpoint>
          <Trackpoint>
            <Time>2021-06-20T08:17:36.000Z</Time>
            <Position>
              <LatitudeDegrees>38.83431754074990749359130859375</LatitudeDegrees>
              <LongitudeDegrees>-0.42249293066561222076416015625</LongitudeDegrees>
            </Position>
            <AltitudeMeters>581.5999755859375</AltitudeMeters>
            <DistanceMeters>25844.455994012</DistanceMeters>
          </Trackpoint>
          <Trackpoint>
            <Time>2021-06-20T08:17:43.000Z</Time>
            <Position>
              <LatitudeDegrees>38.83441041223704814910888671875</LatitudeDegrees>
              <LongitudeDegrees>-0.42251966893672943115234375</LongitudeDegrees>
            </Position>
            <AltitudeMeters>582.79998779296875</AltitudeMeters>
            <DistanceMeters>25855.049661462</DistanceMeters>
          </Trackpoint>
          <Trackpoint>
            <Time>2021-06-20T08:17:46.000Z</Time>
            <Position>
              <LatitudeDegrees>38.834146298468112945556640625</LatitudeDegrees>
              <LongitudeDegrees>-0.42200225405395030975341796875</LongitudeDegrees>
            </Position>
            <AltitudeMeters>583.4000244140625</AltitudeMeters>
            <DistanceMeters>25908.683298031</DistanceMeters>
          </Trackpoint>
          <Trackpoint>
            <Time>2021-06-20T08:17:48.000Z</Time>
            <Position>
              <LatitudeDegrees>38.83416951633989810943603515625</LatitudeDegrees>
              <LongitudeDegrees>-0.4219119809567928314208984375</LongitudeDegrees>
            </Position>
            <AltitudeMeters>584</AltitudeMeters>
            <DistanceMeters>25916.92600967</DistanceMeters>
          </Trackpoint>
          <Trackpoint>
            <Time>2021-06-20T08:17:51.000Z</Time>
            <Position>
              <LatitudeDegrees>38.83415191434323787689208984375</LatitudeDegrees>
              <LongitudeDegrees>-0.421839058399200439453125</LongitudeDegrees>
            </Position>
            <AltitudeMeters>584.4000244140625</AltitudeMeters>
            <DistanceMeters>25923.545218906</DistanceMeters>
          </Trackpoint>
          <Trackpoint>
            <Time>2021-06-20T08:17:53.000Z</Time>
            <Position>
              <LatitudeDegrees>38.83415258489549160003662109375</LatitudeDegrees>
              <LongitudeDegrees>-0.42179681360721588134765625</LongitudeDegrees>
            </Position>
            <AltitudeMeters>584.5999755859375</AltitudeMeters>
            <DistanceMeters>25927.20837241</DistanceMeters>
          </Trackpoint>
          <Trackpoint>
            <Time>2021-06-20T08:17:55.000Z</Time>
            <Position>
              <LatitudeDegrees>38.83415996097028255462646484375</LatitudeDegrees>
              <LongitudeDegrees>-0.421749539673328399658203125</LongitudeDegrees>
            </Position>
            <AltitudeMeters>584.5999755859375</AltitudeMeters>
            <DistanceMeters>25931.388467854</DistanceMeters>
          </Trackpoint>
          <Trackpoint>
            <Time>2021-06-20T08:17:57.000Z</Time>
            <Position>
              <LatitudeDegrees>38.83416515775024890899658203125</LatitudeDegrees>
              <LongitudeDegrees>-0.4217108152806758880615234375</LongitudeDegrees>
            </Position>
            <AltitudeMeters>585</AltitudeMeters>
            <DistanceMeters>25934.793554953</DistanceMeters>
          </Trackpoint>
          <Trackpoint>
            <Time>2021-06-20T08:17:59.000Z</Time>
            <Position>
              <LatitudeDegrees>38.8341699354350566864013671875</LatitudeDegrees>
              <LongitudeDegrees>-0.42167133651673793792724609375</LongitudeDegrees>
            </Position>
            <AltitudeMeters>585</AltitudeMeters>
            <DistanceMeters>25938.257796803</DistanceMeters>
          </Trackpoint>
          <Trackpoint>
            <Time>2021-06-20T08:18:03.000Z</Time>
            <Position>
              <LatitudeDegrees>38.83417186327278614044189453125</LatitudeDegrees>
              <LongitudeDegrees>-0.42158802039921283721923828125</LongitudeDegrees>
            </Position>
            <AltitudeMeters>585.20001220703125</AltitudeMeters>
            <DistanceMeters>25945.48482677</DistanceMeters>
          </Trackpoint>
          <Trackpoint>
            <Time>2021-06-20T08:18:08.000Z</Time>
            <Position>
              <LatitudeDegrees>38.8341816700994968414306640625</LatitudeDegrees>
              <LongitudeDegrees>-0.421478636562824249267578125</LongitudeDegrees>
            </Position>
            <AltitudeMeters>585.5999755859375</AltitudeMeters>
            <DistanceMeters>25955.031110417</DistanceMeters>
          </Trackpoint>
          <Trackpoint>
            <Time>2021-06-20T08:18:10.000Z</Time>
            <Position>
              <LatitudeDegrees>38.8341833464801311492919921875</LatitudeDegrees>
              <LongitudeDegrees>-0.421435721218585968017578125</LongitudeDegrees>
            </Position>
            <AltitudeMeters>586</AltitudeMeters>
            <DistanceMeters>25958.755381812</DistanceMeters>
          </Trackpoint>
          <Trackpoint>
            <Time>2021-06-20T08:18:20.000Z</Time>
            <Position>
              <LatitudeDegrees>38.83420430123805999755859375</LatitudeDegrees>
              <LongitudeDegrees>-0.4212196357548236846923828125</LongitudeDegrees>
            </Position>
            <AltitudeMeters>587.5999755859375</AltitudeMeters>
            <DistanceMeters>25977.63463358</DistanceMeters>
          </Trackpoint>
          <Trackpoint>
            <Time>2021-06-20T08:18:36.000Z</Time>
            <Position>
              <LatitudeDegrees>38.8342561013996601104736328125</LatitudeDegrees>
              <LongitudeDegrees>-0.42088561691343784332275390625</LongitudeDegrees>
            </Position>
            <AltitudeMeters>589.20001220703125</AltitudeMeters>
            <DistanceMeters>26007.162417123</DistanceMeters>
          </Trackpoint>
          <Trackpoint>
            <Time>2021-06-20T08:18:38.000Z</Time>
            <Position>
              <LatitudeDegrees>38.83426289074122905731201171875</LatitudeDegrees>
              <LongitudeDegrees>-0.42084462940692901611328125</LongitudeDegrees>
            </Position>
            <AltitudeMeters>589.5999755859375</AltitudeMeters>
            <DistanceMeters>26010.795868892</DistanceMeters>
          </Trackpoint>
          <Trackpoint>
            <Time>2021-06-20T08:18:44.000Z</Time>
            <Position>
              <LatitudeDegrees>38.8342913053929805755615234375</LatitudeDegrees>
              <LongitudeDegrees>-0.4207257740199565887451171875</LongitudeDegrees>
            </Position>
            <AltitudeMeters>589.79998779296875</AltitudeMeters>
            <DistanceMeters>26021.57501513</DistanceMeters>
          </Trackpoint>
          <Trackpoint>
            <Time>2021-06-20T08:18:46.000Z</Time>
            <Position>
              <LatitudeDegrees>38.83430178277194499969482421875</LatitudeDegrees>
              <LongitudeDegrees>-0.4206870496273040771484375</LongitudeDegrees>
            </Position>
            <AltitudeMeters>589.79998779296875</AltitudeMeters>
            <DistanceMeters>26025.128048604</DistanceMeters>
          </Trackpoint>
          <Trackpoint>
            <Time>2021-06-20T08:18:48.000Z</Time>
            <Position>
              <LatitudeDegrees>38.83430815301835536956787109375</LatitudeDegrees>
              <LongitudeDegrees>-0.42064723558723926544189453125</LongitudeDegrees>
            </Position>
            <AltitudeMeters>589.79998779296875</AltitudeMeters>
            <DistanceMeters>26028.65173348</DistanceMeters>
          </Trackpoint>
          <Trackpoint>
            <Time>2021-06-20T08:18:56.000Z</Time>
            <Position>
              <LatitudeDegrees>38.8343442790210247039794921875</LatitudeDegrees>
              <LongitudeDegrees>-0.42049401439726352691650390625</LongitudeDegrees>
            </Position>
            <AltitudeMeters>590.5999755859375</AltitudeMeters>
            <DistanceMeters>26042.531165053</DistanceMeters>
          </Trackpoint>
          <Trackpoint>
            <Time>2021-06-20T08:19:06.000Z</Time>
            <Position>
              <LatitudeDegrees>38.83439918048679828643798828125</LatitudeDegrees>
              <LongitudeDegrees>-0.4203113727271556854248046875</LongitudeDegrees>
            </Position>
            <AltitudeMeters>591.5999755859375</AltitudeMeters>
            <DistanceMeters>26059.504542998</DistanceMeters>
          </Trackpoint>
          <Trackpoint>
            <Time>2021-06-20T08:19:28.000Z</Time>
            <Position>
              <LatitudeDegrees>38.834539242088794708251953125</LatitudeDegrees>
              <LongitudeDegrees>-0.419927649199962615966796875</LongitudeDegrees>
            </Position>
            <AltitudeMeters>592.5999755859375</AltitudeMeters>
            <DistanceMeters>26096.24475145</DistanceMeters>
          </Trackpoint>
          <Trackpoint>
            <Time>2021-06-20T08:19:30.000Z</Time>
            <Position>
              <LatitudeDegrees>38.8345467858016490936279296875</LatitudeDegrees>
              <LongitudeDegrees>-0.4198912717401981353759765625</LongitudeDegrees>
            </Position>
            <AltitudeMeters>592.4000244140625</AltitudeMeters>
            <DistanceMeters>26099.509026286</DistanceMeters>
          </Trackpoint>
          <Trackpoint>
            <Time>2021-06-20T08:19:32.000Z</Time>
            <Position>
              <LatitudeDegrees>38.83454955182969570159912109375</LatitudeDegrees>
              <LongitudeDegrees>-0.4198540560901165008544921875</LongitudeDegrees>
            </Position>
            <AltitudeMeters>592</AltitudeMeters>
            <DistanceMeters>26102.751094913</DistanceMeters>
          </Trackpoint>
          <Trackpoint>
            <Time>2021-06-20T08:19:40.000Z</Time>
            <Position>
              <LatitudeDegrees>38.8345786370337009429931640625</LatitudeDegrees>
              <LongitudeDegrees>-0.41971349157392978668212890625</LongitudeDegrees>
            </Position>
            <AltitudeMeters>592.20001220703125</AltitudeMeters>
            <DistanceMeters>26115.360319946</DistanceMeters>
          </Trackpoint>
          <Trackpoint>
            <Time>2021-06-20T08:19:43.000Z</Time>
            <Position>
              <LatitudeDegrees>38.8345930539071559906005859375</LatitudeDegrees>
              <LongitudeDegrees>-0.41965305805206298828125</LongitudeDegrees>
            </Position>
            <AltitudeMeters>592.4000244140625</AltitudeMeters>
            <DistanceMeters>26120.840651529</DistanceMeters>
          </Trackpoint>
          <Trackpoint>
            <Time>2021-06-20T08:19:44.000Z</Time>
            <Position>
              <LatitudeDegrees>38.83459565229713916778564453125</LatitudeDegrees>
              <LongitudeDegrees>-0.41960813105106353759765625</LongitudeDegrees>
            </Position>
            <AltitudeMeters>592.4000244140625</AltitudeMeters>
            <DistanceMeters>26124.747162656</DistanceMeters>
          </Trackpoint>
          <Trackpoint>
            <Time>2021-06-20T08:19:45.000Z</Time>
            <Position>
              <LatitudeDegrees>38.83461308665573596954345703125</LatitudeDegrees>
              <LongitudeDegrees>-0.4195851646363735198974609375</LongitudeDegrees>
            </Position>
            <AltitudeMeters>592.4000244140625</AltitudeMeters>
            <DistanceMeters>26127.527404631</DistanceMeters>
          </Trackpoint>
          <Trackpoint>
            <Time>2021-06-20T08:19:46.000Z</Time>
            <Position>
              <LatitudeDegrees>38.83462448604404926300048828125</LatitudeDegrees>
              <LongitudeDegrees>-0.41957351379096508026123046875</LongitudeDegrees>
            </Position>
            <AltitudeMeters>592.5999755859375</AltitudeMeters>
            <DistanceMeters>26129.151221837</DistanceMeters>
          </Trackpoint>
          <Trackpoint>
            <Time>2021-06-20T08:19:47.000Z</Time>
            <Position>
              <LatitudeDegrees>38.83461509831249713897705078125</LatitudeDegrees>
              <LongitudeDegrees>-0.4195725917816162109375</LongitudeDegrees>
            </Position>
            <AltitudeMeters>592.5999755859375</AltitudeMeters>
            <DistanceMeters>26130.200826204</DistanceMeters>
          </Trackpoint>
          <Trackpoint>
            <Time>2021-06-20T08:19:48.000Z</Time>
            <Position>
              <LatitudeDegrees>38.83461333811283111572265625</LatitudeDegrees>
              <LongitudeDegrees>-0.41954736225306987762451171875</LongitudeDegrees>
            </Position>
            <AltitudeMeters>592.79998779296875</AltitudeMeters>
            <DistanceMeters>26132.396745333</DistanceMeters>
          </Trackpoint>
          <Trackpoint>
            <Time>2021-06-20T08:19:49.000Z</Time>
            <Position>
              <LatitudeDegrees>38.8346175290644168853759765625</LatitudeDegrees>
              <LongitudeDegrees>-0.41952523402869701385498046875</LongitudeDegrees>
            </Position>
            <AltitudeMeters>592.79998779296875</AltitudeMeters>
            <DistanceMeters>26134.371838501</DistanceMeters>
          </Trackpoint>
          <Trackpoint>
            <Time>2021-06-20T08:19:50.000Z</Time>
            <Position>
              <LatitudeDegrees>38.8346245698630809783935546875</LatitudeDegrees>
              <LongitudeDegrees>-0.41949707083404064178466796875</LongitudeDegrees>
            </Position>
            <AltitudeMeters>593</AltitudeMeters>
            <DistanceMeters>26136.937559789</DistanceMeters>
          </Trackpoint>
          <Trackpoint>
            <Time>2021-06-20T08:19:51.000Z</Time>
            <Position>
              <LatitudeDegrees>38.8346622884273529052734375</LatitudeDegrees>
              <LongitudeDegrees>-0.4195724241435527801513671875</LongitudeDegrees>
            </Position>
            <AltitudeMeters>593.20001220703125</AltitudeMeters>
            <DistanceMeters>26144.703050791</DistanceMeters>
          </Trackpoint>
          <Trackpoint>
            <Time>2021-06-20T08:19:52.000Z</Time>
            <Position>
              <LatitudeDegrees>38.8346622884273529052734375</LatitudeDegrees>
              <LongitudeDegrees>-0.4195724241435527801513671875</LongitudeDegrees>
            </Position>
            <AltitudeMeters>593.20001220703125</AltitudeMeters>
            <DistanceMeters>26144.703050791</DistanceMeters>
          </Trackpoint>
          <Trackpoint>
            <Time>2021-06-20T08:19:55.000Z</Time>
            <Position>
              <LatitudeDegrees>38.83467980660498142242431640625</LatitudeDegrees>
              <LongitudeDegrees>-0.41951064951717853546142578125</LongitudeDegrees>
            </Position>
            <AltitudeMeters>593</AltitudeMeters>
            <DistanceMeters>26150.401485215</DistanceMeters>
          </Trackpoint>
          <Trackpoint>
            <Time>2021-06-20T08:19:56.000Z</Time>
            <Position>
              <LatitudeDegrees>38.8346852548420429229736328125</LatitudeDegrees>
              <LongitudeDegrees>-0.419499836862087249755859375</LongitudeDegrees>
            </Position>
            <AltitudeMeters>593</AltitudeMeters>
            <DistanceMeters>26151.513744391</DistanceMeters>
          </Trackpoint>
          <Trackpoint>
            <Time>2021-06-20T08:19:57.000Z</Time>
            <Position>
              <LatitudeDegrees>38.8346879370510578155517578125</LatitudeDegrees>
              <LongitudeDegrees>-0.41948768310248851776123046875</LongitudeDegrees>
            </Position>
            <AltitudeMeters>593.20001220703125</AltitudeMeters>
            <DistanceMeters>26152.609645922</DistanceMeters>
          </Trackpoint>
          <Trackpoint>
            <Time>2021-06-20T08:19:58.000Z</Time>
            <Position>
              <LatitudeDegrees>38.8346916250884532928466796875</LatitudeDegrees>
              <LongitudeDegrees>-0.41947267949581146240234375</LongitudeDegrees>
            </Position>
            <AltitudeMeters>593.20001220703125</AltitudeMeters>
            <DistanceMeters>26153.973535855</DistanceMeters>
          </Trackpoint>
          <Trackpoint>
            <Time>2021-06-20T08:19:59.000Z</Time>
            <Position>
              <LatitudeDegrees>38.83469170890748500823974609375</LatitudeDegrees>
              <LongitudeDegrees>-0.41945650242269039154052734375</LongitudeDegrees>
            </Position>
            <AltitudeMeters>593.20001220703125</AltitudeMeters>
            <DistanceMeters>26155.376588478</DistanceMeters>
          </Trackpoint>
          <Trackpoint>
            <Time>2021-06-20T08:20:01.000Z</Time>
            <Position>
              <LatitudeDegrees>38.83470118045806884765625</LatitudeDegrees>
              <LongitudeDegrees>-0.419428758323192596435546875</LongitudeDegrees>
            </Position>
            <AltitudeMeters>593.5999755859375</AltitudeMeters>
            <DistanceMeters>26158.003179121</DistanceMeters>
          </Trackpoint>
          <Trackpoint>
            <Time>2021-06-20T08:20:03.000Z</Time>
            <Position>
              <LatitudeDegrees>38.8347177766263484954833984375</LatitudeDegrees>
              <LongitudeDegrees>-0.41940570808947086334228515625</LongitudeDegrees>
            </Position>
            <AltitudeMeters>593.79998779296875</AltitudeMeters>
            <DistanceMeters>26160.724330106</DistanceMeters>
          </Trackpoint>
          <Trackpoint>
            <Time>2021-06-20T08:20:12.000Z</Time>
            <Position>
              <LatitudeDegrees>38.83481576107442378997802734375</LatitudeDegrees>
              <LongitudeDegrees>-0.419199764728546142578125</LongitudeDegrees>
            </Position>
            <AltitudeMeters>595.4000244140625</AltitudeMeters>
            <DistanceMeters>26181.646614534</DistanceMeters>
          </Trackpoint>
          <Trackpoint>
            <Time>2021-06-20T08:20:14.000Z</Time>
            <Position>
              <LatitudeDegrees>38.83483621291816234588623046875</LatitudeDegrees>
              <LongitudeDegrees>-0.41916464455425739288330078125</LongitudeDegrees>
            </Position>
            <AltitudeMeters>595.5999755859375</AltitudeMeters>
            <DistanceMeters>26185.450058035</DistanceMeters>
          </Trackpoint>
          <Trackpoint>
            <Time>2021-06-20T08:20:16.000Z</Time>
            <Position>
              <LatitudeDegrees>38.834856413304805755615234375</LatitudeDegrees>
              <LongitudeDegrees>-0.41913011111319065093994140625</LongitudeDegrees>
            </Position>
            <AltitudeMeters>596</AltitudeMeters>
            <DistanceMeters>26189.194882292</DistanceMeters>
          </Trackpoint>
          <Trackpoint>
            <Time>2021-06-20T08:20:24.000Z</Time>
            <Position>
              <LatitudeDegrees>38.8349212892353534698486328125</LatitudeDegrees>
              <LongitudeDegrees>-0.4189811646938323974609375</LongitudeDegrees>
            </Position>
            <AltitudeMeters>597.20001220703125</AltitudeMeters>
            <DistanceMeters>26203.990392191</DistanceMeters>
          </Trackpoint>
          <Trackpoint>
            <Time>2021-06-20T08:20:30.000Z</Time>
            <Position>
              <LatitudeDegrees>38.83496428839862346649169921875</LatitudeDegrees>
              <LongitudeDegrees>-0.41886993683874607086181640625</LongitudeDegrees>
            </Position>
            <AltitudeMeters>598.4000244140625</AltitudeMeters>
            <DistanceMeters>26214.756545693</DistanceMeters>
          </Trackpoint>
          <Trackpoint>
            <Time>2021-06-20T08:20:44.000Z</Time>
            <Position>
              <LatitudeDegrees>38.83499027229845523834228515625</LatitudeDegrees>
              <LongitudeDegrees>-0.41858243755996227264404296875</LongitudeDegrees>
            </Position>
            <AltitudeMeters>600.20001220703125</AltitudeMeters>
            <DistanceMeters>26239.849716685</DistanceMeters>
          </Trackpoint>
          <Trackpoint>
            <Time>2021-06-20T08:20:50.000Z</Time>
            <Position>
              <LatitudeDegrees>38.83496747352182865142822265625</LatitudeDegrees>
              <LongitudeDegrees>-0.41846408508718013763427734375</LongitudeDegrees>
            </Position>
            <AltitudeMeters>601.5999755859375</AltitudeMeters>
            <DistanceMeters>26250.419917054</DistanceMeters>
          </Trackpoint>
          <Trackpoint>
            <Time>2021-06-20T08:21:02.000Z</Time>
            <Position>
              <LatitudeDegrees>38.83484057150781154632568359375</LatitudeDegrees>
              <LongitudeDegrees>-0.418282784521579742431640625</LongitudeDegrees>
            </Position>
            <AltitudeMeters>604.4000244140625</AltitudeMeters>
            <DistanceMeters>26271.552200425</DistanceMeters>
          </Trackpoint>
          <Trackpoint>
            <Time>2021-06-20T08:21:10.000Z</Time>
            <Position>
              <LatitudeDegrees>38.8347402401268482208251953125</LatitudeDegrees>
              <LongitudeDegrees>-0.41818999685347080230712890625</LongitudeDegrees>
            </Position>
            <AltitudeMeters>606</AltitudeMeters>
            <DistanceMeters>26285.31566451</DistanceMeters>
          </Trackpoint>
          <Trackpoint>
            <Time>2021-06-20T08:21:24.000Z</Time>
            <Position>
              <LatitudeDegrees>38.83464694954454898834228515625</LatitudeDegrees>
              <LongitudeDegrees>-0.4180455766618251800537109375</LongitudeDegrees>
            </Position>
            <AltitudeMeters>608</AltitudeMeters>
            <DistanceMeters>26301.582173047</DistanceMeters>
          </Trackpoint>
          <Trackpoint>
            <Time>2021-06-20T08:21:26.000Z</Time>
            <Position>
              <LatitudeDegrees>38.8346416689455509185791015625</LatitudeDegrees>
              <LongitudeDegrees>-0.41803543455898761749267578125</LongitudeDegrees>
            </Position>
            <AltitudeMeters>607.5999755859375</AltitudeMeters>
            <DistanceMeters>26302.640345754</DistanceMeters>
          </Trackpoint>
          <Trackpoint>
            <Time>2021-06-20T08:21:28.000Z</Time>
            <Position>
              <LatitudeDegrees>38.83462733589112758636474609375</LatitudeDegrees>
              <LongitudeDegrees>-0.41801582090556621551513671875</LongitudeDegrees>
            </Position>
            <AltitudeMeters>607.20001220703125</AltitudeMeters>
            <DistanceMeters>26304.971891598</DistanceMeters>
          </Trackpoint>
          <Trackpoint>
            <Time>2021-06-20T08:21:32.000Z</Time>
            <Position>
              <LatitudeDegrees>38.83461627177894115447998046875</LatitudeDegrees>
              <LongitudeDegrees>-0.4179699718952178955078125</LongitudeDegrees>
            </Position>
            <AltitudeMeters>606.4000244140625</AltitudeMeters>
            <DistanceMeters>26309.133584356</DistanceMeters>
          </Trackpoint>
          <Trackpoint>
            <Time>2021-06-20T08:21:34.000Z</Time>
            <Position>
              <LatitudeDegrees>38.8346252404153347015380859375</LatitudeDegrees>
              <LongitudeDegrees>-0.41794113814830780029296875</LongitudeDegrees>
            </Position>
            <AltitudeMeters>605.5999755859375</AltitudeMeters>
            <DistanceMeters>26311.824703326</DistanceMeters>
          </Trackpoint>
          <Trackpoint>
            <Time>2021-06-20T08:21:42.000Z</Time>
            <Position>
              <LatitudeDegrees>38.8347409106791019439697265625</LatitudeDegrees>
              <LongitudeDegrees>-0.4177401401102542877197265625</LongitudeDegrees>
            </Position>
            <AltitudeMeters>601.5999755859375</AltitudeMeters>
            <DistanceMeters>26333.491002593</DistanceMeters>
          </Trackpoint>
          <Trackpoint>
            <Time>2021-06-20T08:21:44.000Z</Time>
            <Position>
              <LatitudeDegrees>38.83474937640130519866943359375</LatitudeDegrees>
              <LongitudeDegrees>-0.417753048241138458251953125</LongitudeDegrees>
            </Position>
            <AltitudeMeters>600.20001220703125</AltitudeMeters>
            <DistanceMeters>26334.953920266</DistanceMeters>
          </Trackpoint>
          <Trackpoint>
            <Time>2021-06-20T08:21:45.000Z</Time>
            <Position>
              <LatitudeDegrees>38.83479195646941661834716796875</LatitudeDegrees>
              <LongitudeDegrees>-0.417724214494228363037109375</LongitudeDegrees>
            </Position>
            <AltitudeMeters>599.79998779296875</AltitudeMeters>
            <DistanceMeters>26340.311775529</DistanceMeters>
          </Trackpoint>
          <Trackpoint>
            <Time>2021-06-20T08:21:47.000Z</Time>
            <Position>
              <LatitudeDegrees>38.8348005898296833038330078125</LatitudeDegrees>
              <LongitudeDegrees>-0.417661853134632110595703125</LongitudeDegrees>
            </Position>
            <AltitudeMeters>599</AltitudeMeters>
            <DistanceMeters>26345.80362907</DistanceMeters>
          </Trackpoint>
          <Trackpoint>
            <Time>2021-06-20T08:21:48.000Z</Time>
            <Position>
              <LatitudeDegrees>38.8348096422851085662841796875</LatitudeDegrees>
              <LongitudeDegrees>-0.41765104047954082489013671875</LongitudeDegrees>
            </Position>
            <AltitudeMeters>598.79998779296875</AltitudeMeters>
            <DistanceMeters>26347.180696989</DistanceMeters>
          </Trackpoint>
          <Trackpoint>
            <Time>2021-06-20T08:21:50.000Z</Time>
            <Position>
              <LatitudeDegrees>38.8348411582410335540771484375</LatitudeDegrees>
              <LongitudeDegrees>-0.4175849072635173797607421875</LongitudeDegrees>
            </Position>
            <AltitudeMeters>597.79998779296875</AltitudeMeters>
            <DistanceMeters>26353.903459264</DistanceMeters>
          </Trackpoint>
          <Trackpoint>
            <Time>2021-06-20T08:21:51.000Z</Time>
            <Position>
              <LatitudeDegrees>38.83485750295221805572509765625</LatitudeDegrees>
              <LongitudeDegrees>-0.41757057420909404754638671875</LongitudeDegrees>
            </Position>
            <AltitudeMeters>597</AltitudeMeters>
            <DistanceMeters>26356.107587465</DistanceMeters>
          </Trackpoint>
          <Trackpoint>
            <Time>2021-06-20T08:21:52.000Z</Time>
            <Position>
              <LatitudeDegrees>38.83485565893352031707763671875</LatitudeDegrees>
              <LongitudeDegrees>-0.41748876683413982391357421875</LongitudeDegrees>
            </Position>
            <AltitudeMeters>596.4000244140625</AltitudeMeters>
            <DistanceMeters>26363.203481084</DistanceMeters>
          </Trackpoint>
          <Trackpoint>
            <Time>2021-06-20T08:21:54.000Z</Time>
            <Position>
              <LatitudeDegrees>38.8348619453608989715576171875</LatitudeDegrees>
              <LongitudeDegrees>-0.41743277572095394134521484375</LongitudeDegrees>
            </Position>
            <AltitudeMeters>595.5999755859375</AltitudeMeters>
            <DistanceMeters>26368.10818532</DistanceMeters>
          </Trackpoint>
          <Trackpoint>
            <Time>2021-06-20T08:21:56.000Z</Time>
            <Position>
              <LatitudeDegrees>38.8348679803311824798583984375</LatitudeDegrees>
              <LongitudeDegrees>-0.41737661696970462799072265625</LongitudeDegrees>
            </Position>
            <AltitudeMeters>594.79998779296875</AltitudeMeters>
            <DistanceMeters>26373.023923776</DistanceMeters>
          </Trackpoint>
          <Trackpoint>
            <Time>2021-06-20T08:21:58.000Z</Time>
            <Position>
              <LatitudeDegrees>38.83486906997859477996826171875</LatitudeDegrees>
              <LongitudeDegrees>-0.4173042811453342437744140625</LongitudeDegrees>
            </Position>
            <AltitudeMeters>593.5999755859375</AltitudeMeters>
            <DistanceMeters>26379.295686924</DistanceMeters>
          </Trackpoint>
          <Trackpoint>
            <Time>2021-06-20T08:21:59.000Z</Time>
            <Position>
              <LatitudeDegrees>38.8348726741969585418701171875</LatitudeDegrees>
              <LongitudeDegrees>-0.41726245544850826263427734375</LongitudeDegrees>
            </Position>
            <AltitudeMeters>593.4000244140625</AltitudeMeters>
            <DistanceMeters>26382.944019787</DistanceMeters>
          </Trackpoint>
          <Trackpoint>
            <Time>2021-06-20T08:22:01.000Z</Time>
            <Position>
              <LatitudeDegrees>38.83487510494887828826904296875</LatitudeDegrees>
              <LongitudeDegrees>-0.4171118326485157012939453125</LongitudeDegrees>
            </Position>
            <AltitudeMeters>592.20001220703125</AltitudeMeters>
            <DistanceMeters>26396.005613651</DistanceMeters>
          </Trackpoint>
          <Trackpoint>
            <Time>2021-06-20T08:22:13.000Z</Time>
            <Position>
              <LatitudeDegrees>38.83507668972015380859375</LatitudeDegrees>
              <LongitudeDegrees>-0.41685425676405429840087890625</LongitudeDegrees>
            </Position>
            <AltitudeMeters>587.4000244140625</AltitudeMeters>
            <DistanceMeters>26427.661635247</DistanceMeters>
          </Trackpoint>
          <Trackpoint>
            <Time>2021-06-20T08:22:15.000Z</Time>
            <Position>
              <LatitudeDegrees>38.835118599236011505126953125</LatitudeDegrees>
              <LongitudeDegrees>-0.41681620292365550994873046875</LongitudeDegrees>
            </Position>
            <AltitudeMeters>586.5999755859375</AltitudeMeters>
            <DistanceMeters>26433.375894291</DistanceMeters>
          </Trackpoint>
          <Trackpoint>
            <Time>2021-06-20T08:22:19.000Z</Time>
            <Position>
              <LatitudeDegrees>38.83518557064235210418701171875</LatitudeDegrees>
              <LongitudeDegrees>-0.416712351143360137939453125</LongitudeDegrees>
            </Position>
            <AltitudeMeters>584.5999755859375</AltitudeMeters>
            <DistanceMeters>26445.064952708</DistanceMeters>
          </Trackpoint>
          <Trackpoint>
            <Time>2021-06-20T08:22:21.000Z</Time>
            <Position>
              <LatitudeDegrees>38.83521423675119876861572265625</LatitudeDegrees>
              <LongitudeDegrees>-0.41665443219244480133056640625</LongitudeDegrees>
            </Position>
            <AltitudeMeters>583.5999755859375</AltitudeMeters>
            <DistanceMeters>26451.014566112</DistanceMeters>
          </Trackpoint>
          <Trackpoint>
            <Time>2021-06-20T08:22:23.000Z</Time>
            <Position>
              <LatitudeDegrees>38.83524508215487003326416015625</LatitudeDegrees>
              <LongitudeDegrees>-0.4165975190699100494384765625</LongitudeDegrees>
            </Position>
            <AltitudeMeters>582.20001220703125</AltitudeMeters>
            <DistanceMeters>26457.025334437</DistanceMeters>
          </Trackpoint>
          <Trackpoint>
            <Time>2021-06-20T08:22:25.000Z</Time>
            <Position>
              <LatitudeDegrees>38.83528162725269794464111328125</LatitudeDegrees>
              <LongitudeDegrees>-0.4165455512702465057373046875</LongitudeDegrees>
            </Position>
            <AltitudeMeters>580.79998779296875</AltitudeMeters>
            <DistanceMeters>26463.095154194</DistanceMeters>
          </Trackpoint>
          <Trackpoint>
            <Time>2021-06-20T08:22:27.000Z</Time>
            <Position>
              <LatitudeDegrees>38.83532035164535045623779296875</LatitudeDegrees>
              <LongitudeDegrees>-0.416495092213153839111328125</LongitudeDegrees>
            </Position>
            <AltitudeMeters>579.79998779296875</AltitudeMeters>
            <DistanceMeters>26469.23596841</DistanceMeters>
          </Trackpoint>
          <Trackpoint>
            <Time>2021-06-20T08:22:29.000Z</Time>
            <Position>
              <LatitudeDegrees>38.8353635184466838836669921875</LatitudeDegrees>
              <LongitudeDegrees>-0.41644991375505924224853515625</LongitudeDegrees>
            </Position>
            <AltitudeMeters>578</AltitudeMeters>
            <DistanceMeters>26475.435323646</DistanceMeters>
          </Trackpoint>
          <Trackpoint>
            <Time>2021-06-20T08:22:31.000Z</Time>
            <Position>
              <LatitudeDegrees>38.8354064337909221649169921875</LatitudeDegrees>
              <LongitudeDegrees>-0.41640381328761577606201171875</LongitudeDegrees>
            </Position>
            <AltitudeMeters>577</AltitudeMeters>
            <DistanceMeters>26481.663743061</DistanceMeters>
          </Trackpoint>
          <Trackpoint>
            <Time>2021-06-20T08:22:37.000Z</Time>
            <Position>
              <LatitudeDegrees>38.8355244509875774383544921875</LatitudeDegrees>
              <LongitudeDegrees>-0.41625226847827434539794921875</LongitudeDegrees>
            </Position>
            <AltitudeMeters>576</AltitudeMeters>
            <DistanceMeters>26500.242863119</DistanceMeters>
          </Trackpoint>
          <Trackpoint>
            <Time>2021-06-20T08:22:43.000Z</Time>
            <Position>
              <LatitudeDegrees>38.83561790920794010162353515625</LatitudeDegrees>
              <LongitudeDegrees>-0.4160919226706027984619140625</LongitudeDegrees>
            </Position>
            <AltitudeMeters>574.79998779296875</AltitudeMeters>
            <DistanceMeters>26517.605468684</DistanceMeters>
          </Trackpoint>
          <Trackpoint>
            <Time>2021-06-20T08:22:49.000Z</Time>
            <Position>
              <LatitudeDegrees>38.835756294429302215576171875</LatitudeDegrees>
              <LongitudeDegrees>-0.41605629958212375640869140625</LongitudeDegrees>
            </Position>
            <AltitudeMeters>573.79998779296875</AltitudeMeters>
            <DistanceMeters>26533.314508408</DistanceMeters>
          </Trackpoint>
          <Trackpoint>
            <Time>2021-06-20T08:22:55.000Z</Time>
            <Position>
              <LatitudeDegrees>38.8358974456787109375</LatitudeDegrees>
              <LongitudeDegrees>-0.4161224327981472015380859375</LongitudeDegrees>
            </Position>
            <AltitudeMeters>573.5999755859375</AltitudeMeters>
            <DistanceMeters>26550.038670204</DistanceMeters>
          </Trackpoint>
          <Trackpoint>
            <Time>2021-06-20T08:23:07.000Z</Time>
            <Position>
              <LatitudeDegrees>38.83617027662694454193115234375</LatitudeDegrees>
              <LongitudeDegrees>-0.41622393764555454254150390625</LongitudeDegrees>
            </Position>
            <AltitudeMeters>571.5999755859375</AltitudeMeters>
            <DistanceMeters>26581.65473071</DistanceMeters>
          </Trackpoint>
          <Trackpoint>
            <Time>2021-06-20T08:23:13.000Z</Time>
            <Position>
              <LatitudeDegrees>38.8362984359264373779296875</LatitudeDegrees>
              <LongitudeDegrees>-0.41625612415373325347900390625</LongitudeDegrees>
            </Position>
            <AltitudeMeters>570.5999755859375</AltitudeMeters>
            <DistanceMeters>26596.189469731</DistanceMeters>
          </Trackpoint>
          <Trackpoint>
            <Time>2021-06-20T08:23:27.000Z</Time>
            <Position>
              <LatitudeDegrees>38.83659557439386844635009765625</LatitudeDegrees>
              <LongitudeDegrees>-0.41612888686358928680419921875</LongitudeDegrees>
            </Position>
            <AltitudeMeters>568.5999755859375</AltitudeMeters>
            <DistanceMeters>26631.052879194</DistanceMeters>
          </Trackpoint>
          <Trackpoint>
            <Time>2021-06-20T08:23:42.000Z</Time>
            <Position>
              <LatitudeDegrees>38.83681434206664562225341796875</LatitudeDegrees>
              <LongitudeDegrees>-0.41609887965023517608642578125</LongitudeDegrees>
            </Position>
            <AltitudeMeters>567.4000244140625</AltitudeMeters>
            <DistanceMeters>26655.540656887</DistanceMeters>
          </Trackpoint>
          <Trackpoint>
            <Time>2021-06-20T08:23:45.000Z</Time>
            <Position>
              <LatitudeDegrees>38.83686346001923084259033203125</LatitudeDegrees>
              <LongitudeDegrees>-0.41614950634539127349853515625</LongitudeDegrees>
            </Position>
            <AltitudeMeters>567.20001220703125</AltitudeMeters>
            <DistanceMeters>26662.551413343</DistanceMeters>
          </Trackpoint>
          <Trackpoint>
            <Time>2021-06-20T08:23:46.000Z</Time>
            <Position>
              <LatitudeDegrees>38.83688340894877910614013671875</LatitudeDegrees>
              <LongitudeDegrees>-0.41614967398345470428466796875</LongitudeDegrees>
            </Position>
            <AltitudeMeters>567</AltitudeMeters>
            <DistanceMeters>26664.771868643</DistanceMeters>
          </Trackpoint>
          <Trackpoint>
            <Time>2021-06-20T08:23:50.000Z</Time>
            <Position>
              <LatitudeDegrees>38.83695532567799091339111328125</LatitudeDegrees>
              <LongitudeDegrees>-0.4161884821951389312744140625</LongitudeDegrees>
            </Position>
            <AltitudeMeters>567.5999755859375</AltitudeMeters>
            <DistanceMeters>26673.455251527</DistanceMeters>
          </Trackpoint>
          <Trackpoint>
            <Time>2021-06-20T08:23:51.000Z</Time>
            <Position>
              <LatitudeDegrees>38.83693076670169830322265625</LatitudeDegrees>
              <LongitudeDegrees>-0.41631194762885570526123046875</LongitudeDegrees>
            </Position>
            <AltitudeMeters>567.5999755859375</AltitudeMeters>
            <DistanceMeters>26684.502490238</DistanceMeters>
          </Trackpoint>
          <Trackpoint>
            <Time>2021-06-20T08:23:54.000Z</Time>
            <Position>
              <LatitudeDegrees>38.83696119301021099090576171875</LatitudeDegrees>
              <LongitudeDegrees>-0.41624732315540313720703125</LongitudeDegrees>
            </Position>
            <AltitudeMeters>567</AltitudeMeters>
            <DistanceMeters>26691.04899639</DistanceMeters>
          </Trackpoint>
          <Trackpoint>
            <Time>2021-06-20T08:23:58.000Z</Time>
            <Position>
              <LatitudeDegrees>38.83707267232239246368408203125</LatitudeDegrees>
              <LongitudeDegrees>-0.4162391088902950286865234375</LongitudeDegrees>
            </Position>
            <AltitudeMeters>566</AltitudeMeters>
            <DistanceMeters>26703.477168323</DistanceMeters>
          </Trackpoint>
          <Trackpoint>
            <Time>2021-06-20T08:24:00.000Z</Time>
            <Position>
              <LatitudeDegrees>38.83711047470569610595703125</LatitudeDegrees>
              <LongitudeDegrees>-0.41618118993937969207763671875</LongitudeDegrees>
            </Position>
            <AltitudeMeters>565.79998779296875</AltitudeMeters>
            <DistanceMeters>26710.027811288</DistanceMeters>
          </Trackpoint>
          <Trackpoint>
            <Time>2021-06-20T08:24:02.000Z</Time>
            <Position>
              <LatitudeDegrees>38.8371253944933414459228515625</LatitudeDegrees>
              <LongitudeDegrees>-0.41605344973504543304443359375</LongitudeDegrees>
            </Position>
            <AltitudeMeters>565.5999755859375</AltitudeMeters>
            <DistanceMeters>26721.226458602</DistanceMeters>
          </Trackpoint>
          <Trackpoint>
            <Time>2021-06-20T08:24:20.000Z</Time>
            <Position>
              <LatitudeDegrees>38.83712748996913433074951171875</LatitudeDegrees>
              <LongitudeDegrees>-0.415502004325389862060546875</LongitudeDegrees>
            </Position>
            <AltitudeMeters>567</AltitudeMeters>
            <DistanceMeters>26769.035474274</DistanceMeters>
          </Trackpoint>
          <Trackpoint>
            <Time>2021-06-20T08:24:28.000Z</Time>
            <Position>
              <LatitudeDegrees>38.837161101400852203369140625</LatitudeDegrees>
              <LongitudeDegrees>-0.4152611084282398223876953125</LongitudeDegrees>
            </Position>
            <AltitudeMeters>568.79998779296875</AltitudeMeters>
            <DistanceMeters>26790.252622313</DistanceMeters>
          </Trackpoint>
          <Trackpoint>
            <Time>2021-06-20T08:24:32.000Z</Time>
            <Position>
              <LatitudeDegrees>38.837198317050933837890625</LatitudeDegrees>
              <LongitudeDegrees>-0.4151481203734874725341796875</LongitudeDegrees>
            </Position>
            <AltitudeMeters>569.4000244140625</AltitudeMeters>
            <DistanceMeters>26800.887975505</DistanceMeters>
          </Trackpoint>
          <Trackpoint>
            <Time>2021-06-20T08:24:36.000Z</Time>
            <Position>
              <LatitudeDegrees>38.83721181191504001617431640625</LatitudeDegrees>
              <LongitudeDegrees>-0.4150277562439441680908203125</LongitudeDegrees>
            </Position>
            <AltitudeMeters>570.79998779296875</AltitudeMeters>
            <DistanceMeters>26811.431231218</DistanceMeters>
          </Trackpoint>
          <Trackpoint>
            <Time>2021-06-20T08:24:44.000Z</Time>
            <Position>
              <LatitudeDegrees>38.83723880164325237274169921875</LatitudeDegrees>
              <LongitudeDegrees>-0.41478593833744525909423828125</LongitudeDegrees>
            </Position>
            <AltitudeMeters>574.79998779296875</AltitudeMeters>
            <DistanceMeters>26832.610040371</DistanceMeters>
          </Trackpoint>
          <Trackpoint>
            <Time>2021-06-20T08:24:48.000Z</Time>
            <Position>
              <LatitudeDegrees>38.83726470172405242919921875</LatitudeDegrees>
              <LongitudeDegrees>-0.41466842405498027801513671875</LongitudeDegrees>
            </Position>
            <AltitudeMeters>576</AltitudeMeters>
            <DistanceMeters>26843.19816575</DistanceMeters>
          </Trackpoint>
          <Trackpoint>
            <Time>2021-06-20T08:24:50.000Z</Time>
            <Position>
              <LatitudeDegrees>38.8372712396085262298583984375</LatitudeDegrees>
              <LongitudeDegrees>-0.41460857726633548736572265625</LongitudeDegrees>
            </Position>
            <AltitudeMeters>576.20001220703125</AltitudeMeters>
            <DistanceMeters>26848.437577205</DistanceMeters>
          </Trackpoint>
          <Trackpoint>
            <Time>2021-06-20T08:25:24.000Z</Time>
            <Position>
              <LatitudeDegrees>38.83741398341953754425048828125</LatitudeDegrees>
              <LongitudeDegrees>-0.41365991346538066864013671875</LongitudeDegrees>
            </Position>
            <AltitudeMeters>577.79998779296875</AltitudeMeters>
            <DistanceMeters>26932.203774149</DistanceMeters>
          </Trackpoint>
          <Trackpoint>
            <Time>2021-06-20T08:25:30.000Z</Time>
            <Position>
              <LatitudeDegrees>38.83736033923923969268798828125</LatitudeDegrees>
              <LongitudeDegrees>-0.41350384242832660675048828125</LongitudeDegrees>
            </Position>
            <AltitudeMeters>578.20001220703125</AltitudeMeters>
            <DistanceMeters>26946.993484819</DistanceMeters>
          </Trackpoint>
          <Trackpoint>
            <Time>2021-06-20T08:25:42.000Z</Time>
            <Position>
              <LatitudeDegrees>38.83726336061954498291015625</LatitudeDegrees>
              <LongitudeDegrees>-0.41324383579194545745849609375</LongitudeDegrees>
            </Position>
            <AltitudeMeters>579.4000244140625</AltitudeMeters>
            <DistanceMeters>26971.98605267</DistanceMeters>
          </Trackpoint>
          <Trackpoint>
            <Time>2021-06-20T08:25:44.000Z</Time>
            <Position>
              <LatitudeDegrees>38.837268389761447906494140625</LatitudeDegrees>
              <LongitudeDegrees>-0.41320762597024440765380859375</LongitudeDegrees>
            </Position>
            <AltitudeMeters>580</AltitudeMeters>
            <DistanceMeters>26975.174761825</DistanceMeters>
          </Trackpoint>
          <Trackpoint>
            <Time>2021-06-20T08:25:48.000Z</Time>
            <Position>
              <LatitudeDegrees>38.83725070394575595855712890625</LatitudeDegrees>
              <LongitudeDegrees>-0.4131193645298480987548828125</LongitudeDegrees>
            </Position>
            <AltitudeMeters>580.20001220703125</AltitudeMeters>
            <DistanceMeters>26983.075705975</DistanceMeters>
          </Trackpoint>
          <Trackpoint>
            <Time>2021-06-20T08:25:50.000Z</Time>
            <Position>
              <LatitudeDegrees>38.8372454233467578887939453125</LatitudeDegrees>
              <LongitudeDegrees>-0.413053147494792938232421875</LongitudeDegrees>
            </Position>
            <AltitudeMeters>580.20001220703125</AltitudeMeters>
            <DistanceMeters>26988.845009379</DistanceMeters>
          </Trackpoint>
          <Trackpoint>
            <Time>2021-06-20T08:25:51.000Z</Time>
            <Position>
              <LatitudeDegrees>38.8371974788606166839599609375</LatitudeDegrees>
              <LongitudeDegrees>-0.41315180249512195587158203125</LongitudeDegrees>
            </Position>
            <AltitudeMeters>580.4000244140625</AltitudeMeters>
            <DistanceMeters>26998.92590618</DistanceMeters>
          </Trackpoint>
          <Trackpoint>
            <Time>2021-06-20T08:25:52.000Z</Time>
            <Position>
              <LatitudeDegrees>38.8371974788606166839599609375</LatitudeDegrees>
              <LongitudeDegrees>-0.41315180249512195587158203125</LongitudeDegrees>
            </Position>
            <AltitudeMeters>580.4000244140625</AltitudeMeters>
            <DistanceMeters>26999.020932894</DistanceMeters>
          </Trackpoint>
          <Trackpoint>
            <Time>2021-06-20T08:25:56.000Z</Time>
            <Position>
              <LatitudeDegrees>38.83717954158782958984375</LatitudeDegrees>
              <LongitudeDegrees>-0.413002185523509979248046875</LongitudeDegrees>
            </Position>
            <AltitudeMeters>581.5999755859375</AltitudeMeters>
            <DistanceMeters>27012.145288427</DistanceMeters>
          </Trackpoint>
          <Trackpoint>
            <Time>2021-06-20T08:25:58.000Z</Time>
            <Position>
              <LatitudeDegrees>38.8371776975691318511962890625</LatitudeDegrees>
              <LongitudeDegrees>-0.41293571703135967254638671875</LongitudeDegrees>
            </Position>
            <AltitudeMeters>581.79998779296875</AltitudeMeters>
            <DistanceMeters>27017.911460595</DistanceMeters>
          </Trackpoint>
          <Trackpoint>
            <Time>2021-06-20T08:26:02.000Z</Time>
            <Position>
              <LatitudeDegrees>38.8371371291577816009521484375</LatitudeDegrees>
              <LongitudeDegrees>-0.412790961563587188720703125</LongitudeDegrees>
            </Position>
            <AltitudeMeters>582.4000244140625</AltitudeMeters>
            <DistanceMeters>27031.248418486</DistanceMeters>
          </Trackpoint>
          <Trackpoint>
            <Time>2021-06-20T08:26:04.000Z</Time>
            <Position>
              <LatitudeDegrees>38.83712598122656345367431640625</LatitudeDegrees>
              <LongitudeDegrees>-0.412739329040050506591796875</LongitudeDegrees>
            </Position>
            <AltitudeMeters>582.5999755859375</AltitudeMeters>
            <DistanceMeters>27035.894048982</DistanceMeters>
          </Trackpoint>
          <Trackpoint>
            <Time>2021-06-20T08:26:24.000Z</Time>
            <Position>
              <LatitudeDegrees>38.83672599680721759796142578125</LatitudeDegrees>
              <LongitudeDegrees>-0.41260127909481525421142578125</LongitudeDegrees>
            </Position>
            <AltitudeMeters>583.79998779296875</AltitudeMeters>
            <DistanceMeters>27081.993857775</DistanceMeters>
          </Trackpoint>
          <Trackpoint>
            <Time>2021-06-20T08:26:26.000Z</Time>
            <Position>
              <LatitudeDegrees>38.836692385375499725341796875</LatitudeDegrees>
              <LongitudeDegrees>-0.4125658236443996429443359375</LongitudeDegrees>
            </Position>
            <AltitudeMeters>583.4000244140625</AltitudeMeters>
            <DistanceMeters>27086.835559795</DistanceMeters>
          </Trackpoint>
          <Trackpoint>
            <Time>2021-06-20T08:26:56.000Z</Time>
            <Position>
              <LatitudeDegrees>38.83615938015282154083251953125</LatitudeDegrees>
              <LongitudeDegrees>-0.4121175594627857208251953125</LongitudeDegrees>
            </Position>
            <AltitudeMeters>585</AltitudeMeters>
            <DistanceMeters>27157.75637204</DistanceMeters>
          </Trackpoint>
          <Trackpoint>
            <Time>2021-06-20T08:27:04.000Z</Time>
            <Position>
              <LatitudeDegrees>38.8360032252967357635498046875</LatitudeDegrees>
              <LongitudeDegrees>-0.41206383146345615386962890625</LongitudeDegrees>
            </Position>
            <AltitudeMeters>585.4000244140625</AltitudeMeters>
            <DistanceMeters>27175.749825316</DistanceMeters>
          </Trackpoint>
          <Trackpoint>
            <Time>2021-06-20T08:27:18.000Z</Time>
            <Position>
              <LatitudeDegrees>38.8360310532152652740478515625</LatitudeDegrees>
              <LongitudeDegrees>-0.41182838380336761474609375</LongitudeDegrees>
            </Position>
            <AltitudeMeters>586</AltitudeMeters>
            <DistanceMeters>27196.396442925</DistanceMeters>
          </Trackpoint>
          <Trackpoint>
            <Time>2021-06-20T08:27:24.000Z</Time>
            <Position>
              <LatitudeDegrees>38.8361562788486480712890625</LatitudeDegrees>
              <LongitudeDegrees>-0.41176141239702701568603515625</LongitudeDegrees>
            </Position>
            <AltitudeMeters>585.79998779296875</AltitudeMeters>
            <DistanceMeters>27211.495227973</DistanceMeters>
          </Trackpoint>
          <Trackpoint>
            <Time>2021-06-20T08:27:38.000Z</Time>
            <Position>
              <LatitudeDegrees>38.83644319139420986175537109375</LatitudeDegrees>
              <LongitudeDegrees>-0.41163769550621509552001953125</LongitudeDegrees>
            </Position>
            <AltitudeMeters>585.5999755859375</AltitudeMeters>
            <DistanceMeters>27245.182432767</DistanceMeters>
          </Trackpoint>
          <Trackpoint>
            <Time>2021-06-20T08:27:42.000Z</Time>
            <Position>
              <LatitudeDegrees>38.83649624884128570556640625</LatitudeDegrees>
              <LongitudeDegrees>-0.41161590255796909332275390625</LongitudeDegrees>
            </Position>
            <AltitudeMeters>585.5999755859375</AltitudeMeters>
            <DistanceMeters>27251.383244448</DistanceMeters>
          </Trackpoint>
          <Trackpoint>
            <Time>2021-06-20T08:27:43.000Z</Time>
            <Position>
              <LatitudeDegrees>38.83653488941490650177001953125</LatitudeDegrees>
              <LongitudeDegrees>-0.411594696342945098876953125</LongitudeDegrees>
            </Position>
            <AltitudeMeters>585.5999755859375</AltitudeMeters>
            <DistanceMeters>27256.05890644</DistanceMeters>
          </Trackpoint>
          <Trackpoint>
            <Time>2021-06-20T08:27:47.000Z</Time>
            <Position>
              <LatitudeDegrees>38.83658400736749172210693359375</LatitudeDegrees>
              <LongitudeDegrees>-0.41142948903143405914306640625</LongitudeDegrees>
            </Position>
            <AltitudeMeters>585.79998779296875</AltitudeMeters>
            <DistanceMeters>27271.389752134</DistanceMeters>
          </Trackpoint>
          <Trackpoint>
            <Time>2021-06-20T08:27:51.000Z</Time>
            <Position>
              <LatitudeDegrees>38.8366700895130634307861328125</LatitudeDegrees>
              <LongitudeDegrees>-0.41132370941340923309326171875</LongitudeDegrees>
            </Position>
            <AltitudeMeters>585.20001220703125</AltitudeMeters>
            <DistanceMeters>27284.652703884</DistanceMeters>
          </Trackpoint>
          <Trackpoint>
            <Time>2021-06-20T08:27:56.000Z</Time>
            <Position>
              <LatitudeDegrees>38.83668693713843822479248046875</LatitudeDegrees>
              <LongitudeDegrees>-0.411212481558322906494140625</LongitudeDegrees>
            </Position>
            <AltitudeMeters>585.4000244140625</AltitudeMeters>
            <DistanceMeters>27294.476830158</DistanceMeters>
          </Trackpoint>
        </Track>
      </Lap>
    </Activity>
  </Activities>
</TrainingCenterDatabase>
